<?xml version='1.0' encoding='UTF-8'?><gpx version="1.1" creator="JPX - https://github.com/jenetics/jpx" xmlns="http://www.topografix.com/GPX/1/1"><trk><trkseg><trkpt lat="41.4303434" lon="13.1880811"><ele>15.0</ele><time>2026-03-25T08:37:37.933Z</time></trkpt><trkpt lat="41.4305018" lon="13.1881177"><ele>15.0</ele><time>2026-03-25T08:37:38.937Z</time></trkpt><trkpt lat="41.4306648" lon="13.1881525"><ele>15.0</ele><time>2026-03-25T08:37:39.961Z</time></trkpt><trkpt lat="41.4308282" lon="13.1881714"><ele>15.0</ele><time>2026-03-25T08:37:40.941Z</time></trkpt><trkpt lat="41.4309913" lon="13.1881876"><ele>15.0</ele><time>2026-03-25T08:37:41.938Z</time></trkpt><trkpt lat="41.4311533" lon="13.188201"><ele>15.0</ele><time>2026-03-25T08:37:42.946Z</time></trkpt><trkpt lat="41.4313202" lon="13.188214"><ele>15.0</ele><time>2026-03-25T08:37:43.948Z</time></trkpt><trkpt lat="41.4314854" lon="13.188226"><ele>15.0</ele><time>2026-03-25T08:37:44.943Z</time></trkpt><trkpt lat="41.4316465" lon="13.1882477"><ele>15.0</ele><time>2026-03-25T08:37:45.943Z</time></trkpt><trkpt lat="41.431811" lon="13.1882914"><ele>15.0</ele><time>2026-03-25T08:37:46.948Z</time></trkpt><trkpt lat="41.4319746" lon="13.1883542"><ele>15.0</ele><time>2026-03-25T08:37:47.939Z</time></trkpt><trkpt lat="41.4321365" lon="13.1884162"><ele>15.0</ele><time>2026-03-25T08:37:48.956Z</time></trkpt><trkpt lat="41.4322906" lon="13.1885173"><ele>15.0</ele><time>2026-03-25T08:37:49.947Z</time></trkpt><trkpt lat="41.4324409" lon="13.1886271"><ele>15.0</ele><time>2026-03-25T08:37:50.953Z</time></trkpt><trkpt lat="41.4325894" lon="13.188743"><ele>15.0</ele><time>2026-03-25T08:37:51.941Z</time></trkpt><trkpt lat="41.432735" lon="13.1888577"><ele>15.0</ele><time>2026-03-25T08:37:52.945Z</time></trkpt><trkpt lat="41.4328847" lon="13.1889734"><ele>15.0</ele><time>2026-03-25T08:37:53.943Z</time></trkpt><trkpt lat="41.4330321" lon="13.189088"><ele>15.0</ele><time>2026-03-25T08:37:54.945Z</time></trkpt><trkpt lat="41.4331814" lon="13.1892037"><ele>16.0</ele><time>2026-03-25T08:37:55.941Z</time></trkpt><trkpt lat="41.4333332" lon="13.1893187"><ele>17.0</ele><time>2026-03-25T08:37:56.941Z</time></trkpt><trkpt lat="41.4334859" lon="13.1894353"><ele>18.0</ele><time>2026-03-25T08:37:57.951Z</time></trkpt><trkpt lat="41.4336393" lon="13.1895548"><ele>18.0</ele><time>2026-03-25T08:37:58.944Z</time></trkpt><trkpt lat="41.433791" lon="13.1896718"><ele>18.0</ele><time>2026-03-25T08:37:59.961Z</time></trkpt><trkpt lat="41.433942" lon="13.1897884"><ele>18.0</ele><time>2026-03-25T08:38:00.945Z</time></trkpt><trkpt lat="41.4340927" lon="13.1899041"><ele>18.333333333333332</ele><time>2026-03-25T08:38:01.941Z</time></trkpt><trkpt lat="41.4342376" lon="13.1900139"><ele>18.666666666666664</ele><time>2026-03-25T08:38:02.946Z</time></trkpt><trkpt lat="41.4343675" lon="13.1901127"><ele>19.0</ele><time>2026-03-25T08:38:03.948Z</time></trkpt><trkpt lat="41.4344865" lon="13.1902043"><ele>19.0</ele><time>2026-03-25T08:38:04.941Z</time></trkpt><trkpt lat="41.4345996" lon="13.1902905"><ele>19.0</ele><time>2026-03-25T08:38:05.945Z</time></trkpt><trkpt lat="41.4347041" lon="13.1903681"><ele>19.0</ele><time>2026-03-25T08:38:06.941Z</time></trkpt><trkpt lat="41.434797" lon="13.1904378"><ele>19.0</ele><time>2026-03-25T08:38:07.943Z</time></trkpt><trkpt lat="41.4348673" lon="13.1905114"><ele>19.0</ele><time>2026-03-25T08:38:08.947Z</time></trkpt><trkpt lat="41.4349374" lon="13.1905742"><ele>19.6</ele><time>2026-03-25T08:38:09.948Z</time></trkpt><trkpt lat="41.4349466" lon="13.1906907"><ele>20.2</ele><time>2026-03-25T08:38:10.94Z</time></trkpt><trkpt lat="41.4349219" lon="13.1908128"><ele>20.8</ele><time>2026-03-25T08:38:11.954Z</time></trkpt><trkpt lat="41.4348749" lon="13.1909266"><ele>21.400000000000002</ele><time>2026-03-25T08:38:12.944Z</time></trkpt><trkpt lat="41.4348136" lon="13.1910477"><ele>22.0</ele><time>2026-03-25T08:38:13.95Z</time></trkpt><trkpt lat="41.4347367" lon="13.191173"><ele>22.0</ele><time>2026-03-25T08:38:14.944Z</time></trkpt><trkpt lat="41.4346607" lon="13.1912941"><ele>22.0</ele><time>2026-03-25T08:38:15.946Z</time></trkpt><trkpt lat="41.4345819" lon="13.1914293"><ele>22.0</ele><time>2026-03-25T08:38:16.943Z</time></trkpt><trkpt lat="41.4345053" lon="13.191572"><ele>22.0</ele><time>2026-03-25T08:38:17.953Z</time></trkpt><trkpt lat="41.4344277" lon="13.1917201"><ele>20.75</ele><time>2026-03-25T08:38:18.942Z</time></trkpt><trkpt lat="41.4343479" lon="13.1918745"><ele>19.5</ele><time>2026-03-25T08:38:19.95Z</time></trkpt><trkpt lat="41.4342705" lon="13.1920351"><ele>18.25</ele><time>2026-03-25T08:38:20.941Z</time></trkpt><trkpt lat="41.4341956" lon="13.1922025"><ele>17.0</ele><time>2026-03-25T08:38:21.954Z</time></trkpt><trkpt lat="41.4341213" lon="13.1923771"><ele>16.666666666666668</ele><time>2026-03-25T08:38:22.951Z</time></trkpt><trkpt lat="41.4340473" lon="13.1925527"><ele>16.333333333333332</ele><time>2026-03-25T08:38:23.951Z</time></trkpt><trkpt lat="41.4339733" lon="13.1927313"><ele>16.0</ele><time>2026-03-25T08:38:24.946Z</time></trkpt><trkpt lat="41.4338988" lon="13.1929101"><ele>16.0</ele><time>2026-03-25T08:38:25.947Z</time></trkpt><trkpt lat="41.4338234" lon="13.1930883"><ele>16.0</ele><time>2026-03-25T08:38:26.962Z</time></trkpt><trkpt lat="41.433751" lon="13.1932643"><ele>16.0</ele><time>2026-03-25T08:38:27.947Z</time></trkpt><trkpt lat="41.4336807" lon="13.1934337"><ele>16.0</ele><time>2026-03-25T08:38:28.945Z</time></trkpt><trkpt lat="41.4336128" lon="13.1935997"><ele>15.75</ele><time>2026-03-25T08:38:29.947Z</time></trkpt><trkpt lat="41.4335528" lon="13.1937594"><ele>15.5</ele><time>2026-03-25T08:38:30.945Z</time></trkpt><trkpt lat="41.4335038" lon="13.1939063"><ele>15.25</ele><time>2026-03-25T08:38:31.955Z</time></trkpt><trkpt lat="41.4334644" lon="13.1940395"><ele>15.0</ele><time>2026-03-25T08:38:32.946Z</time></trkpt><trkpt lat="41.4334317" lon="13.194159"><ele>15.0</ele><time>2026-03-25T08:38:33.944Z</time></trkpt><trkpt lat="41.4334057" lon="13.1942671"><ele>15.0</ele><time>2026-03-25T08:38:34.946Z</time></trkpt><trkpt lat="41.4333851" lon="13.1943584"><ele>15.0</ele><time>2026-03-25T08:38:35.946Z</time></trkpt><trkpt lat="41.4333754" lon="13.1944879"><ele>15.0</ele><time>2026-03-25T08:38:37.943Z</time></trkpt><trkpt lat="41.4334278" lon="13.1945469"><ele>15.0</ele><time>2026-03-25T08:38:39.949Z</time></trkpt><trkpt lat="41.4335267" lon="13.1945748"><ele>15.0</ele><time>2026-03-25T08:38:41.949Z</time></trkpt><trkpt lat="41.4336469" lon="13.1946154"><ele>15.0</ele><time>2026-03-25T08:38:43.947Z</time></trkpt><trkpt lat="41.4337211" lon="13.1946484"><ele>15.0</ele><time>2026-03-25T08:38:44.947Z</time></trkpt><trkpt lat="41.4337986" lon="13.1946862"><ele>15.0</ele><time>2026-03-25T08:38:45.952Z</time></trkpt><trkpt lat="41.4338817" lon="13.1947243"><ele>15.0</ele><time>2026-03-25T08:38:46.942Z</time></trkpt><trkpt lat="41.4339636" lon="13.1947626"><ele>15.0</ele><time>2026-03-25T08:38:47.95Z</time></trkpt><trkpt lat="41.4340429" lon="13.1948074"><ele>15.0</ele><time>2026-03-25T08:38:48.941Z</time></trkpt><trkpt lat="41.4341172" lon="13.1948603"><ele>15.166666666666666</ele><time>2026-03-25T08:38:49.95Z</time></trkpt><trkpt lat="41.4341781" lon="13.1949183"><ele>15.333333333333332</ele><time>2026-03-25T08:38:50.947Z</time></trkpt><trkpt lat="41.4342253" lon="13.1949811"><ele>15.5</ele><time>2026-03-25T08:38:51.953Z</time></trkpt><trkpt lat="41.4342751" lon="13.1951259"><ele>15.666666666666666</ele><time>2026-03-25T08:38:53.946Z</time></trkpt><trkpt lat="41.4342804" lon="13.1952561"><ele>15.833333333333332</ele><time>2026-03-25T08:38:55.956Z</time></trkpt><trkpt lat="41.4342957" lon="13.1953747"><ele>16.0</ele><time>2026-03-25T08:38:57.967Z</time></trkpt><trkpt lat="41.4343277" lon="13.1955008"><ele>16.0</ele><time>2026-03-25T08:38:59.946Z</time></trkpt><trkpt lat="41.434366" lon="13.1956243"><ele>16.0</ele><time>2026-03-25T08:39:01.943Z</time></trkpt><trkpt lat="41.4343929" lon="13.1957413"><ele>16.0</ele><time>2026-03-25T08:39:03.946Z</time></trkpt><trkpt lat="41.4343826" lon="13.1958575"><ele>16.0</ele><time>2026-03-25T08:39:05.944Z</time></trkpt><trkpt lat="41.4343608" lon="13.195996"><ele>16.0</ele><time>2026-03-25T08:39:07.945Z</time></trkpt><trkpt lat="41.4343392" lon="13.196155"><ele>15.666666666666666</ele><time>2026-03-25T08:39:09.951Z</time></trkpt><trkpt lat="41.4343307" lon="13.1962393"><ele>15.333333333333332</ele><time>2026-03-25T08:39:10.946Z</time></trkpt><trkpt lat="41.4343131" lon="13.196403"><ele>15.0</ele><time>2026-03-25T08:39:12.953Z</time></trkpt><trkpt lat="41.4343043" lon="13.1964912"><ele>14.666666666666668</ele><time>2026-03-25T08:39:13.947Z</time></trkpt><trkpt lat="41.4342974" lon="13.1965835"><ele>14.333333333333334</ele><time>2026-03-25T08:39:14.945Z</time></trkpt><trkpt lat="41.4342888" lon="13.1966816"><ele>14.0</ele><time>2026-03-25T08:39:15.944Z</time></trkpt><trkpt lat="41.4342817" lon="13.1967892"><ele>14.000000000000002</ele><time>2026-03-25T08:39:16.957Z</time></trkpt><trkpt lat="41.4342755" lon="13.1969003"><ele>14.0</ele><time>2026-03-25T08:39:17.945Z</time></trkpt><trkpt lat="41.4342713" lon="13.1970043"><ele>14.0</ele><time>2026-03-25T08:39:18.951Z</time></trkpt><trkpt lat="41.4342723" lon="13.1971181"><ele>14.0</ele><time>2026-03-25T08:39:19.948Z</time></trkpt><trkpt lat="41.4342794" lon="13.1972377"><ele>14.000000000000002</ele><time>2026-03-25T08:39:20.954Z</time></trkpt><trkpt lat="41.4342961" lon="13.1973599"><ele>14.0</ele><time>2026-03-25T08:39:21.952Z</time></trkpt><trkpt lat="41.4343408" lon="13.1974791"><ele>14.0</ele><time>2026-03-25T08:39:22.959Z</time></trkpt><trkpt lat="41.4343722" lon="13.1975999"><ele>13.999999999999998</ele><time>2026-03-25T08:39:23.948Z</time></trkpt><trkpt lat="41.4343871" lon="13.1977344"><ele>13.999999999999998</ele><time>2026-03-25T08:39:24.955Z</time></trkpt><trkpt lat="41.4344025" lon="13.1978617"><ele>14.0</ele><time>2026-03-25T08:39:25.951Z</time></trkpt><trkpt lat="41.4344261" lon="13.1979808"><ele>14.0</ele><time>2026-03-25T08:39:26.952Z</time></trkpt><trkpt lat="41.4344438" lon="13.1980954"><ele>14.000000000000002</ele><time>2026-03-25T08:39:27.949Z</time></trkpt><trkpt lat="41.4344641" lon="13.1982078"><ele>14.0</ele><time>2026-03-25T08:39:28.963Z</time></trkpt><trkpt lat="41.4344896" lon="13.1983131"><ele>14.0</ele><time>2026-03-25T08:39:29.949Z</time></trkpt><trkpt lat="41.4345101" lon="13.1984195"><ele>14.0</ele><time>2026-03-25T08:39:30.956Z</time></trkpt><trkpt lat="41.43453" lon="13.1985219"><ele>14.000000000000002</ele><time>2026-03-25T08:39:31.948Z</time></trkpt><trkpt lat="41.4345447" lon="13.1986255"><ele>14.0</ele><time>2026-03-25T08:39:32.953Z</time></trkpt><trkpt lat="41.4345581" lon="13.1987172"><ele>14.000000000000002</ele><time>2026-03-25T08:39:33.949Z</time></trkpt><trkpt lat="41.4345733" lon="13.1988101"><ele>14.0</ele><time>2026-03-25T08:39:34.952Z</time></trkpt><trkpt lat="41.4345957" lon="13.1989132"><ele>14.0</ele><time>2026-03-25T08:39:35.952Z</time></trkpt><trkpt lat="41.4346144" lon="13.1990122"><ele>14.0</ele><time>2026-03-25T08:39:36.958Z</time></trkpt><trkpt lat="41.434627" lon="13.1991017"><ele>14.000000000000002</ele><time>2026-03-25T08:39:37.952Z</time></trkpt><trkpt lat="41.4346563" lon="13.1992486"><ele>14.0</ele><time>2026-03-25T08:39:39.952Z</time></trkpt><trkpt lat="41.4346793" lon="13.1993335"><ele>13.833333333333334</ele><time>2026-03-25T08:39:40.958Z</time></trkpt><trkpt lat="41.4347048" lon="13.1994242"><ele>13.666666666666668</ele><time>2026-03-25T08:39:41.951Z</time></trkpt><trkpt lat="41.4347342" lon="13.1995186"><ele>13.5</ele><time>2026-03-25T08:39:42.946Z</time></trkpt><trkpt lat="41.4347629" lon="13.1996154"><ele>13.333333333333332</ele><time>2026-03-25T08:39:43.954Z</time></trkpt><trkpt lat="41.4347901" lon="13.1996995"><ele>13.166666666666666</ele><time>2026-03-25T08:39:44.95Z</time></trkpt><trkpt lat="41.4348275" lon="13.1998053"><ele>13.0</ele><time>2026-03-25T08:39:45.951Z</time></trkpt><trkpt lat="41.4348599" lon="13.1999065"><ele>12.833333333333332</ele><time>2026-03-25T08:39:46.948Z</time></trkpt><trkpt lat="41.4348816" lon="13.2000141"><ele>12.666666666666666</ele><time>2026-03-25T08:39:47.951Z</time></trkpt><trkpt lat="41.4349023" lon="13.2001157"><ele>12.5</ele><time>2026-03-25T08:39:48.951Z</time></trkpt><trkpt lat="41.4349242" lon="13.2002144"><ele>12.333333333333332</ele><time>2026-03-25T08:39:49.951Z</time></trkpt><trkpt lat="41.4349395" lon="13.2003027"><ele>12.166666666666666</ele><time>2026-03-25T08:39:50.953Z</time></trkpt><trkpt lat="41.4349878" lon="13.2004536"><ele>12.0</ele><time>2026-03-25T08:39:52.953Z</time></trkpt><trkpt lat="41.4350217" lon="13.2005262"><ele>12.0</ele><time>2026-03-25T08:39:53.96Z</time></trkpt><trkpt lat="41.4350858" lon="13.2006619"><ele>12.0</ele><time>2026-03-25T08:39:55.948Z</time></trkpt><trkpt lat="41.435152" lon="13.2007868"><ele>12.0</ele><time>2026-03-25T08:39:57.95Z</time></trkpt><trkpt lat="41.4352121" lon="13.2009131"><ele>12.0</ele><time>2026-03-25T08:39:59.957Z</time></trkpt><trkpt lat="41.4352759" lon="13.2010509"><ele>12.0</ele><time>2026-03-25T08:40:01.958Z</time></trkpt><trkpt lat="41.4353539" lon="13.201149"><ele>12.0</ele><time>2026-03-25T08:40:03.953Z</time></trkpt><trkpt lat="41.4354147" lon="13.2012647"><ele>12.0</ele><time>2026-03-25T08:40:05.956Z</time></trkpt><trkpt lat="41.4354835" lon="13.2013842"><ele>12.0</ele><time>2026-03-25T08:40:07.95Z</time></trkpt><trkpt lat="41.4355493" lon="13.2014865"><ele>12.0</ele><time>2026-03-25T08:40:09.951Z</time></trkpt><trkpt lat="41.4356127" lon="13.2015904"><ele>12.285714285714285</ele><time>2026-03-25T08:40:11.953Z</time></trkpt><trkpt lat="41.4356523" lon="13.2016767"><ele>12.571428571428571</ele><time>2026-03-25T08:40:13.956Z</time></trkpt><trkpt lat="41.435693" lon="13.2017537"><ele>12.857142857142858</ele><time>2026-03-25T08:40:15.961Z</time></trkpt><trkpt lat="41.4357398" lon="13.2018342"><ele>13.142857142857142</ele><time>2026-03-25T08:40:17.946Z</time></trkpt><trkpt lat="41.4357857" lon="13.201911"><ele>13.428571428571429</ele><time>2026-03-25T08:40:19.961Z</time></trkpt><trkpt lat="41.4358205" lon="13.2019928"><ele>13.714285714285714</ele><time>2026-03-25T08:40:21.961Z</time></trkpt><trkpt lat="41.4358751" lon="13.202067"><ele>14.0</ele><time>2026-03-25T08:40:24.95Z</time></trkpt><trkpt lat="41.4359387" lon="13.2021117"><ele>14.000000000000002</ele><time>2026-03-25T08:40:29.956Z</time></trkpt><trkpt lat="41.4359892" lon="13.2022051"><ele>14.0</ele><time>2026-03-25T08:40:33.951Z</time></trkpt><trkpt lat="41.4360365" lon="13.2023019"><ele>14.0</ele><time>2026-03-25T08:40:35.951Z</time></trkpt><trkpt lat="41.4360771" lon="13.202373"><ele>14.0</ele><time>2026-03-25T08:40:37.962Z</time></trkpt><trkpt lat="41.4361224" lon="13.2024674"><ele>14.000000000000002</ele><time>2026-03-25T08:40:40.962Z</time></trkpt><trkpt lat="41.4361422" lon="13.2025924"><ele>14.0</ele><time>2026-03-25T08:40:43.958Z</time></trkpt><trkpt lat="41.4361641" lon="13.2026829"><ele>14.000000000000002</ele><time>2026-03-25T08:40:45.961Z</time></trkpt><trkpt lat="41.4362161" lon="13.2027924"><ele>14.0</ele><time>2026-03-25T08:40:48.958Z</time></trkpt><trkpt lat="41.4362583" lon="13.2028788"><ele>14.0</ele><time>2026-03-25T08:40:50.958Z</time></trkpt><trkpt lat="41.4363033" lon="13.202951"><ele>14.0</ele><time>2026-03-25T08:40:52.96Z</time></trkpt><trkpt lat="41.4363601" lon="13.2030376"><ele>14.000000000000002</ele><time>2026-03-25T08:40:54.958Z</time></trkpt><trkpt lat="41.4364259" lon="13.2031495"><ele>14.0</ele><time>2026-03-25T08:40:56.954Z</time></trkpt><trkpt lat="41.4364624" lon="13.2032409"><ele>14.0</ele><time>2026-03-25T08:40:58.956Z</time></trkpt><trkpt lat="41.4364832" lon="13.2033366"><ele>13.999999999999998</ele><time>2026-03-25T08:41:00.955Z</time></trkpt><trkpt lat="41.4364886" lon="13.2034642"><ele>13.999999999999998</ele><time>2026-03-25T08:41:02.956Z</time></trkpt><trkpt lat="41.4364805" lon="13.203603"><ele>14.0</ele><time>2026-03-25T08:41:04.947Z</time></trkpt><trkpt lat="41.4364712" lon="13.2037268"><ele>14.0</ele><time>2026-03-25T08:41:06.951Z</time></trkpt><trkpt lat="41.4364692" lon="13.2038674"><ele>14.000000000000002</ele><time>2026-03-25T08:41:08.961Z</time></trkpt><trkpt lat="41.4364667" lon="13.2040276"><ele>14.0</ele><time>2026-03-25T08:41:10.947Z</time></trkpt><trkpt lat="41.436469" lon="13.204125"><ele>14.0</ele><time>2026-03-25T08:41:11.957Z</time></trkpt><trkpt lat="41.4364722" lon="13.20424"><ele>14.0</ele><time>2026-03-25T08:41:12.947Z</time></trkpt><trkpt lat="41.4364682" lon="13.2043479"><ele>14.000000000000002</ele><time>2026-03-25T08:41:13.948Z</time></trkpt><trkpt lat="41.4364656" lon="13.2044445"><ele>14.0</ele><time>2026-03-25T08:41:14.952Z</time></trkpt><trkpt lat="41.4364411" lon="13.2045732"><ele>14.0</ele><time>2026-03-25T08:41:16.949Z</time></trkpt><trkpt lat="41.4364434" lon="13.2047156"><ele>13.999999999999998</ele><time>2026-03-25T08:41:18.946Z</time></trkpt><trkpt lat="41.4364651" lon="13.2048077"><ele>13.999999999999998</ele><time>2026-03-25T08:41:19.959Z</time></trkpt><trkpt lat="41.4364996" lon="13.2049135"><ele>14.0</ele><time>2026-03-25T08:41:20.959Z</time></trkpt><trkpt lat="41.4365409" lon="13.205035"><ele>14.0</ele><time>2026-03-25T08:41:21.947Z</time></trkpt><trkpt lat="41.4365803" lon="13.205147"><ele>15.000000000000002</ele><time>2026-03-25T08:41:22.969Z</time></trkpt><trkpt lat="41.4366208" lon="13.2052366"><ele>16.0</ele><time>2026-03-25T08:41:23.952Z</time></trkpt><trkpt lat="41.4366624" lon="13.205305"><ele>17.0</ele><time>2026-03-25T08:41:24.949Z</time></trkpt><trkpt lat="41.4367745" lon="13.2053533"><ele>18.0</ele><time>2026-03-25T08:41:26.95Z</time></trkpt><trkpt lat="41.4368484" lon="13.2053277"><ele>19.0</ele><time>2026-03-25T08:41:27.948Z</time></trkpt><trkpt lat="41.4369302" lon="13.2052754"><ele>20.0</ele><time>2026-03-25T08:41:28.954Z</time></trkpt><trkpt lat="41.4370063" lon="13.2052075"><ele>20.0</ele><time>2026-03-25T08:41:29.952Z</time></trkpt><trkpt lat="41.4370788" lon="13.2051197"><ele>20.0</ele><time>2026-03-25T08:41:30.962Z</time></trkpt><trkpt lat="41.4371438" lon="13.2050087"><ele>20.0</ele><time>2026-03-25T08:41:31.949Z</time></trkpt><trkpt lat="41.4372088" lon="13.2048965"><ele>20.0</ele><time>2026-03-25T08:41:32.953Z</time></trkpt><trkpt lat="41.4372537" lon="13.2047596"><ele>20.0</ele><time>2026-03-25T08:41:33.954Z</time></trkpt><trkpt lat="41.4373032" lon="13.2046375"><ele>19.166666666666668</ele><time>2026-03-25T08:41:34.945Z</time></trkpt><trkpt lat="41.4373561" lon="13.2045302"><ele>18.333333333333336</ele><time>2026-03-25T08:41:35.952Z</time></trkpt><trkpt lat="41.4374039" lon="13.2044379"><ele>17.5</ele><time>2026-03-25T08:41:36.958Z</time></trkpt><trkpt lat="41.4374452" lon="13.2043525"><ele>16.666666666666668</ele><time>2026-03-25T08:41:37.956Z</time></trkpt><trkpt lat="41.4374878" lon="13.2042874"><ele>15.833333333333334</ele><time>2026-03-25T08:41:38.963Z</time></trkpt><trkpt lat="41.4376094" lon="13.2042409"><ele>15.0</ele><time>2026-03-25T08:41:40.952Z</time></trkpt><trkpt lat="41.4376754" lon="13.2042268"><ele>15.0</ele><time>2026-03-25T08:41:41.955Z</time></trkpt><trkpt lat="41.4377582" lon="13.2042429"><ele>15.0</ele><time>2026-03-25T08:41:42.953Z</time></trkpt><trkpt lat="41.437847" lon="13.2042431"><ele>15.0</ele><time>2026-03-25T08:41:43.956Z</time></trkpt><trkpt lat="41.4379351" lon="13.2042337"><ele>15.0</ele><time>2026-03-25T08:41:44.954Z</time></trkpt><trkpt lat="41.438033" lon="13.2042181"><ele>15.0</ele><time>2026-03-25T08:41:45.958Z</time></trkpt><trkpt lat="41.4381355" lon="13.204194"><ele>14.8</ele><time>2026-03-25T08:41:46.958Z</time></trkpt><trkpt lat="41.4382382" lon="13.2041604"><ele>14.6</ele><time>2026-03-25T08:41:47.954Z</time></trkpt><trkpt lat="41.4383399" lon="13.2041154"><ele>14.399999999999999</ele><time>2026-03-25T08:41:48.964Z</time></trkpt><trkpt lat="41.4384315" lon="13.2040659"><ele>14.2</ele><time>2026-03-25T08:41:49.949Z</time></trkpt><trkpt lat="41.4385096" lon="13.2040091"><ele>14.0</ele><time>2026-03-25T08:41:50.948Z</time></trkpt><trkpt lat="41.4385819" lon="13.2039398"><ele>14.000000000000002</ele><time>2026-03-25T08:41:51.952Z</time></trkpt><trkpt lat="41.43865" lon="13.2038639"><ele>14.0</ele><time>2026-03-25T08:41:52.963Z</time></trkpt><trkpt lat="41.4387205" lon="13.2037894"><ele>14.0</ele><time>2026-03-25T08:41:53.955Z</time></trkpt><trkpt lat="41.4387888" lon="13.2037205"><ele>14.0</ele><time>2026-03-25T08:41:54.951Z</time></trkpt><trkpt lat="41.4388506" lon="13.2036642"><ele>14.000000000000002</ele><time>2026-03-25T08:41:55.96Z</time></trkpt><trkpt lat="41.4389056" lon="13.2036138"><ele>14.0</ele><time>2026-03-25T08:41:56.958Z</time></trkpt><trkpt lat="41.4390083" lon="13.2035155"><ele>14.0</ele><time>2026-03-25T08:41:58.954Z</time></trkpt><trkpt lat="41.4390639" lon="13.2034631"><ele>14.0</ele><time>2026-03-25T08:41:59.952Z</time></trkpt><trkpt lat="41.4391223" lon="13.2034075"><ele>14.0</ele><time>2026-03-25T08:42:00.964Z</time></trkpt><trkpt lat="41.4391828" lon="13.2033511"><ele>14.0</ele><time>2026-03-25T08:42:01.954Z</time></trkpt><trkpt lat="41.4392416" lon="13.2032971"><ele>14.0</ele><time>2026-03-25T08:42:02.965Z</time></trkpt><trkpt lat="41.439301" lon="13.2032429"><ele>14.0</ele><time>2026-03-25T08:42:03.951Z</time></trkpt><trkpt lat="41.4393623" lon="13.2031836"><ele>14.0</ele><time>2026-03-25T08:42:04.951Z</time></trkpt><trkpt lat="41.4394269" lon="13.2031228"><ele>14.333333333333334</ele><time>2026-03-25T08:42:05.944Z</time></trkpt><trkpt lat="41.4394878" lon="13.2030667"><ele>14.666666666666668</ele><time>2026-03-25T08:42:06.96Z</time></trkpt><trkpt lat="41.4395621" lon="13.203009"><ele>15.0</ele><time>2026-03-25T08:42:07.957Z</time></trkpt><trkpt lat="41.4396364" lon="13.2029661"><ele>15.333333333333332</ele><time>2026-03-25T08:42:08.953Z</time></trkpt><trkpt lat="41.4397109" lon="13.2029299"><ele>15.666666666666666</ele><time>2026-03-25T08:42:09.966Z</time></trkpt><trkpt lat="41.4397777" lon="13.2028881"><ele>16.0</ele><time>2026-03-25T08:42:10.961Z</time></trkpt><trkpt lat="41.4398423" lon="13.2028452"><ele>16.166666666666664</ele><time>2026-03-25T08:42:11.95Z</time></trkpt><trkpt lat="41.4399032" lon="13.202788"><ele>16.333333333333332</ele><time>2026-03-25T08:42:12.957Z</time></trkpt><trkpt lat="41.4400113" lon="13.2027217"><ele>16.5</ele><time>2026-03-25T08:42:14.965Z</time></trkpt><trkpt lat="41.4400734" lon="13.202706"><ele>16.666666666666668</ele><time>2026-03-25T08:42:15.955Z</time></trkpt><trkpt lat="41.4401548" lon="13.202699"><ele>16.833333333333336</ele><time>2026-03-25T08:42:16.958Z</time></trkpt><trkpt lat="41.440242" lon="13.2027015"><ele>17.0</ele><time>2026-03-25T08:42:17.954Z</time></trkpt><trkpt lat="41.4403313" lon="13.2027134"><ele>17.0</ele><time>2026-03-25T08:42:18.952Z</time></trkpt><trkpt lat="41.4404172" lon="13.2027396"><ele>17.0</ele><time>2026-03-25T08:42:19.952Z</time></trkpt><trkpt lat="41.4405023" lon="13.2027797"><ele>17.0</ele><time>2026-03-25T08:42:20.955Z</time></trkpt><trkpt lat="41.440584" lon="13.2028333"><ele>17.0</ele><time>2026-03-25T08:42:21.959Z</time></trkpt><trkpt lat="41.4406623" lon="13.2029052"><ele>17.0</ele><time>2026-03-25T08:42:22.956Z</time></trkpt><trkpt lat="41.4407358" lon="13.2029911"><ele>17.2</ele><time>2026-03-25T08:42:23.979Z</time></trkpt><trkpt lat="41.4408029" lon="13.2030853"><ele>17.4</ele><time>2026-03-25T08:42:24.956Z</time></trkpt><trkpt lat="41.4408596" lon="13.2031888"><ele>17.6</ele><time>2026-03-25T08:42:25.949Z</time></trkpt><trkpt lat="41.4409097" lon="13.2032996"><ele>17.8</ele><time>2026-03-25T08:42:26.955Z</time></trkpt><trkpt lat="41.4409514" lon="13.203408"><ele>18.0</ele><time>2026-03-25T08:42:27.956Z</time></trkpt><trkpt lat="41.4409868" lon="13.2035175"><ele>18.0</ele><time>2026-03-25T08:42:28.962Z</time></trkpt><trkpt lat="41.4410219" lon="13.2036149"><ele>18.0</ele><time>2026-03-25T08:42:29.951Z</time></trkpt><trkpt lat="41.4410607" lon="13.2037016"><ele>18.0</ele><time>2026-03-25T08:42:30.958Z</time></trkpt><trkpt lat="41.441107" lon="13.2037737"><ele>18.0</ele><time>2026-03-25T08:42:31.953Z</time></trkpt><trkpt lat="41.4411543" lon="13.2038453"><ele>18.0</ele><time>2026-03-25T08:42:32.953Z</time></trkpt><trkpt lat="41.4412072" lon="13.2039217"><ele>18.0</ele><time>2026-03-25T08:42:33.95Z</time></trkpt><trkpt lat="41.4412671" lon="13.2040098"><ele>18.166666666666668</ele><time>2026-03-25T08:42:34.957Z</time></trkpt><trkpt lat="41.4413289" lon="13.204101"><ele>18.333333333333332</ele><time>2026-03-25T08:42:35.954Z</time></trkpt><trkpt lat="41.4413904" lon="13.2041902"><ele>18.5</ele><time>2026-03-25T08:42:36.953Z</time></trkpt><trkpt lat="41.44145" lon="13.2042761"><ele>18.666666666666664</ele><time>2026-03-25T08:42:37.967Z</time></trkpt><trkpt lat="41.4415114" lon="13.2043486"><ele>18.833333333333332</ele><time>2026-03-25T08:42:38.947Z</time></trkpt><trkpt lat="41.4415893" lon="13.2044146"><ele>19.0</ele><time>2026-03-25T08:42:39.957Z</time></trkpt><trkpt lat="41.4416703" lon="13.2044811"><ele>19.0</ele><time>2026-03-25T08:42:40.96Z</time></trkpt><trkpt lat="41.4417557" lon="13.2045485"><ele>19.0</ele><time>2026-03-25T08:42:41.954Z</time></trkpt><trkpt lat="41.4418573" lon="13.2046046"><ele>19.0</ele><time>2026-03-25T08:42:42.956Z</time></trkpt><trkpt lat="41.4419551" lon="13.2046545"><ele>19.0</ele><time>2026-03-25T08:42:43.961Z</time></trkpt><trkpt lat="41.4420534" lon="13.2047027"><ele>19.0</ele><time>2026-03-25T08:42:44.956Z</time></trkpt><trkpt lat="41.4421524" lon="13.2047325"><ele>18.599999999999998</ele><time>2026-03-25T08:42:45.953Z</time></trkpt><trkpt lat="41.442259" lon="13.2047393"><ele>18.2</ele><time>2026-03-25T08:42:46.957Z</time></trkpt><trkpt lat="41.4423632" lon="13.204727"><ele>17.799999999999997</ele><time>2026-03-25T08:42:47.966Z</time></trkpt><trkpt lat="41.4424686" lon="13.204715"><ele>17.4</ele><time>2026-03-25T08:42:48.956Z</time></trkpt><trkpt lat="41.4425707" lon="13.204693"><ele>17.0</ele><time>2026-03-25T08:42:49.961Z</time></trkpt><trkpt lat="41.44267" lon="13.2046713"><ele>17.0</ele><time>2026-03-25T08:42:50.954Z</time></trkpt><trkpt lat="41.4427646" lon="13.2046521"><ele>17.0</ele><time>2026-03-25T08:42:51.953Z</time></trkpt><trkpt lat="41.4428686" lon="13.2046527"><ele>17.0</ele><time>2026-03-25T08:42:52.956Z</time></trkpt><trkpt lat="41.442976" lon="13.2046537"><ele>17.0</ele><time>2026-03-25T08:42:53.952Z</time></trkpt><trkpt lat="41.4430819" lon="13.2046574"><ele>17.0</ele><time>2026-03-25T08:42:54.949Z</time></trkpt><trkpt lat="41.4431922" lon="13.2046571"><ele>17.2</ele><time>2026-03-25T08:42:55.949Z</time></trkpt><trkpt lat="41.4432979" lon="13.204663"><ele>17.4</ele><time>2026-03-25T08:42:56.956Z</time></trkpt><trkpt lat="41.4434036" lon="13.2046761"><ele>17.6</ele><time>2026-03-25T08:42:57.954Z</time></trkpt><trkpt lat="41.4435029" lon="13.2046914"><ele>17.8</ele><time>2026-03-25T08:42:58.956Z</time></trkpt><trkpt lat="41.4435983" lon="13.204722"><ele>18.0</ele><time>2026-03-25T08:42:59.954Z</time></trkpt><trkpt lat="41.4437031" lon="13.2047464"><ele>18.166666666666668</ele><time>2026-03-25T08:43:00.952Z</time></trkpt><trkpt lat="41.4438049" lon="13.2047673"><ele>18.333333333333332</ele><time>2026-03-25T08:43:01.947Z</time></trkpt><trkpt lat="41.4439052" lon="13.2047912"><ele>18.5</ele><time>2026-03-25T08:43:02.951Z</time></trkpt><trkpt lat="41.443991" lon="13.2048242"><ele>18.666666666666664</ele><time>2026-03-25T08:43:03.95Z</time></trkpt><trkpt lat="41.444068" lon="13.204856"><ele>18.833333333333332</ele><time>2026-03-25T08:43:04.947Z</time></trkpt><trkpt lat="41.4441319" lon="13.2048861"><ele>19.0</ele><time>2026-03-25T08:43:05.953Z</time></trkpt><trkpt lat="41.4442396" lon="13.2049379"><ele>18.8</ele><time>2026-03-25T08:43:07.956Z</time></trkpt><trkpt lat="41.4443368" lon="13.2049787"><ele>18.599999999999998</ele><time>2026-03-25T08:43:09.953Z</time></trkpt><trkpt lat="41.4444251" lon="13.2049962"><ele>18.4</ele><time>2026-03-25T08:43:11.977Z</time></trkpt><trkpt lat="41.4445077" lon="13.2050654"><ele>18.2</ele><time>2026-03-25T08:43:13.971Z</time></trkpt><trkpt lat="41.4445923" lon="13.2051802"><ele>18.0</ele><time>2026-03-25T08:43:15.958Z</time></trkpt><trkpt lat="41.444642" lon="13.2052352"><ele>18.0</ele><time>2026-03-25T08:43:16.954Z</time></trkpt><trkpt lat="41.4446971" lon="13.2052951"><ele>18.0</ele><time>2026-03-25T08:43:17.953Z</time></trkpt><trkpt lat="41.4447504" lon="13.2053533"><ele>18.0</ele><time>2026-03-25T08:43:18.947Z</time></trkpt><trkpt lat="41.444852" lon="13.2054369"><ele>18.0</ele><time>2026-03-25T08:43:20.952Z</time></trkpt><trkpt lat="41.444944" lon="13.2054951"><ele>18.0</ele><time>2026-03-25T08:43:22.957Z</time></trkpt><trkpt lat="41.4450162" lon="13.2055326"><ele>18.0</ele><time>2026-03-25T08:43:24.956Z</time></trkpt><trkpt lat="41.4450909" lon="13.2055718"><ele>18.0</ele><time>2026-03-25T08:43:37.969Z</time></trkpt><trkpt lat="41.4451464" lon="13.2056175"><ele>18.0</ele><time>2026-03-25T08:43:48.947Z</time></trkpt><trkpt lat="41.4452471" lon="13.205654"><ele>18.0</ele><time>2026-03-25T08:43:50.953Z</time></trkpt><trkpt lat="41.4453106" lon="13.2056773"><ele>18.0</ele><time>2026-03-25T08:43:51.961Z</time></trkpt><trkpt lat="41.4453798" lon="13.2057026"><ele>18.0</ele><time>2026-03-25T08:43:52.956Z</time></trkpt><trkpt lat="41.4454582" lon="13.2057206"><ele>18.0</ele><time>2026-03-25T08:43:53.953Z</time></trkpt><trkpt lat="41.4455411" lon="13.2057354"><ele>18.0</ele><time>2026-03-25T08:43:54.956Z</time></trkpt><trkpt lat="41.4456223" lon="13.2057541"><ele>18.0</ele><time>2026-03-25T08:43:55.964Z</time></trkpt><trkpt lat="41.4456963" lon="13.2057665"><ele>18.0</ele><time>2026-03-25T08:43:56.96Z</time></trkpt><trkpt lat="41.4457664" lon="13.20577"><ele>18.0</ele><time>2026-03-25T08:43:57.975Z</time></trkpt><trkpt lat="41.4458375" lon="13.2057694"><ele>18.0</ele><time>2026-03-25T08:43:58.95Z</time></trkpt><trkpt lat="41.4459142" lon="13.2057638"><ele>18.0</ele><time>2026-03-25T08:43:59.955Z</time></trkpt><trkpt lat="41.4459956" lon="13.2057556"><ele>18.0</ele><time>2026-03-25T08:44:00.951Z</time></trkpt><trkpt lat="41.4460816" lon="13.2057403"><ele>18.0</ele><time>2026-03-25T08:44:01.961Z</time></trkpt><trkpt lat="41.4461651" lon="13.2057175"><ele>18.0</ele><time>2026-03-25T08:44:02.955Z</time></trkpt><trkpt lat="41.4462469" lon="13.2056949"><ele>18.0</ele><time>2026-03-25T08:44:03.951Z</time></trkpt><trkpt lat="41.4463288" lon="13.205666"><ele>18.0</ele><time>2026-03-25T08:44:04.958Z</time></trkpt><trkpt lat="41.4464113" lon="13.2056271"><ele>18.0</ele><time>2026-03-25T08:44:05.959Z</time></trkpt><trkpt lat="41.446491" lon="13.2055849"><ele>18.166666666666668</ele><time>2026-03-25T08:44:06.969Z</time></trkpt><trkpt lat="41.4465654" lon="13.2055422"><ele>18.333333333333332</ele><time>2026-03-25T08:44:07.954Z</time></trkpt><trkpt lat="41.4466367" lon="13.2054942"><ele>18.5</ele><time>2026-03-25T08:44:08.952Z</time></trkpt><trkpt lat="41.4467091" lon="13.2054455"><ele>18.666666666666664</ele><time>2026-03-25T08:44:09.959Z</time></trkpt><trkpt lat="41.4467848" lon="13.205392"><ele>18.833333333333332</ele><time>2026-03-25T08:44:10.954Z</time></trkpt><trkpt lat="41.446861" lon="13.2053411"><ele>19.0</ele><time>2026-03-25T08:44:11.954Z</time></trkpt><trkpt lat="41.4469377" lon="13.2052894"><ele>19.0</ele><time>2026-03-25T08:44:12.955Z</time></trkpt><trkpt lat="41.4470135" lon="13.205239"><ele>19.0</ele><time>2026-03-25T08:44:13.953Z</time></trkpt><trkpt lat="41.4470882" lon="13.2051907"><ele>19.0</ele><time>2026-03-25T08:44:14.951Z</time></trkpt><trkpt lat="41.4471557" lon="13.2051463"><ele>19.0</ele><time>2026-03-25T08:44:15.957Z</time></trkpt><trkpt lat="41.4472208" lon="13.2051007"><ele>19.0</ele><time>2026-03-25T08:44:16.95Z</time></trkpt><trkpt lat="41.4472919" lon="13.2050538"><ele>19.0</ele><time>2026-03-25T08:44:17.952Z</time></trkpt><trkpt lat="41.447366" lon="13.2050036"><ele>18.833333333333332</ele><time>2026-03-25T08:44:18.952Z</time></trkpt><trkpt lat="41.4474408" lon="13.2049532"><ele>18.666666666666664</ele><time>2026-03-25T08:44:19.947Z</time></trkpt><trkpt lat="41.4475172" lon="13.204902"><ele>18.5</ele><time>2026-03-25T08:44:20.957Z</time></trkpt><trkpt lat="41.4475923" lon="13.204853"><ele>18.333333333333332</ele><time>2026-03-25T08:44:21.956Z</time></trkpt><trkpt lat="41.4476593" lon="13.2047944"><ele>18.166666666666668</ele><time>2026-03-25T08:44:22.957Z</time></trkpt><trkpt lat="41.447717" lon="13.204727"><ele>18.0</ele><time>2026-03-25T08:44:23.948Z</time></trkpt><trkpt lat="41.4477764" lon="13.2046563"><ele>18.333333333333332</ele><time>2026-03-25T08:44:24.954Z</time></trkpt><trkpt lat="41.4478361" lon="13.2045824"><ele>18.666666666666668</ele><time>2026-03-25T08:44:25.954Z</time></trkpt><trkpt lat="41.4478964" lon="13.2044995"><ele>19.0</ele><time>2026-03-25T08:44:26.955Z</time></trkpt><trkpt lat="41.4479545" lon="13.2044102"><ele>19.333333333333336</ele><time>2026-03-25T08:44:27.95Z</time></trkpt><trkpt lat="41.4480162" lon="13.2043163"><ele>19.666666666666668</ele><time>2026-03-25T08:44:28.956Z</time></trkpt><trkpt lat="41.4480755" lon="13.2042233"><ele>20.0</ele><time>2026-03-25T08:44:29.952Z</time></trkpt><trkpt lat="41.4481349" lon="13.204129"><ele>20.0</ele><time>2026-03-25T08:44:30.955Z</time></trkpt><trkpt lat="41.4481933" lon="13.2040348"><ele>20.0</ele><time>2026-03-25T08:44:31.952Z</time></trkpt><trkpt lat="41.4482526" lon="13.203941"><ele>20.0</ele><time>2026-03-25T08:44:32.949Z</time></trkpt><trkpt lat="41.4483054" lon="13.2038563"><ele>20.0</ele><time>2026-03-25T08:44:33.959Z</time></trkpt><trkpt lat="41.4483601" lon="13.2037798"><ele>20.0</ele><time>2026-03-25T08:44:34.947Z</time></trkpt><trkpt lat="41.4484174" lon="13.2036986"><ele>20.0</ele><time>2026-03-25T08:44:35.952Z</time></trkpt><trkpt lat="41.4484772" lon="13.2036211"><ele>20.0</ele><time>2026-03-25T08:44:36.96Z</time></trkpt><trkpt lat="41.4485347" lon="13.2035464"><ele>20.0</ele><time>2026-03-25T08:44:37.964Z</time></trkpt><trkpt lat="41.4486035" lon="13.2034789"><ele>20.0</ele><time>2026-03-25T08:44:38.955Z</time></trkpt><trkpt lat="41.4486769" lon="13.203418"><ele>20.0</ele><time>2026-03-25T08:44:39.956Z</time></trkpt><trkpt lat="41.4487492" lon="13.2033593"><ele>20.0</ele><time>2026-03-25T08:44:40.949Z</time></trkpt><trkpt lat="41.448834" lon="13.2033219"><ele>20.0</ele><time>2026-03-25T08:44:41.962Z</time></trkpt><trkpt lat="41.4489163" lon="13.2032888"><ele>19.666666666666668</ele><time>2026-03-25T08:44:42.958Z</time></trkpt><trkpt lat="41.4490032" lon="13.2032798"><ele>19.333333333333336</ele><time>2026-03-25T08:44:43.957Z</time></trkpt><trkpt lat="41.4490924" lon="13.2032786"><ele>19.0</ele><time>2026-03-25T08:44:44.951Z</time></trkpt><trkpt lat="41.4491809" lon="13.2032851"><ele>18.666666666666668</ele><time>2026-03-25T08:44:45.954Z</time></trkpt><trkpt lat="41.4492672" lon="13.2033036"><ele>18.333333333333332</ele><time>2026-03-25T08:44:46.955Z</time></trkpt><trkpt lat="41.4493482" lon="13.2033297"><ele>18.0</ele><time>2026-03-25T08:44:47.958Z</time></trkpt><trkpt lat="41.4494332" lon="13.2033699"><ele>18.0</ele><time>2026-03-25T08:44:48.953Z</time></trkpt><trkpt lat="41.4495128" lon="13.2034278"><ele>18.0</ele><time>2026-03-25T08:44:49.956Z</time></trkpt><trkpt lat="41.4495952" lon="13.2034905"><ele>18.0</ele><time>2026-03-25T08:44:50.959Z</time></trkpt><trkpt lat="41.4496766" lon="13.2035744"><ele>18.0</ele><time>2026-03-25T08:44:51.951Z</time></trkpt><trkpt lat="41.4497531" lon="13.2036665"><ele>18.0</ele><time>2026-03-25T08:44:52.954Z</time></trkpt><trkpt lat="41.4498308" lon="13.2037586"><ele>17.8</ele><time>2026-03-25T08:44:53.952Z</time></trkpt><trkpt lat="41.4499076" lon="13.2038527"><ele>17.6</ele><time>2026-03-25T08:44:54.962Z</time></trkpt><trkpt lat="41.4499828" lon="13.2039441"><ele>17.4</ele><time>2026-03-25T08:44:55.963Z</time></trkpt><trkpt lat="41.4500552" lon="13.2040393"><ele>17.2</ele><time>2026-03-25T08:44:56.953Z</time></trkpt><trkpt lat="41.4501219" lon="13.2041213"><ele>17.0</ele><time>2026-03-25T08:44:57.953Z</time></trkpt><trkpt lat="41.4501829" lon="13.2041946"><ele>17.333333333333336</ele><time>2026-03-25T08:44:58.96Z</time></trkpt><trkpt lat="41.4502464" lon="13.2042646"><ele>17.666666666666668</ele><time>2026-03-25T08:44:59.958Z</time></trkpt><trkpt lat="41.4503105" lon="13.2043336"><ele>18.0</ele><time>2026-03-25T08:45:00.951Z</time></trkpt><trkpt lat="41.4503736" lon="13.2044013"><ele>18.333333333333332</ele><time>2026-03-25T08:45:01.959Z</time></trkpt><trkpt lat="41.4504453" lon="13.2044619"><ele>18.666666666666664</ele><time>2026-03-25T08:45:02.955Z</time></trkpt><trkpt lat="41.4505419" lon="13.2044805"><ele>19.0</ele><time>2026-03-25T08:45:03.957Z</time></trkpt><trkpt lat="41.4506329" lon="13.2045124"><ele>19.0</ele><time>2026-03-25T08:45:04.962Z</time></trkpt><trkpt lat="41.4507194" lon="13.2045623"><ele>19.0</ele><time>2026-03-25T08:45:05.955Z</time></trkpt><trkpt lat="41.4508071" lon="13.2046184"><ele>19.0</ele><time>2026-03-25T08:45:06.956Z</time></trkpt><trkpt lat="41.4508963" lon="13.204675"><ele>19.0</ele><time>2026-03-25T08:45:07.956Z</time></trkpt><trkpt lat="41.4509915" lon="13.2047207"><ele>19.0</ele><time>2026-03-25T08:45:08.956Z</time></trkpt><trkpt lat="41.4511011" lon="13.2047391"><ele>19.0</ele><time>2026-03-25T08:45:09.949Z</time></trkpt><trkpt lat="41.4512115" lon="13.2047237"><ele>19.0</ele><time>2026-03-25T08:45:10.962Z</time></trkpt><trkpt lat="41.4513199" lon="13.204687"><ele>19.0</ele><time>2026-03-25T08:45:11.951Z</time></trkpt><trkpt lat="41.4514227" lon="13.2046316"><ele>19.0</ele><time>2026-03-25T08:45:12.955Z</time></trkpt><trkpt lat="41.4515137" lon="13.204569"><ele>19.0</ele><time>2026-03-25T08:45:13.956Z</time></trkpt><trkpt lat="41.4516031" lon="13.2044896"><ele>19.4</ele><time>2026-03-25T08:45:14.958Z</time></trkpt><trkpt lat="41.4516916" lon="13.2044047"><ele>19.799999999999997</ele><time>2026-03-25T08:45:15.956Z</time></trkpt><trkpt lat="41.4517786" lon="13.2043274"><ele>20.200000000000003</ele><time>2026-03-25T08:45:16.954Z</time></trkpt><trkpt lat="41.4518733" lon="13.2042616"><ele>20.6</ele><time>2026-03-25T08:45:17.953Z</time></trkpt><trkpt lat="41.4519833" lon="13.2042074"><ele>21.0</ele><time>2026-03-25T08:45:18.955Z</time></trkpt><trkpt lat="41.4520872" lon="13.2041725"><ele>21.8</ele><time>2026-03-25T08:45:19.954Z</time></trkpt><trkpt lat="41.4521926" lon="13.2041484"><ele>22.6</ele><time>2026-03-25T08:45:20.956Z</time></trkpt><trkpt lat="41.452297" lon="13.2041342"><ele>23.4</ele><time>2026-03-25T08:45:21.956Z</time></trkpt><trkpt lat="41.4523954" lon="13.2041291"><ele>24.2</ele><time>2026-03-25T08:45:22.962Z</time></trkpt><trkpt lat="41.4524776" lon="13.2041312"><ele>25.0</ele><time>2026-03-25T08:45:23.955Z</time></trkpt><trkpt lat="41.4525459" lon="13.2041465"><ele>25.000000000000004</ele><time>2026-03-25T08:45:24.952Z</time></trkpt><trkpt lat="41.4526128" lon="13.2041613"><ele>25.0</ele><time>2026-03-25T08:45:25.95Z</time></trkpt><trkpt lat="41.452672" lon="13.2041911"><ele>25.0</ele><time>2026-03-25T08:45:26.95Z</time></trkpt><trkpt lat="41.4527636" lon="13.2042652"><ele>25.0</ele><time>2026-03-25T08:45:28.952Z</time></trkpt><trkpt lat="41.4528238" lon="13.2043261"><ele>25.000000000000004</ele><time>2026-03-25T08:45:30.956Z</time></trkpt><trkpt lat="41.4528889" lon="13.2043723"><ele>25.0</ele><time>2026-03-25T08:45:32.954Z</time></trkpt><trkpt lat="41.4530008" lon="13.2044078"><ele>25.4</ele><time>2026-03-25T08:45:34.956Z</time></trkpt><trkpt lat="41.4530797" lon="13.2044023"><ele>25.8</ele><time>2026-03-25T08:45:35.952Z</time></trkpt><trkpt lat="41.4531753" lon="13.2043822"><ele>26.200000000000003</ele><time>2026-03-25T08:45:36.96Z</time></trkpt><trkpt lat="41.4532735" lon="13.2043407"><ele>26.6</ele><time>2026-03-25T08:45:37.947Z</time></trkpt><trkpt lat="41.4533799" lon="13.204291"><ele>27.0</ele><time>2026-03-25T08:45:38.952Z</time></trkpt><trkpt lat="41.4534924" lon="13.2042454"><ele>27.0</ele><time>2026-03-25T08:45:39.951Z</time></trkpt><trkpt lat="41.4536026" lon="13.2042015"><ele>27.000000000000004</ele><time>2026-03-25T08:45:40.95Z</time></trkpt><trkpt lat="41.4537016" lon="13.204166"><ele>27.000000000000004</ele><time>2026-03-25T08:45:41.951Z</time></trkpt><trkpt lat="41.4537825" lon="13.2041654"><ele>27.0</ele><time>2026-03-25T08:45:42.95Z</time></trkpt><trkpt lat="41.4538514" lon="13.2041715"><ele>27.0</ele><time>2026-03-25T08:45:43.947Z</time></trkpt><trkpt lat="41.4539582" lon="13.2042461"><ele>26.200000000000003</ele><time>2026-03-25T08:45:45.957Z</time></trkpt><trkpt lat="41.4540231" lon="13.2042892"><ele>25.400000000000002</ele><time>2026-03-25T08:45:46.948Z</time></trkpt><trkpt lat="41.4540922" lon="13.2043356"><ele>24.6</ele><time>2026-03-25T08:45:47.951Z</time></trkpt><trkpt lat="41.454171" lon="13.2043998"><ele>23.799999999999997</ele><time>2026-03-25T08:45:48.956Z</time></trkpt><trkpt lat="41.454257" lon="13.2044875"><ele>23.0</ele><time>2026-03-25T08:45:49.949Z</time></trkpt><trkpt lat="41.4543572" lon="13.2045786"><ele>23.0</ele><time>2026-03-25T08:45:50.956Z</time></trkpt><trkpt lat="41.4544714" lon="13.2046727"><ele>23.0</ele><time>2026-03-25T08:45:51.95Z</time></trkpt><trkpt lat="41.4545804" lon="13.2047657"><ele>23.0</ele><time>2026-03-25T08:45:52.956Z</time></trkpt><trkpt lat="41.4546817" lon="13.2048528"><ele>23.0</ele><time>2026-03-25T08:45:53.951Z</time></trkpt><trkpt lat="41.4547788" lon="13.2049288"><ele>22.0</ele><time>2026-03-25T08:45:54.95Z</time></trkpt><trkpt lat="41.4548766" lon="13.2049917"><ele>21.0</ele><time>2026-03-25T08:45:55.949Z</time></trkpt><trkpt lat="41.4549821" lon="13.2050327"><ele>20.0</ele><time>2026-03-25T08:45:56.96Z</time></trkpt><trkpt lat="41.4550969" lon="13.205052"><ele>19.0</ele><time>2026-03-25T08:45:57.953Z</time></trkpt><trkpt lat="41.4552203" lon="13.2050596"><ele>19.0</ele><time>2026-03-25T08:45:58.97Z</time></trkpt><trkpt lat="41.4553462" lon="13.2050718"><ele>19.0</ele><time>2026-03-25T08:45:59.958Z</time></trkpt><trkpt lat="41.4554718" lon="13.205087"><ele>19.0</ele><time>2026-03-25T08:46:00.962Z</time></trkpt><trkpt lat="41.4555869" lon="13.2051008"><ele>19.0</ele><time>2026-03-25T08:46:01.951Z</time></trkpt><trkpt lat="41.4556891" lon="13.205113"><ele>19.333333333333332</ele><time>2026-03-25T08:46:02.953Z</time></trkpt><trkpt lat="41.4557808" lon="13.2051232"><ele>19.666666666666664</ele><time>2026-03-25T08:46:03.955Z</time></trkpt><trkpt lat="41.455856" lon="13.2051301"><ele>20.0</ele><time>2026-03-25T08:46:04.957Z</time></trkpt><trkpt lat="41.4559669" lon="13.2051092"><ele>20.333333333333332</ele><time>2026-03-25T08:46:06.96Z</time></trkpt><trkpt lat="41.456027" lon="13.205063"><ele>20.666666666666668</ele><time>2026-03-25T08:46:07.954Z</time></trkpt><trkpt lat="41.4561002" lon="13.2050137"><ele>21.0</ele><time>2026-03-25T08:46:08.957Z</time></trkpt><trkpt lat="41.4561767" lon="13.204972"><ele>21.0</ele><time>2026-03-25T08:46:09.959Z</time></trkpt><trkpt lat="41.4562512" lon="13.2049298"><ele>21.0</ele><time>2026-03-25T08:46:10.957Z</time></trkpt><trkpt lat="41.4563173" lon="13.2048909"><ele>21.0</ele><time>2026-03-25T08:46:11.964Z</time></trkpt><trkpt lat="41.4564126" lon="13.2048056"><ele>21.0</ele><time>2026-03-25T08:46:13.952Z</time></trkpt><trkpt lat="41.4564628" lon="13.2047507"><ele>21.0</ele><time>2026-03-25T08:46:14.95Z</time></trkpt><trkpt lat="41.4565273" lon="13.2046832"><ele>21.0</ele><time>2026-03-25T08:46:15.95Z</time></trkpt><trkpt lat="41.4565822" lon="13.2046118"><ele>21.166666666666668</ele><time>2026-03-25T08:46:16.951Z</time></trkpt><trkpt lat="41.4566387" lon="13.2045277"><ele>21.333333333333332</ele><time>2026-03-25T08:46:17.956Z</time></trkpt><trkpt lat="41.4566954" lon="13.2044462"><ele>21.5</ele><time>2026-03-25T08:46:18.953Z</time></trkpt><trkpt lat="41.4567457" lon="13.204362"><ele>21.666666666666664</ele><time>2026-03-25T08:46:19.971Z</time></trkpt><trkpt lat="41.4567962" lon="13.2042721"><ele>21.833333333333332</ele><time>2026-03-25T08:46:20.955Z</time></trkpt><trkpt lat="41.4568438" lon="13.2041875"><ele>22.0</ele><time>2026-03-25T08:46:21.957Z</time></trkpt><trkpt lat="41.4568808" lon="13.204114"><ele>22.0</ele><time>2026-03-25T08:46:22.949Z</time></trkpt><trkpt lat="41.4569453" lon="13.2039796"><ele>22.0</ele><time>2026-03-25T08:46:24.949Z</time></trkpt><trkpt lat="41.456991" lon="13.2039035"><ele>22.0</ele><time>2026-03-25T08:46:25.95Z</time></trkpt><trkpt lat="41.4570442" lon="13.2038182"><ele>22.0</ele><time>2026-03-25T08:46:26.946Z</time></trkpt><trkpt lat="41.4570957" lon="13.2037173"><ele>22.0</ele><time>2026-03-25T08:46:27.948Z</time></trkpt><trkpt lat="41.4571469" lon="13.2036097"><ele>22.0</ele><time>2026-03-25T08:46:28.948Z</time></trkpt><trkpt lat="41.4572016" lon="13.2035047"><ele>22.0</ele><time>2026-03-25T08:46:29.951Z</time></trkpt><trkpt lat="41.4572572" lon="13.2033987"><ele>22.0</ele><time>2026-03-25T08:46:30.958Z</time></trkpt><trkpt lat="41.4573074" lon="13.2033023"><ele>22.0</ele><time>2026-03-25T08:46:31.952Z</time></trkpt><trkpt lat="41.4573464" lon="13.2032279"><ele>22.0</ele><time>2026-03-25T08:46:32.961Z</time></trkpt><trkpt lat="41.4574124" lon="13.2031007"><ele>22.0</ele><time>2026-03-25T08:46:34.952Z</time></trkpt><trkpt lat="41.4574549" lon="13.2030195"><ele>22.0</ele><time>2026-03-25T08:46:35.961Z</time></trkpt><trkpt lat="41.4575035" lon="13.2029228"><ele>22.0</ele><time>2026-03-25T08:46:36.953Z</time></trkpt><trkpt lat="41.4575594" lon="13.2028209"><ele>22.0</ele><time>2026-03-25T08:46:37.966Z</time></trkpt><trkpt lat="41.4576146" lon="13.202723"><ele>22.0</ele><time>2026-03-25T08:46:38.954Z</time></trkpt><trkpt lat="41.4576724" lon="13.2026161"><ele>22.0</ele><time>2026-03-25T08:46:39.955Z</time></trkpt><trkpt lat="41.4577273" lon="13.2025061"><ele>22.0</ele><time>2026-03-25T08:46:40.951Z</time></trkpt><trkpt lat="41.4577817" lon="13.2023994"><ele>22.0</ele><time>2026-03-25T08:46:41.949Z</time></trkpt><trkpt lat="41.4578408" lon="13.2022841"><ele>22.0</ele><time>2026-03-25T08:46:42.948Z</time></trkpt><trkpt lat="41.457915" lon="13.2021462"><ele>22.0</ele><time>2026-03-25T08:46:43.956Z</time></trkpt><trkpt lat="41.4579954" lon="13.2019972"><ele>22.25</ele><time>2026-03-25T08:46:44.947Z</time></trkpt><trkpt lat="41.4580819" lon="13.2018366"><ele>22.5</ele><time>2026-03-25T08:46:45.971Z</time></trkpt><trkpt lat="41.4581618" lon="13.201699"><ele>22.75</ele><time>2026-03-25T08:46:46.957Z</time></trkpt><trkpt lat="41.4582422" lon="13.2015591"><ele>23.0</ele><time>2026-03-25T08:46:47.951Z</time></trkpt><trkpt lat="41.4583128" lon="13.2014335"><ele>23.0</ele><time>2026-03-25T08:46:48.954Z</time></trkpt><trkpt lat="41.458385" lon="13.2013139"><ele>23.0</ele><time>2026-03-25T08:46:49.951Z</time></trkpt><trkpt lat="41.4584508" lon="13.2012083"><ele>23.0</ele><time>2026-03-25T08:46:50.948Z</time></trkpt><trkpt lat="41.4585252" lon="13.2011169"><ele>23.0</ele><time>2026-03-25T08:46:51.947Z</time></trkpt><trkpt lat="41.4586036" lon="13.2010296"><ele>23.0</ele><time>2026-03-25T08:46:52.964Z</time></trkpt><trkpt lat="41.4586884" lon="13.2009524"><ele>23.0</ele><time>2026-03-25T08:46:53.953Z</time></trkpt><trkpt lat="41.4587686" lon="13.2008888"><ele>23.0</ele><time>2026-03-25T08:46:54.952Z</time></trkpt><trkpt lat="41.4588395" lon="13.2008388"><ele>23.0</ele><time>2026-03-25T08:46:55.953Z</time></trkpt><trkpt lat="41.45891" lon="13.2008085"><ele>23.0</ele><time>2026-03-25T08:46:56.951Z</time></trkpt><trkpt lat="41.4589801" lon="13.2007997"><ele>23.0</ele><time>2026-03-25T08:46:57.957Z</time></trkpt><trkpt lat="41.4590449" lon="13.2007953"><ele>23.0</ele><time>2026-03-25T08:46:58.951Z</time></trkpt><trkpt lat="41.4591146" lon="13.2007751"><ele>22.833333333333336</ele><time>2026-03-25T08:46:59.951Z</time></trkpt><trkpt lat="41.4591945" lon="13.2007451"><ele>22.666666666666668</ele><time>2026-03-25T08:47:00.951Z</time></trkpt><trkpt lat="41.4592701" lon="13.2007186"><ele>22.5</ele><time>2026-03-25T08:47:01.954Z</time></trkpt><trkpt lat="41.4593714" lon="13.2007076"><ele>22.333333333333332</ele><time>2026-03-25T08:47:03.948Z</time></trkpt><trkpt lat="41.4594254" lon="13.2007609"><ele>22.166666666666664</ele><time>2026-03-25T08:47:05.957Z</time></trkpt><trkpt lat="41.4595037" lon="13.2007513"><ele>22.0</ele><time>2026-03-25T08:47:22.957Z</time></trkpt><trkpt lat="41.4595316" lon="13.2006315"><ele>22.0</ele><time>2026-03-25T08:47:24.974Z</time></trkpt><trkpt lat="41.4595426" lon="13.2005437"><ele>22.0</ele><time>2026-03-25T08:47:25.951Z</time></trkpt><trkpt lat="41.4595306" lon="13.2004507"><ele>22.0</ele><time>2026-03-25T08:47:26.953Z</time></trkpt><trkpt lat="41.4595146" lon="13.2003508"><ele>22.0</ele><time>2026-03-25T08:47:27.958Z</time></trkpt><trkpt lat="41.4594979" lon="13.2002363"><ele>22.0</ele><time>2026-03-25T08:47:28.966Z</time></trkpt><trkpt lat="41.459479" lon="13.2001182"><ele>22.0</ele><time>2026-03-25T08:47:29.957Z</time></trkpt><trkpt lat="41.4594655" lon="13.2000161"><ele>22.0</ele><time>2026-03-25T08:47:30.96Z</time></trkpt><trkpt lat="41.459449" lon="13.1998906"><ele>22.0</ele><time>2026-03-25T08:47:32.959Z</time></trkpt><trkpt lat="41.4595252" lon="13.199861"><ele>22.0</ele><time>2026-03-25T08:47:35.967Z</time></trkpt><trkpt lat="41.45967" lon="13.1998598"><ele>22.0</ele><time>2026-03-25T08:47:37.96Z</time></trkpt><trkpt lat="41.4597741" lon="13.1998439"><ele>22.0</ele><time>2026-03-25T08:47:38.962Z</time></trkpt><trkpt lat="41.459896" lon="13.1998169"><ele>22.0</ele><time>2026-03-25T08:47:39.955Z</time></trkpt><trkpt lat="41.4600344" lon="13.199787"><ele>22.0</ele><time>2026-03-25T08:47:40.951Z</time></trkpt><trkpt lat="41.4601958" lon="13.1997523"><ele>22.0</ele><time>2026-03-25T08:47:41.953Z</time></trkpt><trkpt lat="41.4603683" lon="13.1997155"><ele>22.333333333333332</ele><time>2026-03-25T08:47:42.952Z</time></trkpt><trkpt lat="41.4605509" lon="13.1996758"><ele>22.666666666666668</ele><time>2026-03-25T08:47:43.952Z</time></trkpt><trkpt lat="41.4607209" lon="13.1996385"><ele>23.0</ele><time>2026-03-25T08:47:44.955Z</time></trkpt><trkpt lat="41.4608905" lon="13.1996027"><ele>23.0</ele><time>2026-03-25T08:47:45.954Z</time></trkpt><trkpt lat="41.4610606" lon="13.1995643"><ele>23.0</ele><time>2026-03-25T08:47:46.961Z</time></trkpt><trkpt lat="41.4612212" lon="13.1995015"><ele>23.0</ele><time>2026-03-25T08:47:47.959Z</time></trkpt><trkpt lat="41.4613709" lon="13.1994037"><ele>22.666666666666668</ele><time>2026-03-25T08:47:48.963Z</time></trkpt><trkpt lat="41.4615038" lon="13.1992775"><ele>22.333333333333332</ele><time>2026-03-25T08:47:49.948Z</time></trkpt><trkpt lat="41.4616423" lon="13.199127"><ele>22.0</ele><time>2026-03-25T08:47:50.952Z</time></trkpt><trkpt lat="41.4617814" lon="13.1989642"><ele>22.333333333333332</ele><time>2026-03-25T08:47:51.958Z</time></trkpt><trkpt lat="41.4619032" lon="13.1987659"><ele>22.666666666666668</ele><time>2026-03-25T08:47:52.963Z</time></trkpt><trkpt lat="41.4620251" lon="13.1985633"><ele>23.0</ele><time>2026-03-25T08:47:53.957Z</time></trkpt><trkpt lat="41.4621571" lon="13.1983544"><ele>23.0</ele><time>2026-03-25T08:47:54.952Z</time></trkpt><trkpt lat="41.4622847" lon="13.198162"><ele>23.0</ele><time>2026-03-25T08:47:55.957Z</time></trkpt><trkpt lat="41.4624083" lon="13.1979754"><ele>23.0</ele><time>2026-03-25T08:47:56.959Z</time></trkpt><trkpt lat="41.4625195" lon="13.1978014"><ele>23.0</ele><time>2026-03-25T08:47:57.948Z</time></trkpt><trkpt lat="41.4626244" lon="13.1976388"><ele>23.0</ele><time>2026-03-25T08:47:58.959Z</time></trkpt><trkpt lat="41.4627281" lon="13.1974767"><ele>23.0</ele><time>2026-03-25T08:47:59.949Z</time></trkpt><trkpt lat="41.4628236" lon="13.1973265"><ele>23.25</ele><time>2026-03-25T08:48:00.955Z</time></trkpt><trkpt lat="41.4629163" lon="13.1971824"><ele>23.5</ele><time>2026-03-25T08:48:01.949Z</time></trkpt><trkpt lat="41.463009" lon="13.1970419"><ele>23.75</ele><time>2026-03-25T08:48:02.95Z</time></trkpt><trkpt lat="41.4630982" lon="13.1969073"><ele>24.0</ele><time>2026-03-25T08:48:03.96Z</time></trkpt><trkpt lat="41.4631849" lon="13.1967735"><ele>24.0</ele><time>2026-03-25T08:48:04.954Z</time></trkpt><trkpt lat="41.4632748" lon="13.1966362"><ele>24.0</ele><time>2026-03-25T08:48:05.955Z</time></trkpt><trkpt lat="41.4633762" lon="13.196497"><ele>24.0</ele><time>2026-03-25T08:48:06.95Z</time></trkpt><trkpt lat="41.4634882" lon="13.1963639"><ele>24.0</ele><time>2026-03-25T08:48:07.964Z</time></trkpt><trkpt lat="41.4636088" lon="13.1962447"><ele>23.75</ele><time>2026-03-25T08:48:08.955Z</time></trkpt><trkpt lat="41.4637363" lon="13.1961387"><ele>23.5</ele><time>2026-03-25T08:48:09.955Z</time></trkpt><trkpt lat="41.4638691" lon="13.1960437"><ele>23.25</ele><time>2026-03-25T08:48:10.96Z</time></trkpt><trkpt lat="41.4640035" lon="13.195961"><ele>23.0</ele><time>2026-03-25T08:48:11.956Z</time></trkpt><trkpt lat="41.4641425" lon="13.1958996"><ele>23.0</ele><time>2026-03-25T08:48:12.964Z</time></trkpt><trkpt lat="41.4642865" lon="13.1958599"><ele>23.0</ele><time>2026-03-25T08:48:13.962Z</time></trkpt><trkpt lat="41.4644253" lon="13.1958404"><ele>23.0</ele><time>2026-03-25T08:48:14.954Z</time></trkpt><trkpt lat="41.4645701" lon="13.1958302"><ele>23.0</ele><time>2026-03-25T08:48:15.955Z</time></trkpt><trkpt lat="41.4647272" lon="13.1958473"><ele>22.666666666666668</ele><time>2026-03-25T08:48:16.947Z</time></trkpt><trkpt lat="41.4648789" lon="13.1958679"><ele>22.333333333333332</ele><time>2026-03-25T08:48:17.965Z</time></trkpt><trkpt lat="41.46503" lon="13.1959114"><ele>22.0</ele><time>2026-03-25T08:48:18.956Z</time></trkpt><trkpt lat="41.4651675" lon="13.1959728"><ele>22.0</ele><time>2026-03-25T08:48:19.96Z</time></trkpt><trkpt lat="41.4652919" lon="13.1960269"><ele>22.0</ele><time>2026-03-25T08:48:20.951Z</time></trkpt><trkpt lat="41.4654099" lon="13.1960878"><ele>22.0</ele><time>2026-03-25T08:48:21.957Z</time></trkpt><trkpt lat="41.4655176" lon="13.1961561"><ele>22.0</ele><time>2026-03-25T08:48:22.953Z</time></trkpt><trkpt lat="41.4656134" lon="13.1962349"><ele>22.5</ele><time>2026-03-25T08:48:23.958Z</time></trkpt><trkpt lat="41.4657307" lon="13.1963231"><ele>23.0</ele><time>2026-03-25T08:48:24.955Z</time></trkpt><trkpt lat="41.4658589" lon="13.1964055"><ele>23.5</ele><time>2026-03-25T08:48:25.956Z</time></trkpt><trkpt lat="41.4659807" lon="13.1964713"><ele>24.0</ele><time>2026-03-25T08:48:26.958Z</time></trkpt><trkpt lat="41.4661075" lon="13.1965463"><ele>24.0</ele><time>2026-03-25T08:48:27.952Z</time></trkpt><trkpt lat="41.4662399" lon="13.1966201"><ele>24.0</ele><time>2026-03-25T08:48:28.957Z</time></trkpt><trkpt lat="41.4663623" lon="13.1966894"><ele>24.0</ele><time>2026-03-25T08:48:29.96Z</time></trkpt><trkpt lat="41.46649" lon="13.1967393"><ele>24.0</ele><time>2026-03-25T08:48:30.954Z</time></trkpt><trkpt lat="41.4666172" lon="13.1967883"><ele>24.0</ele><time>2026-03-25T08:48:31.954Z</time></trkpt><trkpt lat="41.4667508" lon="13.1968164"><ele>24.0</ele><time>2026-03-25T08:48:32.955Z</time></trkpt><trkpt lat="41.4668889" lon="13.1968241"><ele>24.0</ele><time>2026-03-25T08:48:33.951Z</time></trkpt><trkpt lat="41.4670252" lon="13.1968179"><ele>24.0</ele><time>2026-03-25T08:48:34.95Z</time></trkpt><trkpt lat="41.4671425" lon="13.1968039"><ele>24.2</ele><time>2026-03-25T08:48:35.953Z</time></trkpt><trkpt lat="41.4672441" lon="13.1967825"><ele>24.4</ele><time>2026-03-25T08:48:36.959Z</time></trkpt><trkpt lat="41.4673443" lon="13.1967676"><ele>24.6</ele><time>2026-03-25T08:48:37.95Z</time></trkpt><trkpt lat="41.4674466" lon="13.1967635"><ele>24.8</ele><time>2026-03-25T08:48:38.957Z</time></trkpt><trkpt lat="41.4675576" lon="13.1967776"><ele>25.0</ele><time>2026-03-25T08:48:39.957Z</time></trkpt><trkpt lat="41.4676683" lon="13.1967743"><ele>25.0</ele><time>2026-03-25T08:48:40.958Z</time></trkpt><trkpt lat="41.4677818" lon="13.1967611"><ele>25.0</ele><time>2026-03-25T08:48:41.958Z</time></trkpt><trkpt lat="41.4678969" lon="13.1967406"><ele>25.0</ele><time>2026-03-25T08:48:42.953Z</time></trkpt><trkpt lat="41.46801" lon="13.1967229"><ele>25.0</ele><time>2026-03-25T08:48:43.957Z</time></trkpt><trkpt lat="41.4681354" lon="13.1966986"><ele>24.75</ele><time>2026-03-25T08:48:44.954Z</time></trkpt><trkpt lat="41.468262" lon="13.1966917"><ele>24.5</ele><time>2026-03-25T08:48:45.96Z</time></trkpt><trkpt lat="41.4683882" lon="13.1966771"><ele>24.25</ele><time>2026-03-25T08:48:46.963Z</time></trkpt><trkpt lat="41.4685247" lon="13.1966567"><ele>24.0</ele><time>2026-03-25T08:48:47.958Z</time></trkpt><trkpt lat="41.4686617" lon="13.196643"><ele>23.75</ele><time>2026-03-25T08:48:48.957Z</time></trkpt><trkpt lat="41.4687989" lon="13.196627"><ele>23.5</ele><time>2026-03-25T08:48:49.956Z</time></trkpt><trkpt lat="41.4689416" lon="13.1966148"><ele>23.25</ele><time>2026-03-25T08:48:50.953Z</time></trkpt><trkpt lat="41.469093" lon="13.1966021"><ele>23.0</ele><time>2026-03-25T08:48:51.952Z</time></trkpt><trkpt lat="41.4692466" lon="13.1965875"><ele>23.0</ele><time>2026-03-25T08:48:52.956Z</time></trkpt><trkpt lat="41.4694005" lon="13.1965715"><ele>23.0</ele><time>2026-03-25T08:48:53.957Z</time></trkpt><trkpt lat="41.4695576" lon="13.1965513"><ele>23.0</ele><time>2026-03-25T08:48:54.954Z</time></trkpt><trkpt lat="41.4697159" lon="13.1965307"><ele>23.5</ele><time>2026-03-25T08:48:55.954Z</time></trkpt><trkpt lat="41.4698683" lon="13.196515"><ele>24.0</ele><time>2026-03-25T08:48:56.95Z</time></trkpt><trkpt lat="41.4700148" lon="13.1964973"><ele>24.5</ele><time>2026-03-25T08:48:57.952Z</time></trkpt><trkpt lat="41.4701506" lon="13.1964806"><ele>25.0</ele><time>2026-03-25T08:48:58.957Z</time></trkpt><trkpt lat="41.4702764" lon="13.196465"><ele>25.4</ele><time>2026-03-25T08:48:59.956Z</time></trkpt><trkpt lat="41.4703884" lon="13.196454"><ele>25.8</ele><time>2026-03-25T08:49:00.958Z</time></trkpt><trkpt lat="41.4704882" lon="13.1964434"><ele>26.200000000000003</ele><time>2026-03-25T08:49:01.957Z</time></trkpt><trkpt lat="41.4705765" lon="13.1964351"><ele>26.6</ele><time>2026-03-25T08:49:02.956Z</time></trkpt><trkpt lat="41.4706495" lon="13.1964309"><ele>27.0</ele><time>2026-03-25T08:49:03.979Z</time></trkpt><trkpt lat="41.4707319" lon="13.1964558"><ele>26.714285714285715</ele><time>2026-03-25T08:49:05.953Z</time></trkpt><trkpt lat="41.4707574" lon="13.1965337"><ele>26.428571428571427</ele><time>2026-03-25T08:49:07.96Z</time></trkpt><trkpt lat="41.4707515" lon="13.1966291"><ele>26.142857142857146</ele><time>2026-03-25T08:49:09.963Z</time></trkpt><trkpt lat="41.4707531" lon="13.1967146"><ele>25.857142857142858</ele><time>2026-03-25T08:49:11.959Z</time></trkpt><trkpt lat="41.470746" lon="13.1968059"><ele>25.571428571428573</ele><time>2026-03-25T08:51:49.96Z</time></trkpt><trkpt lat="41.4707573" lon="13.1969231"><ele>25.28571428571429</ele><time>2026-03-25T08:51:51.963Z</time></trkpt><trkpt lat="41.4707659" lon="13.1970092"><ele>25.0</ele><time>2026-03-25T08:51:52.961Z</time></trkpt><trkpt lat="41.4707875" lon="13.1971402"><ele>25.0</ele><time>2026-03-25T08:51:54.958Z</time></trkpt><trkpt lat="41.4708448" lon="13.197185"><ele>25.0</ele><time>2026-03-25T08:51:56.953Z</time></trkpt><trkpt lat="41.4709695" lon="13.197179"><ele>25.0</ele><time>2026-03-25T08:51:58.96Z</time></trkpt><trkpt lat="41.4710509" lon="13.1971739"><ele>25.0</ele><time>2026-03-25T08:51:59.962Z</time></trkpt><trkpt lat="41.4711406" lon="13.1971718"><ele>25.0</ele><time>2026-03-25T08:52:00.957Z</time></trkpt><trkpt lat="41.4712292" lon="13.1971692"><ele>25.0</ele><time>2026-03-25T08:52:01.956Z</time></trkpt><trkpt lat="41.4713151" lon="13.197166"><ele>25.0</ele><time>2026-03-25T08:52:02.954Z</time></trkpt><trkpt lat="41.4714053" lon="13.1971624"><ele>25.0</ele><time>2026-03-25T08:52:03.954Z</time></trkpt><trkpt lat="41.4715001" lon="13.1971493"><ele>25.0</ele><time>2026-03-25T08:52:04.958Z</time></trkpt><trkpt lat="41.4715995" lon="13.1971354"><ele>25.0</ele><time>2026-03-25T08:52:05.961Z</time></trkpt><trkpt lat="41.471696" lon="13.1971208"><ele>25.0</ele><time>2026-03-25T08:52:06.955Z</time></trkpt><trkpt lat="41.4718038" lon="13.1971038"><ele>25.0</ele><time>2026-03-25T08:52:07.957Z</time></trkpt><trkpt lat="41.4719074" lon="13.1971014"><ele>25.0</ele><time>2026-03-25T08:52:08.953Z</time></trkpt><trkpt lat="41.4720128" lon="13.1970978"><ele>25.0</ele><time>2026-03-25T08:52:09.96Z</time></trkpt><trkpt lat="41.4721124" lon="13.1970883"><ele>25.0</ele><time>2026-03-25T08:52:10.96Z</time></trkpt><trkpt lat="41.4722132" lon="13.1970801"><ele>25.2</ele><time>2026-03-25T08:52:11.954Z</time></trkpt><trkpt lat="41.4723185" lon="13.197069"><ele>25.4</ele><time>2026-03-25T08:52:12.954Z</time></trkpt><trkpt lat="41.4724175" lon="13.197061"><ele>25.6</ele><time>2026-03-25T08:52:13.948Z</time></trkpt><trkpt lat="41.4725191" lon="13.1970511"><ele>25.8</ele><time>2026-03-25T08:52:14.966Z</time></trkpt><trkpt lat="41.4726206" lon="13.1970358"><ele>26.0</ele><time>2026-03-25T08:52:15.96Z</time></trkpt><trkpt lat="41.4727225" lon="13.1970229"><ele>26.0</ele><time>2026-03-25T08:52:16.957Z</time></trkpt><trkpt lat="41.4728285" lon="13.1970067"><ele>26.0</ele><time>2026-03-25T08:52:17.955Z</time></trkpt><trkpt lat="41.4729333" lon="13.1969964"><ele>26.0</ele><time>2026-03-25T08:52:18.959Z</time></trkpt><trkpt lat="41.4730379" lon="13.1969817"><ele>26.0</ele><time>2026-03-25T08:52:19.958Z</time></trkpt><trkpt lat="41.4731424" lon="13.1969667"><ele>26.0</ele><time>2026-03-25T08:52:20.962Z</time></trkpt><trkpt lat="41.4732454" lon="13.1969472"><ele>26.0</ele><time>2026-03-25T08:52:21.954Z</time></trkpt><trkpt lat="41.4733462" lon="13.1969282"><ele>26.0</ele><time>2026-03-25T08:52:22.949Z</time></trkpt><trkpt lat="41.4734474" lon="13.1969033"><ele>26.0</ele><time>2026-03-25T08:52:23.958Z</time></trkpt><trkpt lat="41.4735519" lon="13.1968792"><ele>26.0</ele><time>2026-03-25T08:52:24.962Z</time></trkpt><trkpt lat="41.4736513" lon="13.1968397"><ele>26.0</ele><time>2026-03-25T08:52:25.962Z</time></trkpt><trkpt lat="41.4737429" lon="13.1967858"><ele>26.200000000000003</ele><time>2026-03-25T08:52:26.96Z</time></trkpt><trkpt lat="41.4738377" lon="13.196727"><ele>26.400000000000002</ele><time>2026-03-25T08:52:27.961Z</time></trkpt><trkpt lat="41.4739264" lon="13.1966634"><ele>26.6</ele><time>2026-03-25T08:52:28.958Z</time></trkpt><trkpt lat="41.4740159" lon="13.1965881"><ele>26.8</ele><time>2026-03-25T08:52:29.964Z</time></trkpt><trkpt lat="41.4741019" lon="13.1965098"><ele>27.0</ele><time>2026-03-25T08:52:30.96Z</time></trkpt><trkpt lat="41.474179" lon="13.1964364"><ele>26.6</ele><time>2026-03-25T08:52:31.963Z</time></trkpt><trkpt lat="41.4742516" lon="13.1963596"><ele>26.200000000000003</ele><time>2026-03-25T08:52:32.96Z</time></trkpt><trkpt lat="41.4743337" lon="13.1962869"><ele>25.8</ele><time>2026-03-25T08:52:33.959Z</time></trkpt><trkpt lat="41.4744126" lon="13.1962037"><ele>25.4</ele><time>2026-03-25T08:52:34.955Z</time></trkpt><trkpt lat="41.4744958" lon="13.1961223"><ele>25.0</ele><time>2026-03-25T08:52:35.951Z</time></trkpt><trkpt lat="41.4745731" lon="13.1960273"><ele>25.2</ele><time>2026-03-25T08:52:36.949Z</time></trkpt><trkpt lat="41.4746468" lon="13.1959353"><ele>25.4</ele><time>2026-03-25T08:52:37.959Z</time></trkpt><trkpt lat="41.4747209" lon="13.1958368"><ele>25.6</ele><time>2026-03-25T08:52:38.954Z</time></trkpt><trkpt lat="41.4747962" lon="13.195739"><ele>25.8</ele><time>2026-03-25T08:52:39.963Z</time></trkpt><trkpt lat="41.4748749" lon="13.1956398"><ele>26.0</ele><time>2026-03-25T08:52:40.953Z</time></trkpt><trkpt lat="41.4749605" lon="13.1955404"><ele>26.0</ele><time>2026-03-25T08:52:41.962Z</time></trkpt><trkpt lat="41.4750442" lon="13.195449"><ele>26.0</ele><time>2026-03-25T08:52:42.955Z</time></trkpt><trkpt lat="41.4751259" lon="13.1953555"><ele>26.0</ele><time>2026-03-25T08:52:43.958Z</time></trkpt><trkpt lat="41.4752043" lon="13.1952659"><ele>26.0</ele><time>2026-03-25T08:52:44.952Z</time></trkpt><trkpt lat="41.4752762" lon="13.195185"><ele>26.0</ele><time>2026-03-25T08:52:45.953Z</time></trkpt><trkpt lat="41.4753596" lon="13.1951096"><ele>27.0</ele><time>2026-03-25T08:52:46.955Z</time></trkpt><trkpt lat="41.4754487" lon="13.1950464"><ele>28.0</ele><time>2026-03-25T08:52:47.954Z</time></trkpt><trkpt lat="41.4755461" lon="13.1949956"><ele>29.0</ele><time>2026-03-25T08:52:48.952Z</time></trkpt><trkpt lat="41.4756449" lon="13.1949469"><ele>30.0</ele><time>2026-03-25T08:52:49.954Z</time></trkpt><trkpt lat="41.4757469" lon="13.1949038"><ele>31.0</ele><time>2026-03-25T08:52:50.954Z</time></trkpt><trkpt lat="41.4758436" lon="13.1948666"><ele>30.5</ele><time>2026-03-25T08:52:51.954Z</time></trkpt><trkpt lat="41.4759468" lon="13.1948183"><ele>30.0</ele><time>2026-03-25T08:52:52.953Z</time></trkpt><trkpt lat="41.4760594" lon="13.1947635"><ele>29.5</ele><time>2026-03-25T08:52:53.959Z</time></trkpt><trkpt lat="41.4761819" lon="13.1947022"><ele>29.0</ele><time>2026-03-25T08:52:54.947Z</time></trkpt><trkpt lat="41.476311" lon="13.1946365"><ele>29.0</ele><time>2026-03-25T08:52:55.949Z</time></trkpt><trkpt lat="41.476442" lon="13.1945871"><ele>29.0</ele><time>2026-03-25T08:52:56.955Z</time></trkpt><trkpt lat="41.4765747" lon="13.1945386"><ele>29.0</ele><time>2026-03-25T08:52:57.951Z</time></trkpt><trkpt lat="41.4767201" lon="13.1945079"><ele>29.0</ele><time>2026-03-25T08:52:58.954Z</time></trkpt><trkpt lat="41.4768706" lon="13.1944939"><ele>29.0</ele><time>2026-03-25T08:52:59.948Z</time></trkpt><trkpt lat="41.477026" lon="13.1944936"><ele>29.0</ele><time>2026-03-25T08:53:00.957Z</time></trkpt><trkpt lat="41.4771796" lon="13.1944945"><ele>29.0</ele><time>2026-03-25T08:53:01.958Z</time></trkpt><trkpt lat="41.4773306" lon="13.1945209"><ele>28.5</ele><time>2026-03-25T08:53:02.964Z</time></trkpt><trkpt lat="41.4774683" lon="13.1945685"><ele>28.0</ele><time>2026-03-25T08:53:03.953Z</time></trkpt><trkpt lat="41.4776003" lon="13.1946396"><ele>27.5</ele><time>2026-03-25T08:53:04.952Z</time></trkpt><trkpt lat="41.4777299" lon="13.1947238"><ele>27.0</ele><time>2026-03-25T08:53:05.954Z</time></trkpt><trkpt lat="41.4778477" lon="13.1948184"><ele>26.75</ele><time>2026-03-25T08:53:07.004Z</time></trkpt><trkpt lat="41.4779511" lon="13.1949209"><ele>26.5</ele><time>2026-03-25T08:53:07.955Z</time></trkpt><trkpt lat="41.4780447" lon="13.1950245"><ele>26.25</ele><time>2026-03-25T08:53:08.971Z</time></trkpt><trkpt lat="41.4781299" lon="13.1951239"><ele>26.0</ele><time>2026-03-25T08:53:09.944Z</time></trkpt><trkpt lat="41.4781965" lon="13.1952257"><ele>26.0</ele><time>2026-03-25T08:53:10.958Z</time></trkpt><trkpt lat="41.4782599" lon="13.1953244"><ele>26.0</ele><time>2026-03-25T08:53:11.961Z</time></trkpt><trkpt lat="41.4783136" lon="13.1954435"><ele>26.0</ele><time>2026-03-25T08:53:12.955Z</time></trkpt><trkpt lat="41.4783713" lon="13.1955695"><ele>26.0</ele><time>2026-03-25T08:53:13.95Z</time></trkpt><trkpt lat="41.4784318" lon="13.1957011"><ele>26.0</ele><time>2026-03-25T08:53:14.949Z</time></trkpt><trkpt lat="41.4784861" lon="13.1958437"><ele>26.25</ele><time>2026-03-25T08:53:15.951Z</time></trkpt><trkpt lat="41.4785373" lon="13.1959931"><ele>26.5</ele><time>2026-03-25T08:53:16.955Z</time></trkpt><trkpt lat="41.478588" lon="13.1961437"><ele>26.75</ele><time>2026-03-25T08:53:17.969Z</time></trkpt><trkpt lat="41.4786501" lon="13.1962946"><ele>27.0</ele><time>2026-03-25T08:53:18.954Z</time></trkpt><trkpt lat="41.4787162" lon="13.1964404"><ele>27.0</ele><time>2026-03-25T08:53:19.954Z</time></trkpt><trkpt lat="41.4787851" lon="13.1965852"><ele>27.0</ele><time>2026-03-25T08:53:20.95Z</time></trkpt><trkpt lat="41.4788547" lon="13.1967317"><ele>27.0</ele><time>2026-03-25T08:53:21.955Z</time></trkpt><trkpt lat="41.4789243" lon="13.1968774"><ele>27.0</ele><time>2026-03-25T08:53:22.951Z</time></trkpt><trkpt lat="41.4790046" lon="13.1970159"><ele>27.0</ele><time>2026-03-25T08:53:23.959Z</time></trkpt><trkpt lat="41.4791022" lon="13.1971375"><ele>27.0</ele><time>2026-03-25T08:53:24.951Z</time></trkpt><trkpt lat="41.4792057" lon="13.197249"><ele>27.0</ele><time>2026-03-25T08:53:25.964Z</time></trkpt><trkpt lat="41.4793179" lon="13.1973484"><ele>27.0</ele><time>2026-03-25T08:53:26.951Z</time></trkpt><trkpt lat="41.4794324" lon="13.1974287"><ele>27.0</ele><time>2026-03-25T08:53:27.955Z</time></trkpt><trkpt lat="41.4795689" lon="13.1974946"><ele>27.0</ele><time>2026-03-25T08:53:28.953Z</time></trkpt><trkpt lat="41.4797172" lon="13.1975481"><ele>27.0</ele><time>2026-03-25T08:53:29.956Z</time></trkpt><trkpt lat="41.4798648" lon="13.1975929"><ele>26.75</ele><time>2026-03-25T08:53:30.95Z</time></trkpt><trkpt lat="41.4800028" lon="13.1976316"><ele>26.5</ele><time>2026-03-25T08:53:31.966Z</time></trkpt><trkpt lat="41.4801266" lon="13.1976691"><ele>26.25</ele><time>2026-03-25T08:53:32.955Z</time></trkpt><trkpt lat="41.4802347" lon="13.19771"><ele>26.0</ele><time>2026-03-25T08:53:33.966Z</time></trkpt><trkpt lat="41.4803398" lon="13.1977491"><ele>26.0</ele><time>2026-03-25T08:53:34.951Z</time></trkpt><trkpt lat="41.4804463" lon="13.1978118"><ele>26.0</ele><time>2026-03-25T08:53:35.961Z</time></trkpt><trkpt lat="41.4805446" lon="13.1979051"><ele>26.0</ele><time>2026-03-25T08:53:36.96Z</time></trkpt><trkpt lat="41.4806387" lon="13.1980358"><ele>26.0</ele><time>2026-03-25T08:53:37.955Z</time></trkpt><trkpt lat="41.4807269" lon="13.1981868"><ele>26.5</ele><time>2026-03-25T08:53:38.956Z</time></trkpt><trkpt lat="41.4808098" lon="13.1983463"><ele>27.0</ele><time>2026-03-25T08:53:39.954Z</time></trkpt><trkpt lat="41.4808839" lon="13.1985064"><ele>27.5</ele><time>2026-03-25T08:53:40.96Z</time></trkpt><trkpt lat="41.4809509" lon="13.1986555"><ele>28.0</ele><time>2026-03-25T08:53:41.953Z</time></trkpt><trkpt lat="41.4809944" lon="13.1987907"><ele>28.0</ele><time>2026-03-25T08:53:42.946Z</time></trkpt><trkpt lat="41.4810148" lon="13.1989273"><ele>28.0</ele><time>2026-03-25T08:53:43.944Z</time></trkpt><trkpt lat="41.4810706" lon="13.1990728"><ele>28.0</ele><time>2026-03-25T08:53:44.955Z</time></trkpt><trkpt lat="41.4811371" lon="13.1992206"><ele>28.0</ele><time>2026-03-25T08:53:45.953Z</time></trkpt><trkpt lat="41.4812047" lon="13.1993652"><ele>28.0</ele><time>2026-03-25T08:53:46.961Z</time></trkpt><trkpt lat="41.481269" lon="13.1995138"><ele>28.0</ele><time>2026-03-25T08:53:47.961Z</time></trkpt><trkpt lat="41.4813341" lon="13.1996703"><ele>28.0</ele><time>2026-03-25T08:53:48.956Z</time></trkpt><trkpt lat="41.4813991" lon="13.199815"><ele>28.0</ele><time>2026-03-25T08:53:49.954Z</time></trkpt><trkpt lat="41.4814776" lon="13.1999438"><ele>28.25</ele><time>2026-03-25T08:53:50.953Z</time></trkpt><trkpt lat="41.4815593" lon="13.2000659"><ele>28.5</ele><time>2026-03-25T08:53:51.953Z</time></trkpt><trkpt lat="41.4816473" lon="13.2001731"><ele>28.75</ele><time>2026-03-25T08:53:52.958Z</time></trkpt><trkpt lat="41.4817513" lon="13.2002804"><ele>29.0</ele><time>2026-03-25T08:53:53.955Z</time></trkpt><trkpt lat="41.4818669" lon="13.2003737"><ele>29.0</ele><time>2026-03-25T08:53:54.955Z</time></trkpt><trkpt lat="41.4819906" lon="13.2004482"><ele>29.0</ele><time>2026-03-25T08:53:55.952Z</time></trkpt><trkpt lat="41.4821207" lon="13.2005186"><ele>29.0</ele><time>2026-03-25T08:53:56.95Z</time></trkpt><trkpt lat="41.4822528" lon="13.2005853"><ele>29.0</ele><time>2026-03-25T08:53:57.955Z</time></trkpt><trkpt lat="41.4823807" lon="13.200655"><ele>28.75</ele><time>2026-03-25T08:53:58.962Z</time></trkpt><trkpt lat="41.4825107" lon="13.2007256"><ele>28.5</ele><time>2026-03-25T08:53:59.962Z</time></trkpt><trkpt lat="41.4826434" lon="13.2007916"><ele>28.25</ele><time>2026-03-25T08:54:00.96Z</time></trkpt><trkpt lat="41.4827751" lon="13.2008577"><ele>28.0</ele><time>2026-03-25T08:54:01.952Z</time></trkpt><trkpt lat="41.4828912" lon="13.2009161"><ele>28.0</ele><time>2026-03-25T08:54:02.965Z</time></trkpt><trkpt lat="41.4830067" lon="13.2009737"><ele>28.0</ele><time>2026-03-25T08:54:03.96Z</time></trkpt><trkpt lat="41.4831216" lon="13.2010351"><ele>28.0</ele><time>2026-03-25T08:54:04.955Z</time></trkpt><trkpt lat="41.4832328" lon="13.2010943"><ele>28.0</ele><time>2026-03-25T08:54:05.952Z</time></trkpt><trkpt lat="41.483356" lon="13.2011573"><ele>28.0</ele><time>2026-03-25T08:54:06.957Z</time></trkpt><trkpt lat="41.4834734" lon="13.2012244"><ele>27.999999999999996</ele><time>2026-03-25T08:54:07.954Z</time></trkpt><trkpt lat="41.4835715" lon="13.2012913"><ele>27.999999999999996</ele><time>2026-03-25T08:54:08.953Z</time></trkpt><trkpt lat="41.4836559" lon="13.201362"><ele>28.0</ele><time>2026-03-25T08:54:09.967Z</time></trkpt><trkpt lat="41.4837162" lon="13.2014327"><ele>28.0</ele><time>2026-03-25T08:54:10.963Z</time></trkpt><trkpt lat="41.4837722" lon="13.2015466"><ele>28.166666666666668</ele><time>2026-03-25T08:54:12.96Z</time></trkpt><trkpt lat="41.4838498" lon="13.2015725"><ele>28.333333333333336</ele><time>2026-03-25T08:54:15.962Z</time></trkpt><trkpt lat="41.4838999" lon="13.2014781"><ele>28.5</ele><time>2026-03-25T08:54:17.959Z</time></trkpt><trkpt lat="41.4839159" lon="13.2013936"><ele>28.666666666666664</ele><time>2026-03-25T08:54:18.957Z</time></trkpt><trkpt lat="41.4839316" lon="13.2013062"><ele>28.833333333333332</ele><time>2026-03-25T08:54:19.952Z</time></trkpt><trkpt lat="41.4839485" lon="13.2012035"><ele>29.0</ele><time>2026-03-25T08:54:20.957Z</time></trkpt><trkpt lat="41.4839702" lon="13.2010786"><ele>29.0</ele><time>2026-03-25T08:54:21.965Z</time></trkpt><trkpt lat="41.4839927" lon="13.2009496"><ele>29.0</ele><time>2026-03-25T08:54:22.957Z</time></trkpt><trkpt lat="41.4840137" lon="13.2008122"><ele>29.0</ele><time>2026-03-25T08:54:23.958Z</time></trkpt><trkpt lat="41.4840353" lon="13.200669"><ele>29.0</ele><time>2026-03-25T08:54:24.956Z</time></trkpt><trkpt lat="41.484056" lon="13.2005276"><ele>29.0</ele><time>2026-03-25T08:54:25.96Z</time></trkpt><trkpt lat="41.4840766" lon="13.2003915"><ele>29.0</ele><time>2026-03-25T08:54:26.958Z</time></trkpt><trkpt lat="41.4840976" lon="13.2002609"><ele>29.0</ele><time>2026-03-25T08:54:27.957Z</time></trkpt><trkpt lat="41.484118" lon="13.2001372"><ele>29.0</ele><time>2026-03-25T08:54:28.962Z</time></trkpt><trkpt lat="41.4841421" lon="13.2000105"><ele>29.0</ele><time>2026-03-25T08:54:29.957Z</time></trkpt><trkpt lat="41.4841801" lon="13.1998844"><ele>29.0</ele><time>2026-03-25T08:54:30.957Z</time></trkpt><trkpt lat="41.4842326" lon="13.1997568"><ele>29.25</ele><time>2026-03-25T08:54:31.958Z</time></trkpt><trkpt lat="41.4842918" lon="13.1996196"><ele>29.5</ele><time>2026-03-25T08:54:32.958Z</time></trkpt><trkpt lat="41.4843634" lon="13.1994731"><ele>29.75</ele><time>2026-03-25T08:54:33.959Z</time></trkpt><trkpt lat="41.4844429" lon="13.1993343"><ele>30.0</ele><time>2026-03-25T08:54:34.957Z</time></trkpt><trkpt lat="41.4845389" lon="13.1992055"><ele>29.333333333333336</ele><time>2026-03-25T08:54:35.958Z</time></trkpt><trkpt lat="41.4846558" lon="13.199092"><ele>28.666666666666668</ele><time>2026-03-25T08:54:36.952Z</time></trkpt><trkpt lat="41.4847866" lon="13.1989828"><ele>28.0</ele><time>2026-03-25T08:54:37.958Z</time></trkpt><trkpt lat="41.4849175" lon="13.198877"><ele>28.0</ele><time>2026-03-25T08:54:38.958Z</time></trkpt><trkpt lat="41.4850499" lon="13.1987707"><ele>28.0</ele><time>2026-03-25T08:54:39.956Z</time></trkpt><trkpt lat="41.4851851" lon="13.198663"><ele>28.0</ele><time>2026-03-25T08:54:40.962Z</time></trkpt><trkpt lat="41.4853223" lon="13.1985568"><ele>28.666666666666668</ele><time>2026-03-25T08:54:41.962Z</time></trkpt><trkpt lat="41.4854618" lon="13.1984529"><ele>29.333333333333336</ele><time>2026-03-25T08:54:42.95Z</time></trkpt><trkpt lat="41.4855998" lon="13.1983539"><ele>30.0</ele><time>2026-03-25T08:54:43.963Z</time></trkpt><trkpt lat="41.485737" lon="13.1982577"><ele>29.0</ele><time>2026-03-25T08:54:44.955Z</time></trkpt><trkpt lat="41.4858733" lon="13.1981657"><ele>28.0</ele><time>2026-03-25T08:54:45.961Z</time></trkpt><trkpt lat="41.4860123" lon="13.1980752"><ele>27.0</ele><time>2026-03-25T08:54:46.954Z</time></trkpt><trkpt lat="41.4861517" lon="13.1979887"><ele>27.0</ele><time>2026-03-25T08:54:47.963Z</time></trkpt><trkpt lat="41.4862681" lon="13.197924"><ele>27.000000000000004</ele><time>2026-03-25T08:54:48.954Z</time></trkpt><trkpt lat="41.4863593" lon="13.1978817"><ele>27.000000000000004</ele><time>2026-03-25T08:54:49.958Z</time></trkpt><trkpt lat="41.4864303" lon="13.1978607"><ele>27.0</ele><time>2026-03-25T08:54:50.953Z</time></trkpt><trkpt lat="41.4864996" lon="13.1978813"><ele>27.0</ele><time>2026-03-25T08:54:52.956Z</time></trkpt><trkpt lat="41.4865109" lon="13.1980123"><ele>27.0</ele><time>2026-03-25T08:54:55.957Z</time></trkpt><trkpt lat="41.4865377" lon="13.1981696"><ele>27.000000000000004</ele><time>2026-03-25T08:54:57.969Z</time></trkpt><trkpt lat="41.4865548" lon="13.1982695"><ele>27.000000000000004</ele><time>2026-03-25T08:54:58.959Z</time></trkpt><trkpt lat="41.4865702" lon="13.1983903"><ele>27.0</ele><time>2026-03-25T08:54:59.962Z</time></trkpt><trkpt lat="41.4865861" lon="13.1985254"><ele>27.0</ele><time>2026-03-25T08:55:00.949Z</time></trkpt><trkpt lat="41.4866069" lon="13.1986784"><ele>27.0</ele><time>2026-03-25T08:55:01.969Z</time></trkpt><trkpt lat="41.4866288" lon="13.1988431"><ele>27.0</ele><time>2026-03-25T08:55:02.958Z</time></trkpt><trkpt lat="41.486647" lon="13.1989976"><ele>27.0</ele><time>2026-03-25T08:55:03.956Z</time></trkpt><trkpt lat="41.4866603" lon="13.1991465"><ele>27.0</ele><time>2026-03-25T08:55:04.951Z</time></trkpt><trkpt lat="41.4866679" lon="13.199299"><ele>27.0</ele><time>2026-03-25T08:55:05.954Z</time></trkpt><trkpt lat="41.4866704" lon="13.1994424"><ele>27.000000000000004</ele><time>2026-03-25T08:55:06.956Z</time></trkpt><trkpt lat="41.4866796" lon="13.1995849"><ele>27.000000000000004</ele><time>2026-03-25T08:55:07.954Z</time></trkpt><trkpt lat="41.4867045" lon="13.1997192"><ele>27.0</ele><time>2026-03-25T08:55:08.96Z</time></trkpt><trkpt lat="41.4867495" lon="13.1998409"><ele>27.0</ele><time>2026-03-25T08:55:09.956Z</time></trkpt><trkpt lat="41.4868245" lon="13.1999604"><ele>27.666666666666664</ele><time>2026-03-25T08:55:10.952Z</time></trkpt><trkpt lat="41.4869125" lon="13.2000954"><ele>28.333333333333332</ele><time>2026-03-25T08:55:11.954Z</time></trkpt><trkpt lat="41.4870271" lon="13.2002568"><ele>29.0</ele><time>2026-03-25T08:55:12.952Z</time></trkpt><trkpt lat="41.4871539" lon="13.2004235"><ele>29.0</ele><time>2026-03-25T08:55:13.96Z</time></trkpt><trkpt lat="41.4872936" lon="13.2006007"><ele>29.0</ele><time>2026-03-25T08:55:14.951Z</time></trkpt><trkpt lat="41.4874438" lon="13.2007984"><ele>29.0</ele><time>2026-03-25T08:55:15.96Z</time></trkpt><trkpt lat="41.4875991" lon="13.201001"><ele>29.0</ele><time>2026-03-25T08:55:16.956Z</time></trkpt><trkpt lat="41.4877651" lon="13.2011993"><ele>29.0</ele><time>2026-03-25T08:55:17.958Z</time></trkpt><trkpt lat="41.4879171" lon="13.2013778"><ele>29.0</ele><time>2026-03-25T08:55:18.956Z</time></trkpt><trkpt lat="41.4880745" lon="13.2015578"><ele>29.0</ele><time>2026-03-25T08:55:19.963Z</time></trkpt><trkpt lat="41.488233" lon="13.2017256"><ele>29.0</ele><time>2026-03-25T08:55:20.955Z</time></trkpt><trkpt lat="41.4883934" lon="13.201888"><ele>29.0</ele><time>2026-03-25T08:55:21.956Z</time></trkpt><trkpt lat="41.4885567" lon="13.202041"><ele>29.0</ele><time>2026-03-25T08:55:22.958Z</time></trkpt><trkpt lat="41.4887242" lon="13.2021949"><ele>29.0</ele><time>2026-03-25T08:55:23.96Z</time></trkpt><trkpt lat="41.4889028" lon="13.2023481"><ele>29.0</ele><time>2026-03-25T08:55:24.954Z</time></trkpt><trkpt lat="41.4890853" lon="13.2024984"><ele>29.333333333333332</ele><time>2026-03-25T08:55:25.972Z</time></trkpt><trkpt lat="41.4892621" lon="13.2026384"><ele>29.666666666666664</ele><time>2026-03-25T08:55:26.955Z</time></trkpt><trkpt lat="41.4894236" lon="13.2027644"><ele>30.0</ele><time>2026-03-25T08:55:27.959Z</time></trkpt><trkpt lat="41.4895848" lon="13.2028729"><ele>29.333333333333336</ele><time>2026-03-25T08:55:28.959Z</time></trkpt><trkpt lat="41.4897533" lon="13.2029656"><ele>28.666666666666668</ele><time>2026-03-25T08:55:29.964Z</time></trkpt><trkpt lat="41.4899145" lon="13.2030574"><ele>28.0</ele><time>2026-03-25T08:55:30.956Z</time></trkpt><trkpt lat="41.4900756" lon="13.2031572"><ele>28.0</ele><time>2026-03-25T08:55:31.961Z</time></trkpt><trkpt lat="41.4902384" lon="13.2032826"><ele>28.0</ele><time>2026-03-25T08:55:32.954Z</time></trkpt><trkpt lat="41.490416" lon="13.2034051"><ele>28.0</ele><time>2026-03-25T08:55:33.957Z</time></trkpt><trkpt lat="41.4906025" lon="13.2035277"><ele>28.333333333333336</ele><time>2026-03-25T08:55:34.955Z</time></trkpt><trkpt lat="41.4907839" lon="13.2036413"><ele>28.666666666666664</ele><time>2026-03-25T08:55:35.959Z</time></trkpt><trkpt lat="41.4909524" lon="13.20375"><ele>29.0</ele><time>2026-03-25T08:55:36.955Z</time></trkpt><trkpt lat="41.4911252" lon="13.2038589"><ele>29.0</ele><time>2026-03-25T08:55:37.963Z</time></trkpt><trkpt lat="41.4913006" lon="13.2039737"><ele>29.0</ele><time>2026-03-25T08:55:38.96Z</time></trkpt><trkpt lat="41.4914827" lon="13.2040875"><ele>29.0</ele><time>2026-03-25T08:55:39.953Z</time></trkpt><trkpt lat="41.4916633" lon="13.204197"><ele>29.0</ele><time>2026-03-25T08:55:40.958Z</time></trkpt><trkpt lat="41.4918327" lon="13.2043079"><ele>29.0</ele><time>2026-03-25T08:55:41.955Z</time></trkpt><trkpt lat="41.4919985" lon="13.2044133"><ele>29.0</ele><time>2026-03-25T08:55:42.991Z</time></trkpt><trkpt lat="41.4921561" lon="13.204517"><ele>29.0</ele><time>2026-03-25T08:55:43.953Z</time></trkpt><trkpt lat="41.4923048" lon="13.2046261"><ele>29.0</ele><time>2026-03-25T08:55:44.952Z</time></trkpt><trkpt lat="41.4924473" lon="13.204741"><ele>29.0</ele><time>2026-03-25T08:55:45.952Z</time></trkpt><trkpt lat="41.4925765" lon="13.204847"><ele>29.0</ele><time>2026-03-25T08:55:46.957Z</time></trkpt><trkpt lat="41.4927018" lon="13.2049505"><ele>29.0</ele><time>2026-03-25T08:55:47.951Z</time></trkpt><trkpt lat="41.4928161" lon="13.2050503"><ele>29.0</ele><time>2026-03-25T08:55:48.951Z</time></trkpt><trkpt lat="41.4929149" lon="13.2051413"><ele>29.0</ele><time>2026-03-25T08:55:49.957Z</time></trkpt><trkpt lat="41.4930013" lon="13.2052248"><ele>29.666666666666664</ele><time>2026-03-25T08:55:50.955Z</time></trkpt><trkpt lat="41.4930759" lon="13.2053001"><ele>30.333333333333332</ele><time>2026-03-25T08:55:51.962Z</time></trkpt><trkpt lat="41.4931325" lon="13.2053594"><ele>31.0</ele><time>2026-03-25T08:55:52.959Z</time></trkpt><trkpt lat="41.4931896" lon="13.2054421"><ele>31.666666666666664</ele><time>2026-03-25T08:55:54.956Z</time></trkpt><trkpt lat="41.4931829" lon="13.2055262"><ele>32.333333333333336</ele><time>2026-03-25T08:55:56.966Z</time></trkpt><trkpt lat="41.4931172" lon="13.2056273"><ele>33.0</ele><time>2026-03-25T08:55:58.952Z</time></trkpt><trkpt lat="41.4930233" lon="13.2057509"><ele>33.0</ele><time>2026-03-25T08:56:00.951Z</time></trkpt><trkpt lat="41.4929741" lon="13.2058384"><ele>33.0</ele><time>2026-03-25T08:56:01.95Z</time></trkpt><trkpt lat="41.492925" lon="13.2059282"><ele>33.0</ele><time>2026-03-25T08:56:02.955Z</time></trkpt><trkpt lat="41.4929087" lon="13.2060239"><ele>33.0</ele><time>2026-03-25T08:56:03.961Z</time></trkpt><trkpt lat="41.4929141" lon="13.2061152"><ele>33.0</ele><time>2026-03-25T08:56:04.952Z</time></trkpt><trkpt lat="41.4929449" lon="13.2062021"><ele>33.0</ele><time>2026-03-25T08:56:05.961Z</time></trkpt><trkpt lat="41.4929984" lon="13.2062747"><ele>33.0</ele><time>2026-03-25T08:56:06.962Z</time></trkpt><trkpt lat="41.4930786" lon="13.2063211"><ele>33.0</ele><time>2026-03-25T08:56:07.957Z</time></trkpt><trkpt lat="41.4931771" lon="13.2063416"><ele>33.0</ele><time>2026-03-25T08:56:08.963Z</time></trkpt><trkpt lat="41.4932616" lon="13.2063564"><ele>33.0</ele><time>2026-03-25T08:56:09.976Z</time></trkpt><trkpt lat="41.4933742" lon="13.2063973"><ele>33.0</ele><time>2026-03-25T08:56:11.956Z</time></trkpt><trkpt lat="41.4933993" lon="13.2064927"><ele>33.25</ele><time>2026-03-25T08:56:13.96Z</time></trkpt><trkpt lat="41.4934073" lon="13.2066184"><ele>33.5</ele><time>2026-03-25T08:56:14.956Z</time></trkpt><trkpt lat="41.4933011" lon="13.2068026"><ele>33.75</ele><time>2026-03-25T08:56:15.952Z</time></trkpt><trkpt lat="41.4932381" lon="13.2069862"><ele>34.0</ele><time>2026-03-25T08:56:16.952Z</time></trkpt><trkpt lat="41.4931799" lon="13.2071559"><ele>34.0</ele><time>2026-03-25T08:56:17.964Z</time></trkpt><trkpt lat="41.4931095" lon="13.2072954"><ele>34.0</ele><time>2026-03-25T08:56:18.96Z</time></trkpt><trkpt lat="41.4930382" lon="13.2073894"><ele>34.0</ele><time>2026-03-25T08:56:19.96Z</time></trkpt><trkpt lat="41.4929721" lon="13.2074691"><ele>34.0</ele><time>2026-03-25T08:56:20.958Z</time></trkpt><trkpt lat="41.4929075" lon="13.2075492"><ele>34.0</ele><time>2026-03-25T08:56:21.958Z</time></trkpt><trkpt lat="41.4928427" lon="13.2076046"><ele>33.75</ele><time>2026-03-25T08:56:22.967Z</time></trkpt><trkpt lat="41.4927778" lon="13.2076565"><ele>33.5</ele><time>2026-03-25T08:56:23.955Z</time></trkpt><trkpt lat="41.4927004" lon="13.2077535"><ele>33.25</ele><time>2026-03-25T08:56:25.968Z</time></trkpt><trkpt lat="41.4926611" lon="13.207891"><ele>33.0</ele><time>2026-03-25T08:56:27.954Z</time></trkpt><trkpt lat="41.4925984" lon="13.2082262"><ele>33.0</ele><time>2026-03-25T08:56:30.958Z</time></trkpt><trkpt lat="41.4925661" lon="13.208337"><ele>33.0</ele><time>2026-03-25T08:56:31.965Z</time></trkpt><trkpt lat="41.4925552" lon="13.2084553"><ele>33.0</ele><time>2026-03-25T08:56:32.954Z</time></trkpt><trkpt lat="41.4925431" lon="13.2085782"><ele>33.0</ele><time>2026-03-25T08:56:33.952Z</time></trkpt><trkpt lat="41.4925157" lon="13.2087174"><ele>33.0</ele><time>2026-03-25T08:56:34.965Z</time></trkpt><trkpt lat="41.4925029" lon="13.2088228"><ele>33.0</ele><time>2026-03-25T08:56:35.952Z</time></trkpt><trkpt lat="41.4925024" lon="13.20892"><ele>33.0</ele><time>2026-03-25T08:56:36.962Z</time></trkpt><trkpt lat="41.492509" lon="13.2090249"><ele>33.0</ele><time>2026-03-25T08:56:37.965Z</time></trkpt><trkpt lat="41.492518" lon="13.2091245"><ele>33.0</ele><time>2026-03-25T08:56:38.958Z</time></trkpt><trkpt lat="41.4925299" lon="13.2092311"><ele>33.0</ele><time>2026-03-25T08:56:39.961Z</time></trkpt><trkpt lat="41.492547" lon="13.2093318"><ele>33.0</ele><time>2026-03-25T08:56:40.963Z</time></trkpt><trkpt lat="41.4925706" lon="13.2094276"><ele>32.833333333333336</ele><time>2026-03-25T08:56:41.964Z</time></trkpt><trkpt lat="41.4926009" lon="13.2095192"><ele>32.666666666666664</ele><time>2026-03-25T08:56:42.948Z</time></trkpt><trkpt lat="41.4926339" lon="13.2096166"><ele>32.5</ele><time>2026-03-25T08:56:43.959Z</time></trkpt><trkpt lat="41.4926712" lon="13.2097179"><ele>32.33333333333333</ele><time>2026-03-25T08:56:44.956Z</time></trkpt><trkpt lat="41.49271" lon="13.2098242"><ele>32.166666666666664</ele><time>2026-03-25T08:56:45.96Z</time></trkpt><trkpt lat="41.4927504" lon="13.2099437"><ele>32.0</ele><time>2026-03-25T08:56:46.955Z</time></trkpt><trkpt lat="41.4927929" lon="13.2100667"><ele>32.0</ele><time>2026-03-25T08:56:47.957Z</time></trkpt><trkpt lat="41.4928359" lon="13.2101909"><ele>32.0</ele><time>2026-03-25T08:56:48.948Z</time></trkpt><trkpt lat="41.4928826" lon="13.2103052"><ele>32.0</ele><time>2026-03-25T08:56:49.964Z</time></trkpt><trkpt lat="41.4929239" lon="13.2104294"><ele>32.0</ele><time>2026-03-25T08:56:50.956Z</time></trkpt><trkpt lat="41.4929669" lon="13.2105526"><ele>32.0</ele><time>2026-03-25T08:56:51.963Z</time></trkpt><trkpt lat="41.4930131" lon="13.2106769"><ele>31.8</ele><time>2026-03-25T08:56:52.96Z</time></trkpt><trkpt lat="41.4930562" lon="13.2108046"><ele>31.6</ele><time>2026-03-25T08:56:53.964Z</time></trkpt><trkpt lat="41.4930974" lon="13.2109308"><ele>31.400000000000002</ele><time>2026-03-25T08:56:54.964Z</time></trkpt><trkpt lat="41.4931328" lon="13.2110601"><ele>31.200000000000003</ele><time>2026-03-25T08:56:55.955Z</time></trkpt><trkpt lat="41.4931652" lon="13.2111865"><ele>31.0</ele><time>2026-03-25T08:56:56.967Z</time></trkpt><trkpt lat="41.4931969" lon="13.2113076"><ele>31.0</ele><time>2026-03-25T08:56:57.954Z</time></trkpt><trkpt lat="41.4932246" lon="13.2114289"><ele>31.0</ele><time>2026-03-25T08:56:58.96Z</time></trkpt><trkpt lat="41.4932577" lon="13.2115618"><ele>31.0</ele><time>2026-03-25T08:56:59.95Z</time></trkpt><trkpt lat="41.4932866" lon="13.2116831"><ele>31.0</ele><time>2026-03-25T08:57:00.961Z</time></trkpt><trkpt lat="41.4933159" lon="13.2117949"><ele>31.0</ele><time>2026-03-25T08:57:01.955Z</time></trkpt><trkpt lat="41.4933426" lon="13.211907"><ele>31.000000000000004</ele><time>2026-03-25T08:57:02.966Z</time></trkpt><trkpt lat="41.4933633" lon="13.2120076"><ele>31.0</ele><time>2026-03-25T08:57:03.956Z</time></trkpt><trkpt lat="41.493382" lon="13.2121118"><ele>31.0</ele><time>2026-03-25T08:57:04.958Z</time></trkpt><trkpt lat="41.4934047" lon="13.212225"><ele>31.0</ele><time>2026-03-25T08:57:05.958Z</time></trkpt><trkpt lat="41.4934368" lon="13.2123351"><ele>31.000000000000004</ele><time>2026-03-25T08:57:06.956Z</time></trkpt><trkpt lat="41.4934674" lon="13.2124431"><ele>31.0</ele><time>2026-03-25T08:57:07.961Z</time></trkpt><trkpt lat="41.4934923" lon="13.2125433"><ele>31.166666666666668</ele><time>2026-03-25T08:57:08.954Z</time></trkpt><trkpt lat="41.4935188" lon="13.2126312"><ele>31.333333333333336</ele><time>2026-03-25T08:57:09.963Z</time></trkpt><trkpt lat="41.4935484" lon="13.2127231"><ele>31.5</ele><time>2026-03-25T08:57:10.96Z</time></trkpt><trkpt lat="41.4935688" lon="13.2128328"><ele>31.666666666666664</ele><time>2026-03-25T08:57:11.958Z</time></trkpt><trkpt lat="41.4935877" lon="13.2129614"><ele>31.833333333333332</ele><time>2026-03-25T08:57:12.955Z</time></trkpt><trkpt lat="41.4936169" lon="13.213083"><ele>32.0</ele><time>2026-03-25T08:57:13.954Z</time></trkpt><trkpt lat="41.4936445" lon="13.2132217"><ele>32.0</ele><time>2026-03-25T08:57:14.957Z</time></trkpt><trkpt lat="41.4936725" lon="13.2133659"><ele>32.0</ele><time>2026-03-25T08:57:15.951Z</time></trkpt><trkpt lat="41.4936912" lon="13.2134853"><ele>32.0</ele><time>2026-03-25T08:57:16.957Z</time></trkpt><trkpt lat="41.4937077" lon="13.2135969"><ele>32.0</ele><time>2026-03-25T08:57:17.96Z</time></trkpt><trkpt lat="41.4937266" lon="13.2137013"><ele>32.0</ele><time>2026-03-25T08:57:18.958Z</time></trkpt><trkpt lat="41.493748" lon="13.2138123"><ele>31.8</ele><time>2026-03-25T08:57:19.954Z</time></trkpt><trkpt lat="41.493764" lon="13.2139407"><ele>31.6</ele><time>2026-03-25T08:57:20.954Z</time></trkpt><trkpt lat="41.4937641" lon="13.2140789"><ele>31.400000000000002</ele><time>2026-03-25T08:57:21.957Z</time></trkpt><trkpt lat="41.4937637" lon="13.214219"><ele>31.200000000000003</ele><time>2026-03-25T08:57:22.956Z</time></trkpt><trkpt lat="41.4937612" lon="13.2143538"><ele>31.0</ele><time>2026-03-25T08:57:23.957Z</time></trkpt><trkpt lat="41.4937583" lon="13.2144934"><ele>31.0</ele><time>2026-03-25T08:57:24.962Z</time></trkpt><trkpt lat="41.4937539" lon="13.2146406"><ele>31.0</ele><time>2026-03-25T08:57:25.957Z</time></trkpt><trkpt lat="41.4937495" lon="13.2147858"><ele>31.0</ele><time>2026-03-25T08:57:26.958Z</time></trkpt><trkpt lat="41.4937481" lon="13.2149101"><ele>31.0</ele><time>2026-03-25T08:57:27.958Z</time></trkpt><trkpt lat="41.4937454" lon="13.2150257"><ele>31.0</ele><time>2026-03-25T08:57:28.965Z</time></trkpt><trkpt lat="41.4937436" lon="13.2151367"><ele>31.000000000000004</ele><time>2026-03-25T08:57:29.959Z</time></trkpt><trkpt lat="41.4937418" lon="13.2152439"><ele>31.0</ele><time>2026-03-25T08:57:30.96Z</time></trkpt><trkpt lat="41.4937368" lon="13.2153437"><ele>31.0</ele><time>2026-03-25T08:57:31.955Z</time></trkpt><trkpt lat="41.4937268" lon="13.2154599"><ele>31.0</ele><time>2026-03-25T08:57:32.962Z</time></trkpt><trkpt lat="41.4937138" lon="13.2155776"><ele>31.000000000000004</ele><time>2026-03-25T08:57:33.958Z</time></trkpt><trkpt lat="41.4937052" lon="13.2157001"><ele>31.0</ele><time>2026-03-25T08:57:34.96Z</time></trkpt><trkpt lat="41.493702" lon="13.2158242"><ele>30.8</ele><time>2026-03-25T08:57:35.955Z</time></trkpt><trkpt lat="41.4937025" lon="13.2159504"><ele>30.6</ele><time>2026-03-25T08:57:36.957Z</time></trkpt><trkpt lat="41.4936951" lon="13.2160808"><ele>30.4</ele><time>2026-03-25T08:57:37.961Z</time></trkpt><trkpt lat="41.4936902" lon="13.2162058"><ele>30.2</ele><time>2026-03-25T08:57:38.959Z</time></trkpt><trkpt lat="41.4936771" lon="13.2163323"><ele>30.0</ele><time>2026-03-25T08:57:39.959Z</time></trkpt><trkpt lat="41.4936716" lon="13.2164675"><ele>30.0</ele><time>2026-03-25T08:57:40.959Z</time></trkpt><trkpt lat="41.4936701" lon="13.2166026"><ele>30.0</ele><time>2026-03-25T08:57:41.955Z</time></trkpt><trkpt lat="41.493662" lon="13.2167257"><ele>30.0</ele><time>2026-03-25T08:57:42.96Z</time></trkpt><trkpt lat="41.4936469" lon="13.2168493"><ele>30.0</ele><time>2026-03-25T08:57:43.962Z</time></trkpt><trkpt lat="41.493638" lon="13.2169875"><ele>30.0</ele><time>2026-03-25T08:57:44.962Z</time></trkpt><trkpt lat="41.493629" lon="13.2171266"><ele>30.0</ele><time>2026-03-25T08:57:45.954Z</time></trkpt><trkpt lat="41.4936226" lon="13.2172698"><ele>30.0</ele><time>2026-03-25T08:57:46.953Z</time></trkpt><trkpt lat="41.4936124" lon="13.2174028"><ele>30.0</ele><time>2026-03-25T08:57:47.959Z</time></trkpt><trkpt lat="41.4936069" lon="13.2175427"><ele>30.0</ele><time>2026-03-25T08:57:48.962Z</time></trkpt><trkpt lat="41.4935969" lon="13.2176697"><ele>30.0</ele><time>2026-03-25T08:57:49.962Z</time></trkpt><trkpt lat="41.4935928" lon="13.2177853"><ele>30.166666666666668</ele><time>2026-03-25T08:57:50.954Z</time></trkpt><trkpt lat="41.493598" lon="13.2178841"><ele>30.333333333333336</ele><time>2026-03-25T08:57:51.956Z</time></trkpt><trkpt lat="41.49361" lon="13.2179749"><ele>30.5</ele><time>2026-03-25T08:57:52.961Z</time></trkpt><trkpt lat="41.4936386" lon="13.2180543"><ele>30.666666666666668</ele><time>2026-03-25T08:57:53.962Z</time></trkpt><trkpt lat="41.4937085" lon="13.2181861"><ele>30.833333333333336</ele><time>2026-03-25T08:57:55.957Z</time></trkpt><trkpt lat="41.4937703" lon="13.2182908"><ele>31.0</ele><time>2026-03-25T08:57:57.956Z</time></trkpt><trkpt lat="41.4938207" lon="13.2183937"><ele>31.8</ele><time>2026-03-25T08:57:58.967Z</time></trkpt><trkpt lat="41.4938739" lon="13.2185069"><ele>32.6</ele><time>2026-03-25T08:57:59.951Z</time></trkpt><trkpt lat="41.4939293" lon="13.2186236"><ele>33.4</ele><time>2026-03-25T08:58:00.956Z</time></trkpt><trkpt lat="41.4939842" lon="13.2187462"><ele>34.2</ele><time>2026-03-25T08:58:01.953Z</time></trkpt><trkpt lat="41.4940424" lon="13.2188752"><ele>35.0</ele><time>2026-03-25T08:58:02.958Z</time></trkpt><trkpt lat="41.4941001" lon="13.2190129"><ele>35.0</ele><time>2026-03-25T08:58:03.964Z</time></trkpt><trkpt lat="41.494159" lon="13.2191551"><ele>35.0</ele><time>2026-03-25T08:58:04.957Z</time></trkpt><trkpt lat="41.4942149" lon="13.2193019"><ele>35.0</ele><time>2026-03-25T08:58:05.954Z</time></trkpt><trkpt lat="41.4942689" lon="13.2194511"><ele>35.0</ele><time>2026-03-25T08:58:06.973Z</time></trkpt><trkpt lat="41.4943226" lon="13.2195977"><ele>35.0</ele><time>2026-03-25T08:58:07.955Z</time></trkpt><trkpt lat="41.4943755" lon="13.2197404"><ele>35.0</ele><time>2026-03-25T08:58:08.958Z</time></trkpt><trkpt lat="41.494433" lon="13.2198859"><ele>35.0</ele><time>2026-03-25T08:58:09.955Z</time></trkpt><trkpt lat="41.4944932" lon="13.2200302"><ele>35.0</ele><time>2026-03-25T08:58:10.958Z</time></trkpt><trkpt lat="41.4945496" lon="13.2201802"><ele>35.25</ele><time>2026-03-25T08:58:11.96Z</time></trkpt><trkpt lat="41.4946047" lon="13.2203302"><ele>35.5</ele><time>2026-03-25T08:58:12.955Z</time></trkpt><trkpt lat="41.4946582" lon="13.2204824"><ele>35.75</ele><time>2026-03-25T08:58:13.965Z</time></trkpt><trkpt lat="41.4947091" lon="13.220634"><ele>36.0</ele><time>2026-03-25T08:58:14.95Z</time></trkpt><trkpt lat="41.4947592" lon="13.220779"><ele>36.0</ele><time>2026-03-25T08:58:15.961Z</time></trkpt><trkpt lat="41.4948073" lon="13.2209246"><ele>36.0</ele><time>2026-03-25T08:58:16.956Z</time></trkpt><trkpt lat="41.4948452" lon="13.2210632"><ele>36.0</ele><time>2026-03-25T08:58:17.958Z</time></trkpt><trkpt lat="41.4948733" lon="13.2211855"><ele>36.0</ele><time>2026-03-25T08:58:18.963Z</time></trkpt><trkpt lat="41.4948985" lon="13.2212849"><ele>36.0</ele><time>2026-03-25T08:58:19.956Z</time></trkpt><trkpt lat="41.494927" lon="13.2214223"><ele>36.4</ele><time>2026-03-25T08:58:21.96Z</time></trkpt><trkpt lat="41.4949506" lon="13.2215378"><ele>36.8</ele><time>2026-03-25T08:58:23.978Z</time></trkpt><trkpt lat="41.4949832" lon="13.2217034"><ele>37.199999999999996</ele><time>2026-03-25T08:58:25.966Z</time></trkpt><trkpt lat="41.4950166" lon="13.2218049"><ele>37.6</ele><time>2026-03-25T08:58:26.963Z</time></trkpt><trkpt lat="41.4950614" lon="13.2219162"><ele>38.0</ele><time>2026-03-25T08:58:27.96Z</time></trkpt><trkpt lat="41.4951165" lon="13.2220302"><ele>38.0</ele><time>2026-03-25T08:58:28.958Z</time></trkpt><trkpt lat="41.4951726" lon="13.2221451"><ele>38.0</ele><time>2026-03-25T08:58:29.96Z</time></trkpt><trkpt lat="41.4952323" lon="13.2222704"><ele>38.0</ele><time>2026-03-25T08:58:30.956Z</time></trkpt><trkpt lat="41.4952965" lon="13.2224039"><ele>38.0</ele><time>2026-03-25T08:58:31.958Z</time></trkpt><trkpt lat="41.4953642" lon="13.2225408"><ele>38.5</ele><time>2026-03-25T08:58:32.951Z</time></trkpt><trkpt lat="41.4954357" lon="13.2226857"><ele>39.0</ele><time>2026-03-25T08:58:33.958Z</time></trkpt><trkpt lat="41.4955114" lon="13.2228396"><ele>39.5</ele><time>2026-03-25T08:58:34.953Z</time></trkpt><trkpt lat="41.4955863" lon="13.2229899"><ele>40.0</ele><time>2026-03-25T08:58:35.958Z</time></trkpt><trkpt lat="41.4956621" lon="13.2231441"><ele>40.25</ele><time>2026-03-25T08:58:36.966Z</time></trkpt><trkpt lat="41.4957376" lon="13.2232976"><ele>40.5</ele><time>2026-03-25T08:58:37.952Z</time></trkpt><trkpt lat="41.4958047" lon="13.2234515"><ele>40.75</ele><time>2026-03-25T08:58:38.959Z</time></trkpt><trkpt lat="41.4958674" lon="13.2236174"><ele>41.0</ele><time>2026-03-25T08:58:39.954Z</time></trkpt><trkpt lat="41.4959207" lon="13.2237899"><ele>41.0</ele><time>2026-03-25T08:58:40.964Z</time></trkpt><trkpt lat="41.4959678" lon="13.2239654"><ele>41.0</ele><time>2026-03-25T08:58:41.954Z</time></trkpt><trkpt lat="41.4960123" lon="13.2241411"><ele>41.0</ele><time>2026-03-25T08:58:42.96Z</time></trkpt><trkpt lat="41.4960569" lon="13.2243137"><ele>41.0</ele><time>2026-03-25T08:58:43.964Z</time></trkpt><trkpt lat="41.4961015" lon="13.224485"><ele>40.75</ele><time>2026-03-25T08:58:44.953Z</time></trkpt><trkpt lat="41.4961489" lon="13.224644"><ele>40.5</ele><time>2026-03-25T08:58:45.951Z</time></trkpt><trkpt lat="41.4961938" lon="13.2247877"><ele>40.25</ele><time>2026-03-25T08:58:46.966Z</time></trkpt><trkpt lat="41.4962363" lon="13.224932"><ele>40.0</ele><time>2026-03-25T08:58:47.959Z</time></trkpt><trkpt lat="41.4962793" lon="13.2250729"><ele>40.5</ele><time>2026-03-25T08:58:48.968Z</time></trkpt><trkpt lat="41.4963265" lon="13.2252081"><ele>41.0</ele><time>2026-03-25T08:58:49.959Z</time></trkpt><trkpt lat="41.4963732" lon="13.2253407"><ele>41.5</ele><time>2026-03-25T08:58:50.961Z</time></trkpt><trkpt lat="41.4964212" lon="13.225474"><ele>42.0</ele><time>2026-03-25T08:58:51.956Z</time></trkpt><trkpt lat="41.4964841" lon="13.2256073"><ele>41.25</ele><time>2026-03-25T08:58:52.963Z</time></trkpt><trkpt lat="41.4965481" lon="13.2257419"><ele>40.5</ele><time>2026-03-25T08:58:53.957Z</time></trkpt><trkpt lat="41.4966118" lon="13.2258834"><ele>39.75</ele><time>2026-03-25T08:58:54.965Z</time></trkpt><trkpt lat="41.4966755" lon="13.2260267"><ele>39.0</ele><time>2026-03-25T08:58:55.957Z</time></trkpt><trkpt lat="41.4967393" lon="13.226179"><ele>39.0</ele><time>2026-03-25T08:58:56.962Z</time></trkpt><trkpt lat="41.4968093" lon="13.2263451"><ele>39.0</ele><time>2026-03-25T08:58:57.959Z</time></trkpt><trkpt lat="41.4968832" lon="13.2265102"><ele>39.0</ele><time>2026-03-25T08:58:58.956Z</time></trkpt><trkpt lat="41.4969588" lon="13.2266788"><ele>39.0</ele><time>2026-03-25T08:58:59.955Z</time></trkpt><trkpt lat="41.4970346" lon="13.2268481"><ele>39.666666666666664</ele><time>2026-03-25T08:59:00.951Z</time></trkpt><trkpt lat="41.4971096" lon="13.2270224"><ele>40.33333333333333</ele><time>2026-03-25T08:59:01.956Z</time></trkpt><trkpt lat="41.497185" lon="13.2271991"><ele>41.0</ele><time>2026-03-25T08:59:02.95Z</time></trkpt><trkpt lat="41.4972676" lon="13.2273763"><ele>41.0</ele><time>2026-03-25T08:59:03.949Z</time></trkpt><trkpt lat="41.4973534" lon="13.2275456"><ele>41.0</ele><time>2026-03-25T08:59:04.958Z</time></trkpt><trkpt lat="41.4974358" lon="13.2277188"><ele>41.0</ele><time>2026-03-25T08:59:05.953Z</time></trkpt><trkpt lat="41.497514" lon="13.2278894"><ele>41.0</ele><time>2026-03-25T08:59:06.958Z</time></trkpt><trkpt lat="41.4975817" lon="13.2280573"><ele>41.0</ele><time>2026-03-25T08:59:07.954Z</time></trkpt><trkpt lat="41.4976554" lon="13.2282343"><ele>41.0</ele><time>2026-03-25T08:59:08.962Z</time></trkpt><trkpt lat="41.497736" lon="13.2284181"><ele>41.0</ele><time>2026-03-25T08:59:09.963Z</time></trkpt><trkpt lat="41.4978025" lon="13.2286024"><ele>41.0</ele><time>2026-03-25T08:59:10.956Z</time></trkpt><trkpt lat="41.4978741" lon="13.228802"><ele>41.0</ele><time>2026-03-25T08:59:11.956Z</time></trkpt><trkpt lat="41.4979458" lon="13.2289984"><ele>41.0</ele><time>2026-03-25T08:59:12.957Z</time></trkpt><trkpt lat="41.4980131" lon="13.2291794"><ele>41.0</ele><time>2026-03-25T08:59:13.956Z</time></trkpt><trkpt lat="41.4980727" lon="13.2293483"><ele>41.0</ele><time>2026-03-25T08:59:14.951Z</time></trkpt><trkpt lat="41.498151" lon="13.2295118"><ele>41.0</ele><time>2026-03-25T08:59:15.963Z</time></trkpt><trkpt lat="41.49822" lon="13.2296819"><ele>40.75</ele><time>2026-03-25T08:59:16.964Z</time></trkpt><trkpt lat="41.498278" lon="13.2298289"><ele>40.5</ele><time>2026-03-25T08:59:17.956Z</time></trkpt><trkpt lat="41.4983378" lon="13.2299615"><ele>40.25</ele><time>2026-03-25T08:59:18.954Z</time></trkpt><trkpt lat="41.4983948" lon="13.2300863"><ele>40.0</ele><time>2026-03-25T08:59:19.962Z</time></trkpt><trkpt lat="41.4984457" lon="13.230211"><ele>40.0</ele><time>2026-03-25T08:59:20.962Z</time></trkpt><trkpt lat="41.4985049" lon="13.2303295"><ele>40.0</ele><time>2026-03-25T08:59:21.953Z</time></trkpt><trkpt lat="41.4985616" lon="13.230449"><ele>40.0</ele><time>2026-03-25T08:59:22.958Z</time></trkpt><trkpt lat="41.4986393" lon="13.2305435"><ele>40.0</ele><time>2026-03-25T08:59:23.954Z</time></trkpt><trkpt lat="41.4987268" lon="13.2306455"><ele>40.0</ele><time>2026-03-25T08:59:24.96Z</time></trkpt><trkpt lat="41.4988307" lon="13.2307285"><ele>39.5</ele><time>2026-03-25T08:59:25.954Z</time></trkpt><trkpt lat="41.4989326" lon="13.2308234"><ele>39.0</ele><time>2026-03-25T08:59:26.949Z</time></trkpt><trkpt lat="41.4990281" lon="13.2309439"><ele>38.5</ele><time>2026-03-25T08:59:27.951Z</time></trkpt><trkpt lat="41.4991247" lon="13.2310686"><ele>38.0</ele><time>2026-03-25T08:59:28.965Z</time></trkpt><trkpt lat="41.4992189" lon="13.2311877"><ele>38.0</ele><time>2026-03-25T08:59:29.966Z</time></trkpt><trkpt lat="41.4993172" lon="13.2313062"><ele>38.0</ele><time>2026-03-25T08:59:30.953Z</time></trkpt><trkpt lat="41.4994204" lon="13.2314315"><ele>38.0</ele><time>2026-03-25T08:59:31.958Z</time></trkpt><trkpt lat="41.4995305" lon="13.2315452"><ele>38.0</ele><time>2026-03-25T08:59:32.954Z</time></trkpt><trkpt lat="41.4996409" lon="13.2316617"><ele>39.0</ele><time>2026-03-25T08:59:33.955Z</time></trkpt><trkpt lat="41.4997579" lon="13.2317707"><ele>40.0</ele><time>2026-03-25T08:59:34.966Z</time></trkpt><trkpt lat="41.4998738" lon="13.231878"><ele>41.0</ele><time>2026-03-25T08:59:35.958Z</time></trkpt><trkpt lat="41.4999756" lon="13.2319948"><ele>42.0</ele><time>2026-03-25T08:59:36.958Z</time></trkpt><trkpt lat="41.5000715" lon="13.2321391"><ele>42.0</ele><time>2026-03-25T08:59:37.956Z</time></trkpt><trkpt lat="41.5001654" lon="13.2322701"><ele>42.0</ele><time>2026-03-25T08:59:38.955Z</time></trkpt><trkpt lat="41.5002638" lon="13.2324002"><ele>42.0</ele><time>2026-03-25T08:59:39.962Z</time></trkpt><trkpt lat="41.5003651" lon="13.232523"><ele>42.0</ele><time>2026-03-25T08:59:40.956Z</time></trkpt><trkpt lat="41.500466" lon="13.232653"><ele>42.0</ele><time>2026-03-25T08:59:41.949Z</time></trkpt><trkpt lat="41.5005694" lon="13.2327659"><ele>42.0</ele><time>2026-03-25T08:59:42.956Z</time></trkpt><trkpt lat="41.5006697" lon="13.232874"><ele>42.0</ele><time>2026-03-25T08:59:43.955Z</time></trkpt><trkpt lat="41.5007538" lon="13.2329665"><ele>42.0</ele><time>2026-03-25T08:59:44.966Z</time></trkpt><trkpt lat="41.5008229" lon="13.2330437"><ele>42.0</ele><time>2026-03-25T08:59:45.951Z</time></trkpt><trkpt lat="41.5008902" lon="13.2331089"><ele>42.0</ele><time>2026-03-25T08:59:46.954Z</time></trkpt><trkpt lat="41.5009647" lon="13.2331641"><ele>42.0</ele><time>2026-03-25T08:59:47.957Z</time></trkpt><trkpt lat="41.5010485" lon="13.2332023"><ele>42.0</ele><time>2026-03-25T08:59:48.955Z</time></trkpt><trkpt lat="41.5011369" lon="13.2332454"><ele>42.0</ele><time>2026-03-25T08:59:49.956Z</time></trkpt><trkpt lat="41.5012306" lon="13.2332754"><ele>42.0</ele><time>2026-03-25T08:59:50.955Z</time></trkpt><trkpt lat="41.5013304" lon="13.2333162"><ele>43.0</ele><time>2026-03-25T08:59:51.953Z</time></trkpt><trkpt lat="41.5014308" lon="13.2333654"><ele>44.0</ele><time>2026-03-25T08:59:52.957Z</time></trkpt><trkpt lat="41.5015343" lon="13.2334216"><ele>45.0</ele><time>2026-03-25T08:59:53.958Z</time></trkpt><trkpt lat="41.5016389" lon="13.2334933"><ele>46.0</ele><time>2026-03-25T08:59:54.961Z</time></trkpt><trkpt lat="41.5017341" lon="13.2335681"><ele>47.0</ele><time>2026-03-25T08:59:55.962Z</time></trkpt><trkpt lat="41.5018294" lon="13.2336644"><ele>47.0</ele><time>2026-03-25T08:59:56.959Z</time></trkpt><trkpt lat="41.5019184" lon="13.2337703"><ele>47.0</ele><time>2026-03-25T08:59:57.957Z</time></trkpt><trkpt lat="41.5020059" lon="13.233882"><ele>47.0</ele><time>2026-03-25T08:59:58.959Z</time></trkpt><trkpt lat="41.5020957" lon="13.2339995"><ele>47.0</ele><time>2026-03-25T08:59:59.965Z</time></trkpt><trkpt lat="41.5021846" lon="13.2341147"><ele>47.25</ele><time>2026-03-25T09:00:00.955Z</time></trkpt><trkpt lat="41.5022821" lon="13.2342323"><ele>47.5</ele><time>2026-03-25T09:00:01.953Z</time></trkpt><trkpt lat="41.5023769" lon="13.2343468"><ele>47.75</ele><time>2026-03-25T09:00:02.955Z</time></trkpt><trkpt lat="41.5024739" lon="13.2344632"><ele>48.0</ele><time>2026-03-25T09:00:03.955Z</time></trkpt><trkpt lat="41.5025712" lon="13.2345839"><ele>48.0</ele><time>2026-03-25T09:00:04.958Z</time></trkpt><trkpt lat="41.5026655" lon="13.234704"><ele>48.0</ele><time>2026-03-25T09:00:05.952Z</time></trkpt><trkpt lat="41.5027627" lon="13.2348238"><ele>48.0</ele><time>2026-03-25T09:00:06.96Z</time></trkpt><trkpt lat="41.502858" lon="13.2349466"><ele>48.0</ele><time>2026-03-25T09:00:07.951Z</time></trkpt><trkpt lat="41.5029538" lon="13.235068"><ele>49.5</ele><time>2026-03-25T09:00:08.955Z</time></trkpt><trkpt lat="41.5030517" lon="13.2351881"><ele>51.0</ele><time>2026-03-25T09:00:09.958Z</time></trkpt><trkpt lat="41.5031455" lon="13.2353028"><ele>52.5</ele><time>2026-03-25T09:00:10.954Z</time></trkpt><trkpt lat="41.5032325" lon="13.2354062"><ele>54.0</ele><time>2026-03-25T09:00:11.954Z</time></trkpt><trkpt lat="41.5033114" lon="13.2355033"><ele>54.0</ele><time>2026-03-25T09:00:12.956Z</time></trkpt><trkpt lat="41.5033855" lon="13.23559"><ele>54.0</ele><time>2026-03-25T09:00:13.947Z</time></trkpt><trkpt lat="41.5034477" lon="13.2356753"><ele>54.0</ele><time>2026-03-25T09:00:14.949Z</time></trkpt><trkpt lat="41.5035022" lon="13.2357346"><ele>54.0</ele><time>2026-03-25T09:00:15.952Z</time></trkpt><trkpt lat="41.5035879" lon="13.2358256"><ele>54.0</ele><time>2026-03-25T09:00:17.955Z</time></trkpt><trkpt lat="41.5036398" lon="13.2358845"><ele>54.0</ele><time>2026-03-25T09:00:19.954Z</time></trkpt><trkpt lat="41.5037074" lon="13.235968"><ele>55.0</ele><time>2026-03-25T09:00:21.956Z</time></trkpt><trkpt lat="41.5037633" lon="13.236029"><ele>56.0</ele><time>2026-03-25T09:00:22.957Z</time></trkpt><trkpt lat="41.5038211" lon="13.2360941"><ele>57.0</ele><time>2026-03-25T09:00:23.968Z</time></trkpt><trkpt lat="41.5038856" lon="13.2361677"><ele>58.0</ele><time>2026-03-25T09:00:24.954Z</time></trkpt><trkpt lat="41.503951" lon="13.236245"><ele>59.0</ele><time>2026-03-25T09:00:25.96Z</time></trkpt><trkpt lat="41.504017" lon="13.2363212"><ele>60.0</ele><time>2026-03-25T09:00:26.952Z</time></trkpt><trkpt lat="41.5040843" lon="13.2363988"><ele>60.0</ele><time>2026-03-25T09:00:27.957Z</time></trkpt><trkpt lat="41.5041508" lon="13.2364808"><ele>60.0</ele><time>2026-03-25T09:00:28.961Z</time></trkpt><trkpt lat="41.5042174" lon="13.2365591"><ele>60.0</ele><time>2026-03-25T09:00:29.96Z</time></trkpt><trkpt lat="41.504284" lon="13.2366379"><ele>60.0</ele><time>2026-03-25T09:00:30.958Z</time></trkpt><trkpt lat="41.5043454" lon="13.2367105"><ele>60.0</ele><time>2026-03-25T09:00:31.961Z</time></trkpt><trkpt lat="41.5044041" lon="13.2367785"><ele>60.0</ele><time>2026-03-25T09:00:32.96Z</time></trkpt><trkpt lat="41.5044573" lon="13.236836"><ele>60.0</ele><time>2026-03-25T09:00:33.956Z</time></trkpt><trkpt lat="41.5045394" lon="13.2369308"><ele>60.0</ele><time>2026-03-25T09:00:35.961Z</time></trkpt><trkpt lat="41.504519" lon="13.2370335"><ele>60.0</ele><time>2026-03-25T09:00:38.964Z</time></trkpt><trkpt lat="41.5044061" lon="13.2370715"><ele>60.0</ele><time>2026-03-25T09:00:40.958Z</time></trkpt><trkpt lat="41.5043242" lon="13.2370994"><ele>60.0</ele><time>2026-03-25T09:00:41.953Z</time></trkpt><trkpt lat="41.5042324" lon="13.2371312"><ele>60.0</ele><time>2026-03-25T09:00:42.955Z</time></trkpt><trkpt lat="41.5041285" lon="13.2371596"><ele>60.0</ele><time>2026-03-25T09:00:43.955Z</time></trkpt><trkpt lat="41.5040234" lon="13.2371812"><ele>60.0</ele><time>2026-03-25T09:00:44.958Z</time></trkpt><trkpt lat="41.5039126" lon="13.2372035"><ele>60.0</ele><time>2026-03-25T09:00:45.953Z</time></trkpt><trkpt lat="41.5037968" lon="13.237226"><ele>60.0</ele><time>2026-03-25T09:00:46.961Z</time></trkpt><trkpt lat="41.5036757" lon="13.23725"><ele>59.0</ele><time>2026-03-25T09:00:47.962Z</time></trkpt><trkpt lat="41.5035399" lon="13.2372673"><ele>58.0</ele><time>2026-03-25T09:00:48.958Z</time></trkpt><trkpt lat="41.5034017" lon="13.2372901"><ele>57.0</ele><time>2026-03-25T09:00:49.962Z</time></trkpt><trkpt lat="41.5032515" lon="13.2373212"><ele>56.0</ele><time>2026-03-25T09:00:50.957Z</time></trkpt><trkpt lat="41.503097" lon="13.237345"><ele>56.0</ele><time>2026-03-25T09:00:51.956Z</time></trkpt><trkpt lat="41.5029406" lon="13.2373645"><ele>56.0</ele><time>2026-03-25T09:00:52.949Z</time></trkpt><trkpt lat="41.5027828" lon="13.2373816"><ele>56.0</ele><time>2026-03-25T09:00:53.956Z</time></trkpt><trkpt lat="41.502627" lon="13.2373934"><ele>55.5</ele><time>2026-03-25T09:00:54.959Z</time></trkpt><trkpt lat="41.5024739" lon="13.2373972"><ele>55.0</ele><time>2026-03-25T09:00:55.962Z</time></trkpt><trkpt lat="41.502328" lon="13.2373938"><ele>54.5</ele><time>2026-03-25T09:00:56.948Z</time></trkpt><trkpt lat="41.5022024" lon="13.2373869"><ele>54.0</ele><time>2026-03-25T09:00:57.957Z</time></trkpt><trkpt lat="41.5021014" lon="13.2373741"><ele>53.400000000000006</ele><time>2026-03-25T09:00:58.96Z</time></trkpt><trkpt lat="41.5020031" lon="13.2373649"><ele>52.800000000000004</ele><time>2026-03-25T09:00:59.955Z</time></trkpt><trkpt lat="41.5019045" lon="13.2373542"><ele>52.2</ele><time>2026-03-25T09:01:00.956Z</time></trkpt><trkpt lat="41.5018057" lon="13.2373385"><ele>51.599999999999994</ele><time>2026-03-25T09:01:01.953Z</time></trkpt><trkpt lat="41.5017009" lon="13.237315"><ele>51.0</ele><time>2026-03-25T09:01:02.951Z</time></trkpt><trkpt lat="41.5015976" lon="13.2372841"><ele>51.0</ele><time>2026-03-25T09:01:03.956Z</time></trkpt><trkpt lat="41.5014995" lon="13.2372497"><ele>51.0</ele><time>2026-03-25T09:01:04.96Z</time></trkpt><trkpt lat="41.5014069" lon="13.2372213"><ele>51.0</ele><time>2026-03-25T09:01:05.956Z</time></trkpt><trkpt lat="41.5013139" lon="13.2371951"><ele>51.0</ele><time>2026-03-25T09:01:06.954Z</time></trkpt><trkpt lat="41.501224" lon="13.2371954"><ele>51.0</ele><time>2026-03-25T09:01:07.961Z</time></trkpt><trkpt lat="41.5011216" lon="13.2372071"><ele>50.25</ele><time>2026-03-25T09:01:08.958Z</time></trkpt><trkpt lat="41.501011" lon="13.2372203"><ele>49.5</ele><time>2026-03-25T09:01:09.963Z</time></trkpt><trkpt lat="41.5009013" lon="13.2372425"><ele>48.75</ele><time>2026-03-25T09:01:10.958Z</time></trkpt><trkpt lat="41.5007869" lon="13.2372675"><ele>48.0</ele><time>2026-03-25T09:01:11.959Z</time></trkpt><trkpt lat="41.5006764" lon="13.2372889"><ele>48.0</ele><time>2026-03-25T09:01:12.958Z</time></trkpt><trkpt lat="41.5005558" lon="13.23731"><ele>48.0</ele><time>2026-03-25T09:01:13.962Z</time></trkpt><trkpt lat="41.5004356" lon="13.2373218"><ele>48.0</ele><time>2026-03-25T09:01:14.958Z</time></trkpt><trkpt lat="41.5003182" lon="13.2373291"><ele>48.0</ele><time>2026-03-25T09:01:15.96Z</time></trkpt><trkpt lat="41.5002199" lon="13.2373314"><ele>48.0</ele><time>2026-03-25T09:01:16.971Z</time></trkpt><trkpt lat="41.5001487" lon="13.2373288"><ele>48.0</ele><time>2026-03-25T09:01:17.953Z</time></trkpt><trkpt lat="41.5000393" lon="13.2373239"><ele>48.0</ele><time>2026-03-25T09:01:19.961Z</time></trkpt><trkpt lat="41.4999747" lon="13.2373111"><ele>48.0</ele><time>2026-03-25T09:01:21.962Z</time></trkpt><trkpt lat="41.4999074" lon="13.2373768"><ele>48.0</ele><time>2026-03-25T09:01:24.966Z</time></trkpt><trkpt lat="41.499888" lon="13.2375219"><ele>48.0</ele><time>2026-03-25T09:01:26.958Z</time></trkpt><trkpt lat="41.4998865" lon="13.2376168"><ele>48.0</ele><time>2026-03-25T09:01:27.955Z</time></trkpt><trkpt lat="41.499892" lon="13.2377129"><ele>48.0</ele><time>2026-03-25T09:01:28.968Z</time></trkpt><trkpt lat="41.4998986" lon="13.2378248"><ele>48.0</ele><time>2026-03-25T09:01:29.963Z</time></trkpt><trkpt lat="41.4999067" lon="13.2379518"><ele>48.0</ele><time>2026-03-25T09:01:30.958Z</time></trkpt><trkpt lat="41.4999207" lon="13.2380854"><ele>48.0</ele><time>2026-03-25T09:01:31.958Z</time></trkpt><trkpt lat="41.4999434" lon="13.2382276"><ele>47.5</ele><time>2026-03-25T09:01:32.958Z</time></trkpt><trkpt lat="41.4999765" lon="13.2383746"><ele>47.0</ele><time>2026-03-25T09:01:33.955Z</time></trkpt><trkpt lat="41.5000179" lon="13.238522"><ele>46.5</ele><time>2026-03-25T09:01:34.951Z</time></trkpt><trkpt lat="41.5000585" lon="13.238665"><ele>46.0</ele><time>2026-03-25T09:01:35.958Z</time></trkpt><trkpt lat="41.5000964" lon="13.238802"><ele>46.0</ele><time>2026-03-25T09:01:36.955Z</time></trkpt><trkpt lat="41.5001293" lon="13.2389383"><ele>46.0</ele><time>2026-03-25T09:01:37.954Z</time></trkpt><trkpt lat="41.5001526" lon="13.2390749"><ele>46.0</ele><time>2026-03-25T09:01:38.953Z</time></trkpt><trkpt lat="41.5001735" lon="13.239208"><ele>46.0</ele><time>2026-03-25T09:01:39.958Z</time></trkpt><trkpt lat="41.5001575" lon="13.2393531"><ele>46.0</ele><time>2026-03-25T09:01:40.954Z</time></trkpt><trkpt lat="41.5001277" lon="13.2395025"><ele>45.5</ele><time>2026-03-25T09:01:41.96Z</time></trkpt><trkpt lat="41.50009" lon="13.2396572"><ele>45.0</ele><time>2026-03-25T09:01:42.954Z</time></trkpt><trkpt lat="41.5000561" lon="13.2398037"><ele>44.5</ele><time>2026-03-25T09:01:43.955Z</time></trkpt><trkpt lat="41.5000616" lon="13.2399521"><ele>44.0</ele><time>2026-03-25T09:01:44.958Z</time></trkpt><trkpt lat="41.5000822" lon="13.2400911"><ele>43.0</ele><time>2026-03-25T09:01:45.949Z</time></trkpt><trkpt lat="41.5001187" lon="13.2402328"><ele>42.0</ele><time>2026-03-25T09:01:46.965Z</time></trkpt><trkpt lat="41.50018" lon="13.2403784"><ele>41.0</ele><time>2026-03-25T09:01:47.953Z</time></trkpt><trkpt lat="41.5002441" lon="13.2405279"><ele>40.0</ele><time>2026-03-25T09:01:48.957Z</time></trkpt><trkpt lat="41.5002986" lon="13.240681"><ele>39.75</ele><time>2026-03-25T09:01:49.958Z</time></trkpt><trkpt lat="41.5003402" lon="13.2408473"><ele>39.5</ele><time>2026-03-25T09:01:50.956Z</time></trkpt><trkpt lat="41.5003809" lon="13.2410176"><ele>39.25</ele><time>2026-03-25T09:01:51.953Z</time></trkpt><trkpt lat="41.5004203" lon="13.2411967"><ele>39.0</ele><time>2026-03-25T09:01:52.953Z</time></trkpt><trkpt lat="41.5004582" lon="13.2413753"><ele>39.75</ele><time>2026-03-25T09:01:53.953Z</time></trkpt><trkpt lat="41.5004955" lon="13.2415498"><ele>40.5</ele><time>2026-03-25T09:01:54.955Z</time></trkpt><trkpt lat="41.5005457" lon="13.2417154"><ele>41.25</ele><time>2026-03-25T09:01:55.963Z</time></trkpt><trkpt lat="41.5005706" lon="13.2418671"><ele>42.0</ele><time>2026-03-25T09:01:56.958Z</time></trkpt><trkpt lat="41.5005858" lon="13.2420309"><ele>42.0</ele><time>2026-03-25T09:01:57.977Z</time></trkpt><trkpt lat="41.5005909" lon="13.2421971"><ele>42.0</ele><time>2026-03-25T09:01:58.955Z</time></trkpt><trkpt lat="41.5005901" lon="13.2423643"><ele>42.0</ele><time>2026-03-25T09:01:59.958Z</time></trkpt><trkpt lat="41.5005868" lon="13.2425335"><ele>42.0</ele><time>2026-03-25T09:02:00.952Z</time></trkpt><trkpt lat="41.5005944" lon="13.242701"><ele>42.5</ele><time>2026-03-25T09:02:01.954Z</time></trkpt><trkpt lat="41.5006135" lon="13.2428672"><ele>43.0</ele><time>2026-03-25T09:02:02.965Z</time></trkpt><trkpt lat="41.500638" lon="13.2430201"><ele>43.5</ele><time>2026-03-25T09:02:03.961Z</time></trkpt><trkpt lat="41.5006633" lon="13.2431585"><ele>44.0</ele><time>2026-03-25T09:02:04.957Z</time></trkpt><trkpt lat="41.5006862" lon="13.2432984"><ele>44.0</ele><time>2026-03-25T09:02:05.964Z</time></trkpt><trkpt lat="41.5007084" lon="13.2434478"><ele>44.0</ele><time>2026-03-25T09:02:06.96Z</time></trkpt><trkpt lat="41.500734" lon="13.243611"><ele>44.0</ele><time>2026-03-25T09:02:07.957Z</time></trkpt><trkpt lat="41.500761" lon="13.24378"><ele>44.0</ele><time>2026-03-25T09:02:08.952Z</time></trkpt><trkpt lat="41.5007907" lon="13.2439546"><ele>43.75</ele><time>2026-03-25T09:02:09.954Z</time></trkpt><trkpt lat="41.5008215" lon="13.2441327"><ele>43.5</ele><time>2026-03-25T09:02:10.955Z</time></trkpt><trkpt lat="41.5008519" lon="13.2443163"><ele>43.25</ele><time>2026-03-25T09:02:11.962Z</time></trkpt><trkpt lat="41.5008862" lon="13.2444985"><ele>43.0</ele><time>2026-03-25T09:02:12.961Z</time></trkpt><trkpt lat="41.5009313" lon="13.2446747"><ele>42.25</ele><time>2026-03-25T09:02:13.958Z</time></trkpt><trkpt lat="41.5009957" lon="13.2448402"><ele>41.5</ele><time>2026-03-25T09:02:14.965Z</time></trkpt><trkpt lat="41.5010779" lon="13.2449967"><ele>40.75</ele><time>2026-03-25T09:02:15.953Z</time></trkpt><trkpt lat="41.5011704" lon="13.2451499"><ele>40.0</ele><time>2026-03-25T09:02:16.961Z</time></trkpt><trkpt lat="41.5012683" lon="13.2453028"><ele>41.66666666666667</ele><time>2026-03-25T09:02:17.952Z</time></trkpt><trkpt lat="41.5013645" lon="13.2454623"><ele>43.333333333333336</ele><time>2026-03-25T09:02:18.958Z</time></trkpt><trkpt lat="41.5014602" lon="13.2456307"><ele>45.0</ele><time>2026-03-25T09:02:19.956Z</time></trkpt><trkpt lat="41.5015571" lon="13.2458057"><ele>45.0</ele><time>2026-03-25T09:02:20.957Z</time></trkpt><trkpt lat="41.5016525" lon="13.2459804"><ele>45.0</ele><time>2026-03-25T09:02:21.955Z</time></trkpt><trkpt lat="41.5017442" lon="13.246146"><ele>45.0</ele><time>2026-03-25T09:02:22.956Z</time></trkpt><trkpt lat="41.5018372" lon="13.246313"><ele>44.666666666666664</ele><time>2026-03-25T09:02:23.956Z</time></trkpt><trkpt lat="41.5019308" lon="13.2464853"><ele>44.33333333333333</ele><time>2026-03-25T09:02:24.95Z</time></trkpt><trkpt lat="41.5020249" lon="13.2466628"><ele>44.0</ele><time>2026-03-25T09:02:25.952Z</time></trkpt><trkpt lat="41.5021162" lon="13.2468408"><ele>44.0</ele><time>2026-03-25T09:02:26.961Z</time></trkpt><trkpt lat="41.5022009" lon="13.247021"><ele>44.0</ele><time>2026-03-25T09:02:27.956Z</time></trkpt><trkpt lat="41.5022793" lon="13.2472133"><ele>44.0</ele><time>2026-03-25T09:02:28.971Z</time></trkpt><trkpt lat="41.5023562" lon="13.2474149"><ele>42.666666666666664</ele><time>2026-03-25T09:02:29.952Z</time></trkpt><trkpt lat="41.5024309" lon="13.247617"><ele>41.333333333333336</ele><time>2026-03-25T09:02:30.948Z</time></trkpt><trkpt lat="41.5025051" lon="13.2478184"><ele>40.0</ele><time>2026-03-25T09:02:31.958Z</time></trkpt><trkpt lat="41.502576" lon="13.2480213"><ele>39.333333333333336</ele><time>2026-03-25T09:02:32.956Z</time></trkpt><trkpt lat="41.5026316" lon="13.2482352"><ele>38.666666666666664</ele><time>2026-03-25T09:02:33.956Z</time></trkpt><trkpt lat="41.5026687" lon="13.2484606"><ele>38.0</ele><time>2026-03-25T09:02:34.96Z</time></trkpt><trkpt lat="41.5026916" lon="13.2486913"><ele>38.0</ele><time>2026-03-25T09:02:35.968Z</time></trkpt><trkpt lat="41.5027076" lon="13.2489253"><ele>38.0</ele><time>2026-03-25T09:02:36.959Z</time></trkpt><trkpt lat="41.5027198" lon="13.2491618"><ele>38.0</ele><time>2026-03-25T09:02:37.95Z</time></trkpt><trkpt lat="41.502732" lon="13.2494004"><ele>38.33333333333333</ele><time>2026-03-25T09:02:38.957Z</time></trkpt><trkpt lat="41.5027455" lon="13.2496418"><ele>38.666666666666664</ele><time>2026-03-25T09:02:39.956Z</time></trkpt><trkpt lat="41.5027589" lon="13.249888"><ele>39.0</ele><time>2026-03-25T09:02:40.96Z</time></trkpt><trkpt lat="41.502773" lon="13.250137"><ele>39.333333333333336</ele><time>2026-03-25T09:02:41.955Z</time></trkpt><trkpt lat="41.502786" lon="13.2503851"><ele>39.66666666666667</ele><time>2026-03-25T09:02:42.963Z</time></trkpt><trkpt lat="41.5027979" lon="13.2506323"><ele>40.0</ele><time>2026-03-25T09:02:43.955Z</time></trkpt><trkpt lat="41.5028088" lon="13.2508742"><ele>40.0</ele><time>2026-03-25T09:02:44.962Z</time></trkpt><trkpt lat="41.5028165" lon="13.2511174"><ele>40.0</ele><time>2026-03-25T09:02:45.964Z</time></trkpt><trkpt lat="41.5028265" lon="13.2513588"><ele>40.0</ele><time>2026-03-25T09:02:46.961Z</time></trkpt><trkpt lat="41.5028365" lon="13.2516013"><ele>40.66666666666667</ele><time>2026-03-25T09:02:47.969Z</time></trkpt><trkpt lat="41.5028572" lon="13.2518425"><ele>41.333333333333336</ele><time>2026-03-25T09:02:48.955Z</time></trkpt><trkpt lat="41.5028802" lon="13.2520808"><ele>42.0</ele><time>2026-03-25T09:02:49.959Z</time></trkpt><trkpt lat="41.5029054" lon="13.2523227"><ele>42.0</ele><time>2026-03-25T09:02:50.977Z</time></trkpt><trkpt lat="41.5029346" lon="13.2525698"><ele>42.0</ele><time>2026-03-25T09:02:51.951Z</time></trkpt><trkpt lat="41.5029704" lon="13.2528143"><ele>42.0</ele><time>2026-03-25T09:02:52.953Z</time></trkpt><trkpt lat="41.5030034" lon="13.253061"><ele>41.666666666666664</ele><time>2026-03-25T09:02:53.955Z</time></trkpt><trkpt lat="41.5030365" lon="13.253308"><ele>41.33333333333333</ele><time>2026-03-25T09:02:54.96Z</time></trkpt><trkpt lat="41.5030709" lon="13.2535548"><ele>41.0</ele><time>2026-03-25T09:02:55.954Z</time></trkpt><trkpt lat="41.5031054" lon="13.2538007"><ele>41.33333333333333</ele><time>2026-03-25T09:02:56.958Z</time></trkpt><trkpt lat="41.5031406" lon="13.2540451"><ele>41.666666666666664</ele><time>2026-03-25T09:02:57.953Z</time></trkpt><trkpt lat="41.5031762" lon="13.2542882"><ele>42.0</ele><time>2026-03-25T09:02:58.973Z</time></trkpt><trkpt lat="41.5032113" lon="13.2545302"><ele>42.0</ele><time>2026-03-25T09:02:59.965Z</time></trkpt><trkpt lat="41.5032485" lon="13.2547712"><ele>42.0</ele><time>2026-03-25T09:03:00.958Z</time></trkpt><trkpt lat="41.5032883" lon="13.2550114"><ele>42.0</ele><time>2026-03-25T09:03:01.958Z</time></trkpt><trkpt lat="41.5033383" lon="13.2552499"><ele>42.0</ele><time>2026-03-25T09:03:02.953Z</time></trkpt><trkpt lat="41.503402" lon="13.2554862"><ele>42.0</ele><time>2026-03-25T09:03:03.959Z</time></trkpt><trkpt lat="41.5034732" lon="13.2557193"><ele>42.0</ele><time>2026-03-25T09:03:04.957Z</time></trkpt><trkpt lat="41.5035438" lon="13.2559436"><ele>42.0</ele><time>2026-03-25T09:03:05.96Z</time></trkpt><trkpt lat="41.5036236" lon="13.2561765"><ele>42.0</ele><time>2026-03-25T09:03:06.959Z</time></trkpt><trkpt lat="41.5037038" lon="13.2564074"><ele>42.0</ele><time>2026-03-25T09:03:07.956Z</time></trkpt><trkpt lat="41.5037785" lon="13.256633"><ele>42.0</ele><time>2026-03-25T09:03:08.955Z</time></trkpt><trkpt lat="41.5038525" lon="13.2568653"><ele>42.0</ele><time>2026-03-25T09:03:09.951Z</time></trkpt><trkpt lat="41.5039229" lon="13.2570805"><ele>42.0</ele><time>2026-03-25T09:03:10.959Z</time></trkpt><trkpt lat="41.5039881" lon="13.2572872"><ele>43.0</ele><time>2026-03-25T09:03:11.956Z</time></trkpt><trkpt lat="41.5040508" lon="13.2574943"><ele>44.0</ele><time>2026-03-25T09:03:12.955Z</time></trkpt><trkpt lat="41.5041107" lon="13.2577071"><ele>45.0</ele><time>2026-03-25T09:03:13.955Z</time></trkpt><trkpt lat="41.5041565" lon="13.2579302"><ele>46.0</ele><time>2026-03-25T09:03:14.952Z</time></trkpt><trkpt lat="41.5041938" lon="13.2581563"><ele>47.0</ele><time>2026-03-25T09:03:15.963Z</time></trkpt><trkpt lat="41.5042361" lon="13.258388"><ele>48.0</ele><time>2026-03-25T09:03:16.957Z</time></trkpt><trkpt lat="41.5042788" lon="13.2586254"><ele>48.0</ele><time>2026-03-25T09:03:17.961Z</time></trkpt><trkpt lat="41.5043202" lon="13.2588634"><ele>48.0</ele><time>2026-03-25T09:03:18.954Z</time></trkpt><trkpt lat="41.5043579" lon="13.2591018"><ele>48.0</ele><time>2026-03-25T09:03:19.956Z</time></trkpt><trkpt lat="41.5044003" lon="13.2593362"><ele>47.666666666666664</ele><time>2026-03-25T09:03:20.965Z</time></trkpt><trkpt lat="41.5044362" lon="13.2595575"><ele>47.33333333333333</ele><time>2026-03-25T09:03:21.955Z</time></trkpt><trkpt lat="41.5044639" lon="13.2597659"><ele>47.0</ele><time>2026-03-25T09:03:22.957Z</time></trkpt><trkpt lat="41.5044773" lon="13.259958"><ele>47.0</ele><time>2026-03-25T09:03:23.962Z</time></trkpt><trkpt lat="41.5044691" lon="13.2601343"><ele>47.0</ele><time>2026-03-25T09:03:24.961Z</time></trkpt><trkpt lat="41.5044452" lon="13.2603053"><ele>47.0</ele><time>2026-03-25T09:03:25.957Z</time></trkpt><trkpt lat="41.5044181" lon="13.2604835"><ele>47.0</ele><time>2026-03-25T09:03:26.969Z</time></trkpt><trkpt lat="41.504391" lon="13.2606656"><ele>47.0</ele><time>2026-03-25T09:03:27.959Z</time></trkpt><trkpt lat="41.5043559" lon="13.2608395"><ele>47.0</ele><time>2026-03-25T09:03:28.967Z</time></trkpt><trkpt lat="41.5043028" lon="13.2610043"><ele>47.0</ele><time>2026-03-25T09:03:29.961Z</time></trkpt><trkpt lat="41.5042334" lon="13.2611583"><ele>47.0</ele><time>2026-03-25T09:03:30.96Z</time></trkpt><trkpt lat="41.5041547" lon="13.26131"><ele>47.25</ele><time>2026-03-25T09:03:31.961Z</time></trkpt><trkpt lat="41.5040791" lon="13.2614512"><ele>47.5</ele><time>2026-03-25T09:03:32.959Z</time></trkpt><trkpt lat="41.5040109" lon="13.2615768"><ele>47.75</ele><time>2026-03-25T09:03:33.965Z</time></trkpt><trkpt lat="41.5039461" lon="13.2616928"><ele>48.0</ele><time>2026-03-25T09:03:34.958Z</time></trkpt><trkpt lat="41.503879" lon="13.2617935"><ele>48.0</ele><time>2026-03-25T09:03:35.955Z</time></trkpt><trkpt lat="41.5038062" lon="13.2618671"><ele>48.0</ele><time>2026-03-25T09:03:36.956Z</time></trkpt><trkpt lat="41.5037358" lon="13.2619117"><ele>48.0</ele><time>2026-03-25T09:03:37.962Z</time></trkpt><trkpt lat="41.5036696" lon="13.2619356"><ele>48.0</ele><time>2026-03-25T09:03:38.959Z</time></trkpt><trkpt lat="41.5035534" lon="13.2619466"><ele>48.0</ele><time>2026-03-25T09:03:40.96Z</time></trkpt><trkpt lat="41.5034484" lon="13.2619435"><ele>47.8</ele><time>2026-03-25T09:03:42.959Z</time></trkpt><trkpt lat="41.5033336" lon="13.2619511"><ele>47.599999999999994</ele><time>2026-03-25T09:03:44.964Z</time></trkpt><trkpt lat="41.5032122" lon="13.2619623"><ele>47.400000000000006</ele><time>2026-03-25T09:03:46.96Z</time></trkpt><trkpt lat="41.5031228" lon="13.2619888"><ele>47.2</ele><time>2026-03-25T09:03:48.963Z</time></trkpt><trkpt lat="41.503196" lon="13.2620113"><ele>47.0</ele><time>2026-03-25T09:04:55.974Z</time></trkpt><trkpt lat="41.5032611" lon="13.261999"><ele>47.0</ele><time>2026-03-25T09:04:56.959Z</time></trkpt><trkpt lat="41.5033975" lon="13.2619783"><ele>47.0</ele><time>2026-03-25T09:04:58.963Z</time></trkpt><trkpt lat="41.5034721" lon="13.2619726"><ele>47.0</ele><time>2026-03-25T09:04:59.959Z</time></trkpt><trkpt lat="41.5035783" lon="13.2619725"><ele>47.0</ele><time>2026-03-25T09:05:01.956Z</time></trkpt><trkpt lat="41.5036418" lon="13.2620482"><ele>47.0</ele><time>2026-03-25T09:05:03.961Z</time></trkpt><trkpt lat="41.5036564" lon="13.2621408"><ele>47.0</ele><time>2026-03-25T09:05:04.969Z</time></trkpt><trkpt lat="41.5036626" lon="13.2622593"><ele>47.0</ele><time>2026-03-25T09:05:05.959Z</time></trkpt><trkpt lat="41.5036672" lon="13.2623953"><ele>47.0</ele><time>2026-03-25T09:05:06.968Z</time></trkpt><trkpt lat="41.5036677" lon="13.2625513"><ele>47.0</ele><time>2026-03-25T09:05:07.961Z</time></trkpt><trkpt lat="41.5036593" lon="13.2627035"><ele>47.0</ele><time>2026-03-25T09:05:08.951Z</time></trkpt><trkpt lat="41.503644" lon="13.2628608"><ele>46.5</ele><time>2026-03-25T09:05:09.953Z</time></trkpt><trkpt lat="41.5036263" lon="13.2630256"><ele>46.0</ele><time>2026-03-25T09:05:10.954Z</time></trkpt><trkpt lat="41.5036093" lon="13.2631978"><ele>45.5</ele><time>2026-03-25T09:05:12.006Z</time></trkpt><trkpt lat="41.5035925" lon="13.2633746"><ele>45.0</ele><time>2026-03-25T09:05:12.967Z</time></trkpt><trkpt lat="41.50358" lon="13.2635562"><ele>45.0</ele><time>2026-03-25T09:05:13.953Z</time></trkpt><trkpt lat="41.5035726" lon="13.2637427"><ele>45.0</ele><time>2026-03-25T09:05:14.96Z</time></trkpt><trkpt lat="41.503567" lon="13.2639311"><ele>45.0</ele><time>2026-03-25T09:05:15.956Z</time></trkpt><trkpt lat="41.5035635" lon="13.264121"><ele>45.0</ele><time>2026-03-25T09:05:16.959Z</time></trkpt><trkpt lat="41.5035621" lon="13.2643107"><ele>45.0</ele><time>2026-03-25T09:05:17.951Z</time></trkpt><trkpt lat="41.5035625" lon="13.2645007"><ele>45.0</ele><time>2026-03-25T09:05:18.963Z</time></trkpt><trkpt lat="41.503567" lon="13.2646892"><ele>45.0</ele><time>2026-03-25T09:05:19.953Z</time></trkpt><trkpt lat="41.503576" lon="13.2648764"><ele>45.0</ele><time>2026-03-25T09:05:20.956Z</time></trkpt><trkpt lat="41.5035885" lon="13.2650647"><ele>45.0</ele><time>2026-03-25T09:05:21.96Z</time></trkpt><trkpt lat="41.5036004" lon="13.265248"><ele>45.0</ele><time>2026-03-25T09:05:22.957Z</time></trkpt><trkpt lat="41.5036076" lon="13.2654145"><ele>45.0</ele><time>2026-03-25T09:05:23.968Z</time></trkpt><trkpt lat="41.5036144" lon="13.2655655"><ele>45.0</ele><time>2026-03-25T09:05:24.96Z</time></trkpt><trkpt lat="41.503628" lon="13.2657064"><ele>45.25</ele><time>2026-03-25T09:05:25.95Z</time></trkpt><trkpt lat="41.5036561" lon="13.2658489"><ele>45.5</ele><time>2026-03-25T09:05:26.958Z</time></trkpt><trkpt lat="41.5036948" lon="13.2659927"><ele>45.75</ele><time>2026-03-25T09:05:27.961Z</time></trkpt><trkpt lat="41.5037379" lon="13.2661394"><ele>46.0</ele><time>2026-03-25T09:05:28.958Z</time></trkpt><trkpt lat="41.5037783" lon="13.2662911"><ele>46.5</ele><time>2026-03-25T09:05:29.961Z</time></trkpt><trkpt lat="41.5038144" lon="13.2664477"><ele>47.0</ele><time>2026-03-25T09:05:30.976Z</time></trkpt><trkpt lat="41.5038478" lon="13.2666093"><ele>47.5</ele><time>2026-03-25T09:05:31.964Z</time></trkpt><trkpt lat="41.5038819" lon="13.2667713"><ele>48.0</ele><time>2026-03-25T09:05:32.971Z</time></trkpt><trkpt lat="41.5039109" lon="13.2669345"><ele>48.0</ele><time>2026-03-25T09:05:33.963Z</time></trkpt><trkpt lat="41.5039416" lon="13.267097"><ele>48.0</ele><time>2026-03-25T09:05:34.97Z</time></trkpt><trkpt lat="41.5039764" lon="13.2672591"><ele>48.0</ele><time>2026-03-25T09:05:35.955Z</time></trkpt><trkpt lat="41.504014" lon="13.2674191"><ele>48.0</ele><time>2026-03-25T09:05:36.953Z</time></trkpt><trkpt lat="41.5040493" lon="13.2675831"><ele>48.4</ele><time>2026-03-25T09:05:37.959Z</time></trkpt><trkpt lat="41.5040783" lon="13.2677362"><ele>48.8</ele><time>2026-03-25T09:05:38.952Z</time></trkpt><trkpt lat="41.5041041" lon="13.2678775"><ele>49.2</ele><time>2026-03-25T09:05:39.96Z</time></trkpt><trkpt lat="41.5041152" lon="13.2680134"><ele>49.6</ele><time>2026-03-25T09:05:40.958Z</time></trkpt><trkpt lat="41.5041172" lon="13.2681552"><ele>50.0</ele><time>2026-03-25T09:05:41.955Z</time></trkpt><trkpt lat="41.5041186" lon="13.2682897"><ele>50.0</ele><time>2026-03-25T09:05:42.962Z</time></trkpt><trkpt lat="41.5041304" lon="13.2684221"><ele>50.0</ele><time>2026-03-25T09:05:43.953Z</time></trkpt><trkpt lat="41.504142" lon="13.2685567"><ele>50.0</ele><time>2026-03-25T09:05:44.964Z</time></trkpt><trkpt lat="41.5041845" lon="13.268685"><ele>50.0</ele><time>2026-03-25T09:05:45.957Z</time></trkpt><trkpt lat="41.504237" lon="13.2688148"><ele>50.0</ele><time>2026-03-25T09:05:46.963Z</time></trkpt><trkpt lat="41.5042841" lon="13.2689512"><ele>49.25</ele><time>2026-03-25T09:05:47.958Z</time></trkpt><trkpt lat="41.5043043" lon="13.2691009"><ele>48.5</ele><time>2026-03-25T09:05:48.957Z</time></trkpt><trkpt lat="41.5043457" lon="13.2692546"><ele>47.75</ele><time>2026-03-25T09:05:49.96Z</time></trkpt><trkpt lat="41.5043909" lon="13.2694117"><ele>47.0</ele><time>2026-03-25T09:05:50.961Z</time></trkpt><trkpt lat="41.5044331" lon="13.2695674"><ele>47.0</ele><time>2026-03-25T09:05:51.958Z</time></trkpt><trkpt lat="41.5044799" lon="13.2697275"><ele>47.0</ele><time>2026-03-25T09:05:52.969Z</time></trkpt><trkpt lat="41.5045204" lon="13.2698803"><ele>47.0</ele><time>2026-03-25T09:05:53.957Z</time></trkpt><trkpt lat="41.5045629" lon="13.2700295"><ele>47.0</ele><time>2026-03-25T09:05:54.954Z</time></trkpt><trkpt lat="41.5045917" lon="13.2701828"><ele>47.0</ele><time>2026-03-25T09:05:55.957Z</time></trkpt><trkpt lat="41.5046133" lon="13.2703444"><ele>47.0</ele><time>2026-03-25T09:05:56.958Z</time></trkpt><trkpt lat="41.5046425" lon="13.270506"><ele>47.0</ele><time>2026-03-25T09:05:57.956Z</time></trkpt><trkpt lat="41.5046767" lon="13.2706655"><ele>47.0</ele><time>2026-03-25T09:05:58.96Z</time></trkpt><trkpt lat="41.5047128" lon="13.2708267"><ele>47.25</ele><time>2026-03-25T09:05:59.95Z</time></trkpt><trkpt lat="41.5047576" lon="13.2709831"><ele>47.5</ele><time>2026-03-25T09:06:00.955Z</time></trkpt><trkpt lat="41.5048076" lon="13.27113"><ele>47.75</ele><time>2026-03-25T09:06:01.956Z</time></trkpt><trkpt lat="41.5048497" lon="13.2712591"><ele>48.0</ele><time>2026-03-25T09:06:02.957Z</time></trkpt><trkpt lat="41.5048974" lon="13.2713745"><ele>48.166666666666664</ele><time>2026-03-25T09:06:03.957Z</time></trkpt><trkpt lat="41.5049512" lon="13.2714714"><ele>48.33333333333333</ele><time>2026-03-25T09:06:04.952Z</time></trkpt><trkpt lat="41.5050035" lon="13.2715572"><ele>48.5</ele><time>2026-03-25T09:06:05.959Z</time></trkpt><trkpt lat="41.5050539" lon="13.2716502"><ele>48.666666666666664</ele><time>2026-03-25T09:06:06.954Z</time></trkpt><trkpt lat="41.5051033" lon="13.2717448"><ele>48.83333333333333</ele><time>2026-03-25T09:06:07.958Z</time></trkpt><trkpt lat="41.5051495" lon="13.2718413"><ele>49.0</ele><time>2026-03-25T09:06:08.962Z</time></trkpt><trkpt lat="41.5052094" lon="13.2719364"><ele>49.0</ele><time>2026-03-25T09:06:09.959Z</time></trkpt><trkpt lat="41.505273" lon="13.2720226"><ele>49.0</ele><time>2026-03-25T09:06:10.971Z</time></trkpt><trkpt lat="41.5053395" lon="13.2721039"><ele>49.0</ele><time>2026-03-25T09:06:11.949Z</time></trkpt><trkpt lat="41.5054148" lon="13.2721684"><ele>49.0</ele><time>2026-03-25T09:06:12.966Z</time></trkpt><trkpt lat="41.5054987" lon="13.2722159"><ele>49.0</ele><time>2026-03-25T09:06:13.971Z</time></trkpt><trkpt lat="41.5055894" lon="13.2722428"><ele>49.166666666666664</ele><time>2026-03-25T09:06:14.959Z</time></trkpt><trkpt lat="41.5056844" lon="13.2722511"><ele>49.33333333333333</ele><time>2026-03-25T09:06:15.965Z</time></trkpt><trkpt lat="41.5057809" lon="13.2722637"><ele>49.5</ele><time>2026-03-25T09:06:16.956Z</time></trkpt><trkpt lat="41.505854" lon="13.2722832"><ele>49.66666666666667</ele><time>2026-03-25T09:06:17.96Z</time></trkpt><trkpt lat="41.5059399" lon="13.2723333"><ele>49.833333333333336</ele><time>2026-03-25T09:06:19.956Z</time></trkpt><trkpt lat="41.5059395" lon="13.2724296"><ele>50.0</ele><time>2026-03-25T09:06:21.967Z</time></trkpt><trkpt lat="41.5058926" lon="13.2725438"><ele>50.00000000000001</ele><time>2026-03-25T09:06:23.961Z</time></trkpt><trkpt lat="41.5058484" lon="13.2726895"><ele>50.0</ele><time>2026-03-25T09:06:25.955Z</time></trkpt><trkpt lat="41.5058007" lon="13.2728259"><ele>50.0</ele><time>2026-03-25T09:06:27.953Z</time></trkpt><trkpt lat="41.5057767" lon="13.2729221"><ele>50.0</ele><time>2026-03-25T09:06:29.956Z</time></trkpt><trkpt lat="41.5057963" lon="13.2730022"><ele>50.00000000000001</ele><time>2026-03-25T09:06:31.967Z</time></trkpt><trkpt lat="41.505835" lon="13.2730804"><ele>50.0</ele><time>2026-03-25T09:06:33.958Z</time></trkpt><trkpt lat="41.5058732" lon="13.2731779"><ele>50.0</ele><time>2026-03-25T09:06:35.954Z</time></trkpt><trkpt lat="41.5059069" lon="13.273298"><ele>50.0</ele><time>2026-03-25T09:06:37.956Z</time></trkpt><trkpt lat="41.5059342" lon="13.2734335"><ele>50.0</ele><time>2026-03-25T09:06:39.958Z</time></trkpt><trkpt lat="41.5059617" lon="13.2735713"><ele>50.0</ele><time>2026-03-25T09:06:41.958Z</time></trkpt><trkpt lat="41.5059816" lon="13.2737098"><ele>50.0</ele><time>2026-03-25T09:06:43.956Z</time></trkpt><trkpt lat="41.5060027" lon="13.273847"><ele>50.2</ele><time>2026-03-25T09:06:45.954Z</time></trkpt><trkpt lat="41.5060198" lon="13.2739848"><ele>50.4</ele><time>2026-03-25T09:06:47.961Z</time></trkpt><trkpt lat="41.5060353" lon="13.2741318"><ele>50.599999999999994</ele><time>2026-03-25T09:06:49.954Z</time></trkpt><trkpt lat="41.5060484" lon="13.2742754"><ele>50.8</ele><time>2026-03-25T09:06:51.955Z</time></trkpt><trkpt lat="41.5060635" lon="13.2744168"><ele>51.0</ele><time>2026-03-25T09:06:53.955Z</time></trkpt><trkpt lat="41.5060776" lon="13.2745519"><ele>51.0</ele><time>2026-03-25T09:06:55.955Z</time></trkpt><trkpt lat="41.5060751" lon="13.2746831"><ele>51.0</ele><time>2026-03-25T09:06:57.964Z</time></trkpt><trkpt lat="41.5060643" lon="13.2747918"><ele>51.0</ele><time>2026-03-25T09:06:59.957Z</time></trkpt><trkpt lat="41.5060997" lon="13.2748873"><ele>51.0</ele><time>2026-03-25T09:07:01.963Z</time></trkpt><trkpt lat="41.5061968" lon="13.2749786"><ele>51.0</ele><time>2026-03-25T09:07:03.959Z</time></trkpt><trkpt lat="41.5062308" lon="13.2750536"><ele>51.0</ele><time>2026-03-25T09:07:04.958Z</time></trkpt><trkpt lat="41.5062546" lon="13.275153"><ele>53.0</ele><time>2026-03-25T09:07:05.962Z</time></trkpt><trkpt lat="41.5062804" lon="13.2752587"><ele>55.0</ele><time>2026-03-25T09:07:06.95Z</time></trkpt><trkpt lat="41.5063169" lon="13.2753719"><ele>56.99999999999999</ele><time>2026-03-25T09:07:07.963Z</time></trkpt><trkpt lat="41.5063525" lon="13.2754704"><ele>59.0</ele><time>2026-03-25T09:07:08.957Z</time></trkpt><trkpt lat="41.506386" lon="13.2756145"><ele>61.0</ele><time>2026-03-25T09:07:10.96Z</time></trkpt><trkpt lat="41.5064095" lon="13.2757586"><ele>63.33333333333333</ele><time>2026-03-25T09:07:12.969Z</time></trkpt><trkpt lat="41.5064698" lon="13.2759053"><ele>65.66666666666666</ele><time>2026-03-25T09:07:14.956Z</time></trkpt><trkpt lat="41.5065131" lon="13.2759726"><ele>68.0</ele><time>2026-03-25T09:07:15.959Z</time></trkpt><trkpt lat="41.5065674" lon="13.2760394"><ele>70.33333333333333</ele><time>2026-03-25T09:07:16.962Z</time></trkpt><trkpt lat="41.5066214" lon="13.2761135"><ele>72.66666666666667</ele><time>2026-03-25T09:07:17.962Z</time></trkpt><trkpt lat="41.5066742" lon="13.2762007"><ele>75.0</ele><time>2026-03-25T09:07:18.954Z</time></trkpt><trkpt lat="41.5067248" lon="13.2762929"><ele>75.0</ele><time>2026-03-25T09:07:19.962Z</time></trkpt><trkpt lat="41.5067744" lon="13.2763852"><ele>75.0</ele><time>2026-03-25T09:07:20.958Z</time></trkpt><trkpt lat="41.5068162" lon="13.2764777"><ele>75.0</ele><time>2026-03-25T09:07:21.964Z</time></trkpt><trkpt lat="41.5068463" lon="13.2765726"><ele>75.0</ele><time>2026-03-25T09:07:22.954Z</time></trkpt><trkpt lat="41.5068716" lon="13.2766546"><ele>75.0</ele><time>2026-03-25T09:07:23.957Z</time></trkpt><trkpt lat="41.5068689" lon="13.2768161"><ele>75.0</ele><time>2026-03-25T09:07:25.95Z</time></trkpt><trkpt lat="41.5068598" lon="13.2769087"><ele>75.57142857142857</ele><time>2026-03-25T09:07:26.956Z</time></trkpt><trkpt lat="41.506863" lon="13.2769988"><ele>76.14285714285714</ele><time>2026-03-25T09:07:27.956Z</time></trkpt><trkpt lat="41.5068617" lon="13.2770972"><ele>76.71428571428572</ele><time>2026-03-25T09:07:28.96Z</time></trkpt><trkpt lat="41.5068678" lon="13.277194"><ele>77.28571428571428</ele><time>2026-03-25T09:07:29.957Z</time></trkpt><trkpt lat="41.5068757" lon="13.2772922"><ele>77.85714285714286</ele><time>2026-03-25T09:07:30.959Z</time></trkpt><trkpt lat="41.5068875" lon="13.2773923"><ele>78.42857142857143</ele><time>2026-03-25T09:07:31.958Z</time></trkpt><trkpt lat="41.5069014" lon="13.2774953"><ele>79.0</ele><time>2026-03-25T09:07:32.966Z</time></trkpt><trkpt lat="41.5069137" lon="13.2775995"><ele>79.83333333333333</ele><time>2026-03-25T09:07:33.959Z</time></trkpt><trkpt lat="41.5069258" lon="13.2777029"><ele>80.66666666666666</ele><time>2026-03-25T09:07:34.957Z</time></trkpt><trkpt lat="41.5069415" lon="13.2778073"><ele>81.5</ele><time>2026-03-25T09:07:35.961Z</time></trkpt><trkpt lat="41.5069573" lon="13.2779063"><ele>82.33333333333333</ele><time>2026-03-25T09:07:36.959Z</time></trkpt><trkpt lat="41.5069734" lon="13.2780061"><ele>83.16666666666667</ele><time>2026-03-25T09:07:37.967Z</time></trkpt><trkpt lat="41.5069875" lon="13.2781052"><ele>84.0</ele><time>2026-03-25T09:07:38.956Z</time></trkpt><trkpt lat="41.5070037" lon="13.2782033"><ele>85.0</ele><time>2026-03-25T09:07:39.96Z</time></trkpt><trkpt lat="41.5070201" lon="13.2782988"><ele>86.0</ele><time>2026-03-25T09:07:40.955Z</time></trkpt><trkpt lat="41.5070334" lon="13.2783856"><ele>87.0</ele><time>2026-03-25T09:07:41.958Z</time></trkpt><trkpt lat="41.5070477" lon="13.2784704"><ele>88.0</ele><time>2026-03-25T09:07:42.959Z</time></trkpt><trkpt lat="41.5070639" lon="13.278562"><ele>89.0</ele><time>2026-03-25T09:07:43.954Z</time></trkpt><trkpt lat="41.5070809" lon="13.2786527"><ele>90.0</ele><time>2026-03-25T09:07:44.967Z</time></trkpt><trkpt lat="41.5070989" lon="13.2787422"><ele>91.0</ele><time>2026-03-25T09:07:45.964Z</time></trkpt><trkpt lat="41.5071158" lon="13.2788336"><ele>92.0</ele><time>2026-03-25T09:07:46.984Z</time></trkpt><trkpt lat="41.507133" lon="13.2789256"><ele>93.0</ele><time>2026-03-25T09:07:47.96Z</time></trkpt><trkpt lat="41.5071491" lon="13.2790256"><ele>94.0</ele><time>2026-03-25T09:07:48.962Z</time></trkpt><trkpt lat="41.5071731" lon="13.2791428"><ele>95.0</ele><time>2026-03-25T09:07:49.971Z</time></trkpt><trkpt lat="41.5071984" lon="13.2792596"><ele>96.00000000000001</ele><time>2026-03-25T09:07:50.96Z</time></trkpt><trkpt lat="41.5072304" lon="13.2793857"><ele>97.0</ele><time>2026-03-25T09:07:51.961Z</time></trkpt><trkpt lat="41.5072649" lon="13.2795207"><ele>97.50000000000001</ele><time>2026-03-25T09:07:52.956Z</time></trkpt><trkpt lat="41.507295" lon="13.2796437"><ele>98.0</ele><time>2026-03-25T09:07:53.959Z</time></trkpt><trkpt lat="41.5073194" lon="13.279755"><ele>98.5</ele><time>2026-03-25T09:07:54.961Z</time></trkpt><trkpt lat="41.5073474" lon="13.2798533"><ele>99.0</ele><time>2026-03-25T09:07:55.967Z</time></trkpt><trkpt lat="41.5073863" lon="13.2799466"><ele>99.50000000000001</ele><time>2026-03-25T09:07:56.966Z</time></trkpt><trkpt lat="41.5074362" lon="13.2800382"><ele>100.0</ele><time>2026-03-25T09:07:57.957Z</time></trkpt><trkpt lat="41.5074964" lon="13.2801326"><ele>100.0</ele><time>2026-03-25T09:07:58.966Z</time></trkpt><trkpt lat="41.5075563" lon="13.2802275"><ele>100.0</ele><time>2026-03-25T09:07:59.955Z</time></trkpt><trkpt lat="41.5076374" lon="13.2803195"><ele>100.0</ele><time>2026-03-25T09:08:00.959Z</time></trkpt><trkpt lat="41.5077196" lon="13.2804063"><ele>100.0</ele><time>2026-03-25T09:08:01.957Z</time></trkpt><trkpt lat="41.5078111" lon="13.2804887"><ele>100.0</ele><time>2026-03-25T09:08:02.959Z</time></trkpt><trkpt lat="41.5078994" lon="13.2805753"><ele>100.2</ele><time>2026-03-25T09:08:03.962Z</time></trkpt><trkpt lat="41.5079852" lon="13.2806607"><ele>100.4</ele><time>2026-03-25T09:08:04.96Z</time></trkpt><trkpt lat="41.5080564" lon="13.2807471"><ele>100.6</ele><time>2026-03-25T09:08:05.958Z</time></trkpt><trkpt lat="41.5081171" lon="13.2808396"><ele>100.8</ele><time>2026-03-25T09:08:06.962Z</time></trkpt><trkpt lat="41.5081635" lon="13.2809339"><ele>101.0</ele><time>2026-03-25T09:08:07.949Z</time></trkpt><trkpt lat="41.5082032" lon="13.2810295"><ele>100.99999999999999</ele><time>2026-03-25T09:08:08.963Z</time></trkpt><trkpt lat="41.5082376" lon="13.2811265"><ele>101.0</ele><time>2026-03-25T09:08:09.958Z</time></trkpt><trkpt lat="41.5082696" lon="13.2812305"><ele>101.0</ele><time>2026-03-25T09:08:10.957Z</time></trkpt><trkpt lat="41.5082979" lon="13.2813419"><ele>101.0</ele><time>2026-03-25T09:08:11.96Z</time></trkpt><trkpt lat="41.5083246" lon="13.2814617"><ele>100.99999999999999</ele><time>2026-03-25T09:08:12.959Z</time></trkpt><trkpt lat="41.5083478" lon="13.2815858"><ele>101.0</ele><time>2026-03-25T09:08:13.958Z</time></trkpt><trkpt lat="41.5083686" lon="13.2817181"><ele>100.8</ele><time>2026-03-25T09:08:14.96Z</time></trkpt><trkpt lat="41.5083872" lon="13.2818637"><ele>100.6</ele><time>2026-03-25T09:08:15.959Z</time></trkpt><trkpt lat="41.508406" lon="13.2820185"><ele>100.4</ele><time>2026-03-25T09:08:16.961Z</time></trkpt><trkpt lat="41.5084247" lon="13.2821651"><ele>100.2</ele><time>2026-03-25T09:08:17.962Z</time></trkpt><trkpt lat="41.50844" lon="13.2823039"><ele>100.0</ele><time>2026-03-25T09:08:18.958Z</time></trkpt><trkpt lat="41.508456" lon="13.28245"><ele>99.8</ele><time>2026-03-25T09:08:19.955Z</time></trkpt><trkpt lat="41.5084797" lon="13.2826053"><ele>99.6</ele><time>2026-03-25T09:08:20.961Z</time></trkpt><trkpt lat="41.508509" lon="13.2827536"><ele>99.4</ele><time>2026-03-25T09:08:21.963Z</time></trkpt><trkpt lat="41.5085464" lon="13.2828894"><ele>99.2</ele><time>2026-03-25T09:08:22.951Z</time></trkpt><trkpt lat="41.5085854" lon="13.2830041"><ele>99.0</ele><time>2026-03-25T09:08:23.961Z</time></trkpt><trkpt lat="41.5086189" lon="13.2831031"><ele>98.0</ele><time>2026-03-25T09:08:24.955Z</time></trkpt><trkpt lat="41.5086579" lon="13.2832197"><ele>97.0</ele><time>2026-03-25T09:08:26.96Z</time></trkpt><trkpt lat="41.5086217" lon="13.2833011"><ele>96.0</ele><time>2026-03-25T09:08:30.958Z</time></trkpt><trkpt lat="41.508492" lon="13.2832337"><ele>95.0</ele><time>2026-03-25T09:08:32.954Z</time></trkpt><trkpt lat="41.5084" lon="13.2832246"><ele>94.0</ele><time>2026-03-25T09:08:33.956Z</time></trkpt><trkpt lat="41.5083" lon="13.2832136"><ele>94.0</ele><time>2026-03-25T09:08:34.947Z</time></trkpt><trkpt lat="41.5081944" lon="13.2832017"><ele>94.0</ele><time>2026-03-25T09:08:35.954Z</time></trkpt><trkpt lat="41.5080778" lon="13.2831796"><ele>94.0</ele><time>2026-03-25T09:08:36.952Z</time></trkpt><trkpt lat="41.5079548" lon="13.2831448"><ele>94.0</ele><time>2026-03-25T09:08:37.961Z</time></trkpt><trkpt lat="41.5078427" lon="13.2830988"><ele>93.6</ele><time>2026-03-25T09:08:38.958Z</time></trkpt><trkpt lat="41.507741" lon="13.2830482"><ele>93.2</ele><time>2026-03-25T09:08:39.965Z</time></trkpt><trkpt lat="41.507635" lon="13.2830255"><ele>92.8</ele><time>2026-03-25T09:08:40.959Z</time></trkpt><trkpt lat="41.5075237" lon="13.2830161"><ele>92.39999999999999</ele><time>2026-03-25T09:08:41.969Z</time></trkpt><trkpt lat="41.5074211" lon="13.2830146"><ele>92.0</ele><time>2026-03-25T09:08:42.958Z</time></trkpt><trkpt lat="41.5073241" lon="13.2830103"><ele>92.0</ele><time>2026-03-25T09:08:43.964Z</time></trkpt><trkpt lat="41.5072262" lon="13.2830086"><ele>92.0</ele><time>2026-03-25T09:08:44.954Z</time></trkpt><trkpt lat="41.5071321" lon="13.2830199"><ele>92.0</ele><time>2026-03-25T09:08:45.951Z</time></trkpt><trkpt lat="41.5070442" lon="13.2830502"><ele>92.0</ele><time>2026-03-25T09:08:46.966Z</time></trkpt><trkpt lat="41.506957" lon="13.2830806"><ele>92.0</ele><time>2026-03-25T09:08:47.957Z</time></trkpt><trkpt lat="41.5068714" lon="13.2831352"><ele>89.8</ele><time>2026-03-25T09:08:48.956Z</time></trkpt><trkpt lat="41.5067816" lon="13.2831876"><ele>87.6</ele><time>2026-03-25T09:08:49.959Z</time></trkpt><trkpt lat="41.5066965" lon="13.2832402"><ele>85.39999999999999</ele><time>2026-03-25T09:08:50.955Z</time></trkpt><trkpt lat="41.5066033" lon="13.2832939"><ele>83.19999999999999</ele><time>2026-03-25T09:08:51.954Z</time></trkpt><trkpt lat="41.506519" lon="13.2833427"><ele>81.0</ele><time>2026-03-25T09:08:52.951Z</time></trkpt><trkpt lat="41.5064398" lon="13.2833839"><ele>81.0</ele><time>2026-03-25T09:08:53.965Z</time></trkpt><trkpt lat="41.5063611" lon="13.2834098"><ele>81.0</ele><time>2026-03-25T09:08:54.952Z</time></trkpt><trkpt lat="41.5062962" lon="13.28343"><ele>81.0</ele><time>2026-03-25T09:08:55.959Z</time></trkpt><trkpt lat="41.5062326" lon="13.2834493"><ele>81.0</ele><time>2026-03-25T09:08:56.956Z</time></trkpt><trkpt lat="41.5061714" lon="13.2834691"><ele>81.0</ele><time>2026-03-25T09:08:57.953Z</time></trkpt><trkpt lat="41.5060492" lon="13.2834884"><ele>81.0</ele><time>2026-03-25T09:08:59.953Z</time></trkpt><trkpt lat="41.5059145" lon="13.2834685"><ele>79.16666666666667</ele><time>2026-03-25T09:09:01.964Z</time></trkpt><trkpt lat="41.5058335" lon="13.2834321"><ele>77.33333333333333</ele><time>2026-03-25T09:09:02.953Z</time></trkpt><trkpt lat="41.5057557" lon="13.2833595"><ele>75.5</ele><time>2026-03-25T09:09:03.952Z</time></trkpt><trkpt lat="41.505695" lon="13.2832797"><ele>73.66666666666666</ele><time>2026-03-25T09:09:04.954Z</time></trkpt><trkpt lat="41.5056506" lon="13.2831874"><ele>71.83333333333333</ele><time>2026-03-25T09:09:05.958Z</time></trkpt><trkpt lat="41.505606" lon="13.2830959"><ele>70.0</ele><time>2026-03-25T09:09:06.962Z</time></trkpt><trkpt lat="41.505558" lon="13.2830118"><ele>70.0</ele><time>2026-03-25T09:09:07.963Z</time></trkpt><trkpt lat="41.5054548" lon="13.2829571"><ele>70.0</ele><time>2026-03-25T09:09:09.959Z</time></trkpt><trkpt lat="41.505342" lon="13.2829311"><ele>70.0</ele><time>2026-03-25T09:09:11.963Z</time></trkpt><trkpt lat="41.5052849" lon="13.2828743"><ele>70.0</ele><time>2026-03-25T09:09:12.959Z</time></trkpt><trkpt lat="41.5052218" lon="13.2828096"><ele>70.0</ele><time>2026-03-25T09:09:13.955Z</time></trkpt><trkpt lat="41.5051564" lon="13.2827146"><ele>68.8</ele><time>2026-03-25T09:09:14.953Z</time></trkpt><trkpt lat="41.5050914" lon="13.282611"><ele>67.6</ele><time>2026-03-25T09:09:15.956Z</time></trkpt><trkpt lat="41.5050282" lon="13.2824945"><ele>66.4</ele><time>2026-03-25T09:09:16.961Z</time></trkpt><trkpt lat="41.5049638" lon="13.2823723"><ele>65.2</ele><time>2026-03-25T09:09:17.956Z</time></trkpt><trkpt lat="41.5049039" lon="13.2822523"><ele>64.0</ele><time>2026-03-25T09:09:18.971Z</time></trkpt><trkpt lat="41.504846" lon="13.282139"><ele>64.0</ele><time>2026-03-25T09:09:19.952Z</time></trkpt><trkpt lat="41.5047804" lon="13.2820521"><ele>64.0</ele><time>2026-03-25T09:09:20.955Z</time></trkpt><trkpt lat="41.5046989" lon="13.2819794"><ele>64.0</ele><time>2026-03-25T09:09:21.961Z</time></trkpt><trkpt lat="41.5046118" lon="13.2819132"><ele>64.0</ele><time>2026-03-25T09:09:22.955Z</time></trkpt><trkpt lat="41.504522" lon="13.281845"><ele>64.0</ele><time>2026-03-25T09:09:23.956Z</time></trkpt><trkpt lat="41.5044351" lon="13.2817836"><ele>62.6</ele><time>2026-03-25T09:09:24.962Z</time></trkpt><trkpt lat="41.5043577" lon="13.2817198"><ele>61.2</ele><time>2026-03-25T09:09:25.958Z</time></trkpt><trkpt lat="41.5042854" lon="13.2816651"><ele>59.800000000000004</ele><time>2026-03-25T09:09:26.975Z</time></trkpt><trkpt lat="41.50422" lon="13.2815832"><ele>58.400000000000006</ele><time>2026-03-25T09:09:27.955Z</time></trkpt><trkpt lat="41.5041628" lon="13.2814792"><ele>57.0</ele><time>2026-03-25T09:09:28.954Z</time></trkpt><trkpt lat="41.5041102" lon="13.2813545"><ele>56.833333333333336</ele><time>2026-03-25T09:09:29.954Z</time></trkpt><trkpt lat="41.5040632" lon="13.2812303"><ele>56.66666666666667</ele><time>2026-03-25T09:09:30.954Z</time></trkpt><trkpt lat="41.5040256" lon="13.2811341"><ele>56.5</ele><time>2026-03-25T09:09:31.952Z</time></trkpt><trkpt lat="41.5039942" lon="13.2810516"><ele>56.333333333333336</ele><time>2026-03-25T09:09:32.961Z</time></trkpt><trkpt lat="41.5039263" lon="13.2809828"><ele>56.16666666666667</ele><time>2026-03-25T09:09:34.973Z</time></trkpt><trkpt lat="41.5038418" lon="13.2809939"><ele>56.0</ele><time>2026-03-25T09:09:36.971Z</time></trkpt><trkpt lat="41.5037807" lon="13.2810363"><ele>55.0</ele><time>2026-03-25T09:09:37.958Z</time></trkpt><trkpt lat="41.5037162" lon="13.281088"><ele>53.99999999999999</ele><time>2026-03-25T09:09:38.969Z</time></trkpt><trkpt lat="41.5036444" lon="13.2811505"><ele>53.0</ele><time>2026-03-25T09:09:39.959Z</time></trkpt><trkpt lat="41.5035684" lon="13.2812176"><ele>52.0</ele><time>2026-03-25T09:09:40.962Z</time></trkpt><trkpt lat="41.5035016" lon="13.2813071"><ele>51.0</ele><time>2026-03-25T09:09:41.955Z</time></trkpt><trkpt lat="41.5034499" lon="13.2814285"><ele>51.5</ele><time>2026-03-25T09:09:42.959Z</time></trkpt><trkpt lat="41.5034139" lon="13.2815754"><ele>52.0</ele><time>2026-03-25T09:09:43.954Z</time></trkpt><trkpt lat="41.5033799" lon="13.2817253"><ele>52.5</ele><time>2026-03-25T09:09:44.959Z</time></trkpt><trkpt lat="41.5033439" lon="13.2818695"><ele>53.0</ele><time>2026-03-25T09:09:45.962Z</time></trkpt><trkpt lat="41.5033084" lon="13.2820154"><ele>53.0</ele><time>2026-03-25T09:09:46.97Z</time></trkpt><trkpt lat="41.5032661" lon="13.2821586"><ele>53.0</ele><time>2026-03-25T09:09:47.958Z</time></trkpt><trkpt lat="41.5032008" lon="13.2822978"><ele>53.0</ele><time>2026-03-25T09:09:48.962Z</time></trkpt><trkpt lat="41.5031358" lon="13.2824356"><ele>53.0</ele><time>2026-03-25T09:09:49.964Z</time></trkpt><trkpt lat="41.5030747" lon="13.2825753"><ele>53.0</ele><time>2026-03-25T09:09:50.966Z</time></trkpt><trkpt lat="41.5030148" lon="13.2827153"><ele>53.0</ele><time>2026-03-25T09:09:51.961Z</time></trkpt><trkpt lat="41.5029575" lon="13.2828475"><ele>53.0</ele><time>2026-03-25T09:09:52.958Z</time></trkpt><trkpt lat="41.5029101" lon="13.282983"><ele>53.0</ele><time>2026-03-25T09:09:53.966Z</time></trkpt><trkpt lat="41.5028702" lon="13.2831265"><ele>53.0</ele><time>2026-03-25T09:09:54.958Z</time></trkpt><trkpt lat="41.5028295" lon="13.2832751"><ele>53.0</ele><time>2026-03-25T09:09:55.982Z</time></trkpt><trkpt lat="41.5027967" lon="13.2834262"><ele>53.0</ele><time>2026-03-25T09:09:56.955Z</time></trkpt><trkpt lat="41.5027698" lon="13.2835795"><ele>53.0</ele><time>2026-03-25T09:09:57.967Z</time></trkpt><trkpt lat="41.5027543" lon="13.2837386"><ele>53.0</ele><time>2026-03-25T09:09:58.963Z</time></trkpt><trkpt lat="41.502748" lon="13.2838944"><ele>53.0</ele><time>2026-03-25T09:09:59.963Z</time></trkpt><trkpt lat="41.5027416" lon="13.284051"><ele>53.0</ele><time>2026-03-25T09:10:00.958Z</time></trkpt><trkpt lat="41.5027381" lon="13.2842025"><ele>53.0</ele><time>2026-03-25T09:10:01.963Z</time></trkpt><trkpt lat="41.5027377" lon="13.2843519"><ele>53.5</ele><time>2026-03-25T09:10:02.96Z</time></trkpt><trkpt lat="41.5027326" lon="13.284509"><ele>54.0</ele><time>2026-03-25T09:10:03.956Z</time></trkpt><trkpt lat="41.5027278" lon="13.2846799"><ele>54.5</ele><time>2026-03-25T09:10:04.957Z</time></trkpt><trkpt lat="41.5027227" lon="13.2848503"><ele>55.0</ele><time>2026-03-25T09:10:05.958Z</time></trkpt><trkpt lat="41.5027133" lon="13.2850236"><ele>55.5</ele><time>2026-03-25T09:10:06.952Z</time></trkpt><trkpt lat="41.5026934" lon="13.285207"><ele>56.0</ele><time>2026-03-25T09:10:07.962Z</time></trkpt><trkpt lat="41.5026613" lon="13.2853774"><ele>56.5</ele><time>2026-03-25T09:10:08.96Z</time></trkpt><trkpt lat="41.5026107" lon="13.2855411"><ele>57.0</ele><time>2026-03-25T09:10:09.958Z</time></trkpt><trkpt lat="41.5025422" lon="13.2857021"><ele>58.0</ele><time>2026-03-25T09:10:10.956Z</time></trkpt><trkpt lat="41.5024657" lon="13.2858598"><ele>59.0</ele><time>2026-03-25T09:10:11.962Z</time></trkpt><trkpt lat="41.5023964" lon="13.2860121"><ele>60.0</ele><time>2026-03-25T09:10:12.959Z</time></trkpt><trkpt lat="41.5023419" lon="13.2861665"><ele>61.0</ele><time>2026-03-25T09:10:13.959Z</time></trkpt><trkpt lat="41.5023036" lon="13.2863303"><ele>62.4</ele><time>2026-03-25T09:10:14.959Z</time></trkpt><trkpt lat="41.5022774" lon="13.2864785"><ele>63.8</ele><time>2026-03-25T09:10:15.957Z</time></trkpt><trkpt lat="41.5022522" lon="13.286605"><ele>65.19999999999999</ele><time>2026-03-25T09:10:16.958Z</time></trkpt><trkpt lat="41.5022213" lon="13.2867198"><ele>66.6</ele><time>2026-03-25T09:10:17.963Z</time></trkpt><trkpt lat="41.5021718" lon="13.2868046"><ele>68.0</ele><time>2026-03-25T09:10:18.96Z</time></trkpt><trkpt lat="41.5021098" lon="13.2868743"><ele>67.6</ele><time>2026-03-25T09:10:19.963Z</time></trkpt><trkpt lat="41.5020522" lon="13.2869619"><ele>67.19999999999999</ele><time>2026-03-25T09:10:20.95Z</time></trkpt><trkpt lat="41.5019912" lon="13.2870569"><ele>66.8</ele><time>2026-03-25T09:10:21.958Z</time></trkpt><trkpt lat="41.5019467" lon="13.2871872"><ele>66.39999999999999</ele><time>2026-03-25T09:10:22.961Z</time></trkpt><trkpt lat="41.5018996" lon="13.2873199"><ele>66.0</ele><time>2026-03-25T09:10:23.965Z</time></trkpt><trkpt lat="41.5018511" lon="13.2874606"><ele>66.0</ele><time>2026-03-25T09:10:24.961Z</time></trkpt><trkpt lat="41.5018034" lon="13.287602"><ele>66.0</ele><time>2026-03-25T09:10:25.96Z</time></trkpt><trkpt lat="41.5017547" lon="13.2877447"><ele>66.0</ele><time>2026-03-25T09:10:26.964Z</time></trkpt><trkpt lat="41.5017081" lon="13.2878851"><ele>66.0</ele><time>2026-03-25T09:10:27.96Z</time></trkpt><trkpt lat="41.5016694" lon="13.2880296"><ele>67.75</ele><time>2026-03-25T09:10:28.955Z</time></trkpt><trkpt lat="41.5016434" lon="13.2881752"><ele>69.5</ele><time>2026-03-25T09:10:29.954Z</time></trkpt><trkpt lat="41.5016268" lon="13.2883221"><ele>71.25</ele><time>2026-03-25T09:10:30.961Z</time></trkpt><trkpt lat="41.5016094" lon="13.2884709"><ele>73.0</ele><time>2026-03-25T09:10:31.962Z</time></trkpt><trkpt lat="41.5015862" lon="13.288622"><ele>73.0</ele><time>2026-03-25T09:10:32.961Z</time></trkpt><trkpt lat="41.5015635" lon="13.2887717"><ele>73.0</ele><time>2026-03-25T09:10:33.971Z</time></trkpt><trkpt lat="41.5015263" lon="13.288903"><ele>73.0</ele><time>2026-03-25T09:10:34.965Z</time></trkpt><trkpt lat="41.5014846" lon="13.2889925"><ele>73.0</ele><time>2026-03-25T09:10:35.957Z</time></trkpt><trkpt lat="41.5014464" lon="13.2890629"><ele>73.0</ele><time>2026-03-25T09:10:36.962Z</time></trkpt><trkpt lat="41.5013845" lon="13.2891278"><ele>73.0</ele><time>2026-03-25T09:10:38.959Z</time></trkpt><trkpt lat="41.5013168" lon="13.2890547"><ele>72.4</ele><time>2026-03-25T09:10:41.965Z</time></trkpt><trkpt lat="41.5012682" lon="13.2889469"><ele>71.8</ele><time>2026-03-25T09:10:43.961Z</time></trkpt><trkpt lat="41.5011989" lon="13.2888198"><ele>71.2</ele><time>2026-03-25T09:10:45.954Z</time></trkpt><trkpt lat="41.5011498" lon="13.2887295"><ele>70.6</ele><time>2026-03-25T09:10:47.957Z</time></trkpt><trkpt lat="41.5011799" lon="13.2888352"><ele>70.0</ele><time>2026-03-25T09:11:05.964Z</time></trkpt><trkpt lat="41.5012462" lon="13.2889189"><ele>72.4</ele><time>2026-03-25T09:11:07.95Z</time></trkpt><trkpt lat="41.5013132" lon="13.2890424"><ele>74.8</ele><time>2026-03-25T09:11:09.953Z</time></trkpt><trkpt lat="41.5013573" lon="13.289196"><ele>77.19999999999999</ele><time>2026-03-25T09:11:11.959Z</time></trkpt><trkpt lat="41.5013485" lon="13.2892932"><ele>79.6</ele><time>2026-03-25T09:11:12.955Z</time></trkpt><trkpt lat="41.5013304" lon="13.2893995"><ele>82.0</ele><time>2026-03-25T09:11:13.95Z</time></trkpt><trkpt lat="41.5013159" lon="13.2894869"><ele>82.0</ele><time>2026-03-25T09:11:14.955Z</time></trkpt><trkpt lat="41.501308" lon="13.2895776"><ele>82.0</ele><time>2026-03-25T09:11:15.958Z</time></trkpt><trkpt lat="41.5013055" lon="13.2896747"><ele>82.0</ele><time>2026-03-25T09:11:16.958Z</time></trkpt><trkpt lat="41.5012808" lon="13.2898084"><ele>82.0</ele><time>2026-03-25T09:11:18.955Z</time></trkpt><trkpt lat="41.5012194" lon="13.2898563"><ele>82.0</ele><time>2026-03-25T09:11:20.967Z</time></trkpt><trkpt lat="41.5010938" lon="13.2898834"><ele>82.0</ele><time>2026-03-25T09:11:22.961Z</time></trkpt><trkpt lat="41.5010175" lon="13.2899047"><ele>82.6</ele><time>2026-03-25T09:11:23.961Z</time></trkpt><trkpt lat="41.500922" lon="13.2899177"><ele>83.19999999999999</ele><time>2026-03-25T09:11:24.961Z</time></trkpt><trkpt lat="41.5008142" lon="13.2899166"><ele>83.8</ele><time>2026-03-25T09:11:25.95Z</time></trkpt><trkpt lat="41.5007071" lon="13.2899095"><ele>84.4</ele><time>2026-03-25T09:11:26.957Z</time></trkpt><trkpt lat="41.5005876" lon="13.2899016"><ele>85.0</ele><time>2026-03-25T09:11:27.954Z</time></trkpt><trkpt lat="41.5004556" lon="13.289895"><ele>84.5</ele><time>2026-03-25T09:11:28.958Z</time></trkpt><trkpt lat="41.5003245" lon="13.2898917"><ele>84.0</ele><time>2026-03-25T09:11:29.957Z</time></trkpt><trkpt lat="41.5002056" lon="13.289885"><ele>83.5</ele><time>2026-03-25T09:11:30.956Z</time></trkpt><trkpt lat="41.5000933" lon="13.2898832"><ele>83.0</ele><time>2026-03-25T09:11:31.953Z</time></trkpt><trkpt lat="41.4999837" lon="13.2898897"><ele>83.0</ele><time>2026-03-25T09:11:32.954Z</time></trkpt><trkpt lat="41.4998876" lon="13.2899102"><ele>83.0</ele><time>2026-03-25T09:11:33.953Z</time></trkpt><trkpt lat="41.499796" lon="13.2899313"><ele>83.0</ele><time>2026-03-25T09:11:34.953Z</time></trkpt><trkpt lat="41.4997032" lon="13.2899885"><ele>83.0</ele><time>2026-03-25T09:11:35.962Z</time></trkpt><trkpt lat="41.4996084" lon="13.2900565"><ele>83.0</ele><time>2026-03-25T09:11:36.959Z</time></trkpt><trkpt lat="41.4995093" lon="13.2901356"><ele>82.25</ele><time>2026-03-25T09:11:37.966Z</time></trkpt><trkpt lat="41.4994119" lon="13.2902232"><ele>81.5</ele><time>2026-03-25T09:11:38.952Z</time></trkpt><trkpt lat="41.4993164" lon="13.2903147"><ele>80.75</ele><time>2026-03-25T09:11:39.958Z</time></trkpt><trkpt lat="41.4992184" lon="13.2903985"><ele>80.0</ele><time>2026-03-25T09:11:40.966Z</time></trkpt><trkpt lat="41.4991175" lon="13.2904754"><ele>80.0</ele><time>2026-03-25T09:11:41.958Z</time></trkpt><trkpt lat="41.499016" lon="13.2905529"><ele>80.0</ele><time>2026-03-25T09:11:42.954Z</time></trkpt><trkpt lat="41.4989141" lon="13.290625"><ele>80.0</ele><time>2026-03-25T09:11:43.95Z</time></trkpt><trkpt lat="41.4988099" lon="13.2906912"><ele>80.0</ele><time>2026-03-25T09:11:44.958Z</time></trkpt><trkpt lat="41.4986998" lon="13.2907614"><ele>80.25</ele><time>2026-03-25T09:11:45.963Z</time></trkpt><trkpt lat="41.4985935" lon="13.2908305"><ele>80.5</ele><time>2026-03-25T09:11:46.958Z</time></trkpt><trkpt lat="41.4984894" lon="13.2908977"><ele>80.75</ele><time>2026-03-25T09:11:47.955Z</time></trkpt><trkpt lat="41.4983819" lon="13.2909591"><ele>81.0</ele><time>2026-03-25T09:11:48.961Z</time></trkpt><trkpt lat="41.4982738" lon="13.2910158"><ele>81.0</ele><time>2026-03-25T09:11:49.951Z</time></trkpt><trkpt lat="41.4981701" lon="13.2910689"><ele>81.0</ele><time>2026-03-25T09:11:50.955Z</time></trkpt><trkpt lat="41.498076" lon="13.2911138"><ele>81.0</ele><time>2026-03-25T09:11:51.957Z</time></trkpt><trkpt lat="41.4979895" lon="13.2911554"><ele>81.0</ele><time>2026-03-25T09:11:52.958Z</time></trkpt><trkpt lat="41.4979058" lon="13.2911963"><ele>81.0</ele><time>2026-03-25T09:11:53.962Z</time></trkpt><trkpt lat="41.4978167" lon="13.2912386"><ele>79.5</ele><time>2026-03-25T09:11:54.955Z</time></trkpt><trkpt lat="41.4977059" lon="13.2912611"><ele>78.0</ele><time>2026-03-25T09:11:55.958Z</time></trkpt><trkpt lat="41.4975874" lon="13.2912849"><ele>76.5</ele><time>2026-03-25T09:11:56.955Z</time></trkpt><trkpt lat="41.4974551" lon="13.2913062"><ele>75.0</ele><time>2026-03-25T09:11:57.958Z</time></trkpt><trkpt lat="41.4973258" lon="13.2913297"><ele>75.0</ele><time>2026-03-25T09:11:58.96Z</time></trkpt><trkpt lat="41.4971893" lon="13.2913565"><ele>75.0</ele><time>2026-03-25T09:11:59.958Z</time></trkpt><trkpt lat="41.4970455" lon="13.2914133"><ele>75.0</ele><time>2026-03-25T09:12:00.966Z</time></trkpt><trkpt lat="41.4969022" lon="13.2914758"><ele>75.0</ele><time>2026-03-25T09:12:01.951Z</time></trkpt><trkpt lat="41.4967656" lon="13.2915464"><ele>76.0</ele><time>2026-03-25T09:12:02.965Z</time></trkpt><trkpt lat="41.4966342" lon="13.2916258"><ele>77.0</ele><time>2026-03-25T09:12:03.96Z</time></trkpt><trkpt lat="41.4965098" lon="13.291713"><ele>78.0</ele><time>2026-03-25T09:12:04.961Z</time></trkpt><trkpt lat="41.4963982" lon="13.2917963"><ele>79.0</ele><time>2026-03-25T09:12:05.956Z</time></trkpt><trkpt lat="41.4962904" lon="13.2918932"><ele>78.75</ele><time>2026-03-25T09:12:06.957Z</time></trkpt><trkpt lat="41.4961869" lon="13.2920048"><ele>78.5</ele><time>2026-03-25T09:12:07.963Z</time></trkpt><trkpt lat="41.4960931" lon="13.2921121"><ele>78.25</ele><time>2026-03-25T09:12:08.968Z</time></trkpt><trkpt lat="41.4960017" lon="13.2922158"><ele>78.0</ele><time>2026-03-25T09:12:09.968Z</time></trkpt><trkpt lat="41.4959045" lon="13.2923161"><ele>78.0</ele><time>2026-03-25T09:12:10.958Z</time></trkpt><trkpt lat="41.4958119" lon="13.2924171"><ele>78.0</ele><time>2026-03-25T09:12:11.967Z</time></trkpt><trkpt lat="41.4956917" lon="13.2924769"><ele>78.0</ele><time>2026-03-25T09:12:12.962Z</time></trkpt><trkpt lat="41.4955596" lon="13.292527"><ele>78.0</ele><time>2026-03-25T09:12:13.968Z</time></trkpt><trkpt lat="41.4954226" lon="13.2925716"><ele>77.25</ele><time>2026-03-25T09:12:14.953Z</time></trkpt><trkpt lat="41.4952829" lon="13.2926096"><ele>76.5</ele><time>2026-03-25T09:12:15.966Z</time></trkpt><trkpt lat="41.4951413" lon="13.2926466"><ele>75.75</ele><time>2026-03-25T09:12:16.951Z</time></trkpt><trkpt lat="41.4950024" lon="13.2926725"><ele>75.0</ele><time>2026-03-25T09:12:17.955Z</time></trkpt><trkpt lat="41.4948732" lon="13.2926866"><ele>75.0</ele><time>2026-03-25T09:12:18.967Z</time></trkpt><trkpt lat="41.4947407" lon="13.2926997"><ele>75.0</ele><time>2026-03-25T09:12:19.965Z</time></trkpt><trkpt lat="41.4946099" lon="13.2926936"><ele>75.0</ele><time>2026-03-25T09:12:20.96Z</time></trkpt><trkpt lat="41.4944732" lon="13.2926951"><ele>75.0</ele><time>2026-03-25T09:12:21.954Z</time></trkpt><trkpt lat="41.4943516" lon="13.2926991"><ele>73.75</ele><time>2026-03-25T09:12:22.96Z</time></trkpt><trkpt lat="41.4942349" lon="13.2926994"><ele>72.5</ele><time>2026-03-25T09:12:23.955Z</time></trkpt><trkpt lat="41.4941108" lon="13.2926949"><ele>71.25</ele><time>2026-03-25T09:12:24.956Z</time></trkpt><trkpt lat="41.4939885" lon="13.2926896"><ele>70.0</ele><time>2026-03-25T09:12:25.963Z</time></trkpt><trkpt lat="41.4938775" lon="13.2926785"><ele>70.0</ele><time>2026-03-25T09:12:26.961Z</time></trkpt><trkpt lat="41.4937684" lon="13.2926701"><ele>70.0</ele><time>2026-03-25T09:12:27.957Z</time></trkpt><trkpt lat="41.4936589" lon="13.2926597"><ele>70.0</ele><time>2026-03-25T09:12:28.954Z</time></trkpt><trkpt lat="41.4935502" lon="13.2926475"><ele>70.0</ele><time>2026-03-25T09:12:29.959Z</time></trkpt><trkpt lat="41.4934398" lon="13.2926352"><ele>70.0</ele><time>2026-03-25T09:12:30.96Z</time></trkpt><trkpt lat="41.4933321" lon="13.292626"><ele>69.0</ele><time>2026-03-25T09:12:31.96Z</time></trkpt><trkpt lat="41.4932207" lon="13.2926393"><ele>68.0</ele><time>2026-03-25T09:12:32.962Z</time></trkpt><trkpt lat="41.4931127" lon="13.2926589"><ele>67.0</ele><time>2026-03-25T09:12:33.959Z</time></trkpt><trkpt lat="41.4930102" lon="13.2926783"><ele>66.0</ele><time>2026-03-25T09:12:34.957Z</time></trkpt><trkpt lat="41.492904" lon="13.2927006"><ele>65.0</ele><time>2026-03-25T09:12:35.956Z</time></trkpt><trkpt lat="41.492796" lon="13.2927159"><ele>63.8</ele><time>2026-03-25T09:12:36.957Z</time></trkpt><trkpt lat="41.4926885" lon="13.2927353"><ele>62.6</ele><time>2026-03-25T09:12:37.951Z</time></trkpt><trkpt lat="41.492575" lon="13.2927248"><ele>61.400000000000006</ele><time>2026-03-25T09:12:38.959Z</time></trkpt><trkpt lat="41.4924632" lon="13.2927161"><ele>60.2</ele><time>2026-03-25T09:12:39.954Z</time></trkpt><trkpt lat="41.492358" lon="13.2927111"><ele>59.0</ele><time>2026-03-25T09:12:40.954Z</time></trkpt><trkpt lat="41.4922559" lon="13.292701"><ele>59.00000000000001</ele><time>2026-03-25T09:12:41.962Z</time></trkpt><trkpt lat="41.4921608" lon="13.2926786"><ele>59.0</ele><time>2026-03-25T09:12:42.956Z</time></trkpt><trkpt lat="41.4920734" lon="13.2926576"><ele>59.0</ele><time>2026-03-25T09:12:43.965Z</time></trkpt><trkpt lat="41.492007" lon="13.2926093"><ele>59.0</ele><time>2026-03-25T09:12:44.953Z</time></trkpt><trkpt lat="41.491946" lon="13.2925337"><ele>59.00000000000001</ele><time>2026-03-25T09:12:45.96Z</time></trkpt><trkpt lat="41.4918896" lon="13.2924518"><ele>59.0</ele><time>2026-03-25T09:12:46.96Z</time></trkpt><trkpt lat="41.4918305" lon="13.2923849"><ele>58.833333333333336</ele><time>2026-03-25T09:12:47.947Z</time></trkpt><trkpt lat="41.4917634" lon="13.292348"><ele>58.66666666666667</ele><time>2026-03-25T09:12:48.944Z</time></trkpt><trkpt lat="41.4916954" lon="13.292315"><ele>58.5</ele><time>2026-03-25T09:12:49.954Z</time></trkpt><trkpt lat="41.4916151" lon="13.2923333"><ele>58.33333333333333</ele><time>2026-03-25T09:12:50.959Z</time></trkpt><trkpt lat="41.491533" lon="13.292375"><ele>58.166666666666664</ele><time>2026-03-25T09:12:51.971Z</time></trkpt><trkpt lat="41.491452" lon="13.2924197"><ele>58.0</ele><time>2026-03-25T09:12:52.972Z</time></trkpt><trkpt lat="41.4913723" lon="13.2924556"><ele>57.99999999999999</ele><time>2026-03-25T09:12:53.958Z</time></trkpt><trkpt lat="41.4912891" lon="13.2924926"><ele>58.0</ele><time>2026-03-25T09:12:54.964Z</time></trkpt><trkpt lat="41.4912061" lon="13.2925384"><ele>58.0</ele><time>2026-03-25T09:12:55.96Z</time></trkpt><trkpt lat="41.4911191" lon="13.2925923"><ele>58.0</ele><time>2026-03-25T09:12:56.957Z</time></trkpt><trkpt lat="41.4910387" lon="13.2926461"><ele>57.99999999999999</ele><time>2026-03-25T09:12:57.965Z</time></trkpt><trkpt lat="41.4909667" lon="13.2926906"><ele>58.0</ele><time>2026-03-25T09:12:58.958Z</time></trkpt><trkpt lat="41.4909031" lon="13.2927259"><ele>58.0</ele><time>2026-03-25T09:12:59.962Z</time></trkpt><trkpt lat="41.4908068" lon="13.2927911"><ele>58.0</ele><time>2026-03-25T09:13:01.958Z</time></trkpt><trkpt lat="41.4907414" lon="13.2928459"><ele>58.0</ele><time>2026-03-25T09:13:03.957Z</time></trkpt><trkpt lat="41.4906374" lon="13.2928269"><ele>58.0</ele><time>2026-03-25T09:13:06.96Z</time></trkpt><trkpt lat="41.4905452" lon="13.2927255"><ele>58.0</ele><time>2026-03-25T09:13:08.958Z</time></trkpt><trkpt lat="41.4904526" lon="13.2926221"><ele>58.166666666666664</ele><time>2026-03-25T09:13:10.954Z</time></trkpt><trkpt lat="41.490403" lon="13.2925677"><ele>58.33333333333333</ele><time>2026-03-25T09:13:11.961Z</time></trkpt><trkpt lat="41.4903436" lon="13.2925106"><ele>58.5</ele><time>2026-03-25T09:13:12.956Z</time></trkpt><trkpt lat="41.4902758" lon="13.2924438"><ele>58.66666666666667</ele><time>2026-03-25T09:13:13.955Z</time></trkpt><trkpt lat="41.4902031" lon="13.2923719"><ele>58.833333333333336</ele><time>2026-03-25T09:13:14.956Z</time></trkpt><trkpt lat="41.4901275" lon="13.2922976"><ele>59.0</ele><time>2026-03-25T09:13:15.954Z</time></trkpt><trkpt lat="41.4900501" lon="13.2922226"><ele>59.0</ele><time>2026-03-25T09:13:16.957Z</time></trkpt><trkpt lat="41.4899744" lon="13.2921455"><ele>59.00000000000001</ele><time>2026-03-25T09:13:17.955Z</time></trkpt><trkpt lat="41.4898962" lon="13.2920681"><ele>59.00000000000001</ele><time>2026-03-25T09:13:18.951Z</time></trkpt><trkpt lat="41.489814" lon="13.2919877"><ele>59.0</ele><time>2026-03-25T09:13:19.96Z</time></trkpt><trkpt lat="41.4897307" lon="13.2919052"><ele>59.0</ele><time>2026-03-25T09:13:20.967Z</time></trkpt><trkpt lat="41.4896484" lon="13.291819"><ele>59.2</ele><time>2026-03-25T09:13:21.953Z</time></trkpt><trkpt lat="41.4895643" lon="13.2917321"><ele>59.400000000000006</ele><time>2026-03-25T09:13:22.952Z</time></trkpt><trkpt lat="41.4894767" lon="13.2916453"><ele>59.6</ele><time>2026-03-25T09:13:23.961Z</time></trkpt><trkpt lat="41.489388" lon="13.2915563"><ele>59.8</ele><time>2026-03-25T09:13:24.955Z</time></trkpt><trkpt lat="41.4892985" lon="13.2914661"><ele>60.0</ele><time>2026-03-25T09:13:25.955Z</time></trkpt><trkpt lat="41.4892088" lon="13.2913758"><ele>60.0</ele><time>2026-03-25T09:13:26.971Z</time></trkpt><trkpt lat="41.4891184" lon="13.2912873"><ele>60.0</ele><time>2026-03-25T09:13:27.972Z</time></trkpt><trkpt lat="41.4890294" lon="13.2911975"><ele>60.0</ele><time>2026-03-25T09:13:28.968Z</time></trkpt><trkpt lat="41.4889408" lon="13.2911074"><ele>60.0</ele><time>2026-03-25T09:13:29.965Z</time></trkpt><trkpt lat="41.4888504" lon="13.2910164"><ele>60.0</ele><time>2026-03-25T09:13:30.967Z</time></trkpt><trkpt lat="41.4887558" lon="13.2909229"><ele>60.5</ele><time>2026-03-25T09:13:31.964Z</time></trkpt><trkpt lat="41.4886597" lon="13.2908278"><ele>61.0</ele><time>2026-03-25T09:13:32.96Z</time></trkpt><trkpt lat="41.4885612" lon="13.290736"><ele>61.5</ele><time>2026-03-25T09:13:33.962Z</time></trkpt><trkpt lat="41.4884611" lon="13.2906478"><ele>62.0</ele><time>2026-03-25T09:13:34.969Z</time></trkpt><trkpt lat="41.4883723" lon="13.2905707"><ele>62.00000000000001</ele><time>2026-03-25T09:13:35.955Z</time></trkpt><trkpt lat="41.4882965" lon="13.2905051"><ele>62.0</ele><time>2026-03-25T09:13:36.96Z</time></trkpt><trkpt lat="41.4882298" lon="13.2904463"><ele>62.0</ele><time>2026-03-25T09:13:37.991Z</time></trkpt><trkpt lat="41.488169" lon="13.2903924"><ele>62.0</ele><time>2026-03-25T09:13:38.96Z</time></trkpt><trkpt lat="41.4881121" lon="13.2903433"><ele>62.00000000000001</ele><time>2026-03-25T09:13:39.961Z</time></trkpt><trkpt lat="41.4880118" lon="13.2902725"><ele>62.0</ele><time>2026-03-25T09:13:41.967Z</time></trkpt><trkpt lat="41.4879173" lon="13.2902711"><ele>62.2</ele><time>2026-03-25T09:13:43.958Z</time></trkpt><trkpt lat="41.4878204" lon="13.2903936"><ele>62.400000000000006</ele><time>2026-03-25T09:13:45.954Z</time></trkpt><trkpt lat="41.4877704" lon="13.2904668"><ele>62.599999999999994</ele><time>2026-03-25T09:13:46.956Z</time></trkpt><trkpt lat="41.4877172" lon="13.2905532"><ele>62.8</ele><time>2026-03-25T09:13:47.96Z</time></trkpt><trkpt lat="41.4876638" lon="13.2906435"><ele>63.0</ele><time>2026-03-25T09:13:48.956Z</time></trkpt><trkpt lat="41.4876288" lon="13.2907283"><ele>63.666666666666664</ele><time>2026-03-25T09:13:49.951Z</time></trkpt><trkpt lat="41.4876092" lon="13.2908928"><ele>64.33333333333333</ele><time>2026-03-25T09:13:51.951Z</time></trkpt><trkpt lat="41.4876045" lon="13.2909973"><ele>65.0</ele><time>2026-03-25T09:13:52.963Z</time></trkpt><trkpt lat="41.4876024" lon="13.291111"><ele>65.66666666666666</ele><time>2026-03-25T09:13:53.958Z</time></trkpt><trkpt lat="41.4875939" lon="13.2912142"><ele>66.33333333333333</ele><time>2026-03-25T09:13:54.957Z</time></trkpt><trkpt lat="41.4875855" lon="13.2913169"><ele>67.0</ele><time>2026-03-25T09:13:55.953Z</time></trkpt><trkpt lat="41.4875609" lon="13.291403"><ele>67.42857142857143</ele><time>2026-03-25T09:13:56.959Z</time></trkpt><trkpt lat="41.4875171" lon="13.2914714"><ele>67.85714285714286</ele><time>2026-03-25T09:13:57.951Z</time></trkpt><trkpt lat="41.4874543" lon="13.2915137"><ele>68.28571428571428</ele><time>2026-03-25T09:13:58.964Z</time></trkpt><trkpt lat="41.4873854" lon="13.2915396"><ele>68.71428571428572</ele><time>2026-03-25T09:13:59.964Z</time></trkpt><trkpt lat="41.4873142" lon="13.2915606"><ele>69.14285714285714</ele><time>2026-03-25T09:14:00.96Z</time></trkpt><trkpt lat="41.4872437" lon="13.2915821"><ele>69.57142857142857</ele><time>2026-03-25T09:14:01.96Z</time></trkpt><trkpt lat="41.4871667" lon="13.291592"><ele>70.0</ele><time>2026-03-25T09:14:02.954Z</time></trkpt><trkpt lat="41.4870937" lon="13.2916074"><ele>70.0</ele><time>2026-03-25T09:14:03.957Z</time></trkpt><trkpt lat="41.4869931" lon="13.2916696"><ele>70.0</ele><time>2026-03-25T09:14:05.952Z</time></trkpt><trkpt lat="41.4869559" lon="13.2917893"><ele>70.0</ele><time>2026-03-25T09:14:07.956Z</time></trkpt><trkpt lat="41.486981" lon="13.2918706"><ele>70.0</ele><time>2026-03-25T09:14:09.961Z</time></trkpt><trkpt lat="41.487021" lon="13.2919689"><ele>70.0</ele><time>2026-03-25T09:14:12.956Z</time></trkpt><trkpt lat="41.4870524" lon="13.2920751"><ele>70.0</ele><time>2026-03-25T09:14:14.963Z</time></trkpt><trkpt lat="41.4871027" lon="13.2922253"><ele>70.8</ele><time>2026-03-25T09:14:16.969Z</time></trkpt><trkpt lat="41.4871376" lon="13.2923215"><ele>71.6</ele><time>2026-03-25T09:14:17.959Z</time></trkpt><trkpt lat="41.4871726" lon="13.2924221"><ele>72.4</ele><time>2026-03-25T09:14:18.955Z</time></trkpt><trkpt lat="41.4872115" lon="13.2925343"><ele>73.2</ele><time>2026-03-25T09:14:19.95Z</time></trkpt><trkpt lat="41.4872587" lon="13.2926604"><ele>74.0</ele><time>2026-03-25T09:14:20.952Z</time></trkpt><trkpt lat="41.4873031" lon="13.2927896"><ele>74.0</ele><time>2026-03-25T09:14:21.947Z</time></trkpt><trkpt lat="41.4873491" lon="13.2929241"><ele>74.0</ele><time>2026-03-25T09:14:22.956Z</time></trkpt><trkpt lat="41.4873959" lon="13.2930812"><ele>74.0</ele><time>2026-03-25T09:14:23.953Z</time></trkpt><trkpt lat="41.4874482" lon="13.2932464"><ele>74.0</ele><time>2026-03-25T09:14:24.962Z</time></trkpt><trkpt lat="41.4875055" lon="13.293412"><ele>75.25</ele><time>2026-03-25T09:14:25.959Z</time></trkpt><trkpt lat="41.4875622" lon="13.2935769"><ele>76.5</ele><time>2026-03-25T09:14:26.954Z</time></trkpt><trkpt lat="41.487609" lon="13.2937396"><ele>77.75</ele><time>2026-03-25T09:14:27.95Z</time></trkpt><trkpt lat="41.4876512" lon="13.2939013"><ele>79.0</ele><time>2026-03-25T09:14:28.953Z</time></trkpt><trkpt lat="41.4877038" lon="13.2940697"><ele>79.2</ele><time>2026-03-25T09:14:29.956Z</time></trkpt><trkpt lat="41.4877581" lon="13.29422"><ele>79.4</ele><time>2026-03-25T09:14:30.963Z</time></trkpt><trkpt lat="41.4878072" lon="13.2943578"><ele>79.6</ele><time>2026-03-25T09:14:31.956Z</time></trkpt><trkpt lat="41.4878594" lon="13.294466"><ele>79.8</ele><time>2026-03-25T09:14:32.951Z</time></trkpt><trkpt lat="41.4879001" lon="13.2945623"><ele>80.0</ele><time>2026-03-25T09:14:33.951Z</time></trkpt><trkpt lat="41.487924" lon="13.2946477"><ele>80.4</ele><time>2026-03-25T09:14:34.957Z</time></trkpt><trkpt lat="41.4879373" lon="13.2948018"><ele>80.8</ele><time>2026-03-25T09:14:36.958Z</time></trkpt><trkpt lat="41.4879109" lon="13.2948924"><ele>81.19999999999999</ele><time>2026-03-25T09:14:37.956Z</time></trkpt><trkpt lat="41.4878671" lon="13.2949985"><ele>81.6</ele><time>2026-03-25T09:14:38.949Z</time></trkpt><trkpt lat="41.4878253" lon="13.2951122"><ele>82.0</ele><time>2026-03-25T09:14:39.954Z</time></trkpt><trkpt lat="41.4877769" lon="13.2952319"><ele>81.39999999999999</ele><time>2026-03-25T09:14:40.954Z</time></trkpt><trkpt lat="41.4877244" lon="13.2953458"><ele>80.8</ele><time>2026-03-25T09:14:41.961Z</time></trkpt><trkpt lat="41.4876783" lon="13.2954753"><ele>80.2</ele><time>2026-03-25T09:14:42.963Z</time></trkpt><trkpt lat="41.4876573" lon="13.295613"><ele>79.6</ele><time>2026-03-25T09:14:43.954Z</time></trkpt><trkpt lat="41.4876465" lon="13.2957397"><ele>79.0</ele><time>2026-03-25T09:14:44.96Z</time></trkpt><trkpt lat="41.4876175" lon="13.2958585"><ele>79.0</ele><time>2026-03-25T09:14:45.959Z</time></trkpt><trkpt lat="41.4875749" lon="13.2959715"><ele>79.0</ele><time>2026-03-25T09:14:46.951Z</time></trkpt><trkpt lat="41.4875122" lon="13.296082"><ele>79.0</ele><time>2026-03-25T09:14:47.956Z</time></trkpt><trkpt lat="41.4874457" lon="13.2961952"><ele>79.0</ele><time>2026-03-25T09:14:48.951Z</time></trkpt><trkpt lat="41.4873723" lon="13.2963145"><ele>79.0</ele><time>2026-03-25T09:14:49.95Z</time></trkpt><trkpt lat="41.4873066" lon="13.2964234"><ele>79.2</ele><time>2026-03-25T09:14:50.959Z</time></trkpt><trkpt lat="41.487252" lon="13.2965241"><ele>79.4</ele><time>2026-03-25T09:14:51.953Z</time></trkpt><trkpt lat="41.4872031" lon="13.2966324"><ele>79.6</ele><time>2026-03-25T09:14:52.952Z</time></trkpt><trkpt lat="41.4871684" lon="13.2967558"><ele>79.8</ele><time>2026-03-25T09:14:53.953Z</time></trkpt><trkpt lat="41.4871392" lon="13.2968944"><ele>80.0</ele><time>2026-03-25T09:14:54.96Z</time></trkpt><trkpt lat="41.4871211" lon="13.2970398"><ele>80.0</ele><time>2026-03-25T09:14:55.952Z</time></trkpt><trkpt lat="41.4871067" lon="13.2971809"><ele>80.0</ele><time>2026-03-25T09:14:56.959Z</time></trkpt><trkpt lat="41.4870864" lon="13.2973091"><ele>80.0</ele><time>2026-03-25T09:14:57.949Z</time></trkpt><trkpt lat="41.4870593" lon="13.2974388"><ele>80.0</ele><time>2026-03-25T09:14:58.957Z</time></trkpt><trkpt lat="41.4870287" lon="13.2975711"><ele>80.0</ele><time>2026-03-25T09:14:59.954Z</time></trkpt><trkpt lat="41.4869945" lon="13.2976959"><ele>78.0</ele><time>2026-03-25T09:15:00.949Z</time></trkpt><trkpt lat="41.4869617" lon="13.2978124"><ele>76.0</ele><time>2026-03-25T09:15:01.971Z</time></trkpt><trkpt lat="41.486944" lon="13.2979425"><ele>74.0</ele><time>2026-03-25T09:15:02.96Z</time></trkpt><trkpt lat="41.4869421" lon="13.2980894"><ele>72.0</ele><time>2026-03-25T09:15:03.949Z</time></trkpt><trkpt lat="41.486944" lon="13.2982329"><ele>70.0</ele><time>2026-03-25T09:15:04.952Z</time></trkpt><trkpt lat="41.4869444" lon="13.2983673"><ele>70.0</ele><time>2026-03-25T09:15:05.959Z</time></trkpt><trkpt lat="41.486945" lon="13.2985096"><ele>70.0</ele><time>2026-03-25T09:15:06.962Z</time></trkpt><trkpt lat="41.4869495" lon="13.2986438"><ele>70.0</ele><time>2026-03-25T09:15:07.956Z</time></trkpt><trkpt lat="41.4869602" lon="13.2987848"><ele>70.0</ele><time>2026-03-25T09:15:08.955Z</time></trkpt><trkpt lat="41.4869904" lon="13.2989231"><ele>70.0</ele><time>2026-03-25T09:15:09.957Z</time></trkpt><trkpt lat="41.487021" lon="13.2990841"><ele>69.8</ele><time>2026-03-25T09:15:10.96Z</time></trkpt><trkpt lat="41.4870539" lon="13.2992325"><ele>69.6</ele><time>2026-03-25T09:15:11.954Z</time></trkpt><trkpt lat="41.4870862" lon="13.2993783"><ele>69.4</ele><time>2026-03-25T09:15:12.964Z</time></trkpt><trkpt lat="41.4871228" lon="13.2995095"><ele>69.2</ele><time>2026-03-25T09:15:13.955Z</time></trkpt><trkpt lat="41.4871543" lon="13.2996499"><ele>69.0</ele><time>2026-03-25T09:15:14.959Z</time></trkpt><trkpt lat="41.4872023" lon="13.299787"><ele>69.5</ele><time>2026-03-25T09:15:15.967Z</time></trkpt><trkpt lat="41.4872642" lon="13.2999188"><ele>70.0</ele><time>2026-03-25T09:15:16.962Z</time></trkpt><trkpt lat="41.487331" lon="13.3000347"><ele>70.5</ele><time>2026-03-25T09:15:17.956Z</time></trkpt><trkpt lat="41.4874049" lon="13.3001588"><ele>71.0</ele><time>2026-03-25T09:15:18.962Z</time></trkpt><trkpt lat="41.4874787" lon="13.3002794"><ele>71.0</ele><time>2026-03-25T09:15:19.96Z</time></trkpt><trkpt lat="41.4875531" lon="13.3003949"><ele>71.0</ele><time>2026-03-25T09:15:20.956Z</time></trkpt><trkpt lat="41.487629" lon="13.3005154"><ele>71.0</ele><time>2026-03-25T09:15:21.962Z</time></trkpt><trkpt lat="41.4877031" lon="13.3006475"><ele>71.0</ele><time>2026-03-25T09:15:22.959Z</time></trkpt><trkpt lat="41.48778" lon="13.3007782"><ele>70.8</ele><time>2026-03-25T09:15:23.962Z</time></trkpt><trkpt lat="41.487849" lon="13.3008872"><ele>70.6</ele><time>2026-03-25T09:15:24.954Z</time></trkpt><trkpt lat="41.4879167" lon="13.3009748"><ele>70.4</ele><time>2026-03-25T09:15:25.954Z</time></trkpt><trkpt lat="41.4879835" lon="13.3010626"><ele>70.2</ele><time>2026-03-25T09:15:26.965Z</time></trkpt><trkpt lat="41.4880517" lon="13.3011491"><ele>70.0</ele><time>2026-03-25T09:15:27.962Z</time></trkpt><trkpt lat="41.4881288" lon="13.3012424"><ele>70.0</ele><time>2026-03-25T09:15:28.953Z</time></trkpt><trkpt lat="41.4882091" lon="13.30133"><ele>70.0</ele><time>2026-03-25T09:15:29.956Z</time></trkpt><trkpt lat="41.488293" lon="13.3014114"><ele>70.0</ele><time>2026-03-25T09:15:30.956Z</time></trkpt><trkpt lat="41.488371" lon="13.3014923"><ele>70.0</ele><time>2026-03-25T09:15:31.949Z</time></trkpt><trkpt lat="41.4884547" lon="13.3015751"><ele>70.0</ele><time>2026-03-25T09:15:32.951Z</time></trkpt><trkpt lat="41.488525" lon="13.3016485"><ele>70.0</ele><time>2026-03-25T09:15:33.955Z</time></trkpt><trkpt lat="41.4885991" lon="13.3017058"><ele>70.0</ele><time>2026-03-25T09:15:34.952Z</time></trkpt><trkpt lat="41.4886567" lon="13.3017471"><ele>70.0</ele><time>2026-03-25T09:15:35.954Z</time></trkpt><trkpt lat="41.4887222" lon="13.3017903"><ele>70.0</ele><time>2026-03-25T09:15:36.962Z</time></trkpt><trkpt lat="41.4887831" lon="13.3018387"><ele>70.0</ele><time>2026-03-25T09:15:37.952Z</time></trkpt><trkpt lat="41.4888467" lon="13.301892"><ele>70.0</ele><time>2026-03-25T09:15:38.958Z</time></trkpt><trkpt lat="41.4889144" lon="13.3019399"><ele>70.0</ele><time>2026-03-25T09:15:39.955Z</time></trkpt><trkpt lat="41.4889857" lon="13.3019883"><ele>70.0</ele><time>2026-03-25T09:15:40.958Z</time></trkpt><trkpt lat="41.4890536" lon="13.3020402"><ele>70.0</ele><time>2026-03-25T09:15:41.96Z</time></trkpt><trkpt lat="41.4891295" lon="13.3021079"><ele>70.0</ele><time>2026-03-25T09:15:42.961Z</time></trkpt><trkpt lat="41.4892007" lon="13.3021722"><ele>70.0</ele><time>2026-03-25T09:15:43.967Z</time></trkpt><trkpt lat="41.4892786" lon="13.3022323"><ele>70.0</ele><time>2026-03-25T09:15:44.955Z</time></trkpt><trkpt lat="41.4893643" lon="13.3022902"><ele>70.0</ele><time>2026-03-25T09:15:45.952Z</time></trkpt><trkpt lat="41.4894485" lon="13.302345"><ele>70.0</ele><time>2026-03-25T09:15:46.955Z</time></trkpt><trkpt lat="41.4895367" lon="13.3024081"><ele>70.0</ele><time>2026-03-25T09:15:47.964Z</time></trkpt><trkpt lat="41.489621" lon="13.3024679"><ele>70.0</ele><time>2026-03-25T09:15:48.952Z</time></trkpt><trkpt lat="41.4897105" lon="13.302534"><ele>70.0</ele><time>2026-03-25T09:15:49.954Z</time></trkpt><trkpt lat="41.4898014" lon="13.3026071"><ele>70.0</ele><time>2026-03-25T09:15:50.96Z</time></trkpt><trkpt lat="41.4898888" lon="13.3026621"><ele>70.4</ele><time>2026-03-25T09:15:51.958Z</time></trkpt><trkpt lat="41.4899706" lon="13.3027127"><ele>70.8</ele><time>2026-03-25T09:15:52.964Z</time></trkpt><trkpt lat="41.490039" lon="13.3027452"><ele>71.2</ele><time>2026-03-25T09:15:53.955Z</time></trkpt><trkpt lat="41.4901503" lon="13.3027804"><ele>71.6</ele><time>2026-03-25T09:15:55.961Z</time></trkpt><trkpt lat="41.4902343" lon="13.3028205"><ele>72.0</ele><time>2026-03-25T09:15:57.966Z</time></trkpt><trkpt lat="41.4903208" lon="13.3028767"><ele>72.0</ele><time>2026-03-25T09:15:59.96Z</time></trkpt><trkpt lat="41.4903983" lon="13.3029003"><ele>72.0</ele><time>2026-03-25T09:16:01.965Z</time></trkpt><trkpt lat="41.4905098" lon="13.3029457"><ele>72.0</ele><time>2026-03-25T09:16:03.957Z</time></trkpt><trkpt lat="41.4905712" lon="13.3029766"><ele>72.0</ele><time>2026-03-25T09:16:04.973Z</time></trkpt><trkpt lat="41.4906374" lon="13.3030112"><ele>72.0</ele><time>2026-03-25T09:16:05.958Z</time></trkpt><trkpt lat="41.4907065" lon="13.3030529"><ele>72.0</ele><time>2026-03-25T09:16:06.96Z</time></trkpt><trkpt lat="41.4907904" lon="13.3031096"><ele>71.8</ele><time>2026-03-25T09:16:07.961Z</time></trkpt><trkpt lat="41.4908765" lon="13.303171"><ele>71.6</ele><time>2026-03-25T09:16:08.96Z</time></trkpt><trkpt lat="41.4909771" lon="13.3032313"><ele>71.39999999999999</ele><time>2026-03-25T09:16:09.963Z</time></trkpt><trkpt lat="41.4910845" lon="13.3032937"><ele>71.2</ele><time>2026-03-25T09:16:10.955Z</time></trkpt><trkpt lat="41.4911885" lon="13.3033652"><ele>71.0</ele><time>2026-03-25T09:16:11.966Z</time></trkpt><trkpt lat="41.4912824" lon="13.3034442"><ele>71.8</ele><time>2026-03-25T09:16:12.963Z</time></trkpt><trkpt lat="41.4913546" lon="13.303533"><ele>72.6</ele><time>2026-03-25T09:16:13.962Z</time></trkpt><trkpt lat="41.4914183" lon="13.3036119"><ele>73.4</ele><time>2026-03-25T09:16:14.962Z</time></trkpt><trkpt lat="41.4914675" lon="13.3036942"><ele>74.2</ele><time>2026-03-25T09:16:15.967Z</time></trkpt><trkpt lat="41.4914861" lon="13.3038171"><ele>75.0</ele><time>2026-03-25T09:16:16.955Z</time></trkpt><trkpt lat="41.4914632" lon="13.3039488"><ele>75.75</ele><time>2026-03-25T09:16:17.963Z</time></trkpt><trkpt lat="41.4914401" lon="13.3041579"><ele>76.5</ele><time>2026-03-25T09:16:18.965Z</time></trkpt><trkpt lat="41.491436" lon="13.3043194"><ele>77.25</ele><time>2026-03-25T09:16:19.956Z</time></trkpt><trkpt lat="41.4914349" lon="13.3044605"><ele>78.0</ele><time>2026-03-25T09:16:20.948Z</time></trkpt><trkpt lat="41.4914338" lon="13.3046012"><ele>78.0</ele><time>2026-03-25T09:16:21.96Z</time></trkpt><trkpt lat="41.4914458" lon="13.3047174"><ele>78.0</ele><time>2026-03-25T09:16:22.949Z</time></trkpt><trkpt lat="41.4914881" lon="13.3048618"><ele>78.0</ele><time>2026-03-25T09:16:23.949Z</time></trkpt><trkpt lat="41.4915428" lon="13.3050208"><ele>78.0</ele><time>2026-03-25T09:16:24.958Z</time></trkpt><trkpt lat="41.4915968" lon="13.3052085"><ele>77.66666666666667</ele><time>2026-03-25T09:16:25.958Z</time></trkpt><trkpt lat="41.4916688" lon="13.3053976"><ele>77.33333333333334</ele><time>2026-03-25T09:16:26.957Z</time></trkpt><trkpt lat="41.4917554" lon="13.3056292"><ele>77.0</ele><time>2026-03-25T09:16:27.955Z</time></trkpt><trkpt lat="41.4918217" lon="13.3058712"><ele>76.0</ele><time>2026-03-25T09:16:28.959Z</time></trkpt><trkpt lat="41.4918899" lon="13.3060939"><ele>75.0</ele><time>2026-03-25T09:16:29.96Z</time></trkpt><trkpt lat="41.4919473" lon="13.306288"><ele>74.0</ele><time>2026-03-25T09:16:30.963Z</time></trkpt><trkpt lat="41.4919948" lon="13.3064604"><ele>73.5</ele><time>2026-03-25T09:16:31.961Z</time></trkpt><trkpt lat="41.4920563" lon="13.306606"><ele>73.0</ele><time>2026-03-25T09:16:32.956Z</time></trkpt><trkpt lat="41.4921429" lon="13.3067158"><ele>72.5</ele><time>2026-03-25T09:16:33.957Z</time></trkpt><trkpt lat="41.4922683" lon="13.3068071"><ele>72.0</ele><time>2026-03-25T09:16:34.951Z</time></trkpt><trkpt lat="41.4924074" lon="13.3069246"><ele>72.66666666666667</ele><time>2026-03-25T09:16:35.966Z</time></trkpt><trkpt lat="41.4925683" lon="13.3070588"><ele>73.33333333333334</ele><time>2026-03-25T09:16:36.954Z</time></trkpt><trkpt lat="41.4926865" lon="13.3072256"><ele>74.0</ele><time>2026-03-25T09:16:37.958Z</time></trkpt><trkpt lat="41.492785" lon="13.3073425"><ele>74.0</ele><time>2026-03-25T09:16:38.954Z</time></trkpt><trkpt lat="41.4928744" lon="13.307456"><ele>74.0</ele><time>2026-03-25T09:16:39.957Z</time></trkpt><trkpt lat="41.4929643" lon="13.3075352"><ele>74.0</ele><time>2026-03-25T09:16:40.948Z</time></trkpt><trkpt lat="41.493042" lon="13.3076202"><ele>74.0</ele><time>2026-03-25T09:16:41.954Z</time></trkpt><trkpt lat="41.4931237" lon="13.3076421"><ele>74.0</ele><time>2026-03-25T09:16:42.95Z</time></trkpt><trkpt lat="41.4931939" lon="13.3076431"><ele>74.5</ele><time>2026-03-25T09:16:43.957Z</time></trkpt><trkpt lat="41.4932598" lon="13.3076295"><ele>75.0</ele><time>2026-03-25T09:16:44.958Z</time></trkpt><trkpt lat="41.4933312" lon="13.3076217"><ele>75.5</ele><time>2026-03-25T09:16:45.96Z</time></trkpt><trkpt lat="41.4934014" lon="13.3076432"><ele>76.0</ele><time>2026-03-25T09:16:46.961Z</time></trkpt><trkpt lat="41.4934729" lon="13.3077019"><ele>76.5</ele><time>2026-03-25T09:16:47.955Z</time></trkpt><trkpt lat="41.4935274" lon="13.3078018"><ele>77.0</ele><time>2026-03-25T09:16:48.959Z</time></trkpt><trkpt lat="41.4935752" lon="13.3079185"><ele>77.0</ele><time>2026-03-25T09:16:49.96Z</time></trkpt><trkpt lat="41.4936038" lon="13.3080669"><ele>77.0</ele><time>2026-03-25T09:16:50.962Z</time></trkpt><trkpt lat="41.4936289" lon="13.3081922"><ele>77.0</ele><time>2026-03-25T09:16:51.957Z</time></trkpt><trkpt lat="41.4936474" lon="13.3083122"><ele>77.0</ele><time>2026-03-25T09:16:52.953Z</time></trkpt><trkpt lat="41.4936274" lon="13.3084609"><ele>77.0</ele><time>2026-03-25T09:16:53.954Z</time></trkpt><trkpt lat="41.4936057" lon="13.3085714"><ele>76.2</ele><time>2026-03-25T09:16:54.954Z</time></trkpt><trkpt lat="41.493584" lon="13.3086962"><ele>75.4</ele><time>2026-03-25T09:16:55.955Z</time></trkpt><trkpt lat="41.4936093" lon="13.308821"><ele>74.6</ele><time>2026-03-25T09:16:56.951Z</time></trkpt><trkpt lat="41.4936299" lon="13.3089466"><ele>73.8</ele><time>2026-03-25T09:16:57.952Z</time></trkpt><trkpt lat="41.4936717" lon="13.3090777"><ele>73.0</ele><time>2026-03-25T09:16:58.948Z</time></trkpt><trkpt lat="41.4937324" lon="13.3092008"><ele>73.8</ele><time>2026-03-25T09:16:59.953Z</time></trkpt><trkpt lat="41.4937905" lon="13.3093251"><ele>74.6</ele><time>2026-03-25T09:17:00.957Z</time></trkpt><trkpt lat="41.4938514" lon="13.3094218"><ele>75.4</ele><time>2026-03-25T09:17:01.952Z</time></trkpt><trkpt lat="41.4939214" lon="13.3095008"><ele>76.2</ele><time>2026-03-25T09:17:02.951Z</time></trkpt><trkpt lat="41.4940053" lon="13.3096101"><ele>77.0</ele><time>2026-03-25T09:17:03.954Z</time></trkpt><trkpt lat="41.4940737" lon="13.3097306"><ele>76.75</ele><time>2026-03-25T09:17:04.961Z</time></trkpt><trkpt lat="41.494144" lon="13.3098518"><ele>76.5</ele><time>2026-03-25T09:17:05.954Z</time></trkpt><trkpt lat="41.4942202" lon="13.3099693"><ele>76.25</ele><time>2026-03-25T09:17:06.951Z</time></trkpt><trkpt lat="41.4943041" lon="13.3100751"><ele>76.0</ele><time>2026-03-25T09:17:07.969Z</time></trkpt><trkpt lat="41.4943866" lon="13.310168"><ele>76.0</ele><time>2026-03-25T09:17:08.959Z</time></trkpt><trkpt lat="41.4944853" lon="13.310241"><ele>76.0</ele><time>2026-03-25T09:17:09.959Z</time></trkpt><trkpt lat="41.4945818" lon="13.310303"><ele>76.0</ele><time>2026-03-25T09:17:10.961Z</time></trkpt><trkpt lat="41.494668" lon="13.3103845"><ele>76.0</ele><time>2026-03-25T09:17:11.965Z</time></trkpt><trkpt lat="41.4947439" lon="13.3104502"><ele>76.0</ele><time>2026-03-25T09:17:12.961Z</time></trkpt><trkpt lat="41.4948352" lon="13.3105264"><ele>75.8</ele><time>2026-03-25T09:17:13.97Z</time></trkpt><trkpt lat="41.4949347" lon="13.3105605"><ele>75.6</ele><time>2026-03-25T09:17:14.956Z</time></trkpt><trkpt lat="41.495043" lon="13.3105719"><ele>75.4</ele><time>2026-03-25T09:17:15.955Z</time></trkpt><trkpt lat="41.495146" lon="13.3105945"><ele>75.2</ele><time>2026-03-25T09:17:16.958Z</time></trkpt><trkpt lat="41.4952533" lon="13.3106159"><ele>75.0</ele><time>2026-03-25T09:17:17.958Z</time></trkpt><trkpt lat="41.495377" lon="13.3106631"><ele>75.6</ele><time>2026-03-25T09:17:18.95Z</time></trkpt><trkpt lat="41.4954888" lon="13.310711"><ele>76.2</ele><time>2026-03-25T09:17:19.961Z</time></trkpt><trkpt lat="41.4955878" lon="13.3107666"><ele>76.8</ele><time>2026-03-25T09:17:20.955Z</time></trkpt><trkpt lat="41.4956846" lon="13.3108141"><ele>77.4</ele><time>2026-03-25T09:17:21.948Z</time></trkpt><trkpt lat="41.4957881" lon="13.3108724"><ele>78.0</ele><time>2026-03-25T09:17:22.959Z</time></trkpt><trkpt lat="41.4958787" lon="13.3109678"><ele>78.0</ele><time>2026-03-25T09:17:23.961Z</time></trkpt><trkpt lat="41.4959661" lon="13.3110514"><ele>78.0</ele><time>2026-03-25T09:17:24.962Z</time></trkpt><trkpt lat="41.4960717" lon="13.3111257"><ele>78.0</ele><time>2026-03-25T09:17:25.953Z</time></trkpt><trkpt lat="41.4961904" lon="13.3111889"><ele>78.0</ele><time>2026-03-25T09:17:26.959Z</time></trkpt><trkpt lat="41.4963038" lon="13.3112661"><ele>78.2</ele><time>2026-03-25T09:17:27.959Z</time></trkpt><trkpt lat="41.4964115" lon="13.3113455"><ele>78.4</ele><time>2026-03-25T09:17:28.954Z</time></trkpt><trkpt lat="41.4965056" lon="13.3114232"><ele>78.60000000000001</ele><time>2026-03-25T09:17:29.958Z</time></trkpt><trkpt lat="41.4965971" lon="13.311503"><ele>78.8</ele><time>2026-03-25T09:17:30.951Z</time></trkpt><trkpt lat="41.4966814" lon="13.3115681"><ele>79.0</ele><time>2026-03-25T09:17:31.965Z</time></trkpt><trkpt lat="41.4967461" lon="13.3116128"><ele>79.33333333333333</ele><time>2026-03-25T09:17:32.954Z</time></trkpt><trkpt lat="41.4968043" lon="13.3116449"><ele>79.66666666666666</ele><time>2026-03-25T09:17:33.952Z</time></trkpt><trkpt lat="41.496896" lon="13.3116969"><ele>80.0</ele><time>2026-03-25T09:17:35.968Z</time></trkpt><trkpt lat="41.4969616" lon="13.3117636"><ele>80.33333333333333</ele><time>2026-03-25T09:19:45.956Z</time></trkpt><trkpt lat="41.4969999" lon="13.3118449"><ele>80.66666666666667</ele><time>2026-03-25T09:19:48.964Z</time></trkpt><trkpt lat="41.4969895" lon="13.3119689"><ele>81.0</ele><time>2026-03-25T09:19:50.961Z</time></trkpt><trkpt lat="41.4969719" lon="13.3120606"><ele>81.0</ele><time>2026-03-25T09:19:51.955Z</time></trkpt><trkpt lat="41.4969589" lon="13.31215"><ele>81.0</ele><time>2026-03-25T09:19:52.956Z</time></trkpt><trkpt lat="41.4969465" lon="13.3122391"><ele>81.0</ele><time>2026-03-25T09:19:53.96Z</time></trkpt><trkpt lat="41.4969433" lon="13.3123243"><ele>81.0</ele><time>2026-03-25T09:19:54.955Z</time></trkpt><trkpt lat="41.4969411" lon="13.3124576"><ele>81.0</ele><time>2026-03-25T09:19:56.951Z</time></trkpt><trkpt lat="41.496929" lon="13.3125638"><ele>81.0</ele><time>2026-03-25T09:19:58.96Z</time></trkpt><trkpt lat="41.496916" lon="13.3126696"><ele>81.16666666666667</ele><time>2026-03-25T09:20:00.961Z</time></trkpt><trkpt lat="41.4968979" lon="13.3127986"><ele>81.33333333333333</ele><time>2026-03-25T09:20:02.958Z</time></trkpt><trkpt lat="41.4968818" lon="13.3129622"><ele>81.5</ele><time>2026-03-25T09:20:04.949Z</time></trkpt><trkpt lat="41.496874" lon="13.3130485"><ele>81.66666666666666</ele><time>2026-03-25T09:20:05.956Z</time></trkpt><trkpt lat="41.4968758" lon="13.313144"><ele>81.83333333333333</ele><time>2026-03-25T09:20:06.949Z</time></trkpt><trkpt lat="41.4968882" lon="13.3132452"><ele>82.0</ele><time>2026-03-25T09:20:07.948Z</time></trkpt><trkpt lat="41.4969176" lon="13.3133343"><ele>82.0</ele><time>2026-03-25T09:20:08.946Z</time></trkpt><trkpt lat="41.4969599" lon="13.3134034"><ele>82.0</ele><time>2026-03-25T09:20:09.954Z</time></trkpt><trkpt lat="41.4970608" lon="13.3134837"><ele>82.0</ele><time>2026-03-25T09:20:11.963Z</time></trkpt><trkpt lat="41.4971557" lon="13.3135546"><ele>82.0</ele><time>2026-03-25T09:20:13.965Z</time></trkpt><trkpt lat="41.4972045" lon="13.313626"><ele>82.0</ele><time>2026-03-25T09:20:14.956Z</time></trkpt><trkpt lat="41.4972495" lon="13.3137089"><ele>82.0</ele><time>2026-03-25T09:20:15.945Z</time></trkpt><trkpt lat="41.4973015" lon="13.3138043"><ele>81.83333333333333</ele><time>2026-03-25T09:20:16.955Z</time></trkpt><trkpt lat="41.4973555" lon="13.3139043"><ele>81.66666666666666</ele><time>2026-03-25T09:20:17.946Z</time></trkpt><trkpt lat="41.4974107" lon="13.3140001"><ele>81.5</ele><time>2026-03-25T09:20:18.962Z</time></trkpt><trkpt lat="41.4974641" lon="13.3140944"><ele>81.33333333333333</ele><time>2026-03-25T09:20:19.954Z</time></trkpt><trkpt lat="41.4975196" lon="13.3141845"><ele>81.16666666666667</ele><time>2026-03-25T09:20:20.956Z</time></trkpt><trkpt lat="41.4975644" lon="13.3142727"><ele>81.0</ele><time>2026-03-25T09:20:21.949Z</time></trkpt><trkpt lat="41.4976059" lon="13.3143583"><ele>81.0</ele><time>2026-03-25T09:20:22.951Z</time></trkpt><trkpt lat="41.4975719" lon="13.3144572"><ele>81.0</ele><time>2026-03-25T09:20:23.955Z</time></trkpt><trkpt lat="41.4975444" lon="13.3145795"><ele>81.0</ele><time>2026-03-25T09:20:24.995Z</time></trkpt><trkpt lat="41.4975512" lon="13.3147128"><ele>81.0</ele><time>2026-03-25T09:20:25.972Z</time></trkpt><trkpt lat="41.4975585" lon="13.3148556"><ele>81.0</ele><time>2026-03-25T09:20:26.955Z</time></trkpt><trkpt lat="41.4975751" lon="13.3150099"><ele>80.5</ele><time>2026-03-25T09:20:27.957Z</time></trkpt><trkpt lat="41.4975937" lon="13.3151726"><ele>80.0</ele><time>2026-03-25T09:20:28.948Z</time></trkpt><trkpt lat="41.4976073" lon="13.3153303"><ele>79.5</ele><time>2026-03-25T09:20:29.952Z</time></trkpt><trkpt lat="41.4976193" lon="13.3154806"><ele>79.0</ele><time>2026-03-25T09:20:30.951Z</time></trkpt><trkpt lat="41.4976299" lon="13.3156266"><ele>80.0</ele><time>2026-03-25T09:20:31.951Z</time></trkpt><trkpt lat="41.497605" lon="13.3157521"><ele>81.0</ele><time>2026-03-25T09:20:32.947Z</time></trkpt><trkpt lat="41.497582" lon="13.3158792"><ele>82.0</ele><time>2026-03-25T09:20:33.95Z</time></trkpt><trkpt lat="41.4976031" lon="13.3160213"><ele>83.0</ele><time>2026-03-25T09:20:34.95Z</time></trkpt><trkpt lat="41.4976239" lon="13.3161589"><ele>84.0</ele><time>2026-03-25T09:20:35.951Z</time></trkpt><trkpt lat="41.4976342" lon="13.3162881"><ele>84.33333333333333</ele><time>2026-03-25T09:20:36.95Z</time></trkpt><trkpt lat="41.4976317" lon="13.3164055"><ele>84.66666666666667</ele><time>2026-03-25T09:20:37.965Z</time></trkpt><trkpt lat="41.4976112" lon="13.3165161"><ele>85.0</ele><time>2026-03-25T09:20:38.954Z</time></trkpt><trkpt lat="41.4975706" lon="13.31662"><ele>85.33333333333334</ele><time>2026-03-25T09:20:39.968Z</time></trkpt><trkpt lat="41.4975216" lon="13.3167215"><ele>85.66666666666667</ele><time>2026-03-25T09:20:40.955Z</time></trkpt><trkpt lat="41.497475" lon="13.3168303"><ele>86.0</ele><time>2026-03-25T09:20:41.95Z</time></trkpt><trkpt lat="41.4974208" lon="13.3169363"><ele>86.0</ele><time>2026-03-25T09:20:42.954Z</time></trkpt><trkpt lat="41.4973663" lon="13.317046"><ele>86.0</ele><time>2026-03-25T09:20:43.955Z</time></trkpt><trkpt lat="41.4973224" lon="13.3171709"><ele>86.0</ele><time>2026-03-25T09:20:44.949Z</time></trkpt><trkpt lat="41.4972903" lon="13.3173004"><ele>86.0</ele><time>2026-03-25T09:20:45.955Z</time></trkpt><trkpt lat="41.4972717" lon="13.3174366"><ele>86.0</ele><time>2026-03-25T09:20:46.954Z</time></trkpt><trkpt lat="41.4972563" lon="13.3175781"><ele>86.0</ele><time>2026-03-25T09:20:47.954Z</time></trkpt><trkpt lat="41.4972407" lon="13.3177246"><ele>86.0</ele><time>2026-03-25T09:20:48.954Z</time></trkpt><trkpt lat="41.4972267" lon="13.3178687"><ele>86.0</ele><time>2026-03-25T09:20:49.958Z</time></trkpt><trkpt lat="41.4972029" lon="13.3180124"><ele>86.0</ele><time>2026-03-25T09:20:50.949Z</time></trkpt><trkpt lat="41.4971727" lon="13.3181592"><ele>86.0</ele><time>2026-03-25T09:20:51.968Z</time></trkpt><trkpt lat="41.497144" lon="13.3183018"><ele>86.8</ele><time>2026-03-25T09:20:52.942Z</time></trkpt><trkpt lat="41.4971126" lon="13.3184335"><ele>87.6</ele><time>2026-03-25T09:20:53.963Z</time></trkpt><trkpt lat="41.4970576" lon="13.3185434"><ele>88.4</ele><time>2026-03-25T09:20:54.947Z</time></trkpt><trkpt lat="41.4969931" lon="13.3186315"><ele>89.2</ele><time>2026-03-25T09:20:55.953Z</time></trkpt><trkpt lat="41.4969261" lon="13.3187004"><ele>90.0</ele><time>2026-03-25T09:20:56.951Z</time></trkpt><trkpt lat="41.4968626" lon="13.3188193"><ele>91.2</ele><time>2026-03-25T09:20:57.952Z</time></trkpt><trkpt lat="41.4968019" lon="13.3189391"><ele>92.4</ele><time>2026-03-25T09:20:58.954Z</time></trkpt><trkpt lat="41.4967255" lon="13.3190527"><ele>93.6</ele><time>2026-03-25T09:20:59.956Z</time></trkpt><trkpt lat="41.4966552" lon="13.3191638"><ele>94.8</ele><time>2026-03-25T09:21:00.959Z</time></trkpt><trkpt lat="41.4965967" lon="13.3192828"><ele>96.0</ele><time>2026-03-25T09:21:01.953Z</time></trkpt><trkpt lat="41.4965326" lon="13.3193937"><ele>96.0</ele><time>2026-03-25T09:21:02.959Z</time></trkpt><trkpt lat="41.4964623" lon="13.3195048"><ele>96.0</ele><time>2026-03-25T09:21:03.953Z</time></trkpt><trkpt lat="41.4963968" lon="13.3196232"><ele>96.0</ele><time>2026-03-25T09:21:04.956Z</time></trkpt><trkpt lat="41.496331" lon="13.319743"><ele>96.0</ele><time>2026-03-25T09:21:05.952Z</time></trkpt><trkpt lat="41.4962672" lon="13.3198619"><ele>96.0</ele><time>2026-03-25T09:21:06.957Z</time></trkpt><trkpt lat="41.496208" lon="13.3199726"><ele>96.19999999999999</ele><time>2026-03-25T09:21:07.948Z</time></trkpt><trkpt lat="41.4961696" lon="13.3200793"><ele>96.39999999999999</ele><time>2026-03-25T09:21:08.954Z</time></trkpt><trkpt lat="41.4961307" lon="13.320198"><ele>96.6</ele><time>2026-03-25T09:21:09.957Z</time></trkpt><trkpt lat="41.4960916" lon="13.3203238"><ele>96.8</ele><time>2026-03-25T09:21:10.949Z</time></trkpt><trkpt lat="41.496051" lon="13.3204713"><ele>97.0</ele><time>2026-03-25T09:21:11.951Z</time></trkpt><trkpt lat="41.4960002" lon="13.3206253"><ele>98.0</ele><time>2026-03-25T09:21:12.952Z</time></trkpt><trkpt lat="41.4959423" lon="13.3207763"><ele>99.0</ele><time>2026-03-25T09:21:13.96Z</time></trkpt><trkpt lat="41.4958918" lon="13.3209192"><ele>100.0</ele><time>2026-03-25T09:21:14.946Z</time></trkpt><trkpt lat="41.4958412" lon="13.3210476"><ele>101.0</ele><time>2026-03-25T09:21:15.957Z</time></trkpt><trkpt lat="41.4957926" lon="13.3211725"><ele>101.0</ele><time>2026-03-25T09:21:16.952Z</time></trkpt><trkpt lat="41.4957597" lon="13.3212984"><ele>101.0</ele><time>2026-03-25T09:21:17.956Z</time></trkpt><trkpt lat="41.4957259" lon="13.3214287"><ele>101.0</ele><time>2026-03-25T09:21:18.954Z</time></trkpt><trkpt lat="41.4956938" lon="13.3215588"><ele>101.0</ele><time>2026-03-25T09:21:19.947Z</time></trkpt><trkpt lat="41.4956578" lon="13.3216856"><ele>101.0</ele><time>2026-03-25T09:21:20.954Z</time></trkpt><trkpt lat="41.4956236" lon="13.321811"><ele>101.5</ele><time>2026-03-25T09:21:21.953Z</time></trkpt><trkpt lat="41.495583" lon="13.3219356"><ele>102.0</ele><time>2026-03-25T09:21:22.946Z</time></trkpt><trkpt lat="41.4955307" lon="13.3220623"><ele>102.5</ele><time>2026-03-25T09:21:23.957Z</time></trkpt><trkpt lat="41.4954559" lon="13.3221788"><ele>103.0</ele><time>2026-03-25T09:21:24.951Z</time></trkpt><trkpt lat="41.4953648" lon="13.3223039"><ele>101.5</ele><time>2026-03-25T09:21:25.954Z</time></trkpt><trkpt lat="41.4952713" lon="13.3224318"><ele>100.0</ele><time>2026-03-25T09:21:26.964Z</time></trkpt><trkpt lat="41.4951764" lon="13.3225537"><ele>98.5</ele><time>2026-03-25T09:21:27.952Z</time></trkpt><trkpt lat="41.4950759" lon="13.3226684"><ele>97.0</ele><time>2026-03-25T09:21:28.959Z</time></trkpt><trkpt lat="41.4949688" lon="13.3227671"><ele>97.0</ele><time>2026-03-25T09:21:29.972Z</time></trkpt><trkpt lat="41.4948661" lon="13.3228488"><ele>97.0</ele><time>2026-03-25T09:21:30.957Z</time></trkpt><trkpt lat="41.4947665" lon="13.3229284"><ele>97.0</ele><time>2026-03-25T09:21:31.95Z</time></trkpt><trkpt lat="41.4946846" lon="13.3230055"><ele>97.0</ele><time>2026-03-25T09:21:32.959Z</time></trkpt><trkpt lat="41.4946185" lon="13.3231077"><ele>97.0</ele><time>2026-03-25T09:21:33.954Z</time></trkpt><trkpt lat="41.4945535" lon="13.3232121"><ele>98.00000000000001</ele><time>2026-03-25T09:21:34.954Z</time></trkpt><trkpt lat="41.4945102" lon="13.3233303"><ele>99.0</ele><time>2026-03-25T09:21:35.952Z</time></trkpt><trkpt lat="41.4944579" lon="13.323439"><ele>100.0</ele><time>2026-03-25T09:21:36.95Z</time></trkpt><trkpt lat="41.4943945" lon="13.3235315"><ele>101.0</ele><time>2026-03-25T09:21:37.946Z</time></trkpt><trkpt lat="41.4943429" lon="13.3236156"><ele>102.00000000000001</ele><time>2026-03-25T09:21:38.952Z</time></trkpt><trkpt lat="41.4942999" lon="13.3237018"><ele>103.0</ele><time>2026-03-25T09:21:39.945Z</time></trkpt><trkpt lat="41.4942716" lon="13.3237973"><ele>103.83333333333334</ele><time>2026-03-25T09:21:40.954Z</time></trkpt><trkpt lat="41.4942441" lon="13.3238985"><ele>104.66666666666667</ele><time>2026-03-25T09:21:41.955Z</time></trkpt><trkpt lat="41.494215" lon="13.3240041"><ele>105.5</ele><time>2026-03-25T09:21:42.955Z</time></trkpt><trkpt lat="41.4941838" lon="13.3241149"><ele>106.33333333333334</ele><time>2026-03-25T09:21:43.951Z</time></trkpt><trkpt lat="41.4941595" lon="13.3242361"><ele>107.16666666666667</ele><time>2026-03-25T09:21:44.957Z</time></trkpt><trkpt lat="41.4941356" lon="13.3243659"><ele>108.0</ele><time>2026-03-25T09:21:45.952Z</time></trkpt><trkpt lat="41.4941101" lon="13.3244937"><ele>108.0</ele><time>2026-03-25T09:21:46.951Z</time></trkpt><trkpt lat="41.4940823" lon="13.3246189"><ele>108.00000000000001</ele><time>2026-03-25T09:21:47.955Z</time></trkpt><trkpt lat="41.4940574" lon="13.3247417"><ele>108.00000000000001</ele><time>2026-03-25T09:21:48.956Z</time></trkpt><trkpt lat="41.4940349" lon="13.3248669"><ele>108.0</ele><time>2026-03-25T09:21:49.965Z</time></trkpt><trkpt lat="41.4940126" lon="13.3249948"><ele>108.0</ele><time>2026-03-25T09:21:50.955Z</time></trkpt><trkpt lat="41.4939941" lon="13.325128"><ele>108.0</ele><time>2026-03-25T09:21:51.957Z</time></trkpt><trkpt lat="41.4939828" lon="13.3252509"><ele>108.00000000000001</ele><time>2026-03-25T09:21:52.954Z</time></trkpt><trkpt lat="41.4939747" lon="13.3253681"><ele>108.00000000000001</ele><time>2026-03-25T09:21:53.959Z</time></trkpt><trkpt lat="41.4939743" lon="13.325486"><ele>108.0</ele><time>2026-03-25T09:21:54.952Z</time></trkpt><trkpt lat="41.4939708" lon="13.3256083"><ele>108.0</ele><time>2026-03-25T09:21:55.951Z</time></trkpt><trkpt lat="41.4939589" lon="13.3257349"><ele>108.0</ele><time>2026-03-25T09:21:56.955Z</time></trkpt><trkpt lat="41.4939408" lon="13.3258687"><ele>108.00000000000001</ele><time>2026-03-25T09:21:57.947Z</time></trkpt><trkpt lat="41.4939136" lon="13.3260051"><ele>108.00000000000001</ele><time>2026-03-25T09:21:58.957Z</time></trkpt><trkpt lat="41.4938917" lon="13.3261426"><ele>108.0</ele><time>2026-03-25T09:21:59.964Z</time></trkpt><trkpt lat="41.4938502" lon="13.3262623"><ele>108.0</ele><time>2026-03-25T09:22:00.951Z</time></trkpt><trkpt lat="41.493811" lon="13.3263734"><ele>107.66666666666667</ele><time>2026-03-25T09:22:01.949Z</time></trkpt><trkpt lat="41.4937761" lon="13.3264774"><ele>107.33333333333334</ele><time>2026-03-25T09:22:02.951Z</time></trkpt><trkpt lat="41.4937418" lon="13.3265876"><ele>107.0</ele><time>2026-03-25T09:22:03.955Z</time></trkpt><trkpt lat="41.4937068" lon="13.3267062"><ele>106.66666666666667</ele><time>2026-03-25T09:22:04.949Z</time></trkpt><trkpt lat="41.4936745" lon="13.3268182"><ele>106.33333333333334</ele><time>2026-03-25T09:22:05.946Z</time></trkpt><trkpt lat="41.4936449" lon="13.3269245"><ele>106.0</ele><time>2026-03-25T09:22:06.951Z</time></trkpt><trkpt lat="41.493615" lon="13.3270351"><ele>105.33333333333334</ele><time>2026-03-25T09:22:07.953Z</time></trkpt><trkpt lat="41.4935794" lon="13.3271412"><ele>104.66666666666667</ele><time>2026-03-25T09:22:08.947Z</time></trkpt><trkpt lat="41.4935395" lon="13.3272425"><ele>104.0</ele><time>2026-03-25T09:22:09.954Z</time></trkpt><trkpt lat="41.4935028" lon="13.3273326"><ele>103.33333333333334</ele><time>2026-03-25T09:22:10.951Z</time></trkpt><trkpt lat="41.4934742" lon="13.327413"><ele>102.66666666666667</ele><time>2026-03-25T09:22:11.955Z</time></trkpt><trkpt lat="41.4934068" lon="13.327558"><ele>102.0</ele><time>2026-03-25T09:22:13.95Z</time></trkpt><trkpt lat="41.4933643" lon="13.3276333"><ele>102.0</ele><time>2026-03-25T09:22:14.947Z</time></trkpt><trkpt lat="41.4933159" lon="13.3277148"><ele>102.0</ele><time>2026-03-25T09:22:15.953Z</time></trkpt><trkpt lat="41.4932636" lon="13.3278048"><ele>102.0</ele><time>2026-03-25T09:22:16.948Z</time></trkpt><trkpt lat="41.4932097" lon="13.3278965"><ele>102.0</ele><time>2026-03-25T09:22:17.952Z</time></trkpt><trkpt lat="41.4931588" lon="13.3279939"><ele>102.0</ele><time>2026-03-25T09:22:18.955Z</time></trkpt><trkpt lat="41.4931062" lon="13.3280845"><ele>102.0</ele><time>2026-03-25T09:22:19.965Z</time></trkpt><trkpt lat="41.49306" lon="13.3281662"><ele>102.16666666666667</ele><time>2026-03-25T09:22:20.953Z</time></trkpt><trkpt lat="41.493017" lon="13.3282394"><ele>102.33333333333334</ele><time>2026-03-25T09:22:21.951Z</time></trkpt><trkpt lat="41.4929443" lon="13.328374"><ele>102.5</ele><time>2026-03-25T09:22:23.96Z</time></trkpt><trkpt lat="41.4929078" lon="13.3284473"><ele>102.66666666666667</ele><time>2026-03-25T09:22:24.951Z</time></trkpt><trkpt lat="41.4928681" lon="13.3285325"><ele>102.83333333333334</ele><time>2026-03-25T09:22:25.951Z</time></trkpt><trkpt lat="41.4928258" lon="13.3286288"><ele>103.0</ele><time>2026-03-25T09:22:26.957Z</time></trkpt><trkpt lat="41.4927768" lon="13.3287345"><ele>102.80000000000001</ele><time>2026-03-25T09:22:27.957Z</time></trkpt><trkpt lat="41.4927223" lon="13.3288488"><ele>102.6</ele><time>2026-03-25T09:22:28.951Z</time></trkpt><trkpt lat="41.4926625" lon="13.328966"><ele>102.4</ele><time>2026-03-25T09:22:29.956Z</time></trkpt><trkpt lat="41.4925988" lon="13.3290784"><ele>102.19999999999999</ele><time>2026-03-25T09:22:30.952Z</time></trkpt><trkpt lat="41.4925412" lon="13.3291744"><ele>102.0</ele><time>2026-03-25T09:22:31.954Z</time></trkpt><trkpt lat="41.4924917" lon="13.3292497"><ele>102.0</ele><time>2026-03-25T09:22:32.95Z</time></trkpt><trkpt lat="41.4924119" lon="13.3293253"><ele>102.0</ele><time>2026-03-25T09:22:34.953Z</time></trkpt><trkpt lat="41.4923002" lon="13.3293153"><ele>102.0</ele><time>2026-03-25T09:22:36.952Z</time></trkpt><trkpt lat="41.4922266" lon="13.3293066"><ele>102.0</ele><time>2026-03-25T09:22:37.954Z</time></trkpt><trkpt lat="41.4921357" lon="13.3293065"><ele>102.0</ele><time>2026-03-25T09:22:38.948Z</time></trkpt><trkpt lat="41.4920351" lon="13.3293167"><ele>102.0</ele><time>2026-03-25T09:22:39.959Z</time></trkpt><trkpt lat="41.4919329" lon="13.3293299"><ele>102.0</ele><time>2026-03-25T09:22:40.946Z</time></trkpt><trkpt lat="41.4918316" lon="13.3293432"><ele>102.0</ele><time>2026-03-25T09:22:41.96Z</time></trkpt><trkpt lat="41.4917278" lon="13.3293683"><ele>102.0</ele><time>2026-03-25T09:22:42.948Z</time></trkpt><trkpt lat="41.4916172" lon="13.3294052"><ele>102.0</ele><time>2026-03-25T09:22:43.962Z</time></trkpt><trkpt lat="41.4914931" lon="13.3294624"><ele>102.0</ele><time>2026-03-25T09:22:44.956Z</time></trkpt><trkpt lat="41.4913691" lon="13.3295271"><ele>102.0</ele><time>2026-03-25T09:22:45.948Z</time></trkpt><trkpt lat="41.4912408" lon="13.3295931"><ele>102.0</ele><time>2026-03-25T09:22:46.955Z</time></trkpt><trkpt lat="41.4911024" lon="13.3296593"><ele>102.0</ele><time>2026-03-25T09:22:47.953Z</time></trkpt><trkpt lat="41.4909536" lon="13.3297214"><ele>103.0</ele><time>2026-03-25T09:22:48.95Z</time></trkpt><trkpt lat="41.4907992" lon="13.3297833"><ele>104.0</ele><time>2026-03-25T09:22:49.947Z</time></trkpt><trkpt lat="41.4906533" lon="13.3298418"><ele>105.0</ele><time>2026-03-25T09:22:50.959Z</time></trkpt><trkpt lat="41.4905234" lon="13.3298934"><ele>106.0</ele><time>2026-03-25T09:22:51.953Z</time></trkpt><trkpt lat="41.490399" lon="13.3299449"><ele>106.5</ele><time>2026-03-25T09:22:52.947Z</time></trkpt><trkpt lat="41.4902798" lon="13.3299913"><ele>107.0</ele><time>2026-03-25T09:22:53.952Z</time></trkpt><trkpt lat="41.4901728" lon="13.3300396"><ele>107.5</ele><time>2026-03-25T09:22:54.955Z</time></trkpt><trkpt lat="41.4900625" lon="13.3300804"><ele>108.0</ele><time>2026-03-25T09:22:55.957Z</time></trkpt><trkpt lat="41.489948" lon="13.3301137"><ele>108.0</ele><time>2026-03-25T09:22:56.951Z</time></trkpt><trkpt lat="41.4898355" lon="13.3301395"><ele>108.00000000000001</ele><time>2026-03-25T09:22:57.951Z</time></trkpt><trkpt lat="41.4897408" lon="13.3301564"><ele>108.00000000000001</ele><time>2026-03-25T09:22:58.949Z</time></trkpt><trkpt lat="41.489648" lon="13.3301789"><ele>108.0</ele><time>2026-03-25T09:22:59.955Z</time></trkpt><trkpt lat="41.4895666" lon="13.3301872"><ele>108.0</ele><time>2026-03-25T09:23:00.947Z</time></trkpt><trkpt lat="41.4894879" lon="13.3301991"><ele>108.0</ele><time>2026-03-25T09:23:01.953Z</time></trkpt><trkpt lat="41.489425" lon="13.3302208"><ele>108.0</ele><time>2026-03-25T09:23:02.947Z</time></trkpt><trkpt lat="41.4893205" lon="13.3302704"><ele>108.0</ele><time>2026-03-25T09:23:04.952Z</time></trkpt><trkpt lat="41.4892426" lon="13.3303214"><ele>108.0</ele><time>2026-03-25T09:23:06.958Z</time></trkpt><trkpt lat="41.4891779" lon="13.3303849"><ele>108.0</ele><time>2026-03-25T09:23:08.953Z</time></trkpt><trkpt lat="41.489115" lon="13.3304616"><ele>108.0</ele><time>2026-03-25T09:23:10.953Z</time></trkpt><trkpt lat="41.4890958" lon="13.3305624"><ele>108.60000000000001</ele><time>2026-03-25T09:23:12.955Z</time></trkpt><trkpt lat="41.4891183" lon="13.3306964"><ele>109.20000000000002</ele><time>2026-03-25T09:23:14.953Z</time></trkpt><trkpt lat="41.4891534" lon="13.3308337"><ele>109.8</ele><time>2026-03-25T09:23:16.95Z</time></trkpt><trkpt lat="41.4891722" lon="13.3309407"><ele>110.4</ele><time>2026-03-25T09:23:18.95Z</time></trkpt><trkpt lat="41.4891607" lon="13.3308519"><ele>111.0</ele><time>2026-03-25T09:23:30.947Z</time></trkpt><trkpt lat="41.4891155" lon="13.3307485"><ele>111.0</ele><time>2026-03-25T09:23:32.951Z</time></trkpt><trkpt lat="41.4890898" lon="13.3306362"><ele>111.0</ele><time>2026-03-25T09:23:34.957Z</time></trkpt><trkpt lat="41.4889941" lon="13.3305357"><ele>111.0</ele><time>2026-03-25T09:23:46.966Z</time></trkpt><trkpt lat="41.4889433" lon="13.3305949"><ele>111.0</ele><time>2026-03-25T09:23:48.951Z</time></trkpt><trkpt lat="41.4888811" lon="13.3306737"><ele>111.0</ele><time>2026-03-25T09:23:51.95Z</time></trkpt><trkpt lat="41.4888247" lon="13.330749"><ele>111.0</ele><time>2026-03-25T09:23:53.952Z</time></trkpt><trkpt lat="41.4887776" lon="13.3308544"><ele>110.4</ele><time>2026-03-25T09:23:56.954Z</time></trkpt><trkpt lat="41.4887249" lon="13.3309455"><ele>109.8</ele><time>2026-03-25T09:23:59.949Z</time></trkpt><trkpt lat="41.4886614" lon="13.3310303"><ele>109.20000000000002</ele><time>2026-03-25T09:24:01.949Z</time></trkpt><trkpt lat="41.4885959" lon="13.3311036"><ele>108.60000000000001</ele><time>2026-03-25T09:24:03.956Z</time></trkpt><trkpt lat="41.4885077" lon="13.3311665"><ele>108.0</ele><time>2026-03-25T09:24:05.95Z</time></trkpt><trkpt lat="41.4884051" lon="13.3312442"><ele>108.0</ele><time>2026-03-25T09:24:07.954Z</time></trkpt><trkpt lat="41.4882949" lon="13.3311956"><ele>108.0</ele><time>2026-03-25T09:24:23.955Z</time></trkpt><trkpt lat="41.4882458" lon="13.3311391"><ele>108.0</ele><time>2026-03-25T09:24:27.951Z</time></trkpt><trkpt lat="41.4881792" lon="13.3310651"><ele>108.0</ele><time>2026-03-25T09:24:29.954Z</time></trkpt><trkpt lat="41.4881323" lon="13.331006"><ele>108.0</ele><time>2026-03-25T09:24:31.953Z</time></trkpt><trkpt lat="41.4881005" lon="13.330931"><ele>108.0</ele><time>2026-03-25T09:24:33.954Z</time></trkpt><trkpt lat="41.4880767" lon="13.3308359"><ele>108.0</ele><time>2026-03-25T09:24:35.956Z</time></trkpt><trkpt lat="41.4880495" lon="13.3307524"><ele>108.0</ele><time>2026-03-25T09:24:37.945Z</time></trkpt><trkpt lat="41.4880081" lon="13.3306704"><ele>108.0</ele><time>2026-03-25T09:24:39.957Z</time></trkpt><trkpt lat="41.4879112" lon="13.3305647"><ele>108.0</ele><time>2026-03-25T09:24:43.954Z</time></trkpt><trkpt lat="41.4878803" lon="13.3304546"><ele>108.0</ele><time>2026-03-25T09:24:46.961Z</time></trkpt><trkpt lat="41.4878491" lon="13.3303418"><ele>108.0</ele><time>2026-03-25T09:24:48.954Z</time></trkpt><trkpt lat="41.4878405" lon="13.3301445"><ele>108.0</ele><time>2026-03-25T09:24:50.951Z</time></trkpt><trkpt lat="41.4878329" lon="13.3300529"><ele>108.0</ele><time>2026-03-25T09:24:51.951Z</time></trkpt><trkpt lat="41.4878088" lon="13.3299732"><ele>108.0</ele><time>2026-03-25T09:24:52.955Z</time></trkpt><trkpt lat="41.4877701" lon="13.329893"><ele>108.0</ele><time>2026-03-25T09:24:53.957Z</time></trkpt><trkpt lat="41.4877393" lon="13.3298015"><ele>108.0</ele><time>2026-03-25T09:24:54.955Z</time></trkpt><trkpt lat="41.4877224" lon="13.3296851"><ele>108.0</ele><time>2026-03-25T09:24:55.951Z</time></trkpt><trkpt lat="41.487711" lon="13.3295718"><ele>108.14285714285714</ele><time>2026-03-25T09:24:56.947Z</time></trkpt><trkpt lat="41.4877039" lon="13.3294629"><ele>108.28571428571428</ele><time>2026-03-25T09:24:57.947Z</time></trkpt><trkpt lat="41.4877115" lon="13.32937"><ele>108.42857142857143</ele><time>2026-03-25T09:24:58.952Z</time></trkpt><trkpt lat="41.4877101" lon="13.3292783"><ele>108.57142857142857</ele><time>2026-03-25T09:24:59.947Z</time></trkpt><trkpt lat="41.4877066" lon="13.329188"><ele>108.71428571428572</ele><time>2026-03-25T09:25:00.953Z</time></trkpt><trkpt lat="41.4877115" lon="13.3290923"><ele>108.85714285714286</ele><time>2026-03-25T09:25:01.955Z</time></trkpt><trkpt lat="41.4877167" lon="13.3289932"><ele>109.0</ele><time>2026-03-25T09:25:02.951Z</time></trkpt><trkpt lat="41.4877056" lon="13.328904"><ele>108.50000000000001</ele><time>2026-03-25T09:25:03.96Z</time></trkpt><trkpt lat="41.4876853" lon="13.328824"><ele>108.0</ele><time>2026-03-25T09:25:04.947Z</time></trkpt><trkpt lat="41.4876397" lon="13.3287186"><ele>107.5</ele><time>2026-03-25T09:25:06.956Z</time></trkpt><trkpt lat="41.4875984" lon="13.3286384"><ele>107.0</ele><time>2026-03-25T09:25:08.976Z</time></trkpt><trkpt lat="41.4875543" lon="13.3285735"><ele>106.50000000000001</ele><time>2026-03-25T09:25:10.955Z</time></trkpt><trkpt lat="41.4875183" lon="13.3285001"><ele>106.0</ele><time>2026-03-25T09:25:13.955Z</time></trkpt><trkpt lat="41.4875899" lon="13.3285797"><ele>106.0</ele><time>2026-03-25T09:28:10.963Z</time></trkpt><trkpt lat="41.4876362" lon="13.3286614"><ele>106.0</ele><time>2026-03-25T09:28:19.96Z</time></trkpt><trkpt lat="41.487666" lon="13.328786"><ele>106.0</ele><time>2026-03-25T09:28:21.956Z</time></trkpt><trkpt lat="41.4877139" lon="13.3289223"><ele>106.0</ele><time>2026-03-25T09:28:23.951Z</time></trkpt><trkpt lat="41.4877406" lon="13.3290856"><ele>106.0</ele><time>2026-03-25T09:28:25.949Z</time></trkpt><trkpt lat="41.4877458" lon="13.3291728"><ele>106.4</ele><time>2026-03-25T09:28:26.962Z</time></trkpt><trkpt lat="41.4877395" lon="13.3293415"><ele>106.8</ele><time>2026-03-25T09:28:28.953Z</time></trkpt><trkpt lat="41.4877372" lon="13.3294352"><ele>107.20000000000002</ele><time>2026-03-25T09:28:29.954Z</time></trkpt><trkpt lat="41.4877328" lon="13.3295243"><ele>107.60000000000001</ele><time>2026-03-25T09:28:30.962Z</time></trkpt><trkpt lat="41.487746" lon="13.3296629"><ele>108.0</ele><time>2026-03-25T09:28:32.969Z</time></trkpt><trkpt lat="41.4877746" lon="13.329812"><ele>108.0</ele><time>2026-03-25T09:28:34.959Z</time></trkpt><trkpt lat="41.4878136" lon="13.3299301"><ele>108.00000000000001</ele><time>2026-03-25T09:28:36.957Z</time></trkpt><trkpt lat="41.4878659" lon="13.3300359"><ele>108.00000000000001</ele><time>2026-03-25T09:28:38.96Z</time></trkpt><trkpt lat="41.4878975" lon="13.3301661"><ele>108.0</ele><time>2026-03-25T09:28:40.959Z</time></trkpt><trkpt lat="41.4879075" lon="13.330255"><ele>108.0</ele><time>2026-03-25T09:28:41.951Z</time></trkpt><trkpt lat="41.4879422" lon="13.3303851"><ele>108.0</ele><time>2026-03-25T09:28:43.962Z</time></trkpt><trkpt lat="41.4879426" lon="13.3304816"><ele>108.0</ele><time>2026-03-25T09:29:02.96Z</time></trkpt><trkpt lat="41.4879182" lon="13.3305616"><ele>108.0</ele><time>2026-03-25T09:29:04.962Z</time></trkpt><trkpt lat="41.4878552" lon="13.3304862"><ele>108.0</ele><time>2026-03-25T09:29:20.965Z</time></trkpt><trkpt lat="41.4877916" lon="13.330435"><ele>108.0</ele><time>2026-03-25T09:29:22.964Z</time></trkpt><trkpt lat="41.4876842" lon="13.33038"><ele>108.0</ele><time>2026-03-25T09:29:24.947Z</time></trkpt><trkpt lat="41.4875887" lon="13.3303405"><ele>108.0</ele><time>2026-03-25T09:29:26.956Z</time></trkpt><trkpt lat="41.4874961" lon="13.330295"><ele>108.00000000000001</ele><time>2026-03-25T09:29:28.95Z</time></trkpt><trkpt lat="41.4874042" lon="13.330234"><ele>108.00000000000001</ele><time>2026-03-25T09:29:30.951Z</time></trkpt><trkpt lat="41.4873239" lon="13.3301519"><ele>108.0</ele><time>2026-03-25T09:29:32.966Z</time></trkpt><trkpt lat="41.4872781" lon="13.3300364"><ele>108.0</ele><time>2026-03-25T09:29:35.965Z</time></trkpt><trkpt lat="41.4872674" lon="13.3298844"><ele>108.0</ele><time>2026-03-25T09:29:54.955Z</time></trkpt><trkpt lat="41.487279" lon="13.3297909"><ele>108.0</ele><time>2026-03-25T09:30:00.965Z</time></trkpt><trkpt lat="41.4872796" lon="13.3296814"><ele>108.0</ele><time>2026-03-25T09:30:06.954Z</time></trkpt><trkpt lat="41.4872978" lon="13.3295755"><ele>108.0</ele><time>2026-03-25T09:30:15.961Z</time></trkpt><trkpt lat="41.4873281" lon="13.3294653"><ele>108.0</ele><time>2026-03-25T09:30:18.966Z</time></trkpt><trkpt lat="41.4873576" lon="13.3293669"><ele>108.0</ele><time>2026-03-25T09:30:20.958Z</time></trkpt><trkpt lat="41.4873885" lon="13.3292482"><ele>108.2</ele><time>2026-03-25T09:30:22.96Z</time></trkpt><trkpt lat="41.4874226" lon="13.3291123"><ele>108.4</ele><time>2026-03-25T09:30:24.954Z</time></trkpt><trkpt lat="41.4874509" lon="13.328974"><ele>108.60000000000001</ele><time>2026-03-25T09:30:26.955Z</time></trkpt><trkpt lat="41.487493" lon="13.3288107"><ele>108.80000000000001</ele><time>2026-03-25T09:30:28.958Z</time></trkpt><trkpt lat="41.4875216" lon="13.3287248"><ele>109.0</ele><time>2026-03-25T09:30:29.951Z</time></trkpt><trkpt lat="41.4875564" lon="13.3286131"><ele>108.50000000000001</ele><time>2026-03-25T09:30:31.962Z</time></trkpt><trkpt lat="41.4875482" lon="13.3285239"><ele>108.0</ele><time>2026-03-25T09:31:18.957Z</time></trkpt><trkpt lat="41.4875297" lon="13.3284117"><ele>107.5</ele><time>2026-03-25T09:31:20.956Z</time></trkpt><trkpt lat="41.4875446" lon="13.3282861"><ele>107.0</ele><time>2026-03-25T09:31:22.958Z</time></trkpt><trkpt lat="41.4875601" lon="13.3281736"><ele>106.50000000000001</ele><time>2026-03-25T09:31:24.96Z</time></trkpt><trkpt lat="41.4875314" lon="13.3280594"><ele>106.0</ele><time>2026-03-25T09:31:26.985Z</time></trkpt><trkpt lat="41.4874676" lon="13.3279453"><ele>105.4</ele><time>2026-03-25T09:31:28.953Z</time></trkpt><trkpt lat="41.4874353" lon="13.3277895"><ele>104.8</ele><time>2026-03-25T09:31:30.957Z</time></trkpt><trkpt lat="41.4874278" lon="13.3276943"><ele>104.2</ele><time>2026-03-25T09:31:31.949Z</time></trkpt><trkpt lat="41.4874195" lon="13.3275876"><ele>103.60000000000001</ele><time>2026-03-25T09:31:32.959Z</time></trkpt><trkpt lat="41.4874152" lon="13.3274919"><ele>103.0</ele><time>2026-03-25T09:31:33.951Z</time></trkpt><trkpt lat="41.4874003" lon="13.3273487"><ele>103.00000000000001</ele><time>2026-03-25T09:31:35.947Z</time></trkpt><trkpt lat="41.4873262" lon="13.3272502"><ele>103.0</ele><time>2026-03-25T09:31:37.957Z</time></trkpt><trkpt lat="41.4872825" lon="13.3271892"><ele>103.0</ele><time>2026-03-25T09:31:38.957Z</time></trkpt><trkpt lat="41.4872123" lon="13.3270771"><ele>103.0</ele><time>2026-03-25T09:31:40.96Z</time></trkpt><trkpt lat="41.4871621" lon="13.3269959"><ele>103.00000000000001</ele><time>2026-03-25T09:31:42.959Z</time></trkpt><trkpt lat="41.4871148" lon="13.326911"><ele>103.0</ele><time>2026-03-25T09:31:44.956Z</time></trkpt><trkpt lat="41.4870652" lon="13.3268246"><ele>101.66666666666667</ele><time>2026-03-25T09:31:46.962Z</time></trkpt><trkpt lat="41.4870085" lon="13.3267466"><ele>100.33333333333334</ele><time>2026-03-25T09:31:48.955Z</time></trkpt><trkpt lat="41.4869408" lon="13.3266463"><ele>99.0</ele><time>2026-03-25T09:31:50.953Z</time></trkpt><trkpt lat="41.4868719" lon="13.3265151"><ele>97.66666666666667</ele><time>2026-03-25T09:31:52.957Z</time></trkpt><trkpt lat="41.4868305" lon="13.3264386"><ele>96.33333333333334</ele><time>2026-03-25T09:31:53.95Z</time></trkpt><trkpt lat="41.4867881" lon="13.3263641"><ele>95.0</ele><time>2026-03-25T09:31:54.949Z</time></trkpt><trkpt lat="41.4867307" lon="13.3262555"><ele>94.66666666666667</ele><time>2026-03-25T09:31:56.959Z</time></trkpt><trkpt lat="41.4866909" lon="13.3261522"><ele>94.33333333333334</ele><time>2026-03-25T09:31:58.972Z</time></trkpt><trkpt lat="41.4866737" lon="13.3260648"><ele>94.0</ele><time>2026-03-25T09:31:59.96Z</time></trkpt><trkpt lat="41.4866898" lon="13.3259294"><ele>93.66666666666667</ele><time>2026-03-25T09:32:01.961Z</time></trkpt><trkpt lat="41.4867156" lon="13.3258394"><ele>93.33333333333333</ele><time>2026-03-25T09:32:02.956Z</time></trkpt><trkpt lat="41.4867598" lon="13.3257174"><ele>93.0</ele><time>2026-03-25T09:32:03.956Z</time></trkpt><trkpt lat="41.4868042" lon="13.3255825"><ele>92.75</ele><time>2026-03-25T09:32:04.95Z</time></trkpt><trkpt lat="41.4868401" lon="13.325448"><ele>92.5</ele><time>2026-03-25T09:32:05.966Z</time></trkpt><trkpt lat="41.4868797" lon="13.3252991"><ele>92.25</ele><time>2026-03-25T09:32:06.959Z</time></trkpt><trkpt lat="41.4869158" lon="13.3251492"><ele>92.0</ele><time>2026-03-25T09:32:07.956Z</time></trkpt><trkpt lat="41.4869513" lon="13.3250067"><ele>92.0</ele><time>2026-03-25T09:32:08.952Z</time></trkpt><trkpt lat="41.4869814" lon="13.32487"><ele>92.0</ele><time>2026-03-25T09:32:09.951Z</time></trkpt><trkpt lat="41.4870097" lon="13.3247469"><ele>92.0</ele><time>2026-03-25T09:32:10.953Z</time></trkpt><trkpt lat="41.4870425" lon="13.3246314"><ele>92.0</ele><time>2026-03-25T09:32:11.962Z</time></trkpt><trkpt lat="41.4870933" lon="13.3245074"><ele>92.0</ele><time>2026-03-25T09:32:12.957Z</time></trkpt><trkpt lat="41.4871528" lon="13.3243929"><ele>91.6</ele><time>2026-03-25T09:32:13.96Z</time></trkpt><trkpt lat="41.4872214" lon="13.3242545"><ele>91.19999999999999</ele><time>2026-03-25T09:32:14.96Z</time></trkpt><trkpt lat="41.4872796" lon="13.3241362"><ele>90.8</ele><time>2026-03-25T09:32:15.955Z</time></trkpt><trkpt lat="41.4873322" lon="13.3240335"><ele>90.4</ele><time>2026-03-25T09:32:16.95Z</time></trkpt><trkpt lat="41.4873791" lon="13.3239463"><ele>90.0</ele><time>2026-03-25T09:32:17.961Z</time></trkpt><trkpt lat="41.4874264" lon="13.3238679"><ele>89.66666666666667</ele><time>2026-03-25T09:32:18.959Z</time></trkpt><trkpt lat="41.4874786" lon="13.323798"><ele>89.33333333333333</ele><time>2026-03-25T09:32:19.965Z</time></trkpt><trkpt lat="41.4875467" lon="13.3237199"><ele>89.0</ele><time>2026-03-25T09:32:20.959Z</time></trkpt><trkpt lat="41.4876104" lon="13.3236579"><ele>88.66666666666666</ele><time>2026-03-25T09:32:21.954Z</time></trkpt><trkpt lat="41.4876671" lon="13.3236136"><ele>88.33333333333333</ele><time>2026-03-25T09:32:22.959Z</time></trkpt><trkpt lat="41.4877958" lon="13.3235977"><ele>88.0</ele><time>2026-03-25T09:32:24.952Z</time></trkpt><trkpt lat="41.4878683" lon="13.3236086"><ele>88.60000000000001</ele><time>2026-03-25T09:32:25.956Z</time></trkpt><trkpt lat="41.4879305" lon="13.323635"><ele>89.2</ele><time>2026-03-25T09:32:26.957Z</time></trkpt><trkpt lat="41.488029" lon="13.3237014"><ele>89.8</ele><time>2026-03-25T09:32:28.959Z</time></trkpt><trkpt lat="41.4881165" lon="13.3236789"><ele>90.4</ele><time>2026-03-25T09:32:30.974Z</time></trkpt><trkpt lat="41.4881499" lon="13.3235332"><ele>91.0</ele><time>2026-03-25T09:32:32.951Z</time></trkpt><trkpt lat="41.4881343" lon="13.3234389"><ele>91.0</ele><time>2026-03-25T09:32:33.949Z</time></trkpt><trkpt lat="41.4881116" lon="13.3233191"><ele>91.0</ele><time>2026-03-25T09:32:34.955Z</time></trkpt><trkpt lat="41.488079" lon="13.3232085"><ele>91.0</ele><time>2026-03-25T09:32:35.967Z</time></trkpt><trkpt lat="41.4880345" lon="13.3231014"><ele>91.0</ele><time>2026-03-25T09:32:36.956Z</time></trkpt><trkpt lat="41.4879871" lon="13.3229833"><ele>91.0</ele><time>2026-03-25T09:32:37.957Z</time></trkpt><trkpt lat="41.4879341" lon="13.3228461"><ele>90.25</ele><time>2026-03-25T09:32:38.956Z</time></trkpt><trkpt lat="41.487881" lon="13.3227065"><ele>89.5</ele><time>2026-03-25T09:32:39.961Z</time></trkpt><trkpt lat="41.4878302" lon="13.3225656"><ele>88.75</ele><time>2026-03-25T09:32:40.948Z</time></trkpt><trkpt lat="41.4877856" lon="13.3224221"><ele>88.0</ele><time>2026-03-25T09:32:41.949Z</time></trkpt><trkpt lat="41.487749" lon="13.3222827"><ele>88.2</ele><time>2026-03-25T09:32:42.947Z</time></trkpt><trkpt lat="41.4877281" lon="13.3221532"><ele>88.4</ele><time>2026-03-25T09:32:43.955Z</time></trkpt><trkpt lat="41.487733" lon="13.3219993"><ele>88.60000000000001</ele><time>2026-03-25T09:32:44.959Z</time></trkpt><trkpt lat="41.4877285" lon="13.3218502"><ele>88.80000000000001</ele><time>2026-03-25T09:32:45.964Z</time></trkpt><trkpt lat="41.4877354" lon="13.3216893"><ele>89.0</ele><time>2026-03-25T09:32:46.96Z</time></trkpt><trkpt lat="41.4877335" lon="13.3215236"><ele>89.25</ele><time>2026-03-25T09:32:47.953Z</time></trkpt><trkpt lat="41.4877203" lon="13.3213606"><ele>89.5</ele><time>2026-03-25T09:32:48.953Z</time></trkpt><trkpt lat="41.4876997" lon="13.3211722"><ele>89.75</ele><time>2026-03-25T09:32:49.953Z</time></trkpt><trkpt lat="41.4876841" lon="13.3209745"><ele>90.0</ele><time>2026-03-25T09:32:50.951Z</time></trkpt><trkpt lat="41.4876714" lon="13.3207628"><ele>90.0</ele><time>2026-03-25T09:32:51.959Z</time></trkpt><trkpt lat="41.4876558" lon="13.3205765"><ele>90.0</ele><time>2026-03-25T09:32:52.953Z</time></trkpt><trkpt lat="41.4876326" lon="13.3203756"><ele>90.0</ele><time>2026-03-25T09:32:53.962Z</time></trkpt><trkpt lat="41.487624" lon="13.3201662"><ele>89.5</ele><time>2026-03-25T09:32:54.953Z</time></trkpt><trkpt lat="41.4876232" lon="13.3199733"><ele>89.0</ele><time>2026-03-25T09:32:55.964Z</time></trkpt><trkpt lat="41.4876228" lon="13.3197897"><ele>88.5</ele><time>2026-03-25T09:32:56.957Z</time></trkpt><trkpt lat="41.4876174" lon="13.319609"><ele>88.0</ele><time>2026-03-25T09:32:57.95Z</time></trkpt><trkpt lat="41.4876077" lon="13.3194501"><ele>87.2</ele><time>2026-03-25T09:32:58.957Z</time></trkpt><trkpt lat="41.4875981" lon="13.3193173"><ele>86.4</ele><time>2026-03-25T09:32:59.951Z</time></trkpt><trkpt lat="41.4875868" lon="13.3191929"><ele>85.60000000000001</ele><time>2026-03-25T09:33:00.954Z</time></trkpt><trkpt lat="41.4875735" lon="13.3191033"><ele>84.80000000000001</ele><time>2026-03-25T09:33:01.951Z</time></trkpt><trkpt lat="41.4875061" lon="13.3189572"><ele>84.0</ele><time>2026-03-25T09:33:03.95Z</time></trkpt><trkpt lat="41.4874376" lon="13.3188416"><ele>84.0</ele><time>2026-03-25T09:33:05.952Z</time></trkpt><trkpt lat="41.4874016" lon="13.3187171"><ele>84.0</ele><time>2026-03-25T09:33:07.953Z</time></trkpt><trkpt lat="41.4873757" lon="13.3185485"><ele>84.0</ele><time>2026-03-25T09:33:09.958Z</time></trkpt><trkpt lat="41.4873562" lon="13.3184652"><ele>84.0</ele><time>2026-03-25T09:33:10.956Z</time></trkpt><trkpt lat="41.4873325" lon="13.3183838"><ele>84.0</ele><time>2026-03-25T09:33:11.951Z</time></trkpt><trkpt lat="41.4872967" lon="13.3182302"><ele>84.0</ele><time>2026-03-25T09:33:13.953Z</time></trkpt><trkpt lat="41.4872954" lon="13.3181415"><ele>84.0</ele><time>2026-03-25T09:33:14.958Z</time></trkpt><trkpt lat="41.4873006" lon="13.3179945"><ele>84.0</ele><time>2026-03-25T09:33:16.955Z</time></trkpt><trkpt lat="41.4872359" lon="13.3178816"><ele>84.0</ele><time>2026-03-25T09:33:18.959Z</time></trkpt><trkpt lat="41.487153" lon="13.3178596"><ele>84.0</ele><time>2026-03-25T09:33:20.96Z</time></trkpt><trkpt lat="41.4870517" lon="13.3178775"><ele>83.80000000000001</ele><time>2026-03-25T09:33:22.954Z</time></trkpt><trkpt lat="41.4869347" lon="13.3179421"><ele>83.60000000000001</ele><time>2026-03-25T09:33:24.955Z</time></trkpt><trkpt lat="41.4868842" lon="13.3180094"><ele>83.4</ele><time>2026-03-25T09:33:25.947Z</time></trkpt><trkpt lat="41.4868427" lon="13.318099"><ele>83.2</ele><time>2026-03-25T09:33:26.964Z</time></trkpt><trkpt lat="41.4868011" lon="13.3182024"><ele>83.0</ele><time>2026-03-25T09:33:27.955Z</time></trkpt><trkpt lat="41.4867599" lon="13.3183078"><ele>83.0</ele><time>2026-03-25T09:33:28.966Z</time></trkpt><trkpt lat="41.4867244" lon="13.3183849"><ele>83.0</ele><time>2026-03-25T09:33:29.952Z</time></trkpt><trkpt lat="41.4866588" lon="13.3184643"><ele>83.0</ele><time>2026-03-25T09:33:31.951Z</time></trkpt><trkpt lat="41.4865948" lon="13.318536"><ele>83.0</ele><time>2026-03-25T09:33:33.971Z</time></trkpt><trkpt lat="41.4865648" lon="13.3186204"><ele>83.0</ele><time>2026-03-25T09:33:35.954Z</time></trkpt><trkpt lat="41.4866086" lon="13.3186857"><ele>83.0</ele><time>2026-03-25T09:33:38.95Z</time></trkpt><trkpt lat="41.4866495" lon="13.318813"><ele>83.60000000000001</ele><time>2026-03-25T09:33:40.954Z</time></trkpt><trkpt lat="41.4866649" lon="13.3189635"><ele>84.2</ele><time>2026-03-25T09:33:42.953Z</time></trkpt><trkpt lat="41.4867194" lon="13.3190761"><ele>84.8</ele><time>2026-03-25T09:33:44.959Z</time></trkpt><trkpt lat="41.4867341" lon="13.3192424"><ele>85.4</ele><time>2026-03-25T09:33:46.957Z</time></trkpt><trkpt lat="41.4867421" lon="13.3193429"><ele>86.0</ele><time>2026-03-25T09:33:47.954Z</time></trkpt><trkpt lat="41.4867508" lon="13.3194608"><ele>86.0</ele><time>2026-03-25T09:33:48.951Z</time></trkpt><trkpt lat="41.4867557" lon="13.3195707"><ele>86.0</ele><time>2026-03-25T09:33:49.955Z</time></trkpt><trkpt lat="41.4867436" lon="13.3196709"><ele>86.0</ele><time>2026-03-25T09:33:50.958Z</time></trkpt><trkpt lat="41.486711" lon="13.3197997"><ele>86.0</ele><time>2026-03-25T09:33:52.958Z</time></trkpt><trkpt lat="41.486724" lon="13.3199311"><ele>86.0</ele><time>2026-03-25T09:33:54.957Z</time></trkpt><trkpt lat="41.4867007" lon="13.3200099"><ele>86.0</ele><time>2026-03-25T09:33:55.96Z</time></trkpt><trkpt lat="41.4866954" lon="13.3201019"><ele>87.0</ele><time>2026-03-25T09:33:56.956Z</time></trkpt><trkpt lat="41.4867051" lon="13.320196"><ele>88.0</ele><time>2026-03-25T09:33:57.95Z</time></trkpt><trkpt lat="41.4867113" lon="13.3202838"><ele>89.0</ele><time>2026-03-25T09:33:58.959Z</time></trkpt><trkpt lat="41.4866971" lon="13.3203723"><ele>90.0</ele><time>2026-03-25T09:33:59.953Z</time></trkpt><trkpt lat="41.4866938" lon="13.3204846"><ele>91.0</ele><time>2026-03-25T09:34:00.967Z</time></trkpt><trkpt lat="41.4866959" lon="13.3206204"><ele>92.0</ele><time>2026-03-25T09:34:01.959Z</time></trkpt><trkpt lat="41.4866836" lon="13.3207548"><ele>93.0</ele><time>2026-03-25T09:34:02.959Z</time></trkpt><trkpt lat="41.4866653" lon="13.3208733"><ele>94.0</ele><time>2026-03-25T09:34:03.95Z</time></trkpt><trkpt lat="41.4866295" lon="13.3209917"><ele>95.0</ele><time>2026-03-25T09:34:05.955Z</time></trkpt><trkpt lat="41.4865342" lon="13.3210781"><ele>96.0</ele><time>2026-03-25T09:34:07.962Z</time></trkpt><trkpt lat="41.4864577" lon="13.3211984"><ele>97.0</ele><time>2026-03-25T09:34:09.959Z</time></trkpt><trkpt lat="41.4864569" lon="13.3213143"><ele>97.8</ele><time>2026-03-25T09:34:11.962Z</time></trkpt><trkpt lat="41.4864193" lon="13.3214221"><ele>98.6</ele><time>2026-03-25T09:34:14.959Z</time></trkpt><trkpt lat="41.4863385" lon="13.3215299"><ele>99.39999999999999</ele><time>2026-03-25T09:34:16.97Z</time></trkpt><trkpt lat="41.4863155" lon="13.3216379"><ele>100.19999999999999</ele><time>2026-03-25T09:34:17.951Z</time></trkpt><trkpt lat="41.4862919" lon="13.3217724"><ele>101.0</ele><time>2026-03-25T09:34:18.951Z</time></trkpt><trkpt lat="41.4862647" lon="13.3219057"><ele>100.66666666666666</ele><time>2026-03-25T09:34:19.964Z</time></trkpt><trkpt lat="41.4862396" lon="13.3220373"><ele>100.33333333333333</ele><time>2026-03-25T09:34:20.946Z</time></trkpt><trkpt lat="41.4862404" lon="13.322147"><ele>100.0</ele><time>2026-03-25T09:34:21.954Z</time></trkpt><trkpt lat="41.4862278" lon="13.3222416"><ele>99.66666666666666</ele><time>2026-03-25T09:34:22.95Z</time></trkpt><trkpt lat="41.4861974" lon="13.3223961"><ele>99.33333333333333</ele><time>2026-03-25T09:34:24.963Z</time></trkpt><trkpt lat="41.4861607" lon="13.3224767"><ele>99.0</ele><time>2026-03-25T09:34:25.957Z</time></trkpt><trkpt lat="41.4861011" lon="13.3226077"><ele>99.0</ele><time>2026-03-25T09:34:27.955Z</time></trkpt><trkpt lat="41.4861499" lon="13.3227106"><ele>99.0</ele><time>2026-03-25T09:34:30.961Z</time></trkpt><trkpt lat="41.4861711" lon="13.3228051"><ele>99.0</ele><time>2026-03-25T09:34:32.962Z</time></trkpt><trkpt lat="41.4860888" lon="13.322944"><ele>99.0</ele><time>2026-03-25T09:34:34.955Z</time></trkpt><trkpt lat="41.4860305" lon="13.3230443"><ele>99.0</ele><time>2026-03-25T09:34:35.949Z</time></trkpt><trkpt lat="41.485974" lon="13.3231562"><ele>99.33333333333333</ele><time>2026-03-25T09:34:36.948Z</time></trkpt><trkpt lat="41.4859058" lon="13.3232574"><ele>99.66666666666666</ele><time>2026-03-25T09:34:37.955Z</time></trkpt><trkpt lat="41.485849" lon="13.323343"><ele>100.0</ele><time>2026-03-25T09:34:38.957Z</time></trkpt><trkpt lat="41.4857947" lon="13.3234198"><ele>100.33333333333333</ele><time>2026-03-25T09:34:39.962Z</time></trkpt><trkpt lat="41.4857427" lon="13.3235221"><ele>100.66666666666666</ele><time>2026-03-25T09:34:40.953Z</time></trkpt><trkpt lat="41.4857009" lon="13.3236178"><ele>101.0</ele><time>2026-03-25T09:34:41.957Z</time></trkpt><trkpt lat="41.4856695" lon="13.3237236"><ele>101.0</ele><time>2026-03-25T09:34:42.952Z</time></trkpt><trkpt lat="41.4856462" lon="13.3238363"><ele>101.0</ele><time>2026-03-25T09:34:43.948Z</time></trkpt><trkpt lat="41.4856158" lon="13.3239581"><ele>101.0</ele><time>2026-03-25T09:34:44.948Z</time></trkpt><trkpt lat="41.4855863" lon="13.3240839"><ele>101.0</ele><time>2026-03-25T09:34:45.954Z</time></trkpt><trkpt lat="41.4855571" lon="13.3242103"><ele>101.0</ele><time>2026-03-25T09:34:46.952Z</time></trkpt><trkpt lat="41.4855264" lon="13.3243381"><ele>101.5</ele><time>2026-03-25T09:34:47.957Z</time></trkpt><trkpt lat="41.4854932" lon="13.3244734"><ele>102.0</ele><time>2026-03-25T09:34:48.95Z</time></trkpt><trkpt lat="41.4854732" lon="13.3246237"><ele>102.5</ele><time>2026-03-25T09:34:49.948Z</time></trkpt><trkpt lat="41.485455" lon="13.3247699"><ele>103.0</ele><time>2026-03-25T09:34:50.946Z</time></trkpt><trkpt lat="41.4854498" lon="13.3249275"><ele>102.80000000000001</ele><time>2026-03-25T09:34:51.95Z</time></trkpt><trkpt lat="41.4854345" lon="13.3250754"><ele>102.6</ele><time>2026-03-25T09:34:52.946Z</time></trkpt><trkpt lat="41.4854035" lon="13.3252136"><ele>102.4</ele><time>2026-03-25T09:34:53.951Z</time></trkpt><trkpt lat="41.4853782" lon="13.3253245"><ele>102.19999999999999</ele><time>2026-03-25T09:34:54.964Z</time></trkpt><trkpt lat="41.4853467" lon="13.3254121"><ele>102.0</ele><time>2026-03-25T09:34:55.955Z</time></trkpt><trkpt lat="41.4852883" lon="13.3254869"><ele>102.5</ele><time>2026-03-25T09:34:56.958Z</time></trkpt><trkpt lat="41.4852193" lon="13.3255638"><ele>103.0</ele><time>2026-03-25T09:34:57.948Z</time></trkpt><trkpt lat="41.485152" lon="13.3256408"><ele>103.5</ele><time>2026-03-25T09:34:58.956Z</time></trkpt><trkpt lat="41.4850892" lon="13.3257175"><ele>104.0</ele><time>2026-03-25T09:34:59.953Z</time></trkpt><trkpt lat="41.4850254" lon="13.3257667"><ele>104.5</ele><time>2026-03-25T09:35:00.954Z</time></trkpt><trkpt lat="41.4849427" lon="13.325798"><ele>105.0</ele><time>2026-03-25T09:35:01.949Z</time></trkpt><trkpt lat="41.4848416" lon="13.3258113"><ele>105.0</ele><time>2026-03-25T09:35:02.951Z</time></trkpt><trkpt lat="41.4847304" lon="13.32582"><ele>105.0</ele><time>2026-03-25T09:35:03.96Z</time></trkpt><trkpt lat="41.4846151" lon="13.3258285"><ele>105.0</ele><time>2026-03-25T09:35:04.953Z</time></trkpt><trkpt lat="41.4845017" lon="13.3258241"><ele>105.0</ele><time>2026-03-25T09:35:05.954Z</time></trkpt><trkpt lat="41.4843936" lon="13.3258211"><ele>105.0</ele><time>2026-03-25T09:35:06.961Z</time></trkpt><trkpt lat="41.4842818" lon="13.3258318"><ele>105.2</ele><time>2026-03-25T09:35:07.964Z</time></trkpt><trkpt lat="41.4841768" lon="13.3258719"><ele>105.4</ele><time>2026-03-25T09:35:08.955Z</time></trkpt><trkpt lat="41.484076" lon="13.3259253"><ele>105.6</ele><time>2026-03-25T09:35:09.961Z</time></trkpt><trkpt lat="41.4839737" lon="13.3259708"><ele>105.8</ele><time>2026-03-25T09:35:10.955Z</time></trkpt><trkpt lat="41.4838768" lon="13.3260227"><ele>106.0</ele><time>2026-03-25T09:35:11.947Z</time></trkpt><trkpt lat="41.4837809" lon="13.3260688"><ele>106.50000000000001</ele><time>2026-03-25T09:35:12.954Z</time></trkpt><trkpt lat="41.4837076" lon="13.326149"><ele>107.0</ele><time>2026-03-25T09:35:13.958Z</time></trkpt><trkpt lat="41.4836391" lon="13.3262299"><ele>107.5</ele><time>2026-03-25T09:35:14.96Z</time></trkpt><trkpt lat="41.4835751" lon="13.3263034"><ele>108.0</ele><time>2026-03-25T09:35:15.962Z</time></trkpt><trkpt lat="41.4835068" lon="13.3263665"><ele>108.50000000000001</ele><time>2026-03-25T09:35:16.955Z</time></trkpt><trkpt lat="41.4834195" lon="13.3264081"><ele>109.0</ele><time>2026-03-25T09:35:17.952Z</time></trkpt><trkpt lat="41.4833145" lon="13.326451"><ele>109.0</ele><time>2026-03-25T09:35:18.958Z</time></trkpt><trkpt lat="41.4832128" lon="13.3265067"><ele>109.0</ele><time>2026-03-25T09:35:19.955Z</time></trkpt><trkpt lat="41.4831175" lon="13.3265699"><ele>109.0</ele><time>2026-03-25T09:35:20.975Z</time></trkpt><trkpt lat="41.4830247" lon="13.3266314"><ele>109.0</ele><time>2026-03-25T09:35:21.953Z</time></trkpt><trkpt lat="41.4829394" lon="13.3266918"><ele>109.0</ele><time>2026-03-25T09:35:22.956Z</time></trkpt><trkpt lat="41.4828638" lon="13.3267517"><ele>110.0</ele><time>2026-03-25T09:35:23.965Z</time></trkpt><trkpt lat="41.4828116" lon="13.3268219"><ele>111.0</ele><time>2026-03-25T09:35:24.954Z</time></trkpt><trkpt lat="41.4827676" lon="13.32692"><ele>112.0</ele><time>2026-03-25T09:35:26.972Z</time></trkpt><trkpt lat="41.4827915" lon="13.3270434"><ele>113.0</ele><time>2026-03-25T09:35:32.964Z</time></trkpt><trkpt lat="41.4827922" lon="13.3271522"><ele>114.0</ele><time>2026-03-25T09:35:34.96Z</time></trkpt><trkpt lat="41.4828106" lon="13.3273161"><ele>114.0</ele><time>2026-03-25T09:35:36.952Z</time></trkpt><trkpt lat="41.482823" lon="13.3274582"><ele>114.0</ele><time>2026-03-25T09:35:37.968Z</time></trkpt><trkpt lat="41.4828341" lon="13.3275981"><ele>114.0</ele><time>2026-03-25T09:35:38.959Z</time></trkpt><trkpt lat="41.4828475" lon="13.3277408"><ele>114.0</ele><time>2026-03-25T09:35:39.948Z</time></trkpt><trkpt lat="41.4828634" lon="13.3278836"><ele>114.0</ele><time>2026-03-25T09:35:40.955Z</time></trkpt><trkpt lat="41.4828689" lon="13.3280091"><ele>113.6</ele><time>2026-03-25T09:35:41.96Z</time></trkpt><trkpt lat="41.4828603" lon="13.3281278"><ele>113.2</ele><time>2026-03-25T09:35:42.953Z</time></trkpt><trkpt lat="41.482839" lon="13.3282382"><ele>112.79999999999998</ele><time>2026-03-25T09:35:43.961Z</time></trkpt><trkpt lat="41.4827813" lon="13.3283657"><ele>112.39999999999999</ele><time>2026-03-25T09:35:44.961Z</time></trkpt><trkpt lat="41.4827012" lon="13.328492"><ele>112.0</ele><time>2026-03-25T09:35:45.958Z</time></trkpt><trkpt lat="41.4826167" lon="13.3286131"><ele>112.0</ele><time>2026-03-25T09:35:46.962Z</time></trkpt><trkpt lat="41.4825433" lon="13.3287276"><ele>111.99999999999999</ele><time>2026-03-25T09:35:47.954Z</time></trkpt><trkpt lat="41.4824822" lon="13.3288446"><ele>111.99999999999999</ele><time>2026-03-25T09:35:48.954Z</time></trkpt><trkpt lat="41.4824271" lon="13.328961"><ele>112.0</ele><time>2026-03-25T09:35:49.953Z</time></trkpt><trkpt lat="41.4823784" lon="13.329058"><ele>112.0</ele><time>2026-03-25T09:35:50.95Z</time></trkpt><trkpt lat="41.482335" lon="13.3291359"><ele>111.39999999999999</ele><time>2026-03-25T09:35:51.955Z</time></trkpt><trkpt lat="41.4822379" lon="13.3291861"><ele>110.79999999999998</ele><time>2026-03-25T09:35:53.964Z</time></trkpt><trkpt lat="41.4821461" lon="13.3292309"><ele>110.2</ele><time>2026-03-25T09:35:55.96Z</time></trkpt><trkpt lat="41.4820709" lon="13.3292033"><ele>109.6</ele><time>2026-03-25T09:35:58.955Z</time></trkpt><trkpt lat="41.4820459" lon="13.3291049"><ele>109.0</ele><time>2026-03-25T09:36:00.95Z</time></trkpt><trkpt lat="41.4820143" lon="13.3289378"><ele>108.50000000000001</ele><time>2026-03-25T09:36:02.954Z</time></trkpt><trkpt lat="41.4819955" lon="13.3288332"><ele>108.0</ele><time>2026-03-25T09:36:03.948Z</time></trkpt><trkpt lat="41.4819777" lon="13.3287176"><ele>107.5</ele><time>2026-03-25T09:36:04.949Z</time></trkpt><trkpt lat="41.4819667" lon="13.3285766"><ele>107.0</ele><time>2026-03-25T09:36:05.947Z</time></trkpt><trkpt lat="41.4819665" lon="13.3284482"><ele>106.50000000000001</ele><time>2026-03-25T09:36:06.951Z</time></trkpt><trkpt lat="41.4819775" lon="13.3283465"><ele>106.0</ele><time>2026-03-25T09:36:07.958Z</time></trkpt><trkpt lat="41.4820204" lon="13.3282455"><ele>106.00000000000001</ele><time>2026-03-25T09:36:08.948Z</time></trkpt><trkpt lat="41.4820761" lon="13.3281604"><ele>106.0</ele><time>2026-03-25T09:36:09.952Z</time></trkpt><trkpt lat="41.4821245" lon="13.328089"><ele>106.0</ele><time>2026-03-25T09:36:10.952Z</time></trkpt><trkpt lat="41.4821595" lon="13.3280156"><ele>106.0</ele><time>2026-03-25T09:36:11.95Z</time></trkpt><trkpt lat="41.4821803" lon="13.3278497"><ele>106.00000000000001</ele><time>2026-03-25T09:36:13.963Z</time></trkpt><trkpt lat="41.482181" lon="13.3277622"><ele>106.0</ele><time>2026-03-25T09:36:14.953Z</time></trkpt><trkpt lat="41.4821866" lon="13.3276735"><ele>107.6</ele><time>2026-03-25T09:36:15.951Z</time></trkpt><trkpt lat="41.4821882" lon="13.3275809"><ele>109.19999999999999</ele><time>2026-03-25T09:36:16.957Z</time></trkpt><trkpt lat="41.4821838" lon="13.327486"><ele>110.80000000000001</ele><time>2026-03-25T09:36:17.958Z</time></trkpt><trkpt lat="41.4821817" lon="13.3273972"><ele>112.4</ele><time>2026-03-25T09:36:18.957Z</time></trkpt><trkpt lat="41.4821858" lon="13.3272362"><ele>114.0</ele><time>2026-03-25T09:36:20.958Z</time></trkpt><trkpt lat="41.4821993" lon="13.3270725"><ele>114.16666666666667</ele><time>2026-03-25T09:36:22.955Z</time></trkpt><trkpt lat="41.4822154" lon="13.3269846"><ele>114.33333333333334</ele><time>2026-03-25T09:36:23.951Z</time></trkpt><trkpt lat="41.4822519" lon="13.3268202"><ele>114.5</ele><time>2026-03-25T09:36:25.957Z</time></trkpt><trkpt lat="41.4822694" lon="13.3267335"><ele>114.66666666666667</ele><time>2026-03-25T09:36:26.954Z</time></trkpt><trkpt lat="41.4822888" lon="13.3266476"><ele>114.83333333333334</ele><time>2026-03-25T09:36:27.952Z</time></trkpt><trkpt lat="41.482312" lon="13.3265647"><ele>115.0</ele><time>2026-03-25T09:36:28.959Z</time></trkpt><trkpt lat="41.4823396" lon="13.3264522"><ele>114.83333333333334</ele><time>2026-03-25T09:36:30.955Z</time></trkpt><trkpt lat="41.4823592" lon="13.3263361"><ele>114.66666666666667</ele><time>2026-03-25T09:36:32.956Z</time></trkpt><trkpt lat="41.4823932" lon="13.3261919"><ele>114.5</ele><time>2026-03-25T09:36:34.961Z</time></trkpt><trkpt lat="41.4824279" lon="13.3261104"><ele>114.33333333333334</ele><time>2026-03-25T09:36:35.961Z</time></trkpt><trkpt lat="41.482464" lon="13.3260302"><ele>114.16666666666667</ele><time>2026-03-25T09:36:36.962Z</time></trkpt><trkpt lat="41.4824974" lon="13.3259549"><ele>114.0</ele><time>2026-03-25T09:36:37.95Z</time></trkpt><trkpt lat="41.4825285" lon="13.3258755"><ele>114.0</ele><time>2026-03-25T09:36:38.958Z</time></trkpt><trkpt lat="41.4825515" lon="13.3257889"><ele>114.0</ele><time>2026-03-25T09:36:39.958Z</time></trkpt><trkpt lat="41.4825706" lon="13.3256291"><ele>114.0</ele><time>2026-03-25T09:36:41.955Z</time></trkpt><trkpt lat="41.482589" lon="13.3255482"><ele>114.0</ele><time>2026-03-25T09:36:42.968Z</time></trkpt><trkpt lat="41.4826453" lon="13.3254236"><ele>114.0</ele><time>2026-03-25T09:36:44.962Z</time></trkpt><trkpt lat="41.4826992" lon="13.3253083"><ele>112.80000000000001</ele><time>2026-03-25T09:36:46.975Z</time></trkpt><trkpt lat="41.4827671" lon="13.3252072"><ele>111.60000000000001</ele><time>2026-03-25T09:36:48.957Z</time></trkpt><trkpt lat="41.4828401" lon="13.325096"><ele>110.4</ele><time>2026-03-25T09:36:50.949Z</time></trkpt><trkpt lat="41.4829228" lon="13.3249696"><ele>109.2</ele><time>2026-03-25T09:36:52.96Z</time></trkpt><trkpt lat="41.4829631" lon="13.3248945"><ele>108.0</ele><time>2026-03-25T09:36:53.969Z</time></trkpt><trkpt lat="41.4830056" lon="13.3248125"><ele>108.33333333333333</ele><time>2026-03-25T09:36:54.951Z</time></trkpt><trkpt lat="41.4830387" lon="13.32472"><ele>108.66666666666666</ele><time>2026-03-25T09:36:55.949Z</time></trkpt><trkpt lat="41.4830623" lon="13.3246288"><ele>109.0</ele><time>2026-03-25T09:36:56.959Z</time></trkpt><trkpt lat="41.4830792" lon="13.3245343"><ele>109.33333333333333</ele><time>2026-03-25T09:36:57.952Z</time></trkpt><trkpt lat="41.483097" lon="13.3244334"><ele>109.66666666666666</ele><time>2026-03-25T09:36:58.951Z</time></trkpt><trkpt lat="41.4831137" lon="13.3243222"><ele>110.0</ele><time>2026-03-25T09:36:59.955Z</time></trkpt><trkpt lat="41.483127" lon="13.3242048"><ele>109.99999999999999</ele><time>2026-03-25T09:37:00.95Z</time></trkpt><trkpt lat="41.4831373" lon="13.3240872"><ele>110.0</ele><time>2026-03-25T09:37:01.956Z</time></trkpt><trkpt lat="41.4831556" lon="13.3239655"><ele>110.0</ele><time>2026-03-25T09:37:02.954Z</time></trkpt><trkpt lat="41.4831718" lon="13.3238562"><ele>110.0</ele><time>2026-03-25T09:37:03.965Z</time></trkpt><trkpt lat="41.483187" lon="13.3237587"><ele>109.99999999999999</ele><time>2026-03-25T09:37:04.958Z</time></trkpt><trkpt lat="41.4832042" lon="13.3236597"><ele>110.0</ele><time>2026-03-25T09:37:05.953Z</time></trkpt><trkpt lat="41.4832343" lon="13.3235582"><ele>110.16666666666666</ele><time>2026-03-25T09:37:06.959Z</time></trkpt><trkpt lat="41.4832642" lon="13.3234593"><ele>110.33333333333333</ele><time>2026-03-25T09:37:07.962Z</time></trkpt><trkpt lat="41.4833045" lon="13.3233633"><ele>110.5</ele><time>2026-03-25T09:37:08.946Z</time></trkpt><trkpt lat="41.4833419" lon="13.3232661"><ele>110.66666666666666</ele><time>2026-03-25T09:37:09.951Z</time></trkpt><trkpt lat="41.4833706" lon="13.3231711"><ele>110.83333333333333</ele><time>2026-03-25T09:37:10.953Z</time></trkpt><trkpt lat="41.4833836" lon="13.3230587"><ele>111.0</ele><time>2026-03-25T09:37:11.957Z</time></trkpt><trkpt lat="41.4833984" lon="13.3229489"><ele>111.16666666666667</ele><time>2026-03-25T09:37:12.953Z</time></trkpt><trkpt lat="41.4834147" lon="13.3228421"><ele>111.33333333333334</ele><time>2026-03-25T09:37:13.954Z</time></trkpt><trkpt lat="41.4834348" lon="13.3227283"><ele>111.5</ele><time>2026-03-25T09:37:14.958Z</time></trkpt><trkpt lat="41.4834372" lon="13.3226301"><ele>111.66666666666667</ele><time>2026-03-25T09:37:15.962Z</time></trkpt><trkpt lat="41.4834272" lon="13.3225452"><ele>111.83333333333334</ele><time>2026-03-25T09:37:16.964Z</time></trkpt><trkpt lat="41.4833717" lon="13.3223949"><ele>112.0</ele><time>2026-03-25T09:37:18.973Z</time></trkpt><trkpt lat="41.4833209" lon="13.322338"><ele>111.39999999999999</ele><time>2026-03-25T09:37:19.963Z</time></trkpt><trkpt lat="41.4832394" lon="13.3222314"><ele>110.79999999999998</ele><time>2026-03-25T09:37:21.954Z</time></trkpt><trkpt lat="41.4832417" lon="13.3220969"><ele>110.2</ele><time>2026-03-25T09:37:23.95Z</time></trkpt><trkpt lat="41.4832197" lon="13.3219557"><ele>109.6</ele><time>2026-03-25T09:37:25.956Z</time></trkpt><trkpt lat="41.4832083" lon="13.3218007"><ele>109.0</ele><time>2026-03-25T09:37:27.952Z</time></trkpt><trkpt lat="41.4831983" lon="13.3216576"><ele>109.0</ele><time>2026-03-25T09:37:29.965Z</time></trkpt><trkpt lat="41.4831931" lon="13.3215228"><ele>109.0</ele><time>2026-03-25T09:37:31.954Z</time></trkpt><trkpt lat="41.4831979" lon="13.3213524"><ele>109.0</ele><time>2026-03-25T09:37:33.957Z</time></trkpt><trkpt lat="41.4832122" lon="13.3212528"><ele>109.0</ele><time>2026-03-25T09:37:34.958Z</time></trkpt><trkpt lat="41.4832419" lon="13.3211572"><ele>109.0</ele><time>2026-03-25T09:37:35.95Z</time></trkpt><trkpt lat="41.4832732" lon="13.3210746"><ele>108.83333333333334</ele><time>2026-03-25T09:37:36.956Z</time></trkpt><trkpt lat="41.4833053" lon="13.3209949"><ele>108.66666666666667</ele><time>2026-03-25T09:37:37.962Z</time></trkpt><trkpt lat="41.4833229" lon="13.3208988"><ele>108.5</ele><time>2026-03-25T09:37:38.96Z</time></trkpt><trkpt lat="41.4833375" lon="13.3208001"><ele>108.33333333333334</ele><time>2026-03-25T09:37:39.964Z</time></trkpt><trkpt lat="41.4833694" lon="13.3206921"><ele>108.16666666666667</ele><time>2026-03-25T09:37:40.957Z</time></trkpt><trkpt lat="41.483407" lon="13.3205831"><ele>108.0</ele><time>2026-03-25T09:37:41.955Z</time></trkpt><trkpt lat="41.4834389" lon="13.3204756"><ele>107.83333333333333</ele><time>2026-03-25T09:37:42.952Z</time></trkpt><trkpt lat="41.4834753" lon="13.3203623"><ele>107.66666666666666</ele><time>2026-03-25T09:37:43.955Z</time></trkpt><trkpt lat="41.4835101" lon="13.3202616"><ele>107.5</ele><time>2026-03-25T09:37:44.962Z</time></trkpt><trkpt lat="41.4835417" lon="13.320174"><ele>107.33333333333333</ele><time>2026-03-25T09:37:45.961Z</time></trkpt><trkpt lat="41.4835777" lon="13.3200601"><ele>107.16666666666666</ele><time>2026-03-25T09:37:47.961Z</time></trkpt><trkpt lat="41.4836306" lon="13.3199503"><ele>107.0</ele><time>2026-03-25T09:37:49.97Z</time></trkpt><trkpt lat="41.483661" lon="13.3197892"><ele>107.16666666666666</ele><time>2026-03-25T09:37:51.96Z</time></trkpt><trkpt lat="41.4836643" lon="13.3197032"><ele>107.33333333333333</ele><time>2026-03-25T09:37:52.956Z</time></trkpt><trkpt lat="41.4836718" lon="13.3196152"><ele>107.5</ele><time>2026-03-25T09:37:53.963Z</time></trkpt><trkpt lat="41.4836841" lon="13.3195296"><ele>107.66666666666666</ele><time>2026-03-25T09:37:54.947Z</time></trkpt><trkpt lat="41.4837053" lon="13.3194468"><ele>107.83333333333333</ele><time>2026-03-25T09:37:55.959Z</time></trkpt><trkpt lat="41.4837344" lon="13.3193097"><ele>108.0</ele><time>2026-03-25T09:37:57.952Z</time></trkpt><trkpt lat="41.4837742" lon="13.3191466"><ele>108.16666666666667</ele><time>2026-03-25T09:37:59.971Z</time></trkpt><trkpt lat="41.4837973" lon="13.3190455"><ele>108.33333333333334</ele><time>2026-03-25T09:38:00.962Z</time></trkpt><trkpt lat="41.4838378" lon="13.318932"><ele>108.5</ele><time>2026-03-25T09:38:01.966Z</time></trkpt><trkpt lat="41.4838646" lon="13.3188142"><ele>108.66666666666667</ele><time>2026-03-25T09:38:02.964Z</time></trkpt><trkpt lat="41.4838803" lon="13.318698"><ele>108.83333333333334</ele><time>2026-03-25T09:38:03.962Z</time></trkpt><trkpt lat="41.4838855" lon="13.3185786"><ele>109.0</ele><time>2026-03-25T09:38:04.959Z</time></trkpt><trkpt lat="41.4838772" lon="13.3184553"><ele>109.00000000000001</ele><time>2026-03-25T09:38:05.954Z</time></trkpt><trkpt lat="41.4838642" lon="13.3183337"><ele>109.0</ele><time>2026-03-25T09:38:06.956Z</time></trkpt><trkpt lat="41.483872" lon="13.3182204"><ele>109.0</ele><time>2026-03-25T09:38:07.966Z</time></trkpt><trkpt lat="41.4839012" lon="13.318102"><ele>109.0</ele><time>2026-03-25T09:38:08.959Z</time></trkpt><trkpt lat="41.4839339" lon="13.3179909"><ele>109.00000000000001</ele><time>2026-03-25T09:38:09.954Z</time></trkpt><trkpt lat="41.4839547" lon="13.3178766"><ele>109.0</ele><time>2026-03-25T09:38:10.966Z</time></trkpt><trkpt lat="41.4839509" lon="13.3177608"><ele>109.4</ele><time>2026-03-25T09:38:11.963Z</time></trkpt><trkpt lat="41.4839356" lon="13.3176328"><ele>109.80000000000001</ele><time>2026-03-25T09:38:12.956Z</time></trkpt><trkpt lat="41.4839353" lon="13.3174819"><ele>110.19999999999999</ele><time>2026-03-25T09:38:13.956Z</time></trkpt><trkpt lat="41.4839331" lon="13.3173305"><ele>110.6</ele><time>2026-03-25T09:38:14.956Z</time></trkpt><trkpt lat="41.4839265" lon="13.3171643"><ele>111.0</ele><time>2026-03-25T09:38:15.951Z</time></trkpt><trkpt lat="41.483911" lon="13.3170028"><ele>111.0</ele><time>2026-03-25T09:38:16.953Z</time></trkpt><trkpt lat="41.483889" lon="13.3168438"><ele>111.0</ele><time>2026-03-25T09:38:17.953Z</time></trkpt><trkpt lat="41.483867" lon="13.3166953"><ele>111.0</ele><time>2026-03-25T09:38:18.962Z</time></trkpt><trkpt lat="41.4838495" lon="13.3165577"><ele>111.0</ele><time>2026-03-25T09:38:19.957Z</time></trkpt><trkpt lat="41.4838327" lon="13.3164202"><ele>111.0</ele><time>2026-03-25T09:38:20.958Z</time></trkpt><trkpt lat="41.483818" lon="13.3162925"><ele>111.0</ele><time>2026-03-25T09:38:21.951Z</time></trkpt><trkpt lat="41.4838208" lon="13.3161695"><ele>111.0</ele><time>2026-03-25T09:38:22.963Z</time></trkpt><trkpt lat="41.4838281" lon="13.3160339"><ele>111.0</ele><time>2026-03-25T09:38:23.96Z</time></trkpt><trkpt lat="41.4838249" lon="13.3159273"><ele>111.0</ele><time>2026-03-25T09:38:24.953Z</time></trkpt><trkpt lat="41.4838233" lon="13.3158189"><ele>111.0</ele><time>2026-03-25T09:38:25.961Z</time></trkpt><trkpt lat="41.4838296" lon="13.3157016"><ele>111.0</ele><time>2026-03-25T09:38:26.96Z</time></trkpt><trkpt lat="41.4838484" lon="13.3155768"><ele>110.6</ele><time>2026-03-25T09:38:27.963Z</time></trkpt><trkpt lat="41.4838697" lon="13.3154504"><ele>110.19999999999999</ele><time>2026-03-25T09:38:28.956Z</time></trkpt><trkpt lat="41.4838944" lon="13.3153246"><ele>109.80000000000001</ele><time>2026-03-25T09:38:29.96Z</time></trkpt><trkpt lat="41.4839115" lon="13.3152136"><ele>109.4</ele><time>2026-03-25T09:38:30.956Z</time></trkpt><trkpt lat="41.4839372" lon="13.3151132"><ele>109.0</ele><time>2026-03-25T09:38:31.961Z</time></trkpt><trkpt lat="41.4839607" lon="13.314986"><ele>109.0</ele><time>2026-03-25T09:38:33.953Z</time></trkpt><trkpt lat="41.483934" lon="13.3148749"><ele>109.0</ele><time>2026-03-25T09:38:36.956Z</time></trkpt><trkpt lat="41.4838731" lon="13.3148391"><ele>109.0</ele><time>2026-03-25T09:38:38.957Z</time></trkpt><trkpt lat="41.4837419" lon="13.3148378"><ele>109.0</ele><time>2026-03-25T09:38:40.959Z</time></trkpt><trkpt lat="41.4836607" lon="13.3148418"><ele>109.0</ele><time>2026-03-25T09:38:41.957Z</time></trkpt><trkpt lat="41.483563" lon="13.3148412"><ele>108.6</ele><time>2026-03-25T09:38:42.952Z</time></trkpt><trkpt lat="41.483462" lon="13.3148406"><ele>108.2</ele><time>2026-03-25T09:38:43.961Z</time></trkpt><trkpt lat="41.4833591" lon="13.3148299"><ele>107.79999999999998</ele><time>2026-03-25T09:38:44.97Z</time></trkpt><trkpt lat="41.4832533" lon="13.3148206"><ele>107.39999999999999</ele><time>2026-03-25T09:38:45.956Z</time></trkpt><trkpt lat="41.4831353" lon="13.314799"><ele>107.0</ele><time>2026-03-25T09:38:46.964Z</time></trkpt><trkpt lat="41.4830214" lon="13.314774"><ele>106.33333333333333</ele><time>2026-03-25T09:38:47.956Z</time></trkpt><trkpt lat="41.4829151" lon="13.3147459"><ele>105.66666666666666</ele><time>2026-03-25T09:38:48.956Z</time></trkpt><trkpt lat="41.4828245" lon="13.3147412"><ele>105.0</ele><time>2026-03-25T09:38:49.953Z</time></trkpt><trkpt lat="41.482733" lon="13.3147219"><ele>104.33333333333334</ele><time>2026-03-25T09:38:50.958Z</time></trkpt><trkpt lat="41.4826502" lon="13.3147063"><ele>103.66666666666667</ele><time>2026-03-25T09:38:51.964Z</time></trkpt><trkpt lat="41.4825866" lon="13.3146856"><ele>103.0</ele><time>2026-03-25T09:38:52.957Z</time></trkpt><trkpt lat="41.4825198" lon="13.3146474"><ele>103.00000000000001</ele><time>2026-03-25T09:38:53.954Z</time></trkpt><trkpt lat="41.4824402" lon="13.3145969"><ele>103.0</ele><time>2026-03-25T09:38:54.957Z</time></trkpt><trkpt lat="41.4823607" lon="13.3145465"><ele>103.0</ele><time>2026-03-25T09:38:55.965Z</time></trkpt><trkpt lat="41.4822785" lon="13.3144944"><ele>103.0</ele><time>2026-03-25T09:38:56.955Z</time></trkpt><trkpt lat="41.4822039" lon="13.3144454"><ele>103.00000000000001</ele><time>2026-03-25T09:38:57.954Z</time></trkpt><trkpt lat="41.4821332" lon="13.3143966"><ele>103.0</ele><time>2026-03-25T09:38:58.964Z</time></trkpt><trkpt lat="41.4820746" lon="13.3143365"><ele>103.0</ele><time>2026-03-25T09:38:59.956Z</time></trkpt><trkpt lat="41.4820181" lon="13.3142743"><ele>103.0</ele><time>2026-03-25T09:39:00.956Z</time></trkpt><trkpt lat="41.4819724" lon="13.3142066"><ele>103.0</ele><time>2026-03-25T09:39:01.947Z</time></trkpt><trkpt lat="41.4819179" lon="13.3140825"><ele>103.0</ele><time>2026-03-25T09:39:03.954Z</time></trkpt><trkpt lat="41.4818825" lon="13.3139548"><ele>103.0</ele><time>2026-03-25T09:39:05.967Z</time></trkpt><trkpt lat="41.4818791" lon="13.3138127"><ele>102.50000000000001</ele><time>2026-03-25T09:39:07.955Z</time></trkpt><trkpt lat="41.4819023" lon="13.3137152"><ele>102.0</ele><time>2026-03-25T09:39:08.959Z</time></trkpt><trkpt lat="41.4819405" lon="13.3136087"><ele>101.5</ele><time>2026-03-25T09:39:09.955Z</time></trkpt><trkpt lat="41.4819857" lon="13.3135102"><ele>101.0</ele><time>2026-03-25T09:39:10.951Z</time></trkpt><trkpt lat="41.4820355" lon="13.3134346"><ele>100.50000000000001</ele><time>2026-03-25T09:39:11.961Z</time></trkpt><trkpt lat="41.4821046" lon="13.3133881"><ele>100.0</ele><time>2026-03-25T09:39:12.954Z</time></trkpt><trkpt lat="41.4822091" lon="13.313361"><ele>99.6</ele><time>2026-03-25T09:39:13.96Z</time></trkpt><trkpt lat="41.4823315" lon="13.3133343"><ele>99.2</ele><time>2026-03-25T09:39:14.951Z</time></trkpt><trkpt lat="41.482444" lon="13.3133298"><ele>98.80000000000001</ele><time>2026-03-25T09:39:15.964Z</time></trkpt><trkpt lat="41.4825451" lon="13.3133455"><ele>98.4</ele><time>2026-03-25T09:39:16.958Z</time></trkpt><trkpt lat="41.4826341" lon="13.3133548"><ele>98.0</ele><time>2026-03-25T09:39:17.962Z</time></trkpt><trkpt lat="41.4827204" lon="13.3133381"><ele>98.0</ele><time>2026-03-25T09:39:18.955Z</time></trkpt><trkpt lat="41.4827995" lon="13.3132773"><ele>98.0</ele><time>2026-03-25T09:39:19.957Z</time></trkpt><trkpt lat="41.4828873" lon="13.313172"><ele>98.0</ele><time>2026-03-25T09:39:20.951Z</time></trkpt><trkpt lat="41.4829719" lon="13.3130361"><ele>98.0</ele><time>2026-03-25T09:39:21.95Z</time></trkpt><trkpt lat="41.4830805" lon="13.3128797"><ele>97.75</ele><time>2026-03-25T09:39:22.949Z</time></trkpt><trkpt lat="41.4831954" lon="13.3127564"><ele>97.5</ele><time>2026-03-25T09:39:23.948Z</time></trkpt><trkpt lat="41.4832987" lon="13.3126327"><ele>97.25</ele><time>2026-03-25T09:39:24.953Z</time></trkpt><trkpt lat="41.4834023" lon="13.3125044"><ele>97.0</ele><time>2026-03-25T09:39:25.95Z</time></trkpt><trkpt lat="41.4835004" lon="13.3123745"><ele>97.0</ele><time>2026-03-25T09:39:26.959Z</time></trkpt><trkpt lat="41.4835901" lon="13.3122596"><ele>97.0</ele><time>2026-03-25T09:39:27.954Z</time></trkpt><trkpt lat="41.4836806" lon="13.3121786"><ele>97.0</ele><time>2026-03-25T09:39:28.96Z</time></trkpt><trkpt lat="41.4837901" lon="13.312108"><ele>97.0</ele><time>2026-03-25T09:39:29.956Z</time></trkpt><trkpt lat="41.4839037" lon="13.3120513"><ele>95.66666666666667</ele><time>2026-03-25T09:39:30.953Z</time></trkpt><trkpt lat="41.4840397" lon="13.3120049"><ele>94.33333333333334</ele><time>2026-03-25T09:39:31.955Z</time></trkpt><trkpt lat="41.4841907" lon="13.3120091"><ele>93.0</ele><time>2026-03-25T09:39:32.963Z</time></trkpt><trkpt lat="41.4843509" lon="13.3120296"><ele>93.0</ele><time>2026-03-25T09:39:33.957Z</time></trkpt><trkpt lat="41.4845052" lon="13.3120401"><ele>93.0</ele><time>2026-03-25T09:39:34.958Z</time></trkpt><trkpt lat="41.4846645" lon="13.3120675"><ele>93.0</ele><time>2026-03-25T09:39:35.959Z</time></trkpt><trkpt lat="41.4848301" lon="13.3121142"><ele>93.0</ele><time>2026-03-25T09:39:36.96Z</time></trkpt><trkpt lat="41.4849961" lon="13.3121635"><ele>93.0</ele><time>2026-03-25T09:39:37.959Z</time></trkpt><trkpt lat="41.4851624" lon="13.3122131"><ele>93.0</ele><time>2026-03-25T09:39:38.96Z</time></trkpt><trkpt lat="41.4853358" lon="13.3122943"><ele>92.33333333333333</ele><time>2026-03-25T09:39:39.972Z</time></trkpt><trkpt lat="41.4855062" lon="13.3123877"><ele>91.66666666666666</ele><time>2026-03-25T09:39:40.962Z</time></trkpt><trkpt lat="41.4856717" lon="13.3124912"><ele>91.0</ele><time>2026-03-25T09:39:41.954Z</time></trkpt><trkpt lat="41.4858197" lon="13.3125757"><ele>91.0</ele><time>2026-03-25T09:39:42.946Z</time></trkpt><trkpt lat="41.4859756" lon="13.3126283"><ele>91.0</ele><time>2026-03-25T09:39:43.958Z</time></trkpt><trkpt lat="41.4861463" lon="13.3126626"><ele>91.0</ele><time>2026-03-25T09:39:44.958Z</time></trkpt><trkpt lat="41.4863247" lon="13.3126736"><ele>90.75</ele><time>2026-03-25T09:39:45.953Z</time></trkpt><trkpt lat="41.4864822" lon="13.3126777"><ele>90.5</ele><time>2026-03-25T09:39:46.964Z</time></trkpt><trkpt lat="41.4866336" lon="13.3126716"><ele>90.25</ele><time>2026-03-25T09:39:47.954Z</time></trkpt><trkpt lat="41.4867402" lon="13.3126771"><ele>90.0</ele><time>2026-03-25T09:39:48.951Z</time></trkpt><trkpt lat="41.4868256" lon="13.3126707"><ele>90.0</ele><time>2026-03-25T09:39:49.951Z</time></trkpt><trkpt lat="41.4869021" lon="13.3126457"><ele>90.0</ele><time>2026-03-25T09:39:50.954Z</time></trkpt><trkpt lat="41.4869812" lon="13.3126149"><ele>90.0</ele><time>2026-03-25T09:39:51.951Z</time></trkpt><trkpt lat="41.4870385" lon="13.3125692"><ele>90.0</ele><time>2026-03-25T09:39:52.953Z</time></trkpt><trkpt lat="41.4871065" lon="13.3124959"><ele>90.0</ele><time>2026-03-25T09:39:54.957Z</time></trkpt><trkpt lat="41.4871463" lon="13.3124179"><ele>90.0</ele><time>2026-03-25T09:39:56.96Z</time></trkpt><trkpt lat="41.487218" lon="13.312321"><ele>90.0</ele><time>2026-03-25T09:39:58.951Z</time></trkpt><trkpt lat="41.4872673" lon="13.3122646"><ele>90.0</ele><time>2026-03-25T09:39:59.953Z</time></trkpt><trkpt lat="41.4873191" lon="13.3121999"><ele>90.0</ele><time>2026-03-25T09:40:00.952Z</time></trkpt><trkpt lat="41.4873661" lon="13.3121094"><ele>90.0</ele><time>2026-03-25T09:40:01.958Z</time></trkpt><trkpt lat="41.4874124" lon="13.3119987"><ele>90.0</ele><time>2026-03-25T09:40:02.956Z</time></trkpt><trkpt lat="41.4874507" lon="13.3118992"><ele>90.0</ele><time>2026-03-25T09:40:03.957Z</time></trkpt><trkpt lat="41.487484" lon="13.3117933"><ele>89.5</ele><time>2026-03-25T09:40:04.956Z</time></trkpt><trkpt lat="41.4875206" lon="13.311689"><ele>89.0</ele><time>2026-03-25T09:40:05.957Z</time></trkpt><trkpt lat="41.4875466" lon="13.3115835"><ele>88.5</ele><time>2026-03-25T09:40:06.962Z</time></trkpt><trkpt lat="41.4875748" lon="13.3114587"><ele>88.0</ele><time>2026-03-25T09:40:07.958Z</time></trkpt><trkpt lat="41.4876055" lon="13.3113473"><ele>87.5</ele><time>2026-03-25T09:40:08.96Z</time></trkpt><trkpt lat="41.4876337" lon="13.3112394"><ele>87.0</ele><time>2026-03-25T09:40:09.952Z</time></trkpt><trkpt lat="41.4876512" lon="13.3111393"><ele>86.19999999999999</ele><time>2026-03-25T09:40:10.96Z</time></trkpt><trkpt lat="41.4876608" lon="13.3110406"><ele>85.4</ele><time>2026-03-25T09:40:11.953Z</time></trkpt><trkpt lat="41.4876742" lon="13.3109192"><ele>84.6</ele><time>2026-03-25T09:40:12.957Z</time></trkpt><trkpt lat="41.4876997" lon="13.3107841"><ele>83.80000000000001</ele><time>2026-03-25T09:40:13.953Z</time></trkpt><trkpt lat="41.4877202" lon="13.3106645"><ele>83.0</ele><time>2026-03-25T09:40:14.954Z</time></trkpt><trkpt lat="41.4877431" lon="13.3105518"><ele>83.0</ele><time>2026-03-25T09:40:15.954Z</time></trkpt><trkpt lat="41.4877676" lon="13.3104311"><ele>83.0</ele><time>2026-03-25T09:40:16.959Z</time></trkpt><trkpt lat="41.487792" lon="13.3103071"><ele>83.0</ele><time>2026-03-25T09:40:17.952Z</time></trkpt><trkpt lat="41.4878161" lon="13.3101689"><ele>83.0</ele><time>2026-03-25T09:40:18.962Z</time></trkpt><trkpt lat="41.4878417" lon="13.3100289"><ele>83.0</ele><time>2026-03-25T09:40:19.958Z</time></trkpt><trkpt lat="41.4878669" lon="13.3098988"><ele>83.0</ele><time>2026-03-25T09:40:20.955Z</time></trkpt><trkpt lat="41.4878998" lon="13.3097682"><ele>83.0</ele><time>2026-03-25T09:40:21.955Z</time></trkpt><trkpt lat="41.4879151" lon="13.309633"><ele>83.0</ele><time>2026-03-25T09:40:22.953Z</time></trkpt><trkpt lat="41.4879147" lon="13.3094913"><ele>83.0</ele><time>2026-03-25T09:40:23.954Z</time></trkpt><trkpt lat="41.4879134" lon="13.3093619"><ele>83.0</ele><time>2026-03-25T09:40:24.953Z</time></trkpt><trkpt lat="41.4879128" lon="13.3092158"><ele>83.75</ele><time>2026-03-25T09:40:25.948Z</time></trkpt><trkpt lat="41.4879054" lon="13.3090585"><ele>84.5</ele><time>2026-03-25T09:40:26.964Z</time></trkpt><trkpt lat="41.4879093" lon="13.3088828"><ele>85.25</ele><time>2026-03-25T09:40:27.958Z</time></trkpt><trkpt lat="41.4879266" lon="13.3087251"><ele>86.0</ele><time>2026-03-25T09:40:28.949Z</time></trkpt><trkpt lat="41.4879432" lon="13.3085638"><ele>87.4</ele><time>2026-03-25T09:40:29.949Z</time></trkpt><trkpt lat="41.4879473" lon="13.3084249"><ele>88.8</ele><time>2026-03-25T09:40:30.95Z</time></trkpt><trkpt lat="41.4879561" lon="13.3082786"><ele>90.2</ele><time>2026-03-25T09:40:31.957Z</time></trkpt><trkpt lat="41.4879706" lon="13.3081351"><ele>91.60000000000001</ele><time>2026-03-25T09:40:32.954Z</time></trkpt><trkpt lat="41.4879853" lon="13.308006"><ele>93.0</ele><time>2026-03-25T09:40:33.947Z</time></trkpt><trkpt lat="41.4880012" lon="13.3078701"><ele>93.2</ele><time>2026-03-25T09:40:34.951Z</time></trkpt><trkpt lat="41.4879956" lon="13.3077195"><ele>93.4</ele><time>2026-03-25T09:40:35.955Z</time></trkpt><trkpt lat="41.4879832" lon="13.3076079"><ele>93.60000000000001</ele><time>2026-03-25T09:40:36.956Z</time></trkpt><trkpt lat="41.4879801" lon="13.3075128"><ele>93.80000000000001</ele><time>2026-03-25T09:40:37.951Z</time></trkpt><trkpt lat="41.488006" lon="13.3073394"><ele>94.0</ele><time>2026-03-25T09:40:39.948Z</time></trkpt><trkpt lat="41.4880461" lon="13.3072326"><ele>94.0</ele><time>2026-03-25T09:40:40.951Z</time></trkpt><trkpt lat="41.4880486" lon="13.3071365"><ele>94.0</ele><time>2026-03-25T09:40:41.958Z</time></trkpt><trkpt lat="41.4880177" lon="13.3070443"><ele>94.0</ele><time>2026-03-25T09:40:42.954Z</time></trkpt><trkpt lat="41.487966" lon="13.3069239"><ele>94.0</ele><time>2026-03-25T09:40:43.954Z</time></trkpt><trkpt lat="41.487907" lon="13.3068398"><ele>94.0</ele><time>2026-03-25T09:40:44.951Z</time></trkpt><trkpt lat="41.4878672" lon="13.3067488"><ele>94.0</ele><time>2026-03-25T09:40:45.969Z</time></trkpt><trkpt lat="41.4878639" lon="13.3066294"><ele>93.16666666666666</ele><time>2026-03-25T09:40:46.954Z</time></trkpt><trkpt lat="41.4878758" lon="13.3065172"><ele>92.33333333333333</ele><time>2026-03-25T09:40:47.952Z</time></trkpt><trkpt lat="41.4878589" lon="13.3064048"><ele>91.5</ele><time>2026-03-25T09:40:48.958Z</time></trkpt><trkpt lat="41.4878354" lon="13.306324"><ele>90.66666666666667</ele><time>2026-03-25T09:40:49.954Z</time></trkpt><trkpt lat="41.4878379" lon="13.3061858"><ele>89.83333333333334</ele><time>2026-03-25T09:40:51.95Z</time></trkpt><trkpt lat="41.4878671" lon="13.306056"><ele>89.0</ele><time>2026-03-25T09:40:53.962Z</time></trkpt><trkpt lat="41.4878715" lon="13.3059623"><ele>88.83333333333334</ele><time>2026-03-25T09:40:55.958Z</time></trkpt><trkpt lat="41.4878543" lon="13.3058625"><ele>88.66666666666667</ele><time>2026-03-25T09:40:58.976Z</time></trkpt><trkpt lat="41.4878042" lon="13.3057925"><ele>88.5</ele><time>2026-03-25T09:41:01.954Z</time></trkpt><trkpt lat="41.4877497" lon="13.305737"><ele>88.33333333333333</ele><time>2026-03-25T09:41:03.958Z</time></trkpt><trkpt lat="41.4876804" lon="13.305603"><ele>88.16666666666666</ele><time>2026-03-25T09:41:05.964Z</time></trkpt><trkpt lat="41.4876339" lon="13.3055166"><ele>88.0</ele><time>2026-03-25T09:41:07.968Z</time></trkpt><trkpt lat="41.4876037" lon="13.3053944"><ele>87.80000000000001</ele><time>2026-03-25T09:41:09.961Z</time></trkpt><trkpt lat="41.4875674" lon="13.305312"><ele>87.6</ele><time>2026-03-25T09:41:11.953Z</time></trkpt><trkpt lat="41.487511" lon="13.305246"><ele>87.4</ele><time>2026-03-25T09:41:13.954Z</time></trkpt><trkpt lat="41.4874316" lon="13.3052047"><ele>87.19999999999999</ele><time>2026-03-25T09:41:15.956Z</time></trkpt><trkpt lat="41.4873215" lon="13.3051306"><ele>87.0</ele><time>2026-03-25T09:41:17.955Z</time></trkpt><trkpt lat="41.4872398" lon="13.3050617"><ele>87.0</ele><time>2026-03-25T09:41:19.95Z</time></trkpt><trkpt lat="41.487171" lon="13.3050042"><ele>87.0</ele><time>2026-03-25T09:41:22.958Z</time></trkpt><trkpt lat="41.4870942" lon="13.3049105"><ele>87.0</ele><time>2026-03-25T09:41:27.961Z</time></trkpt><trkpt lat="41.4870327" lon="13.3048778"><ele>87.0</ele><time>2026-03-25T09:41:29.951Z</time></trkpt><trkpt lat="41.4869393" lon="13.3048644"><ele>87.0</ele><time>2026-03-25T09:41:32.956Z</time></trkpt><trkpt lat="41.4868678" lon="13.3048972"><ele>87.0</ele><time>2026-03-25T09:41:34.959Z</time></trkpt><trkpt lat="41.4868035" lon="13.3049472"><ele>85.5</ele><time>2026-03-25T09:41:36.956Z</time></trkpt><trkpt lat="41.4867295" lon="13.3050092"><ele>84.0</ele><time>2026-03-25T09:41:38.959Z</time></trkpt><trkpt lat="41.48665" lon="13.3051007"><ele>82.5</ele><time>2026-03-25T09:41:40.958Z</time></trkpt><trkpt lat="41.4865731" lon="13.3050973"><ele>81.0</ele><time>2026-03-25T09:41:44.954Z</time></trkpt><trkpt lat="41.4864942" lon="13.3050948"><ele>79.5</ele><time>2026-03-25T09:41:46.954Z</time></trkpt><trkpt lat="41.4864239" lon="13.305048"><ele>78.0</ele><time>2026-03-25T09:41:48.955Z</time></trkpt><trkpt lat="41.4863644" lon="13.3049537"><ele>78.0</ele><time>2026-03-25T09:41:51.955Z</time></trkpt><trkpt lat="41.4863237" lon="13.3048869"><ele>78.0</ele><time>2026-03-25T09:41:54.954Z</time></trkpt><trkpt lat="41.4862442" lon="13.3048402"><ele>78.0</ele><time>2026-03-25T09:41:58.956Z</time></trkpt><trkpt lat="41.4861754" lon="13.304757"><ele>78.0</ele><time>2026-03-25T09:42:00.95Z</time></trkpt><trkpt lat="41.4861139" lon="13.304649"><ele>78.0</ele><time>2026-03-25T09:42:02.951Z</time></trkpt><trkpt lat="41.4860328" lon="13.3045347"><ele>78.0</ele><time>2026-03-25T09:42:04.958Z</time></trkpt><trkpt lat="41.485984" lon="13.3044513"><ele>78.0</ele><time>2026-03-25T09:42:05.96Z</time></trkpt><trkpt lat="41.485933" lon="13.3043681"><ele>78.0</ele><time>2026-03-25T09:42:06.954Z</time></trkpt><trkpt lat="41.4858863" lon="13.3042846"><ele>78.0</ele><time>2026-03-25T09:42:07.962Z</time></trkpt><trkpt lat="41.4858538" lon="13.3042061"><ele>78.0</ele><time>2026-03-25T09:42:08.958Z</time></trkpt><trkpt lat="41.4858363" lon="13.3041187"><ele>78.0</ele><time>2026-03-25T09:42:09.954Z</time></trkpt><trkpt lat="41.4858174" lon="13.3040336"><ele>78.0</ele><time>2026-03-25T09:42:10.958Z</time></trkpt><trkpt lat="41.4857827" lon="13.3039598"><ele>78.4</ele><time>2026-03-25T09:42:11.956Z</time></trkpt><trkpt lat="41.4857231" lon="13.3038668"><ele>78.8</ele><time>2026-03-25T09:42:13.951Z</time></trkpt><trkpt lat="41.4856586" lon="13.3038459"><ele>79.2</ele><time>2026-03-25T09:42:15.98Z</time></trkpt><trkpt lat="41.4855519" lon="13.3038556"><ele>79.6</ele><time>2026-03-25T09:42:17.967Z</time></trkpt><trkpt lat="41.4854595" lon="13.3038614"><ele>80.0</ele><time>2026-03-25T09:42:19.955Z</time></trkpt><trkpt lat="41.4853399" lon="13.3039072"><ele>81.2</ele><time>2026-03-25T09:42:21.955Z</time></trkpt><trkpt lat="41.4852667" lon="13.3039301"><ele>82.4</ele><time>2026-03-25T09:42:22.973Z</time></trkpt><trkpt lat="41.4851999" lon="13.3039555"><ele>83.6</ele><time>2026-03-25T09:42:23.959Z</time></trkpt><trkpt lat="41.4850875" lon="13.3040288"><ele>84.8</ele><time>2026-03-25T09:42:25.955Z</time></trkpt><trkpt lat="41.4850153" lon="13.3041192"><ele>86.0</ele><time>2026-03-25T09:42:27.956Z</time></trkpt><trkpt lat="41.4849148" lon="13.3041873"><ele>86.0</ele><time>2026-03-25T09:42:30.958Z</time></trkpt><trkpt lat="41.4848038" lon="13.3042128"><ele>86.0</ele><time>2026-03-25T09:42:32.961Z</time></trkpt><trkpt lat="41.4847042" lon="13.3042404"><ele>86.0</ele><time>2026-03-25T09:42:34.951Z</time></trkpt><trkpt lat="41.4846482" lon="13.3043054"><ele>86.0</ele><time>2026-03-25T09:42:36.957Z</time></trkpt><trkpt lat="41.484609" lon="13.3043802"><ele>86.0</ele><time>2026-03-25T09:42:37.961Z</time></trkpt><trkpt lat="41.484573" lon="13.3044612"><ele>86.0</ele><time>2026-03-25T09:42:38.959Z</time></trkpt><trkpt lat="41.4845101" lon="13.3045754"><ele>86.19999999999999</ele><time>2026-03-25T09:42:40.955Z</time></trkpt><trkpt lat="41.4844483" lon="13.3046427"><ele>86.39999999999999</ele><time>2026-03-25T09:42:42.957Z</time></trkpt><trkpt lat="41.4843615" lon="13.3046917"><ele>86.6</ele><time>2026-03-25T09:42:44.956Z</time></trkpt><trkpt lat="41.4842713" lon="13.3047699"><ele>86.8</ele><time>2026-03-25T09:42:46.96Z</time></trkpt><trkpt lat="41.4842137" lon="13.3048154"><ele>87.0</ele><time>2026-03-25T09:42:47.958Z</time></trkpt><trkpt lat="41.4841135" lon="13.3048767"><ele>87.33333333333333</ele><time>2026-03-25T09:42:49.959Z</time></trkpt><trkpt lat="41.4840349" lon="13.3049769"><ele>87.66666666666667</ele><time>2026-03-25T09:42:51.966Z</time></trkpt><trkpt lat="41.4839847" lon="13.3050488"><ele>88.0</ele><time>2026-03-25T09:42:52.955Z</time></trkpt><trkpt lat="41.4839287" lon="13.3051075"><ele>88.33333333333334</ele><time>2026-03-25T09:42:53.962Z</time></trkpt><trkpt lat="41.4838711" lon="13.3051531"><ele>88.66666666666667</ele><time>2026-03-25T09:42:54.954Z</time></trkpt><trkpt lat="41.4838214" lon="13.3052059"><ele>89.0</ele><time>2026-03-25T09:42:55.956Z</time></trkpt><trkpt lat="41.4837582" lon="13.3052591"><ele>89.0</ele><time>2026-03-25T09:42:57.961Z</time></trkpt><trkpt lat="41.4836938" lon="13.3052915"><ele>89.0</ele><time>2026-03-25T09:42:59.964Z</time></trkpt><trkpt lat="41.4835952" lon="13.3053598"><ele>89.0</ele><time>2026-03-25T09:43:01.956Z</time></trkpt><trkpt lat="41.4835341" lon="13.3054091"><ele>89.0</ele><time>2026-03-25T09:43:02.955Z</time></trkpt><trkpt lat="41.4834753" lon="13.3054494"><ele>89.0</ele><time>2026-03-25T09:43:03.967Z</time></trkpt><trkpt lat="41.4834026" lon="13.3054865"><ele>89.0</ele><time>2026-03-25T09:43:05.955Z</time></trkpt><trkpt lat="41.4833458" lon="13.3055249"><ele>88.99999999999999</ele><time>2026-03-25T09:43:07.955Z</time></trkpt><trkpt lat="41.4832667" lon="13.3055938"><ele>89.0</ele><time>2026-03-25T09:43:09.956Z</time></trkpt><trkpt lat="41.4832153" lon="13.3056538"><ele>89.0</ele><time>2026-03-25T09:43:10.958Z</time></trkpt><trkpt lat="41.4831715" lon="13.3057252"><ele>89.0</ele><time>2026-03-25T09:43:11.96Z</time></trkpt><trkpt lat="41.4831369" lon="13.3058045"><ele>89.0</ele><time>2026-03-25T09:43:12.954Z</time></trkpt><trkpt lat="41.4831042" lon="13.3058848"><ele>88.99999999999999</ele><time>2026-03-25T09:43:13.963Z</time></trkpt><trkpt lat="41.4830731" lon="13.3059653"><ele>89.0</ele><time>2026-03-25T09:43:14.955Z</time></trkpt><trkpt lat="41.4830482" lon="13.3060428"><ele>89.0</ele><time>2026-03-25T09:43:15.961Z</time></trkpt><trkpt lat="41.4830195" lon="13.306131"><ele>89.0</ele><time>2026-03-25T09:43:16.954Z</time></trkpt><trkpt lat="41.4829929" lon="13.3062155"><ele>89.0</ele><time>2026-03-25T09:43:17.967Z</time></trkpt><trkpt lat="41.4829682" lon="13.3062958"><ele>89.0</ele><time>2026-03-25T09:43:18.952Z</time></trkpt><trkpt lat="41.4829147" lon="13.306437"><ele>89.0</ele><time>2026-03-25T09:43:20.961Z</time></trkpt><trkpt lat="41.4828832" lon="13.3065162"><ele>89.0</ele><time>2026-03-25T09:43:21.947Z</time></trkpt><trkpt lat="41.4828437" lon="13.3066643"><ele>89.14285714285714</ele><time>2026-03-25T09:43:23.951Z</time></trkpt><trkpt lat="41.482827" lon="13.3067509"><ele>89.28571428571428</ele><time>2026-03-25T09:43:24.952Z</time></trkpt><trkpt lat="41.4828079" lon="13.3068359"><ele>89.42857142857142</ele><time>2026-03-25T09:43:25.956Z</time></trkpt><trkpt lat="41.4827827" lon="13.3069262"><ele>89.57142857142857</ele><time>2026-03-25T09:43:26.968Z</time></trkpt><trkpt lat="41.4827562" lon="13.3070178"><ele>89.71428571428572</ele><time>2026-03-25T09:43:27.957Z</time></trkpt><trkpt lat="41.4827309" lon="13.3071038"><ele>89.85714285714285</ele><time>2026-03-25T09:43:28.951Z</time></trkpt><trkpt lat="41.4827072" lon="13.3071878"><ele>90.0</ele><time>2026-03-25T09:43:29.957Z</time></trkpt><trkpt lat="41.482666" lon="13.3073306"><ele>90.0</ele><time>2026-03-25T09:43:31.957Z</time></trkpt><trkpt lat="41.4826132" lon="13.3074884"><ele>90.0</ele><time>2026-03-25T09:43:33.955Z</time></trkpt><trkpt lat="41.4825863" lon="13.3075736"><ele>90.0</ele><time>2026-03-25T09:43:34.953Z</time></trkpt><trkpt lat="41.4825533" lon="13.3077053"><ele>90.0</ele><time>2026-03-25T09:43:36.958Z</time></trkpt><trkpt lat="41.4825198" lon="13.3078141"><ele>90.0</ele><time>2026-03-25T09:43:38.958Z</time></trkpt><trkpt lat="41.4825318" lon="13.3079124"><ele>90.0</ele><time>2026-03-25T09:43:54.961Z</time></trkpt><trkpt lat="41.4825234" lon="13.3080026"><ele>90.0</ele><time>2026-03-25T09:43:57.962Z</time></trkpt><trkpt lat="41.4824914" lon="13.3081088"><ele>90.0</ele><time>2026-03-25T09:44:03.971Z</time></trkpt><trkpt lat="41.4824561" lon="13.3082218"><ele>90.0</ele><time>2026-03-25T09:44:08.955Z</time></trkpt><trkpt lat="41.4824255" lon="13.3083221"><ele>90.0</ele><time>2026-03-25T09:44:10.956Z</time></trkpt><trkpt lat="41.4823838" lon="13.3084687"><ele>90.0</ele><time>2026-03-25T09:44:12.957Z</time></trkpt><trkpt lat="41.4823626" lon="13.308574"><ele>91.16666666666667</ele><time>2026-03-25T09:44:13.954Z</time></trkpt><trkpt lat="41.4823428" lon="13.3086779"><ele>92.33333333333334</ele><time>2026-03-25T09:44:14.959Z</time></trkpt><trkpt lat="41.4823217" lon="13.3087695"><ele>93.5</ele><time>2026-03-25T09:44:15.962Z</time></trkpt><trkpt lat="41.4822909" lon="13.3088762"><ele>94.66666666666667</ele><time>2026-03-25T09:44:16.959Z</time></trkpt><trkpt lat="41.4822674" lon="13.3089616"><ele>95.83333333333334</ele><time>2026-03-25T09:44:17.963Z</time></trkpt><trkpt lat="41.4822258" lon="13.3090789"><ele>97.0</ele><time>2026-03-25T09:44:19.963Z</time></trkpt><trkpt lat="41.4821511" lon="13.3091226"><ele>98.16666666666667</ele><time>2026-03-25T09:44:21.966Z</time></trkpt><trkpt lat="41.4820796" lon="13.3091494"><ele>99.33333333333334</ele><time>2026-03-25T09:44:23.958Z</time></trkpt><trkpt lat="41.4820209" lon="13.3091907"><ele>100.5</ele><time>2026-03-25T09:44:25.968Z</time></trkpt><trkpt lat="41.4819626" lon="13.3091442"><ele>101.66666666666666</ele><time>2026-03-25T09:46:15.977Z</time></trkpt><trkpt lat="41.4819313" lon="13.3090694"><ele>102.83333333333333</ele><time>2026-03-25T09:46:23.97Z</time></trkpt><trkpt lat="41.4818781" lon="13.3089225"><ele>104.0</ele><time>2026-03-25T09:46:54.963Z</time></trkpt><trkpt lat="41.4818344" lon="13.3088213"><ele>104.0</ele><time>2026-03-25T09:46:56.959Z</time></trkpt><trkpt lat="41.4817872" lon="13.3087016"><ele>104.0</ele><time>2026-03-25T09:46:58.966Z</time></trkpt><trkpt lat="41.4817583" lon="13.3085896"><ele>104.0</ele><time>2026-03-25T09:47:00.97Z</time></trkpt><trkpt lat="41.4817198" lon="13.3084641"><ele>104.0</ele><time>2026-03-25T09:47:03.958Z</time></trkpt><trkpt lat="41.4816484" lon="13.3083576"><ele>104.0</ele><time>2026-03-25T09:47:05.953Z</time></trkpt><trkpt lat="41.4815715" lon="13.3082787"><ele>104.0</ele><time>2026-03-25T09:47:07.96Z</time></trkpt><trkpt lat="41.4814936" lon="13.3081783"><ele>104.0</ele><time>2026-03-25T09:47:09.955Z</time></trkpt><trkpt lat="41.4814302" lon="13.3080736"><ele>104.0</ele><time>2026-03-25T09:47:11.966Z</time></trkpt><trkpt lat="41.4813751" lon="13.3079422"><ele>104.0</ele><time>2026-03-25T09:47:13.96Z</time></trkpt><trkpt lat="41.481318" lon="13.3078034"><ele>104.0</ele><time>2026-03-25T09:47:15.962Z</time></trkpt><trkpt lat="41.481263" lon="13.3076684"><ele>102.83333333333333</ele><time>2026-03-25T09:47:17.965Z</time></trkpt><trkpt lat="41.4812222" lon="13.3075426"><ele>101.66666666666666</ele><time>2026-03-25T09:47:19.968Z</time></trkpt><trkpt lat="41.4812051" lon="13.3074419"><ele>100.5</ele><time>2026-03-25T09:47:21.958Z</time></trkpt><trkpt lat="41.4811966" lon="13.3073288"><ele>99.33333333333334</ele><time>2026-03-25T09:47:23.992Z</time></trkpt><trkpt lat="41.4811728" lon="13.3071994"><ele>98.16666666666667</ele><time>2026-03-25T09:47:25.955Z</time></trkpt><trkpt lat="41.4811367" lon="13.3071229"><ele>97.0</ele><time>2026-03-25T09:47:27.962Z</time></trkpt><trkpt lat="41.4811018" lon="13.3070213"><ele>96.39999999999999</ele><time>2026-03-25T09:47:30.957Z</time></trkpt><trkpt lat="41.4810901" lon="13.306931"><ele>95.8</ele><time>2026-03-25T09:47:32.963Z</time></trkpt><trkpt lat="41.4811075" lon="13.3068145"><ele>95.2</ele><time>2026-03-25T09:47:34.967Z</time></trkpt><trkpt lat="41.4811661" lon="13.306713"><ele>94.6</ele><time>2026-03-25T09:47:36.962Z</time></trkpt><trkpt lat="41.4812456" lon="13.3066061"><ele>94.0</ele><time>2026-03-25T09:47:38.967Z</time></trkpt><trkpt lat="41.4813176" lon="13.306526"><ele>94.0</ele><time>2026-03-25T09:47:40.966Z</time></trkpt><trkpt lat="41.4813876" lon="13.3064557"><ele>94.0</ele><time>2026-03-25T09:47:42.966Z</time></trkpt><trkpt lat="41.4814592" lon="13.3064313"><ele>94.0</ele><time>2026-03-25T09:47:44.959Z</time></trkpt><trkpt lat="41.4815227" lon="13.3064659"><ele>94.0</ele><time>2026-03-25T09:47:46.96Z</time></trkpt><trkpt lat="41.4816005" lon="13.306547"><ele>94.0</ele><time>2026-03-25T09:47:48.969Z</time></trkpt><trkpt lat="41.4816824" lon="13.3066494"><ele>94.0</ele><time>2026-03-25T09:47:50.949Z</time></trkpt><trkpt lat="41.4817557" lon="13.3067707"><ele>94.0</ele><time>2026-03-25T09:47:52.965Z</time></trkpt><trkpt lat="41.4817866" lon="13.3068791"><ele>94.0</ele><time>2026-03-25T09:47:54.969Z</time></trkpt><trkpt lat="41.4818068" lon="13.3070175"><ele>94.0</ele><time>2026-03-25T09:47:56.947Z</time></trkpt><trkpt lat="41.4818498" lon="13.3071655"><ele>94.0</ele><time>2026-03-25T09:47:58.963Z</time></trkpt><trkpt lat="41.4818879" lon="13.3072634"><ele>94.0</ele><time>2026-03-25T09:48:00.961Z</time></trkpt><trkpt lat="41.4819333" lon="13.3073227"><ele>93.33333333333333</ele><time>2026-03-25T09:48:02.97Z</time></trkpt><trkpt lat="41.4819908" lon="13.3073689"><ele>92.66666666666666</ele><time>2026-03-25T09:48:04.952Z</time></trkpt><trkpt lat="41.4820717" lon="13.3074314"><ele>92.0</ele><time>2026-03-25T09:48:06.963Z</time></trkpt><trkpt lat="41.4821661" lon="13.3075023"><ele>91.33333333333333</ele><time>2026-03-25T09:48:08.954Z</time></trkpt><trkpt lat="41.4822488" lon="13.3075637"><ele>90.66666666666667</ele><time>2026-03-25T09:48:10.956Z</time></trkpt><trkpt lat="41.4823135" lon="13.3075821"><ele>90.0</ele><time>2026-03-25T09:48:12.971Z</time></trkpt><trkpt lat="41.4823987" lon="13.3075795"><ele>90.0</ele><time>2026-03-25T09:48:15.959Z</time></trkpt><trkpt lat="41.4825251" lon="13.307621"><ele>90.0</ele><time>2026-03-25T09:48:32.972Z</time></trkpt><trkpt lat="41.4825686" lon="13.3075444"><ele>90.0</ele><time>2026-03-25T09:48:38.958Z</time></trkpt><trkpt lat="41.4825996" lon="13.3074593"><ele>90.0</ele><time>2026-03-25T09:48:40.962Z</time></trkpt><trkpt lat="41.4826297" lon="13.3073652"><ele>90.0</ele><time>2026-03-25T09:48:42.954Z</time></trkpt><trkpt lat="41.4826747" lon="13.3072504"><ele>90.0</ele><time>2026-03-25T09:48:44.963Z</time></trkpt><trkpt lat="41.4827111" lon="13.3071266"><ele>89.2</ele><time>2026-03-25T09:48:46.973Z</time></trkpt><trkpt lat="41.4827485" lon="13.3069823"><ele>88.4</ele><time>2026-03-25T09:48:48.968Z</time></trkpt><trkpt lat="41.4827974" lon="13.3068189"><ele>87.6</ele><time>2026-03-25T09:48:50.972Z</time></trkpt><trkpt lat="41.482827" lon="13.3067263"><ele>86.8</ele><time>2026-03-25T09:48:51.965Z</time></trkpt><trkpt lat="41.4828449" lon="13.3066319"><ele>86.0</ele><time>2026-03-25T09:48:52.969Z</time></trkpt><trkpt lat="41.4828762" lon="13.306487"><ele>85.5</ele><time>2026-03-25T09:48:54.967Z</time></trkpt><trkpt lat="41.4829308" lon="13.3063492"><ele>85.0</ele><time>2026-03-25T09:48:56.96Z</time></trkpt><trkpt lat="41.4829656" lon="13.3062595"><ele>84.5</ele><time>2026-03-25T09:48:57.96Z</time></trkpt><trkpt lat="41.4829885" lon="13.3061659"><ele>84.0</ele><time>2026-03-25T09:48:58.967Z</time></trkpt><trkpt lat="41.48301" lon="13.3060712"><ele>83.5</ele><time>2026-03-25T09:48:59.964Z</time></trkpt><trkpt lat="41.4830306" lon="13.3059718"><ele>83.0</ele><time>2026-03-25T09:49:00.962Z</time></trkpt><trkpt lat="41.4830586" lon="13.3058662"><ele>84.0</ele><time>2026-03-25T09:49:01.963Z</time></trkpt><trkpt lat="41.4830902" lon="13.3057696"><ele>85.0</ele><time>2026-03-25T09:49:02.958Z</time></trkpt><trkpt lat="41.4831296" lon="13.3056797"><ele>86.0</ele><time>2026-03-25T09:49:03.974Z</time></trkpt><trkpt lat="41.4831746" lon="13.3055996"><ele>87.0</ele><time>2026-03-25T09:49:04.981Z</time></trkpt><trkpt lat="41.4832211" lon="13.3055327"><ele>88.0</ele><time>2026-03-25T09:49:05.958Z</time></trkpt><trkpt lat="41.4833165" lon="13.3054392"><ele>89.0</ele><time>2026-03-25T09:49:07.958Z</time></trkpt><trkpt lat="41.4833697" lon="13.305391"><ele>89.0</ele><time>2026-03-25T09:49:08.953Z</time></trkpt><trkpt lat="41.483425" lon="13.3053416"><ele>89.0</ele><time>2026-03-25T09:49:09.959Z</time></trkpt><trkpt lat="41.4834799" lon="13.305294"><ele>89.0</ele><time>2026-03-25T09:49:10.955Z</time></trkpt><trkpt lat="41.4835359" lon="13.3052548"><ele>89.0</ele><time>2026-03-25T09:49:11.958Z</time></trkpt><trkpt lat="41.4836302" lon="13.305203"><ele>89.0</ele><time>2026-03-25T09:49:13.96Z</time></trkpt><trkpt lat="41.483715" lon="13.3051628"><ele>89.0</ele><time>2026-03-25T09:49:15.977Z</time></trkpt><trkpt lat="41.4838113" lon="13.3050774"><ele>88.5</ele><time>2026-03-25T09:49:17.965Z</time></trkpt><trkpt lat="41.4839117" lon="13.3049774"><ele>88.0</ele><time>2026-03-25T09:49:19.967Z</time></trkpt><trkpt lat="41.4839903" lon="13.3048726"><ele>87.5</ele><time>2026-03-25T09:49:21.96Z</time></trkpt><trkpt lat="41.4840722" lon="13.3047902"><ele>87.0</ele><time>2026-03-25T09:49:23.963Z</time></trkpt><trkpt lat="41.4841777" lon="13.3047145"><ele>87.0</ele><time>2026-03-25T09:49:25.956Z</time></trkpt><trkpt lat="41.4842302" lon="13.3046617"><ele>87.0</ele><time>2026-03-25T09:49:26.957Z</time></trkpt><trkpt lat="41.4842833" lon="13.3046162"><ele>87.0</ele><time>2026-03-25T09:49:27.967Z</time></trkpt><trkpt lat="41.4843407" lon="13.304577"><ele>87.0</ele><time>2026-03-25T09:49:28.967Z</time></trkpt><trkpt lat="41.4844062" lon="13.3045521"><ele>87.0</ele><time>2026-03-25T09:49:29.965Z</time></trkpt><trkpt lat="41.4844726" lon="13.3044955"><ele>87.0</ele><time>2026-03-25T09:49:31.96Z</time></trkpt><trkpt lat="41.4845363" lon="13.3043889"><ele>87.0</ele><time>2026-03-25T09:49:33.968Z</time></trkpt><trkpt lat="41.4846113" lon="13.3042572"><ele>86.8</ele><time>2026-03-25T09:49:35.955Z</time></trkpt><trkpt lat="41.4846889" lon="13.3041721"><ele>86.6</ele><time>2026-03-25T09:49:37.963Z</time></trkpt><trkpt lat="41.484775" lon="13.3041695"><ele>86.39999999999999</ele><time>2026-03-25T09:49:39.958Z</time></trkpt><trkpt lat="41.4848745" lon="13.3041443"><ele>86.19999999999999</ele><time>2026-03-25T09:49:41.968Z</time></trkpt><trkpt lat="41.484963" lon="13.3040807"><ele>86.0</ele><time>2026-03-25T09:49:43.972Z</time></trkpt><trkpt lat="41.4850289" lon="13.3040375"><ele>86.0</ele><time>2026-03-25T09:49:45.975Z</time></trkpt><trkpt lat="41.4850977" lon="13.3039589"><ele>86.0</ele><time>2026-03-25T09:49:47.977Z</time></trkpt><trkpt lat="41.4851958" lon="13.3039159"><ele>86.0</ele><time>2026-03-25T09:49:49.967Z</time></trkpt><trkpt lat="41.4852949" lon="13.303868"><ele>86.0</ele><time>2026-03-25T09:49:51.965Z</time></trkpt><trkpt lat="41.4853891" lon="13.3038329"><ele>86.0</ele><time>2026-03-25T09:49:53.966Z</time></trkpt><trkpt lat="41.4854856" lon="13.3038234"><ele>84.8</ele><time>2026-03-25T09:49:55.981Z</time></trkpt><trkpt lat="41.4855839" lon="13.3038118"><ele>83.6</ele><time>2026-03-25T09:49:57.947Z</time></trkpt><trkpt lat="41.48567" lon="13.3038179"><ele>82.4</ele><time>2026-03-25T09:49:59.965Z</time></trkpt><trkpt lat="41.4857509" lon="13.30387"><ele>81.2</ele><time>2026-03-25T09:50:02.967Z</time></trkpt><trkpt lat="41.4858001" lon="13.3039741"><ele>80.0</ele><time>2026-03-25T09:50:04.963Z</time></trkpt><trkpt lat="41.4858484" lon="13.3041614"><ele>79.6</ele><time>2026-03-25T09:50:07.958Z</time></trkpt><trkpt lat="41.4859159" lon="13.3043296"><ele>79.2</ele><time>2026-03-25T09:50:10.965Z</time></trkpt><trkpt lat="41.4859783" lon="13.3044293"><ele>78.8</ele><time>2026-03-25T09:50:12.953Z</time></trkpt><trkpt lat="41.4860207" lon="13.3044918"><ele>78.4</ele><time>2026-03-25T09:50:13.973Z</time></trkpt><trkpt lat="41.4860713" lon="13.3045685"><ele>78.0</ele><time>2026-03-25T09:50:14.964Z</time></trkpt><trkpt lat="41.4861238" lon="13.3046461"><ele>78.0</ele><time>2026-03-25T09:50:15.961Z</time></trkpt><trkpt lat="41.4861889" lon="13.3047624"><ele>78.0</ele><time>2026-03-25T09:50:17.959Z</time></trkpt><trkpt lat="41.4862578" lon="13.3048574"><ele>78.0</ele><time>2026-03-25T09:51:05.987Z</time></trkpt><trkpt lat="41.4863174" lon="13.3048949"><ele>78.0</ele><time>2026-03-25T09:51:08.968Z</time></trkpt><trkpt lat="41.4863714" lon="13.3049716"><ele>78.0</ele><time>2026-03-25T09:51:10.961Z</time></trkpt><trkpt lat="41.4864502" lon="13.3050687"><ele>78.0</ele><time>2026-03-25T09:51:12.969Z</time></trkpt><trkpt lat="41.4865329" lon="13.3051021"><ele>78.0</ele><time>2026-03-25T09:51:14.965Z</time></trkpt><trkpt lat="41.486616" lon="13.3051111"><ele>78.0</ele><time>2026-03-25T09:51:16.963Z</time></trkpt><trkpt lat="41.4866797" lon="13.3050877"><ele>78.0</ele><time>2026-03-25T09:51:38.965Z</time></trkpt><trkpt lat="41.4867348" lon="13.3050152"><ele>78.0</ele><time>2026-03-25T09:51:43.962Z</time></trkpt><trkpt lat="41.4868218" lon="13.3049371"><ele>78.0</ele><time>2026-03-25T09:51:45.957Z</time></trkpt><trkpt lat="41.4868981" lon="13.3048724"><ele>78.0</ele><time>2026-03-25T09:51:47.963Z</time></trkpt><trkpt lat="41.4869878" lon="13.3048777"><ele>78.0</ele><time>2026-03-25T09:51:49.955Z</time></trkpt><trkpt lat="41.4870766" lon="13.3049042"><ele>78.0</ele><time>2026-03-25T09:51:51.959Z</time></trkpt><trkpt lat="41.4871364" lon="13.3049787"><ele>78.0</ele><time>2026-03-25T09:51:53.976Z</time></trkpt><trkpt lat="41.4871876" lon="13.3050302"><ele>78.0</ele><time>2026-03-25T09:51:54.979Z</time></trkpt><trkpt lat="41.4872464" lon="13.305081"><ele>78.0</ele><time>2026-03-25T09:51:55.964Z</time></trkpt><trkpt lat="41.4873028" lon="13.3051305"><ele>79.8</ele><time>2026-03-25T09:51:56.96Z</time></trkpt><trkpt lat="41.4873905" lon="13.3052127"><ele>81.6</ele><time>2026-03-25T09:51:58.964Z</time></trkpt><trkpt lat="41.4874817" lon="13.3052769"><ele>83.39999999999999</ele><time>2026-03-25T09:52:02.967Z</time></trkpt><trkpt lat="41.4875482" lon="13.3053319"><ele>85.19999999999999</ele><time>2026-03-25T09:52:06.993Z</time></trkpt><trkpt lat="41.487619" lon="13.3054153"><ele>87.0</ele><time>2026-03-25T09:52:09.962Z</time></trkpt><trkpt lat="41.4876549" lon="13.3055017"><ele>87.19999999999999</ele><time>2026-03-25T09:52:11.957Z</time></trkpt><trkpt lat="41.4877219" lon="13.3056213"><ele>87.4</ele><time>2026-03-25T09:52:14.962Z</time></trkpt><trkpt lat="41.4877907" lon="13.3057425"><ele>87.6</ele><time>2026-03-25T09:52:16.958Z</time></trkpt><trkpt lat="41.4878334" lon="13.3058162"><ele>87.80000000000001</ele><time>2026-03-25T09:52:17.96Z</time></trkpt><trkpt lat="41.4878925" lon="13.305937"><ele>88.0</ele><time>2026-03-25T09:52:19.961Z</time></trkpt><trkpt lat="41.4879162" lon="13.3060934"><ele>88.0</ele><time>2026-03-25T09:52:21.97Z</time></trkpt><trkpt lat="41.487918" lon="13.3061987"><ele>88.0</ele><time>2026-03-25T09:52:22.954Z</time></trkpt><trkpt lat="41.4879208" lon="13.3063107"><ele>88.0</ele><time>2026-03-25T09:52:23.956Z</time></trkpt><trkpt lat="41.487926" lon="13.3064206"><ele>88.0</ele><time>2026-03-25T09:52:24.957Z</time></trkpt><trkpt lat="41.4879446" lon="13.3065292"><ele>88.0</ele><time>2026-03-25T09:52:25.952Z</time></trkpt><trkpt lat="41.4879552" lon="13.3066449"><ele>88.0</ele><time>2026-03-25T09:52:26.951Z</time></trkpt><trkpt lat="41.4879625" lon="13.3067584"><ele>89.2</ele><time>2026-03-25T09:52:27.954Z</time></trkpt><trkpt lat="41.4879841" lon="13.3068755"><ele>90.4</ele><time>2026-03-25T09:52:28.951Z</time></trkpt><trkpt lat="41.4880289" lon="13.3069962"><ele>91.60000000000001</ele><time>2026-03-25T09:52:29.961Z</time></trkpt><trkpt lat="41.4880786" lon="13.3071117"><ele>92.80000000000001</ele><time>2026-03-25T09:52:30.957Z</time></trkpt><trkpt lat="41.488107" lon="13.307222"><ele>94.0</ele><time>2026-03-25T09:52:31.951Z</time></trkpt><trkpt lat="41.4880986" lon="13.3073459"><ele>94.0</ele><time>2026-03-25T09:52:33.959Z</time></trkpt><trkpt lat="41.4880527" lon="13.3074113"><ele>94.0</ele><time>2026-03-25T09:52:38.963Z</time></trkpt><trkpt lat="41.4880164" lon="13.307524"><ele>94.0</ele><time>2026-03-25T09:52:41.967Z</time></trkpt><trkpt lat="41.4880031" lon="13.3076693"><ele>94.0</ele><time>2026-03-25T09:52:43.961Z</time></trkpt><trkpt lat="41.4880139" lon="13.3077663"><ele>94.0</ele><time>2026-03-25T09:52:44.966Z</time></trkpt><trkpt lat="41.4880121" lon="13.3078851"><ele>94.0</ele><time>2026-03-25T09:52:45.959Z</time></trkpt><trkpt lat="41.4880142" lon="13.3080014"><ele>93.80000000000001</ele><time>2026-03-25T09:52:46.957Z</time></trkpt><trkpt lat="41.4880073" lon="13.3081357"><ele>93.60000000000001</ele><time>2026-03-25T09:52:47.967Z</time></trkpt><trkpt lat="41.4879986" lon="13.3082705"><ele>93.4</ele><time>2026-03-25T09:52:48.969Z</time></trkpt><trkpt lat="41.4879919" lon="13.3083947"><ele>93.2</ele><time>2026-03-25T09:52:49.96Z</time></trkpt><trkpt lat="41.4879804" lon="13.3085272"><ele>93.0</ele><time>2026-03-25T09:52:50.951Z</time></trkpt><trkpt lat="41.4879734" lon="13.3086634"><ele>93.0</ele><time>2026-03-25T09:52:51.961Z</time></trkpt><trkpt lat="41.4879674" lon="13.3088068"><ele>93.0</ele><time>2026-03-25T09:52:52.955Z</time></trkpt><trkpt lat="41.4879575" lon="13.3089572"><ele>93.0</ele><time>2026-03-25T09:52:53.95Z</time></trkpt><trkpt lat="41.4879448" lon="13.3091077"><ele>93.0</ele><time>2026-03-25T09:52:54.961Z</time></trkpt><trkpt lat="41.4879368" lon="13.3092594"><ele>93.0</ele><time>2026-03-25T09:52:55.955Z</time></trkpt><trkpt lat="41.4879309" lon="13.3094091"><ele>91.60000000000001</ele><time>2026-03-25T09:52:56.956Z</time></trkpt><trkpt lat="41.4879243" lon="13.3095556"><ele>90.2</ele><time>2026-03-25T09:52:57.962Z</time></trkpt><trkpt lat="41.4879178" lon="13.3096961"><ele>88.8</ele><time>2026-03-25T09:52:58.964Z</time></trkpt><trkpt lat="41.4879095" lon="13.3098269"><ele>87.4</ele><time>2026-03-25T09:52:59.979Z</time></trkpt><trkpt lat="41.487898" lon="13.309944"><ele>86.0</ele><time>2026-03-25T09:53:00.959Z</time></trkpt><trkpt lat="41.4878843" lon="13.3100696"><ele>85.4</ele><time>2026-03-25T09:53:01.951Z</time></trkpt><trkpt lat="41.487851" lon="13.31021"><ele>84.8</ele><time>2026-03-25T09:53:02.959Z</time></trkpt><trkpt lat="41.4878305" lon="13.3103635"><ele>84.2</ele><time>2026-03-25T09:53:03.964Z</time></trkpt><trkpt lat="41.4878108" lon="13.3105032"><ele>83.60000000000001</ele><time>2026-03-25T09:53:04.964Z</time></trkpt><trkpt lat="41.487784" lon="13.3106426"><ele>83.0</ele><time>2026-03-25T09:53:05.948Z</time></trkpt><trkpt lat="41.4877458" lon="13.3107827"><ele>83.0</ele><time>2026-03-25T09:53:06.959Z</time></trkpt><trkpt lat="41.4877192" lon="13.3109139"><ele>83.0</ele><time>2026-03-25T09:53:07.968Z</time></trkpt><trkpt lat="41.4876889" lon="13.3110379"><ele>83.0</ele><time>2026-03-25T09:53:08.958Z</time></trkpt><trkpt lat="41.4876577" lon="13.3111625"><ele>83.0</ele><time>2026-03-25T09:53:09.958Z</time></trkpt><trkpt lat="41.4876322" lon="13.3112872"><ele>83.0</ele><time>2026-03-25T09:53:10.957Z</time></trkpt><trkpt lat="41.4876067" lon="13.3114145"><ele>83.80000000000001</ele><time>2026-03-25T09:53:11.958Z</time></trkpt><trkpt lat="41.4875716" lon="13.3115507"><ele>84.6</ele><time>2026-03-25T09:53:12.955Z</time></trkpt><trkpt lat="41.4875374" lon="13.3116815"><ele>85.4</ele><time>2026-03-25T09:53:13.962Z</time></trkpt><trkpt lat="41.4875032" lon="13.3118081"><ele>86.19999999999999</ele><time>2026-03-25T09:53:14.964Z</time></trkpt><trkpt lat="41.4874655" lon="13.3119389"><ele>87.0</ele><time>2026-03-25T09:53:15.966Z</time></trkpt><trkpt lat="41.4874164" lon="13.3120636"><ele>87.0</ele><time>2026-03-25T09:53:16.952Z</time></trkpt><trkpt lat="41.487355" lon="13.312171"><ele>87.0</ele><time>2026-03-25T09:53:17.968Z</time></trkpt><trkpt lat="41.4872922" lon="13.3122551"><ele>87.0</ele><time>2026-03-25T09:53:18.967Z</time></trkpt><trkpt lat="41.4872246" lon="13.3123336"><ele>87.0</ele><time>2026-03-25T09:53:19.958Z</time></trkpt><trkpt lat="41.4871661" lon="13.312399"><ele>87.0</ele><time>2026-03-25T09:53:20.964Z</time></trkpt><trkpt lat="41.4870905" lon="13.3124785"><ele>87.6</ele><time>2026-03-25T09:53:22.962Z</time></trkpt><trkpt lat="41.4870293" lon="13.3125334"><ele>88.19999999999999</ele><time>2026-03-25T09:53:24.979Z</time></trkpt><trkpt lat="41.4869421" lon="13.3125964"><ele>88.8</ele><time>2026-03-25T09:53:26.958Z</time></trkpt><trkpt lat="41.4868172" lon="13.3126494"><ele>89.4</ele><time>2026-03-25T09:53:28.961Z</time></trkpt><trkpt lat="41.4867527" lon="13.3126798"><ele>90.0</ele><time>2026-03-25T09:53:29.969Z</time></trkpt><trkpt lat="41.4866673" lon="13.312684"><ele>90.0</ele><time>2026-03-25T09:53:30.961Z</time></trkpt><trkpt lat="41.4865836" lon="13.3126926"><ele>90.0</ele><time>2026-03-25T09:53:31.954Z</time></trkpt><trkpt lat="41.4864881" lon="13.3126833"><ele>90.0</ele><time>2026-03-25T09:53:32.966Z</time></trkpt><trkpt lat="41.4863765" lon="13.3126774"><ele>90.0</ele><time>2026-03-25T09:53:33.953Z</time></trkpt><trkpt lat="41.486251" lon="13.312672"><ele>90.0</ele><time>2026-03-25T09:53:34.958Z</time></trkpt><trkpt lat="41.4861157" lon="13.312657"><ele>90.25</ele><time>2026-03-25T09:53:35.97Z</time></trkpt><trkpt lat="41.4859803" lon="13.3126415"><ele>90.5</ele><time>2026-03-25T09:53:36.965Z</time></trkpt><trkpt lat="41.4858405" lon="13.3125935"><ele>90.75</ele><time>2026-03-25T09:53:37.954Z</time></trkpt><trkpt lat="41.4856912" lon="13.3125221"><ele>91.0</ele><time>2026-03-25T09:53:38.962Z</time></trkpt><trkpt lat="41.4855389" lon="13.312446"><ele>89.66666666666666</ele><time>2026-03-25T09:53:39.97Z</time></trkpt><trkpt lat="41.4853909" lon="13.3123736"><ele>88.33333333333333</ele><time>2026-03-25T09:53:40.956Z</time></trkpt><trkpt lat="41.4852448" lon="13.312309"><ele>87.0</ele><time>2026-03-25T09:53:41.969Z</time></trkpt><trkpt lat="41.4850999" lon="13.3122564"><ele>88.5</ele><time>2026-03-25T09:53:42.951Z</time></trkpt><trkpt lat="41.4849506" lon="13.3122077"><ele>90.0</ele><time>2026-03-25T09:53:43.956Z</time></trkpt><trkpt lat="41.4848092" lon="13.3121693"><ele>91.5</ele><time>2026-03-25T09:53:44.953Z</time></trkpt><trkpt lat="41.4846691" lon="13.312143"><ele>93.0</ele><time>2026-03-25T09:53:45.965Z</time></trkpt><trkpt lat="41.4845185" lon="13.3121328"><ele>93.0</ele><time>2026-03-25T09:53:46.961Z</time></trkpt><trkpt lat="41.484362" lon="13.3121229"><ele>93.0</ele><time>2026-03-25T09:53:47.959Z</time></trkpt><trkpt lat="41.4842195" lon="13.3121162"><ele>93.0</ele><time>2026-03-25T09:53:48.952Z</time></trkpt><trkpt lat="41.4840851" lon="13.3121041"><ele>93.0</ele><time>2026-03-25T09:53:49.957Z</time></trkpt><trkpt lat="41.4839567" lon="13.3121224"><ele>93.0</ele><time>2026-03-25T09:53:50.949Z</time></trkpt><trkpt lat="41.4838216" lon="13.3121659"><ele>93.0</ele><time>2026-03-25T09:53:51.955Z</time></trkpt><trkpt lat="41.4836932" lon="13.3122308"><ele>93.0</ele><time>2026-03-25T09:53:52.958Z</time></trkpt><trkpt lat="41.4835772" lon="13.3122925"><ele>93.0</ele><time>2026-03-25T09:53:53.952Z</time></trkpt><trkpt lat="41.4834844" lon="13.3123836"><ele>94.0</ele><time>2026-03-25T09:53:54.96Z</time></trkpt><trkpt lat="41.4834076" lon="13.312511"><ele>95.0</ele><time>2026-03-25T09:53:55.953Z</time></trkpt><trkpt lat="41.483326" lon="13.3126333"><ele>96.0</ele><time>2026-03-25T09:53:56.969Z</time></trkpt><trkpt lat="41.4832415" lon="13.3127404"><ele>97.0</ele><time>2026-03-25T09:53:57.961Z</time></trkpt><trkpt lat="41.4831468" lon="13.3128354"><ele>97.0</ele><time>2026-03-25T09:53:58.965Z</time></trkpt><trkpt lat="41.4830694" lon="13.3129432"><ele>97.0</ele><time>2026-03-25T09:53:59.951Z</time></trkpt><trkpt lat="41.4829973" lon="13.313049"><ele>97.0</ele><time>2026-03-25T09:54:00.961Z</time></trkpt><trkpt lat="41.4829344" lon="13.3131504"><ele>97.0</ele><time>2026-03-25T09:54:01.963Z</time></trkpt><trkpt lat="41.4828728" lon="13.313244"><ele>97.0</ele><time>2026-03-25T09:54:02.962Z</time></trkpt><trkpt lat="41.4828184" lon="13.3133279"><ele>97.16666666666667</ele><time>2026-03-25T09:54:03.955Z</time></trkpt><trkpt lat="41.482753" lon="13.313382"><ele>97.33333333333334</ele><time>2026-03-25T09:54:04.957Z</time></trkpt><trkpt lat="41.482687" lon="13.3134383"><ele>97.5</ele><time>2026-03-25T09:54:05.964Z</time></trkpt><trkpt lat="41.4826074" lon="13.3134638"><ele>97.66666666666666</ele><time>2026-03-25T09:54:06.962Z</time></trkpt><trkpt lat="41.4825194" lon="13.3134436"><ele>97.83333333333333</ele><time>2026-03-25T09:54:07.965Z</time></trkpt><trkpt lat="41.4824167" lon="13.3133904"><ele>98.0</ele><time>2026-03-25T09:54:08.963Z</time></trkpt><trkpt lat="41.4823328" lon="13.3133919"><ele>97.99999999999999</ele><time>2026-03-25T09:54:09.96Z</time></trkpt><trkpt lat="41.4822524" lon="13.3134039"><ele>98.0</ele><time>2026-03-25T09:54:10.957Z</time></trkpt><trkpt lat="41.4821565" lon="13.3134161"><ele>98.0</ele><time>2026-03-25T09:54:11.958Z</time></trkpt><trkpt lat="41.482072" lon="13.3134375"><ele>98.0</ele><time>2026-03-25T09:54:12.954Z</time></trkpt><trkpt lat="41.4819969" lon="13.3134674"><ele>97.99999999999999</ele><time>2026-03-25T09:54:13.956Z</time></trkpt><trkpt lat="41.4819502" lon="13.3135252"><ele>98.0</ele><time>2026-03-25T09:54:14.948Z</time></trkpt><trkpt lat="41.4819134" lon="13.3136812"><ele>98.4</ele><time>2026-03-25T09:54:16.957Z</time></trkpt><trkpt lat="41.4818984" lon="13.3138292"><ele>98.80000000000001</ele><time>2026-03-25T09:54:18.96Z</time></trkpt><trkpt lat="41.4818214" lon="13.3137483"><ele>99.2</ele><time>2026-03-25T09:54:23.957Z</time></trkpt><trkpt lat="41.4817878" lon="13.3136188"><ele>99.6</ele><time>2026-03-25T09:54:25.961Z</time></trkpt><trkpt lat="41.4817511" lon="13.3135408"><ele>100.0</ele><time>2026-03-25T09:54:26.968Z</time></trkpt><trkpt lat="41.4817142" lon="13.3134518"><ele>100.00000000000001</ele><time>2026-03-25T09:54:27.955Z</time></trkpt><trkpt lat="41.4816813" lon="13.3133763"><ele>100.0</ele><time>2026-03-25T09:54:28.968Z</time></trkpt><trkpt lat="41.4816177" lon="13.3132726"><ele>100.0</ele><time>2026-03-25T09:54:30.96Z</time></trkpt><trkpt lat="41.4815508" lon="13.313213"><ele>100.0</ele><time>2026-03-25T09:54:32.968Z</time></trkpt><trkpt lat="41.4814681" lon="13.3131462"><ele>100.00000000000001</ele><time>2026-03-25T09:54:34.967Z</time></trkpt><trkpt lat="41.4814308" lon="13.3130734"><ele>100.0</ele><time>2026-03-25T09:54:35.965Z</time></trkpt><trkpt lat="41.4813617" lon="13.3129281"><ele>99.83333333333334</ele><time>2026-03-25T09:54:37.964Z</time></trkpt><trkpt lat="41.4813227" lon="13.3128448"><ele>99.66666666666667</ele><time>2026-03-25T09:54:38.963Z</time></trkpt><trkpt lat="41.481281" lon="13.3127601"><ele>99.5</ele><time>2026-03-25T09:54:39.963Z</time></trkpt><trkpt lat="41.4812373" lon="13.3126549"><ele>99.33333333333334</ele><time>2026-03-25T09:54:40.967Z</time></trkpt><trkpt lat="41.4811916" lon="13.3125935"><ele>99.16666666666667</ele><time>2026-03-25T09:54:41.961Z</time></trkpt><trkpt lat="41.4811264" lon="13.3125165"><ele>99.0</ele><time>2026-03-25T09:54:42.965Z</time></trkpt><trkpt lat="41.4810699" lon="13.3124459"><ele>99.66666666666667</ele><time>2026-03-25T09:54:43.972Z</time></trkpt><trkpt lat="41.481012" lon="13.3123829"><ele>100.33333333333334</ele><time>2026-03-25T09:54:44.966Z</time></trkpt><trkpt lat="41.4809431" lon="13.3123138"><ele>101.0</ele><time>2026-03-25T09:54:45.973Z</time></trkpt><trkpt lat="41.4808795" lon="13.312237"><ele>101.66666666666667</ele><time>2026-03-25T09:54:46.961Z</time></trkpt><trkpt lat="41.4808106" lon="13.3121357"><ele>102.33333333333334</ele><time>2026-03-25T09:54:47.964Z</time></trkpt><trkpt lat="41.4807536" lon="13.3120328"><ele>103.0</ele><time>2026-03-25T09:54:48.956Z</time></trkpt><trkpt lat="41.4807182" lon="13.3119374"><ele>103.60000000000001</ele><time>2026-03-25T09:54:49.955Z</time></trkpt><trkpt lat="41.4806952" lon="13.3118416"><ele>104.2</ele><time>2026-03-25T09:54:51.956Z</time></trkpt><trkpt lat="41.4806641" lon="13.3116568"><ele>104.8</ele><time>2026-03-25T09:55:28.969Z</time></trkpt><trkpt lat="41.4806896" lon="13.3115449"><ele>105.4</ele><time>2026-03-25T09:55:31Z</time></trkpt><trkpt lat="41.4807307" lon="13.3113758"><ele>106.0</ele><time>2026-03-25T09:55:32.973Z</time></trkpt><trkpt lat="41.4807599" lon="13.3112725"><ele>106.00000000000001</ele><time>2026-03-25T09:55:33.956Z</time></trkpt><trkpt lat="41.480787" lon="13.311183"><ele>106.0</ele><time>2026-03-25T09:55:34.963Z</time></trkpt><trkpt lat="41.48085" lon="13.3110474"><ele>106.0</ele><time>2026-03-25T09:55:36.948Z</time></trkpt><trkpt lat="41.4809201" lon="13.3109741"><ele>106.0</ele><time>2026-03-25T09:55:37.953Z</time></trkpt><trkpt lat="41.4809804" lon="13.3109048"><ele>106.00000000000001</ele><time>2026-03-25T09:55:38.956Z</time></trkpt><trkpt lat="41.4810355" lon="13.3108464"><ele>106.0</ele><time>2026-03-25T09:55:39.963Z</time></trkpt><trkpt lat="41.4810837" lon="13.3107847"><ele>106.00000000000001</ele><time>2026-03-25T09:55:40.961Z</time></trkpt><trkpt lat="41.4811493" lon="13.3107338"><ele>106.0</ele><time>2026-03-25T09:55:41.954Z</time></trkpt><trkpt lat="41.4812129" lon="13.3106958"><ele>106.0</ele><time>2026-03-25T09:55:42.959Z</time></trkpt><trkpt lat="41.4812651" lon="13.3106487"><ele>106.0</ele><time>2026-03-25T09:55:43.958Z</time></trkpt><trkpt lat="41.4813275" lon="13.3105306"><ele>106.00000000000001</ele><time>2026-03-25T09:55:45.961Z</time></trkpt><trkpt lat="41.4813637" lon="13.3104581"><ele>106.0</ele><time>2026-03-25T09:55:46.952Z</time></trkpt><trkpt lat="41.4814023" lon="13.3103759"><ele>105.6</ele><time>2026-03-25T09:55:47.96Z</time></trkpt><trkpt lat="41.481479" lon="13.3102547"><ele>105.19999999999999</ele><time>2026-03-25T09:55:49.958Z</time></trkpt><trkpt lat="41.4815235" lon="13.3101951"><ele>104.80000000000001</ele><time>2026-03-25T09:55:50.955Z</time></trkpt><trkpt lat="41.4815867" lon="13.310111"><ele>104.4</ele><time>2026-03-25T09:55:51.962Z</time></trkpt><trkpt lat="41.4816557" lon="13.3100142"><ele>104.0</ele><time>2026-03-25T09:55:52.959Z</time></trkpt><trkpt lat="41.4817122" lon="13.3099014"><ele>103.99999999999999</ele><time>2026-03-25T09:55:53.96Z</time></trkpt><trkpt lat="41.4817615" lon="13.3097871"><ele>104.0</ele><time>2026-03-25T09:55:54.959Z</time></trkpt><trkpt lat="41.4818096" lon="13.3096779"><ele>104.0</ele><time>2026-03-25T09:55:55.954Z</time></trkpt><trkpt lat="41.4818541" lon="13.3095828"><ele>104.0</ele><time>2026-03-25T09:55:56.963Z</time></trkpt><trkpt lat="41.4818984" lon="13.3095117"><ele>103.99999999999999</ele><time>2026-03-25T09:55:57.971Z</time></trkpt><trkpt lat="41.4819356" lon="13.3094435"><ele>104.0</ele><time>2026-03-25T09:55:58.965Z</time></trkpt><trkpt lat="41.4819719" lon="13.3093153"><ele>103.99999999999999</ele><time>2026-03-25T09:56:00.964Z</time></trkpt><trkpt lat="41.481986" lon="13.3092273"><ele>104.0</ele><time>2026-03-25T09:56:02.959Z</time></trkpt><trkpt lat="41.4820345" lon="13.3091597"><ele>104.0</ele><time>2026-03-25T09:56:33.954Z</time></trkpt><trkpt lat="41.4821111" lon="13.3091"><ele>104.0</ele><time>2026-03-25T09:56:37.956Z</time></trkpt><trkpt lat="41.4821821" lon="13.3090503"><ele>103.99999999999999</ele><time>2026-03-25T09:56:40.959Z</time></trkpt><trkpt lat="41.482219" lon="13.3089737"><ele>104.0</ele><time>2026-03-25T09:56:43.969Z</time></trkpt><trkpt lat="41.4822462" lon="13.3088524"><ele>102.83333333333333</ele><time>2026-03-25T09:56:46.959Z</time></trkpt><trkpt lat="41.4822683" lon="13.3087541"><ele>101.66666666666666</ele><time>2026-03-25T09:56:49.959Z</time></trkpt><trkpt lat="41.4822944" lon="13.3086512"><ele>100.5</ele><time>2026-03-25T09:56:52.985Z</time></trkpt><trkpt lat="41.4823249" lon="13.3085439"><ele>99.33333333333334</ele><time>2026-03-25T09:56:55.992Z</time></trkpt><trkpt lat="41.4823624" lon="13.3084255"><ele>98.16666666666667</ele><time>2026-03-25T09:56:58.954Z</time></trkpt><trkpt lat="41.4823896" lon="13.308317"><ele>97.0</ele><time>2026-03-25T09:57:00.959Z</time></trkpt><trkpt lat="41.4824216" lon="13.3081956"><ele>95.83333333333334</ele><time>2026-03-25T09:57:02.963Z</time></trkpt><trkpt lat="41.4824526" lon="13.3080766"><ele>94.66666666666667</ele><time>2026-03-25T09:57:04.974Z</time></trkpt><trkpt lat="41.4824808" lon="13.3079655"><ele>93.5</ele><time>2026-03-25T09:57:06.96Z</time></trkpt><trkpt lat="41.4825" lon="13.3078669"><ele>92.33333333333334</ele><time>2026-03-25T09:57:08.967Z</time></trkpt><trkpt lat="41.4825151" lon="13.3077848"><ele>91.16666666666667</ele><time>2026-03-25T09:57:10.969Z</time></trkpt><trkpt lat="41.4825386" lon="13.3077004"><ele>90.0</ele><time>2026-03-25T09:57:13.957Z</time></trkpt><trkpt lat="41.4825168" lon="13.3075874"><ele>90.0</ele><time>2026-03-25T10:01:58.967Z</time></trkpt><trkpt lat="41.4824206" lon="13.3075976"><ele>90.0</ele><time>2026-03-25T10:02:00.974Z</time></trkpt><trkpt lat="41.4823276" lon="13.3075968"><ele>90.0</ele><time>2026-03-25T10:02:02.964Z</time></trkpt><trkpt lat="41.482246" lon="13.3075758"><ele>90.0</ele><time>2026-03-25T10:02:05.957Z</time></trkpt><trkpt lat="41.4821643" lon="13.3075167"><ele>90.0</ele><time>2026-03-25T10:02:17.958Z</time></trkpt><trkpt lat="41.4820833" lon="13.3074481"><ele>90.57142857142857</ele><time>2026-03-25T10:02:19.957Z</time></trkpt><trkpt lat="41.4820206" lon="13.3074027"><ele>91.14285714285715</ele><time>2026-03-25T10:02:21.959Z</time></trkpt><trkpt lat="41.4819615" lon="13.3073572"><ele>91.71428571428572</ele><time>2026-03-25T10:02:23.965Z</time></trkpt><trkpt lat="41.4819003" lon="13.3072989"><ele>92.28571428571428</ele><time>2026-03-25T10:02:25.96Z</time></trkpt><trkpt lat="41.4818646" lon="13.3072171"><ele>92.85714285714286</ele><time>2026-03-25T10:02:27.967Z</time></trkpt><trkpt lat="41.4818264" lon="13.3071368"><ele>93.42857142857143</ele><time>2026-03-25T10:02:29.962Z</time></trkpt><trkpt lat="41.4817857" lon="13.3070313"><ele>94.0</ele><time>2026-03-25T10:02:31.965Z</time></trkpt><trkpt lat="41.4817656" lon="13.3069071"><ele>94.0</ele><time>2026-03-25T10:02:33.963Z</time></trkpt><trkpt lat="41.4817511" lon="13.3068186"><ele>94.0</ele><time>2026-03-25T10:02:39.961Z</time></trkpt><trkpt lat="41.4816932" lon="13.3067111"><ele>94.0</ele><time>2026-03-25T10:02:42.955Z</time></trkpt><trkpt lat="41.4816128" lon="13.3066044"><ele>94.0</ele><time>2026-03-25T10:02:44.968Z</time></trkpt><trkpt lat="41.4815671" lon="13.3065411"><ele>94.0</ele><time>2026-03-25T10:02:45.957Z</time></trkpt><trkpt lat="41.4814851" lon="13.3064652"><ele>94.0</ele><time>2026-03-25T10:02:47.959Z</time></trkpt><trkpt lat="41.4814218" lon="13.306446"><ele>94.0</ele><time>2026-03-25T10:02:49.965Z</time></trkpt><trkpt lat="41.4813505" lon="13.3065137"><ele>94.0</ele><time>2026-03-25T10:02:51.961Z</time></trkpt><trkpt lat="41.481279" lon="13.3066202"><ele>94.0</ele><time>2026-03-25T10:02:53.961Z</time></trkpt><trkpt lat="41.4812117" lon="13.3067182"><ele>94.0</ele><time>2026-03-25T10:02:55.97Z</time></trkpt><trkpt lat="41.4811329" lon="13.306792"><ele>94.0</ele><time>2026-03-25T10:02:57.965Z</time></trkpt><trkpt lat="41.4811083" lon="13.3069035"><ele>94.0</ele><time>2026-03-25T10:02:59.968Z</time></trkpt><trkpt lat="41.4811113" lon="13.3069968"><ele>94.0</ele><time>2026-03-25T10:03:01.966Z</time></trkpt><trkpt lat="41.4810394" lon="13.3070288"><ele>94.0</ele><time>2026-03-25T10:03:15.967Z</time></trkpt><trkpt lat="41.4809629" lon="13.3070065"><ele>94.0</ele><time>2026-03-25T10:03:18.972Z</time></trkpt><trkpt lat="41.4808831" lon="13.3069578"><ele>94.0</ele><time>2026-03-25T10:03:21.965Z</time></trkpt><trkpt lat="41.4808267" lon="13.3068966"><ele>94.0</ele><time>2026-03-25T10:03:23.961Z</time></trkpt><trkpt lat="41.4807724" lon="13.3068261"><ele>94.0</ele><time>2026-03-25T10:03:25.965Z</time></trkpt><trkpt lat="41.4807129" lon="13.3067485"><ele>94.0</ele><time>2026-03-25T10:03:27.961Z</time></trkpt><trkpt lat="41.4806554" lon="13.3066931"><ele>94.0</ele><time>2026-03-25T10:03:29.962Z</time></trkpt><trkpt lat="41.4805865" lon="13.3066568"><ele>94.0</ele><time>2026-03-25T10:03:31.962Z</time></trkpt><trkpt lat="41.4805115" lon="13.3066194"><ele>94.0</ele><time>2026-03-25T10:03:33.955Z</time></trkpt><trkpt lat="41.4804238" lon="13.3065988"><ele>94.0</ele><time>2026-03-25T10:03:35.96Z</time></trkpt><trkpt lat="41.4803214" lon="13.3065747"><ele>92.33333333333333</ele><time>2026-03-25T10:03:37.96Z</time></trkpt><trkpt lat="41.4802285" lon="13.3065155"><ele>90.66666666666666</ele><time>2026-03-25T10:03:39.959Z</time></trkpt><trkpt lat="41.4801633" lon="13.3064726"><ele>89.0</ele><time>2026-03-25T10:03:41.956Z</time></trkpt><trkpt lat="41.4800823" lon="13.306465"><ele>87.33333333333333</ele><time>2026-03-25T10:03:43.958Z</time></trkpt><trkpt lat="41.4800099" lon="13.306468"><ele>85.66666666666667</ele><time>2026-03-25T10:03:45.962Z</time></trkpt><trkpt lat="41.479915" lon="13.306471"><ele>84.0</ele><time>2026-03-25T10:03:47.957Z</time></trkpt><trkpt lat="41.4798261" lon="13.3064611"><ele>84.0</ele><time>2026-03-25T10:03:49.959Z</time></trkpt><trkpt lat="41.4797408" lon="13.306425"><ele>84.0</ele><time>2026-03-25T10:03:51.962Z</time></trkpt><trkpt lat="41.4796665" lon="13.3063758"><ele>84.0</ele><time>2026-03-25T10:03:53.955Z</time></trkpt><trkpt lat="41.4795856" lon="13.3063621"><ele>84.0</ele><time>2026-03-25T10:03:55.955Z</time></trkpt><trkpt lat="41.4795024" lon="13.3063664"><ele>84.0</ele><time>2026-03-25T10:03:58.96Z</time></trkpt><trkpt lat="41.4794348" lon="13.3063495"><ele>84.0</ele><time>2026-03-25T10:04:01.956Z</time></trkpt><trkpt lat="41.4793583" lon="13.3063116"><ele>81.60000000000001</ele><time>2026-03-25T10:04:07.954Z</time></trkpt><trkpt lat="41.4792596" lon="13.3061694"><ele>79.2</ele><time>2026-03-25T10:04:40.967Z</time></trkpt><trkpt lat="41.4792917" lon="13.3060894"><ele>76.80000000000001</ele><time>2026-03-25T10:04:49.962Z</time></trkpt><trkpt lat="41.4793384" lon="13.3060074"><ele>74.4</ele><time>2026-03-25T10:04:51.957Z</time></trkpt><trkpt lat="41.4793977" lon="13.3059032"><ele>72.0</ele><time>2026-03-25T10:04:53.961Z</time></trkpt><trkpt lat="41.4794737" lon="13.3057975"><ele>72.00000000000001</ele><time>2026-03-25T10:04:55.954Z</time></trkpt><trkpt lat="41.4795191" lon="13.3057373"><ele>72.0</ele><time>2026-03-25T10:04:56.951Z</time></trkpt><trkpt lat="41.4795767" lon="13.3056733"><ele>72.0</ele><time>2026-03-25T10:04:57.955Z</time></trkpt><trkpt lat="41.4796359" lon="13.3056166"><ele>72.0</ele><time>2026-03-25T10:04:58.959Z</time></trkpt><trkpt lat="41.4796915" lon="13.3055623"><ele>72.0</ele><time>2026-03-25T10:04:59.961Z</time></trkpt><trkpt lat="41.4797455" lon="13.3055058"><ele>72.00000000000001</ele><time>2026-03-25T10:05:00.954Z</time></trkpt><trkpt lat="41.4797948" lon="13.3054477"><ele>72.0</ele><time>2026-03-25T10:05:01.959Z</time></trkpt><trkpt lat="41.4798437" lon="13.3053918"><ele>72.0</ele><time>2026-03-25T10:05:02.959Z</time></trkpt><trkpt lat="41.4798876" lon="13.3053278"><ele>72.0</ele><time>2026-03-25T10:05:03.956Z</time></trkpt><trkpt lat="41.4799591" lon="13.3051867"><ele>72.0</ele><time>2026-03-25T10:05:05.956Z</time></trkpt><trkpt lat="41.4799963" lon="13.3051103"><ele>72.0</ele><time>2026-03-25T10:05:06.955Z</time></trkpt><trkpt lat="41.4800333" lon="13.3050421"><ele>72.0</ele><time>2026-03-25T10:05:07.951Z</time></trkpt><trkpt lat="41.4800861" lon="13.3049961"><ele>72.0</ele><time>2026-03-25T10:05:08.951Z</time></trkpt><trkpt lat="41.4801472" lon="13.3049665"><ele>72.0</ele><time>2026-03-25T10:05:09.964Z</time></trkpt><trkpt lat="41.480207" lon="13.3049369"><ele>72.0</ele><time>2026-03-25T10:05:10.951Z</time></trkpt><trkpt lat="41.4803111" lon="13.3048646"><ele>72.0</ele><time>2026-03-25T10:05:12.956Z</time></trkpt><trkpt lat="41.4804058" lon="13.3048139"><ele>72.0</ele><time>2026-03-25T10:05:14.957Z</time></trkpt><trkpt lat="41.480494" lon="13.3047758"><ele>72.0</ele><time>2026-03-25T10:05:16.96Z</time></trkpt><trkpt lat="41.4805905" lon="13.3047392"><ele>73.0</ele><time>2026-03-25T10:05:33.962Z</time></trkpt><trkpt lat="41.480691" lon="13.3047742"><ele>74.0</ele><time>2026-03-25T10:05:47.978Z</time></trkpt><trkpt lat="41.4807798" lon="13.3048146"><ele>75.0</ele><time>2026-03-25T10:06:42.961Z</time></trkpt><trkpt lat="41.4808606" lon="13.3048203"><ele>76.0</ele><time>2026-03-25T10:06:47.974Z</time></trkpt><trkpt lat="41.480938" lon="13.3048252"><ele>77.0</ele><time>2026-03-25T10:06:50.965Z</time></trkpt><trkpt lat="41.4810134" lon="13.3048341"><ele>78.0</ele><time>2026-03-25T10:06:53.968Z</time></trkpt><trkpt lat="41.4810795" lon="13.3048315"><ele>78.0</ele><time>2026-03-25T10:06:59.954Z</time></trkpt><trkpt lat="41.4811598" lon="13.3048232"><ele>78.0</ele><time>2026-03-25T10:07:03.957Z</time></trkpt><trkpt lat="41.4812279" lon="13.3048462"><ele>78.0</ele><time>2026-03-25T10:07:12.962Z</time></trkpt><trkpt lat="41.4811539" lon="13.3048612"><ele>78.0</ele><time>2026-03-25T10:10:05.956Z</time></trkpt><trkpt lat="41.4810733" lon="13.3048777"><ele>78.0</ele><time>2026-03-25T10:10:08.96Z</time></trkpt><trkpt lat="41.4809898" lon="13.3048623"><ele>78.0</ele><time>2026-03-25T10:10:11.959Z</time></trkpt><trkpt lat="41.4809092" lon="13.3048324"><ele>78.0</ele><time>2026-03-25T10:10:13.958Z</time></trkpt><trkpt lat="41.480838" lon="13.3048032"><ele>78.0</ele><time>2026-03-25T10:10:15.95Z</time></trkpt><trkpt lat="41.4807775" lon="13.304775"><ele>78.0</ele><time>2026-03-25T10:10:17.95Z</time></trkpt><trkpt lat="41.4807" lon="13.3047465"><ele>78.0</ele><time>2026-03-25T10:10:20.954Z</time></trkpt><trkpt lat="41.4806319" lon="13.3047854"><ele>78.0</ele><time>2026-03-25T10:10:24.965Z</time></trkpt><trkpt lat="41.4805998" lon="13.3046992"><ele>78.0</ele><time>2026-03-25T10:10:28.961Z</time></trkpt><trkpt lat="41.4806181" lon="13.3046105"><ele>78.0</ele><time>2026-03-25T10:10:37.959Z</time></trkpt><trkpt lat="41.4806938" lon="13.3045525"><ele>76.33333333333333</ele><time>2026-03-25T10:10:41.959Z</time></trkpt><trkpt lat="41.4807686" lon="13.3045246"><ele>74.66666666666667</ele><time>2026-03-25T10:10:43.957Z</time></trkpt><trkpt lat="41.4808635" lon="13.3045169"><ele>73.0</ele><time>2026-03-25T10:10:45.949Z</time></trkpt><trkpt lat="41.4809805" lon="13.3044924"><ele>71.33333333333334</ele><time>2026-03-25T10:10:47.96Z</time></trkpt><trkpt lat="41.4810525" lon="13.3044873"><ele>69.66666666666667</ele><time>2026-03-25T10:10:48.96Z</time></trkpt><trkpt lat="41.4811247" lon="13.3044819"><ele>68.0</ele><time>2026-03-25T10:10:49.959Z</time></trkpt><trkpt lat="41.4811941" lon="13.3044768"><ele>68.33333333333334</ele><time>2026-03-25T10:10:50.964Z</time></trkpt><trkpt lat="41.4812673" lon="13.3044711"><ele>68.66666666666667</ele><time>2026-03-25T10:10:51.953Z</time></trkpt><trkpt lat="41.4813431" lon="13.3044633"><ele>69.0</ele><time>2026-03-25T10:10:52.962Z</time></trkpt><trkpt lat="41.4814199" lon="13.3044526"><ele>69.33333333333333</ele><time>2026-03-25T10:10:53.959Z</time></trkpt><trkpt lat="41.4814992" lon="13.3044416"><ele>69.66666666666666</ele><time>2026-03-25T10:10:54.971Z</time></trkpt><trkpt lat="41.4815738" lon="13.3044328"><ele>70.0</ele><time>2026-03-25T10:10:55.959Z</time></trkpt><trkpt lat="41.4816478" lon="13.3044316"><ele>70.0</ele><time>2026-03-25T10:10:56.958Z</time></trkpt><trkpt lat="41.4817186" lon="13.3044287"><ele>70.0</ele><time>2026-03-25T10:10:57.954Z</time></trkpt><trkpt lat="41.4817836" lon="13.3044268"><ele>70.0</ele><time>2026-03-25T10:10:58.962Z</time></trkpt><trkpt lat="41.4818929" lon="13.304446"><ele>70.0</ele><time>2026-03-25T10:11:00.963Z</time></trkpt><trkpt lat="41.4819826" lon="13.3045064"><ele>70.0</ele><time>2026-03-25T10:11:02.964Z</time></trkpt><trkpt lat="41.482078" lon="13.3044704"><ele>70.0</ele><time>2026-03-25T10:11:04.952Z</time></trkpt><trkpt lat="41.4821251" lon="13.3044061"><ele>70.83333333333333</ele><time>2026-03-25T10:11:05.956Z</time></trkpt><trkpt lat="41.482177" lon="13.3043276"><ele>71.66666666666666</ele><time>2026-03-25T10:11:06.966Z</time></trkpt><trkpt lat="41.4822241" lon="13.3042543"><ele>72.5</ele><time>2026-03-25T10:11:07.95Z</time></trkpt><trkpt lat="41.4822699" lon="13.3041834"><ele>73.33333333333333</ele><time>2026-03-25T10:11:08.969Z</time></trkpt><trkpt lat="41.4823137" lon="13.3041085"><ele>74.16666666666667</ele><time>2026-03-25T10:11:09.95Z</time></trkpt><trkpt lat="41.4823592" lon="13.3040296"><ele>75.0</ele><time>2026-03-25T10:11:10.965Z</time></trkpt><trkpt lat="41.4824098" lon="13.3039407"><ele>73.8</ele><time>2026-03-25T10:11:11.95Z</time></trkpt><trkpt lat="41.4824593" lon="13.303845"><ele>72.6</ele><time>2026-03-25T10:11:12.966Z</time></trkpt><trkpt lat="41.4825034" lon="13.3037399"><ele>71.4</ele><time>2026-03-25T10:11:13.958Z</time></trkpt><trkpt lat="41.4825486" lon="13.3036299"><ele>70.2</ele><time>2026-03-25T10:11:14.956Z</time></trkpt><trkpt lat="41.4825859" lon="13.3035166"><ele>69.0</ele><time>2026-03-25T10:11:15.957Z</time></trkpt><trkpt lat="41.4826142" lon="13.3034044"><ele>69.0</ele><time>2026-03-25T10:11:16.95Z</time></trkpt><trkpt lat="41.4826365" lon="13.3033019"><ele>69.0</ele><time>2026-03-25T10:11:17.967Z</time></trkpt><trkpt lat="41.4826558" lon="13.3032081"><ele>69.0</ele><time>2026-03-25T10:11:18.958Z</time></trkpt><trkpt lat="41.4826817" lon="13.3031008"><ele>69.0</ele><time>2026-03-25T10:11:19.968Z</time></trkpt><trkpt lat="41.482709" lon="13.3029821"><ele>69.0</ele><time>2026-03-25T10:11:20.956Z</time></trkpt><trkpt lat="41.4827376" lon="13.3028566"><ele>69.0</ele><time>2026-03-25T10:11:21.96Z</time></trkpt><trkpt lat="41.4827708" lon="13.3027286"><ele>69.0</ele><time>2026-03-25T10:11:22.957Z</time></trkpt><trkpt lat="41.4828111" lon="13.3026042"><ele>69.0</ele><time>2026-03-25T10:11:23.967Z</time></trkpt><trkpt lat="41.4828592" lon="13.3024813"><ele>69.0</ele><time>2026-03-25T10:11:24.956Z</time></trkpt><trkpt lat="41.4829095" lon="13.3023528"><ele>69.0</ele><time>2026-03-25T10:11:25.963Z</time></trkpt><trkpt lat="41.482965" lon="13.3022218"><ele>69.0</ele><time>2026-03-25T10:11:26.957Z</time></trkpt><trkpt lat="41.4830216" lon="13.3020948"><ele>69.0</ele><time>2026-03-25T10:11:27.953Z</time></trkpt><trkpt lat="41.4830728" lon="13.3019751"><ele>69.0</ele><time>2026-03-25T10:11:28.952Z</time></trkpt><trkpt lat="41.4831164" lon="13.3018641"><ele>69.0</ele><time>2026-03-25T10:11:29.955Z</time></trkpt><trkpt lat="41.4831519" lon="13.3017667"><ele>69.0</ele><time>2026-03-25T10:11:30.955Z</time></trkpt><trkpt lat="41.4831808" lon="13.3016796"><ele>69.0</ele><time>2026-03-25T10:11:31.959Z</time></trkpt><trkpt lat="41.4832125" lon="13.3015587"><ele>69.0</ele><time>2026-03-25T10:11:33.963Z</time></trkpt><trkpt lat="41.4831955" lon="13.3014714"><ele>69.0</ele><time>2026-03-25T10:11:36.971Z</time></trkpt><trkpt lat="41.4831328" lon="13.301436"><ele>69.0</ele><time>2026-03-25T10:11:39.967Z</time></trkpt><trkpt lat="41.4830444" lon="13.301401"><ele>69.0</ele><time>2026-03-25T10:15:21.96Z</time></trkpt><trkpt lat="41.4828249" lon="13.3013989"><ele>69.0</ele><time>2026-03-25T10:15:24.951Z</time></trkpt><trkpt lat="41.4827306" lon="13.3014321"><ele>68.4</ele><time>2026-03-25T10:15:25.956Z</time></trkpt><trkpt lat="41.4826242" lon="13.3014765"><ele>67.80000000000001</ele><time>2026-03-25T10:15:26.962Z</time></trkpt><trkpt lat="41.4825229" lon="13.3015038"><ele>67.19999999999999</ele><time>2026-03-25T10:15:27.959Z</time></trkpt><trkpt lat="41.4824357" lon="13.3015147"><ele>66.6</ele><time>2026-03-25T10:15:28.962Z</time></trkpt><trkpt lat="41.4823564" lon="13.3014996"><ele>66.0</ele><time>2026-03-25T10:15:29.96Z</time></trkpt><trkpt lat="41.4822909" lon="13.3014566"><ele>65.83333333333333</ele><time>2026-03-25T10:15:30.972Z</time></trkpt><trkpt lat="41.4822374" lon="13.301397"><ele>65.66666666666667</ele><time>2026-03-25T10:15:31.956Z</time></trkpt><trkpt lat="41.4821869" lon="13.3013324"><ele>65.5</ele><time>2026-03-25T10:15:32.974Z</time></trkpt><trkpt lat="41.4821307" lon="13.3012681"><ele>65.33333333333334</ele><time>2026-03-25T10:15:33.956Z</time></trkpt><trkpt lat="41.4820679" lon="13.301205"><ele>65.16666666666667</ele><time>2026-03-25T10:15:34.958Z</time></trkpt><trkpt lat="41.4819998" lon="13.3011395"><ele>65.0</ele><time>2026-03-25T10:15:35.964Z</time></trkpt><trkpt lat="41.481928" lon="13.3010751"><ele>65.4</ele><time>2026-03-25T10:15:36.955Z</time></trkpt><trkpt lat="41.4818549" lon="13.3010107"><ele>65.8</ele><time>2026-03-25T10:15:37.956Z</time></trkpt><trkpt lat="41.4817815" lon="13.3009432"><ele>66.2</ele><time>2026-03-25T10:15:38.951Z</time></trkpt><trkpt lat="41.481704" lon="13.3008712"><ele>66.6</ele><time>2026-03-25T10:15:39.954Z</time></trkpt><trkpt lat="41.481624" lon="13.3007941"><ele>67.0</ele><time>2026-03-25T10:15:40.969Z</time></trkpt><trkpt lat="41.481541" lon="13.3007157"><ele>67.0</ele><time>2026-03-25T10:15:41.948Z</time></trkpt><trkpt lat="41.4814548" lon="13.3006365"><ele>67.0</ele><time>2026-03-25T10:15:42.953Z</time></trkpt><trkpt lat="41.4813643" lon="13.3005568"><ele>67.0</ele><time>2026-03-25T10:15:43.949Z</time></trkpt><trkpt lat="41.4812707" lon="13.3004728"><ele>67.0</ele><time>2026-03-25T10:15:44.957Z</time></trkpt><trkpt lat="41.4811779" lon="13.3003851"><ele>67.0</ele><time>2026-03-25T10:15:45.962Z</time></trkpt><trkpt lat="41.4810881" lon="13.3002994"><ele>66.83333333333333</ele><time>2026-03-25T10:15:46.963Z</time></trkpt><trkpt lat="41.481003" lon="13.3002218"><ele>66.66666666666666</ele><time>2026-03-25T10:15:47.962Z</time></trkpt><trkpt lat="41.4809245" lon="13.3001545"><ele>66.5</ele><time>2026-03-25T10:15:48.97Z</time></trkpt><trkpt lat="41.4808578" lon="13.3000972"><ele>66.33333333333333</ele><time>2026-03-25T10:15:49.963Z</time></trkpt><trkpt lat="41.4808033" lon="13.3000477"><ele>66.16666666666667</ele><time>2026-03-25T10:15:50.959Z</time></trkpt><trkpt lat="41.4807159" lon="13.2999747"><ele>66.0</ele><time>2026-03-25T10:15:52.967Z</time></trkpt><trkpt lat="41.48066" lon="13.2999183"><ele>66.0</ele><time>2026-03-25T10:15:54.97Z</time></trkpt><trkpt lat="41.4806591" lon="13.2998142"><ele>66.0</ele><time>2026-03-25T10:15:56.963Z</time></trkpt><trkpt lat="41.4807048" lon="13.2996567"><ele>66.0</ele><time>2026-03-25T10:15:58.966Z</time></trkpt><trkpt lat="41.480734" lon="13.2995616"><ele>66.0</ele><time>2026-03-25T10:15:59.974Z</time></trkpt><trkpt lat="41.4807648" lon="13.2994622"><ele>66.0</ele><time>2026-03-25T10:16:00.96Z</time></trkpt><trkpt lat="41.480797" lon="13.2993457"><ele>66.0</ele><time>2026-03-25T10:16:01.963Z</time></trkpt><trkpt lat="41.4808367" lon="13.2992168"><ele>66.0</ele><time>2026-03-25T10:16:02.963Z</time></trkpt><trkpt lat="41.4808783" lon="13.2990861"><ele>66.0</ele><time>2026-03-25T10:16:03.967Z</time></trkpt><trkpt lat="41.4809234" lon="13.2989526"><ele>66.0</ele><time>2026-03-25T10:16:04.976Z</time></trkpt><trkpt lat="41.4809742" lon="13.2988072"><ele>66.0</ele><time>2026-03-25T10:16:05.964Z</time></trkpt><trkpt lat="41.481027" lon="13.2986574"><ele>65.75</ele><time>2026-03-25T10:16:06.956Z</time></trkpt><trkpt lat="41.4810782" lon="13.2985009"><ele>65.5</ele><time>2026-03-25T10:16:07.959Z</time></trkpt><trkpt lat="41.4811235" lon="13.2983356"><ele>65.25</ele><time>2026-03-25T10:16:08.958Z</time></trkpt><trkpt lat="41.481156" lon="13.2981635"><ele>65.0</ele><time>2026-03-25T10:16:09.958Z</time></trkpt><trkpt lat="41.4811743" lon="13.2979838"><ele>65.0</ele><time>2026-03-25T10:16:10.964Z</time></trkpt><trkpt lat="41.4811799" lon="13.2977948"><ele>65.0</ele><time>2026-03-25T10:16:11.955Z</time></trkpt><trkpt lat="41.4811791" lon="13.2976029"><ele>65.0</ele><time>2026-03-25T10:16:12.961Z</time></trkpt><trkpt lat="41.4811776" lon="13.2974109"><ele>65.0</ele><time>2026-03-25T10:16:13.956Z</time></trkpt><trkpt lat="41.4811752" lon="13.2972182"><ele>65.0</ele><time>2026-03-25T10:16:14.951Z</time></trkpt><trkpt lat="41.4811741" lon="13.297028"><ele>65.0</ele><time>2026-03-25T10:16:15.966Z</time></trkpt><trkpt lat="41.4811782" lon="13.2968393"><ele>65.0</ele><time>2026-03-25T10:16:16.955Z</time></trkpt><trkpt lat="41.4811844" lon="13.2966542"><ele>65.0</ele><time>2026-03-25T10:16:17.956Z</time></trkpt><trkpt lat="41.4811907" lon="13.2964701"><ele>64.5</ele><time>2026-03-25T10:16:18.954Z</time></trkpt><trkpt lat="41.481198" lon="13.2962884"><ele>64.0</ele><time>2026-03-25T10:16:19.955Z</time></trkpt><trkpt lat="41.4812054" lon="13.2961101"><ele>63.5</ele><time>2026-03-25T10:16:20.961Z</time></trkpt><trkpt lat="41.4812136" lon="13.2959337"><ele>63.0</ele><time>2026-03-25T10:16:21.962Z</time></trkpt><trkpt lat="41.4812245" lon="13.2957602"><ele>63.0</ele><time>2026-03-25T10:16:22.957Z</time></trkpt><trkpt lat="41.4812393" lon="13.2955863"><ele>63.0</ele><time>2026-03-25T10:16:23.956Z</time></trkpt><trkpt lat="41.4812592" lon="13.2954118"><ele>63.0</ele><time>2026-03-25T10:16:24.96Z</time></trkpt><trkpt lat="41.4812827" lon="13.2952358"><ele>63.0</ele><time>2026-03-25T10:16:25.957Z</time></trkpt><trkpt lat="41.4813076" lon="13.2950608"><ele>63.0</ele><time>2026-03-25T10:16:26.96Z</time></trkpt><trkpt lat="41.4813313" lon="13.2948885"><ele>63.0</ele><time>2026-03-25T10:16:27.954Z</time></trkpt><trkpt lat="41.481354" lon="13.2947166"><ele>63.0</ele><time>2026-03-25T10:16:28.958Z</time></trkpt><trkpt lat="41.4813752" lon="13.2945436"><ele>63.0</ele><time>2026-03-25T10:16:29.963Z</time></trkpt><trkpt lat="41.4814023" lon="13.2943707"><ele>63.25</ele><time>2026-03-25T10:16:30.958Z</time></trkpt><trkpt lat="41.4814464" lon="13.2942028"><ele>63.5</ele><time>2026-03-25T10:16:31.959Z</time></trkpt><trkpt lat="41.4815155" lon="13.2940492"><ele>63.75</ele><time>2026-03-25T10:16:32.963Z</time></trkpt><trkpt lat="41.4816056" lon="13.2939127"><ele>64.0</ele><time>2026-03-25T10:16:33.956Z</time></trkpt><trkpt lat="41.4817089" lon="13.2937895"><ele>64.0</ele><time>2026-03-25T10:16:34.958Z</time></trkpt><trkpt lat="41.481815" lon="13.2936655"><ele>64.0</ele><time>2026-03-25T10:16:35.958Z</time></trkpt><trkpt lat="41.4819233" lon="13.2935349"><ele>64.0</ele><time>2026-03-25T10:16:36.96Z</time></trkpt><trkpt lat="41.482034" lon="13.2934028"><ele>64.0</ele><time>2026-03-25T10:16:37.958Z</time></trkpt><trkpt lat="41.4821463" lon="13.2932691"><ele>64.0</ele><time>2026-03-25T10:16:38.958Z</time></trkpt><trkpt lat="41.4822576" lon="13.2931337"><ele>64.0</ele><time>2026-03-25T10:16:39.963Z</time></trkpt><trkpt lat="41.4823679" lon="13.2929984"><ele>64.0</ele><time>2026-03-25T10:16:40.961Z</time></trkpt><trkpt lat="41.4824772" lon="13.2928633"><ele>64.0</ele><time>2026-03-25T10:16:41.962Z</time></trkpt><trkpt lat="41.4825871" lon="13.2927288"><ele>64.33333333333333</ele><time>2026-03-25T10:16:42.964Z</time></trkpt><trkpt lat="41.482698" lon="13.2925949"><ele>64.66666666666667</ele><time>2026-03-25T10:16:43.959Z</time></trkpt><trkpt lat="41.4828088" lon="13.2924601"><ele>65.0</ele><time>2026-03-25T10:16:44.96Z</time></trkpt><trkpt lat="41.4829197" lon="13.2923246"><ele>64.0</ele><time>2026-03-25T10:16:45.958Z</time></trkpt><trkpt lat="41.4830319" lon="13.2921874"><ele>63.0</ele><time>2026-03-25T10:16:46.96Z</time></trkpt><trkpt lat="41.4831456" lon="13.2920495"><ele>62.0</ele><time>2026-03-25T10:16:47.952Z</time></trkpt><trkpt lat="41.4832605" lon="13.2919116"><ele>62.0</ele><time>2026-03-25T10:16:48.966Z</time></trkpt><trkpt lat="41.4833763" lon="13.2917738"><ele>62.0</ele><time>2026-03-25T10:16:49.953Z</time></trkpt><trkpt lat="41.4834922" lon="13.2916345"><ele>62.0</ele><time>2026-03-25T10:16:50.957Z</time></trkpt><trkpt lat="41.4836054" lon="13.2914983"><ele>62.0</ele><time>2026-03-25T10:16:51.955Z</time></trkpt><trkpt lat="41.4837156" lon="13.2913616"><ele>62.0</ele><time>2026-03-25T10:16:52.954Z</time></trkpt><trkpt lat="41.4838218" lon="13.2912248"><ele>62.0</ele><time>2026-03-25T10:16:53.962Z</time></trkpt><trkpt lat="41.4839227" lon="13.2910833"><ele>62.0</ele><time>2026-03-25T10:16:54.959Z</time></trkpt><trkpt lat="41.4840139" lon="13.290931"><ele>62.0</ele><time>2026-03-25T10:16:55.953Z</time></trkpt><trkpt lat="41.4840999" lon="13.2907682"><ele>62.0</ele><time>2026-03-25T10:16:56.965Z</time></trkpt><trkpt lat="41.4841804" lon="13.290606"><ele>62.0</ele><time>2026-03-25T10:16:57.954Z</time></trkpt><trkpt lat="41.4842558" lon="13.290456"><ele>62.0</ele><time>2026-03-25T10:16:58.967Z</time></trkpt><trkpt lat="41.4843329" lon="13.2903125"><ele>62.0</ele><time>2026-03-25T10:16:59.956Z</time></trkpt><trkpt lat="41.4844175" lon="13.2901735"><ele>62.0</ele><time>2026-03-25T10:17:00.959Z</time></trkpt><trkpt lat="41.4845155" lon="13.2900476"><ele>62.0</ele><time>2026-03-25T10:17:01.961Z</time></trkpt><trkpt lat="41.4846252" lon="13.2899365"><ele>62.0</ele><time>2026-03-25T10:17:02.955Z</time></trkpt><trkpt lat="41.484739" lon="13.2898329"><ele>62.75</ele><time>2026-03-25T10:17:03.958Z</time></trkpt><trkpt lat="41.4848555" lon="13.2897331"><ele>63.5</ele><time>2026-03-25T10:17:04.964Z</time></trkpt><trkpt lat="41.4849752" lon="13.2896414"><ele>64.25</ele><time>2026-03-25T10:17:05.965Z</time></trkpt><trkpt lat="41.4851002" lon="13.2895667"><ele>65.0</ele><time>2026-03-25T10:17:06.958Z</time></trkpt><trkpt lat="41.48523" lon="13.289514"><ele>65.0</ele><time>2026-03-25T10:17:07.966Z</time></trkpt><trkpt lat="41.4853679" lon="13.2894777"><ele>65.0</ele><time>2026-03-25T10:17:08.959Z</time></trkpt><trkpt lat="41.4855097" lon="13.2894471"><ele>65.0</ele><time>2026-03-25T10:17:09.962Z</time></trkpt><trkpt lat="41.485651" lon="13.2894177"><ele>65.0</ele><time>2026-03-25T10:17:10.959Z</time></trkpt><trkpt lat="41.4857924" lon="13.2893905"><ele>64.0</ele><time>2026-03-25T10:17:11.959Z</time></trkpt><trkpt lat="41.4859331" lon="13.2893618"><ele>63.0</ele><time>2026-03-25T10:17:12.96Z</time></trkpt><trkpt lat="41.4860723" lon="13.2893329"><ele>62.0</ele><time>2026-03-25T10:17:13.955Z</time></trkpt><trkpt lat="41.4862082" lon="13.2893045"><ele>61.0</ele><time>2026-03-25T10:17:14.958Z</time></trkpt><trkpt lat="41.4863434" lon="13.2892791"><ele>61.0</ele><time>2026-03-25T10:17:15.963Z</time></trkpt><trkpt lat="41.4864792" lon="13.2892544"><ele>61.0</ele><time>2026-03-25T10:17:16.958Z</time></trkpt><trkpt lat="41.4866156" lon="13.2892276"><ele>61.0</ele><time>2026-03-25T10:17:17.961Z</time></trkpt><trkpt lat="41.4867519" lon="13.2892002"><ele>61.0</ele><time>2026-03-25T10:17:18.955Z</time></trkpt><trkpt lat="41.4868871" lon="13.2891741"><ele>61.0</ele><time>2026-03-25T10:17:19.954Z</time></trkpt><trkpt lat="41.4870201" lon="13.2891488"><ele>61.0</ele><time>2026-03-25T10:17:20.961Z</time></trkpt><trkpt lat="41.487153" lon="13.2891243"><ele>61.0</ele><time>2026-03-25T10:17:21.962Z</time></trkpt><trkpt lat="41.4872864" lon="13.2890991"><ele>61.0</ele><time>2026-03-25T10:17:22.958Z</time></trkpt><trkpt lat="41.4874209" lon="13.2890695"><ele>61.0</ele><time>2026-03-25T10:17:23.959Z</time></trkpt><trkpt lat="41.4875572" lon="13.289037"><ele>61.0</ele><time>2026-03-25T10:17:24.955Z</time></trkpt><trkpt lat="41.4876957" lon="13.2890018"><ele>61.0</ele><time>2026-03-25T10:17:25.961Z</time></trkpt><trkpt lat="41.4878351" lon="13.2889633"><ele>61.0</ele><time>2026-03-25T10:17:26.955Z</time></trkpt><trkpt lat="41.487974" lon="13.2889171"><ele>61.75</ele><time>2026-03-25T10:17:27.959Z</time></trkpt><trkpt lat="41.4881111" lon="13.2888617"><ele>62.5</ele><time>2026-03-25T10:17:28.967Z</time></trkpt><trkpt lat="41.4882475" lon="13.2888035"><ele>63.25</ele><time>2026-03-25T10:17:29.962Z</time></trkpt><trkpt lat="41.4883841" lon="13.2887454"><ele>64.0</ele><time>2026-03-25T10:17:30.975Z</time></trkpt><trkpt lat="41.4885204" lon="13.2886861"><ele>64.0</ele><time>2026-03-25T10:17:31.959Z</time></trkpt><trkpt lat="41.4886566" lon="13.2886253"><ele>64.0</ele><time>2026-03-25T10:17:32.95Z</time></trkpt><trkpt lat="41.4887914" lon="13.2885637"><ele>64.0</ele><time>2026-03-25T10:17:33.965Z</time></trkpt><trkpt lat="41.4889256" lon="13.2885013"><ele>64.0</ele><time>2026-03-25T10:17:34.962Z</time></trkpt><trkpt lat="41.4890594" lon="13.2884355"><ele>63.25</ele><time>2026-03-25T10:17:35.968Z</time></trkpt><trkpt lat="41.4891954" lon="13.2883758"><ele>62.5</ele><time>2026-03-25T10:17:36.962Z</time></trkpt><trkpt lat="41.4893309" lon="13.288306"><ele>61.75</ele><time>2026-03-25T10:17:37.964Z</time></trkpt><trkpt lat="41.4894686" lon="13.288234"><ele>61.0</ele><time>2026-03-25T10:17:38.96Z</time></trkpt><trkpt lat="41.4896018" lon="13.2881614"><ele>62.0</ele><time>2026-03-25T10:17:39.96Z</time></trkpt><trkpt lat="41.4897356" lon="13.2880915"><ele>63.0</ele><time>2026-03-25T10:17:40.966Z</time></trkpt><trkpt lat="41.4898675" lon="13.2880173"><ele>64.0</ele><time>2026-03-25T10:17:41.956Z</time></trkpt><trkpt lat="41.4899978" lon="13.2879419"><ele>65.0</ele><time>2026-03-25T10:17:42.954Z</time></trkpt><trkpt lat="41.4901289" lon="13.287868"><ele>65.0</ele><time>2026-03-25T10:17:43.951Z</time></trkpt><trkpt lat="41.4902572" lon="13.2877918"><ele>65.0</ele><time>2026-03-25T10:17:44.957Z</time></trkpt><trkpt lat="41.4903858" lon="13.2877124"><ele>65.0</ele><time>2026-03-25T10:17:45.958Z</time></trkpt><trkpt lat="41.4905123" lon="13.2876255"><ele>65.0</ele><time>2026-03-25T10:17:46.952Z</time></trkpt><trkpt lat="41.4906357" lon="13.2875346"><ele>64.5</ele><time>2026-03-25T10:17:47.964Z</time></trkpt><trkpt lat="41.4907585" lon="13.28744"><ele>64.0</ele><time>2026-03-25T10:17:48.956Z</time></trkpt><trkpt lat="41.4908785" lon="13.2873363"><ele>63.5</ele><time>2026-03-25T10:17:49.967Z</time></trkpt><trkpt lat="41.4909928" lon="13.2872249"><ele>63.0</ele><time>2026-03-25T10:17:50.96Z</time></trkpt><trkpt lat="41.4911021" lon="13.2871084"><ele>63.25</ele><time>2026-03-25T10:17:51.959Z</time></trkpt><trkpt lat="41.4912086" lon="13.2869882"><ele>63.5</ele><time>2026-03-25T10:17:52.957Z</time></trkpt><trkpt lat="41.4913153" lon="13.2868651"><ele>63.75</ele><time>2026-03-25T10:17:53.958Z</time></trkpt><trkpt lat="41.4914242" lon="13.2867392"><ele>64.0</ele><time>2026-03-25T10:17:54.965Z</time></trkpt><trkpt lat="41.4915334" lon="13.2866087"><ele>64.0</ele><time>2026-03-25T10:17:55.962Z</time></trkpt><trkpt lat="41.4916433" lon="13.2864768"><ele>64.0</ele><time>2026-03-25T10:17:56.959Z</time></trkpt><trkpt lat="41.4917535" lon="13.286346"><ele>64.0</ele><time>2026-03-25T10:17:57.968Z</time></trkpt><trkpt lat="41.4918665" lon="13.286222"><ele>64.0</ele><time>2026-03-25T10:17:58.962Z</time></trkpt><trkpt lat="41.4919817" lon="13.2861063"><ele>64.0</ele><time>2026-03-25T10:17:59.962Z</time></trkpt><trkpt lat="41.4920995" lon="13.2859974"><ele>64.0</ele><time>2026-03-25T10:18:00.958Z</time></trkpt><trkpt lat="41.4922201" lon="13.2858939"><ele>64.0</ele><time>2026-03-25T10:18:01.961Z</time></trkpt><trkpt lat="41.4923443" lon="13.2857952"><ele>64.0</ele><time>2026-03-25T10:18:02.963Z</time></trkpt><trkpt lat="41.4924702" lon="13.2857004"><ele>64.0</ele><time>2026-03-25T10:18:03.965Z</time></trkpt><trkpt lat="41.4925968" lon="13.2856067"><ele>64.0</ele><time>2026-03-25T10:18:04.961Z</time></trkpt><trkpt lat="41.492723" lon="13.2855141"><ele>64.0</ele><time>2026-03-25T10:18:05.951Z</time></trkpt><trkpt lat="41.4928486" lon="13.2854213"><ele>64.0</ele><time>2026-03-25T10:18:06.953Z</time></trkpt><trkpt lat="41.4929722" lon="13.2853286"><ele>64.0</ele><time>2026-03-25T10:18:07.955Z</time></trkpt><trkpt lat="41.4930953" lon="13.2852397"><ele>64.0</ele><time>2026-03-25T10:18:08.952Z</time></trkpt><trkpt lat="41.4932175" lon="13.2851523"><ele>64.0</ele><time>2026-03-25T10:18:09.953Z</time></trkpt><trkpt lat="41.49334" lon="13.2850675"><ele>64.0</ele><time>2026-03-25T10:18:10.967Z</time></trkpt><trkpt lat="41.4934658" lon="13.2849863"><ele>64.0</ele><time>2026-03-25T10:18:11.951Z</time></trkpt><trkpt lat="41.4935924" lon="13.2849065"><ele>64.0</ele><time>2026-03-25T10:18:12.958Z</time></trkpt><trkpt lat="41.4937167" lon="13.2848226"><ele>64.0</ele><time>2026-03-25T10:18:13.958Z</time></trkpt><trkpt lat="41.4938402" lon="13.2847369"><ele>64.0</ele><time>2026-03-25T10:18:14.958Z</time></trkpt><trkpt lat="41.4939621" lon="13.2846482"><ele>64.0</ele><time>2026-03-25T10:18:15.955Z</time></trkpt><trkpt lat="41.4940836" lon="13.2845548"><ele>64.0</ele><time>2026-03-25T10:18:16.963Z</time></trkpt><trkpt lat="41.4942054" lon="13.2844583"><ele>64.0</ele><time>2026-03-25T10:18:17.959Z</time></trkpt><trkpt lat="41.4943229" lon="13.2843548"><ele>64.0</ele><time>2026-03-25T10:18:18.955Z</time></trkpt><trkpt lat="41.4944348" lon="13.2842443"><ele>64.0</ele><time>2026-03-25T10:18:19.953Z</time></trkpt><trkpt lat="41.494542" lon="13.2841314"><ele>64.0</ele><time>2026-03-25T10:18:20.955Z</time></trkpt><trkpt lat="41.494647" lon="13.2840157"><ele>64.0</ele><time>2026-03-25T10:18:21.953Z</time></trkpt><trkpt lat="41.4947511" lon="13.2839001"><ele>64.0</ele><time>2026-03-25T10:18:22.954Z</time></trkpt><trkpt lat="41.4948568" lon="13.2837854"><ele>63.25</ele><time>2026-03-25T10:18:23.959Z</time></trkpt><trkpt lat="41.494963" lon="13.2836695"><ele>62.5</ele><time>2026-03-25T10:18:24.958Z</time></trkpt><trkpt lat="41.4950688" lon="13.2835547"><ele>61.75</ele><time>2026-03-25T10:18:25.957Z</time></trkpt><trkpt lat="41.4951769" lon="13.2834381"><ele>61.0</ele><time>2026-03-25T10:18:26.951Z</time></trkpt><trkpt lat="41.4952842" lon="13.2833215"><ele>61.0</ele><time>2026-03-25T10:18:27.962Z</time></trkpt><trkpt lat="41.4953905" lon="13.2832037"><ele>61.0</ele><time>2026-03-25T10:18:28.955Z</time></trkpt><trkpt lat="41.4954965" lon="13.2830855"><ele>61.0</ele><time>2026-03-25T10:18:29.952Z</time></trkpt><trkpt lat="41.4956031" lon="13.2829699"><ele>61.0</ele><time>2026-03-25T10:18:30.968Z</time></trkpt><trkpt lat="41.4957099" lon="13.2828533"><ele>60.25</ele><time>2026-03-25T10:18:31.954Z</time></trkpt><trkpt lat="41.4958167" lon="13.2827319"><ele>59.5</ele><time>2026-03-25T10:18:32.955Z</time></trkpt><trkpt lat="41.4959234" lon="13.2826063"><ele>58.75</ele><time>2026-03-25T10:18:33.958Z</time></trkpt><trkpt lat="41.4960299" lon="13.2824785"><ele>58.0</ele><time>2026-03-25T10:18:34.956Z</time></trkpt><trkpt lat="41.4961376" lon="13.28235"><ele>58.75</ele><time>2026-03-25T10:18:35.966Z</time></trkpt><trkpt lat="41.4962449" lon="13.2822186"><ele>59.5</ele><time>2026-03-25T10:18:36.96Z</time></trkpt><trkpt lat="41.4963546" lon="13.282087"><ele>60.25</ele><time>2026-03-25T10:18:37.955Z</time></trkpt><trkpt lat="41.496471" lon="13.2819526"><ele>61.0</ele><time>2026-03-25T10:18:38.961Z</time></trkpt><trkpt lat="41.4965886" lon="13.2818145"><ele>59.666666666666664</ele><time>2026-03-25T10:18:39.957Z</time></trkpt><trkpt lat="41.4967067" lon="13.2816763"><ele>58.33333333333333</ele><time>2026-03-25T10:18:40.958Z</time></trkpt><trkpt lat="41.496823" lon="13.2815402"><ele>57.0</ele><time>2026-03-25T10:18:41.951Z</time></trkpt><trkpt lat="41.4969365" lon="13.2814048"><ele>57.0</ele><time>2026-03-25T10:18:42.959Z</time></trkpt><trkpt lat="41.4970486" lon="13.2812707"><ele>57.0</ele><time>2026-03-25T10:18:43.95Z</time></trkpt><trkpt lat="41.4971619" lon="13.2811395"><ele>57.0</ele><time>2026-03-25T10:18:44.956Z</time></trkpt><trkpt lat="41.4972754" lon="13.2810109"><ele>57.0</ele><time>2026-03-25T10:18:45.953Z</time></trkpt><trkpt lat="41.4973869" lon="13.2808837"><ele>57.0</ele><time>2026-03-25T10:18:46.955Z</time></trkpt><trkpt lat="41.4974962" lon="13.2807579"><ele>57.0</ele><time>2026-03-25T10:18:47.955Z</time></trkpt><trkpt lat="41.497606" lon="13.2806322"><ele>57.0</ele><time>2026-03-25T10:18:48.953Z</time></trkpt><trkpt lat="41.4977178" lon="13.2805093"><ele>57.0</ele><time>2026-03-25T10:18:49.953Z</time></trkpt><trkpt lat="41.497833" lon="13.2803925"><ele>56.0</ele><time>2026-03-25T10:18:50.952Z</time></trkpt><trkpt lat="41.4979511" lon="13.2802821"><ele>55.0</ele><time>2026-03-25T10:18:51.957Z</time></trkpt><trkpt lat="41.4980696" lon="13.2801785"><ele>54.0</ele><time>2026-03-25T10:18:52.955Z</time></trkpt><trkpt lat="41.4981871" lon="13.2800753"><ele>53.0</ele><time>2026-03-25T10:18:53.956Z</time></trkpt><trkpt lat="41.4983029" lon="13.2799701"><ele>53.0</ele><time>2026-03-25T10:18:54.953Z</time></trkpt><trkpt lat="41.4984168" lon="13.279863"><ele>53.0</ele><time>2026-03-25T10:18:55.954Z</time></trkpt><trkpt lat="41.4985304" lon="13.2797532"><ele>53.0</ele><time>2026-03-25T10:18:56.956Z</time></trkpt><trkpt lat="41.4986424" lon="13.2796397"><ele>53.0</ele><time>2026-03-25T10:18:57.955Z</time></trkpt><trkpt lat="41.4987547" lon="13.2795264"><ele>53.0</ele><time>2026-03-25T10:18:58.958Z</time></trkpt><trkpt lat="41.4988664" lon="13.2794132"><ele>53.0</ele><time>2026-03-25T10:18:59.955Z</time></trkpt><trkpt lat="41.4989768" lon="13.2792993"><ele>53.0</ele><time>2026-03-25T10:19:00.962Z</time></trkpt><trkpt lat="41.499087" lon="13.279185"><ele>53.0</ele><time>2026-03-25T10:19:01.955Z</time></trkpt><trkpt lat="41.4991982" lon="13.2790708"><ele>53.0</ele><time>2026-03-25T10:19:02.955Z</time></trkpt><trkpt lat="41.4993093" lon="13.2789583"><ele>53.0</ele><time>2026-03-25T10:19:03.953Z</time></trkpt><trkpt lat="41.4994214" lon="13.2788507"><ele>53.0</ele><time>2026-03-25T10:19:04.956Z</time></trkpt><trkpt lat="41.4995388" lon="13.278751"><ele>53.0</ele><time>2026-03-25T10:19:05.953Z</time></trkpt><trkpt lat="41.4996633" lon="13.2786562"><ele>54.0</ele><time>2026-03-25T10:19:06.954Z</time></trkpt><trkpt lat="41.4997911" lon="13.278562"><ele>55.0</ele><time>2026-03-25T10:19:07.956Z</time></trkpt><trkpt lat="41.4999202" lon="13.2784733"><ele>56.0</ele><time>2026-03-25T10:19:08.96Z</time></trkpt><trkpt lat="41.5000503" lon="13.27839"><ele>57.0</ele><time>2026-03-25T10:19:09.958Z</time></trkpt><trkpt lat="41.5001793" lon="13.2783101"><ele>57.0</ele><time>2026-03-25T10:19:10.964Z</time></trkpt><trkpt lat="41.5003068" lon="13.278234"><ele>57.0</ele><time>2026-03-25T10:19:11.955Z</time></trkpt><trkpt lat="41.500435" lon="13.2781602"><ele>57.0</ele><time>2026-03-25T10:19:12.954Z</time></trkpt><trkpt lat="41.5005598" lon="13.2780863"><ele>57.0</ele><time>2026-03-25T10:19:13.955Z</time></trkpt><trkpt lat="41.5006803" lon="13.2780091"><ele>57.5</ele><time>2026-03-25T10:19:14.956Z</time></trkpt><trkpt lat="41.5007915" lon="13.2779253"><ele>58.0</ele><time>2026-03-25T10:19:15.955Z</time></trkpt><trkpt lat="41.5008933" lon="13.2778306"><ele>58.5</ele><time>2026-03-25T10:19:16.972Z</time></trkpt><trkpt lat="41.5009892" lon="13.2777262"><ele>59.0</ele><time>2026-03-25T10:19:17.959Z</time></trkpt><trkpt lat="41.5010815" lon="13.2776109"><ele>59.0</ele><time>2026-03-25T10:19:18.957Z</time></trkpt><trkpt lat="41.5011702" lon="13.2774839"><ele>59.0</ele><time>2026-03-25T10:19:19.965Z</time></trkpt><trkpt lat="41.5012594" lon="13.2773517"><ele>59.0</ele><time>2026-03-25T10:19:20.962Z</time></trkpt><trkpt lat="41.5013468" lon="13.2772129"><ele>59.0</ele><time>2026-03-25T10:19:21.958Z</time></trkpt><trkpt lat="41.5014306" lon="13.2770696"><ele>57.5</ele><time>2026-03-25T10:19:22.96Z</time></trkpt><trkpt lat="41.5015085" lon="13.2769196"><ele>56.0</ele><time>2026-03-25T10:19:23.951Z</time></trkpt><trkpt lat="41.5015762" lon="13.2767604"><ele>54.5</ele><time>2026-03-25T10:19:24.952Z</time></trkpt><trkpt lat="41.5016302" lon="13.2765945"><ele>53.0</ele><time>2026-03-25T10:19:25.955Z</time></trkpt><trkpt lat="41.5016696" lon="13.2764253"><ele>52.5</ele><time>2026-03-25T10:19:26.955Z</time></trkpt><trkpt lat="41.5016995" lon="13.2762573"><ele>52.0</ele><time>2026-03-25T10:19:27.961Z</time></trkpt><trkpt lat="41.5017252" lon="13.2760904"><ele>51.5</ele><time>2026-03-25T10:19:28.953Z</time></trkpt><trkpt lat="41.5017502" lon="13.275924"><ele>51.0</ele><time>2026-03-25T10:19:29.957Z</time></trkpt><trkpt lat="41.5017726" lon="13.2757573"><ele>50.75</ele><time>2026-03-25T10:19:30.954Z</time></trkpt><trkpt lat="41.5017933" lon="13.2755876"><ele>50.5</ele><time>2026-03-25T10:19:31.962Z</time></trkpt><trkpt lat="41.5018139" lon="13.2754168"><ele>50.25</ele><time>2026-03-25T10:19:32.951Z</time></trkpt><trkpt lat="41.5018362" lon="13.2752471"><ele>50.0</ele><time>2026-03-25T10:19:33.956Z</time></trkpt><trkpt lat="41.5018593" lon="13.2750791"><ele>50.0</ele><time>2026-03-25T10:19:34.965Z</time></trkpt><trkpt lat="41.5018817" lon="13.2749116"><ele>50.0</ele><time>2026-03-25T10:19:35.959Z</time></trkpt><trkpt lat="41.5019046" lon="13.2747431"><ele>50.0</ele><time>2026-03-25T10:19:36.973Z</time></trkpt><trkpt lat="41.5019278" lon="13.2745721"><ele>50.0</ele><time>2026-03-25T10:19:37.959Z</time></trkpt><trkpt lat="41.5019523" lon="13.2744038"><ele>50.0</ele><time>2026-03-25T10:19:38.951Z</time></trkpt><trkpt lat="41.5019816" lon="13.2742323"><ele>50.0</ele><time>2026-03-25T10:19:39.955Z</time></trkpt><trkpt lat="41.502013" lon="13.2740557"><ele>50.0</ele><time>2026-03-25T10:19:40.963Z</time></trkpt><trkpt lat="41.502048" lon="13.2738728"><ele>50.0</ele><time>2026-03-25T10:19:41.965Z</time></trkpt><trkpt lat="41.5020868" lon="13.2736877"><ele>50.0</ele><time>2026-03-25T10:19:42.96Z</time></trkpt><trkpt lat="41.5021234" lon="13.2735031"><ele>50.0</ele><time>2026-03-25T10:19:43.974Z</time></trkpt><trkpt lat="41.5021595" lon="13.2733205"><ele>50.0</ele><time>2026-03-25T10:19:44.962Z</time></trkpt><trkpt lat="41.5021981" lon="13.2731405"><ele>50.0</ele><time>2026-03-25T10:19:45.954Z</time></trkpt><trkpt lat="41.5022374" lon="13.2729632"><ele>51.0</ele><time>2026-03-25T10:19:46.96Z</time></trkpt><trkpt lat="41.5022806" lon="13.2727896"><ele>52.0</ele><time>2026-03-25T10:19:47.958Z</time></trkpt><trkpt lat="41.5023297" lon="13.2726235"><ele>53.0</ele><time>2026-03-25T10:19:48.974Z</time></trkpt><trkpt lat="41.5023841" lon="13.2724625"><ele>54.0</ele><time>2026-03-25T10:19:49.958Z</time></trkpt><trkpt lat="41.5024425" lon="13.272304"><ele>57.5</ele><time>2026-03-25T10:19:50.965Z</time></trkpt><trkpt lat="41.5025024" lon="13.2721449"><ele>61.0</ele><time>2026-03-25T10:19:51.963Z</time></trkpt><trkpt lat="41.5025652" lon="13.2719871"><ele>64.5</ele><time>2026-03-25T10:19:52.963Z</time></trkpt><trkpt lat="41.5026309" lon="13.2718318"><ele>68.0</ele><time>2026-03-25T10:19:53.963Z</time></trkpt><trkpt lat="41.5026994" lon="13.2716914"><ele>68.0</ele><time>2026-03-25T10:19:54.966Z</time></trkpt><trkpt lat="41.5027723" lon="13.271549"><ele>68.0</ele><time>2026-03-25T10:19:55.957Z</time></trkpt><trkpt lat="41.5028452" lon="13.271405"><ele>68.0</ele><time>2026-03-25T10:19:56.965Z</time></trkpt><trkpt lat="41.5029201" lon="13.2712568"><ele>68.0</ele><time>2026-03-25T10:19:57.956Z</time></trkpt><trkpt lat="41.5029942" lon="13.2711121"><ele>65.25</ele><time>2026-03-25T10:19:58.971Z</time></trkpt><trkpt lat="41.5030622" lon="13.2709648"><ele>62.5</ele><time>2026-03-25T10:19:59.963Z</time></trkpt><trkpt lat="41.5031268" lon="13.2708131"><ele>59.75</ele><time>2026-03-25T10:20:00.957Z</time></trkpt><trkpt lat="41.5031811" lon="13.2706522"><ele>57.0</ele><time>2026-03-25T10:20:01.952Z</time></trkpt><trkpt lat="41.5032276" lon="13.2704883"><ele>57.0</ele><time>2026-03-25T10:20:02.964Z</time></trkpt><trkpt lat="41.5032644" lon="13.270317"><ele>57.0</ele><time>2026-03-25T10:20:03.958Z</time></trkpt><trkpt lat="41.5032897" lon="13.2701437"><ele>57.0</ele><time>2026-03-25T10:20:04.964Z</time></trkpt><trkpt lat="41.5033094" lon="13.2699697"><ele>57.0</ele><time>2026-03-25T10:20:05.957Z</time></trkpt><trkpt lat="41.5033231" lon="13.2697929"><ele>58.75</ele><time>2026-03-25T10:20:06.963Z</time></trkpt><trkpt lat="41.5033355" lon="13.269616"><ele>60.5</ele><time>2026-03-25T10:20:07.965Z</time></trkpt><trkpt lat="41.5033539" lon="13.2694373"><ele>62.25</ele><time>2026-03-25T10:20:08.956Z</time></trkpt><trkpt lat="41.5033815" lon="13.2692634"><ele>64.0</ele><time>2026-03-25T10:20:09.963Z</time></trkpt><trkpt lat="41.5034159" lon="13.2690977"><ele>64.0</ele><time>2026-03-25T10:20:10.971Z</time></trkpt><trkpt lat="41.5034506" lon="13.2689389"><ele>64.0</ele><time>2026-03-25T10:20:11.96Z</time></trkpt><trkpt lat="41.503484" lon="13.2687803"><ele>64.0</ele><time>2026-03-25T10:20:12.963Z</time></trkpt><trkpt lat="41.5035041" lon="13.2686153"><ele>64.0</ele><time>2026-03-25T10:20:13.954Z</time></trkpt><trkpt lat="41.5035104" lon="13.2684483"><ele>64.0</ele><time>2026-03-25T10:20:14.958Z</time></trkpt><trkpt lat="41.5035133" lon="13.2682816"><ele>64.0</ele><time>2026-03-25T10:20:15.981Z</time></trkpt><trkpt lat="41.5035046" lon="13.2681115"><ele>64.0</ele><time>2026-03-25T10:20:16.965Z</time></trkpt><trkpt lat="41.5034946" lon="13.2679399"><ele>64.0</ele><time>2026-03-25T10:20:17.965Z</time></trkpt><trkpt lat="41.5034739" lon="13.2677702"><ele>62.0</ele><time>2026-03-25T10:20:18.963Z</time></trkpt><trkpt lat="41.5034459" lon="13.2676021"><ele>60.0</ele><time>2026-03-25T10:20:19.957Z</time></trkpt><trkpt lat="41.5034086" lon="13.2674358"><ele>58.0</ele><time>2026-03-25T10:20:20.982Z</time></trkpt><trkpt lat="41.50336" lon="13.2672743"><ele>56.0</ele><time>2026-03-25T10:20:21.959Z</time></trkpt><trkpt lat="41.5033033" lon="13.2671167"><ele>53.75</ele><time>2026-03-25T10:20:22.965Z</time></trkpt><trkpt lat="41.5032406" lon="13.2669553"><ele>51.5</ele><time>2026-03-25T10:20:23.958Z</time></trkpt><trkpt lat="41.5031621" lon="13.2668084"><ele>49.25</ele><time>2026-03-25T10:20:24.959Z</time></trkpt><trkpt lat="41.5030811" lon="13.2666588"><ele>47.0</ele><time>2026-03-25T10:20:25.957Z</time></trkpt><trkpt lat="41.5030018" lon="13.2665144"><ele>46.75</ele><time>2026-03-25T10:20:26.963Z</time></trkpt><trkpt lat="41.5029227" lon="13.2663682"><ele>46.5</ele><time>2026-03-25T10:20:27.961Z</time></trkpt><trkpt lat="41.5028456" lon="13.2662264"><ele>46.25</ele><time>2026-03-25T10:20:28.952Z</time></trkpt><trkpt lat="41.5027678" lon="13.2660844"><ele>46.0</ele><time>2026-03-25T10:20:29.965Z</time></trkpt><trkpt lat="41.5026928" lon="13.2659459"><ele>46.5</ele><time>2026-03-25T10:20:30.966Z</time></trkpt><trkpt lat="41.502616" lon="13.2658037"><ele>47.0</ele><time>2026-03-25T10:20:31.962Z</time></trkpt><trkpt lat="41.5025372" lon="13.2656632"><ele>47.5</ele><time>2026-03-25T10:20:32.964Z</time></trkpt><trkpt lat="41.5024649" lon="13.265527"><ele>48.0</ele><time>2026-03-25T10:20:33.957Z</time></trkpt><trkpt lat="41.5024005" lon="13.2654008"><ele>48.0</ele><time>2026-03-25T10:20:34.957Z</time></trkpt><trkpt lat="41.5023379" lon="13.2652709"><ele>48.0</ele><time>2026-03-25T10:20:35.97Z</time></trkpt><trkpt lat="41.5022782" lon="13.2651374"><ele>48.0</ele><time>2026-03-25T10:20:36.95Z</time></trkpt><trkpt lat="41.5022224" lon="13.2649994"><ele>48.0</ele><time>2026-03-25T10:20:37.956Z</time></trkpt><trkpt lat="41.5021716" lon="13.2648592"><ele>47.4</ele><time>2026-03-25T10:20:38.955Z</time></trkpt><trkpt lat="41.5021306" lon="13.2647217"><ele>46.8</ele><time>2026-03-25T10:20:39.959Z</time></trkpt><trkpt lat="41.502101" lon="13.2645861"><ele>46.2</ele><time>2026-03-25T10:20:40.957Z</time></trkpt><trkpt lat="41.5020921" lon="13.2644457"><ele>45.6</ele><time>2026-03-25T10:20:41.969Z</time></trkpt><trkpt lat="41.502109" lon="13.2643051"><ele>45.0</ele><time>2026-03-25T10:20:42.957Z</time></trkpt><trkpt lat="41.5021484" lon="13.2641704"><ele>45.0</ele><time>2026-03-25T10:20:43.962Z</time></trkpt><trkpt lat="41.5021995" lon="13.2640382"><ele>45.0</ele><time>2026-03-25T10:20:44.957Z</time></trkpt><trkpt lat="41.5022532" lon="13.2639068"><ele>45.0</ele><time>2026-03-25T10:20:45.956Z</time></trkpt><trkpt lat="41.502305" lon="13.263779"><ele>45.0</ele><time>2026-03-25T10:20:46.959Z</time></trkpt><trkpt lat="41.5023566" lon="13.263651"><ele>45.0</ele><time>2026-03-25T10:20:47.964Z</time></trkpt><trkpt lat="41.5024086" lon="13.26352"><ele>45.0</ele><time>2026-03-25T10:20:48.957Z</time></trkpt><trkpt lat="41.502461" lon="13.2633877"><ele>45.0</ele><time>2026-03-25T10:20:49.968Z</time></trkpt><trkpt lat="41.5025141" lon="13.2632547"><ele>45.0</ele><time>2026-03-25T10:20:50.958Z</time></trkpt><trkpt lat="41.5025675" lon="13.2631209"><ele>45.0</ele><time>2026-03-25T10:20:51.959Z</time></trkpt><trkpt lat="41.502621" lon="13.2629824"><ele>44.5</ele><time>2026-03-25T10:20:52.96Z</time></trkpt><trkpt lat="41.5026748" lon="13.262841"><ele>44.0</ele><time>2026-03-25T10:20:53.965Z</time></trkpt><trkpt lat="41.5027288" lon="13.2626995"><ele>43.5</ele><time>2026-03-25T10:20:54.956Z</time></trkpt><trkpt lat="41.5027833" lon="13.2625584"><ele>43.0</ele><time>2026-03-25T10:20:55.968Z</time></trkpt><trkpt lat="41.5028403" lon="13.2624184"><ele>43.0</ele><time>2026-03-25T10:20:56.96Z</time></trkpt><trkpt lat="41.5029021" lon="13.2622826"><ele>43.0</ele><time>2026-03-25T10:20:57.958Z</time></trkpt><trkpt lat="41.5029759" lon="13.2621607"><ele>43.0</ele><time>2026-03-25T10:20:58.958Z</time></trkpt><trkpt lat="41.5030672" lon="13.2620683"><ele>43.0</ele><time>2026-03-25T10:20:59.966Z</time></trkpt><trkpt lat="41.5031694" lon="13.2620134"><ele>43.8</ele><time>2026-03-25T10:21:00.959Z</time></trkpt><trkpt lat="41.5032752" lon="13.261984"><ele>44.599999999999994</ele><time>2026-03-25T10:21:01.958Z</time></trkpt><trkpt lat="41.5033762" lon="13.2619727"><ele>45.400000000000006</ele><time>2026-03-25T10:21:02.962Z</time></trkpt><trkpt lat="41.5034706" lon="13.2619702"><ele>46.2</ele><time>2026-03-25T10:21:03.96Z</time></trkpt><trkpt lat="41.5035617" lon="13.2619683"><ele>47.0</ele><time>2026-03-25T10:21:04.957Z</time></trkpt><trkpt lat="41.5036501" lon="13.2619563"><ele>47.0</ele><time>2026-03-25T10:21:05.978Z</time></trkpt><trkpt lat="41.5037331" lon="13.2619203"><ele>47.0</ele><time>2026-03-25T10:21:06.962Z</time></trkpt><trkpt lat="41.5038081" lon="13.2618672"><ele>47.0</ele><time>2026-03-25T10:21:07.968Z</time></trkpt><trkpt lat="41.5038833" lon="13.2617938"><ele>47.0</ele><time>2026-03-25T10:21:08.957Z</time></trkpt><trkpt lat="41.5039529" lon="13.2617029"><ele>47.0</ele><time>2026-03-25T10:21:09.96Z</time></trkpt><trkpt lat="41.5040163" lon="13.2615965"><ele>47.0</ele><time>2026-03-25T10:21:10.962Z</time></trkpt><trkpt lat="41.5040782" lon="13.2614824"><ele>47.0</ele><time>2026-03-25T10:21:11.956Z</time></trkpt><trkpt lat="41.5041455" lon="13.2613643"><ele>47.0</ele><time>2026-03-25T10:21:12.965Z</time></trkpt><trkpt lat="41.5042105" lon="13.2612403"><ele>47.0</ele><time>2026-03-25T10:21:13.962Z</time></trkpt><trkpt lat="41.5042722" lon="13.2611144"><ele>47.0</ele><time>2026-03-25T10:21:14.963Z</time></trkpt><trkpt lat="41.5043307" lon="13.2609824"><ele>47.0</ele><time>2026-03-25T10:21:15.961Z</time></trkpt><trkpt lat="41.504381" lon="13.2608459"><ele>47.0</ele><time>2026-03-25T10:21:16.966Z</time></trkpt><trkpt lat="41.5044132" lon="13.2607029"><ele>47.0</ele><time>2026-03-25T10:21:17.963Z</time></trkpt><trkpt lat="41.5044374" lon="13.2605573"><ele>47.0</ele><time>2026-03-25T10:21:18.96Z</time></trkpt><trkpt lat="41.504457" lon="13.2604074"><ele>47.0</ele><time>2026-03-25T10:21:19.964Z</time></trkpt><trkpt lat="41.5044774" lon="13.2602547"><ele>47.0</ele><time>2026-03-25T10:21:20.963Z</time></trkpt><trkpt lat="41.5044954" lon="13.2600997"><ele>47.0</ele><time>2026-03-25T10:21:21.959Z</time></trkpt><trkpt lat="41.5045059" lon="13.2599401"><ele>47.0</ele><time>2026-03-25T10:21:22.966Z</time></trkpt><trkpt lat="41.5045057" lon="13.2597789"><ele>47.0</ele><time>2026-03-25T10:21:23.963Z</time></trkpt><trkpt lat="41.5044916" lon="13.2596193"><ele>47.0</ele><time>2026-03-25T10:21:24.96Z</time></trkpt><trkpt lat="41.5044668" lon="13.2594622"><ele>47.0</ele><time>2026-03-25T10:21:25.965Z</time></trkpt><trkpt lat="41.5044348" lon="13.2593053"><ele>47.0</ele><time>2026-03-25T10:21:26.955Z</time></trkpt><trkpt lat="41.5044041" lon="13.2591461"><ele>47.0</ele><time>2026-03-25T10:21:27.954Z</time></trkpt><trkpt lat="41.5043735" lon="13.258983"><ele>47.0</ele><time>2026-03-25T10:21:28.976Z</time></trkpt><trkpt lat="41.5043419" lon="13.2588143"><ele>47.0</ele><time>2026-03-25T10:21:29.958Z</time></trkpt><trkpt lat="41.5043138" lon="13.2586404"><ele>47.0</ele><time>2026-03-25T10:21:30.965Z</time></trkpt><trkpt lat="41.504286" lon="13.2584658"><ele>47.25</ele><time>2026-03-25T10:21:31.967Z</time></trkpt><trkpt lat="41.5042572" lon="13.2582925"><ele>47.5</ele><time>2026-03-25T10:21:32.963Z</time></trkpt><trkpt lat="41.5042248" lon="13.2581203"><ele>47.75</ele><time>2026-03-25T10:21:33.958Z</time></trkpt><trkpt lat="41.5041921" lon="13.2579488"><ele>48.0</ele><time>2026-03-25T10:21:34.966Z</time></trkpt><trkpt lat="41.5041598" lon="13.2577885"><ele>47.25</ele><time>2026-03-25T10:21:35.958Z</time></trkpt><trkpt lat="41.5041226" lon="13.2576318"><ele>46.5</ele><time>2026-03-25T10:21:36.961Z</time></trkpt><trkpt lat="41.5040814" lon="13.257478"><ele>45.75</ele><time>2026-03-25T10:21:37.969Z</time></trkpt><trkpt lat="41.5040399" lon="13.2573272"><ele>45.0</ele><time>2026-03-25T10:21:38.961Z</time></trkpt><trkpt lat="41.5039944" lon="13.2571764"><ele>44.25</ele><time>2026-03-25T10:21:39.966Z</time></trkpt><trkpt lat="41.5039445" lon="13.2570235"><ele>43.5</ele><time>2026-03-25T10:21:40.953Z</time></trkpt><trkpt lat="41.5038915" lon="13.2568688"><ele>42.75</ele><time>2026-03-25T10:21:41.962Z</time></trkpt><trkpt lat="41.5038389" lon="13.2567122"><ele>42.0</ele><time>2026-03-25T10:21:42.96Z</time></trkpt><trkpt lat="41.5037862" lon="13.2565534"><ele>42.0</ele><time>2026-03-25T10:21:43.968Z</time></trkpt><trkpt lat="41.503732" lon="13.2563921"><ele>42.0</ele><time>2026-03-25T10:21:44.956Z</time></trkpt><trkpt lat="41.5036765" lon="13.2562291"><ele>42.0</ele><time>2026-03-25T10:21:45.964Z</time></trkpt><trkpt lat="41.5036223" lon="13.2560643"><ele>42.0</ele><time>2026-03-25T10:21:46.964Z</time></trkpt><trkpt lat="41.5035672" lon="13.2558993"><ele>42.0</ele><time>2026-03-25T10:21:47.965Z</time></trkpt><trkpt lat="41.50351" lon="13.2557364"><ele>42.0</ele><time>2026-03-25T10:21:48.952Z</time></trkpt><trkpt lat="41.5034542" lon="13.2555752"><ele>42.0</ele><time>2026-03-25T10:21:49.965Z</time></trkpt><trkpt lat="41.5033986" lon="13.2554147"><ele>42.0</ele><time>2026-03-25T10:21:50.958Z</time></trkpt><trkpt lat="41.5033545" lon="13.2552446"><ele>42.0</ele><time>2026-03-25T10:21:51.964Z</time></trkpt><trkpt lat="41.5033201" lon="13.2550723"><ele>42.0</ele><time>2026-03-25T10:21:52.966Z</time></trkpt><trkpt lat="41.5032907" lon="13.2549034"><ele>42.0</ele><time>2026-03-25T10:21:53.961Z</time></trkpt><trkpt lat="41.503266" lon="13.2547362"><ele>42.0</ele><time>2026-03-25T10:21:54.962Z</time></trkpt><trkpt lat="41.5032423" lon="13.2545699"><ele>42.0</ele><time>2026-03-25T10:21:55.956Z</time></trkpt><trkpt lat="41.503218" lon="13.254403"><ele>42.0</ele><time>2026-03-25T10:21:56.955Z</time></trkpt><trkpt lat="41.5031937" lon="13.2542346"><ele>42.0</ele><time>2026-03-25T10:21:57.961Z</time></trkpt><trkpt lat="41.5031687" lon="13.2540646"><ele>42.0</ele><time>2026-03-25T10:21:58.961Z</time></trkpt><trkpt lat="41.5031441" lon="13.253893"><ele>41.75</ele><time>2026-03-25T10:21:59.964Z</time></trkpt><trkpt lat="41.5031208" lon="13.2537231"><ele>41.5</ele><time>2026-03-25T10:22:00.964Z</time></trkpt><trkpt lat="41.5030988" lon="13.2535547"><ele>41.25</ele><time>2026-03-25T10:22:01.961Z</time></trkpt><trkpt lat="41.5030776" lon="13.2533881"><ele>41.0</ele><time>2026-03-25T10:22:02.96Z</time></trkpt><trkpt lat="41.5030563" lon="13.2532234"><ele>41.25</ele><time>2026-03-25T10:22:03.974Z</time></trkpt><trkpt lat="41.5030332" lon="13.2530611"><ele>41.5</ele><time>2026-03-25T10:22:04.951Z</time></trkpt><trkpt lat="41.5030088" lon="13.2528999"><ele>41.75</ele><time>2026-03-25T10:22:05.961Z</time></trkpt><trkpt lat="41.5029856" lon="13.2527394"><ele>42.0</ele><time>2026-03-25T10:22:06.961Z</time></trkpt><trkpt lat="41.5029631" lon="13.2525777"><ele>42.0</ele><time>2026-03-25T10:22:07.962Z</time></trkpt><trkpt lat="41.5029422" lon="13.2524151"><ele>42.0</ele><time>2026-03-25T10:22:08.972Z</time></trkpt><trkpt lat="41.5029238" lon="13.2522501"><ele>42.0</ele><time>2026-03-25T10:22:09.958Z</time></trkpt><trkpt lat="41.5029063" lon="13.2520833"><ele>42.0</ele><time>2026-03-25T10:22:10.961Z</time></trkpt><trkpt lat="41.502893" lon="13.2519143"><ele>42.0</ele><time>2026-03-25T10:22:11.957Z</time></trkpt><trkpt lat="41.5028801" lon="13.2517444"><ele>42.0</ele><time>2026-03-25T10:22:12.954Z</time></trkpt><trkpt lat="41.5028693" lon="13.2515724"><ele>42.0</ele><time>2026-03-25T10:22:13.962Z</time></trkpt><trkpt lat="41.5028598" lon="13.251399"><ele>42.0</ele><time>2026-03-25T10:22:14.961Z</time></trkpt><trkpt lat="41.5028506" lon="13.2512238"><ele>41.5</ele><time>2026-03-25T10:22:15.973Z</time></trkpt><trkpt lat="41.5028414" lon="13.2510474"><ele>41.0</ele><time>2026-03-25T10:22:16.955Z</time></trkpt><trkpt lat="41.5028334" lon="13.25087"><ele>40.5</ele><time>2026-03-25T10:22:17.97Z</time></trkpt><trkpt lat="41.5028252" lon="13.2506953"><ele>40.0</ele><time>2026-03-25T10:22:18.962Z</time></trkpt><trkpt lat="41.5028156" lon="13.2505211"><ele>40.0</ele><time>2026-03-25T10:22:19.961Z</time></trkpt><trkpt lat="41.5028075" lon="13.250349"><ele>40.0</ele><time>2026-03-25T10:22:20.962Z</time></trkpt><trkpt lat="41.5028005" lon="13.2501816"><ele>40.0</ele><time>2026-03-25T10:22:21.963Z</time></trkpt><trkpt lat="41.5027925" lon="13.2500154"><ele>40.0</ele><time>2026-03-25T10:22:22.966Z</time></trkpt><trkpt lat="41.5027846" lon="13.2498505"><ele>39.75</ele><time>2026-03-25T10:22:23.96Z</time></trkpt><trkpt lat="41.5027746" lon="13.2496892"><ele>39.5</ele><time>2026-03-25T10:22:24.962Z</time></trkpt><trkpt lat="41.5027659" lon="13.2495263"><ele>39.25</ele><time>2026-03-25T10:22:25.959Z</time></trkpt><trkpt lat="41.5027558" lon="13.2493661"><ele>39.0</ele><time>2026-03-25T10:22:26.964Z</time></trkpt><trkpt lat="41.5027454" lon="13.2492081"><ele>39.0</ele><time>2026-03-25T10:22:27.958Z</time></trkpt><trkpt lat="41.5027363" lon="13.2490498"><ele>39.0</ele><time>2026-03-25T10:22:28.969Z</time></trkpt><trkpt lat="41.5027299" lon="13.2488902"><ele>39.0</ele><time>2026-03-25T10:22:29.954Z</time></trkpt><trkpt lat="41.5027204" lon="13.2487326"><ele>39.0</ele><time>2026-03-25T10:22:30.963Z</time></trkpt><trkpt lat="41.5027078" lon="13.2485742"><ele>38.75</ele><time>2026-03-25T10:22:31.959Z</time></trkpt><trkpt lat="41.502693" lon="13.2484149"><ele>38.5</ele><time>2026-03-25T10:22:32.963Z</time></trkpt><trkpt lat="41.5026703" lon="13.2482587"><ele>38.25</ele><time>2026-03-25T10:22:33.955Z</time></trkpt><trkpt lat="41.5026357" lon="13.2481054"><ele>38.0</ele><time>2026-03-25T10:22:34.967Z</time></trkpt><trkpt lat="41.5025915" lon="13.2479569"><ele>38.5</ele><time>2026-03-25T10:22:35.957Z</time></trkpt><trkpt lat="41.5025402" lon="13.2478117"><ele>39.0</ele><time>2026-03-25T10:22:36.962Z</time></trkpt><trkpt lat="41.502483" lon="13.2476645"><ele>39.5</ele><time>2026-03-25T10:22:37.961Z</time></trkpt><trkpt lat="41.5024235" lon="13.2475129"><ele>40.0</ele><time>2026-03-25T10:22:38.962Z</time></trkpt><trkpt lat="41.5023657" lon="13.2473607"><ele>41.0</ele><time>2026-03-25T10:22:39.952Z</time></trkpt><trkpt lat="41.5023092" lon="13.2472087"><ele>42.0</ele><time>2026-03-25T10:22:40.963Z</time></trkpt><trkpt lat="41.5022532" lon="13.2470569"><ele>43.0</ele><time>2026-03-25T10:22:41.961Z</time></trkpt><trkpt lat="41.5021941" lon="13.2469124"><ele>44.0</ele><time>2026-03-25T10:22:42.956Z</time></trkpt><trkpt lat="41.5021257" lon="13.2467747"><ele>44.25</ele><time>2026-03-25T10:22:43.973Z</time></trkpt><trkpt lat="41.5020523" lon="13.2466409"><ele>44.5</ele><time>2026-03-25T10:22:44.964Z</time></trkpt><trkpt lat="41.5019781" lon="13.246508"><ele>44.75</ele><time>2026-03-25T10:22:45.962Z</time></trkpt><trkpt lat="41.5019036" lon="13.2463737"><ele>45.0</ele><time>2026-03-25T10:22:46.967Z</time></trkpt><trkpt lat="41.5018275" lon="13.2462397"><ele>45.0</ele><time>2026-03-25T10:22:47.955Z</time></trkpt><trkpt lat="41.5017537" lon="13.2461067"><ele>45.0</ele><time>2026-03-25T10:22:48.964Z</time></trkpt><trkpt lat="41.5016778" lon="13.2459732"><ele>45.0</ele><time>2026-03-25T10:22:49.959Z</time></trkpt><trkpt lat="41.501603" lon="13.2458379"><ele>45.0</ele><time>2026-03-25T10:22:50.962Z</time></trkpt><trkpt lat="41.501528" lon="13.2457039"><ele>46.0</ele><time>2026-03-25T10:22:51.963Z</time></trkpt><trkpt lat="41.5014537" lon="13.2455721"><ele>47.0</ele><time>2026-03-25T10:22:52.963Z</time></trkpt><trkpt lat="41.5013783" lon="13.2454426"><ele>48.0</ele><time>2026-03-25T10:22:53.96Z</time></trkpt><trkpt lat="41.5013022" lon="13.2453139"><ele>49.0</ele><time>2026-03-25T10:22:54.969Z</time></trkpt><trkpt lat="41.5012224" lon="13.2451823"><ele>47.5</ele><time>2026-03-25T10:22:55.954Z</time></trkpt><trkpt lat="41.501143" lon="13.2450508"><ele>46.0</ele><time>2026-03-25T10:22:56.963Z</time></trkpt><trkpt lat="41.5010679" lon="13.2449233"><ele>44.5</ele><time>2026-03-25T10:22:57.96Z</time></trkpt><trkpt lat="41.5010023" lon="13.2447916"><ele>43.0</ele><time>2026-03-25T10:22:58.958Z</time></trkpt><trkpt lat="41.5009498" lon="13.2446481"><ele>43.0</ele><time>2026-03-25T10:22:59.968Z</time></trkpt><trkpt lat="41.5009099" lon="13.2444965"><ele>43.0</ele><time>2026-03-25T10:23:00.962Z</time></trkpt><trkpt lat="41.5008785" lon="13.2443415"><ele>43.0</ele><time>2026-03-25T10:23:01.961Z</time></trkpt><trkpt lat="41.5008527" lon="13.2441814"><ele>43.0</ele><time>2026-03-25T10:23:02.957Z</time></trkpt><trkpt lat="41.5008279" lon="13.2440216"><ele>43.2</ele><time>2026-03-25T10:23:03.969Z</time></trkpt><trkpt lat="41.5008033" lon="13.2438746"><ele>43.4</ele><time>2026-03-25T10:23:04.953Z</time></trkpt><trkpt lat="41.5007816" lon="13.2437436"><ele>43.6</ele><time>2026-03-25T10:23:05.963Z</time></trkpt><trkpt lat="41.5007614" lon="13.2436251"><ele>43.800000000000004</ele><time>2026-03-25T10:23:06.952Z</time></trkpt><trkpt lat="41.5007435" lon="13.2435195"><ele>44.0</ele><time>2026-03-25T10:23:07.962Z</time></trkpt><trkpt lat="41.5007332" lon="13.2434284"><ele>44.0</ele><time>2026-03-25T10:23:08.956Z</time></trkpt><trkpt lat="41.5007088" lon="13.2432668"><ele>44.0</ele><time>2026-03-25T10:23:10.958Z</time></trkpt><trkpt lat="41.5006888" lon="13.243183"><ele>44.0</ele><time>2026-03-25T10:23:11.963Z</time></trkpt><trkpt lat="41.5006645" lon="13.2430889"><ele>44.0</ele><time>2026-03-25T10:23:12.955Z</time></trkpt><trkpt lat="41.5006392" lon="13.2429889"><ele>44.0</ele><time>2026-03-25T10:23:13.964Z</time></trkpt><trkpt lat="41.5006181" lon="13.2428838"><ele>44.0</ele><time>2026-03-25T10:23:14.963Z</time></trkpt><trkpt lat="41.5006007" lon="13.242779"><ele>44.0</ele><time>2026-03-25T10:23:15.954Z</time></trkpt><trkpt lat="41.5005891" lon="13.2426774"><ele>44.0</ele><time>2026-03-25T10:23:16.969Z</time></trkpt><trkpt lat="41.5005859" lon="13.2425691"><ele>44.0</ele><time>2026-03-25T10:23:17.963Z</time></trkpt><trkpt lat="41.5005875" lon="13.2424525"><ele>44.0</ele><time>2026-03-25T10:23:18.967Z</time></trkpt><trkpt lat="41.5005931" lon="13.2423298"><ele>44.0</ele><time>2026-03-25T10:23:19.96Z</time></trkpt><trkpt lat="41.500595" lon="13.2422043"><ele>44.0</ele><time>2026-03-25T10:23:20.958Z</time></trkpt><trkpt lat="41.5005922" lon="13.2420707"><ele>43.5</ele><time>2026-03-25T10:23:21.959Z</time></trkpt><trkpt lat="41.5005815" lon="13.2419272"><ele>43.0</ele><time>2026-03-25T10:23:22.961Z</time></trkpt><trkpt lat="41.5005624" lon="13.2417846"><ele>42.5</ele><time>2026-03-25T10:23:23.961Z</time></trkpt><trkpt lat="41.5005309" lon="13.241631"><ele>42.0</ele><time>2026-03-25T10:23:24.963Z</time></trkpt><trkpt lat="41.5004931" lon="13.2414696"><ele>41.75</ele><time>2026-03-25T10:23:25.968Z</time></trkpt><trkpt lat="41.5004605" lon="13.2413015"><ele>41.5</ele><time>2026-03-25T10:23:26.952Z</time></trkpt><trkpt lat="41.5004276" lon="13.241131"><ele>41.25</ele><time>2026-03-25T10:23:27.963Z</time></trkpt><trkpt lat="41.5003906" lon="13.2409611"><ele>41.0</ele><time>2026-03-25T10:23:28.957Z</time></trkpt><trkpt lat="41.5003513" lon="13.2407922"><ele>40.75</ele><time>2026-03-25T10:23:29.957Z</time></trkpt><trkpt lat="41.5003054" lon="13.2406256"><ele>40.5</ele><time>2026-03-25T10:23:30.975Z</time></trkpt><trkpt lat="41.50025" lon="13.240466"><ele>40.25</ele><time>2026-03-25T10:23:31.956Z</time></trkpt><trkpt lat="41.5001886" lon="13.2403255"><ele>40.0</ele><time>2026-03-25T10:23:32.967Z</time></trkpt><trkpt lat="41.500128" lon="13.2402017"><ele>40.0</ele><time>2026-03-25T10:23:33.954Z</time></trkpt><trkpt lat="41.5000825" lon="13.2400752"><ele>40.0</ele><time>2026-03-25T10:23:34.955Z</time></trkpt><trkpt lat="41.5000615" lon="13.2399394"><ele>40.0</ele><time>2026-03-25T10:23:35.958Z</time></trkpt><trkpt lat="41.5000671" lon="13.239797"><ele>40.0</ele><time>2026-03-25T10:23:36.955Z</time></trkpt><trkpt lat="41.5000919" lon="13.2396464"><ele>40.0</ele><time>2026-03-25T10:23:37.974Z</time></trkpt><trkpt lat="41.5001243" lon="13.2394927"><ele>41.0</ele><time>2026-03-25T10:23:38.961Z</time></trkpt><trkpt lat="41.5001516" lon="13.239337"><ele>42.0</ele><time>2026-03-25T10:23:39.958Z</time></trkpt><trkpt lat="41.5001785" lon="13.2391816"><ele>43.0</ele><time>2026-03-25T10:23:40.961Z</time></trkpt><trkpt lat="41.5001686" lon="13.2390242"><ele>44.0</ele><time>2026-03-25T10:23:41.964Z</time></trkpt><trkpt lat="41.5001373" lon="13.2388697"><ele>44.5</ele><time>2026-03-25T10:23:42.957Z</time></trkpt><trkpt lat="41.5000925" lon="13.2387159"><ele>45.0</ele><time>2026-03-25T10:23:43.959Z</time></trkpt><trkpt lat="41.5000438" lon="13.2385642"><ele>45.5</ele><time>2026-03-25T10:23:44.96Z</time></trkpt><trkpt lat="41.4999985" lon="13.2384124"><ele>46.0</ele><time>2026-03-25T10:23:45.961Z</time></trkpt><trkpt lat="41.4999633" lon="13.2382579"><ele>46.5</ele><time>2026-03-25T10:23:46.961Z</time></trkpt><trkpt lat="41.4999378" lon="13.2380985"><ele>47.0</ele><time>2026-03-25T10:23:47.968Z</time></trkpt><trkpt lat="41.4999215" lon="13.237934"><ele>47.5</ele><time>2026-03-25T10:23:48.953Z</time></trkpt><trkpt lat="41.4999055" lon="13.2377746"><ele>48.0</ele><time>2026-03-25T10:23:49.963Z</time></trkpt><trkpt lat="41.4999056" lon="13.2376287"><ele>48.0</ele><time>2026-03-25T10:23:50.962Z</time></trkpt><trkpt lat="41.4999159" lon="13.2374917"><ele>48.0</ele><time>2026-03-25T10:23:51.954Z</time></trkpt><trkpt lat="41.4999381" lon="13.2373556"><ele>48.0</ele><time>2026-03-25T10:23:52.97Z</time></trkpt><trkpt lat="41.499977" lon="13.2372242"><ele>48.0</ele><time>2026-03-25T10:23:53.95Z</time></trkpt><trkpt lat="41.5000155" lon="13.2370959"><ele>48.0</ele><time>2026-03-25T10:23:54.963Z</time></trkpt><trkpt lat="41.5000768" lon="13.2369641"><ele>47.75</ele><time>2026-03-25T10:23:55.958Z</time></trkpt><trkpt lat="41.5001463" lon="13.236835"><ele>47.5</ele><time>2026-03-25T10:23:56.955Z</time></trkpt><trkpt lat="41.5002097" lon="13.2367069"><ele>47.25</ele><time>2026-03-25T10:23:57.966Z</time></trkpt><trkpt lat="41.5002748" lon="13.2365834"><ele>47.0</ele><time>2026-03-25T10:23:58.959Z</time></trkpt><trkpt lat="41.5003443" lon="13.2364605"><ele>46.75</ele><time>2026-03-25T10:23:59.967Z</time></trkpt><trkpt lat="41.5004068" lon="13.2363214"><ele>46.5</ele><time>2026-03-25T10:24:00.962Z</time></trkpt><trkpt lat="41.5004657" lon="13.2361792"><ele>46.25</ele><time>2026-03-25T10:24:01.951Z</time></trkpt><trkpt lat="41.5005206" lon="13.2360459"><ele>46.0</ele><time>2026-03-25T10:24:02.966Z</time></trkpt><trkpt lat="41.5005718" lon="13.2359218"><ele>46.0</ele><time>2026-03-25T10:24:03.96Z</time></trkpt><trkpt lat="41.5006209" lon="13.2357954"><ele>46.0</ele><time>2026-03-25T10:24:04.964Z</time></trkpt><trkpt lat="41.5006739" lon="13.2356606"><ele>46.0</ele><time>2026-03-25T10:24:05.96Z</time></trkpt><trkpt lat="41.5006998" lon="13.2355054"><ele>46.0</ele><time>2026-03-25T10:24:06.963Z</time></trkpt><trkpt lat="41.5007139" lon="13.235341"><ele>45.5</ele><time>2026-03-25T10:24:07.956Z</time></trkpt><trkpt lat="41.5007194" lon="13.2351758"><ele>45.0</ele><time>2026-03-25T10:24:08.963Z</time></trkpt><trkpt lat="41.5007197" lon="13.2350098"><ele>44.5</ele><time>2026-03-25T10:24:09.955Z</time></trkpt><trkpt lat="41.5007136" lon="13.2348423"><ele>44.0</ele><time>2026-03-25T10:24:10.961Z</time></trkpt><trkpt lat="41.5006992" lon="13.2346825"><ele>43.5</ele><time>2026-03-25T10:24:11.951Z</time></trkpt><trkpt lat="41.5006799" lon="13.2345272"><ele>43.0</ele><time>2026-03-25T10:24:12.96Z</time></trkpt><trkpt lat="41.5006614" lon="13.2343732"><ele>42.5</ele><time>2026-03-25T10:24:13.958Z</time></trkpt><trkpt lat="41.5006722" lon="13.2342212"><ele>42.0</ele><time>2026-03-25T10:24:14.958Z</time></trkpt><trkpt lat="41.5007004" lon="13.234073"><ele>42.0</ele><time>2026-03-25T10:24:15.958Z</time></trkpt><trkpt lat="41.500736" lon="13.2339228"><ele>42.0</ele><time>2026-03-25T10:24:16.963Z</time></trkpt><trkpt lat="41.5007739" lon="13.2337743"><ele>42.0</ele><time>2026-03-25T10:24:17.954Z</time></trkpt><trkpt lat="41.5008092" lon="13.2336359"><ele>42.0</ele><time>2026-03-25T10:24:18.96Z</time></trkpt><trkpt lat="41.5008392" lon="13.2335156"><ele>42.0</ele><time>2026-03-25T10:24:19.955Z</time></trkpt><trkpt lat="41.5008642" lon="13.233414"><ele>42.0</ele><time>2026-03-25T10:24:20.959Z</time></trkpt><trkpt lat="41.5009038" lon="13.2332781"><ele>42.0</ele><time>2026-03-25T10:24:22.963Z</time></trkpt><trkpt lat="41.5009225" lon="13.2331961"><ele>42.0</ele><time>2026-03-25T10:24:24.964Z</time></trkpt><trkpt lat="41.5008734" lon="13.2330735"><ele>42.0</ele><time>2026-03-25T10:24:27.962Z</time></trkpt><trkpt lat="41.5007638" lon="13.2329595"><ele>42.0</ele><time>2026-03-25T10:24:29.952Z</time></trkpt><trkpt lat="41.5006948" lon="13.232886"><ele>42.0</ele><time>2026-03-25T10:24:30.966Z</time></trkpt><trkpt lat="41.5006226" lon="13.2328093"><ele>42.0</ele><time>2026-03-25T10:24:31.967Z</time></trkpt><trkpt lat="41.5005419" lon="13.2327205"><ele>42.0</ele><time>2026-03-25T10:24:32.957Z</time></trkpt><trkpt lat="41.5004555" lon="13.2326203"><ele>42.0</ele><time>2026-03-25T10:24:33.986Z</time></trkpt><trkpt lat="41.50037" lon="13.2325187"><ele>42.0</ele><time>2026-03-25T10:24:34.96Z</time></trkpt><trkpt lat="41.5002852" lon="13.2324105"><ele>42.0</ele><time>2026-03-25T10:24:35.965Z</time></trkpt><trkpt lat="41.5001967" lon="13.2322941"><ele>42.0</ele><time>2026-03-25T10:24:36.959Z</time></trkpt><trkpt lat="41.5001076" lon="13.2321772"><ele>42.0</ele><time>2026-03-25T10:24:37.962Z</time></trkpt><trkpt lat="41.5000224" lon="13.2320676"><ele>42.0</ele><time>2026-03-25T10:24:38.962Z</time></trkpt><trkpt lat="41.4999379" lon="13.231968"><ele>42.0</ele><time>2026-03-25T10:24:39.963Z</time></trkpt><trkpt lat="41.4998441" lon="13.2318672"><ele>42.0</ele><time>2026-03-25T10:24:40.959Z</time></trkpt><trkpt lat="41.4997415" lon="13.2317619"><ele>42.0</ele><time>2026-03-25T10:24:41.963Z</time></trkpt><trkpt lat="41.4996344" lon="13.2316541"><ele>42.0</ele><time>2026-03-25T10:24:42.957Z</time></trkpt><trkpt lat="41.4995262" lon="13.2315437"><ele>41.0</ele><time>2026-03-25T10:24:43.97Z</time></trkpt><trkpt lat="41.499421" lon="13.2314284"><ele>40.0</ele><time>2026-03-25T10:24:44.962Z</time></trkpt><trkpt lat="41.4993179" lon="13.2313117"><ele>39.0</ele><time>2026-03-25T10:24:45.966Z</time></trkpt><trkpt lat="41.4992207" lon="13.2311941"><ele>38.0</ele><time>2026-03-25T10:24:46.97Z</time></trkpt><trkpt lat="41.4991278" lon="13.2310727"><ele>38.0</ele><time>2026-03-25T10:24:47.967Z</time></trkpt><trkpt lat="41.4990353" lon="13.230951"><ele>38.0</ele><time>2026-03-25T10:24:48.975Z</time></trkpt><trkpt lat="41.498938" lon="13.2308321"><ele>38.0</ele><time>2026-03-25T10:24:49.967Z</time></trkpt><trkpt lat="41.4988313" lon="13.2307189"><ele>38.0</ele><time>2026-03-25T10:24:50.963Z</time></trkpt><trkpt lat="41.4987266" lon="13.2306204"><ele>38.5</ele><time>2026-03-25T10:24:51.965Z</time></trkpt><trkpt lat="41.4986319" lon="13.2305231"><ele>39.0</ele><time>2026-03-25T10:24:52.964Z</time></trkpt><trkpt lat="41.4985463" lon="13.2304106"><ele>39.5</ele><time>2026-03-25T10:24:53.971Z</time></trkpt><trkpt lat="41.4984724" lon="13.2302745"><ele>40.0</ele><time>2026-03-25T10:24:54.968Z</time></trkpt><trkpt lat="41.4984079" lon="13.230122"><ele>40.0</ele><time>2026-03-25T10:24:55.976Z</time></trkpt><trkpt lat="41.4983447" lon="13.2299654"><ele>40.0</ele><time>2026-03-25T10:24:56.961Z</time></trkpt><trkpt lat="41.4982786" lon="13.2298067"><ele>40.0</ele><time>2026-03-25T10:24:57.974Z</time></trkpt><trkpt lat="41.4982114" lon="13.2296479"><ele>40.0</ele><time>2026-03-25T10:24:58.962Z</time></trkpt><trkpt lat="41.4981434" lon="13.2294897"><ele>40.25</ele><time>2026-03-25T10:24:59.972Z</time></trkpt><trkpt lat="41.4980731" lon="13.2293287"><ele>40.5</ele><time>2026-03-25T10:25:00.964Z</time></trkpt><trkpt lat="41.498009" lon="13.2291617"><ele>40.75</ele><time>2026-03-25T10:25:01.961Z</time></trkpt><trkpt lat="41.4979482" lon="13.2289945"><ele>41.0</ele><time>2026-03-25T10:25:02.96Z</time></trkpt><trkpt lat="41.4978836" lon="13.2288276"><ele>41.5</ele><time>2026-03-25T10:25:03.959Z</time></trkpt><trkpt lat="41.4978195" lon="13.2286618"><ele>42.0</ele><time>2026-03-25T10:25:04.966Z</time></trkpt><trkpt lat="41.497757" lon="13.2284994"><ele>42.5</ele><time>2026-03-25T10:25:05.968Z</time></trkpt><trkpt lat="41.4976974" lon="13.2283448"><ele>43.0</ele><time>2026-03-25T10:25:06.962Z</time></trkpt><trkpt lat="41.497642" lon="13.2282043"><ele>42.5</ele><time>2026-03-25T10:25:07.986Z</time></trkpt><trkpt lat="41.4975868" lon="13.2280651"><ele>42.0</ele><time>2026-03-25T10:25:08.96Z</time></trkpt><trkpt lat="41.4975277" lon="13.2279211"><ele>41.5</ele><time>2026-03-25T10:25:09.962Z</time></trkpt><trkpt lat="41.497464" lon="13.2277747"><ele>41.0</ele><time>2026-03-25T10:25:10.959Z</time></trkpt><trkpt lat="41.4973951" lon="13.2276294"><ele>41.0</ele><time>2026-03-25T10:25:11.971Z</time></trkpt><trkpt lat="41.4973198" lon="13.2274863"><ele>41.0</ele><time>2026-03-25T10:25:12.959Z</time></trkpt><trkpt lat="41.4972471" lon="13.227341"><ele>41.0</ele><time>2026-03-25T10:25:13.969Z</time></trkpt><trkpt lat="41.497175" lon="13.2271941"><ele>41.0</ele><time>2026-03-25T10:25:14.965Z</time></trkpt><trkpt lat="41.4971119" lon="13.2270505"><ele>40.5</ele><time>2026-03-25T10:25:15.97Z</time></trkpt><trkpt lat="41.4970508" lon="13.2269096"><ele>40.0</ele><time>2026-03-25T10:25:16.97Z</time></trkpt><trkpt lat="41.4969893" lon="13.2267646"><ele>39.5</ele><time>2026-03-25T10:25:17.964Z</time></trkpt><trkpt lat="41.4969254" lon="13.2266169"><ele>39.0</ele><time>2026-03-25T10:25:18.971Z</time></trkpt><trkpt lat="41.4968578" lon="13.2264633"><ele>39.0</ele><time>2026-03-25T10:25:19.967Z</time></trkpt><trkpt lat="41.4967922" lon="13.2263121"><ele>39.0</ele><time>2026-03-25T10:25:20.965Z</time></trkpt><trkpt lat="41.4967254" lon="13.2261501"><ele>39.0</ele><time>2026-03-25T10:25:21.97Z</time></trkpt><trkpt lat="41.4966668" lon="13.2259971"><ele>39.0</ele><time>2026-03-25T10:25:22.965Z</time></trkpt><trkpt lat="41.4966101" lon="13.2258469"><ele>39.0</ele><time>2026-03-25T10:25:23.958Z</time></trkpt><trkpt lat="41.496555" lon="13.2257019"><ele>39.0</ele><time>2026-03-25T10:25:24.967Z</time></trkpt><trkpt lat="41.4964926" lon="13.2255592"><ele>39.0</ele><time>2026-03-25T10:25:25.966Z</time></trkpt><trkpt lat="41.4964274" lon="13.225421"><ele>39.0</ele><time>2026-03-25T10:25:26.97Z</time></trkpt><trkpt lat="41.4963646" lon="13.2252814"><ele>39.25</ele><time>2026-03-25T10:25:27.965Z</time></trkpt><trkpt lat="41.4963111" lon="13.2251296"><ele>39.5</ele><time>2026-03-25T10:25:28.974Z</time></trkpt><trkpt lat="41.4962618" lon="13.224969"><ele>39.75</ele><time>2026-03-25T10:25:29.964Z</time></trkpt><trkpt lat="41.4962128" lon="13.2248086"><ele>40.0</ele><time>2026-03-25T10:25:30.971Z</time></trkpt><trkpt lat="41.4961605" lon="13.2246514"><ele>40.0</ele><time>2026-03-25T10:25:31.961Z</time></trkpt><trkpt lat="41.4961104" lon="13.2244956"><ele>40.0</ele><time>2026-03-25T10:25:32.962Z</time></trkpt><trkpt lat="41.4960621" lon="13.2243357"><ele>40.0</ele><time>2026-03-25T10:25:33.956Z</time></trkpt><trkpt lat="41.4960162" lon="13.2241722"><ele>40.0</ele><time>2026-03-25T10:25:34.975Z</time></trkpt><trkpt lat="41.4959721" lon="13.2240083"><ele>40.25</ele><time>2026-03-25T10:25:35.959Z</time></trkpt><trkpt lat="41.4959297" lon="13.2238443"><ele>40.5</ele><time>2026-03-25T10:25:36.958Z</time></trkpt><trkpt lat="41.4958831" lon="13.2236851"><ele>40.75</ele><time>2026-03-25T10:25:37.961Z</time></trkpt><trkpt lat="41.4958292" lon="13.2235288"><ele>41.0</ele><time>2026-03-25T10:25:38.963Z</time></trkpt><trkpt lat="41.4957673" lon="13.2233749"><ele>41.0</ele><time>2026-03-25T10:25:39.965Z</time></trkpt><trkpt lat="41.4956986" lon="13.2232246"><ele>41.0</ele><time>2026-03-25T10:25:40.97Z</time></trkpt><trkpt lat="41.4956262" lon="13.2230755"><ele>41.0</ele><time>2026-03-25T10:25:41.963Z</time></trkpt><trkpt lat="41.4955523" lon="13.2229299"><ele>41.0</ele><time>2026-03-25T10:25:42.977Z</time></trkpt><trkpt lat="41.4954805" lon="13.2227831"><ele>40.75</ele><time>2026-03-25T10:25:43.961Z</time></trkpt><trkpt lat="41.4954109" lon="13.2226372"><ele>40.5</ele><time>2026-03-25T10:25:44.963Z</time></trkpt><trkpt lat="41.4953404" lon="13.2224931"><ele>40.25</ele><time>2026-03-25T10:25:45.97Z</time></trkpt><trkpt lat="41.4952692" lon="13.2223489"><ele>40.0</ele><time>2026-03-25T10:25:46.976Z</time></trkpt><trkpt lat="41.4952011" lon="13.2222071"><ele>39.6</ele><time>2026-03-25T10:25:47.964Z</time></trkpt><trkpt lat="41.4951388" lon="13.2220772"><ele>39.2</ele><time>2026-03-25T10:25:48.971Z</time></trkpt><trkpt lat="41.4950823" lon="13.22196"><ele>38.8</ele><time>2026-03-25T10:25:49.966Z</time></trkpt><trkpt lat="41.4950355" lon="13.2218522"><ele>38.4</ele><time>2026-03-25T10:25:50.961Z</time></trkpt><trkpt lat="41.4949997" lon="13.2217491"><ele>38.0</ele><time>2026-03-25T10:25:51.96Z</time></trkpt><trkpt lat="41.4949759" lon="13.2216543"><ele>38.0</ele><time>2026-03-25T10:25:52.969Z</time></trkpt><trkpt lat="41.4949486" lon="13.2215131"><ele>38.0</ele><time>2026-03-25T10:25:54.969Z</time></trkpt><trkpt lat="41.494923" lon="13.2213868"><ele>38.0</ele><time>2026-03-25T10:25:56.965Z</time></trkpt><trkpt lat="41.4948849" lon="13.221233"><ele>38.0</ele><time>2026-03-25T10:25:58.969Z</time></trkpt><trkpt lat="41.4948609" lon="13.2211297"><ele>38.0</ele><time>2026-03-25T10:25:59.973Z</time></trkpt><trkpt lat="41.4948321" lon="13.2210127"><ele>37.6</ele><time>2026-03-25T10:26:00.965Z</time></trkpt><trkpt lat="41.4947985" lon="13.2208953"><ele>37.199999999999996</ele><time>2026-03-25T10:26:01.962Z</time></trkpt><trkpt lat="41.4947527" lon="13.2207719"><ele>36.8</ele><time>2026-03-25T10:26:02.97Z</time></trkpt><trkpt lat="41.4947027" lon="13.2206421"><ele>36.4</ele><time>2026-03-25T10:26:03.963Z</time></trkpt><trkpt lat="41.4946513" lon="13.2205011"><ele>36.0</ele><time>2026-03-25T10:26:04.97Z</time></trkpt><trkpt lat="41.4946058" lon="13.2203592"><ele>36.0</ele><time>2026-03-25T10:26:05.961Z</time></trkpt><trkpt lat="41.4945592" lon="13.2202198"><ele>36.0</ele><time>2026-03-25T10:26:06.968Z</time></trkpt><trkpt lat="41.4945146" lon="13.2200795"><ele>36.0</ele><time>2026-03-25T10:26:07.958Z</time></trkpt><trkpt lat="41.4944629" lon="13.2199376"><ele>36.0</ele><time>2026-03-25T10:26:08.956Z</time></trkpt><trkpt lat="41.494407" lon="13.2197849"><ele>35.75</ele><time>2026-03-25T10:26:09.965Z</time></trkpt><trkpt lat="41.4943511" lon="13.2196342"><ele>35.5</ele><time>2026-03-25T10:26:10.974Z</time></trkpt><trkpt lat="41.4942941" lon="13.2194817"><ele>35.25</ele><time>2026-03-25T10:26:11.962Z</time></trkpt><trkpt lat="41.4942364" lon="13.2193259"><ele>35.0</ele><time>2026-03-25T10:26:12.965Z</time></trkpt><trkpt lat="41.4941747" lon="13.2191642"><ele>35.0</ele><time>2026-03-25T10:26:13.957Z</time></trkpt><trkpt lat="41.4941033" lon="13.21899"><ele>35.0</ele><time>2026-03-25T10:26:14.967Z</time></trkpt><trkpt lat="41.4940328" lon="13.2188196"><ele>35.0</ele><time>2026-03-25T10:26:15.964Z</time></trkpt><trkpt lat="41.4939718" lon="13.2186724"><ele>35.0</ele><time>2026-03-25T10:26:16.963Z</time></trkpt><trkpt lat="41.4939112" lon="13.2185409"><ele>35.0</ele><time>2026-03-25T10:26:17.974Z</time></trkpt><trkpt lat="41.4938539" lon="13.2184392"><ele>35.0</ele><time>2026-03-25T10:26:18.962Z</time></trkpt><trkpt lat="41.4938046" lon="13.2183548"><ele>35.0</ele><time>2026-03-25T10:26:19.97Z</time></trkpt><trkpt lat="41.493763" lon="13.218267"><ele>35.0</ele><time>2026-03-25T10:26:20.962Z</time></trkpt><trkpt lat="41.4937194" lon="13.2181729"><ele>35.0</ele><time>2026-03-25T10:26:21.964Z</time></trkpt><trkpt lat="41.4936714" lon="13.2180808"><ele>35.0</ele><time>2026-03-25T10:26:22.963Z</time></trkpt><trkpt lat="41.4936279" lon="13.2179869"><ele>34.2</ele><time>2026-03-25T10:26:23.971Z</time></trkpt><trkpt lat="41.4936026" lon="13.2178679"><ele>33.4</ele><time>2026-03-25T10:26:24.972Z</time></trkpt><trkpt lat="41.4935895" lon="13.2177268"><ele>32.6</ele><time>2026-03-25T10:26:25.97Z</time></trkpt><trkpt lat="41.4935803" lon="13.2175808"><ele>31.8</ele><time>2026-03-25T10:26:26.962Z</time></trkpt><trkpt lat="41.4935899" lon="13.2174264"><ele>31.0</ele><time>2026-03-25T10:26:27.968Z</time></trkpt><trkpt lat="41.4936011" lon="13.2172709"><ele>30.8</ele><time>2026-03-25T10:26:28.967Z</time></trkpt><trkpt lat="41.493612" lon="13.2171202"><ele>30.6</ele><time>2026-03-25T10:26:29.97Z</time></trkpt><trkpt lat="41.4936216" lon="13.2169714"><ele>30.4</ele><time>2026-03-25T10:26:30.967Z</time></trkpt><trkpt lat="41.4936316" lon="13.2168281"><ele>30.2</ele><time>2026-03-25T10:26:31.962Z</time></trkpt><trkpt lat="41.4936441" lon="13.2166853"><ele>30.0</ele><time>2026-03-25T10:26:32.963Z</time></trkpt><trkpt lat="41.4936552" lon="13.2165454"><ele>30.0</ele><time>2026-03-25T10:26:33.966Z</time></trkpt><trkpt lat="41.4936644" lon="13.2163991"><ele>30.0</ele><time>2026-03-25T10:26:34.972Z</time></trkpt><trkpt lat="41.4936746" lon="13.2162479"><ele>30.0</ele><time>2026-03-25T10:26:35.959Z</time></trkpt><trkpt lat="41.4936826" lon="13.2160967"><ele>30.0</ele><time>2026-03-25T10:26:36.978Z</time></trkpt><trkpt lat="41.4936911" lon="13.2159516"><ele>30.0</ele><time>2026-03-25T10:26:37.97Z</time></trkpt><trkpt lat="41.4936984" lon="13.2158183"><ele>30.0</ele><time>2026-03-25T10:26:38.954Z</time></trkpt><trkpt lat="41.493704" lon="13.2156789"><ele>30.0</ele><time>2026-03-25T10:26:39.97Z</time></trkpt><trkpt lat="41.49371" lon="13.2155437"><ele>30.0</ele><time>2026-03-25T10:26:40.961Z</time></trkpt><trkpt lat="41.4937172" lon="13.2154072"><ele>30.0</ele><time>2026-03-25T10:26:41.981Z</time></trkpt><trkpt lat="41.493726" lon="13.2152619"><ele>30.0</ele><time>2026-03-25T10:26:42.961Z</time></trkpt><trkpt lat="41.4937332" lon="13.2151103"><ele>30.2</ele><time>2026-03-25T10:26:43.968Z</time></trkpt><trkpt lat="41.4937381" lon="13.2149707"><ele>30.4</ele><time>2026-03-25T10:26:44.968Z</time></trkpt><trkpt lat="41.4937429" lon="13.2148249"><ele>30.6</ele><time>2026-03-25T10:26:45.96Z</time></trkpt><trkpt lat="41.4937493" lon="13.2146816"><ele>30.8</ele><time>2026-03-25T10:26:46.96Z</time></trkpt><trkpt lat="41.4937562" lon="13.2145427"><ele>31.0</ele><time>2026-03-25T10:26:47.966Z</time></trkpt><trkpt lat="41.493761" lon="13.2143972"><ele>31.0</ele><time>2026-03-25T10:26:48.969Z</time></trkpt><trkpt lat="41.4937656" lon="13.2142531"><ele>31.0</ele><time>2026-03-25T10:26:49.962Z</time></trkpt><trkpt lat="41.4937683" lon="13.2141118"><ele>31.0</ele><time>2026-03-25T10:26:50.973Z</time></trkpt><trkpt lat="41.493766" lon="13.2139642"><ele>31.0</ele><time>2026-03-25T10:26:51.965Z</time></trkpt><trkpt lat="41.4937546" lon="13.2138214"><ele>31.0</ele><time>2026-03-25T10:26:52.968Z</time></trkpt><trkpt lat="41.4937428" lon="13.2136775"><ele>31.25</ele><time>2026-03-25T10:26:53.965Z</time></trkpt><trkpt lat="41.4937149" lon="13.2135216"><ele>31.5</ele><time>2026-03-25T10:26:54.966Z</time></trkpt><trkpt lat="41.4936817" lon="13.2133614"><ele>31.75</ele><time>2026-03-25T10:26:55.965Z</time></trkpt><trkpt lat="41.4936532" lon="13.2132113"><ele>32.0</ele><time>2026-03-25T10:26:56.963Z</time></trkpt><trkpt lat="41.4936293" lon="13.2130718"><ele>32.0</ele><time>2026-03-25T10:26:57.959Z</time></trkpt><trkpt lat="41.4936058" lon="13.2129336"><ele>32.0</ele><time>2026-03-25T10:26:58.972Z</time></trkpt><trkpt lat="41.4935822" lon="13.2127998"><ele>32.0</ele><time>2026-03-25T10:26:59.97Z</time></trkpt><trkpt lat="41.4935586" lon="13.2126711"><ele>32.0</ele><time>2026-03-25T10:27:00.963Z</time></trkpt><trkpt lat="41.4935239" lon="13.2125278"><ele>32.0</ele><time>2026-03-25T10:27:01.979Z</time></trkpt><trkpt lat="41.4934832" lon="13.212383"><ele>31.75</ele><time>2026-03-25T10:27:02.964Z</time></trkpt><trkpt lat="41.4934444" lon="13.2122322"><ele>31.5</ele><time>2026-03-25T10:27:03.969Z</time></trkpt><trkpt lat="41.4934046" lon="13.212083"><ele>31.25</ele><time>2026-03-25T10:27:04.963Z</time></trkpt><trkpt lat="41.4933652" lon="13.211936"><ele>31.0</ele><time>2026-03-25T10:27:05.964Z</time></trkpt><trkpt lat="41.4933276" lon="13.2117889"><ele>31.0</ele><time>2026-03-25T10:27:06.966Z</time></trkpt><trkpt lat="41.4932943" lon="13.2116419"><ele>31.0</ele><time>2026-03-25T10:27:07.963Z</time></trkpt><trkpt lat="41.4932531" lon="13.2114845"><ele>31.0</ele><time>2026-03-25T10:27:08.982Z</time></trkpt><trkpt lat="41.4932074" lon="13.2113277"><ele>31.0</ele><time>2026-03-25T10:27:09.959Z</time></trkpt><trkpt lat="41.4931639" lon="13.2111731"><ele>31.0</ele><time>2026-03-25T10:27:10.971Z</time></trkpt><trkpt lat="41.4931209" lon="13.2110159"><ele>31.0</ele><time>2026-03-25T10:27:11.959Z</time></trkpt><trkpt lat="41.4930705" lon="13.2108536"><ele>31.0</ele><time>2026-03-25T10:27:12.963Z</time></trkpt><trkpt lat="41.4930205" lon="13.2106935"><ele>31.0</ele><time>2026-03-25T10:27:13.967Z</time></trkpt><trkpt lat="41.4929666" lon="13.2105354"><ele>30.75</ele><time>2026-03-25T10:27:14.959Z</time></trkpt><trkpt lat="41.4929085" lon="13.2103823"><ele>30.5</ele><time>2026-03-25T10:27:15.974Z</time></trkpt><trkpt lat="41.4928513" lon="13.2102319"><ele>30.25</ele><time>2026-03-25T10:27:16.967Z</time></trkpt><trkpt lat="41.4927937" lon="13.2100857"><ele>30.0</ele><time>2026-03-25T10:27:17.965Z</time></trkpt><trkpt lat="41.4927411" lon="13.2099391"><ele>30.4</ele><time>2026-03-25T10:27:18.958Z</time></trkpt><trkpt lat="41.4926898" lon="13.2097939"><ele>30.8</ele><time>2026-03-25T10:27:19.964Z</time></trkpt><trkpt lat="41.4926426" lon="13.2096564"><ele>31.200000000000003</ele><time>2026-03-25T10:27:20.958Z</time></trkpt><trkpt lat="41.4925954" lon="13.2095242"><ele>31.6</ele><time>2026-03-25T10:27:21.958Z</time></trkpt><trkpt lat="41.4925567" lon="13.2094021"><ele>32.0</ele><time>2026-03-25T10:27:22.972Z</time></trkpt><trkpt lat="41.4925309" lon="13.2092764"><ele>31.999999999999996</ele><time>2026-03-25T10:27:23.958Z</time></trkpt><trkpt lat="41.4925165" lon="13.2091488"><ele>32.0</ele><time>2026-03-25T10:27:24.962Z</time></trkpt><trkpt lat="41.4925059" lon="13.209035"><ele>32.0</ele><time>2026-03-25T10:27:25.963Z</time></trkpt><trkpt lat="41.4924969" lon="13.2089267"><ele>32.0</ele><time>2026-03-25T10:27:26.957Z</time></trkpt><trkpt lat="41.4924923" lon="13.2088339"><ele>31.999999999999996</ele><time>2026-03-25T10:27:27.964Z</time></trkpt><trkpt lat="41.4924936" lon="13.2087399"><ele>32.0</ele><time>2026-03-25T10:27:28.972Z</time></trkpt><trkpt lat="41.4925024" lon="13.2086347"><ele>32.0</ele><time>2026-03-25T10:27:29.959Z</time></trkpt><trkpt lat="41.4925147" lon="13.208535"><ele>32.0</ele><time>2026-03-25T10:27:30.959Z</time></trkpt><trkpt lat="41.4925294" lon="13.2084456"><ele>32.0</ele><time>2026-03-25T10:27:31.964Z</time></trkpt><trkpt lat="41.4925476" lon="13.2083626"><ele>32.0</ele><time>2026-03-25T10:27:32.957Z</time></trkpt><trkpt lat="41.4925757" lon="13.208207"><ele>32.0</ele><time>2026-03-25T10:27:34.951Z</time></trkpt><trkpt lat="41.4926696" lon="13.2078521"><ele>32.0</ele><time>2026-03-25T10:27:39.944Z</time></trkpt><trkpt lat="41.4927258" lon="13.2077379"><ele>32.0</ele><time>2026-03-25T10:27:41.965Z</time></trkpt><trkpt lat="41.492796" lon="13.2076386"><ele>32.0</ele><time>2026-03-25T10:27:43.977Z</time></trkpt><trkpt lat="41.4928961" lon="13.2075455"><ele>32.0</ele><time>2026-03-25T10:27:45.959Z</time></trkpt><trkpt lat="41.4929748" lon="13.2074349"><ele>32.0</ele><time>2026-03-25T10:27:47.959Z</time></trkpt><trkpt lat="41.4930466" lon="13.2073257"><ele>32.33333333333333</ele><time>2026-03-25T10:27:49.966Z</time></trkpt><trkpt lat="41.493111" lon="13.2072245"><ele>32.666666666666664</ele><time>2026-03-25T10:27:51.962Z</time></trkpt><trkpt lat="41.4931474" lon="13.2071503"><ele>33.0</ele><time>2026-03-25T10:27:52.957Z</time></trkpt><trkpt lat="41.4931767" lon="13.207069"><ele>33.333333333333336</ele><time>2026-03-25T10:27:53.96Z</time></trkpt><trkpt lat="41.4932035" lon="13.206971"><ele>33.66666666666667</ele><time>2026-03-25T10:27:54.954Z</time></trkpt><trkpt lat="41.4932313" lon="13.2068596"><ele>34.0</ele><time>2026-03-25T10:27:55.965Z</time></trkpt><trkpt lat="41.493262" lon="13.2067404"><ele>34.0</ele><time>2026-03-25T10:27:56.962Z</time></trkpt><trkpt lat="41.4932991" lon="13.2066251"><ele>34.0</ele><time>2026-03-25T10:27:57.958Z</time></trkpt><trkpt lat="41.4933325" lon="13.2065328"><ele>34.0</ele><time>2026-03-25T10:27:58.957Z</time></trkpt><trkpt lat="41.4933302" lon="13.2063981"><ele>34.0</ele><time>2026-03-25T10:28:00.96Z</time></trkpt><trkpt lat="41.4932245" lon="13.2063308"><ele>34.0</ele><time>2026-03-25T10:28:02.954Z</time></trkpt><trkpt lat="41.4931453" lon="13.2063269"><ele>33.857142857142854</ele><time>2026-03-25T10:28:03.96Z</time></trkpt><trkpt lat="41.4930649" lon="13.2063082"><ele>33.714285714285715</ele><time>2026-03-25T10:28:04.963Z</time></trkpt><trkpt lat="41.4929971" lon="13.206267"><ele>33.57142857142857</ele><time>2026-03-25T10:28:05.959Z</time></trkpt><trkpt lat="41.4929501" lon="13.2062004"><ele>33.42857142857143</ele><time>2026-03-25T10:28:06.981Z</time></trkpt><trkpt lat="41.4929052" lon="13.2061363"><ele>33.285714285714285</ele><time>2026-03-25T10:28:07.97Z</time></trkpt><trkpt lat="41.4928779" lon="13.2060493"><ele>33.14285714285714</ele><time>2026-03-25T10:28:08.952Z</time></trkpt><trkpt lat="41.4928897" lon="13.2059569"><ele>33.0</ele><time>2026-03-25T10:28:09.955Z</time></trkpt><trkpt lat="41.4929205" lon="13.2058737"><ele>33.0</ele><time>2026-03-25T10:28:10.959Z</time></trkpt><trkpt lat="41.49295" lon="13.2057957"><ele>33.0</ele><time>2026-03-25T10:28:11.951Z</time></trkpt><trkpt lat="41.4930303" lon="13.2056771"><ele>33.0</ele><time>2026-03-25T10:28:13.956Z</time></trkpt><trkpt lat="41.493085" lon="13.2056007"><ele>33.0</ele><time>2026-03-25T10:28:14.957Z</time></trkpt><trkpt lat="41.4931374" lon="13.2055433"><ele>33.0</ele><time>2026-03-25T10:28:15.957Z</time></trkpt><trkpt lat="41.4931674" lon="13.205436"><ele>33.0</ele><time>2026-03-25T10:28:17.954Z</time></trkpt><trkpt lat="41.4930831" lon="13.2053318"><ele>33.0</ele><time>2026-03-25T10:28:19.971Z</time></trkpt><trkpt lat="41.4930235" lon="13.2052649"><ele>33.0</ele><time>2026-03-25T10:28:20.956Z</time></trkpt><trkpt lat="41.492954" lon="13.2051918"><ele>33.0</ele><time>2026-03-25T10:28:21.958Z</time></trkpt><trkpt lat="41.4928742" lon="13.2051116"><ele>33.0</ele><time>2026-03-25T10:28:22.958Z</time></trkpt><trkpt lat="41.4927847" lon="13.2050272"><ele>33.0</ele><time>2026-03-25T10:28:23.956Z</time></trkpt><trkpt lat="41.4926906" lon="13.2049433"><ele>32.25</ele><time>2026-03-25T10:28:24.963Z</time></trkpt><trkpt lat="41.4925945" lon="13.20486"><ele>31.5</ele><time>2026-03-25T10:28:25.959Z</time></trkpt><trkpt lat="41.4924887" lon="13.204773"><ele>30.75</ele><time>2026-03-25T10:28:26.966Z</time></trkpt><trkpt lat="41.4923788" lon="13.2046821"><ele>30.0</ele><time>2026-03-25T10:28:27.958Z</time></trkpt><trkpt lat="41.4922642" lon="13.204595"><ele>30.0</ele><time>2026-03-25T10:28:28.967Z</time></trkpt><trkpt lat="41.4921466" lon="13.2045093"><ele>30.0</ele><time>2026-03-25T10:28:29.963Z</time></trkpt><trkpt lat="41.4920227" lon="13.2044248"><ele>30.0</ele><time>2026-03-25T10:28:30.971Z</time></trkpt><trkpt lat="41.4918995" lon="13.2043453"><ele>30.0</ele><time>2026-03-25T10:28:31.962Z</time></trkpt><trkpt lat="41.4917713" lon="13.2042637"><ele>29.666666666666664</ele><time>2026-03-25T10:28:32.96Z</time></trkpt><trkpt lat="41.4916367" lon="13.2041752"><ele>29.333333333333332</ele><time>2026-03-25T10:28:33.961Z</time></trkpt><trkpt lat="41.4914952" lon="13.2040884"><ele>29.0</ele><time>2026-03-25T10:28:34.963Z</time></trkpt><trkpt lat="41.4913527" lon="13.2040012"><ele>29.0</ele><time>2026-03-25T10:28:35.963Z</time></trkpt><trkpt lat="41.4912108" lon="13.2039136"><ele>29.0</ele><time>2026-03-25T10:28:36.958Z</time></trkpt><trkpt lat="41.4910676" lon="13.2038235"><ele>29.0</ele><time>2026-03-25T10:28:37.969Z</time></trkpt><trkpt lat="41.490925" lon="13.2037344"><ele>29.0</ele><time>2026-03-25T10:28:38.951Z</time></trkpt><trkpt lat="41.4907841" lon="13.2036456"><ele>29.0</ele><time>2026-03-25T10:28:39.956Z</time></trkpt><trkpt lat="41.4906408" lon="13.2035571"><ele>29.0</ele><time>2026-03-25T10:28:40.958Z</time></trkpt><trkpt lat="41.4904944" lon="13.2034659"><ele>28.666666666666664</ele><time>2026-03-25T10:28:41.959Z</time></trkpt><trkpt lat="41.4903496" lon="13.2033741"><ele>28.333333333333336</ele><time>2026-03-25T10:28:42.972Z</time></trkpt><trkpt lat="41.4902073" lon="13.2032715"><ele>28.0</ele><time>2026-03-25T10:28:43.959Z</time></trkpt><trkpt lat="41.4900752" lon="13.2031562"><ele>28.0</ele><time>2026-03-25T10:28:44.965Z</time></trkpt><trkpt lat="41.4899405" lon="13.2030475"><ele>28.0</ele><time>2026-03-25T10:28:45.954Z</time></trkpt><trkpt lat="41.4897893" lon="13.2029567"><ele>28.0</ele><time>2026-03-25T10:28:46.968Z</time></trkpt><trkpt lat="41.489638" lon="13.2028772"><ele>28.666666666666668</ele><time>2026-03-25T10:28:47.958Z</time></trkpt><trkpt lat="41.4894956" lon="13.2027886"><ele>29.333333333333336</ele><time>2026-03-25T10:28:48.954Z</time></trkpt><trkpt lat="41.4893584" lon="13.2026864"><ele>30.0</ele><time>2026-03-25T10:28:49.961Z</time></trkpt><trkpt lat="41.489223" lon="13.2025794"><ele>30.0</ele><time>2026-03-25T10:28:50.973Z</time></trkpt><trkpt lat="41.4890876" lon="13.2024682"><ele>30.0</ele><time>2026-03-25T10:28:51.959Z</time></trkpt><trkpt lat="41.4889495" lon="13.202354"><ele>30.0</ele><time>2026-03-25T10:28:52.974Z</time></trkpt><trkpt lat="41.4888094" lon="13.2022389"><ele>29.666666666666664</ele><time>2026-03-25T10:28:53.957Z</time></trkpt><trkpt lat="41.488673" lon="13.2021243"><ele>29.333333333333332</ele><time>2026-03-25T10:28:54.965Z</time></trkpt><trkpt lat="41.48854" lon="13.2019966"><ele>29.0</ele><time>2026-03-25T10:28:55.964Z</time></trkpt><trkpt lat="41.4884076" lon="13.2018629"><ele>29.0</ele><time>2026-03-25T10:28:56.96Z</time></trkpt><trkpt lat="41.4882771" lon="13.2017281"><ele>29.0</ele><time>2026-03-25T10:28:57.972Z</time></trkpt><trkpt lat="41.4881469" lon="13.2015882"><ele>29.0</ele><time>2026-03-25T10:28:58.967Z</time></trkpt><trkpt lat="41.4880161" lon="13.2014502"><ele>29.0</ele><time>2026-03-25T10:28:59.966Z</time></trkpt><trkpt lat="41.4878863" lon="13.2013059"><ele>29.0</ele><time>2026-03-25T10:29:00.966Z</time></trkpt><trkpt lat="41.4877595" lon="13.2011569"><ele>29.0</ele><time>2026-03-25T10:29:01.963Z</time></trkpt><trkpt lat="41.4876356" lon="13.2010078"><ele>29.0</ele><time>2026-03-25T10:29:02.958Z</time></trkpt><trkpt lat="41.4875113" lon="13.2008551"><ele>29.0</ele><time>2026-03-25T10:29:03.963Z</time></trkpt><trkpt lat="41.4873885" lon="13.2006948"><ele>29.0</ele><time>2026-03-25T10:29:04.959Z</time></trkpt><trkpt lat="41.4872698" lon="13.2005372"><ele>29.0</ele><time>2026-03-25T10:29:05.958Z</time></trkpt><trkpt lat="41.4871519" lon="13.2003847"><ele>29.0</ele><time>2026-03-25T10:29:06.961Z</time></trkpt><trkpt lat="41.4870423" lon="13.2002395"><ele>29.0</ele><time>2026-03-25T10:29:07.96Z</time></trkpt><trkpt lat="41.4869382" lon="13.2000963"><ele>29.0</ele><time>2026-03-25T10:29:08.956Z</time></trkpt><trkpt lat="41.4868456" lon="13.199959"><ele>29.0</ele><time>2026-03-25T10:29:09.966Z</time></trkpt><trkpt lat="41.4867661" lon="13.1998332"><ele>29.0</ele><time>2026-03-25T10:29:10.966Z</time></trkpt><trkpt lat="41.4867064" lon="13.1997149"><ele>29.0</ele><time>2026-03-25T10:29:11.963Z</time></trkpt><trkpt lat="41.4866767" lon="13.1996003"><ele>28.5</ele><time>2026-03-25T10:29:12.958Z</time></trkpt><trkpt lat="41.4866694" lon="13.1994631"><ele>28.0</ele><time>2026-03-25T10:29:13.976Z</time></trkpt><trkpt lat="41.4866674" lon="13.1993044"><ele>27.5</ele><time>2026-03-25T10:29:14.968Z</time></trkpt><trkpt lat="41.4866555" lon="13.1991422"><ele>27.0</ele><time>2026-03-25T10:29:15.972Z</time></trkpt><trkpt lat="41.4866387" lon="13.1989785"><ele>27.0</ele><time>2026-03-25T10:29:16.958Z</time></trkpt><trkpt lat="41.4866251" lon="13.1988162"><ele>27.0</ele><time>2026-03-25T10:29:17.965Z</time></trkpt><trkpt lat="41.4866076" lon="13.1986505"><ele>27.0</ele><time>2026-03-25T10:29:18.963Z</time></trkpt><trkpt lat="41.4865988" lon="13.1984822"><ele>27.0</ele><time>2026-03-25T10:29:19.976Z</time></trkpt><trkpt lat="41.4865795" lon="13.1983128"><ele>27.0</ele><time>2026-03-25T10:29:20.957Z</time></trkpt><trkpt lat="41.4865559" lon="13.1981678"><ele>27.0</ele><time>2026-03-25T10:29:21.972Z</time></trkpt><trkpt lat="41.4865352" lon="13.1980451"><ele>27.0</ele><time>2026-03-25T10:29:22.955Z</time></trkpt><trkpt lat="41.4865152" lon="13.1979531"><ele>27.0</ele><time>2026-03-25T10:29:23.964Z</time></trkpt><trkpt lat="41.4864812" lon="13.1978725"><ele>27.0</ele><time>2026-03-25T10:29:25.97Z</time></trkpt><trkpt lat="41.4864187" lon="13.1978023"><ele>27.0</ele><time>2026-03-25T10:29:28.962Z</time></trkpt><trkpt lat="41.4863188" lon="13.1978262"><ele>27.0</ele><time>2026-03-25T10:29:30.969Z</time></trkpt><trkpt lat="41.4862605" lon="13.1978648"><ele>27.0</ele><time>2026-03-25T10:29:31.966Z</time></trkpt><trkpt lat="41.4861933" lon="13.1979097"><ele>27.0</ele><time>2026-03-25T10:29:32.984Z</time></trkpt><trkpt lat="41.4861212" lon="13.1979589"><ele>27.0</ele><time>2026-03-25T10:29:33.967Z</time></trkpt><trkpt lat="41.4860394" lon="13.1980058"><ele>27.0</ele><time>2026-03-25T10:29:34.968Z</time></trkpt><trkpt lat="41.4859517" lon="13.1980606"><ele>27.0</ele><time>2026-03-25T10:29:35.969Z</time></trkpt><trkpt lat="41.4858528" lon="13.198125"><ele>27.75</ele><time>2026-03-25T10:29:36.96Z</time></trkpt><trkpt lat="41.4857593" lon="13.1981897"><ele>28.5</ele><time>2026-03-25T10:29:37.973Z</time></trkpt><trkpt lat="41.4856605" lon="13.1982595"><ele>29.25</ele><time>2026-03-25T10:29:38.96Z</time></trkpt><trkpt lat="41.4855529" lon="13.1983321"><ele>30.0</ele><time>2026-03-25T10:29:39.97Z</time></trkpt><trkpt lat="41.4854457" lon="13.1984084"><ele>29.5</ele><time>2026-03-25T10:29:40.962Z</time></trkpt><trkpt lat="41.4853377" lon="13.1984884"><ele>29.0</ele><time>2026-03-25T10:29:41.963Z</time></trkpt><trkpt lat="41.4852321" lon="13.1985696"><ele>28.5</ele><time>2026-03-25T10:29:42.964Z</time></trkpt><trkpt lat="41.4851218" lon="13.1986491"><ele>28.0</ele><time>2026-03-25T10:29:43.963Z</time></trkpt><trkpt lat="41.4850239" lon="13.1987216"><ele>28.0</ele><time>2026-03-25T10:29:44.97Z</time></trkpt><trkpt lat="41.4849222" lon="13.1987935"><ele>28.0</ele><time>2026-03-25T10:29:45.962Z</time></trkpt><trkpt lat="41.4848186" lon="13.1988694"><ele>28.0</ele><time>2026-03-25T10:29:46.968Z</time></trkpt><trkpt lat="41.4847143" lon="13.1989519"><ele>28.0</ele><time>2026-03-25T10:29:47.964Z</time></trkpt><trkpt lat="41.4846106" lon="13.1990357"><ele>28.4</ele><time>2026-03-25T10:29:48.971Z</time></trkpt><trkpt lat="41.4845147" lon="13.1991121"><ele>28.799999999999997</ele><time>2026-03-25T10:29:49.98Z</time></trkpt><trkpt lat="41.484424" lon="13.1991647"><ele>29.2</ele><time>2026-03-25T10:29:50.959Z</time></trkpt><trkpt lat="41.4843317" lon="13.1991866"><ele>29.6</ele><time>2026-03-25T10:29:51.966Z</time></trkpt><trkpt lat="41.4842381" lon="13.1991912"><ele>30.0</ele><time>2026-03-25T10:29:52.958Z</time></trkpt><trkpt lat="41.4841421" lon="13.1991987"><ele>30.0</ele><time>2026-03-25T10:29:53.966Z</time></trkpt><trkpt lat="41.4840573" lon="13.1992422"><ele>30.0</ele><time>2026-03-25T10:29:54.972Z</time></trkpt><trkpt lat="41.4839843" lon="13.1992977"><ele>30.0</ele><time>2026-03-25T10:29:55.974Z</time></trkpt><trkpt lat="41.4839477" lon="13.1993946"><ele>30.0</ele><time>2026-03-25T10:29:56.963Z</time></trkpt><trkpt lat="41.4839339" lon="13.1995169"><ele>30.0</ele><time>2026-03-25T10:29:57.973Z</time></trkpt><trkpt lat="41.4839494" lon="13.1996395"><ele>30.0</ele><time>2026-03-25T10:29:58.967Z</time></trkpt><trkpt lat="41.4839935" lon="13.1997597"><ele>29.8</ele><time>2026-03-25T10:29:59.967Z</time></trkpt><trkpt lat="41.4840421" lon="13.1998867"><ele>29.6</ele><time>2026-03-25T10:30:00.973Z</time></trkpt><trkpt lat="41.4840688" lon="13.2000275"><ele>29.4</ele><time>2026-03-25T10:30:01.969Z</time></trkpt><trkpt lat="41.4840667" lon="13.2001742"><ele>29.2</ele><time>2026-03-25T10:30:02.959Z</time></trkpt><trkpt lat="41.484048" lon="13.2003222"><ele>29.0</ele><time>2026-03-25T10:30:03.963Z</time></trkpt><trkpt lat="41.4840282" lon="13.2004694"><ele>29.0</ele><time>2026-03-25T10:30:04.972Z</time></trkpt><trkpt lat="41.4840055" lon="13.2006194"><ele>29.0</ele><time>2026-03-25T10:30:05.962Z</time></trkpt><trkpt lat="41.4839781" lon="13.2007767"><ele>29.0</ele><time>2026-03-25T10:30:06.965Z</time></trkpt><trkpt lat="41.4839495" lon="13.2009392"><ele>29.0</ele><time>2026-03-25T10:30:07.962Z</time></trkpt><trkpt lat="41.4839196" lon="13.2011033"><ele>28.999999999999996</ele><time>2026-03-25T10:30:08.969Z</time></trkpt><trkpt lat="41.4838927" lon="13.2012487"><ele>29.0</ele><time>2026-03-25T10:30:09.969Z</time></trkpt><trkpt lat="41.4838731" lon="13.2013744"><ele>29.0</ele><time>2026-03-25T10:30:10.977Z</time></trkpt><trkpt lat="41.4838555" lon="13.2014756"><ele>29.0</ele><time>2026-03-25T10:30:11.973Z</time></trkpt><trkpt lat="41.4838084" lon="13.2015674"><ele>28.999999999999996</ele><time>2026-03-25T10:30:13.965Z</time></trkpt><trkpt lat="41.4837433" lon="13.2015159"><ele>29.0</ele><time>2026-03-25T10:30:15.965Z</time></trkpt><trkpt lat="41.4837005" lon="13.2014492"><ele>28.799999999999997</ele><time>2026-03-25T10:30:16.96Z</time></trkpt><trkpt lat="41.4836464" lon="13.2013792"><ele>28.599999999999998</ele><time>2026-03-25T10:30:17.956Z</time></trkpt><trkpt lat="41.4835629" lon="13.2013086"><ele>28.4</ele><time>2026-03-25T10:30:18.979Z</time></trkpt><trkpt lat="41.4834626" lon="13.2012422"><ele>28.2</ele><time>2026-03-25T10:30:19.966Z</time></trkpt><trkpt lat="41.4833454" lon="13.2011761"><ele>28.0</ele><time>2026-03-25T10:30:20.968Z</time></trkpt><trkpt lat="41.4832277" lon="13.2011056"><ele>28.0</ele><time>2026-03-25T10:30:21.968Z</time></trkpt><trkpt lat="41.4831109" lon="13.2010317"><ele>28.0</ele><time>2026-03-25T10:30:22.969Z</time></trkpt><trkpt lat="41.4829844" lon="13.2009576"><ele>28.0</ele><time>2026-03-25T10:30:23.96Z</time></trkpt><trkpt lat="41.4828558" lon="13.2008916"><ele>28.0</ele><time>2026-03-25T10:30:24.965Z</time></trkpt><trkpt lat="41.482727" lon="13.2008191"><ele>28.0</ele><time>2026-03-25T10:30:25.966Z</time></trkpt><trkpt lat="41.4825995" lon="13.2007553"><ele>28.0</ele><time>2026-03-25T10:30:26.969Z</time></trkpt><trkpt lat="41.4824673" lon="13.2006843"><ele>28.0</ele><time>2026-03-25T10:30:27.961Z</time></trkpt><trkpt lat="41.4823264" lon="13.2006135"><ele>28.0</ele><time>2026-03-25T10:30:28.969Z</time></trkpt><trkpt lat="41.4821968" lon="13.2005351"><ele>28.25</ele><time>2026-03-25T10:30:29.965Z</time></trkpt><trkpt lat="41.4820618" lon="13.2004599"><ele>28.5</ele><time>2026-03-25T10:30:30.961Z</time></trkpt><trkpt lat="41.4819269" lon="13.2003862"><ele>28.75</ele><time>2026-03-25T10:30:31.962Z</time></trkpt><trkpt lat="41.4818001" lon="13.2002916"><ele>29.0</ele><time>2026-03-25T10:30:32.964Z</time></trkpt><trkpt lat="41.4816795" lon="13.2001752"><ele>29.0</ele><time>2026-03-25T10:30:33.967Z</time></trkpt><trkpt lat="41.4815526" lon="13.2000581"><ele>29.0</ele><time>2026-03-25T10:30:34.958Z</time></trkpt><trkpt lat="41.4814668" lon="13.1999236"><ele>29.0</ele><time>2026-03-25T10:30:35.976Z</time></trkpt><trkpt lat="41.4813738" lon="13.199775"><ele>29.0</ele><time>2026-03-25T10:30:36.964Z</time></trkpt><trkpt lat="41.4812895" lon="13.19963"><ele>28.5</ele><time>2026-03-25T10:30:37.968Z</time></trkpt><trkpt lat="41.4812186" lon="13.1994741"><ele>28.0</ele><time>2026-03-25T10:30:38.967Z</time></trkpt><trkpt lat="41.4811475" lon="13.1993181"><ele>27.5</ele><time>2026-03-25T10:30:39.969Z</time></trkpt><trkpt lat="41.4810823" lon="13.1991617"><ele>27.0</ele><time>2026-03-25T10:30:40.97Z</time></trkpt><trkpt lat="41.48102" lon="13.1990241"><ele>27.25</ele><time>2026-03-25T10:30:41.966Z</time></trkpt><trkpt lat="41.4809759" lon="13.1988807"><ele>27.5</ele><time>2026-03-25T10:30:42.973Z</time></trkpt><trkpt lat="41.4809377" lon="13.1987327"><ele>27.75</ele><time>2026-03-25T10:30:43.966Z</time></trkpt><trkpt lat="41.480912" lon="13.1985783"><ele>28.0</ele><time>2026-03-25T10:30:44.966Z</time></trkpt><trkpt lat="41.4808594" lon="13.1984169"><ele>28.0</ele><time>2026-03-25T10:30:45.973Z</time></trkpt><trkpt lat="41.4807716" lon="13.1982606"><ele>28.0</ele><time>2026-03-25T10:30:46.968Z</time></trkpt><trkpt lat="41.4806868" lon="13.1981035"><ele>28.0</ele><time>2026-03-25T10:30:47.963Z</time></trkpt><trkpt lat="41.4805961" lon="13.1979642"><ele>28.0</ele><time>2026-03-25T10:30:48.975Z</time></trkpt><trkpt lat="41.4804954" lon="13.1978474"><ele>27.5</ele><time>2026-03-25T10:30:49.963Z</time></trkpt><trkpt lat="41.4803774" lon="13.1977532"><ele>27.0</ele><time>2026-03-25T10:30:50.969Z</time></trkpt><trkpt lat="41.4802332" lon="13.1976825"><ele>26.5</ele><time>2026-03-25T10:30:51.965Z</time></trkpt><trkpt lat="41.480089" lon="13.197624"><ele>26.0</ele><time>2026-03-25T10:30:52.962Z</time></trkpt><trkpt lat="41.4799388" lon="13.1975916"><ele>26.0</ele><time>2026-03-25T10:30:53.978Z</time></trkpt><trkpt lat="41.4797926" lon="13.197554"><ele>26.0</ele><time>2026-03-25T10:30:54.963Z</time></trkpt><trkpt lat="41.479651" lon="13.1975147"><ele>26.0</ele><time>2026-03-25T10:30:55.966Z</time></trkpt><trkpt lat="41.4795307" lon="13.1974654"><ele>26.0</ele><time>2026-03-25T10:30:56.961Z</time></trkpt><trkpt lat="41.479412" lon="13.1974018"><ele>26.25</ele><time>2026-03-25T10:30:57.961Z</time></trkpt><trkpt lat="41.4792971" lon="13.1973107"><ele>26.5</ele><time>2026-03-25T10:30:58.968Z</time></trkpt><trkpt lat="41.4791841" lon="13.1972132"><ele>26.75</ele><time>2026-03-25T10:30:59.961Z</time></trkpt><trkpt lat="41.4790756" lon="13.1970873"><ele>27.0</ele><time>2026-03-25T10:31:00.97Z</time></trkpt><trkpt lat="41.4789708" lon="13.1969411"><ele>27.0</ele><time>2026-03-25T10:31:01.961Z</time></trkpt><trkpt lat="41.4788688" lon="13.1967987"><ele>27.0</ele><time>2026-03-25T10:31:02.99Z</time></trkpt><trkpt lat="41.4787826" lon="13.1966481"><ele>27.0</ele><time>2026-03-25T10:31:03.963Z</time></trkpt><trkpt lat="41.4787004" lon="13.1964806"><ele>27.0</ele><time>2026-03-25T10:31:04.966Z</time></trkpt><trkpt lat="41.4786179" lon="13.1963135"><ele>27.0</ele><time>2026-03-25T10:31:05.961Z</time></trkpt><trkpt lat="41.4785516" lon="13.196145"><ele>27.0</ele><time>2026-03-25T10:31:06.971Z</time></trkpt><trkpt lat="41.4784863" lon="13.1959746"><ele>27.0</ele><time>2026-03-25T10:31:07.962Z</time></trkpt><trkpt lat="41.4784254" lon="13.1957919"><ele>27.0</ele><time>2026-03-25T10:31:08.961Z</time></trkpt><trkpt lat="41.4783595" lon="13.1956165"><ele>26.75</ele><time>2026-03-25T10:31:09.962Z</time></trkpt><trkpt lat="41.4782918" lon="13.1954683"><ele>26.5</ele><time>2026-03-25T10:31:10.962Z</time></trkpt><trkpt lat="41.478224" lon="13.1953389"><ele>26.25</ele><time>2026-03-25T10:31:11.965Z</time></trkpt><trkpt lat="41.4781618" lon="13.1952174"><ele>26.0</ele><time>2026-03-25T10:31:12.968Z</time></trkpt><trkpt lat="41.4780967" lon="13.1951035"><ele>26.0</ele><time>2026-03-25T10:31:13.97Z</time></trkpt><trkpt lat="41.4780097" lon="13.1949928"><ele>26.0</ele><time>2026-03-25T10:31:14.96Z</time></trkpt><trkpt lat="41.4779053" lon="13.1948803"><ele>26.0</ele><time>2026-03-25T10:31:15.962Z</time></trkpt><trkpt lat="41.4777843" lon="13.1947745"><ele>26.0</ele><time>2026-03-25T10:31:16.963Z</time></trkpt><trkpt lat="41.4776459" lon="13.1946789"><ele>26.333333333333332</ele><time>2026-03-25T10:31:17.965Z</time></trkpt><trkpt lat="41.4775084" lon="13.1946004"><ele>26.666666666666664</ele><time>2026-03-25T10:31:18.969Z</time></trkpt><trkpt lat="41.4773703" lon="13.1945429"><ele>27.0</ele><time>2026-03-25T10:31:19.967Z</time></trkpt><trkpt lat="41.4772157" lon="13.1945097"><ele>27.666666666666664</ele><time>2026-03-25T10:31:20.963Z</time></trkpt><trkpt lat="41.477054" lon="13.194495"><ele>28.333333333333332</ele><time>2026-03-25T10:31:21.965Z</time></trkpt><trkpt lat="41.476894" lon="13.1944907"><ele>29.0</ele><time>2026-03-25T10:31:22.964Z</time></trkpt><trkpt lat="41.476727" lon="13.1944905"><ele>29.0</ele><time>2026-03-25T10:31:23.96Z</time></trkpt><trkpt lat="41.4765471" lon="13.1945349"><ele>29.0</ele><time>2026-03-25T10:31:24.963Z</time></trkpt><trkpt lat="41.4763702" lon="13.194594"><ele>29.0</ele><time>2026-03-25T10:31:25.961Z</time></trkpt><trkpt lat="41.4762069" lon="13.1946718"><ele>28.666666666666664</ele><time>2026-03-25T10:31:26.97Z</time></trkpt><trkpt lat="41.4760429" lon="13.1947604"><ele>28.333333333333336</ele><time>2026-03-25T10:31:27.958Z</time></trkpt><trkpt lat="41.4758914" lon="13.1948374"><ele>28.0</ele><time>2026-03-25T10:31:28.961Z</time></trkpt><trkpt lat="41.4757447" lon="13.194901"><ele>27.5</ele><time>2026-03-25T10:31:29.955Z</time></trkpt><trkpt lat="41.4755968" lon="13.194966"><ele>27.0</ele><time>2026-03-25T10:31:30.959Z</time></trkpt><trkpt lat="41.4754571" lon="13.1950335"><ele>26.5</ele><time>2026-03-25T10:31:31.961Z</time></trkpt><trkpt lat="41.4753331" lon="13.1951161"><ele>26.0</ele><time>2026-03-25T10:31:32.97Z</time></trkpt><trkpt lat="41.4752289" lon="13.1952206"><ele>26.0</ele><time>2026-03-25T10:31:33.952Z</time></trkpt><trkpt lat="41.4751241" lon="13.195326"><ele>26.0</ele><time>2026-03-25T10:31:34.967Z</time></trkpt><trkpt lat="41.4750264" lon="13.1954441"><ele>26.0</ele><time>2026-03-25T10:31:35.958Z</time></trkpt><trkpt lat="41.474923" lon="13.1955665"><ele>26.0</ele><time>2026-03-25T10:31:36.965Z</time></trkpt><trkpt lat="41.4748053" lon="13.1956965"><ele>26.0</ele><time>2026-03-25T10:31:37.963Z</time></trkpt><trkpt lat="41.4746888" lon="13.1958323"><ele>26.0</ele><time>2026-03-25T10:31:38.966Z</time></trkpt><trkpt lat="41.4745728" lon="13.1959655"><ele>26.0</ele><time>2026-03-25T10:31:39.961Z</time></trkpt><trkpt lat="41.4744601" lon="13.1960956"><ele>25.75</ele><time>2026-03-25T10:31:40.963Z</time></trkpt><trkpt lat="41.474362" lon="13.196217"><ele>25.5</ele><time>2026-03-25T10:31:41.964Z</time></trkpt><trkpt lat="41.4742652" lon="13.1963245"><ele>25.25</ele><time>2026-03-25T10:31:42.97Z</time></trkpt><trkpt lat="41.4741519" lon="13.1964264"><ele>25.0</ele><time>2026-03-25T10:31:43.955Z</time></trkpt><trkpt lat="41.4740372" lon="13.196533"><ele>25.25</ele><time>2026-03-25T10:31:44.964Z</time></trkpt><trkpt lat="41.4739194" lon="13.1966349"><ele>25.5</ele><time>2026-03-25T10:31:45.965Z</time></trkpt><trkpt lat="41.4737995" lon="13.1967244"><ele>25.75</ele><time>2026-03-25T10:31:46.963Z</time></trkpt><trkpt lat="41.4736794" lon="13.19681"><ele>26.0</ele><time>2026-03-25T10:31:47.959Z</time></trkpt><trkpt lat="41.4735535" lon="13.1968697"><ele>26.0</ele><time>2026-03-25T10:31:48.961Z</time></trkpt><trkpt lat="41.4734344" lon="13.1969159"><ele>26.0</ele><time>2026-03-25T10:31:49.961Z</time></trkpt><trkpt lat="41.4733089" lon="13.1969402"><ele>26.0</ele><time>2026-03-25T10:31:50.962Z</time></trkpt><trkpt lat="41.473167" lon="13.1969652"><ele>26.0</ele><time>2026-03-25T10:31:51.968Z</time></trkpt><trkpt lat="41.4730274" lon="13.1969821"><ele>26.0</ele><time>2026-03-25T10:31:52.972Z</time></trkpt><trkpt lat="41.4728876" lon="13.1969954"><ele>26.0</ele><time>2026-03-25T10:31:53.965Z</time></trkpt><trkpt lat="41.4727518" lon="13.1970083"><ele>26.0</ele><time>2026-03-25T10:31:54.967Z</time></trkpt><trkpt lat="41.4726183" lon="13.197021"><ele>26.0</ele><time>2026-03-25T10:31:55.965Z</time></trkpt><trkpt lat="41.4724706" lon="13.1970377"><ele>26.0</ele><time>2026-03-25T10:31:56.961Z</time></trkpt><trkpt lat="41.4723174" lon="13.1970489"><ele>26.0</ele><time>2026-03-25T10:31:57.965Z</time></trkpt><trkpt lat="41.4721603" lon="13.197063"><ele>26.0</ele><time>2026-03-25T10:31:58.973Z</time></trkpt><trkpt lat="41.4720128" lon="13.1970835"><ele>25.75</ele><time>2026-03-25T10:31:59.96Z</time></trkpt><trkpt lat="41.4718725" lon="13.1971049"><ele>25.5</ele><time>2026-03-25T10:32:00.968Z</time></trkpt><trkpt lat="41.4717169" lon="13.1971195"><ele>25.25</ele><time>2026-03-25T10:32:01.962Z</time></trkpt><trkpt lat="41.4715756" lon="13.1971331"><ele>25.0</ele><time>2026-03-25T10:32:02.963Z</time></trkpt><trkpt lat="41.471442" lon="13.1971599"><ele>25.0</ele><time>2026-03-25T10:32:03.962Z</time></trkpt><trkpt lat="41.4713175" lon="13.1971792"><ele>25.0</ele><time>2026-03-25T10:32:04.969Z</time></trkpt><trkpt lat="41.4712058" lon="13.1971779"><ele>25.0</ele><time>2026-03-25T10:32:05.961Z</time></trkpt><trkpt lat="41.4711095" lon="13.1971678"><ele>25.0</ele><time>2026-03-25T10:32:06.971Z</time></trkpt><trkpt lat="41.4710157" lon="13.1971663"><ele>25.0</ele><time>2026-03-25T10:32:07.959Z</time></trkpt><trkpt lat="41.4709287" lon="13.1971696"><ele>25.000000000000004</ele><time>2026-03-25T10:32:08.959Z</time></trkpt><trkpt lat="41.4708625" lon="13.1971812"><ele>25.0</ele><time>2026-03-25T10:32:09.96Z</time></trkpt><trkpt lat="41.4707824" lon="13.1971679"><ele>25.0</ele><time>2026-03-25T10:32:12.973Z</time></trkpt><trkpt lat="41.470772" lon="13.1970502"><ele>25.0</ele><time>2026-03-25T10:32:15.967Z</time></trkpt><trkpt lat="41.470767" lon="13.1969412"><ele>25.000000000000004</ele><time>2026-03-25T10:32:18.96Z</time></trkpt><trkpt lat="41.4707746" lon="13.1968257"><ele>25.0</ele><time>2026-03-25T10:32:21.972Z</time></trkpt><trkpt lat="41.4707826" lon="13.1967422"><ele>25.000000000000004</ele><time>2026-03-25T10:32:23.96Z</time></trkpt><trkpt lat="41.4707823" lon="13.1966501"><ele>25.0</ele><time>2026-03-25T10:32:25.971Z</time></trkpt><trkpt lat="41.4707774" lon="13.1965658"><ele>25.0</ele><time>2026-03-25T10:32:27.963Z</time></trkpt><trkpt lat="41.4707618" lon="13.1964727"><ele>25.0</ele><time>2026-03-25T10:32:29.956Z</time></trkpt><trkpt lat="41.4707048" lon="13.1964067"><ele>25.0</ele><time>2026-03-25T10:32:32.964Z</time></trkpt><trkpt lat="41.4706292" lon="13.1964109"><ele>25.000000000000004</ele><time>2026-03-25T10:32:34.973Z</time></trkpt><trkpt lat="41.4705605" lon="13.19642"><ele>25.0</ele><time>2026-03-25T10:32:36.972Z</time></trkpt><trkpt lat="41.4706413" lon="13.1964491"><ele>25.333333333333336</ele><time>2026-03-25T10:33:20.007Z</time></trkpt><trkpt lat="41.4707269" lon="13.1964358"><ele>25.666666666666668</ele><time>2026-03-25T10:33:21.968Z</time></trkpt><trkpt lat="41.4708356" lon="13.1964084"><ele>26.0</ele><time>2026-03-25T10:33:23.974Z</time></trkpt><trkpt lat="41.470921" lon="13.1963868"><ele>26.333333333333336</ele><time>2026-03-25T10:33:25.964Z</time></trkpt><trkpt lat="41.4709704" lon="13.1962987"><ele>26.666666666666668</ele><time>2026-03-25T10:33:28.962Z</time></trkpt><trkpt lat="41.4710364" lon="13.1963125"><ele>27.0</ele><time>2026-03-25T10:33:54.971Z</time></trkpt><trkpt lat="41.4711287" lon="13.196361"><ele>27.0</ele><time>2026-03-25T10:33:56.976Z</time></trkpt><trkpt lat="41.4711949" lon="13.1963632"><ele>27.0</ele><time>2026-03-25T10:33:57.963Z</time></trkpt><trkpt lat="41.4712633" lon="13.1963477"><ele>27.0</ele><time>2026-03-25T10:33:58.96Z</time></trkpt><trkpt lat="41.4713395" lon="13.1963354"><ele>27.0</ele><time>2026-03-25T10:33:59.963Z</time></trkpt><trkpt lat="41.4714273" lon="13.1963288"><ele>27.0</ele><time>2026-03-25T10:34:00.969Z</time></trkpt><trkpt lat="41.4715208" lon="13.196331"><ele>27.0</ele><time>2026-03-25T10:34:01.965Z</time></trkpt><trkpt lat="41.4716144" lon="13.1963256"><ele>26.8</ele><time>2026-03-25T10:34:02.957Z</time></trkpt><trkpt lat="41.4717131" lon="13.1963151"><ele>26.6</ele><time>2026-03-25T10:34:03.967Z</time></trkpt><trkpt lat="41.4718177" lon="13.1963045"><ele>26.400000000000002</ele><time>2026-03-25T10:34:04.962Z</time></trkpt><trkpt lat="41.4719281" lon="13.1962943"><ele>26.200000000000003</ele><time>2026-03-25T10:34:05.973Z</time></trkpt><trkpt lat="41.4720422" lon="13.1962828"><ele>26.0</ele><time>2026-03-25T10:34:06.957Z</time></trkpt><trkpt lat="41.4721577" lon="13.1962728"><ele>25.75</ele><time>2026-03-25T10:34:07.961Z</time></trkpt><trkpt lat="41.4722731" lon="13.1962702"><ele>25.5</ele><time>2026-03-25T10:34:08.972Z</time></trkpt><trkpt lat="41.4723906" lon="13.1962614"><ele>25.25</ele><time>2026-03-25T10:34:09.96Z</time></trkpt><trkpt lat="41.4725089" lon="13.1962523"><ele>25.0</ele><time>2026-03-25T10:34:10.96Z</time></trkpt><trkpt lat="41.4726264" lon="13.1962394"><ele>25.0</ele><time>2026-03-25T10:34:11.962Z</time></trkpt><trkpt lat="41.4727421" lon="13.1962246"><ele>25.0</ele><time>2026-03-25T10:34:12.964Z</time></trkpt><trkpt lat="41.4728596" lon="13.1962093"><ele>25.0</ele><time>2026-03-25T10:34:13.965Z</time></trkpt><trkpt lat="41.4729785" lon="13.1961967"><ele>25.0</ele><time>2026-03-25T10:34:14.96Z</time></trkpt><trkpt lat="41.4730964" lon="13.1961863"><ele>25.25</ele><time>2026-03-25T10:34:15.967Z</time></trkpt><trkpt lat="41.473212" lon="13.1961623"><ele>25.5</ele><time>2026-03-25T10:34:16.969Z</time></trkpt><trkpt lat="41.473324" lon="13.1961262"><ele>25.75</ele><time>2026-03-25T10:34:17.961Z</time></trkpt><trkpt lat="41.4734305" lon="13.1960813"><ele>26.0</ele><time>2026-03-25T10:34:18.967Z</time></trkpt><trkpt lat="41.4735347" lon="13.1960275"><ele>26.0</ele><time>2026-03-25T10:34:19.97Z</time></trkpt><trkpt lat="41.4736325" lon="13.1959677"><ele>26.0</ele><time>2026-03-25T10:34:20.961Z</time></trkpt><trkpt lat="41.4737237" lon="13.1959019"><ele>26.0</ele><time>2026-03-25T10:34:21.966Z</time></trkpt><trkpt lat="41.4738145" lon="13.1958264"><ele>26.0</ele><time>2026-03-25T10:34:22.962Z</time></trkpt><trkpt lat="41.4739018" lon="13.1957337"><ele>26.0</ele><time>2026-03-25T10:34:23.968Z</time></trkpt><trkpt lat="41.4739896" lon="13.195638"><ele>25.75</ele><time>2026-03-25T10:34:24.963Z</time></trkpt><trkpt lat="41.4740779" lon="13.1955409"><ele>25.5</ele><time>2026-03-25T10:34:25.963Z</time></trkpt><trkpt lat="41.4741693" lon="13.1954335"><ele>25.25</ele><time>2026-03-25T10:34:26.972Z</time></trkpt><trkpt lat="41.474262" lon="13.1953194"><ele>25.0</ele><time>2026-03-25T10:34:27.964Z</time></trkpt><trkpt lat="41.4743525" lon="13.1952064"><ele>25.0</ele><time>2026-03-25T10:34:28.966Z</time></trkpt><trkpt lat="41.4744478" lon="13.195094"><ele>25.0</ele><time>2026-03-25T10:34:29.963Z</time></trkpt><trkpt lat="41.4745435" lon="13.1949846"><ele>25.0</ele><time>2026-03-25T10:34:30.966Z</time></trkpt><trkpt lat="41.4746368" lon="13.1948775"><ele>25.0</ele><time>2026-03-25T10:34:31.959Z</time></trkpt><trkpt lat="41.4747325" lon="13.194772"><ele>25.5</ele><time>2026-03-25T10:34:32.96Z</time></trkpt><trkpt lat="41.4748283" lon="13.1946662"><ele>26.0</ele><time>2026-03-25T10:34:33.966Z</time></trkpt><trkpt lat="41.4749178" lon="13.1945527"><ele>26.5</ele><time>2026-03-25T10:34:34.962Z</time></trkpt><trkpt lat="41.4749957" lon="13.1944209"><ele>27.0</ele><time>2026-03-25T10:34:35.971Z</time></trkpt><trkpt lat="41.4750577" lon="13.1942653"><ele>27.0</ele><time>2026-03-25T10:34:36.954Z</time></trkpt><trkpt lat="41.4751202" lon="13.1941055"><ele>27.0</ele><time>2026-03-25T10:34:37.956Z</time></trkpt><trkpt lat="41.4751811" lon="13.1939422"><ele>27.0</ele><time>2026-03-25T10:34:38.967Z</time></trkpt><trkpt lat="41.4752405" lon="13.1937801"><ele>27.0</ele><time>2026-03-25T10:34:39.965Z</time></trkpt><trkpt lat="41.4752937" lon="13.1936128"><ele>27.0</ele><time>2026-03-25T10:34:40.968Z</time></trkpt><trkpt lat="41.4753464" lon="13.1934496"><ele>27.0</ele><time>2026-03-25T10:34:41.962Z</time></trkpt><trkpt lat="41.4753987" lon="13.1932859"><ele>27.0</ele><time>2026-03-25T10:34:42.968Z</time></trkpt><trkpt lat="41.4754545" lon="13.1931224"><ele>27.0</ele><time>2026-03-25T10:34:43.961Z</time></trkpt><trkpt lat="41.475511" lon="13.1929565"><ele>27.0</ele><time>2026-03-25T10:34:44.967Z</time></trkpt><trkpt lat="41.4755665" lon="13.1927911"><ele>27.0</ele><time>2026-03-25T10:34:45.969Z</time></trkpt><trkpt lat="41.4756245" lon="13.1926275"><ele>27.0</ele><time>2026-03-25T10:34:46.965Z</time></trkpt><trkpt lat="41.4756819" lon="13.1924611"><ele>27.0</ele><time>2026-03-25T10:34:47.96Z</time></trkpt><trkpt lat="41.4757374" lon="13.1922976"><ele>27.0</ele><time>2026-03-25T10:34:48.979Z</time></trkpt><trkpt lat="41.4757927" lon="13.1921415"><ele>27.0</ele><time>2026-03-25T10:34:49.957Z</time></trkpt><trkpt lat="41.475848" lon="13.1919875"><ele>27.0</ele><time>2026-03-25T10:34:50.965Z</time></trkpt><trkpt lat="41.4758981" lon="13.1918468"><ele>27.0</ele><time>2026-03-25T10:34:51.997Z</time></trkpt><trkpt lat="41.4759394" lon="13.1917153"><ele>27.0</ele><time>2026-03-25T10:34:52.959Z</time></trkpt><trkpt lat="41.4759842" lon="13.1915895"><ele>27.000000000000004</ele><time>2026-03-25T10:34:53.963Z</time></trkpt><trkpt lat="41.4760283" lon="13.1914726"><ele>27.000000000000004</ele><time>2026-03-25T10:34:54.963Z</time></trkpt><trkpt lat="41.4760692" lon="13.1913621"><ele>27.0</ele><time>2026-03-25T10:34:55.96Z</time></trkpt><trkpt lat="41.4761062" lon="13.1912601"><ele>27.0</ele><time>2026-03-25T10:34:56.963Z</time></trkpt><trkpt lat="41.4761375" lon="13.1911704"><ele>27.166666666666668</ele><time>2026-03-25T10:34:57.962Z</time></trkpt><trkpt lat="41.4761537" lon="13.1910827"><ele>27.333333333333336</ele><time>2026-03-25T10:34:58.964Z</time></trkpt><trkpt lat="41.4761527" lon="13.1909938"><ele>27.5</ele><time>2026-03-25T10:34:59.955Z</time></trkpt><trkpt lat="41.4761277" lon="13.1909023"><ele>27.666666666666668</ele><time>2026-03-25T10:35:00.968Z</time></trkpt><trkpt lat="41.4760881" lon="13.1908037"><ele>27.833333333333336</ele><time>2026-03-25T10:35:01.962Z</time></trkpt><trkpt lat="41.4760406" lon="13.1906979"><ele>28.0</ele><time>2026-03-25T10:35:02.961Z</time></trkpt><trkpt lat="41.4759922" lon="13.1905847"><ele>28.0</ele><time>2026-03-25T10:35:03.962Z</time></trkpt><trkpt lat="41.4759418" lon="13.1904649"><ele>27.999999999999996</ele><time>2026-03-25T10:35:04.958Z</time></trkpt><trkpt lat="41.4758832" lon="13.1903459"><ele>27.999999999999996</ele><time>2026-03-25T10:35:05.971Z</time></trkpt><trkpt lat="41.4758236" lon="13.1902266"><ele>28.0</ele><time>2026-03-25T10:35:06.959Z</time></trkpt><trkpt lat="41.4757611" lon="13.1901165"><ele>28.0</ele><time>2026-03-25T10:35:07.961Z</time></trkpt><trkpt lat="41.4757027" lon="13.1900143"><ele>28.000000000000004</ele><time>2026-03-25T10:35:08.965Z</time></trkpt><trkpt lat="41.4756608" lon="13.1899095"><ele>28.0</ele><time>2026-03-25T10:35:09.958Z</time></trkpt><trkpt lat="41.4756188" lon="13.1898061"><ele>28.0</ele><time>2026-03-25T10:35:10.977Z</time></trkpt><trkpt lat="41.4755893" lon="13.1897001"><ele>28.0</ele><time>2026-03-25T10:35:11.962Z</time></trkpt><trkpt lat="41.4755548" lon="13.1895809"><ele>28.000000000000004</ele><time>2026-03-25T10:35:12.966Z</time></trkpt><trkpt lat="41.4755217" lon="13.189467"><ele>28.0</ele><time>2026-03-25T10:35:13.965Z</time></trkpt><trkpt lat="41.4754854" lon="13.1893584"><ele>28.0</ele><time>2026-03-25T10:35:14.961Z</time></trkpt><trkpt lat="41.4754456" lon="13.1892475"><ele>27.999999999999996</ele><time>2026-03-25T10:35:15.963Z</time></trkpt><trkpt lat="41.4754031" lon="13.1891318"><ele>27.999999999999996</ele><time>2026-03-25T10:35:16.961Z</time></trkpt><trkpt lat="41.4753598" lon="13.1890126"><ele>28.0</ele><time>2026-03-25T10:35:17.968Z</time></trkpt><trkpt lat="41.4753146" lon="13.188892"><ele>28.0</ele><time>2026-03-25T10:35:18.957Z</time></trkpt><trkpt lat="41.4752688" lon="13.1887653"><ele>28.0</ele><time>2026-03-25T10:35:19.955Z</time></trkpt><trkpt lat="41.4752229" lon="13.1886414"><ele>27.999999999999996</ele><time>2026-03-25T10:35:20.962Z</time></trkpt><trkpt lat="41.4751743" lon="13.1885106"><ele>27.999999999999996</ele><time>2026-03-25T10:35:21.959Z</time></trkpt><trkpt lat="41.4751277" lon="13.1883825"><ele>28.0</ele><time>2026-03-25T10:35:22.969Z</time></trkpt><trkpt lat="41.4750836" lon="13.1882606"><ele>28.0</ele><time>2026-03-25T10:35:23.956Z</time></trkpt><trkpt lat="41.4750522" lon="13.1881499"><ele>28.2</ele><time>2026-03-25T10:35:24.964Z</time></trkpt><trkpt lat="41.4750222" lon="13.1880304"><ele>28.4</ele><time>2026-03-25T10:35:25.967Z</time></trkpt><trkpt lat="41.4749896" lon="13.187913"><ele>28.599999999999998</ele><time>2026-03-25T10:35:26.966Z</time></trkpt><trkpt lat="41.4749518" lon="13.1877911"><ele>28.799999999999997</ele><time>2026-03-25T10:35:27.967Z</time></trkpt><trkpt lat="41.4749129" lon="13.1876646"><ele>29.0</ele><time>2026-03-25T10:35:28.966Z</time></trkpt><trkpt lat="41.4748775" lon="13.1875438"><ele>29.0</ele><time>2026-03-25T10:35:29.967Z</time></trkpt><trkpt lat="41.4748438" lon="13.1874349"><ele>29.0</ele><time>2026-03-25T10:35:30.961Z</time></trkpt><trkpt lat="41.4748183" lon="13.187352"><ele>29.0</ele><time>2026-03-25T10:35:31.972Z</time></trkpt><trkpt lat="41.4747842" lon="13.1872257"><ele>29.0</ele><time>2026-03-25T10:35:33.969Z</time></trkpt><trkpt lat="41.4747413" lon="13.1870719"><ele>29.0</ele><time>2026-03-25T10:35:35.979Z</time></trkpt><trkpt lat="41.4747111" lon="13.1869745"><ele>28.666666666666664</ele><time>2026-03-25T10:35:36.963Z</time></trkpt><trkpt lat="41.4746773" lon="13.1868806"><ele>28.333333333333332</ele><time>2026-03-25T10:35:37.963Z</time></trkpt><trkpt lat="41.4746434" lon="13.186788"><ele>28.0</ele><time>2026-03-25T10:35:38.969Z</time></trkpt><trkpt lat="41.4746165" lon="13.1867039"><ele>27.666666666666664</ele><time>2026-03-25T10:35:39.967Z</time></trkpt><trkpt lat="41.4745919" lon="13.1865924"><ele>27.333333333333332</ele><time>2026-03-25T10:35:41.956Z</time></trkpt><trkpt lat="41.4745669" lon="13.1865021"><ele>27.0</ele><time>2026-03-25T10:35:44.96Z</time></trkpt><trkpt lat="41.4744999" lon="13.186445"><ele>30.666666666666664</ele><time>2026-03-25T10:35:48.973Z</time></trkpt><trkpt lat="41.4744534" lon="13.1863372"><ele>34.33333333333333</ele><time>2026-03-25T10:35:51.962Z</time></trkpt><trkpt lat="41.4744246" lon="13.186251"><ele>38.0</ele><time>2026-03-25T10:35:53.971Z</time></trkpt><trkpt lat="41.4743676" lon="13.186167"><ele>41.666666666666664</ele><time>2026-03-25T10:35:56.97Z</time></trkpt><trkpt lat="41.474304" lon="13.1861862"><ele>45.33333333333333</ele><time>2026-03-25T10:35:58.97Z</time></trkpt><trkpt lat="41.4742281" lon="13.1862471"><ele>49.0</ele><time>2026-03-25T10:36:00.971Z</time></trkpt><trkpt lat="41.4741423" lon="13.1863119"><ele>48.99999999999999</ele><time>2026-03-25T10:36:02.959Z</time></trkpt><trkpt lat="41.474043" lon="13.1863794"><ele>49.0</ele><time>2026-03-25T10:36:04.966Z</time></trkpt><trkpt lat="41.4739402" lon="13.1864401"><ele>49.0</ele><time>2026-03-25T10:36:06.981Z</time></trkpt><trkpt lat="41.4738786" lon="13.186465"><ele>49.0</ele><time>2026-03-25T10:36:07.954Z</time></trkpt><trkpt lat="41.4738162" lon="13.1864933"><ele>48.99999999999999</ele><time>2026-03-25T10:36:08.96Z</time></trkpt><trkpt lat="41.4737499" lon="13.1865255"><ele>49.0</ele><time>2026-03-25T10:36:09.964Z</time></trkpt><trkpt lat="41.4736792" lon="13.186569"><ele>47.49999999999999</ele><time>2026-03-25T10:36:10.956Z</time></trkpt><trkpt lat="41.4736025" lon="13.1866161"><ele>46.0</ele><time>2026-03-25T10:36:11.964Z</time></trkpt><trkpt lat="41.4735255" lon="13.186663"><ele>44.5</ele><time>2026-03-25T10:36:12.97Z</time></trkpt><trkpt lat="41.4734496" lon="13.186706"><ele>43.0</ele><time>2026-03-25T10:36:13.965Z</time></trkpt><trkpt lat="41.4733678" lon="13.1867407"><ele>41.5</ele><time>2026-03-25T10:36:14.957Z</time></trkpt><trkpt lat="41.4732815" lon="13.1867672"><ele>40.0</ele><time>2026-03-25T10:36:15.969Z</time></trkpt><trkpt lat="41.4731919" lon="13.1867923"><ele>40.0</ele><time>2026-03-25T10:36:16.965Z</time></trkpt><trkpt lat="41.4731055" lon="13.1868172"><ele>40.0</ele><time>2026-03-25T10:36:17.962Z</time></trkpt><trkpt lat="41.4730155" lon="13.186843"><ele>40.0</ele><time>2026-03-25T10:36:18.958Z</time></trkpt><trkpt lat="41.4729232" lon="13.1868719"><ele>40.0</ele><time>2026-03-25T10:36:19.969Z</time></trkpt><trkpt lat="41.472828" lon="13.1869024"><ele>40.0</ele><time>2026-03-25T10:36:20.965Z</time></trkpt><trkpt lat="41.4727294" lon="13.1869274"><ele>40.6</ele><time>2026-03-25T10:36:21.97Z</time></trkpt><trkpt lat="41.472643" lon="13.1869496"><ele>41.2</ele><time>2026-03-25T10:36:22.966Z</time></trkpt><trkpt lat="41.472573" lon="13.1869707"><ele>41.8</ele><time>2026-03-25T10:36:23.965Z</time></trkpt><trkpt lat="41.4725085" lon="13.1869903"><ele>42.4</ele><time>2026-03-25T10:36:24.955Z</time></trkpt><trkpt lat="41.4723851" lon="13.1870091"><ele>43.0</ele><time>2026-03-25T10:36:26.954Z</time></trkpt><trkpt lat="41.4722682" lon="13.1869963"><ele>43.0</ele><time>2026-03-25T10:36:28.968Z</time></trkpt><trkpt lat="41.4721519" lon="13.186934"><ele>43.0</ele><time>2026-03-25T10:36:30.973Z</time></trkpt><trkpt lat="41.4720825" lon="13.1868989"><ele>43.0</ele><time>2026-03-25T10:36:31.961Z</time></trkpt><trkpt lat="41.4720025" lon="13.1868667"><ele>43.0</ele><time>2026-03-25T10:36:32.976Z</time></trkpt><trkpt lat="41.4719251" lon="13.186851"><ele>43.0</ele><time>2026-03-25T10:36:33.963Z</time></trkpt><trkpt lat="41.47186" lon="13.1868554"><ele>43.0</ele><time>2026-03-25T10:36:34.966Z</time></trkpt><trkpt lat="41.4717835" lon="13.18689"><ele>43.0</ele><time>2026-03-25T10:36:36.957Z</time></trkpt><trkpt lat="41.4717196" lon="13.1869035"><ele>43.0</ele><time>2026-03-25T10:37:04.968Z</time></trkpt><trkpt lat="41.471891" lon="13.1868453"><ele>43.0</ele><time>2026-03-25T10:37:18.967Z</time></trkpt><trkpt lat="41.4719867" lon="13.1868648"><ele>43.0</ele><time>2026-03-25T10:37:20.961Z</time></trkpt><trkpt lat="41.4721149" lon="13.1869252"><ele>43.0</ele><time>2026-03-25T10:37:22.97Z</time></trkpt><trkpt lat="41.4721911" lon="13.1869692"><ele>43.0</ele><time>2026-03-25T10:37:23.966Z</time></trkpt><trkpt lat="41.4722699" lon="13.1870054"><ele>43.0</ele><time>2026-03-25T10:37:24.963Z</time></trkpt><trkpt lat="41.4723486" lon="13.1870168"><ele>43.0</ele><time>2026-03-25T10:37:25.961Z</time></trkpt><trkpt lat="41.4724369" lon="13.1870128"><ele>43.0</ele><time>2026-03-25T10:37:26.97Z</time></trkpt><trkpt lat="41.4725281" lon="13.1870077"><ele>43.0</ele><time>2026-03-25T10:37:27.959Z</time></trkpt><trkpt lat="41.4726282" lon="13.1869809"><ele>43.0</ele><time>2026-03-25T10:37:28.966Z</time></trkpt><trkpt lat="41.4727418" lon="13.1869493"><ele>43.0</ele><time>2026-03-25T10:37:29.962Z</time></trkpt><trkpt lat="41.472868" lon="13.186915"><ele>43.0</ele><time>2026-03-25T10:37:30.962Z</time></trkpt><trkpt lat="41.4730011" lon="13.1868697"><ele>43.0</ele><time>2026-03-25T10:37:31.959Z</time></trkpt><trkpt lat="41.4731359" lon="13.1868223"><ele>42.25</ele><time>2026-03-25T10:37:32.958Z</time></trkpt><trkpt lat="41.4732598" lon="13.1867825"><ele>41.5</ele><time>2026-03-25T10:37:33.957Z</time></trkpt><trkpt lat="41.4733741" lon="13.1867434"><ele>40.75</ele><time>2026-03-25T10:37:34.966Z</time></trkpt><trkpt lat="41.4734872" lon="13.1866876"><ele>40.0</ele><time>2026-03-25T10:37:35.963Z</time></trkpt><trkpt lat="41.4736003" lon="13.1866212"><ele>40.0</ele><time>2026-03-25T10:37:36.963Z</time></trkpt><trkpt lat="41.4737034" lon="13.1865621"><ele>40.0</ele><time>2026-03-25T10:37:37.955Z</time></trkpt><trkpt lat="41.4737951" lon="13.1865167"><ele>40.0</ele><time>2026-03-25T10:37:38.957Z</time></trkpt><trkpt lat="41.4738836" lon="13.1864827"><ele>40.0</ele><time>2026-03-25T10:37:39.963Z</time></trkpt><trkpt lat="41.4739775" lon="13.1864392"><ele>40.0</ele><time>2026-03-25T10:37:40.966Z</time></trkpt><trkpt lat="41.4740661" lon="13.1863847"><ele>41.5</ele><time>2026-03-25T10:37:41.965Z</time></trkpt><trkpt lat="41.4741441" lon="13.1863265"><ele>43.0</ele><time>2026-03-25T10:37:42.967Z</time></trkpt><trkpt lat="41.4742144" lon="13.1862713"><ele>44.5</ele><time>2026-03-25T10:37:43.961Z</time></trkpt><trkpt lat="41.4742797" lon="13.1862316"><ele>46.0</ele><time>2026-03-25T10:37:44.967Z</time></trkpt><trkpt lat="41.4743739" lon="13.1862166"><ele>47.49999999999999</ele><time>2026-03-25T10:37:46.968Z</time></trkpt><trkpt lat="41.4744479" lon="13.1863139"><ele>49.0</ele><time>2026-03-25T10:37:48.96Z</time></trkpt><trkpt lat="41.4744759" lon="13.1864012"><ele>48.99999999999999</ele><time>2026-03-25T10:37:49.974Z</time></trkpt><trkpt lat="41.4745065" lon="13.1864997"><ele>49.0</ele><time>2026-03-25T10:37:50.965Z</time></trkpt><trkpt lat="41.4745426" lon="13.1866085"><ele>49.0</ele><time>2026-03-25T10:37:51.961Z</time></trkpt><trkpt lat="41.4745825" lon="13.1867237"><ele>49.0</ele><time>2026-03-25T10:37:52.96Z</time></trkpt><trkpt lat="41.474623" lon="13.1868338"><ele>48.99999999999999</ele><time>2026-03-25T10:37:53.961Z</time></trkpt><trkpt lat="41.4746586" lon="13.1869323"><ele>49.0</ele><time>2026-03-25T10:37:54.969Z</time></trkpt><trkpt lat="41.4746866" lon="13.1870101"><ele>45.666666666666664</ele><time>2026-03-25T10:37:55.957Z</time></trkpt><trkpt lat="41.4747252" lon="13.1871119"><ele>42.33333333333333</ele><time>2026-03-25T10:38:03.964Z</time></trkpt><trkpt lat="41.4747802" lon="13.1872473"><ele>39.0</ele><time>2026-03-25T10:38:05.959Z</time></trkpt><trkpt lat="41.4748031" lon="13.1873296"><ele>35.666666666666664</ele><time>2026-03-25T10:38:06.965Z</time></trkpt><trkpt lat="41.4748276" lon="13.1874254"><ele>32.33333333333333</ele><time>2026-03-25T10:38:07.957Z</time></trkpt><trkpt lat="41.4748616" lon="13.1875377"><ele>29.0</ele><time>2026-03-25T10:38:08.965Z</time></trkpt><trkpt lat="41.4748962" lon="13.1876596"><ele>29.0</ele><time>2026-03-25T10:38:09.966Z</time></trkpt><trkpt lat="41.474934" lon="13.1877857"><ele>29.0</ele><time>2026-03-25T10:38:10.965Z</time></trkpt><trkpt lat="41.4749739" lon="13.1879163"><ele>29.0</ele><time>2026-03-25T10:38:11.96Z</time></trkpt><trkpt lat="41.4750113" lon="13.1880411"><ele>29.0</ele><time>2026-03-25T10:38:12.967Z</time></trkpt><trkpt lat="41.4750484" lon="13.1881615"><ele>29.0</ele><time>2026-03-25T10:38:13.967Z</time></trkpt><trkpt lat="41.4750915" lon="13.1882773"><ele>28.799999999999997</ele><time>2026-03-25T10:38:14.968Z</time></trkpt><trkpt lat="41.4751307" lon="13.1883949"><ele>28.599999999999998</ele><time>2026-03-25T10:38:15.967Z</time></trkpt><trkpt lat="41.475171" lon="13.1885197"><ele>28.4</ele><time>2026-03-25T10:38:16.967Z</time></trkpt><trkpt lat="41.4752166" lon="13.1886455"><ele>28.2</ele><time>2026-03-25T10:38:17.974Z</time></trkpt><trkpt lat="41.4752606" lon="13.1887678"><ele>28.0</ele><time>2026-03-25T10:38:18.969Z</time></trkpt><trkpt lat="41.4752987" lon="13.1888672"><ele>28.000000000000004</ele><time>2026-03-25T10:38:19.963Z</time></trkpt><trkpt lat="41.4753348" lon="13.188964"><ele>28.0</ele><time>2026-03-25T10:38:20.963Z</time></trkpt><trkpt lat="41.4753736" lon="13.1890653"><ele>28.0</ele><time>2026-03-25T10:38:21.966Z</time></trkpt><trkpt lat="41.4754104" lon="13.189169"><ele>28.0</ele><time>2026-03-25T10:38:22.965Z</time></trkpt><trkpt lat="41.475441" lon="13.1892592"><ele>28.000000000000004</ele><time>2026-03-25T10:38:23.966Z</time></trkpt><trkpt lat="41.4754786" lon="13.1893707"><ele>28.0</ele><time>2026-03-25T10:38:25.978Z</time></trkpt><trkpt lat="41.4754356" lon="13.1894447"><ele>28.000000000000004</ele><time>2026-03-25T10:38:29.956Z</time></trkpt><trkpt lat="41.4753576" lon="13.1894851"><ele>28.0</ele><time>2026-03-25T10:38:32.957Z</time></trkpt><trkpt lat="41.4752556" lon="13.1895329"><ele>28.0</ele><time>2026-03-25T10:38:34.974Z</time></trkpt><trkpt lat="41.4751939" lon="13.1895651"><ele>28.0</ele><time>2026-03-25T10:38:35.968Z</time></trkpt><trkpt lat="41.4751324" lon="13.1896009"><ele>28.000000000000004</ele><time>2026-03-25T10:38:36.967Z</time></trkpt><trkpt lat="41.4750278" lon="13.1896643"><ele>28.0</ele><time>2026-03-25T10:38:38.962Z</time></trkpt><trkpt lat="41.4749503" lon="13.1897078"><ele>28.000000000000004</ele><time>2026-03-25T10:38:40.962Z</time></trkpt><trkpt lat="41.4748876" lon="13.1897485"><ele>28.0</ele><time>2026-03-25T10:38:54.967Z</time></trkpt><trkpt lat="41.4749778" lon="13.1897139"><ele>28.0</ele><time>2026-03-25T10:39:10.018Z</time></trkpt><trkpt lat="41.4750865" lon="13.1896475"><ele>28.0</ele><time>2026-03-25T10:39:11.981Z</time></trkpt><trkpt lat="41.4751574" lon="13.1896035"><ele>28.000000000000004</ele><time>2026-03-25T10:39:12.965Z</time></trkpt><trkpt lat="41.4752283" lon="13.1895613"><ele>28.0</ele><time>2026-03-25T10:39:13.972Z</time></trkpt><trkpt lat="41.4752974" lon="13.1895181"><ele>28.0</ele><time>2026-03-25T10:39:14.962Z</time></trkpt><trkpt lat="41.4753929" lon="13.1894609"><ele>27.999999999999996</ele><time>2026-03-25T10:39:16.957Z</time></trkpt><trkpt lat="41.4754741" lon="13.1894309"><ele>27.999999999999996</ele><time>2026-03-25T10:39:19.978Z</time></trkpt><trkpt lat="41.4755492" lon="13.1895267"><ele>28.0</ele><time>2026-03-25T10:39:22.97Z</time></trkpt><trkpt lat="41.4755838" lon="13.1896972"><ele>28.0</ele><time>2026-03-25T10:39:24.961Z</time></trkpt><trkpt lat="41.4756018" lon="13.1897898"><ele>28.0</ele><time>2026-03-25T10:39:25.974Z</time></trkpt><trkpt lat="41.4756337" lon="13.1898962"><ele>27.999999999999996</ele><time>2026-03-25T10:39:26.96Z</time></trkpt><trkpt lat="41.4756667" lon="13.1900022"><ele>27.999999999999996</ele><time>2026-03-25T10:39:27.972Z</time></trkpt><trkpt lat="41.4757204" lon="13.190103"><ele>28.0</ele><time>2026-03-25T10:39:28.96Z</time></trkpt><trkpt lat="41.47578" lon="13.1902074"><ele>28.0</ele><time>2026-03-25T10:39:29.964Z</time></trkpt><trkpt lat="41.4758363" lon="13.1903088"><ele>28.000000000000004</ele><time>2026-03-25T10:39:30.972Z</time></trkpt><trkpt lat="41.475888" lon="13.1904018"><ele>28.0</ele><time>2026-03-25T10:39:31.966Z</time></trkpt><trkpt lat="41.4759295" lon="13.1904893"><ele>28.0</ele><time>2026-03-25T10:39:32.965Z</time></trkpt><trkpt lat="41.4759643" lon="13.1905704"><ele>28.0</ele><time>2026-03-25T10:39:33.969Z</time></trkpt><trkpt lat="41.4759973" lon="13.190658"><ele>28.000000000000004</ele><time>2026-03-25T10:39:34.971Z</time></trkpt><trkpt lat="41.4760348" lon="13.1907497"><ele>28.0</ele><time>2026-03-25T10:39:35.977Z</time></trkpt><trkpt lat="41.4760738" lon="13.1908391"><ele>28.0</ele><time>2026-03-25T10:39:36.963Z</time></trkpt><trkpt lat="41.4761066" lon="13.1909239"><ele>28.0</ele><time>2026-03-25T10:39:37.978Z</time></trkpt><trkpt lat="41.4761303" lon="13.1910103"><ele>28.0</ele><time>2026-03-25T10:39:38.967Z</time></trkpt><trkpt lat="41.4761354" lon="13.1911034"><ele>28.0</ele><time>2026-03-25T10:39:39.968Z</time></trkpt><trkpt lat="41.4761182" lon="13.1912018"><ele>28.0</ele><time>2026-03-25T10:39:40.956Z</time></trkpt><trkpt lat="41.4760985" lon="13.1913002"><ele>28.0</ele><time>2026-03-25T10:39:41.963Z</time></trkpt><trkpt lat="41.4760671" lon="13.1913788"><ele>28.0</ele><time>2026-03-25T10:39:42.957Z</time></trkpt><trkpt lat="41.4760346" lon="13.191457"><ele>27.799999999999997</ele><time>2026-03-25T10:39:43.962Z</time></trkpt><trkpt lat="41.4759869" lon="13.191591"><ele>27.599999999999998</ele><time>2026-03-25T10:39:45.968Z</time></trkpt><trkpt lat="41.4759474" lon="13.191665"><ele>27.400000000000002</ele><time>2026-03-25T10:39:47.965Z</time></trkpt><trkpt lat="41.4758995" lon="13.1917916"><ele>27.200000000000003</ele><time>2026-03-25T10:39:50.969Z</time></trkpt><trkpt lat="41.4758586" lon="13.1919451"><ele>27.0</ele><time>2026-03-25T10:39:52.969Z</time></trkpt><trkpt lat="41.4758303" lon="13.1920286"><ele>27.0</ele><time>2026-03-25T10:39:53.973Z</time></trkpt><trkpt lat="41.4757996" lon="13.1921193"><ele>27.0</ele><time>2026-03-25T10:39:54.968Z</time></trkpt><trkpt lat="41.4757637" lon="13.1922154"><ele>27.0</ele><time>2026-03-25T10:39:55.966Z</time></trkpt><trkpt lat="41.4757264" lon="13.1923158"><ele>27.0</ele><time>2026-03-25T10:39:56.973Z</time></trkpt><trkpt lat="41.475691" lon="13.1924233"><ele>27.0</ele><time>2026-03-25T10:39:57.969Z</time></trkpt><trkpt lat="41.4756571" lon="13.192529"><ele>27.0</ele><time>2026-03-25T10:39:58.968Z</time></trkpt><trkpt lat="41.475623" lon="13.1926342"><ele>27.0</ele><time>2026-03-25T10:39:59.967Z</time></trkpt><trkpt lat="41.4755858" lon="13.1927445"><ele>27.000000000000004</ele><time>2026-03-25T10:40:00.969Z</time></trkpt><trkpt lat="41.4755476" lon="13.1928558"><ele>27.000000000000004</ele><time>2026-03-25T10:40:01.973Z</time></trkpt><trkpt lat="41.475509" lon="13.1929692"><ele>27.0</ele><time>2026-03-25T10:40:02.974Z</time></trkpt><trkpt lat="41.4754676" lon="13.1930856"><ele>27.0</ele><time>2026-03-25T10:40:03.962Z</time></trkpt><trkpt lat="41.4754269" lon="13.1932039"><ele>27.0</ele><time>2026-03-25T10:40:04.959Z</time></trkpt><trkpt lat="41.4753871" lon="13.1933192"><ele>27.000000000000004</ele><time>2026-03-25T10:40:05.965Z</time></trkpt><trkpt lat="41.4753447" lon="13.1934399"><ele>27.000000000000004</ele><time>2026-03-25T10:40:06.972Z</time></trkpt><trkpt lat="41.4753042" lon="13.1935685"><ele>27.0</ele><time>2026-03-25T10:40:07.961Z</time></trkpt><trkpt lat="41.4752566" lon="13.1937189"><ele>27.0</ele><time>2026-03-25T10:40:08.972Z</time></trkpt><trkpt lat="41.4751925" lon="13.1938889"><ele>27.0</ele><time>2026-03-25T10:40:09.963Z</time></trkpt><trkpt lat="41.4751234" lon="13.1940722"><ele>27.0</ele><time>2026-03-25T10:40:10.965Z</time></trkpt><trkpt lat="41.475062" lon="13.1942536"><ele>27.0</ele><time>2026-03-25T10:40:11.967Z</time></trkpt><trkpt lat="41.4749956" lon="13.1944165"><ele>27.0</ele><time>2026-03-25T10:40:12.96Z</time></trkpt><trkpt lat="41.47491" lon="13.1945604"><ele>27.0</ele><time>2026-03-25T10:40:13.968Z</time></trkpt><trkpt lat="41.4747971" lon="13.1946915"><ele>27.0</ele><time>2026-03-25T10:40:14.96Z</time></trkpt><trkpt lat="41.4746812" lon="13.1948256"><ele>27.0</ele><time>2026-03-25T10:40:15.972Z</time></trkpt><trkpt lat="41.474559" lon="13.1949676"><ele>26.333333333333336</ele><time>2026-03-25T10:40:16.966Z</time></trkpt><trkpt lat="41.4744385" lon="13.195122"><ele>25.666666666666668</ele><time>2026-03-25T10:40:17.96Z</time></trkpt><trkpt lat="41.4743082" lon="13.1952684"><ele>25.0</ele><time>2026-03-25T10:40:18.963Z</time></trkpt><trkpt lat="41.4741814" lon="13.1954151"><ele>25.0</ele><time>2026-03-25T10:40:19.97Z</time></trkpt><trkpt lat="41.4740653" lon="13.1955608"><ele>25.0</ele><time>2026-03-25T10:40:20.976Z</time></trkpt><trkpt lat="41.4739433" lon="13.1956948"><ele>25.0</ele><time>2026-03-25T10:40:21.973Z</time></trkpt><trkpt lat="41.4738154" lon="13.1958167"><ele>25.333333333333336</ele><time>2026-03-25T10:40:22.958Z</time></trkpt><trkpt lat="41.4736837" lon="13.1959252"><ele>25.666666666666664</ele><time>2026-03-25T10:40:23.98Z</time></trkpt><trkpt lat="41.4735523" lon="13.1960272"><ele>26.0</ele><time>2026-03-25T10:40:24.965Z</time></trkpt><trkpt lat="41.4734067" lon="13.1960916"><ele>26.0</ele><time>2026-03-25T10:40:25.966Z</time></trkpt><trkpt lat="41.4732529" lon="13.1961371"><ele>26.0</ele><time>2026-03-25T10:40:26.959Z</time></trkpt><trkpt lat="41.4731054" lon="13.196168"><ele>26.0</ele><time>2026-03-25T10:40:27.967Z</time></trkpt><trkpt lat="41.4729478" lon="13.1961861"><ele>25.666666666666664</ele><time>2026-03-25T10:40:28.956Z</time></trkpt><trkpt lat="41.4727913" lon="13.1962006"><ele>25.333333333333336</ele><time>2026-03-25T10:40:29.963Z</time></trkpt><trkpt lat="41.4726382" lon="13.1962182"><ele>25.0</ele><time>2026-03-25T10:40:30.966Z</time></trkpt><trkpt lat="41.47249" lon="13.1962373"><ele>25.0</ele><time>2026-03-25T10:40:31.962Z</time></trkpt><trkpt lat="41.4723457" lon="13.1962515"><ele>25.0</ele><time>2026-03-25T10:40:32.968Z</time></trkpt><trkpt lat="41.4722041" lon="13.1962602"><ele>25.0</ele><time>2026-03-25T10:40:33.956Z</time></trkpt><trkpt lat="41.4720687" lon="13.1962678"><ele>25.0</ele><time>2026-03-25T10:40:34.972Z</time></trkpt><trkpt lat="41.4719385" lon="13.1962783"><ele>25.25</ele><time>2026-03-25T10:40:35.959Z</time></trkpt><trkpt lat="41.4718072" lon="13.1962923"><ele>25.5</ele><time>2026-03-25T10:40:36.968Z</time></trkpt><trkpt lat="41.4716834" lon="13.196305"><ele>25.75</ele><time>2026-03-25T10:40:37.963Z</time></trkpt><trkpt lat="41.4715762" lon="13.1963142"><ele>26.0</ele><time>2026-03-25T10:40:38.969Z</time></trkpt><trkpt lat="41.471479" lon="13.1963181"><ele>25.999999999999996</ele><time>2026-03-25T10:40:39.963Z</time></trkpt><trkpt lat="41.4713878" lon="13.1963255"><ele>26.0</ele><time>2026-03-25T10:40:40.964Z</time></trkpt><trkpt lat="41.4712982" lon="13.196338"><ele>26.0</ele><time>2026-03-25T10:40:41.964Z</time></trkpt><trkpt lat="41.471211" lon="13.196351"><ele>26.0</ele><time>2026-03-25T10:40:42.966Z</time></trkpt><trkpt lat="41.4711282" lon="13.1963656"><ele>25.999999999999996</ele><time>2026-03-25T10:40:43.979Z</time></trkpt><trkpt lat="41.4710504" lon="13.1963799"><ele>26.0</ele><time>2026-03-25T10:40:44.963Z</time></trkpt><trkpt lat="41.4709708" lon="13.1963943"><ele>26.166666666666664</ele><time>2026-03-25T10:40:45.969Z</time></trkpt><trkpt lat="41.4708948" lon="13.1964123"><ele>26.333333333333332</ele><time>2026-03-25T10:40:46.961Z</time></trkpt><trkpt lat="41.4708337" lon="13.1964348"><ele>26.5</ele><time>2026-03-25T10:40:47.963Z</time></trkpt><trkpt lat="41.4707595" lon="13.1965196"><ele>26.666666666666664</ele><time>2026-03-25T10:40:49.961Z</time></trkpt><trkpt lat="41.4707486" lon="13.1966031"><ele>26.833333333333332</ele><time>2026-03-25T10:40:50.963Z</time></trkpt><trkpt lat="41.4707537" lon="13.1967103"><ele>27.0</ele><time>2026-03-25T10:40:51.975Z</time></trkpt><trkpt lat="41.470768" lon="13.1968381"><ele>27.0</ele><time>2026-03-25T10:40:52.962Z</time></trkpt><trkpt lat="41.4707805" lon="13.1969513"><ele>27.0</ele><time>2026-03-25T10:40:53.968Z</time></trkpt><trkpt lat="41.4707882" lon="13.1970487"><ele>27.0</ele><time>2026-03-25T10:40:54.966Z</time></trkpt><trkpt lat="41.4707904" lon="13.1971405"><ele>27.0</ele><time>2026-03-25T10:40:55.969Z</time></trkpt><trkpt lat="41.4708026" lon="13.197259"><ele>27.0</ele><time>2026-03-25T10:40:57.962Z</time></trkpt><trkpt lat="41.4708052" lon="13.1973984"><ele>27.0</ele><time>2026-03-25T10:41:03.967Z</time></trkpt><trkpt lat="41.4708129" lon="13.1975712"><ele>27.0</ele><time>2026-03-25T10:41:05.973Z</time></trkpt><trkpt lat="41.470823" lon="13.1976759"><ele>27.0</ele><time>2026-03-25T10:41:06.977Z</time></trkpt><trkpt lat="41.4708348" lon="13.1978071"><ele>27.0</ele><time>2026-03-25T10:41:07.967Z</time></trkpt><trkpt lat="41.4708483" lon="13.1979361"><ele>27.0</ele><time>2026-03-25T10:41:08.963Z</time></trkpt><trkpt lat="41.4708622" lon="13.198043"><ele>27.0</ele><time>2026-03-25T10:41:09.964Z</time></trkpt><trkpt lat="41.4708602" lon="13.1981297"><ele>27.0</ele><time>2026-03-25T10:41:10.965Z</time></trkpt><trkpt lat="41.4708082" lon="13.1982388"><ele>27.0</ele><time>2026-03-25T10:41:12.966Z</time></trkpt><trkpt lat="41.4707415" lon="13.1982096"><ele>27.0</ele><time>2026-03-25T10:41:14.967Z</time></trkpt><trkpt lat="41.4707148" lon="13.1981136"><ele>27.0</ele><time>2026-03-25T10:41:16.973Z</time></trkpt><trkpt lat="41.4707066" lon="13.1979497"><ele>27.0</ele><time>2026-03-25T10:41:18.973Z</time></trkpt><trkpt lat="41.4707006" lon="13.1978476"><ele>27.0</ele><time>2026-03-25T10:41:19.966Z</time></trkpt><trkpt lat="41.470695" lon="13.1977527"><ele>27.0</ele><time>2026-03-25T10:41:20.962Z</time></trkpt><trkpt lat="41.4706927" lon="13.197653"><ele>27.0</ele><time>2026-03-25T10:41:21.966Z</time></trkpt><trkpt lat="41.4706897" lon="13.1975664"><ele>27.0</ele><time>2026-03-25T10:41:22.966Z</time></trkpt><trkpt lat="41.4706785" lon="13.1974171"><ele>27.0</ele><time>2026-03-25T10:41:24.962Z</time></trkpt><trkpt lat="41.4706542" lon="13.1973013"><ele>27.0</ele><time>2026-03-25T10:41:26.964Z</time></trkpt><trkpt lat="41.4706086" lon="13.1972314"><ele>27.0</ele><time>2026-03-25T10:41:28.969Z</time></trkpt><trkpt lat="41.4705106" lon="13.1972253"><ele>27.0</ele><time>2026-03-25T10:41:30.972Z</time></trkpt><trkpt lat="41.4704475" lon="13.1972369"><ele>26.666666666666668</ele><time>2026-03-25T10:41:31.967Z</time></trkpt><trkpt lat="41.4703779" lon="13.197246"><ele>26.333333333333336</ele><time>2026-03-25T10:41:32.973Z</time></trkpt><trkpt lat="41.4703103" lon="13.1972511"><ele>26.0</ele><time>2026-03-25T10:41:33.962Z</time></trkpt><trkpt lat="41.4702402" lon="13.1972589"><ele>25.666666666666668</ele><time>2026-03-25T10:41:34.968Z</time></trkpt><trkpt lat="41.4701649" lon="13.1972714"><ele>25.333333333333336</ele><time>2026-03-25T10:41:35.962Z</time></trkpt><trkpt lat="41.4700754" lon="13.197279"><ele>25.0</ele><time>2026-03-25T10:41:36.96Z</time></trkpt><trkpt lat="41.4699981" lon="13.1972931"><ele>25.000000000000004</ele><time>2026-03-25T10:41:37.963Z</time></trkpt><trkpt lat="41.4699099" lon="13.197294"><ele>25.0</ele><time>2026-03-25T10:41:38.961Z</time></trkpt><trkpt lat="41.4698207" lon="13.1972948"><ele>25.0</ele><time>2026-03-25T10:41:39.965Z</time></trkpt><trkpt lat="41.4697342" lon="13.1973006"><ele>25.0</ele><time>2026-03-25T10:41:40.968Z</time></trkpt><trkpt lat="41.4696464" lon="13.197301"><ele>25.000000000000004</ele><time>2026-03-25T10:41:41.962Z</time></trkpt><trkpt lat="41.469557" lon="13.19731"><ele>25.0</ele><time>2026-03-25T10:41:42.967Z</time></trkpt><trkpt lat="41.4694706" lon="13.1973185"><ele>25.0</ele><time>2026-03-25T10:41:43.967Z</time></trkpt><trkpt lat="41.469377" lon="13.1973257"><ele>25.0</ele><time>2026-03-25T10:41:44.968Z</time></trkpt><trkpt lat="41.4692841" lon="13.197336"><ele>25.0</ele><time>2026-03-25T10:41:45.967Z</time></trkpt><trkpt lat="41.4691886" lon="13.1973467"><ele>25.0</ele><time>2026-03-25T10:41:46.968Z</time></trkpt><trkpt lat="41.4690907" lon="13.1973573"><ele>25.0</ele><time>2026-03-25T10:41:47.963Z</time></trkpt><trkpt lat="41.4689874" lon="13.1973754"><ele>25.0</ele><time>2026-03-25T10:41:48.968Z</time></trkpt><trkpt lat="41.4688728" lon="13.1973842"><ele>25.0</ele><time>2026-03-25T10:41:49.981Z</time></trkpt><trkpt lat="41.4687552" lon="13.1973946"><ele>25.0</ele><time>2026-03-25T10:41:50.973Z</time></trkpt><trkpt lat="41.4686323" lon="13.1974013"><ele>25.0</ele><time>2026-03-25T10:41:51.96Z</time></trkpt><trkpt lat="41.4685121" lon="13.1974139"><ele>25.0</ele><time>2026-03-25T10:41:52.958Z</time></trkpt><trkpt lat="41.4683906" lon="13.1974302"><ele>25.0</ele><time>2026-03-25T10:41:53.966Z</time></trkpt><trkpt lat="41.468278" lon="13.1974373"><ele>25.0</ele><time>2026-03-25T10:41:54.96Z</time></trkpt><trkpt lat="41.4681634" lon="13.1974549"><ele>25.0</ele><time>2026-03-25T10:41:55.971Z</time></trkpt><trkpt lat="41.4680525" lon="13.1974779"><ele>24.75</ele><time>2026-03-25T10:41:56.965Z</time></trkpt><trkpt lat="41.4679419" lon="13.1974886"><ele>24.5</ele><time>2026-03-25T10:41:57.973Z</time></trkpt><trkpt lat="41.4678186" lon="13.1975008"><ele>24.25</ele><time>2026-03-25T10:41:58.959Z</time></trkpt><trkpt lat="41.4677036" lon="13.1975059"><ele>24.0</ele><time>2026-03-25T10:41:59.965Z</time></trkpt><trkpt lat="41.4675925" lon="13.1975195"><ele>24.0</ele><time>2026-03-25T10:42:00.965Z</time></trkpt><trkpt lat="41.4674822" lon="13.1975343"><ele>24.0</ele><time>2026-03-25T10:42:01.962Z</time></trkpt><trkpt lat="41.4673612" lon="13.1975541"><ele>24.0</ele><time>2026-03-25T10:42:02.968Z</time></trkpt><trkpt lat="41.4672573" lon="13.1975742"><ele>24.0</ele><time>2026-03-25T10:42:03.958Z</time></trkpt><trkpt lat="41.4671424" lon="13.1975789"><ele>24.25</ele><time>2026-03-25T10:42:04.965Z</time></trkpt><trkpt lat="41.4670268" lon="13.1975948"><ele>24.5</ele><time>2026-03-25T10:42:05.967Z</time></trkpt><trkpt lat="41.4669132" lon="13.197598"><ele>24.75</ele><time>2026-03-25T10:42:06.965Z</time></trkpt><trkpt lat="41.4668033" lon="13.1975944"><ele>25.0</ele><time>2026-03-25T10:42:07.964Z</time></trkpt><trkpt lat="41.4666875" lon="13.1975736"><ele>25.0</ele><time>2026-03-25T10:42:08.958Z</time></trkpt><trkpt lat="41.4665734" lon="13.1975545"><ele>25.0</ele><time>2026-03-25T10:42:09.969Z</time></trkpt><trkpt lat="41.4664564" lon="13.1975241"><ele>25.0</ele><time>2026-03-25T10:42:10.956Z</time></trkpt><trkpt lat="41.4663415" lon="13.197488"><ele>25.0</ele><time>2026-03-25T10:42:11.964Z</time></trkpt><trkpt lat="41.4662256" lon="13.1974354"><ele>25.0</ele><time>2026-03-25T10:42:12.959Z</time></trkpt><trkpt lat="41.4661073" lon="13.197376"><ele>25.0</ele><time>2026-03-25T10:42:13.963Z</time></trkpt><trkpt lat="41.4659927" lon="13.1973018"><ele>25.0</ele><time>2026-03-25T10:42:14.958Z</time></trkpt><trkpt lat="41.4658743" lon="13.1972283"><ele>25.0</ele><time>2026-03-25T10:42:15.962Z</time></trkpt><trkpt lat="41.4657481" lon="13.1971502"><ele>24.75</ele><time>2026-03-25T10:42:16.955Z</time></trkpt><trkpt lat="41.4656253" lon="13.197077"><ele>24.5</ele><time>2026-03-25T10:42:17.964Z</time></trkpt><trkpt lat="41.4654963" lon="13.1969931"><ele>24.25</ele><time>2026-03-25T10:42:18.961Z</time></trkpt><trkpt lat="41.4653674" lon="13.1969117"><ele>24.0</ele><time>2026-03-25T10:42:19.964Z</time></trkpt><trkpt lat="41.4652348" lon="13.1968312"><ele>24.0</ele><time>2026-03-25T10:42:20.967Z</time></trkpt><trkpt lat="41.4651106" lon="13.1967567"><ele>24.0</ele><time>2026-03-25T10:42:21.966Z</time></trkpt><trkpt lat="41.4649949" lon="13.1966937"><ele>24.0</ele><time>2026-03-25T10:42:22.965Z</time></trkpt><trkpt lat="41.4648869" lon="13.1966456"><ele>24.0</ele><time>2026-03-25T10:42:23.959Z</time></trkpt><trkpt lat="41.4647795" lon="13.1966038"><ele>24.0</ele><time>2026-03-25T10:42:24.955Z</time></trkpt><trkpt lat="41.4646704" lon="13.1965748"><ele>24.0</ele><time>2026-03-25T10:42:25.96Z</time></trkpt><trkpt lat="41.4645597" lon="13.1965583"><ele>24.0</ele><time>2026-03-25T10:42:26.959Z</time></trkpt><trkpt lat="41.4644493" lon="13.1965598"><ele>24.0</ele><time>2026-03-25T10:42:27.968Z</time></trkpt><trkpt lat="41.4643406" lon="13.1965853"><ele>24.0</ele><time>2026-03-25T10:42:28.959Z</time></trkpt><trkpt lat="41.4642295" lon="13.1966235"><ele>24.0</ele><time>2026-03-25T10:42:29.964Z</time></trkpt><trkpt lat="41.4641338" lon="13.1966758"><ele>24.0</ele><time>2026-03-25T10:42:30.964Z</time></trkpt><trkpt lat="41.4640321" lon="13.1967427"><ele>24.0</ele><time>2026-03-25T10:42:31.959Z</time></trkpt><trkpt lat="41.4639347" lon="13.1968218"><ele>24.0</ele><time>2026-03-25T10:42:32.976Z</time></trkpt><trkpt lat="41.4638377" lon="13.1969212"><ele>24.0</ele><time>2026-03-25T10:42:33.958Z</time></trkpt><trkpt lat="41.4637447" lon="13.1970213"><ele>24.0</ele><time>2026-03-25T10:42:34.963Z</time></trkpt><trkpt lat="41.4636659" lon="13.1971409"><ele>24.0</ele><time>2026-03-25T10:42:35.963Z</time></trkpt><trkpt lat="41.4635885" lon="13.1972728"><ele>24.0</ele><time>2026-03-25T10:42:36.957Z</time></trkpt><trkpt lat="41.4635079" lon="13.1974037"><ele>23.5</ele><time>2026-03-25T10:42:37.967Z</time></trkpt><trkpt lat="41.4634257" lon="13.1975384"><ele>23.0</ele><time>2026-03-25T10:42:38.955Z</time></trkpt><trkpt lat="41.4633441" lon="13.1976688"><ele>22.5</ele><time>2026-03-25T10:42:39.955Z</time></trkpt><trkpt lat="41.4632616" lon="13.1977989"><ele>22.0</ele><time>2026-03-25T10:42:40.959Z</time></trkpt><trkpt lat="41.463179" lon="13.1979274"><ele>22.0</ele><time>2026-03-25T10:42:41.962Z</time></trkpt><trkpt lat="41.4630955" lon="13.1980547"><ele>22.0</ele><time>2026-03-25T10:42:42.957Z</time></trkpt><trkpt lat="41.4630137" lon="13.1981781"><ele>22.0</ele><time>2026-03-25T10:42:43.967Z</time></trkpt><trkpt lat="41.4629332" lon="13.1983009"><ele>22.0</ele><time>2026-03-25T10:42:44.958Z</time></trkpt><trkpt lat="41.4628523" lon="13.1984267"><ele>22.25</ele><time>2026-03-25T10:42:45.965Z</time></trkpt><trkpt lat="41.4627724" lon="13.1985523"><ele>22.5</ele><time>2026-03-25T10:42:46.964Z</time></trkpt><trkpt lat="41.4626907" lon="13.198679"><ele>22.75</ele><time>2026-03-25T10:42:47.956Z</time></trkpt><trkpt lat="41.4626106" lon="13.1988029"><ele>23.0</ele><time>2026-03-25T10:42:48.973Z</time></trkpt><trkpt lat="41.4625325" lon="13.198926"><ele>23.25</ele><time>2026-03-25T10:42:49.959Z</time></trkpt><trkpt lat="41.4624553" lon="13.1990495"><ele>23.5</ele><time>2026-03-25T10:42:50.965Z</time></trkpt><trkpt lat="41.4623753" lon="13.1991765"><ele>23.75</ele><time>2026-03-25T10:42:51.964Z</time></trkpt><trkpt lat="41.4622954" lon="13.1993031"><ele>24.0</ele><time>2026-03-25T10:42:52.962Z</time></trkpt><trkpt lat="41.4622124" lon="13.199432"><ele>24.0</ele><time>2026-03-25T10:42:53.958Z</time></trkpt><trkpt lat="41.4621261" lon="13.1995596"><ele>24.0</ele><time>2026-03-25T10:42:54.97Z</time></trkpt><trkpt lat="41.4620354" lon="13.1996849"><ele>24.0</ele><time>2026-03-25T10:42:55.961Z</time></trkpt><trkpt lat="41.4619507" lon="13.1998083"><ele>24.0</ele><time>2026-03-25T10:42:56.962Z</time></trkpt><trkpt lat="41.4618535" lon="13.1998998"><ele>23.25</ele><time>2026-03-25T10:42:57.954Z</time></trkpt><trkpt lat="41.4617516" lon="13.1999898"><ele>22.5</ele><time>2026-03-25T10:42:58.966Z</time></trkpt><trkpt lat="41.4616466" lon="13.2000756"><ele>21.75</ele><time>2026-03-25T10:42:59.957Z</time></trkpt><trkpt lat="41.4615391" lon="13.2001487"><ele>21.0</ele><time>2026-03-25T10:43:00.972Z</time></trkpt><trkpt lat="41.4614295" lon="13.2002122"><ele>21.0</ele><time>2026-03-25T10:43:01.963Z</time></trkpt><trkpt lat="41.4613144" lon="13.2002649"><ele>21.0</ele><time>2026-03-25T10:43:02.964Z</time></trkpt><trkpt lat="41.4611976" lon="13.2003068"><ele>21.0</ele><time>2026-03-25T10:43:03.955Z</time></trkpt><trkpt lat="41.4610803" lon="13.2003384"><ele>21.0</ele><time>2026-03-25T10:43:04.965Z</time></trkpt><trkpt lat="41.4609651" lon="13.2003686"><ele>21.25</ele><time>2026-03-25T10:43:05.953Z</time></trkpt><trkpt lat="41.460853" lon="13.2003877"><ele>21.5</ele><time>2026-03-25T10:43:06.962Z</time></trkpt><trkpt lat="41.4607411" lon="13.2004082"><ele>21.75</ele><time>2026-03-25T10:43:07.951Z</time></trkpt><trkpt lat="41.4606276" lon="13.2004424"><ele>22.0</ele><time>2026-03-25T10:43:08.959Z</time></trkpt><trkpt lat="41.4605152" lon="13.2004705"><ele>22.0</ele><time>2026-03-25T10:43:09.955Z</time></trkpt><trkpt lat="41.4604049" lon="13.2004934"><ele>22.0</ele><time>2026-03-25T10:43:10.955Z</time></trkpt><trkpt lat="41.4602959" lon="13.2005168"><ele>22.0</ele><time>2026-03-25T10:43:11.954Z</time></trkpt><trkpt lat="41.4601947" lon="13.2005399"><ele>22.0</ele><time>2026-03-25T10:43:12.957Z</time></trkpt><trkpt lat="41.4600903" lon="13.2005646"><ele>22.0</ele><time>2026-03-25T10:43:13.954Z</time></trkpt><trkpt lat="41.4599899" lon="13.2005882"><ele>22.0</ele><time>2026-03-25T10:43:14.96Z</time></trkpt><trkpt lat="41.4598952" lon="13.20061"><ele>22.0</ele><time>2026-03-25T10:43:15.963Z</time></trkpt><trkpt lat="41.4598133" lon="13.2006312"><ele>22.0</ele><time>2026-03-25T10:43:16.966Z</time></trkpt><trkpt lat="41.4597402" lon="13.2006561"><ele>22.0</ele><time>2026-03-25T10:43:17.961Z</time></trkpt><trkpt lat="41.4596778" lon="13.2006896"><ele>22.0</ele><time>2026-03-25T10:43:18.971Z</time></trkpt><trkpt lat="41.4595928" lon="13.2007556"><ele>22.0</ele><time>2026-03-25T10:43:20.976Z</time></trkpt><trkpt lat="41.4595348" lon="13.2007194"><ele>22.0</ele><time>2026-03-25T10:43:24.961Z</time></trkpt><trkpt lat="41.459536" lon="13.2006332"><ele>22.0</ele><time>2026-03-25T10:43:26.97Z</time></trkpt><trkpt lat="41.4595253" lon="13.2005125"><ele>22.0</ele><time>2026-03-25T10:43:28.961Z</time></trkpt><trkpt lat="41.4595064" lon="13.2003714"><ele>22.0</ele><time>2026-03-25T10:43:30.963Z</time></trkpt><trkpt lat="41.4594832" lon="13.2002079"><ele>22.0</ele><time>2026-03-25T10:43:32.959Z</time></trkpt><trkpt lat="41.4594711" lon="13.2001193"><ele>22.0</ele><time>2026-03-25T10:43:33.971Z</time></trkpt><trkpt lat="41.4594569" lon="13.2000282"><ele>22.0</ele><time>2026-03-25T10:43:34.956Z</time></trkpt><trkpt lat="41.4594419" lon="13.1999274"><ele>22.0</ele><time>2026-03-25T10:43:35.965Z</time></trkpt><trkpt lat="41.4594262" lon="13.199816"><ele>22.0</ele><time>2026-03-25T10:43:36.963Z</time></trkpt><trkpt lat="41.4594114" lon="13.1997047"><ele>22.0</ele><time>2026-03-25T10:43:37.96Z</time></trkpt><trkpt lat="41.4593962" lon="13.1995882"><ele>22.0</ele><time>2026-03-25T10:43:38.976Z</time></trkpt><trkpt lat="41.4593781" lon="13.1994637"><ele>22.200000000000003</ele><time>2026-03-25T10:43:39.963Z</time></trkpt><trkpt lat="41.4593582" lon="13.1993359"><ele>22.4</ele><time>2026-03-25T10:43:40.958Z</time></trkpt><trkpt lat="41.4593319" lon="13.1992091"><ele>22.6</ele><time>2026-03-25T10:43:41.962Z</time></trkpt><trkpt lat="41.4592924" lon="13.1990828"><ele>22.799999999999997</ele><time>2026-03-25T10:43:42.961Z</time></trkpt><trkpt lat="41.4592369" lon="13.1989685"><ele>23.0</ele><time>2026-03-25T10:43:43.97Z</time></trkpt><trkpt lat="41.4591673" lon="13.198866"><ele>24.0</ele><time>2026-03-25T10:43:44.959Z</time></trkpt><trkpt lat="41.4590869" lon="13.1987771"><ele>25.0</ele><time>2026-03-25T10:43:45.961Z</time></trkpt><trkpt lat="41.4590016" lon="13.1986985"><ele>25.999999999999996</ele><time>2026-03-25T10:43:46.968Z</time></trkpt><trkpt lat="41.4589223" lon="13.1986225"><ele>27.0</ele><time>2026-03-25T10:43:47.972Z</time></trkpt><trkpt lat="41.4588578" lon="13.1985377"><ele>28.0</ele><time>2026-03-25T10:43:48.972Z</time></trkpt><trkpt lat="41.4588123" lon="13.1984359"><ele>28.500000000000004</ele><time>2026-03-25T10:43:49.957Z</time></trkpt><trkpt lat="41.4587755" lon="13.198329"><ele>29.0</ele><time>2026-03-25T10:43:50.968Z</time></trkpt><trkpt lat="41.4587374" lon="13.1982351"><ele>29.5</ele><time>2026-03-25T10:43:51.964Z</time></trkpt><trkpt lat="41.4586846" lon="13.1981696"><ele>30.0</ele><time>2026-03-25T10:43:52.966Z</time></trkpt><trkpt lat="41.4586184" lon="13.1981337"><ele>30.500000000000004</ele><time>2026-03-25T10:43:53.959Z</time></trkpt><trkpt lat="41.4585412" lon="13.1981329"><ele>31.0</ele><time>2026-03-25T10:43:54.959Z</time></trkpt><trkpt lat="41.4584599" lon="13.19817"><ele>31.0</ele><time>2026-03-25T10:43:55.966Z</time></trkpt><trkpt lat="41.458376" lon="13.1982468"><ele>31.0</ele><time>2026-03-25T10:43:56.952Z</time></trkpt><trkpt lat="41.4582919" lon="13.1983439"><ele>31.0</ele><time>2026-03-25T10:43:57.959Z</time></trkpt><trkpt lat="41.4581982" lon="13.1984279"><ele>31.0</ele><time>2026-03-25T10:43:58.956Z</time></trkpt><trkpt lat="41.458097" lon="13.1985054"><ele>31.0</ele><time>2026-03-25T10:43:59.97Z</time></trkpt><trkpt lat="41.4579945" lon="13.1985959"><ele>31.25</ele><time>2026-03-25T10:44:00.962Z</time></trkpt><trkpt lat="41.4578879" lon="13.1986888"><ele>31.5</ele><time>2026-03-25T10:44:01.977Z</time></trkpt><trkpt lat="41.4577923" lon="13.1988116"><ele>31.75</ele><time>2026-03-25T10:44:02.962Z</time></trkpt><trkpt lat="41.4576991" lon="13.1989379"><ele>32.0</ele><time>2026-03-25T10:44:03.967Z</time></trkpt><trkpt lat="41.4576046" lon="13.1990678"><ele>32.0</ele><time>2026-03-25T10:44:04.966Z</time></trkpt><trkpt lat="41.4575046" lon="13.1992043"><ele>32.0</ele><time>2026-03-25T10:44:05.955Z</time></trkpt><trkpt lat="41.4574011" lon="13.1993428"><ele>32.0</ele><time>2026-03-25T10:44:06.971Z</time></trkpt><trkpt lat="41.4572935" lon="13.1994813"><ele>32.0</ele><time>2026-03-25T10:44:07.96Z</time></trkpt><trkpt lat="41.4571833" lon="13.1996203"><ele>34.33333333333333</ele><time>2026-03-25T10:44:08.973Z</time></trkpt><trkpt lat="41.457073" lon="13.1997586"><ele>36.666666666666664</ele><time>2026-03-25T10:44:09.966Z</time></trkpt><trkpt lat="41.4569609" lon="13.1998972"><ele>39.0</ele><time>2026-03-25T10:44:10.961Z</time></trkpt><trkpt lat="41.456846" lon="13.2000373"><ele>39.0</ele><time>2026-03-25T10:44:11.958Z</time></trkpt><trkpt lat="41.456727" lon="13.2001766"><ele>39.0</ele><time>2026-03-25T10:44:12.968Z</time></trkpt><trkpt lat="41.4566036" lon="13.2003158"><ele>39.0</ele><time>2026-03-25T10:44:13.962Z</time></trkpt><trkpt lat="41.4564741" lon="13.2004587"><ele>39.0</ele><time>2026-03-25T10:44:14.958Z</time></trkpt><trkpt lat="41.4563409" lon="13.2006048"><ele>39.0</ele><time>2026-03-25T10:44:15.96Z</time></trkpt><trkpt lat="41.4562091" lon="13.2007471"><ele>39.0</ele><time>2026-03-25T10:44:16.964Z</time></trkpt><trkpt lat="41.4560733" lon="13.200885"><ele>39.0</ele><time>2026-03-25T10:44:17.963Z</time></trkpt><trkpt lat="41.455931" lon="13.2010173"><ele>39.0</ele><time>2026-03-25T10:44:18.956Z</time></trkpt><trkpt lat="41.455781" lon="13.2011402"><ele>39.0</ele><time>2026-03-25T10:44:19.959Z</time></trkpt><trkpt lat="41.4556241" lon="13.2012539"><ele>39.0</ele><time>2026-03-25T10:44:20.958Z</time></trkpt><trkpt lat="41.4554605" lon="13.2013549"><ele>39.0</ele><time>2026-03-25T10:44:21.956Z</time></trkpt><trkpt lat="41.455293" lon="13.2014464"><ele>39.0</ele><time>2026-03-25T10:44:22.964Z</time></trkpt><trkpt lat="41.4551217" lon="13.2015307"><ele>38.0</ele><time>2026-03-25T10:44:23.963Z</time></trkpt><trkpt lat="41.4549475" lon="13.2016054"><ele>37.0</ele><time>2026-03-25T10:44:24.968Z</time></trkpt><trkpt lat="41.4547712" lon="13.201662"><ele>36.0</ele><time>2026-03-25T10:44:25.962Z</time></trkpt><trkpt lat="41.454593" lon="13.2017"><ele>35.666666666666664</ele><time>2026-03-25T10:44:26.965Z</time></trkpt><trkpt lat="41.454414" lon="13.2017289"><ele>35.33333333333333</ele><time>2026-03-25T10:44:27.963Z</time></trkpt><trkpt lat="41.4542333" lon="13.2017574"><ele>35.0</ele><time>2026-03-25T10:44:28.967Z</time></trkpt><trkpt lat="41.4540517" lon="13.2017884"><ele>35.0</ele><time>2026-03-25T10:44:29.964Z</time></trkpt><trkpt lat="41.4538714" lon="13.201834"><ele>35.0</ele><time>2026-03-25T10:44:30.962Z</time></trkpt><trkpt lat="41.453694" lon="13.2018983"><ele>35.0</ele><time>2026-03-25T10:44:31.963Z</time></trkpt><trkpt lat="41.4535219" lon="13.2019811"><ele>35.33333333333333</ele><time>2026-03-25T10:44:32.962Z</time></trkpt><trkpt lat="41.4533538" lon="13.2020784"><ele>35.666666666666664</ele><time>2026-03-25T10:44:33.961Z</time></trkpt><trkpt lat="41.4531874" lon="13.2021826"><ele>36.0</ele><time>2026-03-25T10:44:34.962Z</time></trkpt><trkpt lat="41.4530206" lon="13.2022849"><ele>35.0</ele><time>2026-03-25T10:44:35.959Z</time></trkpt><trkpt lat="41.4528533" lon="13.2023832"><ele>34.0</ele><time>2026-03-25T10:44:36.966Z</time></trkpt><trkpt lat="41.452685" lon="13.2024684"><ele>33.0</ele><time>2026-03-25T10:44:37.961Z</time></trkpt><trkpt lat="41.4525142" lon="13.2025361"><ele>33.0</ele><time>2026-03-25T10:44:38.968Z</time></trkpt><trkpt lat="41.4523398" lon="13.2025781"><ele>33.0</ele><time>2026-03-25T10:44:39.959Z</time></trkpt><trkpt lat="41.4521613" lon="13.2025971"><ele>33.0</ele><time>2026-03-25T10:44:40.959Z</time></trkpt><trkpt lat="41.4519812" lon="13.2025932"><ele>34.666666666666664</ele><time>2026-03-25T10:44:41.961Z</time></trkpt><trkpt lat="41.4518028" lon="13.2025834"><ele>36.33333333333333</ele><time>2026-03-25T10:44:42.959Z</time></trkpt><trkpt lat="41.4516218" lon="13.2025265"><ele>38.0</ele><time>2026-03-25T10:44:43.963Z</time></trkpt><trkpt lat="41.4514465" lon="13.2024686"><ele>39.33333333333333</ele><time>2026-03-25T10:44:44.961Z</time></trkpt><trkpt lat="41.4512777" lon="13.2023653"><ele>40.666666666666664</ele><time>2026-03-25T10:44:45.962Z</time></trkpt><trkpt lat="41.4511056" lon="13.2022557"><ele>42.0</ele><time>2026-03-25T10:44:46.967Z</time></trkpt><trkpt lat="41.4509529" lon="13.2020951"><ele>42.0</ele><time>2026-03-25T10:44:47.965Z</time></trkpt><trkpt lat="41.4508149" lon="13.2019187"><ele>42.0</ele><time>2026-03-25T10:44:48.964Z</time></trkpt><trkpt lat="41.4506861" lon="13.2017363"><ele>42.0</ele><time>2026-03-25T10:44:49.978Z</time></trkpt><trkpt lat="41.4505555" lon="13.201553"><ele>37.333333333333336</ele><time>2026-03-25T10:44:50.965Z</time></trkpt><trkpt lat="41.4504383" lon="13.2013803"><ele>32.66666666666667</ele><time>2026-03-25T10:44:51.96Z</time></trkpt><trkpt lat="41.4503241" lon="13.201212"><ele>28.0</ele><time>2026-03-25T10:44:52.968Z</time></trkpt><trkpt lat="41.4502157" lon="13.2010456"><ele>28.0</ele><time>2026-03-25T10:44:53.966Z</time></trkpt><trkpt lat="41.4501001" lon="13.2008811"><ele>28.0</ele><time>2026-03-25T10:44:54.962Z</time></trkpt><trkpt lat="41.4499796" lon="13.2007232"><ele>28.0</ele><time>2026-03-25T10:44:55.974Z</time></trkpt><trkpt lat="41.4498553" lon="13.2005746"><ele>28.666666666666668</ele><time>2026-03-25T10:44:56.962Z</time></trkpt><trkpt lat="41.4497166" lon="13.2004584"><ele>29.333333333333336</ele><time>2026-03-25T10:44:57.977Z</time></trkpt><trkpt lat="41.4495666" lon="13.200376"><ele>30.0</ele><time>2026-03-25T10:44:58.968Z</time></trkpt><trkpt lat="41.4494122" lon="13.2003305"><ele>31.333333333333336</ele><time>2026-03-25T10:44:59.969Z</time></trkpt><trkpt lat="41.4492477" lon="13.2003343"><ele>32.66666666666667</ele><time>2026-03-25T10:45:00.964Z</time></trkpt><trkpt lat="41.4490849" lon="13.2003753"><ele>34.0</ele><time>2026-03-25T10:45:01.968Z</time></trkpt><trkpt lat="41.4489253" lon="13.2004415"><ele>35.0</ele><time>2026-03-25T10:45:02.974Z</time></trkpt><trkpt lat="41.4487663" lon="13.2005247"><ele>36.0</ele><time>2026-03-25T10:45:03.967Z</time></trkpt><trkpt lat="41.448607" lon="13.2006221"><ele>37.0</ele><time>2026-03-25T10:45:04.964Z</time></trkpt><trkpt lat="41.4484482" lon="13.2007205"><ele>37.0</ele><time>2026-03-25T10:45:05.958Z</time></trkpt><trkpt lat="41.4482861" lon="13.200822"><ele>37.0</ele><time>2026-03-25T10:45:06.957Z</time></trkpt><trkpt lat="41.4481236" lon="13.200917"><ele>37.0</ele><time>2026-03-25T10:45:07.955Z</time></trkpt><trkpt lat="41.4479603" lon="13.2010192"><ele>37.333333333333336</ele><time>2026-03-25T10:45:08.952Z</time></trkpt><trkpt lat="41.4477963" lon="13.2011219"><ele>37.666666666666664</ele><time>2026-03-25T10:45:09.965Z</time></trkpt><trkpt lat="41.4476272" lon="13.20122"><ele>38.0</ele><time>2026-03-25T10:45:10.954Z</time></trkpt><trkpt lat="41.4474624" lon="13.201321"><ele>38.0</ele><time>2026-03-25T10:45:11.968Z</time></trkpt><trkpt lat="41.4472949" lon="13.2014239"><ele>38.0</ele><time>2026-03-25T10:45:12.955Z</time></trkpt><trkpt lat="41.4471287" lon="13.201519"><ele>38.0</ele><time>2026-03-25T10:45:13.96Z</time></trkpt><trkpt lat="41.4469606" lon="13.201614"><ele>37.0</ele><time>2026-03-25T10:45:14.962Z</time></trkpt><trkpt lat="41.4467879" lon="13.2017073"><ele>36.0</ele><time>2026-03-25T10:45:15.966Z</time></trkpt><trkpt lat="41.446618" lon="13.201776"><ele>35.0</ele><time>2026-03-25T10:45:16.965Z</time></trkpt><trkpt lat="41.4464307" lon="13.2018335"><ele>37.33333333333333</ele><time>2026-03-25T10:45:17.966Z</time></trkpt><trkpt lat="41.4462473" lon="13.2018709"><ele>39.666666666666664</ele><time>2026-03-25T10:45:18.973Z</time></trkpt><trkpt lat="41.4460566" lon="13.2019109"><ele>42.0</ele><time>2026-03-25T10:45:19.96Z</time></trkpt><trkpt lat="41.4458692" lon="13.2019478"><ele>42.0</ele><time>2026-03-25T10:45:20.96Z</time></trkpt><trkpt lat="41.4456782" lon="13.2019873"><ele>42.0</ele><time>2026-03-25T10:45:21.959Z</time></trkpt><trkpt lat="41.4454863" lon="13.2020285"><ele>42.0</ele><time>2026-03-25T10:45:22.959Z</time></trkpt><trkpt lat="41.4452946" lon="13.2020705"><ele>43.0</ele><time>2026-03-25T10:45:23.973Z</time></trkpt><trkpt lat="41.4451003" lon="13.202115"><ele>44.0</ele><time>2026-03-25T10:45:24.96Z</time></trkpt><trkpt lat="41.4449131" lon="13.2021499"><ele>45.0</ele><time>2026-03-25T10:45:25.96Z</time></trkpt><trkpt lat="41.4447374" lon="13.2021903"><ele>44.666666666666664</ele><time>2026-03-25T10:45:26.954Z</time></trkpt><trkpt lat="41.4445701" lon="13.2022213"><ele>44.33333333333333</ele><time>2026-03-25T10:45:27.959Z</time></trkpt><trkpt lat="41.4444143" lon="13.2022509"><ele>44.0</ele><time>2026-03-25T10:45:28.962Z</time></trkpt><trkpt lat="41.4442611" lon="13.2022559"><ele>44.0</ele><time>2026-03-25T10:45:29.96Z</time></trkpt><trkpt lat="41.4441147" lon="13.2022544"><ele>44.0</ele><time>2026-03-25T10:45:30.96Z</time></trkpt><trkpt lat="41.4439642" lon="13.2021953"><ele>44.0</ele><time>2026-03-25T10:45:31.95Z</time></trkpt><trkpt lat="41.4438114" lon="13.2021204"><ele>41.0</ele><time>2026-03-25T10:45:32.962Z</time></trkpt><trkpt lat="41.4436553" lon="13.2020433"><ele>38.0</ele><time>2026-03-25T10:45:33.959Z</time></trkpt><trkpt lat="41.4435004" lon="13.2019738"><ele>35.0</ele><time>2026-03-25T10:45:34.962Z</time></trkpt><trkpt lat="41.4433389" lon="13.2018917"><ele>35.0</ele><time>2026-03-25T10:45:35.966Z</time></trkpt><trkpt lat="41.4431694" lon="13.2018099"><ele>35.0</ele><time>2026-03-25T10:45:36.961Z</time></trkpt><trkpt lat="41.4430084" lon="13.2017322"><ele>35.0</ele><time>2026-03-25T10:45:37.958Z</time></trkpt><trkpt lat="41.4428558" lon="13.2016664"><ele>36.33333333333333</ele><time>2026-03-25T10:45:38.962Z</time></trkpt><trkpt lat="41.4427168" lon="13.2015998"><ele>37.666666666666664</ele><time>2026-03-25T10:45:39.957Z</time></trkpt><trkpt lat="41.4425756" lon="13.2015348"><ele>39.0</ele><time>2026-03-25T10:45:40.963Z</time></trkpt><trkpt lat="41.4424322" lon="13.2014616"><ele>39.0</ele><time>2026-03-25T10:45:41.963Z</time></trkpt><trkpt lat="41.442285" lon="13.2013927"><ele>39.0</ele><time>2026-03-25T10:45:42.958Z</time></trkpt><trkpt lat="41.4421358" lon="13.2013225"><ele>39.0</ele><time>2026-03-25T10:45:43.958Z</time></trkpt><trkpt lat="41.4419828" lon="13.2012538"><ele>37.0</ele><time>2026-03-25T10:45:44.968Z</time></trkpt><trkpt lat="41.4418285" lon="13.2011844"><ele>35.0</ele><time>2026-03-25T10:45:45.963Z</time></trkpt><trkpt lat="41.4416764" lon="13.2011075"><ele>33.0</ele><time>2026-03-25T10:45:46.962Z</time></trkpt><trkpt lat="41.4415276" lon="13.2010233"><ele>33.0</ele><time>2026-03-25T10:45:47.963Z</time></trkpt><trkpt lat="41.4413804" lon="13.2009363"><ele>33.0</ele><time>2026-03-25T10:45:48.96Z</time></trkpt><trkpt lat="41.4412426" lon="13.2008205"><ele>33.0</ele><time>2026-03-25T10:45:49.96Z</time></trkpt><trkpt lat="41.4411122" lon="13.2006792"><ele>32.0</ele><time>2026-03-25T10:45:50.959Z</time></trkpt><trkpt lat="41.4409913" lon="13.2005191"><ele>31.0</ele><time>2026-03-25T10:45:51.96Z</time></trkpt><trkpt lat="41.4408775" lon="13.2003435"><ele>30.0</ele><time>2026-03-25T10:45:52.959Z</time></trkpt><trkpt lat="41.4407765" lon="13.2001565"><ele>30.0</ele><time>2026-03-25T10:45:53.962Z</time></trkpt><trkpt lat="41.440687" lon="13.1999597"><ele>30.0</ele><time>2026-03-25T10:45:54.958Z</time></trkpt><trkpt lat="41.4406036" lon="13.1997558"><ele>30.0</ele><time>2026-03-25T10:45:55.959Z</time></trkpt><trkpt lat="41.4405395" lon="13.199533"><ele>31.666666666666664</ele><time>2026-03-25T10:45:56.955Z</time></trkpt><trkpt lat="41.440482" lon="13.1993074"><ele>33.33333333333333</ele><time>2026-03-25T10:45:57.974Z</time></trkpt><trkpt lat="41.4404216" lon="13.1990873"><ele>35.0</ele><time>2026-03-25T10:45:58.964Z</time></trkpt><trkpt lat="41.4403693" lon="13.1988621"><ele>31.0</ele><time>2026-03-25T10:45:59.965Z</time></trkpt><trkpt lat="41.4403228" lon="13.1986267"><ele>27.0</ele><time>2026-03-25T10:46:00.968Z</time></trkpt><trkpt lat="41.4402686" lon="13.1983951"><ele>23.0</ele><time>2026-03-25T10:46:01.962Z</time></trkpt><trkpt lat="41.4402149" lon="13.1981625"><ele>23.0</ele><time>2026-03-25T10:46:02.958Z</time></trkpt><trkpt lat="41.4401609" lon="13.1979316"><ele>23.0</ele><time>2026-03-25T10:46:03.957Z</time></trkpt><trkpt lat="41.4401037" lon="13.1977025"><ele>23.0</ele><time>2026-03-25T10:46:04.958Z</time></trkpt><trkpt lat="41.440045" lon="13.1974736"><ele>24.333333333333336</ele><time>2026-03-25T10:46:05.959Z</time></trkpt><trkpt lat="41.4399875" lon="13.1972431"><ele>25.666666666666668</ele><time>2026-03-25T10:46:06.963Z</time></trkpt><trkpt lat="41.4399345" lon="13.1970124"><ele>27.0</ele><time>2026-03-25T10:46:07.956Z</time></trkpt><trkpt lat="41.4398858" lon="13.1967763"><ele>27.0</ele><time>2026-03-25T10:46:08.959Z</time></trkpt><trkpt lat="41.439846" lon="13.1965373"><ele>27.0</ele><time>2026-03-25T10:46:09.958Z</time></trkpt><trkpt lat="41.439815" lon="13.1962984"><ele>27.0</ele><time>2026-03-25T10:46:10.964Z</time></trkpt><trkpt lat="41.4397937" lon="13.1960563"><ele>27.0</ele><time>2026-03-25T10:46:11.958Z</time></trkpt><trkpt lat="41.4397744" lon="13.1958157"><ele>27.0</ele><time>2026-03-25T10:46:12.959Z</time></trkpt><trkpt lat="41.4397529" lon="13.1955791"><ele>27.0</ele><time>2026-03-25T10:46:13.96Z</time></trkpt><trkpt lat="41.4397255" lon="13.1953479"><ele>27.0</ele><time>2026-03-25T10:46:14.957Z</time></trkpt><trkpt lat="41.4396839" lon="13.1951242"><ele>27.0</ele><time>2026-03-25T10:46:15.952Z</time></trkpt><trkpt lat="41.4396189" lon="13.1949132"><ele>27.0</ele><time>2026-03-25T10:46:16.957Z</time></trkpt><trkpt lat="41.4395308" lon="13.1947168"><ele>26.0</ele><time>2026-03-25T10:46:17.956Z</time></trkpt><trkpt lat="41.4394219" lon="13.194537"><ele>25.0</ele><time>2026-03-25T10:46:18.966Z</time></trkpt><trkpt lat="41.4392972" lon="13.1943752"><ele>24.0</ele><time>2026-03-25T10:46:19.959Z</time></trkpt><trkpt lat="41.4391595" lon="13.1942324"><ele>24.0</ele><time>2026-03-25T10:46:20.965Z</time></trkpt><trkpt lat="41.4390147" lon="13.1941033"><ele>24.0</ele><time>2026-03-25T10:46:21.961Z</time></trkpt><trkpt lat="41.4388691" lon="13.1939809"><ele>24.0</ele><time>2026-03-25T10:46:22.953Z</time></trkpt><trkpt lat="41.4387222" lon="13.193858"><ele>25.666666666666664</ele><time>2026-03-25T10:46:23.972Z</time></trkpt><trkpt lat="41.4385743" lon="13.1937363"><ele>27.333333333333332</ele><time>2026-03-25T10:46:24.955Z</time></trkpt><trkpt lat="41.4384286" lon="13.1936148"><ele>29.0</ele><time>2026-03-25T10:46:25.962Z</time></trkpt><trkpt lat="41.4382874" lon="13.1934953"><ele>29.0</ele><time>2026-03-25T10:46:26.958Z</time></trkpt><trkpt lat="41.4381516" lon="13.1933776"><ele>29.0</ele><time>2026-03-25T10:46:27.962Z</time></trkpt><trkpt lat="41.4380197" lon="13.1932609"><ele>29.0</ele><time>2026-03-25T10:46:28.968Z</time></trkpt><trkpt lat="41.4378905" lon="13.1931447"><ele>30.666666666666664</ele><time>2026-03-25T10:46:29.965Z</time></trkpt><trkpt lat="41.4377616" lon="13.193028"><ele>32.333333333333336</ele><time>2026-03-25T10:46:30.962Z</time></trkpt><trkpt lat="41.4376345" lon="13.1929077"><ele>34.0</ele><time>2026-03-25T10:46:31.958Z</time></trkpt><trkpt lat="41.437509" lon="13.1927851"><ele>34.0</ele><time>2026-03-25T10:46:32.96Z</time></trkpt><trkpt lat="41.4373861" lon="13.1926585"><ele>34.0</ele><time>2026-03-25T10:46:33.983Z</time></trkpt><trkpt lat="41.4372693" lon="13.1925373"><ele>34.0</ele><time>2026-03-25T10:46:34.958Z</time></trkpt><trkpt lat="41.4371602" lon="13.1924196"><ele>34.0</ele><time>2026-03-25T10:46:35.967Z</time></trkpt><trkpt lat="41.4370555" lon="13.1923041"><ele>32.75</ele><time>2026-03-25T10:46:36.962Z</time></trkpt><trkpt lat="41.4369564" lon="13.1921901"><ele>31.5</ele><time>2026-03-25T10:46:37.964Z</time></trkpt><trkpt lat="41.4368619" lon="13.192077"><ele>30.25</ele><time>2026-03-25T10:46:38.959Z</time></trkpt><trkpt lat="41.4367784" lon="13.1919754"><ele>29.0</ele><time>2026-03-25T10:46:39.966Z</time></trkpt><trkpt lat="41.4367049" lon="13.1918867"><ele>28.999999999999996</ele><time>2026-03-25T10:46:40.955Z</time></trkpt><trkpt lat="41.4366459" lon="13.1918104"><ele>29.0</ele><time>2026-03-25T10:46:41.967Z</time></trkpt><trkpt lat="41.4366047" lon="13.1917456"><ele>29.0</ele><time>2026-03-25T10:46:42.956Z</time></trkpt><trkpt lat="41.4365717" lon="13.1916386"><ele>29.0</ele><time>2026-03-25T10:46:44.962Z</time></trkpt><trkpt lat="41.4366332" lon="13.1915372"><ele>28.999999999999996</ele><time>2026-03-25T10:46:46.972Z</time></trkpt><trkpt lat="41.4366656" lon="13.1914107"><ele>29.0</ele><time>2026-03-25T10:46:48.963Z</time></trkpt><trkpt lat="41.4366627" lon="13.1913217"><ele>30.0</ele><time>2026-03-25T10:46:49.969Z</time></trkpt><trkpt lat="41.4366428" lon="13.1912311"><ele>31.0</ele><time>2026-03-25T10:46:50.959Z</time></trkpt><trkpt lat="41.4366339" lon="13.1911389"><ele>32.0</ele><time>2026-03-25T10:46:51.963Z</time></trkpt><trkpt lat="41.4366263" lon="13.1910497"><ele>33.0</ele><time>2026-03-25T10:46:52.958Z</time></trkpt><trkpt lat="41.4366774" lon="13.1908901"><ele>34.0</ele><time>2026-03-25T10:46:54.965Z</time></trkpt><trkpt lat="41.4367616" lon="13.190774"><ele>34.0</ele><time>2026-03-25T10:46:56.976Z</time></trkpt><trkpt lat="41.4368417" lon="13.1907749"><ele>34.0</ele><time>2026-03-25T10:46:58.971Z</time></trkpt><trkpt lat="41.4369046" lon="13.1907622"><ele>34.0</ele><time>2026-03-25T10:47:00.963Z</time></trkpt><trkpt lat="41.4369723" lon="13.19068"><ele>34.0</ele><time>2026-03-25T10:47:02.955Z</time></trkpt><trkpt lat="41.4370396" lon="13.1905575"><ele>34.0</ele><time>2026-03-25T10:47:04.963Z</time></trkpt><trkpt lat="41.4370983" lon="13.1904955"><ele>34.0</ele><time>2026-03-25T10:47:05.967Z</time></trkpt><trkpt lat="41.4371697" lon="13.1904386"><ele>35.16666666666667</ele><time>2026-03-25T10:47:06.972Z</time></trkpt><trkpt lat="41.4372412" lon="13.1903719"><ele>36.333333333333336</ele><time>2026-03-25T10:47:07.957Z</time></trkpt><trkpt lat="41.4372927" lon="13.1903001"><ele>37.5</ele><time>2026-03-25T10:47:08.962Z</time></trkpt><trkpt lat="41.4373527" lon="13.190271"><ele>38.666666666666664</ele><time>2026-03-25T10:47:09.958Z</time></trkpt><trkpt lat="41.437455" lon="13.1902687"><ele>39.83333333333333</ele><time>2026-03-25T10:47:11.967Z</time></trkpt><trkpt lat="41.4375294" lon="13.1902593"><ele>41.0</ele><time>2026-03-25T10:47:12.964Z</time></trkpt><trkpt lat="41.4375968" lon="13.1902313"><ele>41.0</ele><time>2026-03-25T10:47:13.953Z</time></trkpt><trkpt lat="41.4376749" lon="13.1902103"><ele>41.0</ele><time>2026-03-25T10:47:14.967Z</time></trkpt><trkpt lat="41.4377404" lon="13.1901758"><ele>41.0</ele><time>2026-03-25T10:47:15.962Z</time></trkpt><trkpt lat="41.4378087" lon="13.1901645"><ele>41.0</ele><time>2026-03-25T10:47:16.959Z</time></trkpt><trkpt lat="41.4378794" lon="13.1901272"><ele>41.0</ele><time>2026-03-25T10:47:17.962Z</time></trkpt><trkpt lat="41.4379707" lon="13.1900867"><ele>41.0</ele><time>2026-03-25T10:47:18.959Z</time></trkpt><trkpt lat="41.4380431" lon="13.1900144"><ele>41.42857142857142</ele><time>2026-03-25T10:47:19.972Z</time></trkpt><trkpt lat="41.4381063" lon="13.1899494"><ele>41.857142857142854</ele><time>2026-03-25T10:47:20.957Z</time></trkpt><trkpt lat="41.4381549" lon="13.1898931"><ele>42.285714285714285</ele><time>2026-03-25T10:47:21.96Z</time></trkpt><trkpt lat="41.4382299" lon="13.189858"><ele>42.71428571428571</ele><time>2026-03-25T10:47:22.97Z</time></trkpt><trkpt lat="41.4383073" lon="13.1898305"><ele>43.14285714285714</ele><time>2026-03-25T10:47:23.963Z</time></trkpt><trkpt lat="41.4383647" lon="13.1897917"><ele>43.57142857142857</ele><time>2026-03-25T10:47:24.976Z</time></trkpt><trkpt lat="41.4384288" lon="13.1897556"><ele>44.0</ele><time>2026-03-25T10:47:40.96Z</time></trkpt><trkpt lat="41.4384872" lon="13.189701"><ele>45.0</ele><time>2026-03-25T10:47:42.985Z</time></trkpt><trkpt lat="41.4385707" lon="13.1896421"><ele>46.0</ele><time>2026-03-25T10:47:44.972Z</time></trkpt><trkpt lat="41.4386716" lon="13.1896007"><ele>47.0</ele><time>2026-03-25T10:47:46.958Z</time></trkpt><trkpt lat="41.43874" lon="13.1895837"><ele>48.0</ele><time>2026-03-25T10:47:47.964Z</time></trkpt><trkpt lat="41.4388313" lon="13.1895612"><ele>49.0</ele><time>2026-03-25T10:47:48.967Z</time></trkpt><trkpt lat="41.4389392" lon="13.1895492"><ele>49.400000000000006</ele><time>2026-03-25T10:47:49.957Z</time></trkpt><trkpt lat="41.439032" lon="13.1895459"><ele>49.8</ele><time>2026-03-25T10:47:50.972Z</time></trkpt><trkpt lat="41.439136" lon="13.1895399"><ele>50.2</ele><time>2026-03-25T10:47:51.952Z</time></trkpt><trkpt lat="41.4392548" lon="13.1895359"><ele>50.599999999999994</ele><time>2026-03-25T10:47:52.966Z</time></trkpt><trkpt lat="41.4393558" lon="13.1895094"><ele>51.0</ele><time>2026-03-25T10:47:53.953Z</time></trkpt><trkpt lat="41.4394623" lon="13.1894799"><ele>51.0</ele><time>2026-03-25T10:47:54.954Z</time></trkpt><trkpt lat="41.4395576" lon="13.1894634"><ele>51.0</ele><time>2026-03-25T10:47:55.956Z</time></trkpt><trkpt lat="41.4396559" lon="13.1894305"><ele>51.0</ele><time>2026-03-25T10:47:56.96Z</time></trkpt><trkpt lat="41.4397267" lon="13.1893832"><ele>51.0</ele><time>2026-03-25T10:47:57.972Z</time></trkpt><trkpt lat="41.4397701" lon="13.1892907"><ele>51.0</ele><time>2026-03-25T10:47:58.962Z</time></trkpt><trkpt lat="41.4397957" lon="13.1891975"><ele>51.0</ele><time>2026-03-25T10:47:59.979Z</time></trkpt><trkpt lat="41.4398421" lon="13.1891262"><ele>51.333333333333336</ele><time>2026-03-25T10:48:00.96Z</time></trkpt><trkpt lat="41.4399458" lon="13.189065"><ele>51.66666666666667</ele><time>2026-03-25T10:48:02.964Z</time></trkpt><trkpt lat="41.4399588" lon="13.1889815"><ele>52.0</ele><time>2026-03-25T10:48:03.959Z</time></trkpt><trkpt lat="41.4399818" lon="13.1889014"><ele>52.333333333333336</ele><time>2026-03-25T10:48:04.966Z</time></trkpt><trkpt lat="41.4400185" lon="13.188808"><ele>52.66666666666667</ele><time>2026-03-25T10:48:05.961Z</time></trkpt><trkpt lat="41.4400623" lon="13.1887386"><ele>53.0</ele><time>2026-03-25T10:48:06.96Z</time></trkpt><trkpt lat="41.4401447" lon="13.1886576"><ele>54.599999999999994</ele><time>2026-03-25T10:48:08.964Z</time></trkpt><trkpt lat="41.4402725" lon="13.1886198"><ele>56.199999999999996</ele><time>2026-03-25T10:48:10.96Z</time></trkpt><trkpt lat="41.4403642" lon="13.1885802"><ele>57.8</ele><time>2026-03-25T10:48:11.962Z</time></trkpt><trkpt lat="41.4404456" lon="13.1885263"><ele>59.4</ele><time>2026-03-25T10:48:12.958Z</time></trkpt><trkpt lat="41.4405225" lon="13.1884742"><ele>61.0</ele><time>2026-03-25T10:48:13.969Z</time></trkpt><trkpt lat="41.4405975" lon="13.1884131"><ele>60.99999999999999</ele><time>2026-03-25T10:48:14.958Z</time></trkpt><trkpt lat="41.4406817" lon="13.1883373"><ele>61.0</ele><time>2026-03-25T10:48:15.969Z</time></trkpt><trkpt lat="41.4407517" lon="13.1882551"><ele>61.0</ele><time>2026-03-25T10:48:16.956Z</time></trkpt><trkpt lat="41.4408247" lon="13.1881876"><ele>61.0</ele><time>2026-03-25T10:48:17.96Z</time></trkpt><trkpt lat="41.4409" lon="13.1881507"><ele>60.99999999999999</ele><time>2026-03-25T10:48:18.961Z</time></trkpt><trkpt lat="41.4409722" lon="13.1881133"><ele>61.0</ele><time>2026-03-25T10:48:19.959Z</time></trkpt><trkpt lat="41.4410475" lon="13.1880902"><ele>61.8</ele><time>2026-03-25T10:48:20.962Z</time></trkpt><trkpt lat="41.4411393" lon="13.1880804"><ele>62.599999999999994</ele><time>2026-03-25T10:48:21.958Z</time></trkpt><trkpt lat="41.4412298" lon="13.1880946"><ele>63.4</ele><time>2026-03-25T10:48:22.964Z</time></trkpt><trkpt lat="41.4413247" lon="13.1880904"><ele>64.2</ele><time>2026-03-25T10:48:23.957Z</time></trkpt><trkpt lat="41.4414145" lon="13.1880985"><ele>65.0</ele><time>2026-03-25T10:48:24.965Z</time></trkpt><trkpt lat="41.4414932" lon="13.1881295"><ele>65.0</ele><time>2026-03-25T10:48:25.958Z</time></trkpt><trkpt lat="41.4415698" lon="13.1881579"><ele>65.0</ele><time>2026-03-25T10:48:26.979Z</time></trkpt><trkpt lat="41.4416518" lon="13.1882146"><ele>65.0</ele><time>2026-03-25T10:48:27.961Z</time></trkpt><trkpt lat="41.4417339" lon="13.1882758"><ele>65.0</ele><time>2026-03-25T10:48:28.967Z</time></trkpt><trkpt lat="41.4418178" lon="13.188326"><ele>65.0</ele><time>2026-03-25T10:48:29.957Z</time></trkpt><trkpt lat="41.4419103" lon="13.1883569"><ele>63.2</ele><time>2026-03-25T10:48:30.959Z</time></trkpt><trkpt lat="41.4419896" lon="13.1884136"><ele>61.4</ele><time>2026-03-25T10:48:31.96Z</time></trkpt><trkpt lat="41.4420626" lon="13.1884641"><ele>59.599999999999994</ele><time>2026-03-25T10:48:32.957Z</time></trkpt><trkpt lat="41.4421488" lon="13.1885265"><ele>57.8</ele><time>2026-03-25T10:48:34.96Z</time></trkpt><trkpt lat="41.4422355" lon="13.188501"><ele>56.0</ele><time>2026-03-25T10:48:36.958Z</time></trkpt><trkpt lat="41.4423123" lon="13.1884235"><ele>56.00000000000001</ele><time>2026-03-25T10:48:39.954Z</time></trkpt><trkpt lat="41.4423893" lon="13.1883734"><ele>56.0</ele><time>2026-03-25T10:48:41.971Z</time></trkpt><trkpt lat="41.4424552" lon="13.1883606"><ele>56.0</ele><time>2026-03-25T10:48:43.964Z</time></trkpt><trkpt lat="41.4425585" lon="13.1883479"><ele>56.0</ele><time>2026-03-25T10:48:45.967Z</time></trkpt><trkpt lat="41.4426428" lon="13.1883466"><ele>56.00000000000001</ele><time>2026-03-25T10:48:46.962Z</time></trkpt><trkpt lat="41.4427383" lon="13.1882982"><ele>56.0</ele><time>2026-03-25T10:48:47.977Z</time></trkpt><trkpt lat="41.4428435" lon="13.1882319"><ele>57.5</ele><time>2026-03-25T10:48:48.963Z</time></trkpt><trkpt lat="41.4429567" lon="13.1881636"><ele>59.0</ele><time>2026-03-25T10:48:49.956Z</time></trkpt><trkpt lat="41.4430862" lon="13.1881046"><ele>60.5</ele><time>2026-03-25T10:48:50.965Z</time></trkpt><trkpt lat="41.443222" lon="13.1880408"><ele>62.0</ele><time>2026-03-25T10:48:51.961Z</time></trkpt><trkpt lat="41.4433542" lon="13.1879816"><ele>62.25</ele><time>2026-03-25T10:48:52.96Z</time></trkpt><trkpt lat="41.443489" lon="13.187921"><ele>62.5</ele><time>2026-03-25T10:48:53.96Z</time></trkpt><trkpt lat="41.4436098" lon="13.1878618"><ele>62.75</ele><time>2026-03-25T10:48:54.966Z</time></trkpt><trkpt lat="41.4437199" lon="13.187809"><ele>63.0</ele><time>2026-03-25T10:48:55.959Z</time></trkpt><trkpt lat="41.4438164" lon="13.1877614"><ele>63.599999999999994</ele><time>2026-03-25T10:48:56.96Z</time></trkpt><trkpt lat="41.443903" lon="13.18772"><ele>64.19999999999999</ele><time>2026-03-25T10:48:57.959Z</time></trkpt><trkpt lat="41.4440076" lon="13.1877263"><ele>64.8</ele><time>2026-03-25T10:48:58.961Z</time></trkpt><trkpt lat="41.4441218" lon="13.1877293"><ele>65.39999999999999</ele><time>2026-03-25T10:48:59.979Z</time></trkpt><trkpt lat="41.4442288" lon="13.1877219"><ele>66.0</ele><time>2026-03-25T10:49:00.955Z</time></trkpt><trkpt lat="41.4443431" lon="13.1877112"><ele>66.0</ele><time>2026-03-25T10:49:01.953Z</time></trkpt><trkpt lat="41.4444708" lon="13.1876397"><ele>66.0</ele><time>2026-03-25T10:49:02.959Z</time></trkpt><trkpt lat="41.4445921" lon="13.1875643"><ele>66.0</ele><time>2026-03-25T10:49:03.965Z</time></trkpt><trkpt lat="41.444711" lon="13.1875074"><ele>66.0</ele><time>2026-03-25T10:49:04.959Z</time></trkpt><trkpt lat="41.4448242" lon="13.1874632"><ele>66.0</ele><time>2026-03-25T10:49:05.957Z</time></trkpt><trkpt lat="41.4449218" lon="13.1874265"><ele>66.0</ele><time>2026-03-25T10:49:06.958Z</time></trkpt><trkpt lat="41.4450101" lon="13.1874008"><ele>66.0</ele><time>2026-03-25T10:49:07.954Z</time></trkpt><trkpt lat="41.4451191" lon="13.1873791"><ele>66.0</ele><time>2026-03-25T10:49:08.964Z</time></trkpt><trkpt lat="41.4452206" lon="13.187363"><ele>66.0</ele><time>2026-03-25T10:49:09.958Z</time></trkpt><trkpt lat="41.4453238" lon="13.187371"><ele>66.0</ele><time>2026-03-25T10:49:10.97Z</time></trkpt><trkpt lat="41.4454358" lon="13.1873952"><ele>66.0</ele><time>2026-03-25T10:49:11.963Z</time></trkpt><trkpt lat="41.4455336" lon="13.1874064"><ele>66.0</ele><time>2026-03-25T10:49:12.951Z</time></trkpt><trkpt lat="41.4456106" lon="13.1874237"><ele>66.0</ele><time>2026-03-25T10:49:13.992Z</time></trkpt><trkpt lat="41.4456814" lon="13.1874223"><ele>66.0</ele><time>2026-03-25T10:49:14.958Z</time></trkpt><trkpt lat="41.4457496" lon="13.1873803"><ele>66.0</ele><time>2026-03-25T10:49:15.965Z</time></trkpt><trkpt lat="41.4458045" lon="13.1872973"><ele>67.28571428571428</ele><time>2026-03-25T10:49:16.965Z</time></trkpt><trkpt lat="41.4458559" lon="13.1872174"><ele>68.57142857142857</ele><time>2026-03-25T10:49:17.957Z</time></trkpt><trkpt lat="41.4458999" lon="13.1871425"><ele>69.85714285714286</ele><time>2026-03-25T10:49:18.963Z</time></trkpt><trkpt lat="41.4459417" lon="13.1870743"><ele>71.14285714285714</ele><time>2026-03-25T10:49:19.962Z</time></trkpt><trkpt lat="41.4459857" lon="13.1869941"><ele>72.42857142857143</ele><time>2026-03-25T10:49:20.964Z</time></trkpt><trkpt lat="41.4460073" lon="13.186902"><ele>73.71428571428571</ele><time>2026-03-25T10:49:21.966Z</time></trkpt><trkpt lat="41.446022" lon="13.1868077"><ele>75.0</ele><time>2026-03-25T10:49:22.962Z</time></trkpt><trkpt lat="41.4460329" lon="13.1867196"><ele>75.0</ele><time>2026-03-25T10:49:23.963Z</time></trkpt><trkpt lat="41.4460491" lon="13.1866235"><ele>75.0</ele><time>2026-03-25T10:49:24.96Z</time></trkpt><trkpt lat="41.4460836" lon="13.1865061"><ele>75.0</ele><time>2026-03-25T10:49:25.959Z</time></trkpt><trkpt lat="41.446124" lon="13.1863978"><ele>75.0</ele><time>2026-03-25T10:49:26.962Z</time></trkpt><trkpt lat="41.4461638" lon="13.1863042"><ele>75.0</ele><time>2026-03-25T10:49:27.975Z</time></trkpt><trkpt lat="41.4461983" lon="13.1862184"><ele>75.0</ele><time>2026-03-25T10:49:28.963Z</time></trkpt><trkpt lat="41.4462388" lon="13.1861249"><ele>75.5</ele><time>2026-03-25T10:49:29.961Z</time></trkpt><trkpt lat="41.4462858" lon="13.1860316"><ele>76.0</ele><time>2026-03-25T10:49:30.97Z</time></trkpt><trkpt lat="41.4463187" lon="13.1859336"><ele>76.5</ele><time>2026-03-25T10:49:31.964Z</time></trkpt><trkpt lat="41.4463465" lon="13.1858394"><ele>77.0</ele><time>2026-03-25T10:49:32.968Z</time></trkpt><trkpt lat="41.4463689" lon="13.1857605"><ele>77.5</ele><time>2026-03-25T10:49:33.958Z</time></trkpt><trkpt lat="41.4464122" lon="13.1856898"><ele>78.0</ele><time>2026-03-25T10:49:36.98Z</time></trkpt><trkpt lat="41.4464903" lon="13.185662"><ele>80.6</ele><time>2026-03-25T10:49:38.961Z</time></trkpt><trkpt lat="41.4465989" lon="13.1855607"><ele>83.19999999999999</ele><time>2026-03-25T10:49:40.97Z</time></trkpt><trkpt lat="41.4466549" lon="13.1854878"><ele>85.8</ele><time>2026-03-25T10:49:41.971Z</time></trkpt><trkpt lat="41.4467066" lon="13.1854199"><ele>88.39999999999999</ele><time>2026-03-25T10:49:42.963Z</time></trkpt><trkpt lat="41.4467944" lon="13.1853469"><ele>91.0</ele><time>2026-03-25T10:49:44.969Z</time></trkpt><trkpt lat="41.4468366" lon="13.1852818"><ele>91.0</ele><time>2026-03-25T10:49:45.958Z</time></trkpt><trkpt lat="41.4468685" lon="13.1852043"><ele>91.0</ele><time>2026-03-25T10:49:46.97Z</time></trkpt><trkpt lat="41.4468968" lon="13.1851263"><ele>91.0</ele><time>2026-03-25T10:49:47.966Z</time></trkpt><trkpt lat="41.4469228" lon="13.1849615"><ele>91.0</ele><time>2026-03-25T10:49:49.965Z</time></trkpt><trkpt lat="41.4469293" lon="13.1848731"><ele>91.0</ele><time>2026-03-25T10:49:50.961Z</time></trkpt><trkpt lat="41.4469462" lon="13.1847473"><ele>91.0</ele><time>2026-03-25T10:49:52.964Z</time></trkpt><trkpt lat="41.4469103" lon="13.184658"><ele>91.66666666666666</ele><time>2026-03-25T10:49:54.972Z</time></trkpt><trkpt lat="41.4468979" lon="13.184564"><ele>92.33333333333333</ele><time>2026-03-25T10:49:56.966Z</time></trkpt><trkpt lat="41.4468686" lon="13.1844235"><ele>93.0</ele><time>2026-03-25T10:49:58.969Z</time></trkpt><trkpt lat="41.4468686" lon="13.1842563"><ele>93.66666666666667</ele><time>2026-03-25T10:50:00.971Z</time></trkpt><trkpt lat="41.446884" lon="13.1841721"><ele>94.33333333333334</ele><time>2026-03-25T10:50:01.964Z</time></trkpt><trkpt lat="41.446906" lon="13.1840778"><ele>95.0</ele><time>2026-03-25T10:50:03.963Z</time></trkpt><trkpt lat="41.4469103" lon="13.183908"><ele>95.0</ele><time>2026-03-25T10:50:05.96Z</time></trkpt><trkpt lat="41.4469048" lon="13.1837921"><ele>95.0</ele><time>2026-03-25T10:50:06.96Z</time></trkpt><trkpt lat="41.4468978" lon="13.1836616"><ele>95.0</ele><time>2026-03-25T10:50:07.964Z</time></trkpt><trkpt lat="41.4468879" lon="13.1835249"><ele>95.0</ele><time>2026-03-25T10:50:08.959Z</time></trkpt><trkpt lat="41.4468797" lon="13.1833975"><ele>95.0</ele><time>2026-03-25T10:50:09.965Z</time></trkpt><trkpt lat="41.4468686" lon="13.1832873"><ele>95.0</ele><time>2026-03-25T10:50:10.964Z</time></trkpt><trkpt lat="41.4468581" lon="13.1831851"><ele>95.0</ele><time>2026-03-25T10:50:11.963Z</time></trkpt><trkpt lat="41.4468601" lon="13.1830928"><ele>95.0</ele><time>2026-03-25T10:50:12.963Z</time></trkpt><trkpt lat="41.4468624" lon="13.1830041"><ele>95.0</ele><time>2026-03-25T10:50:13.983Z</time></trkpt><trkpt lat="41.4468963" lon="13.1829243"><ele>95.0</ele><time>2026-03-25T10:50:14.948Z</time></trkpt><trkpt lat="41.4469284" lon="13.1828275"><ele>95.0</ele><time>2026-03-25T10:50:15.959Z</time></trkpt><trkpt lat="41.4469661" lon="13.182743"><ele>95.0</ele><time>2026-03-25T10:50:16.953Z</time></trkpt><trkpt lat="41.4470216" lon="13.1826453"><ele>95.0</ele><time>2026-03-25T10:50:18.954Z</time></trkpt><trkpt lat="41.4471115" lon="13.1826645"><ele>95.0</ele><time>2026-03-25T10:50:24.958Z</time></trkpt><trkpt lat="41.4471633" lon="13.1827187"><ele>95.0</ele><time>2026-03-25T10:50:25.966Z</time></trkpt><trkpt lat="41.4472245" lon="13.1827716"><ele>95.0</ele><time>2026-03-25T10:50:26.959Z</time></trkpt><trkpt lat="41.4472956" lon="13.1828273"><ele>95.0</ele><time>2026-03-25T10:50:27.969Z</time></trkpt><trkpt lat="41.4473788" lon="13.1829003"><ele>95.0</ele><time>2026-03-25T10:50:28.959Z</time></trkpt><trkpt lat="41.44746" lon="13.1829922"><ele>95.0</ele><time>2026-03-25T10:50:29.963Z</time></trkpt><trkpt lat="41.4475496" lon="13.1830834"><ele>95.0</ele><time>2026-03-25T10:50:30.962Z</time></trkpt><trkpt lat="41.4476382" lon="13.1831801"><ele>95.0</ele><time>2026-03-25T10:50:31.96Z</time></trkpt><trkpt lat="41.4477384" lon="13.183284"><ele>95.0</ele><time>2026-03-25T10:50:32.961Z</time></trkpt><trkpt lat="41.4478386" lon="13.1833844"><ele>94.5</ele><time>2026-03-25T10:50:33.961Z</time></trkpt><trkpt lat="41.4479253" lon="13.1834683"><ele>94.0</ele><time>2026-03-25T10:50:34.963Z</time></trkpt><trkpt lat="41.4480018" lon="13.1835369"><ele>93.5</ele><time>2026-03-25T10:50:35.962Z</time></trkpt><trkpt lat="41.4480694" lon="13.1835925"><ele>93.0</ele><time>2026-03-25T10:50:36.953Z</time></trkpt><trkpt lat="41.4481269" lon="13.1836419"><ele>92.5</ele><time>2026-03-25T10:50:37.962Z</time></trkpt><trkpt lat="41.4482061" lon="13.183634"><ele>92.0</ele><time>2026-03-25T10:50:39.967Z</time></trkpt><trkpt lat="41.4482321" lon="13.1835564"><ele>93.0</ele><time>2026-03-25T10:50:41.978Z</time></trkpt><trkpt lat="41.4482324" lon="13.1834715"><ele>94.0</ele><time>2026-03-25T10:50:45.964Z</time></trkpt><trkpt lat="41.4482493" lon="13.1833594"><ele>95.0</ele><time>2026-03-25T10:50:47.979Z</time></trkpt><trkpt lat="41.4482916" lon="13.1832237"><ele>96.0</ele><time>2026-03-25T10:50:49.965Z</time></trkpt><trkpt lat="41.4483296" lon="13.1831543"><ele>96.99999999999999</ele><time>2026-03-25T10:50:50.961Z</time></trkpt><trkpt lat="41.4483664" lon="13.183082"><ele>98.0</ele><time>2026-03-25T10:50:51.962Z</time></trkpt><trkpt lat="41.4484094" lon="13.1830152"><ele>98.66666666666666</ele><time>2026-03-25T10:50:52.96Z</time></trkpt><trkpt lat="41.448453" lon="13.1829359"><ele>99.33333333333333</ele><time>2026-03-25T10:50:53.959Z</time></trkpt><trkpt lat="41.4485234" lon="13.1828394"><ele>100.0</ele><time>2026-03-25T10:50:55.962Z</time></trkpt><trkpt lat="41.4484735" lon="13.1827023"><ele>100.66666666666666</ele><time>2026-03-25T10:50:58.985Z</time></trkpt><trkpt lat="41.4484284" lon="13.1826355"><ele>101.33333333333333</ele><time>2026-03-25T10:50:59.973Z</time></trkpt><trkpt lat="41.4483807" lon="13.1825706"><ele>102.0</ele><time>2026-03-25T10:51:00.964Z</time></trkpt><trkpt lat="41.448328" lon="13.1824899"><ele>102.0</ele><time>2026-03-25T10:51:01.966Z</time></trkpt><trkpt lat="41.448271" lon="13.182403"><ele>102.0</ele><time>2026-03-25T10:51:02.959Z</time></trkpt><trkpt lat="41.4482122" lon="13.1823158"><ele>102.0</ele><time>2026-03-25T10:51:03.973Z</time></trkpt><trkpt lat="41.4481608" lon="13.1822271"><ele>102.0</ele><time>2026-03-25T10:51:04.959Z</time></trkpt><trkpt lat="41.4481097" lon="13.1821365"><ele>102.0</ele><time>2026-03-25T10:51:05.958Z</time></trkpt><trkpt lat="41.4480654" lon="13.1820543"><ele>102.0</ele><time>2026-03-25T10:51:06.965Z</time></trkpt><trkpt lat="41.4480244" lon="13.1819836"><ele>101.66666666666667</ele><time>2026-03-25T10:51:07.967Z</time></trkpt><trkpt lat="41.4479766" lon="13.1819185"><ele>101.33333333333334</ele><time>2026-03-25T10:51:08.964Z</time></trkpt><trkpt lat="41.4479159" lon="13.1818624"><ele>101.0</ele><time>2026-03-25T10:51:09.971Z</time></trkpt><trkpt lat="41.4478564" lon="13.181806"><ele>100.66666666666667</ele><time>2026-03-25T10:51:10.961Z</time></trkpt><trkpt lat="41.4477959" lon="13.1817528"><ele>100.33333333333334</ele><time>2026-03-25T10:51:11.958Z</time></trkpt><trkpt lat="41.4477236" lon="13.1816402"><ele>100.0</ele><time>2026-03-25T10:51:13.966Z</time></trkpt><trkpt lat="41.4477656" lon="13.1815375"><ele>100.2</ele><time>2026-03-25T10:51:15.96Z</time></trkpt><trkpt lat="41.4478486" lon="13.1814123"><ele>100.4</ele><time>2026-03-25T10:51:17.966Z</time></trkpt><trkpt lat="41.4478877" lon="13.1813182"><ele>100.6</ele><time>2026-03-25T10:51:18.966Z</time></trkpt><trkpt lat="41.4479131" lon="13.1812167"><ele>100.8</ele><time>2026-03-25T10:51:19.964Z</time></trkpt><trkpt lat="41.4479193" lon="13.1811205"><ele>101.0</ele><time>2026-03-25T10:51:20.967Z</time></trkpt><trkpt lat="41.44787" lon="13.1809697"><ele>100.99999999999999</ele><time>2026-03-25T10:51:22.968Z</time></trkpt><trkpt lat="41.4478083" lon="13.1808864"><ele>101.0</ele><time>2026-03-25T10:51:23.964Z</time></trkpt><trkpt lat="41.4477446" lon="13.1807929"><ele>101.0</ele><time>2026-03-25T10:51:24.968Z</time></trkpt><trkpt lat="41.4476863" lon="13.180694"><ele>101.0</ele><time>2026-03-25T10:51:25.972Z</time></trkpt><trkpt lat="41.4476306" lon="13.1806077"><ele>100.99999999999999</ele><time>2026-03-25T10:51:26.961Z</time></trkpt><trkpt lat="41.4475881" lon="13.1805344"><ele>101.0</ele><time>2026-03-25T10:51:27.968Z</time></trkpt><trkpt lat="41.4475605" lon="13.1804052"><ele>100.6</ele><time>2026-03-25T10:51:29.958Z</time></trkpt><trkpt lat="41.4476526" lon="13.1803049"><ele>100.19999999999999</ele><time>2026-03-25T10:51:31.964Z</time></trkpt><trkpt lat="41.4477143" lon="13.180231"><ele>99.80000000000001</ele><time>2026-03-25T10:51:32.964Z</time></trkpt><trkpt lat="41.4478044" lon="13.180119"><ele>99.4</ele><time>2026-03-25T10:51:33.964Z</time></trkpt><trkpt lat="41.4478969" lon="13.1800098"><ele>99.0</ele><time>2026-03-25T10:51:34.961Z</time></trkpt><trkpt lat="41.4480015" lon="13.1798927"><ele>100.75</ele><time>2026-03-25T10:51:35.957Z</time></trkpt><trkpt lat="41.4481377" lon="13.1798134"><ele>102.5</ele><time>2026-03-25T10:51:36.961Z</time></trkpt><trkpt lat="41.448276" lon="13.1797742"><ele>104.25</ele><time>2026-03-25T10:51:37.963Z</time></trkpt><trkpt lat="41.4484139" lon="13.1797946"><ele>106.0</ele><time>2026-03-25T10:51:38.963Z</time></trkpt><trkpt lat="41.4485302" lon="13.1798425"><ele>106.75</ele><time>2026-03-25T10:51:39.965Z</time></trkpt><trkpt lat="41.4486402" lon="13.1799327"><ele>107.5</ele><time>2026-03-25T10:51:40.974Z</time></trkpt><trkpt lat="41.4487556" lon="13.1800319"><ele>108.25</ele><time>2026-03-25T10:51:41.961Z</time></trkpt><trkpt lat="41.4488584" lon="13.1801449"><ele>109.0</ele><time>2026-03-25T10:51:42.975Z</time></trkpt><trkpt lat="41.4489504" lon="13.1802765"><ele>110.25</ele><time>2026-03-25T10:51:43.959Z</time></trkpt><trkpt lat="41.4490494" lon="13.1804166"><ele>111.5</ele><time>2026-03-25T10:51:44.965Z</time></trkpt><trkpt lat="41.4491489" lon="13.1805673"><ele>112.75</ele><time>2026-03-25T10:51:45.97Z</time></trkpt><trkpt lat="41.4492445" lon="13.180712"><ele>114.0</ele><time>2026-03-25T10:51:46.958Z</time></trkpt><trkpt lat="41.4493289" lon="13.1808529"><ele>114.0</ele><time>2026-03-25T10:51:47.974Z</time></trkpt><trkpt lat="41.4494032" lon="13.1809968"><ele>114.0</ele><time>2026-03-25T10:51:48.973Z</time></trkpt><trkpt lat="41.4494761" lon="13.1811443"><ele>114.0</ele><time>2026-03-25T10:51:49.974Z</time></trkpt><trkpt lat="41.4495451" lon="13.1812969"><ele>114.0</ele><time>2026-03-25T10:51:50.97Z</time></trkpt><trkpt lat="41.4496163" lon="13.1814476"><ele>114.5</ele><time>2026-03-25T10:51:51.968Z</time></trkpt><trkpt lat="41.4497028" lon="13.1815916"><ele>115.0</ele><time>2026-03-25T10:51:52.965Z</time></trkpt><trkpt lat="41.4497877" lon="13.1817235"><ele>115.5</ele><time>2026-03-25T10:51:53.967Z</time></trkpt><trkpt lat="41.4498627" lon="13.1818425"><ele>116.0</ele><time>2026-03-25T10:51:54.971Z</time></trkpt><trkpt lat="41.4499264" lon="13.1819441"><ele>115.99999999999999</ele><time>2026-03-25T10:51:55.961Z</time></trkpt><trkpt lat="41.4499897" lon="13.1820417"><ele>116.0</ele><time>2026-03-25T10:51:56.971Z</time></trkpt><trkpt lat="41.4500587" lon="13.1821061"><ele>116.0</ele><time>2026-03-25T10:51:57.966Z</time></trkpt><trkpt lat="41.4501408" lon="13.1821412"><ele>116.0</ele><time>2026-03-25T10:51:58.972Z</time></trkpt><trkpt lat="41.450228" lon="13.182176"><ele>115.99999999999999</ele><time>2026-03-25T10:51:59.966Z</time></trkpt><trkpt lat="41.4503136" lon="13.1822121"><ele>116.0</ele><time>2026-03-25T10:52:00.964Z</time></trkpt><trkpt lat="41.4504021" lon="13.1822435"><ele>118.19999999999999</ele><time>2026-03-25T10:52:01.972Z</time></trkpt><trkpt lat="41.450501" lon="13.182229"><ele>120.39999999999999</ele><time>2026-03-25T10:52:02.959Z</time></trkpt><trkpt lat="41.4506058" lon="13.1821865"><ele>122.6</ele><time>2026-03-25T10:52:03.967Z</time></trkpt><trkpt lat="41.4506985" lon="13.1821429"><ele>124.8</ele><time>2026-03-25T10:52:04.956Z</time></trkpt><trkpt lat="41.4507855" lon="13.1820987"><ele>127.0</ele><time>2026-03-25T10:52:05.962Z</time></trkpt><trkpt lat="41.4508506" lon="13.1820602"><ele>127.00000000000001</ele><time>2026-03-25T10:52:06.966Z</time></trkpt><trkpt lat="41.4509315" lon="13.181952"><ele>127.0</ele><time>2026-03-25T10:52:08.971Z</time></trkpt><trkpt lat="41.4509442" lon="13.1818554"><ele>127.0</ele><time>2026-03-25T10:52:09.957Z</time></trkpt><trkpt lat="41.4509605" lon="13.1817557"><ele>127.0</ele><time>2026-03-25T10:52:10.966Z</time></trkpt><trkpt lat="41.4510066" lon="13.1816585"><ele>127.00000000000001</ele><time>2026-03-25T10:52:12.97Z</time></trkpt><trkpt lat="41.4510625" lon="13.1815908"><ele>127.0</ele><time>2026-03-25T10:52:16.962Z</time></trkpt><trkpt lat="41.4511632" lon="13.1814824"><ele>128.33333333333334</ele><time>2026-03-25T10:52:18.964Z</time></trkpt><trkpt lat="41.451237" lon="13.1814276"><ele>129.66666666666669</ele><time>2026-03-25T10:52:19.969Z</time></trkpt><trkpt lat="41.4513169" lon="13.1813731"><ele>131.0</ele><time>2026-03-25T10:52:20.973Z</time></trkpt><trkpt lat="41.4513997" lon="13.181345"><ele>132.33333333333334</ele><time>2026-03-25T10:52:21.964Z</time></trkpt><trkpt lat="41.45148" lon="13.1813419"><ele>133.66666666666666</ele><time>2026-03-25T10:52:22.972Z</time></trkpt><trkpt lat="41.4515703" lon="13.1813699"><ele>135.0</ele><time>2026-03-25T10:52:23.964Z</time></trkpt><trkpt lat="41.4516542" lon="13.1814068"><ele>137.0</ele><time>2026-03-25T10:52:24.964Z</time></trkpt><trkpt lat="41.4517294" lon="13.1814241"><ele>139.0</ele><time>2026-03-25T10:52:25.963Z</time></trkpt><trkpt lat="41.4518055" lon="13.1813977"><ele>141.0</ele><time>2026-03-25T10:52:26.969Z</time></trkpt><trkpt lat="41.4518838" lon="13.1813324"><ele>143.0</ele><time>2026-03-25T10:52:27.964Z</time></trkpt><trkpt lat="41.4519803" lon="13.181269"><ele>145.0</ele><time>2026-03-25T10:52:28.963Z</time></trkpt><trkpt lat="41.4520743" lon="13.1812249"><ele>144.4</ele><time>2026-03-25T10:52:29.963Z</time></trkpt><trkpt lat="41.4521517" lon="13.1812028"><ele>143.8</ele><time>2026-03-25T10:52:30.967Z</time></trkpt><trkpt lat="41.4522321" lon="13.1811847"><ele>143.2</ele><time>2026-03-25T10:52:31.965Z</time></trkpt><trkpt lat="41.4523264" lon="13.1811883"><ele>142.6</ele><time>2026-03-25T10:52:32.965Z</time></trkpt><trkpt lat="41.452429" lon="13.1812364"><ele>142.0</ele><time>2026-03-25T10:52:33.969Z</time></trkpt><trkpt lat="41.4525046" lon="13.1813176"><ele>142.0</ele><time>2026-03-25T10:52:34.962Z</time></trkpt><trkpt lat="41.452584" lon="13.1814141"><ele>142.0</ele><time>2026-03-25T10:52:35.966Z</time></trkpt><trkpt lat="41.452662" lon="13.1815069"><ele>142.0</ele><time>2026-03-25T10:52:36.963Z</time></trkpt><trkpt lat="41.4527392" lon="13.1816191"><ele>142.0</ele><time>2026-03-25T10:52:37.963Z</time></trkpt><trkpt lat="41.4528256" lon="13.1817314"><ele>142.0</ele><time>2026-03-25T10:52:38.956Z</time></trkpt><trkpt lat="41.4529179" lon="13.1818388"><ele>141.5</ele><time>2026-03-25T10:52:39.958Z</time></trkpt><trkpt lat="41.4530206" lon="13.1819246"><ele>141.0</ele><time>2026-03-25T10:52:40.965Z</time></trkpt><trkpt lat="41.4531336" lon="13.1820015"><ele>140.5</ele><time>2026-03-25T10:52:41.957Z</time></trkpt><trkpt lat="41.4532619" lon="13.1820846"><ele>140.0</ele><time>2026-03-25T10:52:42.966Z</time></trkpt><trkpt lat="41.4533681" lon="13.1821539"><ele>140.0</ele><time>2026-03-25T10:52:43.964Z</time></trkpt><trkpt lat="41.4534504" lon="13.1821931"><ele>140.0</ele><time>2026-03-25T10:52:44.963Z</time></trkpt><trkpt lat="41.4535095" lon="13.1822259"><ele>140.0</ele><time>2026-03-25T10:52:45.963Z</time></trkpt><trkpt lat="41.4535835" lon="13.1822863"><ele>140.0</ele><time>2026-03-25T10:52:47.964Z</time></trkpt><trkpt lat="41.453624" lon="13.18236"><ele>140.0</ele><time>2026-03-25T10:52:49.974Z</time></trkpt><trkpt lat="41.4536396" lon="13.1824848"><ele>140.0</ele><time>2026-03-25T10:52:51.964Z</time></trkpt><trkpt lat="41.4536204" lon="13.1826164"><ele>138.0</ele><time>2026-03-25T10:52:53.964Z</time></trkpt><trkpt lat="41.4536322" lon="13.1827458"><ele>136.0</ele><time>2026-03-25T10:52:55.98Z</time></trkpt><trkpt lat="41.4536796" lon="13.1828593"><ele>134.0</ele><time>2026-03-25T10:52:57.957Z</time></trkpt><trkpt lat="41.4536826" lon="13.1829611"><ele>132.0</ele><time>2026-03-25T10:52:59.964Z</time></trkpt><trkpt lat="41.4536482" lon="13.1830606"><ele>130.0</ele><time>2026-03-25T10:53:02.968Z</time></trkpt><trkpt lat="41.4535868" lon="13.1831149"><ele>128.0</ele><time>2026-03-25T10:53:04.966Z</time></trkpt><trkpt lat="41.4535349" lon="13.1831897"><ele>125.33333333333333</ele><time>2026-03-25T10:53:06.96Z</time></trkpt><trkpt lat="41.4534787" lon="13.183286"><ele>122.66666666666666</ele><time>2026-03-25T10:53:08.972Z</time></trkpt><trkpt lat="41.4534289" lon="13.1833996"><ele>120.0</ele><time>2026-03-25T10:53:10.963Z</time></trkpt><trkpt lat="41.4533785" lon="13.1834756"><ele>117.33333333333334</ele><time>2026-03-25T10:53:12.962Z</time></trkpt><trkpt lat="41.4533046" lon="13.1835351"><ele>114.66666666666667</ele><time>2026-03-25T10:53:14.97Z</time></trkpt><trkpt lat="41.4532211" lon="13.1835888"><ele>112.0</ele><time>2026-03-25T10:53:16.966Z</time></trkpt><trkpt lat="41.453126" lon="13.183619"><ele>112.00000000000001</ele><time>2026-03-25T10:53:18.959Z</time></trkpt><trkpt lat="41.4530578" lon="13.1836506"><ele>112.0</ele><time>2026-03-25T10:53:19.962Z</time></trkpt><trkpt lat="41.4529763" lon="13.1836968"><ele>112.0</ele><time>2026-03-25T10:53:20.965Z</time></trkpt><trkpt lat="41.4528923" lon="13.183742"><ele>112.0</ele><time>2026-03-25T10:53:21.963Z</time></trkpt><trkpt lat="41.4528135" lon="13.1837747"><ele>112.00000000000001</ele><time>2026-03-25T10:53:22.965Z</time></trkpt><trkpt lat="41.4527261" lon="13.1838105"><ele>112.0</ele><time>2026-03-25T10:53:24.968Z</time></trkpt><trkpt lat="41.4526658" lon="13.1838412"><ele>110.16666666666667</ele><time>2026-03-25T10:53:25.973Z</time></trkpt><trkpt lat="41.4525837" lon="13.183866"><ele>108.33333333333334</ele><time>2026-03-25T10:53:26.955Z</time></trkpt><trkpt lat="41.4525057" lon="13.1838879"><ele>106.5</ele><time>2026-03-25T10:53:27.962Z</time></trkpt><trkpt lat="41.4524409" lon="13.1839125"><ele>104.66666666666666</ele><time>2026-03-25T10:53:28.964Z</time></trkpt><trkpt lat="41.4523414" lon="13.1839597"><ele>102.83333333333333</ele><time>2026-03-25T10:53:30.965Z</time></trkpt><trkpt lat="41.4522713" lon="13.1839325"><ele>101.0</ele><time>2026-03-25T10:53:32.967Z</time></trkpt><trkpt lat="41.4521759" lon="13.1838224"><ele>101.49999999999999</ele><time>2026-03-25T10:53:34.973Z</time></trkpt><trkpt lat="41.4521168" lon="13.1837611"><ele>102.0</ele><time>2026-03-25T10:53:35.969Z</time></trkpt><trkpt lat="41.4520516" lon="13.1837259"><ele>102.5</ele><time>2026-03-25T10:53:36.961Z</time></trkpt><trkpt lat="41.4519215" lon="13.183747"><ele>103.0</ele><time>2026-03-25T10:53:38.965Z</time></trkpt><trkpt lat="41.451846" lon="13.1837795"><ele>103.49999999999999</ele><time>2026-03-25T10:53:39.959Z</time></trkpt><trkpt lat="41.4517819" lon="13.1838708"><ele>104.0</ele><time>2026-03-25T10:53:40.965Z</time></trkpt><trkpt lat="41.4517295" lon="13.1839935"><ele>101.80000000000001</ele><time>2026-03-25T10:53:41.972Z</time></trkpt><trkpt lat="41.4516981" lon="13.1841306"><ele>99.60000000000001</ele><time>2026-03-25T10:53:42.962Z</time></trkpt><trkpt lat="41.4516901" lon="13.1842718"><ele>97.4</ele><time>2026-03-25T10:53:43.971Z</time></trkpt><trkpt lat="41.4516834" lon="13.1844165"><ele>95.2</ele><time>2026-03-25T10:53:44.969Z</time></trkpt><trkpt lat="41.451692" lon="13.1845532"><ele>93.0</ele><time>2026-03-25T10:53:45.961Z</time></trkpt><trkpt lat="41.4516999" lon="13.1846957"><ele>93.0</ele><time>2026-03-25T10:53:46.969Z</time></trkpt><trkpt lat="41.451706" lon="13.1848434"><ele>93.0</ele><time>2026-03-25T10:53:47.967Z</time></trkpt><trkpt lat="41.4517059" lon="13.1849916"><ele>93.0</ele><time>2026-03-25T10:53:48.978Z</time></trkpt><trkpt lat="41.4516965" lon="13.1851476"><ele>93.0</ele><time>2026-03-25T10:53:49.955Z</time></trkpt><trkpt lat="41.4516879" lon="13.1852987"><ele>93.0</ele><time>2026-03-25T10:53:50.964Z</time></trkpt><trkpt lat="41.451651" lon="13.1854381"><ele>93.0</ele><time>2026-03-25T10:53:51.959Z</time></trkpt><trkpt lat="41.4516107" lon="13.1855723"><ele>93.0</ele><time>2026-03-25T10:53:52.961Z</time></trkpt><trkpt lat="41.4515699" lon="13.1857075"><ele>93.0</ele><time>2026-03-25T10:53:53.963Z</time></trkpt><trkpt lat="41.4515363" lon="13.1858251"><ele>93.0</ele><time>2026-03-25T10:53:54.961Z</time></trkpt><trkpt lat="41.451509" lon="13.1859152"><ele>94.2</ele><time>2026-03-25T10:53:55.976Z</time></trkpt><trkpt lat="41.4514396" lon="13.1860147"><ele>95.4</ele><time>2026-03-25T10:53:57.967Z</time></trkpt><trkpt lat="41.4513005" lon="13.1859933"><ele>96.60000000000001</ele><time>2026-03-25T10:53:59.97Z</time></trkpt><trkpt lat="41.4512066" lon="13.1859574"><ele>97.80000000000001</ele><time>2026-03-25T10:54:00.962Z</time></trkpt><trkpt lat="41.4511066" lon="13.1859091"><ele>99.0</ele><time>2026-03-25T10:54:01.977Z</time></trkpt><trkpt lat="41.4510116" lon="13.1858409"><ele>99.4</ele><time>2026-03-25T10:54:02.96Z</time></trkpt><trkpt lat="41.4509065" lon="13.1857777"><ele>99.80000000000001</ele><time>2026-03-25T10:54:03.969Z</time></trkpt><trkpt lat="41.4508036" lon="13.1857163"><ele>100.19999999999999</ele><time>2026-03-25T10:54:04.967Z</time></trkpt><trkpt lat="41.4507293" lon="13.1856857"><ele>100.6</ele><time>2026-03-25T10:54:05.967Z</time></trkpt><trkpt lat="41.4506483" lon="13.1857052"><ele>101.0</ele><time>2026-03-25T10:54:50.969Z</time></trkpt><trkpt lat="41.4507096" lon="13.1856618"><ele>100.99999999999999</ele><time>2026-03-25T10:54:59.961Z</time></trkpt><trkpt lat="41.4507043" lon="13.1855685"><ele>101.0</ele><time>2026-03-25T10:55:03.961Z</time></trkpt><trkpt lat="41.4506911" lon="13.1854264"><ele>101.0</ele><time>2026-03-25T10:55:07.964Z</time></trkpt><trkpt lat="41.4506871" lon="13.1852992"><ele>101.0</ele><time>2026-03-25T10:55:09.985Z</time></trkpt><trkpt lat="41.4506993" lon="13.1852042"><ele>100.99999999999999</ele><time>2026-03-25T10:55:11.964Z</time></trkpt><trkpt lat="41.450728" lon="13.1850837"><ele>101.0</ele><time>2026-03-25T10:55:13.973Z</time></trkpt><trkpt lat="41.4507799" lon="13.1849552"><ele>102.19999999999999</ele><time>2026-03-25T10:55:15.959Z</time></trkpt><trkpt lat="41.4508437" lon="13.1848397"><ele>103.39999999999999</ele><time>2026-03-25T10:55:17.959Z</time></trkpt><trkpt lat="41.4509288" lon="13.1847541"><ele>104.6</ele><time>2026-03-25T10:55:19.964Z</time></trkpt><trkpt lat="41.4510305" lon="13.1847394"><ele>105.8</ele><time>2026-03-25T10:55:21.969Z</time></trkpt><trkpt lat="41.4511111" lon="13.1846841"><ele>107.0</ele><time>2026-03-25T10:55:23.966Z</time></trkpt><trkpt lat="41.4511703" lon="13.1845565"><ele>106.99999999999999</ele><time>2026-03-25T10:55:25.964Z</time></trkpt><trkpt lat="41.4511981" lon="13.1844805"><ele>107.0</ele><time>2026-03-25T10:55:26.959Z</time></trkpt><trkpt lat="41.4512328" lon="13.1844058"><ele>107.0</ele><time>2026-03-25T10:55:27.967Z</time></trkpt><trkpt lat="41.4512688" lon="13.1843262"><ele>107.0</ele><time>2026-03-25T10:55:28.964Z</time></trkpt><trkpt lat="41.4513359" lon="13.1842157"><ele>106.99999999999999</ele><time>2026-03-25T10:55:30.963Z</time></trkpt><trkpt lat="41.4514102" lon="13.1841598"><ele>107.0</ele><time>2026-03-25T10:55:32.963Z</time></trkpt><trkpt lat="41.4514725" lon="13.184106"><ele>106.39999999999999</ele><time>2026-03-25T10:55:34.98Z</time></trkpt><trkpt lat="41.451524" lon="13.1839896"><ele>105.79999999999998</ele><time>2026-03-25T10:55:37.956Z</time></trkpt><trkpt lat="41.4515635" lon="13.1838995"><ele>105.2</ele><time>2026-03-25T10:55:39.968Z</time></trkpt><trkpt lat="41.4516497" lon="13.183802"><ele>104.6</ele><time>2026-03-25T10:55:41.957Z</time></trkpt><trkpt lat="41.4517476" lon="13.1837253"><ele>104.0</ele><time>2026-03-25T10:55:43.965Z</time></trkpt><trkpt lat="41.4518148" lon="13.1836968"><ele>104.0</ele><time>2026-03-25T10:55:45.973Z</time></trkpt><trkpt lat="41.4518845" lon="13.1837201"><ele>104.0</ele><time>2026-03-25T10:55:49.962Z</time></trkpt><trkpt lat="41.4518547" lon="13.1838037"><ele>104.0</ele><time>2026-03-25T10:55:52.96Z</time></trkpt><trkpt lat="41.4517804" lon="13.1838626"><ele>104.0</ele><time>2026-03-25T10:55:54.963Z</time></trkpt><trkpt lat="41.4517275" lon="13.1839107"><ele>104.0</ele><time>2026-03-25T10:55:56.965Z</time></trkpt><trkpt lat="41.451658" lon="13.1839561"><ele>104.0</ele><time>2026-03-25T10:55:59.967Z</time></trkpt><trkpt lat="41.4515852" lon="13.1839875"><ele>104.0</ele><time>2026-03-25T10:56:02.971Z</time></trkpt><trkpt lat="41.4515547" lon="13.1840867"><ele>104.49999999999999</ele><time>2026-03-25T10:56:05.971Z</time></trkpt><trkpt lat="41.451493" lon="13.1841405"><ele>105.0</ele><time>2026-03-25T10:56:08.968Z</time></trkpt><trkpt lat="41.4514156" lon="13.1841595"><ele>105.5</ele><time>2026-03-25T10:56:11.967Z</time></trkpt><trkpt lat="41.4513494" lon="13.1841989"><ele>106.0</ele><time>2026-03-25T10:56:13.97Z</time></trkpt><trkpt lat="41.4512905" lon="13.1842349"><ele>106.49999999999999</ele><time>2026-03-25T10:56:15.976Z</time></trkpt><trkpt lat="41.4512304" lon="13.1843181"><ele>107.0</ele><time>2026-03-25T10:56:18.966Z</time></trkpt><trkpt lat="41.451199" lon="13.1844382"><ele>107.0</ele><time>2026-03-25T10:56:20.969Z</time></trkpt><trkpt lat="41.4511486" lon="13.184587"><ele>106.99999999999999</ele><time>2026-03-25T10:56:22.978Z</time></trkpt><trkpt lat="41.451108" lon="13.1846821"><ele>106.99999999999999</ele><time>2026-03-25T10:56:23.978Z</time></trkpt><trkpt lat="41.451065" lon="13.1847696"><ele>107.0</ele><time>2026-03-25T10:56:24.962Z</time></trkpt><trkpt lat="41.4510183" lon="13.1848676"><ele>107.0</ele><time>2026-03-25T10:56:25.976Z</time></trkpt><trkpt lat="41.4509665" lon="13.1849749"><ele>105.8</ele><time>2026-03-25T10:56:26.962Z</time></trkpt><trkpt lat="41.4509177" lon="13.1850642"><ele>104.6</ele><time>2026-03-25T10:56:27.968Z</time></trkpt><trkpt lat="41.4508942" lon="13.1851819"><ele>103.39999999999999</ele><time>2026-03-25T10:56:29.964Z</time></trkpt><trkpt lat="41.4509251" lon="13.1852979"><ele>102.19999999999999</ele><time>2026-03-25T10:56:31.967Z</time></trkpt><trkpt lat="41.4509988" lon="13.1854336"><ele>101.0</ele><time>2026-03-25T10:56:33.958Z</time></trkpt><trkpt lat="41.4510444" lon="13.185504"><ele>100.99999999999999</ele><time>2026-03-25T10:56:34.962Z</time></trkpt><trkpt lat="41.4511125" lon="13.1855454"><ele>101.0</ele><time>2026-03-25T10:56:35.963Z</time></trkpt><trkpt lat="41.4511821" lon="13.1855645"><ele>101.0</ele><time>2026-03-25T10:56:36.966Z</time></trkpt><trkpt lat="41.4512881" lon="13.1855345"><ele>101.0</ele><time>2026-03-25T10:56:38.969Z</time></trkpt><trkpt lat="41.4513257" lon="13.185457"><ele>100.99999999999999</ele><time>2026-03-25T10:56:39.967Z</time></trkpt><trkpt lat="41.4513653" lon="13.1853665"><ele>101.0</ele><time>2026-03-25T10:56:40.969Z</time></trkpt><trkpt lat="41.4513919" lon="13.1852632"><ele>99.66666666666666</ele><time>2026-03-25T10:56:41.962Z</time></trkpt><trkpt lat="41.4514142" lon="13.1851707"><ele>98.33333333333333</ele><time>2026-03-25T10:56:42.967Z</time></trkpt><trkpt lat="41.4514384" lon="13.1850917"><ele>97.0</ele><time>2026-03-25T10:56:43.964Z</time></trkpt><trkpt lat="41.4514816" lon="13.18496"><ele>95.66666666666666</ele><time>2026-03-25T10:56:45.974Z</time></trkpt><trkpt lat="41.45151" lon="13.1848715"><ele>94.33333333333333</ele><time>2026-03-25T10:56:46.964Z</time></trkpt><trkpt lat="41.4515259" lon="13.1847769"><ele>93.0</ele><time>2026-03-25T10:56:47.974Z</time></trkpt><trkpt lat="41.4515458" lon="13.1846649"><ele>93.0</ele><time>2026-03-25T10:56:48.961Z</time></trkpt><trkpt lat="41.4515633" lon="13.1845419"><ele>93.0</ele><time>2026-03-25T10:56:49.97Z</time></trkpt><trkpt lat="41.4515697" lon="13.1844332"><ele>93.0</ele><time>2026-03-25T10:56:50.962Z</time></trkpt><trkpt lat="41.4515657" lon="13.1843462"><ele>93.0</ele><time>2026-03-25T10:56:51.965Z</time></trkpt><trkpt lat="41.4515228" lon="13.1842295"><ele>93.0</ele><time>2026-03-25T10:56:53.961Z</time></trkpt><trkpt lat="41.4514445" lon="13.1841729"><ele>93.0</ele><time>2026-03-25T10:56:55.97Z</time></trkpt><trkpt lat="41.4513464" lon="13.1842064"><ele>95.80000000000001</ele><time>2026-03-25T10:56:57.967Z</time></trkpt><trkpt lat="41.4512684" lon="13.1842937"><ele>98.6</ele><time>2026-03-25T10:56:59.969Z</time></trkpt><trkpt lat="41.4512193" lon="13.1843984"><ele>101.39999999999999</ele><time>2026-03-25T10:57:01.975Z</time></trkpt><trkpt lat="41.451165" lon="13.1845203"><ele>104.19999999999999</ele><time>2026-03-25T10:57:03.958Z</time></trkpt><trkpt lat="41.4510927" lon="13.184662"><ele>107.0</ele><time>2026-03-25T10:57:05.962Z</time></trkpt><trkpt lat="41.4510532" lon="13.1847313"><ele>107.0</ele><time>2026-03-25T10:57:06.963Z</time></trkpt><trkpt lat="41.450979" lon="13.1848406"><ele>106.99999999999999</ele><time>2026-03-25T10:57:08.957Z</time></trkpt><trkpt lat="41.4509087" lon="13.1849391"><ele>106.99999999999999</ele><time>2026-03-25T10:57:10.958Z</time></trkpt><trkpt lat="41.4508376" lon="13.1850398"><ele>107.0</ele><time>2026-03-25T10:57:12.96Z</time></trkpt><trkpt lat="41.4507754" lon="13.1851441"><ele>107.0</ele><time>2026-03-25T10:57:14.964Z</time></trkpt><trkpt lat="41.4507286" lon="13.1852688"><ele>106.66666666666666</ele><time>2026-03-25T10:57:16.967Z</time></trkpt><trkpt lat="41.4506997" lon="13.1854102"><ele>106.33333333333333</ele><time>2026-03-25T10:57:18.967Z</time></trkpt><trkpt lat="41.4507006" lon="13.1855004"><ele>106.0</ele><time>2026-03-25T10:57:19.964Z</time></trkpt><trkpt lat="41.4507009" lon="13.1856246"><ele>105.66666666666666</ele><time>2026-03-25T10:57:21.96Z</time></trkpt><trkpt lat="41.450677" lon="13.1857196"><ele>105.33333333333333</ele><time>2026-03-25T10:57:23.969Z</time></trkpt><trkpt lat="41.4506027" lon="13.1857323"><ele>105.0</ele><time>2026-03-25T10:57:26.965Z</time></trkpt><trkpt lat="41.4505388" lon="13.1856764"><ele>105.0</ele><time>2026-03-25T10:57:35.977Z</time></trkpt><trkpt lat="41.4504619" lon="13.1856437"><ele>105.0</ele><time>2026-03-25T10:57:37.973Z</time></trkpt><trkpt lat="41.4503825" lon="13.1856018"><ele>105.0</ele><time>2026-03-25T10:57:39.965Z</time></trkpt><trkpt lat="41.4502793" lon="13.1855578"><ele>105.0</ele><time>2026-03-25T10:57:41.971Z</time></trkpt><trkpt lat="41.450159" lon="13.1856123"><ele>105.0</ele><time>2026-03-25T10:57:43.968Z</time></trkpt><trkpt lat="41.4500936" lon="13.1856487"><ele>104.33333333333333</ele><time>2026-03-25T10:57:44.961Z</time></trkpt><trkpt lat="41.450019" lon="13.1856844"><ele>103.66666666666666</ele><time>2026-03-25T10:57:45.965Z</time></trkpt><trkpt lat="41.4499365" lon="13.185717"><ele>103.0</ele><time>2026-03-25T10:57:46.959Z</time></trkpt><trkpt lat="41.4498666" lon="13.1857489"><ele>102.33333333333333</ele><time>2026-03-25T10:57:47.966Z</time></trkpt><trkpt lat="41.4498006" lon="13.1857796"><ele>101.66666666666666</ele><time>2026-03-25T10:57:48.963Z</time></trkpt><trkpt lat="41.4497409" lon="13.1858079"><ele>101.0</ele><time>2026-03-25T10:57:49.964Z</time></trkpt><trkpt lat="41.4496528" lon="13.1858148"><ele>100.16666666666666</ele><time>2026-03-25T10:57:51.96Z</time></trkpt><trkpt lat="41.4495762" lon="13.1857162"><ele>99.33333333333333</ele><time>2026-03-25T10:57:53.974Z</time></trkpt><trkpt lat="41.4495282" lon="13.1856399"><ele>98.5</ele><time>2026-03-25T10:57:54.959Z</time></trkpt><trkpt lat="41.4494839" lon="13.1855746"><ele>97.66666666666666</ele><time>2026-03-25T10:57:55.966Z</time></trkpt><trkpt lat="41.4494" lon="13.1854875"><ele>96.83333333333333</ele><time>2026-03-25T10:57:57.964Z</time></trkpt><trkpt lat="41.4493289" lon="13.1854275"><ele>96.0</ele><time>2026-03-25T10:57:59.961Z</time></trkpt><trkpt lat="41.4492734" lon="13.1853476"><ele>96.0</ele><time>2026-03-25T10:58:01.962Z</time></trkpt><trkpt lat="41.4492235" lon="13.1852043"><ele>96.0</ele><time>2026-03-25T10:58:03.966Z</time></trkpt><trkpt lat="41.449201" lon="13.1851155"><ele>96.0</ele><time>2026-03-25T10:58:04.97Z</time></trkpt><trkpt lat="41.4491777" lon="13.1850307"><ele>96.0</ele><time>2026-03-25T10:58:05.961Z</time></trkpt><trkpt lat="41.449149" lon="13.1849486"><ele>96.0</ele><time>2026-03-25T10:58:06.961Z</time></trkpt><trkpt lat="41.4491131" lon="13.1848536"><ele>96.0</ele><time>2026-03-25T10:58:07.959Z</time></trkpt><trkpt lat="41.4490762" lon="13.1847552"><ele>96.4</ele><time>2026-03-25T10:58:08.965Z</time></trkpt><trkpt lat="41.4490355" lon="13.1846589"><ele>96.8</ele><time>2026-03-25T10:58:09.962Z</time></trkpt><trkpt lat="41.4489816" lon="13.1845536"><ele>97.2</ele><time>2026-03-25T10:58:10.966Z</time></trkpt><trkpt lat="41.4489221" lon="13.1844503"><ele>97.60000000000001</ele><time>2026-03-25T10:58:11.959Z</time></trkpt><trkpt lat="41.4488545" lon="13.1843474"><ele>98.0</ele><time>2026-03-25T10:58:12.977Z</time></trkpt><trkpt lat="41.4487805" lon="13.1842531"><ele>98.0</ele><time>2026-03-25T10:58:13.965Z</time></trkpt><trkpt lat="41.448699" lon="13.184161"><ele>98.0</ele><time>2026-03-25T10:58:14.967Z</time></trkpt><trkpt lat="41.4486165" lon="13.1840734"><ele>98.0</ele><time>2026-03-25T10:58:15.965Z</time></trkpt><trkpt lat="41.4485345" lon="13.1839873"><ele>98.0</ele><time>2026-03-25T10:58:16.97Z</time></trkpt><trkpt lat="41.4484516" lon="13.1839023"><ele>98.0</ele><time>2026-03-25T10:58:17.968Z</time></trkpt><trkpt lat="41.4483666" lon="13.1838216"><ele>98.0</ele><time>2026-03-25T10:58:18.969Z</time></trkpt><trkpt lat="41.4482811" lon="13.1837427"><ele>98.0</ele><time>2026-03-25T10:58:19.962Z</time></trkpt><trkpt lat="41.4481955" lon="13.1836644"><ele>98.0</ele><time>2026-03-25T10:58:20.959Z</time></trkpt><trkpt lat="41.4481132" lon="13.1835851"><ele>98.0</ele><time>2026-03-25T10:58:21.96Z</time></trkpt><trkpt lat="41.4480281" lon="13.1835052"><ele>98.0</ele><time>2026-03-25T10:58:22.961Z</time></trkpt><trkpt lat="41.4479417" lon="13.1834249"><ele>97.4</ele><time>2026-03-25T10:58:23.976Z</time></trkpt><trkpt lat="41.4478556" lon="13.1833399"><ele>96.80000000000001</ele><time>2026-03-25T10:58:24.957Z</time></trkpt><trkpt lat="41.4477678" lon="13.1832532"><ele>96.2</ele><time>2026-03-25T10:58:25.955Z</time></trkpt><trkpt lat="41.4476817" lon="13.1831708"><ele>95.6</ele><time>2026-03-25T10:58:26.97Z</time></trkpt><trkpt lat="41.4475983" lon="13.1830906"><ele>95.0</ele><time>2026-03-25T10:58:27.961Z</time></trkpt><trkpt lat="41.4475146" lon="13.1830094"><ele>95.0</ele><time>2026-03-25T10:58:28.966Z</time></trkpt><trkpt lat="41.4474328" lon="13.1829263"><ele>95.0</ele><time>2026-03-25T10:58:29.956Z</time></trkpt><trkpt lat="41.4473543" lon="13.1828488"><ele>95.0</ele><time>2026-03-25T10:58:30.977Z</time></trkpt><trkpt lat="41.4472789" lon="13.1827755"><ele>95.0</ele><time>2026-03-25T10:58:31.962Z</time></trkpt><trkpt lat="41.4472104" lon="13.1827101"><ele>95.0</ele><time>2026-03-25T10:58:32.963Z</time></trkpt><trkpt lat="41.4471596" lon="13.1826589"><ele>95.0</ele><time>2026-03-25T10:58:33.963Z</time></trkpt><trkpt lat="41.4470922" lon="13.1826029"><ele>95.0</ele><time>2026-03-25T10:58:35.968Z</time></trkpt><trkpt lat="41.4470392" lon="13.1826585"><ele>95.0</ele><time>2026-03-25T10:58:37.969Z</time></trkpt><trkpt lat="41.4469742" lon="13.1827909"><ele>95.0</ele><time>2026-03-25T10:58:39.963Z</time></trkpt><trkpt lat="41.4469554" lon="13.182885"><ele>95.0</ele><time>2026-03-25T10:58:40.963Z</time></trkpt><trkpt lat="41.4469422" lon="13.1829725"><ele>95.0</ele><time>2026-03-25T10:58:41.963Z</time></trkpt><trkpt lat="41.4469128" lon="13.1831297"><ele>95.0</ele><time>2026-03-25T10:58:43.962Z</time></trkpt><trkpt lat="41.4469082" lon="13.183226"><ele>95.0</ele><time>2026-03-25T10:58:44.96Z</time></trkpt><trkpt lat="41.4469218" lon="13.1833331"><ele>95.0</ele><time>2026-03-25T10:58:45.976Z</time></trkpt><trkpt lat="41.4469378" lon="13.183436"><ele>95.0</ele><time>2026-03-25T10:58:46.955Z</time></trkpt><trkpt lat="41.4469495" lon="13.1835406"><ele>95.0</ele><time>2026-03-25T10:58:47.963Z</time></trkpt><trkpt lat="41.4469611" lon="13.1836568"><ele>95.0</ele><time>2026-03-25T10:58:48.959Z</time></trkpt><trkpt lat="41.4469681" lon="13.1837563"><ele>95.0</ele><time>2026-03-25T10:58:49.964Z</time></trkpt><trkpt lat="41.4469747" lon="13.1838553"><ele>95.0</ele><time>2026-03-25T10:58:50.955Z</time></trkpt><trkpt lat="41.4469761" lon="13.1839565"><ele>95.0</ele><time>2026-03-25T10:58:51.969Z</time></trkpt><trkpt lat="41.4469791" lon="13.1840406"><ele>95.0</ele><time>2026-03-25T10:58:52.954Z</time></trkpt><trkpt lat="41.4469602" lon="13.1841501"><ele>95.0</ele><time>2026-03-25T10:58:55.963Z</time></trkpt><trkpt lat="41.4469329" lon="13.1842641"><ele>95.0</ele><time>2026-03-25T10:58:57.961Z</time></trkpt><trkpt lat="41.4469202" lon="13.1844025"><ele>95.0</ele><time>2026-03-25T10:58:59.967Z</time></trkpt><trkpt lat="41.4469411" lon="13.1845162"><ele>95.0</ele><time>2026-03-25T10:59:01.974Z</time></trkpt><trkpt lat="41.4469645" lon="13.1846227"><ele>95.0</ele><time>2026-03-25T10:59:03.966Z</time></trkpt><trkpt lat="41.4469709" lon="13.1847559"><ele>95.0</ele><time>2026-03-25T10:59:06.97Z</time></trkpt><trkpt lat="41.4470015" lon="13.184853"><ele>95.0</ele><time>2026-03-25T10:59:08.966Z</time></trkpt><trkpt lat="41.4469776" lon="13.1849838"><ele>95.0</ele><time>2026-03-25T10:59:10.96Z</time></trkpt><trkpt lat="41.4469673" lon="13.1851239"><ele>94.2</ele><time>2026-03-25T10:59:12.96Z</time></trkpt><trkpt lat="41.4469055" lon="13.1852707"><ele>93.4</ele><time>2026-03-25T10:59:14.961Z</time></trkpt><trkpt lat="41.4468593" lon="13.1853584"><ele>92.6</ele><time>2026-03-25T10:59:15.963Z</time></trkpt><trkpt lat="41.4467717" lon="13.1854601"><ele>91.8</ele><time>2026-03-25T10:59:17.962Z</time></trkpt><trkpt lat="41.4467178" lon="13.1855062"><ele>91.0</ele><time>2026-03-25T10:59:18.965Z</time></trkpt><trkpt lat="41.4466649" lon="13.1855777"><ele>91.0</ele><time>2026-03-25T10:59:19.962Z</time></trkpt><trkpt lat="41.4466142" lon="13.1856393"><ele>91.0</ele><time>2026-03-25T10:59:20.962Z</time></trkpt><trkpt lat="41.4465203" lon="13.1857112"><ele>91.0</ele><time>2026-03-25T10:59:22.955Z</time></trkpt><trkpt lat="41.4464338" lon="13.1857395"><ele>91.0</ele><time>2026-03-25T10:59:24.963Z</time></trkpt><trkpt lat="41.4463777" lon="13.1858683"><ele>91.0</ele><time>2026-03-25T10:59:26.968Z</time></trkpt><trkpt lat="41.446362" lon="13.1859782"><ele>90.14285714285714</ele><time>2026-03-25T10:59:27.972Z</time></trkpt><trkpt lat="41.446335" lon="13.1860813"><ele>89.28571428571428</ele><time>2026-03-25T10:59:28.962Z</time></trkpt><trkpt lat="41.4462981" lon="13.1861706"><ele>88.42857142857143</ele><time>2026-03-25T10:59:29.963Z</time></trkpt><trkpt lat="41.4462654" lon="13.1862424"><ele>87.57142857142857</ele><time>2026-03-25T10:59:30.961Z</time></trkpt><trkpt lat="41.4462256" lon="13.1863077"><ele>86.71428571428571</ele><time>2026-03-25T10:59:31.958Z</time></trkpt><trkpt lat="41.4461829" lon="13.1864"><ele>85.85714285714286</ele><time>2026-03-25T10:59:32.965Z</time></trkpt><trkpt lat="41.4461415" lon="13.1864945"><ele>85.0</ele><time>2026-03-25T10:59:33.961Z</time></trkpt><trkpt lat="41.4460972" lon="13.1865949"><ele>83.57142857142857</ele><time>2026-03-25T10:59:34.963Z</time></trkpt><trkpt lat="41.4460589" lon="13.1866939"><ele>82.14285714285714</ele><time>2026-03-25T10:59:35.966Z</time></trkpt><trkpt lat="41.4460341" lon="13.1867911"><ele>80.71428571428571</ele><time>2026-03-25T10:59:36.962Z</time></trkpt><trkpt lat="41.4460234" lon="13.1868983"><ele>79.28571428571428</ele><time>2026-03-25T10:59:37.957Z</time></trkpt><trkpt lat="41.4460131" lon="13.1869905"><ele>77.85714285714286</ele><time>2026-03-25T10:59:38.96Z</time></trkpt><trkpt lat="41.4459933" lon="13.1870745"><ele>76.42857142857142</ele><time>2026-03-25T10:59:39.962Z</time></trkpt><trkpt lat="41.4459647" lon="13.187157"><ele>75.0</ele><time>2026-03-25T10:59:40.964Z</time></trkpt><trkpt lat="41.4459152" lon="13.1872418"><ele>75.0</ele><time>2026-03-25T10:59:41.966Z</time></trkpt><trkpt lat="41.4458638" lon="13.1873269"><ele>75.0</ele><time>2026-03-25T10:59:42.963Z</time></trkpt><trkpt lat="41.4458088" lon="13.1874041"><ele>75.0</ele><time>2026-03-25T10:59:43.961Z</time></trkpt><trkpt lat="41.445748" lon="13.1874754"><ele>75.0</ele><time>2026-03-25T10:59:44.956Z</time></trkpt><trkpt lat="41.4456717" lon="13.1875165"><ele>75.0</ele><time>2026-03-25T10:59:45.958Z</time></trkpt><trkpt lat="41.4455928" lon="13.1875406"><ele>75.0</ele><time>2026-03-25T10:59:46.964Z</time></trkpt><trkpt lat="41.4455024" lon="13.1875239"><ele>73.2</ele><time>2026-03-25T10:59:47.953Z</time></trkpt><trkpt lat="41.4454046" lon="13.1874997"><ele>71.4</ele><time>2026-03-25T10:59:48.975Z</time></trkpt><trkpt lat="41.4453017" lon="13.187506"><ele>69.6</ele><time>2026-03-25T10:59:49.96Z</time></trkpt><trkpt lat="41.4452015" lon="13.1875092"><ele>67.8</ele><time>2026-03-25T10:59:50.959Z</time></trkpt><trkpt lat="41.4451177" lon="13.1875082"><ele>66.0</ele><time>2026-03-25T10:59:51.971Z</time></trkpt><trkpt lat="41.4450374" lon="13.187511"><ele>66.0</ele><time>2026-03-25T10:59:52.961Z</time></trkpt><trkpt lat="41.4449509" lon="13.187519"><ele>66.0</ele><time>2026-03-25T10:59:53.963Z</time></trkpt><trkpt lat="41.4448507" lon="13.1875587"><ele>66.0</ele><time>2026-03-25T10:59:54.966Z</time></trkpt><trkpt lat="41.4447433" lon="13.1876032"><ele>66.0</ele><time>2026-03-25T10:59:55.962Z</time></trkpt><trkpt lat="41.4446435" lon="13.1876437"><ele>66.0</ele><time>2026-03-25T10:59:56.963Z</time></trkpt><trkpt lat="41.4445399" lon="13.1876847"><ele>66.0</ele><time>2026-03-25T10:59:57.965Z</time></trkpt><trkpt lat="41.4444291" lon="13.1877297"><ele>66.0</ele><time>2026-03-25T10:59:58.964Z</time></trkpt><trkpt lat="41.4443215" lon="13.187779"><ele>66.0</ele><time>2026-03-25T10:59:59.968Z</time></trkpt><trkpt lat="41.4442114" lon="13.1878192"><ele>66.0</ele><time>2026-03-25T11:00:00.959Z</time></trkpt><trkpt lat="41.4440916" lon="13.1878477"><ele>66.0</ele><time>2026-03-25T11:00:01.974Z</time></trkpt><trkpt lat="41.443995" lon="13.1878555"><ele>66.0</ele><time>2026-03-25T11:00:02.959Z</time></trkpt><trkpt lat="41.4439169" lon="13.1878454"><ele>66.0</ele><time>2026-03-25T11:00:03.967Z</time></trkpt><trkpt lat="41.4438335" lon="13.1878352"><ele>66.0</ele><time>2026-03-25T11:00:04.967Z</time></trkpt><trkpt lat="41.4437575" lon="13.187866"><ele>66.0</ele><time>2026-03-25T11:00:05.963Z</time></trkpt><trkpt lat="41.4436689" lon="13.1879216"><ele>66.0</ele><time>2026-03-25T11:00:06.96Z</time></trkpt><trkpt lat="41.4435612" lon="13.1879776"><ele>65.25</ele><time>2026-03-25T11:00:07.959Z</time></trkpt><trkpt lat="41.4434392" lon="13.1880375"><ele>64.5</ele><time>2026-03-25T11:00:08.964Z</time></trkpt><trkpt lat="41.4433091" lon="13.1881024"><ele>63.75</ele><time>2026-03-25T11:00:09.958Z</time></trkpt><trkpt lat="41.4431805" lon="13.1881613"><ele>63.0</ele><time>2026-03-25T11:00:10.968Z</time></trkpt><trkpt lat="41.4430458" lon="13.1882154"><ele>61.25</ele><time>2026-03-25T11:00:11.962Z</time></trkpt><trkpt lat="41.4429051" lon="13.1882717"><ele>59.5</ele><time>2026-03-25T11:00:12.962Z</time></trkpt><trkpt lat="41.4427934" lon="13.1883201"><ele>57.75</ele><time>2026-03-25T11:00:13.96Z</time></trkpt><trkpt lat="41.4426955" lon="13.1883615"><ele>56.0</ele><time>2026-03-25T11:00:14.966Z</time></trkpt><trkpt lat="41.4426071" lon="13.1883967"><ele>56.00000000000001</ele><time>2026-03-25T11:00:15.956Z</time></trkpt><trkpt lat="41.4425293" lon="13.1884148"><ele>56.0</ele><time>2026-03-25T11:00:16.959Z</time></trkpt><trkpt lat="41.4424552" lon="13.1884213"><ele>56.0</ele><time>2026-03-25T11:00:17.961Z</time></trkpt><trkpt lat="41.442373" lon="13.1884372"><ele>56.0</ele><time>2026-03-25T11:00:18.954Z</time></trkpt><trkpt lat="41.4422836" lon="13.1884668"><ele>56.00000000000001</ele><time>2026-03-25T11:00:19.963Z</time></trkpt><trkpt lat="41.4421992" lon="13.1884978"><ele>56.0</ele><time>2026-03-25T11:00:20.958Z</time></trkpt><trkpt lat="41.4421246" lon="13.1885211"><ele>55.599999999999994</ele><time>2026-03-25T11:00:21.975Z</time></trkpt><trkpt lat="41.4420607" lon="13.1885542"><ele>55.199999999999996</ele><time>2026-03-25T11:00:22.955Z</time></trkpt><trkpt lat="41.4419571" lon="13.1886382"><ele>54.800000000000004</ele><time>2026-03-25T11:00:24.952Z</time></trkpt><trkpt lat="41.4418579" lon="13.1887279"><ele>54.400000000000006</ele><time>2026-03-25T11:00:26.957Z</time></trkpt><trkpt lat="41.4417876" lon="13.1887813"><ele>54.0</ele><time>2026-03-25T11:00:27.959Z</time></trkpt><trkpt lat="41.4416948" lon="13.1888294"><ele>54.0</ele><time>2026-03-25T11:00:28.973Z</time></trkpt><trkpt lat="41.4416058" lon="13.188891"><ele>54.0</ele><time>2026-03-25T11:00:29.955Z</time></trkpt><trkpt lat="41.4415415" lon="13.188947"><ele>54.0</ele><time>2026-03-25T11:00:30.958Z</time></trkpt><trkpt lat="41.4414859" lon="13.1889871"><ele>54.0</ele><time>2026-03-25T11:00:31.969Z</time></trkpt><trkpt lat="41.4414157" lon="13.1890635"><ele>54.0</ele><time>2026-03-25T11:00:33.968Z</time></trkpt><trkpt lat="41.4413923" lon="13.1891813"><ele>54.0</ele><time>2026-03-25T11:00:36.964Z</time></trkpt><trkpt lat="41.4413988" lon="13.1892918"><ele>53.666666666666664</ele><time>2026-03-25T11:00:38.965Z</time></trkpt><trkpt lat="41.4413501" lon="13.1893475"><ele>53.33333333333333</ele><time>2026-03-25T11:00:40.96Z</time></trkpt><trkpt lat="41.4412898" lon="13.1893745"><ele>53.0</ele><time>2026-03-25T11:00:41.972Z</time></trkpt><trkpt lat="41.4412125" lon="13.1894089"><ele>52.666666666666664</ele><time>2026-03-25T11:00:42.956Z</time></trkpt><trkpt lat="41.4411276" lon="13.1894446"><ele>52.33333333333333</ele><time>2026-03-25T11:00:43.959Z</time></trkpt><trkpt lat="41.4410374" lon="13.1894902"><ele>52.0</ele><time>2026-03-25T11:00:44.959Z</time></trkpt><trkpt lat="41.4409284" lon="13.1895544"><ele>52.0</ele><time>2026-03-25T11:00:45.961Z</time></trkpt><trkpt lat="41.4408116" lon="13.1896207"><ele>52.0</ele><time>2026-03-25T11:00:46.96Z</time></trkpt><trkpt lat="41.4406732" lon="13.1896907"><ele>52.0</ele><time>2026-03-25T11:00:47.963Z</time></trkpt><trkpt lat="41.4405254" lon="13.189741"><ele>52.0</ele><time>2026-03-25T11:00:48.953Z</time></trkpt><trkpt lat="41.4403791" lon="13.1898002"><ele>52.25</ele><time>2026-03-25T11:00:49.962Z</time></trkpt><trkpt lat="41.4402416" lon="13.1898413"><ele>52.5</ele><time>2026-03-25T11:00:50.961Z</time></trkpt><trkpt lat="41.4401089" lon="13.1898839"><ele>52.75</ele><time>2026-03-25T11:00:51.972Z</time></trkpt><trkpt lat="41.4399723" lon="13.1899316"><ele>53.0</ele><time>2026-03-25T11:00:52.959Z</time></trkpt><trkpt lat="41.4398279" lon="13.1899919"><ele>51.66666666666667</ele><time>2026-03-25T11:00:53.97Z</time></trkpt><trkpt lat="41.4396602" lon="13.1900609"><ele>50.33333333333333</ele><time>2026-03-25T11:00:54.959Z</time></trkpt><trkpt lat="41.4395084" lon="13.1901222"><ele>49.0</ele><time>2026-03-25T11:00:55.956Z</time></trkpt><trkpt lat="41.4393742" lon="13.1901753"><ele>48.5</ele><time>2026-03-25T11:00:56.961Z</time></trkpt><trkpt lat="41.4392552" lon="13.1902139"><ele>48.0</ele><time>2026-03-25T11:00:57.957Z</time></trkpt><trkpt lat="41.4391189" lon="13.1902681"><ele>47.5</ele><time>2026-03-25T11:00:58.976Z</time></trkpt><trkpt lat="41.4389655" lon="13.1903334"><ele>47.0</ele><time>2026-03-25T11:00:59.959Z</time></trkpt><trkpt lat="41.4388068" lon="13.1904077"><ele>46.0</ele><time>2026-03-25T11:01:00.962Z</time></trkpt><trkpt lat="41.4386411" lon="13.1904639"><ele>45.0</ele><time>2026-03-25T11:01:01.965Z</time></trkpt><trkpt lat="41.4384868" lon="13.1905253"><ele>44.0</ele><time>2026-03-25T11:01:02.959Z</time></trkpt><trkpt lat="41.4383386" lon="13.1905797"><ele>44.0</ele><time>2026-03-25T11:01:03.966Z</time></trkpt><trkpt lat="41.4382077" lon="13.1906456"><ele>44.0</ele><time>2026-03-25T11:01:04.962Z</time></trkpt><trkpt lat="41.4380935" lon="13.1907124"><ele>44.0</ele><time>2026-03-25T11:01:05.967Z</time></trkpt><trkpt lat="41.4379832" lon="13.1907772"><ele>44.0</ele><time>2026-03-25T11:01:06.966Z</time></trkpt><trkpt lat="41.4378763" lon="13.1908652"><ele>42.0</ele><time>2026-03-25T11:01:07.963Z</time></trkpt><trkpt lat="41.4377446" lon="13.1909382"><ele>40.0</ele><time>2026-03-25T11:01:08.966Z</time></trkpt><trkpt lat="41.437622" lon="13.1910265"><ele>38.0</ele><time>2026-03-25T11:01:09.958Z</time></trkpt><trkpt lat="41.4374852" lon="13.1911182"><ele>36.0</ele><time>2026-03-25T11:01:10.962Z</time></trkpt><trkpt lat="41.4373589" lon="13.1911977"><ele>36.0</ele><time>2026-03-25T11:01:11.959Z</time></trkpt><trkpt lat="41.4372342" lon="13.1912781"><ele>36.0</ele><time>2026-03-25T11:01:12.964Z</time></trkpt><trkpt lat="41.4371157" lon="13.1913512"><ele>36.0</ele><time>2026-03-25T11:01:13.962Z</time></trkpt><trkpt lat="41.4370123" lon="13.1914148"><ele>36.0</ele><time>2026-03-25T11:01:14.966Z</time></trkpt><trkpt lat="41.4369183" lon="13.191469"><ele>34.833333333333336</ele><time>2026-03-25T11:01:15.962Z</time></trkpt><trkpt lat="41.4368252" lon="13.1915076"><ele>33.666666666666664</ele><time>2026-03-25T11:01:16.969Z</time></trkpt><trkpt lat="41.4367283" lon="13.1915299"><ele>32.5</ele><time>2026-03-25T11:01:17.966Z</time></trkpt><trkpt lat="41.4366322" lon="13.1915813"><ele>31.333333333333332</ele><time>2026-03-25T11:01:18.971Z</time></trkpt><trkpt lat="41.4365688" lon="13.1916067"><ele>30.166666666666664</ele><time>2026-03-25T11:01:19.964Z</time></trkpt><trkpt lat="41.4364998" lon="13.1916379"><ele>29.0</ele><time>2026-03-25T11:01:21.968Z</time></trkpt><trkpt lat="41.4363909" lon="13.1915949"><ele>28.999999999999996</ele><time>2026-03-25T11:01:24.959Z</time></trkpt><trkpt lat="41.4363372" lon="13.1915283"><ele>29.0</ele><time>2026-03-25T11:01:25.966Z</time></trkpt><trkpt lat="41.4362773" lon="13.1914685"><ele>29.0</ele><time>2026-03-25T11:01:26.966Z</time></trkpt><trkpt lat="41.4362045" lon="13.1914057"><ele>29.0</ele><time>2026-03-25T11:01:27.963Z</time></trkpt><trkpt lat="41.4361252" lon="13.1913356"><ele>28.999999999999996</ele><time>2026-03-25T11:01:28.958Z</time></trkpt><trkpt lat="41.4360396" lon="13.1912636"><ele>29.0</ele><time>2026-03-25T11:01:29.954Z</time></trkpt><trkpt lat="41.4359441" lon="13.1911852"><ele>29.5</ele><time>2026-03-25T11:01:30.966Z</time></trkpt><trkpt lat="41.4358457" lon="13.1911129"><ele>30.0</ele><time>2026-03-25T11:01:31.962Z</time></trkpt><trkpt lat="41.4357388" lon="13.1910375"><ele>30.5</ele><time>2026-03-25T11:01:32.962Z</time></trkpt><trkpt lat="41.4356323" lon="13.1909615"><ele>31.0</ele><time>2026-03-25T11:01:33.96Z</time></trkpt><trkpt lat="41.4355288" lon="13.1908859"><ele>31.5</ele><time>2026-03-25T11:01:34.957Z</time></trkpt><trkpt lat="41.4354209" lon="13.1908034"><ele>32.0</ele><time>2026-03-25T11:01:35.957Z</time></trkpt><trkpt lat="41.435312" lon="13.1907236"><ele>32.5</ele><time>2026-03-25T11:01:36.976Z</time></trkpt><trkpt lat="41.4352007" lon="13.1906403"><ele>33.0</ele><time>2026-03-25T11:01:37.961Z</time></trkpt><trkpt lat="41.4350816" lon="13.1905572"><ele>33.0</ele><time>2026-03-25T11:01:38.961Z</time></trkpt><trkpt lat="41.4349572" lon="13.1904725"><ele>33.0</ele><time>2026-03-25T11:01:39.958Z</time></trkpt><trkpt lat="41.4348311" lon="13.1903861"><ele>33.0</ele><time>2026-03-25T11:01:40.956Z</time></trkpt><trkpt lat="41.4347056" lon="13.1903006"><ele>33.0</ele><time>2026-03-25T11:01:41.96Z</time></trkpt><trkpt lat="41.4345772" lon="13.1902064"><ele>28.333333333333332</ele><time>2026-03-25T11:01:42.957Z</time></trkpt><trkpt lat="41.434443" lon="13.1901079"><ele>23.666666666666664</ele><time>2026-03-25T11:01:43.962Z</time></trkpt><trkpt lat="41.4343021" lon="13.1900023"><ele>19.0</ele><time>2026-03-25T11:01:44.966Z</time></trkpt><trkpt lat="41.4341573" lon="13.1898914"><ele>18.666666666666664</ele><time>2026-03-25T11:01:45.965Z</time></trkpt><trkpt lat="41.4340088" lon="13.1897777"><ele>18.333333333333332</ele><time>2026-03-25T11:01:46.962Z</time></trkpt><trkpt lat="41.4338578" lon="13.1896614"><ele>18.0</ele><time>2026-03-25T11:01:47.968Z</time></trkpt><trkpt lat="41.433714" lon="13.1895485"><ele>18.0</ele><time>2026-03-25T11:01:48.963Z</time></trkpt><trkpt lat="41.4335744" lon="13.1894369"><ele>18.0</ele><time>2026-03-25T11:01:49.963Z</time></trkpt><trkpt lat="41.4334341" lon="13.1893272"><ele>18.0</ele><time>2026-03-25T11:01:50.97Z</time></trkpt><trkpt lat="41.4332911" lon="13.1892168"><ele>18.0</ele><time>2026-03-25T11:01:51.963Z</time></trkpt><trkpt lat="41.4331469" lon="13.1891064"><ele>18.0</ele><time>2026-03-25T11:01:52.97Z</time></trkpt><trkpt lat="41.4330002" lon="13.1889954"><ele>18.0</ele><time>2026-03-25T11:01:53.959Z</time></trkpt><trkpt lat="41.4328515" lon="13.1888826"><ele>17.0</ele><time>2026-03-25T11:01:54.965Z</time></trkpt><trkpt lat="41.4326987" lon="13.1887703"><ele>16.0</ele><time>2026-03-25T11:01:55.965Z</time></trkpt><trkpt lat="41.4325464" lon="13.1886562"><ele>15.0</ele><time>2026-03-25T11:01:56.962Z</time></trkpt><trkpt lat="41.4323927" lon="13.1885426"><ele>15.0</ele><time>2026-03-25T11:01:57.964Z</time></trkpt><trkpt lat="41.4322357" lon="13.188438"><ele>15.0</ele><time>2026-03-25T11:01:58.967Z</time></trkpt><trkpt lat="41.4320746" lon="13.1883483"><ele>15.0</ele><time>2026-03-25T11:01:59.97Z</time></trkpt><trkpt lat="41.4319073" lon="13.188276"><ele>15.0</ele><time>2026-03-25T11:02:00.96Z</time></trkpt><trkpt lat="41.4317349" lon="13.1882208"><ele>15.0</ele><time>2026-03-25T11:02:01.975Z</time></trkpt><trkpt lat="41.4315572" lon="13.188185"><ele>15.0</ele><time>2026-03-25T11:02:02.962Z</time></trkpt><trkpt lat="41.4313772" lon="13.1881615"><ele>15.0</ele><time>2026-03-25T11:02:03.965Z</time></trkpt><trkpt lat="41.4311967" lon="13.1881408"><ele>15.0</ele><time>2026-03-25T11:02:04.962Z</time></trkpt><trkpt lat="41.431016" lon="13.1881188"><ele>15.0</ele><time>2026-03-25T11:02:05.959Z</time></trkpt><trkpt lat="41.4308371" lon="13.1880976"><ele>15.0</ele><time>2026-03-25T11:02:06.963Z</time></trkpt><trkpt lat="41.4306617" lon="13.1880744"><ele>15.0</ele><time>2026-03-25T11:02:07.956Z</time></trkpt><trkpt lat="41.4304883" lon="13.1880474"><ele>15.0</ele><time>2026-03-25T11:02:08.967Z</time></trkpt><trkpt lat="41.4303164" lon="13.1880149"><ele>15.0</ele><time>2026-03-25T11:02:09.962Z</time></trkpt><trkpt lat="41.4301484" lon="13.1879696"><ele>15.0</ele><time>2026-03-25T11:02:10.964Z</time></trkpt><trkpt lat="41.4299827" lon="13.1879042"><ele>15.0</ele><time>2026-03-25T11:02:11.962Z</time></trkpt><trkpt lat="41.4298205" lon="13.1878205"><ele>15.0</ele><time>2026-03-25T11:02:12.955Z</time></trkpt><trkpt lat="41.4296589" lon="13.1877244"><ele>15.0</ele><time>2026-03-25T11:02:13.964Z</time></trkpt><trkpt lat="41.4294987" lon="13.1876206"><ele>15.0</ele><time>2026-03-25T11:02:14.966Z</time></trkpt><trkpt lat="41.4293401" lon="13.1875082"><ele>15.0</ele><time>2026-03-25T11:02:15.963Z</time></trkpt><trkpt lat="41.4291839" lon="13.1873878"><ele>15.0</ele><time>2026-03-25T11:02:16.959Z</time></trkpt><trkpt lat="41.4290304" lon="13.1872636"><ele>15.0</ele><time>2026-03-25T11:02:17.965Z</time></trkpt><trkpt lat="41.4288785" lon="13.1871394"><ele>16.0</ele><time>2026-03-25T11:02:18.966Z</time></trkpt><trkpt lat="41.4287293" lon="13.1870127"><ele>17.0</ele><time>2026-03-25T11:02:19.969Z</time></trkpt><trkpt lat="41.4285821" lon="13.1868824"><ele>18.0</ele><time>2026-03-25T11:02:20.961Z</time></trkpt><trkpt lat="41.4284345" lon="13.186747"><ele>18.0</ele><time>2026-03-25T11:02:21.962Z</time></trkpt><trkpt lat="41.4282854" lon="13.186609"><ele>18.0</ele><time>2026-03-25T11:02:22.964Z</time></trkpt><trkpt lat="41.4281358" lon="13.1864697"><ele>18.0</ele><time>2026-03-25T11:02:23.969Z</time></trkpt><trkpt lat="41.4279864" lon="13.1863328"><ele>17.333333333333332</ele><time>2026-03-25T11:02:24.979Z</time></trkpt><trkpt lat="41.4278376" lon="13.1861965"><ele>16.666666666666664</ele><time>2026-03-25T11:02:25.971Z</time></trkpt><trkpt lat="41.4276888" lon="13.1860611"><ele>16.0</ele><time>2026-03-25T11:02:26.964Z</time></trkpt><trkpt lat="41.427544" lon="13.1859303"><ele>16.0</ele><time>2026-03-25T11:02:27.968Z</time></trkpt><trkpt lat="41.4273945" lon="13.1858011"><ele>16.0</ele><time>2026-03-25T11:02:28.968Z</time></trkpt><trkpt lat="41.4272457" lon="13.1856687"><ele>16.0</ele><time>2026-03-25T11:02:29.964Z</time></trkpt><trkpt lat="41.4270978" lon="13.1855354"><ele>15.0</ele><time>2026-03-25T11:02:30.972Z</time></trkpt><trkpt lat="41.4269475" lon="13.1853993"><ele>14.0</ele><time>2026-03-25T11:02:31.962Z</time></trkpt><trkpt lat="41.4268019" lon="13.1852617"><ele>13.0</ele><time>2026-03-25T11:02:32.968Z</time></trkpt><trkpt lat="41.4266584" lon="13.1851224"><ele>13.0</ele><time>2026-03-25T11:02:33.962Z</time></trkpt><trkpt lat="41.426515" lon="13.1849919"><ele>13.0</ele><time>2026-03-25T11:02:34.957Z</time></trkpt><trkpt lat="41.426376" lon="13.1848607"><ele>13.0</ele><time>2026-03-25T11:02:35.965Z</time></trkpt><trkpt lat="41.4262333" lon="13.1847283"><ele>13.333333333333332</ele><time>2026-03-25T11:02:36.96Z</time></trkpt><trkpt lat="41.4261013" lon="13.1846023"><ele>13.666666666666668</ele><time>2026-03-25T11:02:37.98Z</time></trkpt><trkpt lat="41.4259794" lon="13.1844844"><ele>14.0</ele><time>2026-03-25T11:02:38.965Z</time></trkpt><trkpt lat="41.4258597" lon="13.1843694"><ele>14.0</ele><time>2026-03-25T11:02:39.966Z</time></trkpt><trkpt lat="41.425748" lon="13.1842655"><ele>14.0</ele><time>2026-03-25T11:02:40.969Z</time></trkpt><trkpt lat="41.4256462" lon="13.1841709"><ele>14.0</ele><time>2026-03-25T11:02:41.964Z</time></trkpt><trkpt lat="41.4255512" lon="13.1840808"><ele>14.0</ele><time>2026-03-25T11:02:42.974Z</time></trkpt><trkpt lat="41.4254631" lon="13.1839983"><ele>14.166666666666668</ele><time>2026-03-25T11:02:43.96Z</time></trkpt><trkpt lat="41.4253788" lon="13.1839217"><ele>14.333333333333334</ele><time>2026-03-25T11:02:44.973Z</time></trkpt><trkpt lat="41.4253039" lon="13.1838505"><ele>14.5</ele><time>2026-03-25T11:02:45.966Z</time></trkpt><trkpt lat="41.425236" lon="13.1837964"><ele>14.666666666666668</ele><time>2026-03-25T11:02:46.965Z</time></trkpt><trkpt lat="41.4251712" lon="13.1837653"><ele>14.833333333333334</ele><time>2026-03-25T11:02:47.965Z</time></trkpt><trkpt lat="41.4251083" lon="13.1837529"><ele>15.0</ele><time>2026-03-25T11:02:48.964Z</time></trkpt><trkpt lat="41.4250142" lon="13.1837267"><ele>15.0</ele><time>2026-03-25T11:02:50.961Z</time></trkpt><trkpt lat="41.4249528" lon="13.183656"><ele>15.0</ele><time>2026-03-25T11:02:52.976Z</time></trkpt><trkpt lat="41.424902" lon="13.1835933"><ele>15.0</ele><time>2026-03-25T11:02:54.961Z</time></trkpt><trkpt lat="41.4249588" lon="13.183679"><ele>15.0</ele><time>2026-03-25T11:13:01.96Z</time></trkpt><trkpt lat="41.4250117" lon="13.1837289"><ele>15.0</ele><time>2026-03-25T11:13:03.963Z</time></trkpt><trkpt lat="41.4250545" lon="13.1836609"><ele>15.0</ele><time>2026-03-25T11:13:13.987Z</time></trkpt><trkpt lat="41.425022" lon="13.1835612"><ele>15.0</ele><time>2026-03-25T11:13:15.96Z</time></trkpt><trkpt lat="41.4249322" lon="13.1834253"><ele>15.0</ele><time>2026-03-25T11:13:17.968Z</time></trkpt><trkpt lat="41.4248811" lon="13.1833412"><ele>15.0</ele><time>2026-03-25T11:13:18.981Z</time></trkpt><trkpt lat="41.4248198" lon="13.1832347"><ele>15.0</ele><time>2026-03-25T11:13:19.964Z</time></trkpt><trkpt lat="41.4247596" lon="13.1831301"><ele>15.0</ele><time>2026-03-25T11:13:20.967Z</time></trkpt><trkpt lat="41.4247029" lon="13.1830245"><ele>15.0</ele><time>2026-03-25T11:13:21.966Z</time></trkpt><trkpt lat="41.4246501" lon="13.1829176"><ele>14.5</ele><time>2026-03-25T11:13:22.961Z</time></trkpt><trkpt lat="41.424592" lon="13.1828027"><ele>14.0</ele><time>2026-03-25T11:13:23.961Z</time></trkpt><trkpt lat="41.4245288" lon="13.182681"><ele>13.5</ele><time>2026-03-25T11:13:24.964Z</time></trkpt><trkpt lat="41.4244554" lon="13.182547"><ele>13.0</ele><time>2026-03-25T11:13:25.978Z</time></trkpt><trkpt lat="41.424372" lon="13.1824058"><ele>12.75</ele><time>2026-03-25T11:13:26.965Z</time></trkpt><trkpt lat="41.4242798" lon="13.1822732"><ele>12.5</ele><time>2026-03-25T11:13:27.961Z</time></trkpt><trkpt lat="41.4241743" lon="13.1821525"><ele>12.25</ele><time>2026-03-25T11:13:28.963Z</time></trkpt><trkpt lat="41.4240662" lon="13.1820309"><ele>12.0</ele><time>2026-03-25T11:13:29.958Z</time></trkpt><trkpt lat="41.4239352" lon="13.1819333"><ele>12.5</ele><time>2026-03-25T11:13:30.965Z</time></trkpt><trkpt lat="41.4238038" lon="13.1818408"><ele>13.0</ele><time>2026-03-25T11:13:31.964Z</time></trkpt><trkpt lat="41.4236767" lon="13.1817455"><ele>13.5</ele><time>2026-03-25T11:13:32.967Z</time></trkpt><trkpt lat="41.423547" lon="13.1816482"><ele>14.0</ele><time>2026-03-25T11:13:33.959Z</time></trkpt><trkpt lat="41.4234129" lon="13.1815512"><ele>13.5</ele><time>2026-03-25T11:13:34.96Z</time></trkpt><trkpt lat="41.423285" lon="13.1814576"><ele>13.0</ele><time>2026-03-25T11:13:35.962Z</time></trkpt><trkpt lat="41.4231644" lon="13.181364"><ele>12.5</ele><time>2026-03-25T11:13:36.966Z</time></trkpt><trkpt lat="41.4230422" lon="13.1812707"><ele>12.0</ele><time>2026-03-25T11:13:37.973Z</time></trkpt><trkpt lat="41.4229295" lon="13.1811534"><ele>11.25</ele><time>2026-03-25T11:13:38.965Z</time></trkpt><trkpt lat="41.4228297" lon="13.1810202"><ele>10.5</ele><time>2026-03-25T11:13:39.977Z</time></trkpt><trkpt lat="41.4227418" lon="13.1808663"><ele>9.75</ele><time>2026-03-25T11:13:40.96Z</time></trkpt><trkpt lat="41.422671" lon="13.1806947"><ele>9.0</ele><time>2026-03-25T11:13:41.968Z</time></trkpt><trkpt lat="41.4226197" lon="13.1805085"><ele>9.0</ele><time>2026-03-25T11:13:42.962Z</time></trkpt><trkpt lat="41.4225851" lon="13.1803078"><ele>9.0</ele><time>2026-03-25T11:13:43.958Z</time></trkpt><trkpt lat="41.4225725" lon="13.1800985"><ele>9.0</ele><time>2026-03-25T11:13:44.958Z</time></trkpt><trkpt lat="41.4225722" lon="13.1798857"><ele>10.0</ele><time>2026-03-25T11:13:45.961Z</time></trkpt><trkpt lat="41.4225749" lon="13.1796738"><ele>11.0</ele><time>2026-03-25T11:13:46.964Z</time></trkpt><trkpt lat="41.4225789" lon="13.179455"><ele>12.0</ele><time>2026-03-25T11:13:47.96Z</time></trkpt><trkpt lat="41.4225829" lon="13.1792299"><ele>12.333333333333332</ele><time>2026-03-25T11:13:48.96Z</time></trkpt><trkpt lat="41.4225865" lon="13.1790028"><ele>12.666666666666666</ele><time>2026-03-25T11:13:49.967Z</time></trkpt><trkpt lat="41.4225907" lon="13.1787694"><ele>13.0</ele><time>2026-03-25T11:13:50.955Z</time></trkpt><trkpt lat="41.4225926" lon="13.1785323"><ele>13.0</ele><time>2026-03-25T11:13:51.958Z</time></trkpt><trkpt lat="41.422594" lon="13.1782919"><ele>13.0</ele><time>2026-03-25T11:13:52.962Z</time></trkpt><trkpt lat="41.4225965" lon="13.1780481"><ele>13.0</ele><time>2026-03-25T11:13:53.961Z</time></trkpt><trkpt lat="41.4226009" lon="13.1778022"><ele>13.0</ele><time>2026-03-25T11:13:54.955Z</time></trkpt><trkpt lat="41.4226037" lon="13.177554"><ele>13.0</ele><time>2026-03-25T11:13:55.969Z</time></trkpt><trkpt lat="41.4226077" lon="13.1773048"><ele>13.0</ele><time>2026-03-25T11:13:56.966Z</time></trkpt><trkpt lat="41.4226119" lon="13.177054"><ele>11.333333333333332</ele><time>2026-03-25T11:13:57.964Z</time></trkpt><trkpt lat="41.4226161" lon="13.1768014"><ele>9.666666666666666</ele><time>2026-03-25T11:13:58.963Z</time></trkpt><trkpt lat="41.4226187" lon="13.1765468"><ele>8.0</ele><time>2026-03-25T11:13:59.959Z</time></trkpt><trkpt lat="41.4226216" lon="13.1762898"><ele>8.0</ele><time>2026-03-25T11:14:00.967Z</time></trkpt><trkpt lat="41.4226243" lon="13.1760313"><ele>8.0</ele><time>2026-03-25T11:14:01.955Z</time></trkpt><trkpt lat="41.422626" lon="13.1757716"><ele>8.0</ele><time>2026-03-25T11:14:02.961Z</time></trkpt><trkpt lat="41.4226269" lon="13.1755105"><ele>8.0</ele><time>2026-03-25T11:14:03.958Z</time></trkpt><trkpt lat="41.4226282" lon="13.1752481"><ele>8.0</ele><time>2026-03-25T11:14:04.96Z</time></trkpt><trkpt lat="41.4226307" lon="13.174985"><ele>8.0</ele><time>2026-03-25T11:14:05.959Z</time></trkpt><trkpt lat="41.4226333" lon="13.1747205"><ele>8.0</ele><time>2026-03-25T11:14:06.965Z</time></trkpt><trkpt lat="41.4226358" lon="13.1744586"><ele>8.0</ele><time>2026-03-25T11:14:07.955Z</time></trkpt><trkpt lat="41.4226389" lon="13.1741976"><ele>8.0</ele><time>2026-03-25T11:14:08.961Z</time></trkpt><trkpt lat="41.4226411" lon="13.1739359"><ele>8.0</ele><time>2026-03-25T11:14:09.956Z</time></trkpt><trkpt lat="41.4226448" lon="13.1736737"><ele>8.0</ele><time>2026-03-25T11:14:10.955Z</time></trkpt><trkpt lat="41.4226483" lon="13.1734107"><ele>8.0</ele><time>2026-03-25T11:14:11.962Z</time></trkpt><trkpt lat="41.4226516" lon="13.1731468"><ele>8.0</ele><time>2026-03-25T11:14:12.962Z</time></trkpt><trkpt lat="41.4226547" lon="13.1728814"><ele>8.0</ele><time>2026-03-25T11:14:13.955Z</time></trkpt><trkpt lat="41.4226578" lon="13.1726147"><ele>8.0</ele><time>2026-03-25T11:14:14.965Z</time></trkpt><trkpt lat="41.4226603" lon="13.1723463"><ele>8.0</ele><time>2026-03-25T11:14:15.963Z</time></trkpt><trkpt lat="41.4226629" lon="13.1720769"><ele>8.0</ele><time>2026-03-25T11:14:16.967Z</time></trkpt><trkpt lat="41.4226662" lon="13.1718075"><ele>8.0</ele><time>2026-03-25T11:14:17.965Z</time></trkpt><trkpt lat="41.4226693" lon="13.1715378"><ele>8.0</ele><time>2026-03-25T11:14:18.959Z</time></trkpt><trkpt lat="41.422673" lon="13.1712689"><ele>8.0</ele><time>2026-03-25T11:14:19.956Z</time></trkpt><trkpt lat="41.4226763" lon="13.1710006"><ele>8.0</ele><time>2026-03-25T11:14:20.98Z</time></trkpt><trkpt lat="41.4226783" lon="13.1707338"><ele>8.0</ele><time>2026-03-25T11:14:21.958Z</time></trkpt><trkpt lat="41.4226805" lon="13.1704682"><ele>8.0</ele><time>2026-03-25T11:14:22.966Z</time></trkpt><trkpt lat="41.4226825" lon="13.170202"><ele>8.0</ele><time>2026-03-25T11:14:23.965Z</time></trkpt><trkpt lat="41.4226831" lon="13.1699364"><ele>8.333333333333332</ele><time>2026-03-25T11:14:24.961Z</time></trkpt><trkpt lat="41.4226842" lon="13.1696717"><ele>8.666666666666666</ele><time>2026-03-25T11:14:25.965Z</time></trkpt><trkpt lat="41.4226881" lon="13.1694081"><ele>9.0</ele><time>2026-03-25T11:14:26.962Z</time></trkpt><trkpt lat="41.4226925" lon="13.1691446"><ele>9.0</ele><time>2026-03-25T11:14:27.962Z</time></trkpt><trkpt lat="41.422696" lon="13.1688804"><ele>9.0</ele><time>2026-03-25T11:14:28.964Z</time></trkpt><trkpt lat="41.4226985" lon="13.1686157"><ele>9.0</ele><time>2026-03-25T11:14:29.954Z</time></trkpt><trkpt lat="41.4227013" lon="13.168352"><ele>8.333333333333334</ele><time>2026-03-25T11:14:30.965Z</time></trkpt><trkpt lat="41.4227039" lon="13.1680878"><ele>7.666666666666667</ele><time>2026-03-25T11:14:31.959Z</time></trkpt><trkpt lat="41.4227073" lon="13.1678217"><ele>7.0</ele><time>2026-03-25T11:14:32.955Z</time></trkpt><trkpt lat="41.4227105" lon="13.1675531"><ele>7.0</ele><time>2026-03-25T11:14:33.963Z</time></trkpt><trkpt lat="41.4227139" lon="13.1672859"><ele>7.0</ele><time>2026-03-25T11:14:34.962Z</time></trkpt><trkpt lat="41.4227169" lon="13.1670201"><ele>7.0</ele><time>2026-03-25T11:14:35.967Z</time></trkpt><trkpt lat="41.4227201" lon="13.1667561"><ele>6.666666666666667</ele><time>2026-03-25T11:14:36.967Z</time></trkpt><trkpt lat="41.4227229" lon="13.1664925"><ele>6.333333333333334</ele><time>2026-03-25T11:14:37.966Z</time></trkpt><trkpt lat="41.4227255" lon="13.166229"><ele>6.0</ele><time>2026-03-25T11:14:38.96Z</time></trkpt><trkpt lat="41.422729" lon="13.1659643"><ele>6.0</ele><time>2026-03-25T11:14:39.962Z</time></trkpt><trkpt lat="41.4227321" lon="13.1656985"><ele>6.0</ele><time>2026-03-25T11:14:40.961Z</time></trkpt><trkpt lat="41.422736" lon="13.1654327"><ele>6.0</ele><time>2026-03-25T11:14:41.957Z</time></trkpt><trkpt lat="41.4227394" lon="13.1651654"><ele>6.0</ele><time>2026-03-25T11:14:42.964Z</time></trkpt><trkpt lat="41.4227401" lon="13.1648991"><ele>6.0</ele><time>2026-03-25T11:14:43.968Z</time></trkpt><trkpt lat="41.4227404" lon="13.164637"><ele>6.0</ele><time>2026-03-25T11:14:44.963Z</time></trkpt><trkpt lat="41.4227361" lon="13.1643901"><ele>6.666666666666666</ele><time>2026-03-25T11:14:45.981Z</time></trkpt><trkpt lat="41.4227193" lon="13.1641555"><ele>7.333333333333333</ele><time>2026-03-25T11:14:46.962Z</time></trkpt><trkpt lat="41.4226834" lon="13.1639259"><ele>8.0</ele><time>2026-03-25T11:14:47.961Z</time></trkpt><trkpt lat="41.4226246" lon="13.1637039"><ele>8.0</ele><time>2026-03-25T11:14:48.961Z</time></trkpt><trkpt lat="41.4225407" lon="13.1634928"><ele>8.0</ele><time>2026-03-25T11:14:49.966Z</time></trkpt><trkpt lat="41.422436" lon="13.1632934"><ele>8.0</ele><time>2026-03-25T11:14:50.961Z</time></trkpt><trkpt lat="41.4223132" lon="13.1631064"><ele>7.333333333333333</ele><time>2026-03-25T11:14:51.968Z</time></trkpt><trkpt lat="41.4221777" lon="13.1629313"><ele>6.666666666666666</ele><time>2026-03-25T11:14:52.965Z</time></trkpt><trkpt lat="41.4220377" lon="13.162767"><ele>6.0</ele><time>2026-03-25T11:14:53.98Z</time></trkpt><trkpt lat="41.4218819" lon="13.1626067"><ele>5.666666666666667</ele><time>2026-03-25T11:14:54.963Z</time></trkpt><trkpt lat="41.421729" lon="13.162451"><ele>5.333333333333334</ele><time>2026-03-25T11:14:55.96Z</time></trkpt><trkpt lat="41.4215772" lon="13.1622889"><ele>5.0</ele><time>2026-03-25T11:14:56.966Z</time></trkpt><trkpt lat="41.4214243" lon="13.1621233"><ele>4.666666666666667</ele><time>2026-03-25T11:14:57.962Z</time></trkpt><trkpt lat="41.4212728" lon="13.1619599"><ele>4.333333333333333</ele><time>2026-03-25T11:14:58.968Z</time></trkpt><trkpt lat="41.4211188" lon="13.1617964"><ele>4.0</ele><time>2026-03-25T11:14:59.961Z</time></trkpt><trkpt lat="41.420964" lon="13.1616324"><ele>4.0</ele><time>2026-03-25T11:15:00.965Z</time></trkpt><trkpt lat="41.4208113" lon="13.161468"><ele>4.0</ele><time>2026-03-25T11:15:01.964Z</time></trkpt><trkpt lat="41.420659" lon="13.1613016"><ele>4.0</ele><time>2026-03-25T11:15:02.962Z</time></trkpt><trkpt lat="41.4205073" lon="13.1611365"><ele>4.333333333333333</ele><time>2026-03-25T11:15:03.963Z</time></trkpt><trkpt lat="41.4203571" lon="13.1609734"><ele>4.666666666666667</ele><time>2026-03-25T11:15:04.963Z</time></trkpt><trkpt lat="41.4202128" lon="13.1608159"><ele>5.0</ele><time>2026-03-25T11:15:05.969Z</time></trkpt><trkpt lat="41.4200776" lon="13.1606671"><ele>5.0</ele><time>2026-03-25T11:15:06.965Z</time></trkpt><trkpt lat="41.4199424" lon="13.1605167"><ele>5.0</ele><time>2026-03-25T11:15:07.974Z</time></trkpt><trkpt lat="41.4198033" lon="13.1603635"><ele>5.0</ele><time>2026-03-25T11:15:08.961Z</time></trkpt><trkpt lat="41.4196591" lon="13.1602123"><ele>4.666666666666667</ele><time>2026-03-25T11:15:09.962Z</time></trkpt><trkpt lat="41.4195082" lon="13.160066"><ele>4.333333333333333</ele><time>2026-03-25T11:15:10.963Z</time></trkpt><trkpt lat="41.4193506" lon="13.159929"><ele>4.0</ele><time>2026-03-25T11:15:11.965Z</time></trkpt><trkpt lat="41.4191826" lon="13.1598069"><ele>4.0</ele><time>2026-03-25T11:15:12.984Z</time></trkpt><trkpt lat="41.4190044" lon="13.1597001"><ele>4.0</ele><time>2026-03-25T11:15:13.971Z</time></trkpt><trkpt lat="41.4188182" lon="13.1596148"><ele>4.0</ele><time>2026-03-25T11:15:14.963Z</time></trkpt><trkpt lat="41.4186237" lon="13.1595477"><ele>4.333333333333333</ele><time>2026-03-25T11:15:15.966Z</time></trkpt><trkpt lat="41.4184248" lon="13.159504"><ele>4.666666666666667</ele><time>2026-03-25T11:15:16.963Z</time></trkpt><trkpt lat="41.4182226" lon="13.1594831"><ele>5.0</ele><time>2026-03-25T11:15:17.964Z</time></trkpt><trkpt lat="41.4180193" lon="13.1594815"><ele>5.333333333333334</ele><time>2026-03-25T11:15:18.956Z</time></trkpt><trkpt lat="41.417815" lon="13.1594898"><ele>5.666666666666667</ele><time>2026-03-25T11:15:19.965Z</time></trkpt><trkpt lat="41.4176101" lon="13.1594969"><ele>6.0</ele><time>2026-03-25T11:15:20.964Z</time></trkpt><trkpt lat="41.4174038" lon="13.1595019"><ele>6.0</ele><time>2026-03-25T11:15:21.968Z</time></trkpt><trkpt lat="41.4171965" lon="13.1595081"><ele>6.0</ele><time>2026-03-25T11:15:22.962Z</time></trkpt><trkpt lat="41.4169881" lon="13.1595176"><ele>6.0</ele><time>2026-03-25T11:15:23.957Z</time></trkpt><trkpt lat="41.4167794" lon="13.1595269"><ele>6.0</ele><time>2026-03-25T11:15:24.959Z</time></trkpt><trkpt lat="41.4165713" lon="13.1595321"><ele>6.0</ele><time>2026-03-25T11:15:25.962Z</time></trkpt><trkpt lat="41.4163633" lon="13.1595378"><ele>6.0</ele><time>2026-03-25T11:15:26.963Z</time></trkpt><trkpt lat="41.4161561" lon="13.1595432"><ele>6.0</ele><time>2026-03-25T11:15:27.96Z</time></trkpt><trkpt lat="41.4159497" lon="13.1595491"><ele>6.0</ele><time>2026-03-25T11:15:28.958Z</time></trkpt><trkpt lat="41.415744" lon="13.1595549"><ele>6.0</ele><time>2026-03-25T11:15:29.962Z</time></trkpt><trkpt lat="41.4155389" lon="13.1595609"><ele>6.333333333333334</ele><time>2026-03-25T11:15:30.962Z</time></trkpt><trkpt lat="41.4153342" lon="13.1595666"><ele>6.666666666666667</ele><time>2026-03-25T11:15:31.956Z</time></trkpt><trkpt lat="41.4151289" lon="13.1595708"><ele>7.0</ele><time>2026-03-25T11:15:32.958Z</time></trkpt><trkpt lat="41.414921" lon="13.1595763"><ele>7.0</ele><time>2026-03-25T11:15:33.962Z</time></trkpt><trkpt lat="41.4147105" lon="13.1595835"><ele>7.0</ele><time>2026-03-25T11:15:34.957Z</time></trkpt><trkpt lat="41.4144982" lon="13.1595908"><ele>7.0</ele><time>2026-03-25T11:15:35.962Z</time></trkpt><trkpt lat="41.4142856" lon="13.1595991"><ele>6.666666666666667</ele><time>2026-03-25T11:15:36.958Z</time></trkpt><trkpt lat="41.4140724" lon="13.159607"><ele>6.333333333333334</ele><time>2026-03-25T11:15:37.959Z</time></trkpt><trkpt lat="41.4138576" lon="13.1596159"><ele>6.0</ele><time>2026-03-25T11:15:38.958Z</time></trkpt><trkpt lat="41.413642" lon="13.1596261"><ele>5.333333333333333</ele><time>2026-03-25T11:15:39.961Z</time></trkpt><trkpt lat="41.4134264" lon="13.159636"><ele>4.666666666666666</ele><time>2026-03-25T11:15:40.96Z</time></trkpt><trkpt lat="41.4132105" lon="13.1596447"><ele>4.0</ele><time>2026-03-25T11:15:41.955Z</time></trkpt><trkpt lat="41.4129936" lon="13.1596527"><ele>4.0</ele><time>2026-03-25T11:15:42.962Z</time></trkpt><trkpt lat="41.4127767" lon="13.1596608"><ele>4.0</ele><time>2026-03-25T11:15:43.959Z</time></trkpt><trkpt lat="41.4125604" lon="13.1596691"><ele>4.0</ele><time>2026-03-25T11:15:44.96Z</time></trkpt><trkpt lat="41.4123436" lon="13.1596755"><ele>4.0</ele><time>2026-03-25T11:15:45.956Z</time></trkpt><trkpt lat="41.4121248" lon="13.1596814"><ele>4.0</ele><time>2026-03-25T11:15:46.958Z</time></trkpt><trkpt lat="41.4119043" lon="13.1596891"><ele>4.0</ele><time>2026-03-25T11:15:47.968Z</time></trkpt><trkpt lat="41.4116826" lon="13.159696"><ele>4.0</ele><time>2026-03-25T11:15:48.958Z</time></trkpt><trkpt lat="41.4114608" lon="13.1597051"><ele>4.0</ele><time>2026-03-25T11:15:49.959Z</time></trkpt><trkpt lat="41.4112394" lon="13.1597138"><ele>4.0</ele><time>2026-03-25T11:15:50.96Z</time></trkpt><trkpt lat="41.4110182" lon="13.1597185"><ele>3.6666666666666665</ele><time>2026-03-25T11:15:51.955Z</time></trkpt><trkpt lat="41.410797" lon="13.1597225"><ele>3.333333333333333</ele><time>2026-03-25T11:15:52.957Z</time></trkpt><trkpt lat="41.4105763" lon="13.1597297"><ele>3.0</ele><time>2026-03-25T11:15:53.955Z</time></trkpt><trkpt lat="41.410357" lon="13.1597384"><ele>2.6666666666666665</ele><time>2026-03-25T11:15:54.971Z</time></trkpt><trkpt lat="41.4101384" lon="13.1597438"><ele>2.333333333333333</ele><time>2026-03-25T11:15:55.953Z</time></trkpt><trkpt lat="41.4099197" lon="13.1597475"><ele>2.0</ele><time>2026-03-25T11:15:56.957Z</time></trkpt><trkpt lat="41.4097016" lon="13.159756"><ele>2.0</ele><time>2026-03-25T11:15:57.96Z</time></trkpt><trkpt lat="41.4094873" lon="13.1597662"><ele>2.0</ele><time>2026-03-25T11:15:58.959Z</time></trkpt><trkpt lat="41.4092875" lon="13.1597783"><ele>2.0</ele><time>2026-03-25T11:15:59.968Z</time></trkpt><trkpt lat="41.4090992" lon="13.1598029"><ele>2.0</ele><time>2026-03-25T11:16:00.957Z</time></trkpt><trkpt lat="41.4089171" lon="13.1598536"><ele>2.0</ele><time>2026-03-25T11:16:01.95Z</time></trkpt><trkpt lat="41.4087408" lon="13.1599362"><ele>2.0</ele><time>2026-03-25T11:16:02.954Z</time></trkpt><trkpt lat="41.4085723" lon="13.1600528"><ele>3.0</ele><time>2026-03-25T11:16:03.958Z</time></trkpt><trkpt lat="41.408414" lon="13.1602003"><ele>4.0</ele><time>2026-03-25T11:16:04.964Z</time></trkpt><trkpt lat="41.4082666" lon="13.1603768"><ele>5.0</ele><time>2026-03-25T11:16:05.962Z</time></trkpt><trkpt lat="41.4081301" lon="13.1605797"><ele>5.0</ele><time>2026-03-25T11:16:06.961Z</time></trkpt><trkpt lat="41.4080025" lon="13.1608024"><ele>5.0</ele><time>2026-03-25T11:16:07.96Z</time></trkpt><trkpt lat="41.4078809" lon="13.1610313"><ele>5.0</ele><time>2026-03-25T11:16:08.962Z</time></trkpt><trkpt lat="41.4077567" lon="13.161265"><ele>4.666666666666667</ele><time>2026-03-25T11:16:09.958Z</time></trkpt><trkpt lat="41.4076299" lon="13.1614966"><ele>4.333333333333333</ele><time>2026-03-25T11:16:10.974Z</time></trkpt><trkpt lat="41.4075016" lon="13.1617284"><ele>4.0</ele><time>2026-03-25T11:16:11.963Z</time></trkpt><trkpt lat="41.4073727" lon="13.1619644"><ele>4.333333333333333</ele><time>2026-03-25T11:16:12.965Z</time></trkpt><trkpt lat="41.4072512" lon="13.1621866"><ele>4.666666666666667</ele><time>2026-03-25T11:16:13.965Z</time></trkpt><trkpt lat="41.4071384" lon="13.1623919"><ele>5.0</ele><time>2026-03-25T11:16:14.96Z</time></trkpt><trkpt lat="41.4070335" lon="13.1625808"><ele>5.0</ele><time>2026-03-25T11:16:15.962Z</time></trkpt><trkpt lat="41.4069348" lon="13.1627565"><ele>5.0</ele><time>2026-03-25T11:16:16.965Z</time></trkpt><trkpt lat="41.4068361" lon="13.1629258"><ele>5.0</ele><time>2026-03-25T11:16:17.97Z</time></trkpt><trkpt lat="41.4067356" lon="13.1630822"><ele>5.25</ele><time>2026-03-25T11:16:18.969Z</time></trkpt><trkpt lat="41.4066254" lon="13.1632075"><ele>5.5</ele><time>2026-03-25T11:16:19.963Z</time></trkpt><trkpt lat="41.4064953" lon="13.1633084"><ele>5.75</ele><time>2026-03-25T11:16:20.963Z</time></trkpt><trkpt lat="41.4063549" lon="13.163379"><ele>6.0</ele><time>2026-03-25T11:16:21.957Z</time></trkpt><trkpt lat="41.4062097" lon="13.1634188"><ele>5.333333333333333</ele><time>2026-03-25T11:16:22.959Z</time></trkpt><trkpt lat="41.4060613" lon="13.1634226"><ele>4.666666666666666</ele><time>2026-03-25T11:16:23.958Z</time></trkpt><trkpt lat="41.4059159" lon="13.1633951"><ele>4.0</ele><time>2026-03-25T11:16:24.958Z</time></trkpt><trkpt lat="41.4057666" lon="13.1633368"><ele>4.0</ele><time>2026-03-25T11:16:25.965Z</time></trkpt><trkpt lat="41.4056225" lon="13.1632504"><ele>4.0</ele><time>2026-03-25T11:16:26.961Z</time></trkpt><trkpt lat="41.4054849" lon="13.1631504"><ele>4.0</ele><time>2026-03-25T11:16:27.959Z</time></trkpt><trkpt lat="41.4053477" lon="13.163045"><ele>4.666666666666666</ele><time>2026-03-25T11:16:28.963Z</time></trkpt><trkpt lat="41.4052137" lon="13.1629417"><ele>5.333333333333333</ele><time>2026-03-25T11:16:29.957Z</time></trkpt><trkpt lat="41.4050826" lon="13.1628393"><ele>6.0</ele><time>2026-03-25T11:16:30.961Z</time></trkpt><trkpt lat="41.4049493" lon="13.1627329"><ele>6.0</ele><time>2026-03-25T11:16:31.956Z</time></trkpt><trkpt lat="41.4048254" lon="13.1626304"><ele>6.0</ele><time>2026-03-25T11:16:32.972Z</time></trkpt><trkpt lat="41.4047099" lon="13.1625336"><ele>6.0</ele><time>2026-03-25T11:16:33.958Z</time></trkpt><trkpt lat="41.4045957" lon="13.1624379"><ele>6.0</ele><time>2026-03-25T11:16:34.96Z</time></trkpt><trkpt lat="41.4044812" lon="13.1623422"><ele>5.75</ele><time>2026-03-25T11:16:35.957Z</time></trkpt><trkpt lat="41.4043648" lon="13.1622474"><ele>5.5</ele><time>2026-03-25T11:16:36.957Z</time></trkpt><trkpt lat="41.4042447" lon="13.1621462"><ele>5.25</ele><time>2026-03-25T11:16:37.957Z</time></trkpt><trkpt lat="41.4041196" lon="13.1620391"><ele>5.0</ele><time>2026-03-25T11:16:38.957Z</time></trkpt><trkpt lat="41.4039887" lon="13.161929"><ele>5.0</ele><time>2026-03-25T11:16:39.965Z</time></trkpt><trkpt lat="41.4038516" lon="13.161817"><ele>5.0</ele><time>2026-03-25T11:16:40.959Z</time></trkpt><trkpt lat="41.4037105" lon="13.1617017"><ele>5.0</ele><time>2026-03-25T11:16:41.962Z</time></trkpt><trkpt lat="41.4035675" lon="13.1615834"><ele>4.666666666666667</ele><time>2026-03-25T11:16:42.958Z</time></trkpt><trkpt lat="41.4034207" lon="13.161463"><ele>4.333333333333333</ele><time>2026-03-25T11:16:43.956Z</time></trkpt><trkpt lat="41.4032742" lon="13.1613434"><ele>4.0</ele><time>2026-03-25T11:16:44.962Z</time></trkpt><trkpt lat="41.4031236" lon="13.16122"><ele>4.0</ele><time>2026-03-25T11:16:45.96Z</time></trkpt><trkpt lat="41.4029691" lon="13.1610907"><ele>4.0</ele><time>2026-03-25T11:16:46.955Z</time></trkpt><trkpt lat="41.402809" lon="13.1609586"><ele>4.0</ele><time>2026-03-25T11:16:47.964Z</time></trkpt><trkpt lat="41.4026475" lon="13.1608249"><ele>4.333333333333333</ele><time>2026-03-25T11:16:48.952Z</time></trkpt><trkpt lat="41.4024835" lon="13.1606895"><ele>4.666666666666667</ele><time>2026-03-25T11:16:49.955Z</time></trkpt><trkpt lat="41.4023181" lon="13.1605535"><ele>5.0</ele><time>2026-03-25T11:16:50.96Z</time></trkpt><trkpt lat="41.4021518" lon="13.1604185"><ele>5.0</ele><time>2026-03-25T11:16:51.954Z</time></trkpt><trkpt lat="41.4019854" lon="13.1602841"><ele>5.0</ele><time>2026-03-25T11:16:52.963Z</time></trkpt><trkpt lat="41.4018187" lon="13.1601497"><ele>5.0</ele><time>2026-03-25T11:16:53.954Z</time></trkpt><trkpt lat="41.4016524" lon="13.1600162"><ele>5.0</ele><time>2026-03-25T11:16:54.956Z</time></trkpt><trkpt lat="41.4014873" lon="13.1598809"><ele>5.0</ele><time>2026-03-25T11:16:55.954Z</time></trkpt><trkpt lat="41.4013234" lon="13.1597435"><ele>5.0</ele><time>2026-03-25T11:16:56.959Z</time></trkpt><trkpt lat="41.4011619" lon="13.1596019"><ele>5.333333333333334</ele><time>2026-03-25T11:16:57.951Z</time></trkpt><trkpt lat="41.401004" lon="13.1594519"><ele>5.666666666666667</ele><time>2026-03-25T11:16:58.959Z</time></trkpt><trkpt lat="41.4008478" lon="13.159296"><ele>6.0</ele><time>2026-03-25T11:16:59.958Z</time></trkpt><trkpt lat="41.4006926" lon="13.1591406"><ele>6.0</ele><time>2026-03-25T11:17:00.958Z</time></trkpt><trkpt lat="41.4005353" lon="13.1589855"><ele>6.0</ele><time>2026-03-25T11:17:01.967Z</time></trkpt><trkpt lat="41.4003815" lon="13.1588259"><ele>6.0</ele><time>2026-03-25T11:17:02.952Z</time></trkpt><trkpt lat="41.4002305" lon="13.1586602"><ele>6.0</ele><time>2026-03-25T11:17:03.954Z</time></trkpt><trkpt lat="41.400077" lon="13.1584874"><ele>6.0</ele><time>2026-03-25T11:17:04.961Z</time></trkpt><trkpt lat="41.3999228" lon="13.1583099"><ele>6.0</ele><time>2026-03-25T11:17:05.962Z</time></trkpt><trkpt lat="41.3997678" lon="13.1581298"><ele>6.0</ele><time>2026-03-25T11:17:06.958Z</time></trkpt><trkpt lat="41.3996121" lon="13.1579514"><ele>6.0</ele><time>2026-03-25T11:17:07.966Z</time></trkpt><trkpt lat="41.3994488" lon="13.1577828"><ele>6.0</ele><time>2026-03-25T11:17:08.957Z</time></trkpt><trkpt lat="41.3992758" lon="13.1576351"><ele>6.0</ele><time>2026-03-25T11:17:09.956Z</time></trkpt><trkpt lat="41.399094" lon="13.1575116"><ele>6.0</ele><time>2026-03-25T11:17:10.962Z</time></trkpt><trkpt lat="41.398906" lon="13.1574053"><ele>6.0</ele><time>2026-03-25T11:17:11.962Z</time></trkpt><trkpt lat="41.3987275" lon="13.1573148"><ele>5.666666666666667</ele><time>2026-03-25T11:17:12.966Z</time></trkpt><trkpt lat="41.3985607" lon="13.1572359"><ele>5.333333333333334</ele><time>2026-03-25T11:17:13.959Z</time></trkpt><trkpt lat="41.3983991" lon="13.1571609"><ele>5.0</ele><time>2026-03-25T11:17:14.962Z</time></trkpt><trkpt lat="41.3982408" lon="13.1570884"><ele>5.0</ele><time>2026-03-25T11:17:15.959Z</time></trkpt><trkpt lat="41.3980983" lon="13.157023"><ele>5.0</ele><time>2026-03-25T11:17:16.962Z</time></trkpt><trkpt lat="41.3979635" lon="13.1569581"><ele>5.0</ele><time>2026-03-25T11:17:17.971Z</time></trkpt><trkpt lat="41.3978278" lon="13.1568886"><ele>5.0</ele><time>2026-03-25T11:17:18.962Z</time></trkpt><trkpt lat="41.3976875" lon="13.1568106"><ele>5.333333333333334</ele><time>2026-03-25T11:17:19.965Z</time></trkpt><trkpt lat="41.3975448" lon="13.1567204"><ele>5.666666666666667</ele><time>2026-03-25T11:17:20.963Z</time></trkpt><trkpt lat="41.3973989" lon="13.1566171"><ele>6.0</ele><time>2026-03-25T11:17:21.963Z</time></trkpt><trkpt lat="41.3972512" lon="13.156506"><ele>6.333333333333334</ele><time>2026-03-25T11:17:22.954Z</time></trkpt><trkpt lat="41.3971035" lon="13.1563965"><ele>6.666666666666667</ele><time>2026-03-25T11:17:23.956Z</time></trkpt><trkpt lat="41.3969621" lon="13.1562801"><ele>7.0</ele><time>2026-03-25T11:17:24.958Z</time></trkpt><trkpt lat="41.3968323" lon="13.1561706"><ele>7.0</ele><time>2026-03-25T11:17:25.968Z</time></trkpt><trkpt lat="41.3967099" lon="13.1560682"><ele>7.0</ele><time>2026-03-25T11:17:26.961Z</time></trkpt><trkpt lat="41.3965993" lon="13.1559771"><ele>7.0</ele><time>2026-03-25T11:17:27.975Z</time></trkpt><trkpt lat="41.3964832" lon="13.1558997"><ele>7.0</ele><time>2026-03-25T11:17:28.959Z</time></trkpt><trkpt lat="41.3963541" lon="13.1558216"><ele>6.666666666666667</ele><time>2026-03-25T11:17:29.967Z</time></trkpt><trkpt lat="41.3962219" lon="13.1557225"><ele>6.333333333333334</ele><time>2026-03-25T11:17:30.962Z</time></trkpt><trkpt lat="41.3960786" lon="13.1556153"><ele>6.0</ele><time>2026-03-25T11:17:31.965Z</time></trkpt><trkpt lat="41.3959239" lon="13.1555157"><ele>6.0</ele><time>2026-03-25T11:17:32.968Z</time></trkpt><trkpt lat="41.3957629" lon="13.1554261"><ele>6.0</ele><time>2026-03-25T11:17:33.961Z</time></trkpt><trkpt lat="41.3955925" lon="13.1553443"><ele>6.0</ele><time>2026-03-25T11:17:34.96Z</time></trkpt><trkpt lat="41.3954146" lon="13.1552641"><ele>6.333333333333334</ele><time>2026-03-25T11:17:35.959Z</time></trkpt><trkpt lat="41.395236" lon="13.1551848"><ele>6.666666666666667</ele><time>2026-03-25T11:17:36.959Z</time></trkpt><trkpt lat="41.3950588" lon="13.155091"><ele>7.0</ele><time>2026-03-25T11:17:37.96Z</time></trkpt><trkpt lat="41.3948886" lon="13.1549892"><ele>7.0</ele><time>2026-03-25T11:17:38.962Z</time></trkpt><trkpt lat="41.3947219" lon="13.154875"><ele>7.0</ele><time>2026-03-25T11:17:39.962Z</time></trkpt><trkpt lat="41.3945539" lon="13.1547505"><ele>7.0</ele><time>2026-03-25T11:17:40.955Z</time></trkpt><trkpt lat="41.3943885" lon="13.1546227"><ele>6.333333333333334</ele><time>2026-03-25T11:17:41.962Z</time></trkpt><trkpt lat="41.39422" lon="13.1544911"><ele>5.666666666666667</ele><time>2026-03-25T11:17:42.961Z</time></trkpt><trkpt lat="41.3940503" lon="13.1543555"><ele>5.0</ele><time>2026-03-25T11:17:43.971Z</time></trkpt><trkpt lat="41.3938794" lon="13.1542132"><ele>5.333333333333334</ele><time>2026-03-25T11:17:44.961Z</time></trkpt><trkpt lat="41.3937052" lon="13.1540689"><ele>5.666666666666667</ele><time>2026-03-25T11:17:45.968Z</time></trkpt><trkpt lat="41.393535" lon="13.1539237"><ele>6.0</ele><time>2026-03-25T11:17:46.961Z</time></trkpt><trkpt lat="41.3933608" lon="13.1537762"><ele>6.0</ele><time>2026-03-25T11:17:47.959Z</time></trkpt><trkpt lat="41.3931879" lon="13.153622"><ele>6.0</ele><time>2026-03-25T11:17:48.956Z</time></trkpt><trkpt lat="41.3930159" lon="13.153463"><ele>6.0</ele><time>2026-03-25T11:17:49.962Z</time></trkpt><trkpt lat="41.3928471" lon="13.153298"><ele>5.666666666666667</ele><time>2026-03-25T11:17:50.964Z</time></trkpt><trkpt lat="41.3926775" lon="13.1531332"><ele>5.333333333333334</ele><time>2026-03-25T11:17:51.961Z</time></trkpt><trkpt lat="41.3925077" lon="13.1529689"><ele>5.0</ele><time>2026-03-25T11:17:52.978Z</time></trkpt><trkpt lat="41.3923366" lon="13.1528047"><ele>5.0</ele><time>2026-03-25T11:17:53.959Z</time></trkpt><trkpt lat="41.3921651" lon="13.1526401"><ele>5.0</ele><time>2026-03-25T11:17:54.958Z</time></trkpt><trkpt lat="41.3919944" lon="13.1524744"><ele>5.0</ele><time>2026-03-25T11:17:55.963Z</time></trkpt><trkpt lat="41.3918226" lon="13.1523086"><ele>4.666666666666667</ele><time>2026-03-25T11:17:56.96Z</time></trkpt><trkpt lat="41.3916498" lon="13.1521441"><ele>4.333333333333333</ele><time>2026-03-25T11:17:57.959Z</time></trkpt><trkpt lat="41.3914775" lon="13.151978"><ele>4.0</ele><time>2026-03-25T11:17:58.975Z</time></trkpt><trkpt lat="41.3913064" lon="13.1518092"><ele>4.0</ele><time>2026-03-25T11:17:59.957Z</time></trkpt><trkpt lat="41.391135" lon="13.1516408"><ele>4.0</ele><time>2026-03-25T11:18:00.958Z</time></trkpt><trkpt lat="41.3909632" lon="13.1514735"><ele>4.0</ele><time>2026-03-25T11:18:01.952Z</time></trkpt><trkpt lat="41.3907909" lon="13.1513077"><ele>4.333333333333333</ele><time>2026-03-25T11:18:02.961Z</time></trkpt><trkpt lat="41.390619" lon="13.1511422"><ele>4.666666666666667</ele><time>2026-03-25T11:18:03.959Z</time></trkpt><trkpt lat="41.3904463" lon="13.1509759"><ele>5.0</ele><time>2026-03-25T11:18:04.963Z</time></trkpt><trkpt lat="41.3902746" lon="13.1508088"><ele>4.666666666666667</ele><time>2026-03-25T11:18:05.957Z</time></trkpt><trkpt lat="41.3901017" lon="13.1506416"><ele>4.333333333333333</ele><time>2026-03-25T11:18:06.964Z</time></trkpt><trkpt lat="41.3899278" lon="13.1504754"><ele>4.0</ele><time>2026-03-25T11:18:07.963Z</time></trkpt><trkpt lat="41.3897544" lon="13.1503091"><ele>4.0</ele><time>2026-03-25T11:18:08.96Z</time></trkpt><trkpt lat="41.3895799" lon="13.1501419"><ele>4.0</ele><time>2026-03-25T11:18:09.961Z</time></trkpt><trkpt lat="41.3894057" lon="13.1499738"><ele>4.0</ele><time>2026-03-25T11:18:10.964Z</time></trkpt><trkpt lat="41.3892313" lon="13.1498052"><ele>4.0</ele><time>2026-03-25T11:18:11.959Z</time></trkpt><trkpt lat="41.3890561" lon="13.149636"><ele>4.0</ele><time>2026-03-25T11:18:12.959Z</time></trkpt><trkpt lat="41.3888799" lon="13.149465"><ele>4.0</ele><time>2026-03-25T11:18:13.962Z</time></trkpt><trkpt lat="41.388705" lon="13.1492948"><ele>4.0</ele><time>2026-03-25T11:18:14.961Z</time></trkpt><trkpt lat="41.3885336" lon="13.149124"><ele>4.0</ele><time>2026-03-25T11:18:15.96Z</time></trkpt><trkpt lat="41.3883657" lon="13.14895"><ele>4.0</ele><time>2026-03-25T11:18:16.959Z</time></trkpt><trkpt lat="41.3882" lon="13.1487724"><ele>4.0</ele><time>2026-03-25T11:18:17.963Z</time></trkpt><trkpt lat="41.3880348" lon="13.148591"><ele>4.0</ele><time>2026-03-25T11:18:18.959Z</time></trkpt><trkpt lat="41.3878732" lon="13.1484017"><ele>4.0</ele><time>2026-03-25T11:18:19.958Z</time></trkpt><trkpt lat="41.3877169" lon="13.1482023"><ele>4.333333333333333</ele><time>2026-03-25T11:18:20.968Z</time></trkpt><trkpt lat="41.3875638" lon="13.1479949"><ele>4.666666666666667</ele><time>2026-03-25T11:18:21.965Z</time></trkpt><trkpt lat="41.3874112" lon="13.1477845"><ele>5.0</ele><time>2026-03-25T11:18:22.965Z</time></trkpt><trkpt lat="41.3872591" lon="13.1475705"><ele>4.666666666666667</ele><time>2026-03-25T11:18:23.964Z</time></trkpt><trkpt lat="41.3871077" lon="13.1473546"><ele>4.333333333333333</ele><time>2026-03-25T11:18:24.959Z</time></trkpt><trkpt lat="41.3869541" lon="13.1471395"><ele>4.0</ele><time>2026-03-25T11:18:25.962Z</time></trkpt><trkpt lat="41.3867987" lon="13.1469237"><ele>4.0</ele><time>2026-03-25T11:18:26.956Z</time></trkpt><trkpt lat="41.3866417" lon="13.1467052"><ele>4.0</ele><time>2026-03-25T11:18:27.965Z</time></trkpt><trkpt lat="41.3864806" lon="13.1464834"><ele>3.5</ele><time>2026-03-25T11:18:28.957Z</time></trkpt><trkpt lat="41.3863199" lon="13.1462608"><ele>3.0</ele><time>2026-03-25T11:18:29.966Z</time></trkpt><trkpt lat="41.3861608" lon="13.1460377"><ele>3.0</ele><time>2026-03-25T11:18:30.97Z</time></trkpt><trkpt lat="41.386002" lon="13.1458138"><ele>3.0</ele><time>2026-03-25T11:18:31.962Z</time></trkpt><trkpt lat="41.3858422" lon="13.1455901"><ele>2.5</ele><time>2026-03-25T11:18:32.963Z</time></trkpt><trkpt lat="41.3856823" lon="13.1453642"><ele>2.0</ele><time>2026-03-25T11:18:33.954Z</time></trkpt><trkpt lat="41.3855211" lon="13.1451378"><ele>2.5</ele><time>2026-03-25T11:18:34.952Z</time></trkpt><trkpt lat="41.385358" lon="13.1449124"><ele>3.0</ele><time>2026-03-25T11:18:35.953Z</time></trkpt><trkpt lat="41.385195" lon="13.1446869"><ele>3.0</ele><time>2026-03-25T11:18:36.958Z</time></trkpt><trkpt lat="41.385032" lon="13.144459"><ele>3.0</ele><time>2026-03-25T11:18:37.957Z</time></trkpt><trkpt lat="41.3848693" lon="13.1442295"><ele>3.5</ele><time>2026-03-25T11:18:38.959Z</time></trkpt><trkpt lat="41.3847064" lon="13.1440008"><ele>4.0</ele><time>2026-03-25T11:18:39.956Z</time></trkpt><trkpt lat="41.3845436" lon="13.1437731"><ele>4.5</ele><time>2026-03-25T11:18:40.959Z</time></trkpt><trkpt lat="41.3843806" lon="13.1435465"><ele>5.0</ele><time>2026-03-25T11:18:41.957Z</time></trkpt><trkpt lat="41.3842177" lon="13.1433211"><ele>4.5</ele><time>2026-03-25T11:18:42.955Z</time></trkpt><trkpt lat="41.384056" lon="13.1430956"><ele>4.0</ele><time>2026-03-25T11:18:43.957Z</time></trkpt><trkpt lat="41.3838939" lon="13.1428696"><ele>3.5</ele><time>2026-03-25T11:18:44.974Z</time></trkpt><trkpt lat="41.3837333" lon="13.1426458"><ele>3.0</ele><time>2026-03-25T11:18:45.964Z</time></trkpt><trkpt lat="41.3835703" lon="13.1424172"><ele>2.5</ele><time>2026-03-25T11:18:46.967Z</time></trkpt><trkpt lat="41.3834052" lon="13.1421872"><ele>2.0</ele><time>2026-03-25T11:18:47.968Z</time></trkpt><trkpt lat="41.3832389" lon="13.1419578"><ele>2.0</ele><time>2026-03-25T11:18:48.968Z</time></trkpt><trkpt lat="41.3830724" lon="13.1417302"><ele>2.0</ele><time>2026-03-25T11:18:49.966Z</time></trkpt><trkpt lat="41.382908" lon="13.1415001"><ele>2.0</ele><time>2026-03-25T11:18:50.961Z</time></trkpt><trkpt lat="41.3827431" lon="13.1412683"><ele>2.0</ele><time>2026-03-25T11:18:51.968Z</time></trkpt><trkpt lat="41.3825788" lon="13.1410372"><ele>2.0</ele><time>2026-03-25T11:18:52.971Z</time></trkpt><trkpt lat="41.3824151" lon="13.1408073"><ele>2.0</ele><time>2026-03-25T11:18:53.964Z</time></trkpt><trkpt lat="41.3822495" lon="13.1405758"><ele>2.0</ele><time>2026-03-25T11:18:54.964Z</time></trkpt><trkpt lat="41.3820831" lon="13.1403434"><ele>2.0</ele><time>2026-03-25T11:18:55.961Z</time></trkpt><trkpt lat="41.3819149" lon="13.1401101"><ele>2.5</ele><time>2026-03-25T11:18:56.974Z</time></trkpt><trkpt lat="41.3817483" lon="13.1398791"><ele>3.0</ele><time>2026-03-25T11:18:57.966Z</time></trkpt><trkpt lat="41.3815811" lon="13.1396463"><ele>3.0</ele><time>2026-03-25T11:18:58.965Z</time></trkpt><trkpt lat="41.3814156" lon="13.1394139"><ele>3.0</ele><time>2026-03-25T11:18:59.968Z</time></trkpt><trkpt lat="41.3812536" lon="13.1391845"><ele>4.0</ele><time>2026-03-25T11:19:00.963Z</time></trkpt><trkpt lat="41.3810919" lon="13.1389565"><ele>5.0</ele><time>2026-03-25T11:19:01.975Z</time></trkpt><trkpt lat="41.3809326" lon="13.1387342"><ele>5.0</ele><time>2026-03-25T11:19:02.956Z</time></trkpt><trkpt lat="41.3807721" lon="13.1385106"><ele>5.0</ele><time>2026-03-25T11:19:03.957Z</time></trkpt><trkpt lat="41.3806119" lon="13.1382878"><ele>5.0</ele><time>2026-03-25T11:19:04.964Z</time></trkpt><trkpt lat="41.3804526" lon="13.1380655"><ele>5.0</ele><time>2026-03-25T11:19:05.96Z</time></trkpt><trkpt lat="41.3802927" lon="13.1378413"><ele>5.0</ele><time>2026-03-25T11:19:06.957Z</time></trkpt><trkpt lat="41.3801314" lon="13.1376157"><ele>5.0</ele><time>2026-03-25T11:19:07.966Z</time></trkpt><trkpt lat="41.3799693" lon="13.1373905"><ele>5.0</ele><time>2026-03-25T11:19:08.969Z</time></trkpt><trkpt lat="41.3798065" lon="13.1371656"><ele>5.0</ele><time>2026-03-25T11:19:09.959Z</time></trkpt><trkpt lat="41.3796425" lon="13.1369402"><ele>5.0</ele><time>2026-03-25T11:19:10.96Z</time></trkpt><trkpt lat="41.3794815" lon="13.1367127"><ele>5.0</ele><time>2026-03-25T11:19:11.961Z</time></trkpt><trkpt lat="41.3793211" lon="13.1364863"><ele>5.0</ele><time>2026-03-25T11:19:12.958Z</time></trkpt><trkpt lat="41.3791602" lon="13.1362601"><ele>5.0</ele><time>2026-03-25T11:19:13.956Z</time></trkpt><trkpt lat="41.3789982" lon="13.1360329"><ele>4.5</ele><time>2026-03-25T11:19:14.962Z</time></trkpt><trkpt lat="41.3788367" lon="13.1358063"><ele>4.0</ele><time>2026-03-25T11:19:15.956Z</time></trkpt><trkpt lat="41.3786738" lon="13.1355773"><ele>4.0</ele><time>2026-03-25T11:19:16.963Z</time></trkpt><trkpt lat="41.378517" lon="13.1353573"><ele>4.0</ele><time>2026-03-25T11:19:17.967Z</time></trkpt><trkpt lat="41.3783728" lon="13.135157"><ele>4.0</ele><time>2026-03-25T11:19:18.957Z</time></trkpt><trkpt lat="41.3782379" lon="13.1349696"><ele>4.0</ele><time>2026-03-25T11:19:19.98Z</time></trkpt><trkpt lat="41.3781111" lon="13.1347912"><ele>4.0</ele><time>2026-03-25T11:19:20.958Z</time></trkpt><trkpt lat="41.3779831" lon="13.1346123"><ele>4.0</ele><time>2026-03-25T11:19:21.959Z</time></trkpt><trkpt lat="41.3778556" lon="13.1344375"><ele>4.0</ele><time>2026-03-25T11:19:22.958Z</time></trkpt><trkpt lat="41.37773" lon="13.134264"><ele>4.0</ele><time>2026-03-25T11:19:23.962Z</time></trkpt><trkpt lat="41.3776074" lon="13.1340902"><ele>4.0</ele><time>2026-03-25T11:19:24.962Z</time></trkpt><trkpt lat="41.3774818" lon="13.1339156"><ele>4.0</ele><time>2026-03-25T11:19:25.959Z</time></trkpt><trkpt lat="41.3773498" lon="13.1337356"><ele>4.0</ele><time>2026-03-25T11:19:26.968Z</time></trkpt><trkpt lat="41.3772162" lon="13.1335486"><ele>4.0</ele><time>2026-03-25T11:19:27.961Z</time></trkpt><trkpt lat="41.3770808" lon="13.1333511"><ele>3.6666666666666665</ele><time>2026-03-25T11:19:28.976Z</time></trkpt><trkpt lat="41.3769427" lon="13.1331524"><ele>3.333333333333333</ele><time>2026-03-25T11:19:29.963Z</time></trkpt><trkpt lat="41.3767956" lon="13.1329515"><ele>3.0</ele><time>2026-03-25T11:19:30.965Z</time></trkpt><trkpt lat="41.3766459" lon="13.1327491"><ele>3.0</ele><time>2026-03-25T11:19:31.961Z</time></trkpt><trkpt lat="41.3764976" lon="13.1325468"><ele>3.0</ele><time>2026-03-25T11:19:32.961Z</time></trkpt><trkpt lat="41.3763514" lon="13.1323477"><ele>3.0</ele><time>2026-03-25T11:19:33.964Z</time></trkpt><trkpt lat="41.376205" lon="13.1321476"><ele>3.0</ele><time>2026-03-25T11:19:34.959Z</time></trkpt><trkpt lat="41.3760594" lon="13.1319446"><ele>3.0</ele><time>2026-03-25T11:19:35.969Z</time></trkpt><trkpt lat="41.3759267" lon="13.1317548"><ele>3.0</ele><time>2026-03-25T11:19:36.962Z</time></trkpt><trkpt lat="41.3758029" lon="13.1315801"><ele>2.6666666666666665</ele><time>2026-03-25T11:19:37.958Z</time></trkpt><trkpt lat="41.3756767" lon="13.1314054"><ele>2.333333333333333</ele><time>2026-03-25T11:19:38.974Z</time></trkpt><trkpt lat="41.3755455" lon="13.1312255"><ele>2.0</ele><time>2026-03-25T11:19:39.96Z</time></trkpt><trkpt lat="41.3754084" lon="13.1310336"><ele>2.6666666666666665</ele><time>2026-03-25T11:19:40.96Z</time></trkpt><trkpt lat="41.3752639" lon="13.1308351"><ele>3.333333333333333</ele><time>2026-03-25T11:19:41.959Z</time></trkpt><trkpt lat="41.3751102" lon="13.1306317"><ele>4.0</ele><time>2026-03-25T11:19:42.962Z</time></trkpt><trkpt lat="41.3749539" lon="13.1304211"><ele>4.0</ele><time>2026-03-25T11:19:43.96Z</time></trkpt><trkpt lat="41.3748011" lon="13.1302002"><ele>4.0</ele><time>2026-03-25T11:19:44.966Z</time></trkpt><trkpt lat="41.3746503" lon="13.1299758"><ele>3.5</ele><time>2026-03-25T11:19:45.961Z</time></trkpt><trkpt lat="41.374497" lon="13.1297479"><ele>3.0</ele><time>2026-03-25T11:19:46.968Z</time></trkpt><trkpt lat="41.3743407" lon="13.129523"><ele>3.0</ele><time>2026-03-25T11:19:47.963Z</time></trkpt><trkpt lat="41.3741813" lon="13.1292972"><ele>3.0</ele><time>2026-03-25T11:19:48.967Z</time></trkpt><trkpt lat="41.374019" lon="13.1290736"><ele>3.0</ele><time>2026-03-25T11:19:49.964Z</time></trkpt><trkpt lat="41.373857" lon="13.128849"><ele>3.0</ele><time>2026-03-25T11:19:50.966Z</time></trkpt><trkpt lat="41.3736943" lon="13.1286236"><ele>2.5</ele><time>2026-03-25T11:19:51.956Z</time></trkpt><trkpt lat="41.3735315" lon="13.1283962"><ele>2.0</ele><time>2026-03-25T11:19:52.963Z</time></trkpt><trkpt lat="41.3733674" lon="13.1281677"><ele>1.5</ele><time>2026-03-25T11:19:53.961Z</time></trkpt><trkpt lat="41.3732018" lon="13.1279386"><ele>1.0</ele><time>2026-03-25T11:19:54.966Z</time></trkpt><trkpt lat="41.3730355" lon="13.1277095"><ele>1.5</ele><time>2026-03-25T11:19:55.959Z</time></trkpt><trkpt lat="41.3728694" lon="13.1274795"><ele>2.0</ele><time>2026-03-25T11:19:56.968Z</time></trkpt><trkpt lat="41.3727028" lon="13.1272479"><ele>2.5</ele><time>2026-03-25T11:19:57.958Z</time></trkpt><trkpt lat="41.3725359" lon="13.1270143"><ele>3.0</ele><time>2026-03-25T11:19:58.967Z</time></trkpt><trkpt lat="41.3723686" lon="13.1267774"><ele>3.5</ele><time>2026-03-25T11:19:59.959Z</time></trkpt><trkpt lat="41.3722002" lon="13.1265411"><ele>4.0</ele><time>2026-03-25T11:20:00.965Z</time></trkpt><trkpt lat="41.37203" lon="13.126305"><ele>5.0</ele><time>2026-03-25T11:20:01.96Z</time></trkpt><trkpt lat="41.3718594" lon="13.1260671"><ele>6.0</ele><time>2026-03-25T11:20:02.961Z</time></trkpt><trkpt lat="41.3716897" lon="13.1258307"><ele>5.5</ele><time>2026-03-25T11:20:03.964Z</time></trkpt><trkpt lat="41.3715214" lon="13.1255984"><ele>5.0</ele><time>2026-03-25T11:20:04.972Z</time></trkpt><trkpt lat="41.3713626" lon="13.1253797"><ele>4.666666666666667</ele><time>2026-03-25T11:20:05.962Z</time></trkpt><trkpt lat="41.3712155" lon="13.1251756"><ele>4.333333333333333</ele><time>2026-03-25T11:20:06.966Z</time></trkpt><trkpt lat="41.3710691" lon="13.1249721"><ele>4.0</ele><time>2026-03-25T11:20:07.958Z</time></trkpt><trkpt lat="41.370917" lon="13.1247676"><ele>4.0</ele><time>2026-03-25T11:20:08.958Z</time></trkpt><trkpt lat="41.3707636" lon="13.1245617"><ele>4.0</ele><time>2026-03-25T11:20:09.96Z</time></trkpt><trkpt lat="41.3706204" lon="13.1243667"><ele>4.0</ele><time>2026-03-25T11:20:10.954Z</time></trkpt><trkpt lat="41.3704873" lon="13.124187"><ele>4.333333333333333</ele><time>2026-03-25T11:20:11.974Z</time></trkpt><trkpt lat="41.3703532" lon="13.1240394"><ele>4.666666666666667</ele><time>2026-03-25T11:20:12.955Z</time></trkpt><trkpt lat="41.3702288" lon="13.1238891"><ele>5.0</ele><time>2026-03-25T11:20:13.962Z</time></trkpt><trkpt lat="41.3701137" lon="13.1237363"><ele>5.0</ele><time>2026-03-25T11:20:14.961Z</time></trkpt><trkpt lat="41.370019" lon="13.1236019"><ele>5.0</ele><time>2026-03-25T11:20:15.963Z</time></trkpt><trkpt lat="41.3699375" lon="13.1234873"><ele>5.0</ele><time>2026-03-25T11:20:16.969Z</time></trkpt><trkpt lat="41.3698696" lon="13.123386"><ele>5.0</ele><time>2026-03-25T11:20:17.972Z</time></trkpt><trkpt lat="41.369814" lon="13.1233024"><ele>5.0</ele><time>2026-03-25T11:20:18.977Z</time></trkpt><trkpt lat="41.3697673" lon="13.1232378"><ele>4.666666666666667</ele><time>2026-03-25T11:20:19.973Z</time></trkpt><trkpt lat="41.3696846" lon="13.1231345"><ele>4.333333333333334</ele><time>2026-03-25T11:20:21.961Z</time></trkpt><trkpt lat="41.3696352" lon="13.1230733"><ele>4.0</ele><time>2026-03-25T11:20:22.965Z</time></trkpt><trkpt lat="41.3695859" lon="13.1230064"><ele>3.666666666666667</ele><time>2026-03-25T11:20:23.963Z</time></trkpt><trkpt lat="41.3695306" lon="13.1229277"><ele>3.3333333333333335</ele><time>2026-03-25T11:20:24.962Z</time></trkpt><trkpt lat="41.3694697" lon="13.1228317"><ele>3.0</ele><time>2026-03-25T11:20:25.962Z</time></trkpt><trkpt lat="41.369412" lon="13.1227144"><ele>3.0</ele><time>2026-03-25T11:20:26.966Z</time></trkpt><trkpt lat="41.3693391" lon="13.1225809"><ele>3.0</ele><time>2026-03-25T11:20:27.968Z</time></trkpt><trkpt lat="41.3692448" lon="13.1224323"><ele>3.0</ele><time>2026-03-25T11:20:28.961Z</time></trkpt><trkpt lat="41.3691321" lon="13.1222691"><ele>3.0</ele><time>2026-03-25T11:20:29.962Z</time></trkpt><trkpt lat="41.3690163" lon="13.1221047"><ele>3.0</ele><time>2026-03-25T11:20:30.966Z</time></trkpt><trkpt lat="41.3688968" lon="13.1219327"><ele>3.0</ele><time>2026-03-25T11:20:31.965Z</time></trkpt><trkpt lat="41.3687642" lon="13.1217463"><ele>3.0</ele><time>2026-03-25T11:20:32.963Z</time></trkpt><trkpt lat="41.3686351" lon="13.1215553"><ele>3.0</ele><time>2026-03-25T11:20:33.96Z</time></trkpt><trkpt lat="41.3684932" lon="13.1213571"><ele>3.0</ele><time>2026-03-25T11:20:34.965Z</time></trkpt><trkpt lat="41.3683493" lon="13.1211569"><ele>3.0</ele><time>2026-03-25T11:20:35.964Z</time></trkpt><trkpt lat="41.3682086" lon="13.1209591"><ele>3.0</ele><time>2026-03-25T11:20:36.966Z</time></trkpt><trkpt lat="41.3680679" lon="13.120766"><ele>3.0</ele><time>2026-03-25T11:20:37.965Z</time></trkpt><trkpt lat="41.3679317" lon="13.1205724"><ele>3.0</ele><time>2026-03-25T11:20:38.965Z</time></trkpt><trkpt lat="41.367795" lon="13.1203762"><ele>3.333333333333333</ele><time>2026-03-25T11:20:39.967Z</time></trkpt><trkpt lat="41.367658" lon="13.1201777"><ele>3.6666666666666665</ele><time>2026-03-25T11:20:40.963Z</time></trkpt><trkpt lat="41.3675244" lon="13.1199926"><ele>4.0</ele><time>2026-03-25T11:20:41.973Z</time></trkpt><trkpt lat="41.3673928" lon="13.1198107"><ele>3.6666666666666665</ele><time>2026-03-25T11:20:42.964Z</time></trkpt><trkpt lat="41.3672601" lon="13.119631"><ele>3.333333333333333</ele><time>2026-03-25T11:20:43.964Z</time></trkpt><trkpt lat="41.3671283" lon="13.11945"><ele>3.0</ele><time>2026-03-25T11:20:44.967Z</time></trkpt><trkpt lat="41.3669974" lon="13.1192662"><ele>3.0</ele><time>2026-03-25T11:20:45.961Z</time></trkpt><trkpt lat="41.3668676" lon="13.1190797"><ele>3.0</ele><time>2026-03-25T11:20:46.967Z</time></trkpt><trkpt lat="41.3667365" lon="13.118889"><ele>3.0</ele><time>2026-03-25T11:20:47.966Z</time></trkpt><trkpt lat="41.3666008" lon="13.1186992"><ele>3.0</ele><time>2026-03-25T11:20:48.965Z</time></trkpt><trkpt lat="41.3664648" lon="13.1185108"><ele>3.0</ele><time>2026-03-25T11:20:49.967Z</time></trkpt><trkpt lat="41.3663351" lon="13.1183321"><ele>3.0</ele><time>2026-03-25T11:20:50.959Z</time></trkpt><trkpt lat="41.3662152" lon="13.118167"><ele>3.0</ele><time>2026-03-25T11:20:51.973Z</time></trkpt><trkpt lat="41.3661007" lon="13.1180113"><ele>3.0</ele><time>2026-03-25T11:20:52.961Z</time></trkpt><trkpt lat="41.3659905" lon="13.1178562"><ele>3.0</ele><time>2026-03-25T11:20:53.957Z</time></trkpt><trkpt lat="41.3658838" lon="13.1177065"><ele>3.0</ele><time>2026-03-25T11:20:54.966Z</time></trkpt><trkpt lat="41.3657828" lon="13.1175667"><ele>3.0</ele><time>2026-03-25T11:20:55.962Z</time></trkpt><trkpt lat="41.3656885" lon="13.1174328"><ele>3.0</ele><time>2026-03-25T11:20:56.968Z</time></trkpt><trkpt lat="41.3656006" lon="13.1173107"><ele>3.0</ele><time>2026-03-25T11:20:57.969Z</time></trkpt><trkpt lat="41.3655204" lon="13.1172043"><ele>3.0</ele><time>2026-03-25T11:20:58.961Z</time></trkpt><trkpt lat="41.3654446" lon="13.1171036"><ele>3.0</ele><time>2026-03-25T11:20:59.968Z</time></trkpt><trkpt lat="41.365373" lon="13.1169992"><ele>3.0</ele><time>2026-03-25T11:21:00.961Z</time></trkpt><trkpt lat="41.3652972" lon="13.11689"><ele>3.0</ele><time>2026-03-25T11:21:01.964Z</time></trkpt><trkpt lat="41.3652205" lon="13.1167724"><ele>3.0</ele><time>2026-03-25T11:21:02.965Z</time></trkpt><trkpt lat="41.3651427" lon="13.1166471"><ele>2.5</ele><time>2026-03-25T11:21:03.963Z</time></trkpt><trkpt lat="41.3650586" lon="13.1165128"><ele>2.0</ele><time>2026-03-25T11:21:04.973Z</time></trkpt><trkpt lat="41.3649686" lon="13.1163746"><ele>1.5</ele><time>2026-03-25T11:21:05.963Z</time></trkpt><trkpt lat="41.3648693" lon="13.1162301"><ele>1.0</ele><time>2026-03-25T11:21:06.97Z</time></trkpt><trkpt lat="41.3647607" lon="13.1160729"><ele>2.0</ele><time>2026-03-25T11:21:07.966Z</time></trkpt><trkpt lat="41.3646479" lon="13.1159113"><ele>3.0</ele><time>2026-03-25T11:21:08.965Z</time></trkpt><trkpt lat="41.3645326" lon="13.1157483"><ele>4.0</ele><time>2026-03-25T11:21:09.973Z</time></trkpt><trkpt lat="41.3644109" lon="13.1155792"><ele>4.0</ele><time>2026-03-25T11:21:10.963Z</time></trkpt><trkpt lat="41.364286" lon="13.1154042"><ele>4.0</ele><time>2026-03-25T11:21:11.973Z</time></trkpt><trkpt lat="41.3641558" lon="13.1152216"><ele>4.0</ele><time>2026-03-25T11:21:12.961Z</time></trkpt><trkpt lat="41.3640191" lon="13.1150315"><ele>3.6666666666666665</ele><time>2026-03-25T11:21:13.97Z</time></trkpt><trkpt lat="41.3638742" lon="13.114837"><ele>3.333333333333333</ele><time>2026-03-25T11:21:14.973Z</time></trkpt><trkpt lat="41.3637211" lon="13.1146352"><ele>3.0</ele><time>2026-03-25T11:21:15.965Z</time></trkpt><trkpt lat="41.3635631" lon="13.1144218"><ele>3.0</ele><time>2026-03-25T11:21:16.968Z</time></trkpt><trkpt lat="41.363404" lon="13.1141982"><ele>3.0</ele><time>2026-03-25T11:21:17.964Z</time></trkpt><trkpt lat="41.3632457" lon="13.1139675"><ele>3.0</ele><time>2026-03-25T11:21:18.966Z</time></trkpt><trkpt lat="41.3630887" lon="13.113732"><ele>3.0</ele><time>2026-03-25T11:21:19.968Z</time></trkpt><trkpt lat="41.362931" lon="13.1134954"><ele>3.5</ele><time>2026-03-25T11:21:20.966Z</time></trkpt><trkpt lat="41.3627704" lon="13.1132603"><ele>4.0</ele><time>2026-03-25T11:21:21.967Z</time></trkpt><trkpt lat="41.3626072" lon="13.1130267"><ele>4.0</ele><time>2026-03-25T11:21:22.964Z</time></trkpt><trkpt lat="41.3624441" lon="13.1127946"><ele>4.0</ele><time>2026-03-25T11:21:23.969Z</time></trkpt><trkpt lat="41.3622779" lon="13.1125673"><ele>4.0</ele><time>2026-03-25T11:21:24.963Z</time></trkpt><trkpt lat="41.3621105" lon="13.1123349"><ele>4.0</ele><time>2026-03-25T11:21:25.968Z</time></trkpt><trkpt lat="41.3619481" lon="13.1121046"><ele>4.0</ele><time>2026-03-25T11:21:26.965Z</time></trkpt><trkpt lat="41.3617852" lon="13.1118758"><ele>4.0</ele><time>2026-03-25T11:21:27.967Z</time></trkpt><trkpt lat="41.3616218" lon="13.1116466"><ele>4.0</ele><time>2026-03-25T11:21:28.969Z</time></trkpt><trkpt lat="41.3614587" lon="13.1114205"><ele>4.0</ele><time>2026-03-25T11:21:29.96Z</time></trkpt><trkpt lat="41.3612926" lon="13.111196"><ele>4.0</ele><time>2026-03-25T11:21:30.971Z</time></trkpt><trkpt lat="41.3611271" lon="13.1109649"><ele>4.0</ele><time>2026-03-25T11:21:31.959Z</time></trkpt><trkpt lat="41.3609575" lon="13.1107375"><ele>4.5</ele><time>2026-03-25T11:21:32.961Z</time></trkpt><trkpt lat="41.3607895" lon="13.1105041"><ele>5.0</ele><time>2026-03-25T11:21:33.969Z</time></trkpt><trkpt lat="41.360623" lon="13.1102733"><ele>5.0</ele><time>2026-03-25T11:21:34.964Z</time></trkpt><trkpt lat="41.3604571" lon="13.1100399"><ele>5.0</ele><time>2026-03-25T11:21:35.972Z</time></trkpt><trkpt lat="41.3602912" lon="13.1098044"><ele>5.0</ele><time>2026-03-25T11:21:36.969Z</time></trkpt><trkpt lat="41.3601262" lon="13.1095698"><ele>5.0</ele><time>2026-03-25T11:21:37.963Z</time></trkpt><trkpt lat="41.359959" lon="13.1093338"><ele>5.0</ele><time>2026-03-25T11:21:38.96Z</time></trkpt><trkpt lat="41.3597928" lon="13.1090979"><ele>5.0</ele><time>2026-03-25T11:21:39.969Z</time></trkpt><trkpt lat="41.3596261" lon="13.1088625"><ele>5.0</ele><time>2026-03-25T11:21:40.979Z</time></trkpt><trkpt lat="41.3594606" lon="13.1086272"><ele>5.0</ele><time>2026-03-25T11:21:41.96Z</time></trkpt><trkpt lat="41.3592924" lon="13.1083921"><ele>4.5</ele><time>2026-03-25T11:21:42.964Z</time></trkpt><trkpt lat="41.3591261" lon="13.1081553"><ele>4.0</ele><time>2026-03-25T11:21:43.956Z</time></trkpt><trkpt lat="41.3589595" lon="13.1079173"><ele>4.5</ele><time>2026-03-25T11:21:44.958Z</time></trkpt><trkpt lat="41.3587915" lon="13.1076792"><ele>5.0</ele><time>2026-03-25T11:21:45.96Z</time></trkpt><trkpt lat="41.3586238" lon="13.1074414"><ele>5.0</ele><time>2026-03-25T11:21:46.958Z</time></trkpt><trkpt lat="41.3584561" lon="13.1072043"><ele>5.0</ele><time>2026-03-25T11:21:47.966Z</time></trkpt><trkpt lat="41.3582877" lon="13.1069652"><ele>5.0</ele><time>2026-03-25T11:21:48.966Z</time></trkpt><trkpt lat="41.358119" lon="13.1067261"><ele>5.0</ele><time>2026-03-25T11:21:49.96Z</time></trkpt><trkpt lat="41.3579491" lon="13.1064871"><ele>7.0</ele><time>2026-03-25T11:21:50.967Z</time></trkpt><trkpt lat="41.3577793" lon="13.1062487"><ele>9.0</ele><time>2026-03-25T11:21:51.963Z</time></trkpt><trkpt lat="41.3576103" lon="13.1060127"><ele>9.0</ele><time>2026-03-25T11:21:52.973Z</time></trkpt><trkpt lat="41.3574431" lon="13.1057776"><ele>9.0</ele><time>2026-03-25T11:21:53.967Z</time></trkpt><trkpt lat="41.3572766" lon="13.1055421"><ele>7.5</ele><time>2026-03-25T11:21:54.963Z</time></trkpt><trkpt lat="41.3571094" lon="13.1053086"><ele>6.0</ele><time>2026-03-25T11:21:55.964Z</time></trkpt><trkpt lat="41.3569406" lon="13.1050755"><ele>5.5</ele><time>2026-03-25T11:21:56.969Z</time></trkpt><trkpt lat="41.3567727" lon="13.1048429"><ele>5.0</ele><time>2026-03-25T11:21:57.964Z</time></trkpt><trkpt lat="41.3566057" lon="13.1046091"><ele>5.0</ele><time>2026-03-25T11:21:58.984Z</time></trkpt><trkpt lat="41.3564397" lon="13.1043738"><ele>5.0</ele><time>2026-03-25T11:21:59.969Z</time></trkpt><trkpt lat="41.3562726" lon="13.10414"><ele>5.5</ele><time>2026-03-25T11:22:00.963Z</time></trkpt><trkpt lat="41.3561056" lon="13.1039057"><ele>6.0</ele><time>2026-03-25T11:22:01.96Z</time></trkpt><trkpt lat="41.3559394" lon="13.103671"><ele>6.0</ele><time>2026-03-25T11:22:02.965Z</time></trkpt><trkpt lat="41.3557749" lon="13.1034357"><ele>6.0</ele><time>2026-03-25T11:22:03.959Z</time></trkpt><trkpt lat="41.35561" lon="13.103202"><ele>6.5</ele><time>2026-03-25T11:22:04.964Z</time></trkpt><trkpt lat="41.355444" lon="13.1029686"><ele>7.0</ele><time>2026-03-25T11:22:05.963Z</time></trkpt><trkpt lat="41.3552772" lon="13.1027354"><ele>7.0</ele><time>2026-03-25T11:22:06.966Z</time></trkpt><trkpt lat="41.3551103" lon="13.1025021"><ele>7.0</ele><time>2026-03-25T11:22:07.958Z</time></trkpt><trkpt lat="41.3549431" lon="13.1022673"><ele>6.5</ele><time>2026-03-25T11:22:08.967Z</time></trkpt><trkpt lat="41.3547765" lon="13.1020317"><ele>6.0</ele><time>2026-03-25T11:22:09.969Z</time></trkpt><trkpt lat="41.3546111" lon="13.1017953"><ele>7.0</ele><time>2026-03-25T11:22:10.965Z</time></trkpt><trkpt lat="41.3544468" lon="13.1015593"><ele>8.0</ele><time>2026-03-25T11:22:11.969Z</time></trkpt><trkpt lat="41.3542819" lon="13.1013288"><ele>8.0</ele><time>2026-03-25T11:22:12.956Z</time></trkpt><trkpt lat="41.3541186" lon="13.1010995"><ele>8.0</ele><time>2026-03-25T11:22:13.958Z</time></trkpt><trkpt lat="41.3539559" lon="13.1008698"><ele>6.5</ele><time>2026-03-25T11:22:14.964Z</time></trkpt><trkpt lat="41.3537929" lon="13.1006413"><ele>5.0</ele><time>2026-03-25T11:22:15.962Z</time></trkpt><trkpt lat="41.3536293" lon="13.1004124"><ele>5.0</ele><time>2026-03-25T11:22:16.965Z</time></trkpt><trkpt lat="41.3534661" lon="13.1001813"><ele>5.0</ele><time>2026-03-25T11:22:17.958Z</time></trkpt><trkpt lat="41.3533015" lon="13.0999512"><ele>6.0</ele><time>2026-03-25T11:22:18.966Z</time></trkpt><trkpt lat="41.3531357" lon="13.0997221"><ele>7.0</ele><time>2026-03-25T11:22:19.962Z</time></trkpt><trkpt lat="41.3529695" lon="13.0994932"><ele>6.5</ele><time>2026-03-25T11:22:20.96Z</time></trkpt><trkpt lat="41.3527992" lon="13.0992699"><ele>6.0</ele><time>2026-03-25T11:22:21.963Z</time></trkpt><trkpt lat="41.3526275" lon="13.0990473"><ele>6.0</ele><time>2026-03-25T11:22:22.964Z</time></trkpt><trkpt lat="41.3524536" lon="13.0988267"><ele>6.0</ele><time>2026-03-25T11:22:23.962Z</time></trkpt><trkpt lat="41.3522782" lon="13.0986057"><ele>6.5</ele><time>2026-03-25T11:22:24.974Z</time></trkpt><trkpt lat="41.3521022" lon="13.0983849"><ele>7.0</ele><time>2026-03-25T11:22:25.964Z</time></trkpt><trkpt lat="41.3519259" lon="13.0981646"><ele>7.0</ele><time>2026-03-25T11:22:26.963Z</time></trkpt><trkpt lat="41.3517499" lon="13.0979434"><ele>7.0</ele><time>2026-03-25T11:22:27.964Z</time></trkpt><trkpt lat="41.3515745" lon="13.0977216"><ele>7.0</ele><time>2026-03-25T11:22:28.961Z</time></trkpt><trkpt lat="41.3513993" lon="13.0975012"><ele>7.0</ele><time>2026-03-25T11:22:29.971Z</time></trkpt><trkpt lat="41.3512247" lon="13.0972816"><ele>6.5</ele><time>2026-03-25T11:22:30.961Z</time></trkpt><trkpt lat="41.3510489" lon="13.0970618"><ele>6.0</ele><time>2026-03-25T11:22:31.968Z</time></trkpt><trkpt lat="41.3508725" lon="13.0968425"><ele>6.0</ele><time>2026-03-25T11:22:32.96Z</time></trkpt><trkpt lat="41.3506945" lon="13.0966235"><ele>6.0</ele><time>2026-03-25T11:22:33.966Z</time></trkpt><trkpt lat="41.3505161" lon="13.0964061"><ele>7.0</ele><time>2026-03-25T11:22:34.96Z</time></trkpt><trkpt lat="41.3503382" lon="13.0961893"><ele>8.0</ele><time>2026-03-25T11:22:35.971Z</time></trkpt><trkpt lat="41.3501631" lon="13.0959716"><ele>7.5</ele><time>2026-03-25T11:22:36.973Z</time></trkpt><trkpt lat="41.3499896" lon="13.0957521"><ele>7.0</ele><time>2026-03-25T11:22:37.965Z</time></trkpt><trkpt lat="41.3498183" lon="13.0955317"><ele>8.0</ele><time>2026-03-25T11:22:38.963Z</time></trkpt><trkpt lat="41.349648" lon="13.0953126"><ele>9.0</ele><time>2026-03-25T11:22:39.967Z</time></trkpt><trkpt lat="41.3494766" lon="13.095097"><ele>9.0</ele><time>2026-03-25T11:22:40.962Z</time></trkpt><trkpt lat="41.3493035" lon="13.0948846"><ele>9.0</ele><time>2026-03-25T11:22:41.968Z</time></trkpt><trkpt lat="41.3491314" lon="13.0946695"><ele>9.0</ele><time>2026-03-25T11:22:42.979Z</time></trkpt><trkpt lat="41.3489594" lon="13.0944507"><ele>9.0</ele><time>2026-03-25T11:22:43.967Z</time></trkpt><trkpt lat="41.3487868" lon="13.094233"><ele>9.0</ele><time>2026-03-25T11:22:44.958Z</time></trkpt><trkpt lat="41.3486142" lon="13.0940176"><ele>9.0</ele><time>2026-03-25T11:22:45.965Z</time></trkpt><trkpt lat="41.3484438" lon="13.0938017"><ele>9.0</ele><time>2026-03-25T11:22:46.963Z</time></trkpt><trkpt lat="41.3482719" lon="13.0935843"><ele>9.0</ele><time>2026-03-25T11:22:47.972Z</time></trkpt><trkpt lat="41.3480987" lon="13.0933678"><ele>10.0</ele><time>2026-03-25T11:22:48.962Z</time></trkpt><trkpt lat="41.3479241" lon="13.0931522"><ele>11.0</ele><time>2026-03-25T11:22:49.967Z</time></trkpt><trkpt lat="41.3477487" lon="13.0929359"><ele>11.0</ele><time>2026-03-25T11:22:50.967Z</time></trkpt><trkpt lat="41.347574" lon="13.0927198"><ele>11.0</ele><time>2026-03-25T11:22:51.962Z</time></trkpt><trkpt lat="41.3473999" lon="13.092503"><ele>10.5</ele><time>2026-03-25T11:22:52.98Z</time></trkpt><trkpt lat="41.3472253" lon="13.0922847"><ele>10.0</ele><time>2026-03-25T11:22:53.97Z</time></trkpt><trkpt lat="41.3470504" lon="13.0920659"><ele>11.0</ele><time>2026-03-25T11:22:54.958Z</time></trkpt><trkpt lat="41.346874" lon="13.091847"><ele>12.0</ele><time>2026-03-25T11:22:55.965Z</time></trkpt><trkpt lat="41.3466978" lon="13.0916284"><ele>11.5</ele><time>2026-03-25T11:22:56.96Z</time></trkpt><trkpt lat="41.3465224" lon="13.0914129"><ele>11.0</ele><time>2026-03-25T11:22:57.965Z</time></trkpt><trkpt lat="41.3463476" lon="13.0911966"><ele>11.0</ele><time>2026-03-25T11:22:58.976Z</time></trkpt><trkpt lat="41.346172" lon="13.0909793"><ele>11.0</ele><time>2026-03-25T11:22:59.964Z</time></trkpt><trkpt lat="41.3459978" lon="13.09076"><ele>11.0</ele><time>2026-03-25T11:23:00.96Z</time></trkpt><trkpt lat="41.3458252" lon="13.0905414"><ele>11.0</ele><time>2026-03-25T11:23:01.962Z</time></trkpt><trkpt lat="41.3456533" lon="13.0903259"><ele>12.0</ele><time>2026-03-25T11:23:02.962Z</time></trkpt><trkpt lat="41.3454813" lon="13.0901115"><ele>13.0</ele><time>2026-03-25T11:23:03.964Z</time></trkpt><trkpt lat="41.3453087" lon="13.0898962"><ele>13.5</ele><time>2026-03-25T11:23:04.968Z</time></trkpt><trkpt lat="41.3451369" lon="13.0896916"><ele>14.0</ele><time>2026-03-25T11:23:05.956Z</time></trkpt><trkpt lat="41.3449675" lon="13.0894776"><ele>14.0</ele><time>2026-03-25T11:23:06.958Z</time></trkpt><trkpt lat="41.3447938" lon="13.0892634"><ele>14.0</ele><time>2026-03-25T11:23:07.952Z</time></trkpt><trkpt lat="41.3446158" lon="13.0890492"><ele>14.0</ele><time>2026-03-25T11:23:08.961Z</time></trkpt><trkpt lat="41.3444376" lon="13.0888325"><ele>14.0</ele><time>2026-03-25T11:23:09.962Z</time></trkpt><trkpt lat="41.3442676" lon="13.088615"><ele>14.0</ele><time>2026-03-25T11:23:10.965Z</time></trkpt><trkpt lat="41.344093" lon="13.0883992"><ele>14.0</ele><time>2026-03-25T11:23:11.958Z</time></trkpt><trkpt lat="41.3439192" lon="13.0881829"><ele>13.5</ele><time>2026-03-25T11:23:12.958Z</time></trkpt><trkpt lat="41.3437448" lon="13.0879663"><ele>13.0</ele><time>2026-03-25T11:23:13.963Z</time></trkpt><trkpt lat="41.3435701" lon="13.0877479"><ele>13.0</ele><time>2026-03-25T11:23:14.957Z</time></trkpt><trkpt lat="41.3433942" lon="13.0875287"><ele>13.0</ele><time>2026-03-25T11:23:15.963Z</time></trkpt><trkpt lat="41.3432194" lon="13.0873114"><ele>13.5</ele><time>2026-03-25T11:23:16.957Z</time></trkpt><trkpt lat="41.3430444" lon="13.0870948"><ele>14.0</ele><time>2026-03-25T11:23:17.965Z</time></trkpt><trkpt lat="41.3428705" lon="13.0868794"><ele>14.0</ele><time>2026-03-25T11:23:18.968Z</time></trkpt><trkpt lat="41.3426963" lon="13.086665"><ele>14.0</ele><time>2026-03-25T11:23:19.96Z</time></trkpt><trkpt lat="41.3425217" lon="13.0864478"><ele>14.5</ele><time>2026-03-25T11:23:20.962Z</time></trkpt><trkpt lat="41.342348" lon="13.0862305"><ele>15.0</ele><time>2026-03-25T11:23:21.962Z</time></trkpt><trkpt lat="41.3421736" lon="13.0860138"><ele>15.0</ele><time>2026-03-25T11:23:22.954Z</time></trkpt><trkpt lat="41.3419979" lon="13.0857951"><ele>15.0</ele><time>2026-03-25T11:23:23.975Z</time></trkpt><trkpt lat="41.3418263" lon="13.0855802"><ele>15.5</ele><time>2026-03-25T11:23:24.957Z</time></trkpt><trkpt lat="41.341652" lon="13.0853623"><ele>16.0</ele><time>2026-03-25T11:23:25.965Z</time></trkpt><trkpt lat="41.3414785" lon="13.0851463"><ele>16.5</ele><time>2026-03-25T11:23:26.964Z</time></trkpt><trkpt lat="41.3413051" lon="13.0849312"><ele>17.0</ele><time>2026-03-25T11:23:27.962Z</time></trkpt><trkpt lat="41.3411288" lon="13.0847147"><ele>18.0</ele><time>2026-03-25T11:23:28.97Z</time></trkpt><trkpt lat="41.3409537" lon="13.0844979"><ele>19.0</ele><time>2026-03-25T11:23:29.955Z</time></trkpt><trkpt lat="41.3407777" lon="13.0842754"><ele>18.0</ele><time>2026-03-25T11:23:30.96Z</time></trkpt><trkpt lat="41.3406015" lon="13.0840539"><ele>17.0</ele><time>2026-03-25T11:23:31.957Z</time></trkpt><trkpt lat="41.3404237" lon="13.0838331"><ele>17.0</ele><time>2026-03-25T11:23:32.961Z</time></trkpt><trkpt lat="41.3402446" lon="13.083614"><ele>17.0</ele><time>2026-03-25T11:23:33.958Z</time></trkpt><trkpt lat="41.3400644" lon="13.0833924"><ele>18.0</ele><time>2026-03-25T11:23:34.969Z</time></trkpt><trkpt lat="41.3398882" lon="13.0831726"><ele>19.0</ele><time>2026-03-25T11:23:35.956Z</time></trkpt><trkpt lat="41.3397138" lon="13.0829513"><ele>19.0</ele><time>2026-03-25T11:23:36.966Z</time></trkpt><trkpt lat="41.3395488" lon="13.0827434"><ele>19.0</ele><time>2026-03-25T11:23:37.958Z</time></trkpt><trkpt lat="41.3393863" lon="13.0825401"><ele>19.0</ele><time>2026-03-25T11:23:38.963Z</time></trkpt><trkpt lat="41.3392214" lon="13.0823348"><ele>19.0</ele><time>2026-03-25T11:23:39.96Z</time></trkpt><trkpt lat="41.3390546" lon="13.0821262"><ele>19.0</ele><time>2026-03-25T11:23:40.965Z</time></trkpt><trkpt lat="41.3389" lon="13.081929"><ele>19.0</ele><time>2026-03-25T11:23:41.962Z</time></trkpt><trkpt lat="41.3387592" lon="13.0817413"><ele>19.0</ele><time>2026-03-25T11:23:42.966Z</time></trkpt><trkpt lat="41.3386251" lon="13.0815493"><ele>19.333333333333332</ele><time>2026-03-25T11:23:43.961Z</time></trkpt><trkpt lat="41.3384994" lon="13.0813562"><ele>19.666666666666668</ele><time>2026-03-25T11:23:44.96Z</time></trkpt><trkpt lat="41.3383852" lon="13.0811807"><ele>20.0</ele><time>2026-03-25T11:23:45.962Z</time></trkpt><trkpt lat="41.338276" lon="13.0810282"><ele>20.0</ele><time>2026-03-25T11:23:46.955Z</time></trkpt><trkpt lat="41.338167" lon="13.0809006"><ele>20.0</ele><time>2026-03-25T11:23:47.962Z</time></trkpt><trkpt lat="41.3380632" lon="13.0807961"><ele>20.0</ele><time>2026-03-25T11:23:48.965Z</time></trkpt><trkpt lat="41.3379736" lon="13.0806986"><ele>20.0</ele><time>2026-03-25T11:23:49.962Z</time></trkpt><trkpt lat="41.3379045" lon="13.0805847"><ele>20.2</ele><time>2026-03-25T11:23:50.97Z</time></trkpt><trkpt lat="41.3378604" lon="13.0804464"><ele>20.4</ele><time>2026-03-25T11:23:51.962Z</time></trkpt><trkpt lat="41.3378453" lon="13.080292"><ele>20.6</ele><time>2026-03-25T11:23:52.969Z</time></trkpt><trkpt lat="41.3378457" lon="13.0801485"><ele>20.8</ele><time>2026-03-25T11:23:53.968Z</time></trkpt><trkpt lat="41.3378377" lon="13.0800255"><ele>21.0</ele><time>2026-03-25T11:23:54.962Z</time></trkpt><trkpt lat="41.3378011" lon="13.0799225"><ele>21.6</ele><time>2026-03-25T11:23:55.97Z</time></trkpt><trkpt lat="41.3377376" lon="13.0798414"><ele>22.200000000000003</ele><time>2026-03-25T11:23:56.966Z</time></trkpt><trkpt lat="41.3376454" lon="13.0797831"><ele>22.799999999999997</ele><time>2026-03-25T11:23:57.97Z</time></trkpt><trkpt lat="41.3375284" lon="13.0797457"><ele>23.4</ele><time>2026-03-25T11:23:58.968Z</time></trkpt><trkpt lat="41.3373919" lon="13.0797169"><ele>24.0</ele><time>2026-03-25T11:23:59.965Z</time></trkpt><trkpt lat="41.3372528" lon="13.0796697"><ele>25.333333333333336</ele><time>2026-03-25T11:24:00.971Z</time></trkpt><trkpt lat="41.337118" lon="13.0796089"><ele>26.666666666666668</ele><time>2026-03-25T11:24:01.968Z</time></trkpt><trkpt lat="41.3369924" lon="13.079479"><ele>28.0</ele><time>2026-03-25T11:24:02.966Z</time></trkpt><trkpt lat="41.3368764" lon="13.0793175"><ele>28.0</ele><time>2026-03-25T11:24:03.967Z</time></trkpt><trkpt lat="41.3367608" lon="13.0791196"><ele>28.0</ele><time>2026-03-25T11:24:04.967Z</time></trkpt><trkpt lat="41.3366388" lon="13.0789188"><ele>28.0</ele><time>2026-03-25T11:24:05.96Z</time></trkpt><trkpt lat="41.3365087" lon="13.0787206"><ele>30.0</ele><time>2026-03-25T11:24:06.972Z</time></trkpt><trkpt lat="41.3363726" lon="13.0785243"><ele>32.0</ele><time>2026-03-25T11:24:07.964Z</time></trkpt><trkpt lat="41.3362327" lon="13.0783236"><ele>34.0</ele><time>2026-03-25T11:24:08.963Z</time></trkpt><trkpt lat="41.3360886" lon="13.0781214"><ele>34.0</ele><time>2026-03-25T11:24:09.961Z</time></trkpt><trkpt lat="41.3359446" lon="13.077917"><ele>34.0</ele><time>2026-03-25T11:24:10.966Z</time></trkpt><trkpt lat="41.3358035" lon="13.077708"><ele>34.0</ele><time>2026-03-25T11:24:11.964Z</time></trkpt><trkpt lat="41.3356591" lon="13.0774951"><ele>34.0</ele><time>2026-03-25T11:24:12.965Z</time></trkpt><trkpt lat="41.3355136" lon="13.07728"><ele>34.0</ele><time>2026-03-25T11:24:13.965Z</time></trkpt><trkpt lat="41.3353663" lon="13.0770621"><ele>34.0</ele><time>2026-03-25T11:24:14.955Z</time></trkpt><trkpt lat="41.3352145" lon="13.0768377"><ele>34.0</ele><time>2026-03-25T11:24:15.972Z</time></trkpt><trkpt lat="41.3350643" lon="13.0766128"><ele>34.0</ele><time>2026-03-25T11:24:16.962Z</time></trkpt><trkpt lat="41.334911" lon="13.0763867"><ele>34.5</ele><time>2026-03-25T11:24:17.954Z</time></trkpt><trkpt lat="41.3347567" lon="13.0761593"><ele>35.0</ele><time>2026-03-25T11:24:18.955Z</time></trkpt><trkpt lat="41.3346032" lon="13.0759323"><ele>35.5</ele><time>2026-03-25T11:24:19.961Z</time></trkpt><trkpt lat="41.3344524" lon="13.0757045"><ele>36.0</ele><time>2026-03-25T11:24:20.956Z</time></trkpt><trkpt lat="41.3342994" lon="13.0754786"><ele>36.0</ele><time>2026-03-25T11:24:21.962Z</time></trkpt><trkpt lat="41.3341451" lon="13.0752532"><ele>36.0</ele><time>2026-03-25T11:24:22.956Z</time></trkpt><trkpt lat="41.3339884" lon="13.0750287"><ele>35.0</ele><time>2026-03-25T11:24:23.961Z</time></trkpt><trkpt lat="41.3338322" lon="13.074804"><ele>34.0</ele><time>2026-03-25T11:24:24.977Z</time></trkpt><trkpt lat="41.3336764" lon="13.0745767"><ele>34.0</ele><time>2026-03-25T11:24:25.962Z</time></trkpt><trkpt lat="41.3335218" lon="13.0743472"><ele>34.0</ele><time>2026-03-25T11:24:26.961Z</time></trkpt><trkpt lat="41.3333669" lon="13.0741163"><ele>35.5</ele><time>2026-03-25T11:24:27.965Z</time></trkpt><trkpt lat="41.333212" lon="13.0738837"><ele>37.0</ele><time>2026-03-25T11:24:28.966Z</time></trkpt><trkpt lat="41.3330565" lon="13.0736528"><ele>37.0</ele><time>2026-03-25T11:24:29.955Z</time></trkpt><trkpt lat="41.3328978" lon="13.0734225"><ele>37.0</ele><time>2026-03-25T11:24:30.966Z</time></trkpt><trkpt lat="41.3327394" lon="13.0731931"><ele>38.5</ele><time>2026-03-25T11:24:31.962Z</time></trkpt><trkpt lat="41.3325827" lon="13.0729616"><ele>40.0</ele><time>2026-03-25T11:24:32.953Z</time></trkpt><trkpt lat="41.3324249" lon="13.0727315"><ele>40.0</ele><time>2026-03-25T11:24:33.963Z</time></trkpt><trkpt lat="41.3322658" lon="13.0725032"><ele>40.0</ele><time>2026-03-25T11:24:34.956Z</time></trkpt><trkpt lat="41.3321087" lon="13.0722745"><ele>40.5</ele><time>2026-03-25T11:24:35.97Z</time></trkpt><trkpt lat="41.331953" lon="13.0720415"><ele>41.0</ele><time>2026-03-25T11:24:36.96Z</time></trkpt><trkpt lat="41.3317974" lon="13.0718083"><ele>41.0</ele><time>2026-03-25T11:24:37.961Z</time></trkpt><trkpt lat="41.3316401" lon="13.0715747"><ele>41.0</ele><time>2026-03-25T11:24:38.961Z</time></trkpt><trkpt lat="41.331483" lon="13.0713406"><ele>41.5</ele><time>2026-03-25T11:24:39.959Z</time></trkpt><trkpt lat="41.3313258" lon="13.0711069"><ele>42.0</ele><time>2026-03-25T11:24:40.961Z</time></trkpt><trkpt lat="41.3311686" lon="13.0708734"><ele>41.5</ele><time>2026-03-25T11:24:41.967Z</time></trkpt><trkpt lat="41.3310105" lon="13.0706393"><ele>41.0</ele><time>2026-03-25T11:24:42.96Z</time></trkpt><trkpt lat="41.3308525" lon="13.0704064"><ele>41.0</ele><time>2026-03-25T11:24:43.962Z</time></trkpt><trkpt lat="41.3306945" lon="13.0701743"><ele>41.0</ele><time>2026-03-25T11:24:44.966Z</time></trkpt><trkpt lat="41.330538" lon="13.0699437"><ele>41.0</ele><time>2026-03-25T11:24:45.967Z</time></trkpt><trkpt lat="41.3303805" lon="13.069716"><ele>41.0</ele><time>2026-03-25T11:24:46.971Z</time></trkpt><trkpt lat="41.3302227" lon="13.0694875"><ele>41.0</ele><time>2026-03-25T11:24:47.958Z</time></trkpt><trkpt lat="41.3300644" lon="13.0692555"><ele>41.0</ele><time>2026-03-25T11:24:48.967Z</time></trkpt><trkpt lat="41.3299052" lon="13.0690203"><ele>41.0</ele><time>2026-03-25T11:24:49.959Z</time></trkpt><trkpt lat="41.3297454" lon="13.0687844"><ele>41.0</ele><time>2026-03-25T11:24:50.96Z</time></trkpt><trkpt lat="41.3295867" lon="13.0685474"><ele>41.0</ele><time>2026-03-25T11:24:51.958Z</time></trkpt><trkpt lat="41.3294286" lon="13.0683108"><ele>41.0</ele><time>2026-03-25T11:24:52.953Z</time></trkpt><trkpt lat="41.3292715" lon="13.0680765"><ele>41.0</ele><time>2026-03-25T11:24:53.957Z</time></trkpt><trkpt lat="41.329114" lon="13.0678443"><ele>41.0</ele><time>2026-03-25T11:24:54.952Z</time></trkpt><trkpt lat="41.3289553" lon="13.0676133"><ele>40.5</ele><time>2026-03-25T11:24:55.969Z</time></trkpt><trkpt lat="41.3287993" lon="13.0673855"><ele>40.0</ele><time>2026-03-25T11:24:56.957Z</time></trkpt><trkpt lat="41.3286418" lon="13.067156"><ele>40.0</ele><time>2026-03-25T11:24:57.962Z</time></trkpt><trkpt lat="41.3284853" lon="13.0669279"><ele>40.0</ele><time>2026-03-25T11:24:58.961Z</time></trkpt><trkpt lat="41.3283286" lon="13.0666985"><ele>41.0</ele><time>2026-03-25T11:24:59.968Z</time></trkpt><trkpt lat="41.3281732" lon="13.0664697"><ele>42.0</ele><time>2026-03-25T11:25:00.956Z</time></trkpt><trkpt lat="41.3280162" lon="13.0662366"><ele>42.0</ele><time>2026-03-25T11:25:01.958Z</time></trkpt><trkpt lat="41.3278587" lon="13.0660015"><ele>42.0</ele><time>2026-03-25T11:25:02.958Z</time></trkpt><trkpt lat="41.3276973" lon="13.0657669"><ele>42.5</ele><time>2026-03-25T11:25:03.969Z</time></trkpt><trkpt lat="41.3275362" lon="13.0655323"><ele>43.0</ele><time>2026-03-25T11:25:04.962Z</time></trkpt><trkpt lat="41.3273738" lon="13.0652941"><ele>42.0</ele><time>2026-03-25T11:25:05.969Z</time></trkpt><trkpt lat="41.3272122" lon="13.0650549"><ele>41.0</ele><time>2026-03-25T11:25:06.965Z</time></trkpt><trkpt lat="41.3270511" lon="13.064813"><ele>41.0</ele><time>2026-03-25T11:25:07.955Z</time></trkpt><trkpt lat="41.3268877" lon="13.0645695"><ele>41.0</ele><time>2026-03-25T11:25:08.963Z</time></trkpt><trkpt lat="41.3267262" lon="13.064328"><ele>41.0</ele><time>2026-03-25T11:25:09.971Z</time></trkpt><trkpt lat="41.3265654" lon="13.0640908"><ele>41.0</ele><time>2026-03-25T11:25:10.966Z</time></trkpt><trkpt lat="41.3264026" lon="13.0638543"><ele>41.0</ele><time>2026-03-25T11:25:11.959Z</time></trkpt><trkpt lat="41.3262395" lon="13.0636144"><ele>41.0</ele><time>2026-03-25T11:25:12.964Z</time></trkpt><trkpt lat="41.3260765" lon="13.0633739"><ele>41.0</ele><time>2026-03-25T11:25:13.961Z</time></trkpt><trkpt lat="41.325909" lon="13.0631336"><ele>41.0</ele><time>2026-03-25T11:25:14.965Z</time></trkpt><trkpt lat="41.3257414" lon="13.0628916"><ele>41.0</ele><time>2026-03-25T11:25:15.972Z</time></trkpt><trkpt lat="41.3255757" lon="13.0626508"><ele>41.0</ele><time>2026-03-25T11:25:16.96Z</time></trkpt><trkpt lat="41.3254094" lon="13.0624075"><ele>39.5</ele><time>2026-03-25T11:25:17.961Z</time></trkpt><trkpt lat="41.3252436" lon="13.0621636"><ele>38.0</ele><time>2026-03-25T11:25:18.966Z</time></trkpt><trkpt lat="41.3250783" lon="13.0619196"><ele>38.0</ele><time>2026-03-25T11:25:19.963Z</time></trkpt><trkpt lat="41.324913" lon="13.0616754"><ele>38.0</ele><time>2026-03-25T11:25:20.963Z</time></trkpt><trkpt lat="41.3247477" lon="13.0614316"><ele>38.5</ele><time>2026-03-25T11:25:21.964Z</time></trkpt><trkpt lat="41.3245835" lon="13.0611878"><ele>39.0</ele><time>2026-03-25T11:25:22.957Z</time></trkpt><trkpt lat="41.3244207" lon="13.0609445"><ele>39.0</ele><time>2026-03-25T11:25:23.954Z</time></trkpt><trkpt lat="41.3242575" lon="13.0607066"><ele>39.0</ele><time>2026-03-25T11:25:24.962Z</time></trkpt><trkpt lat="41.3240949" lon="13.0604716"><ele>39.0</ele><time>2026-03-25T11:25:25.956Z</time></trkpt><trkpt lat="41.3239319" lon="13.0602342"><ele>39.0</ele><time>2026-03-25T11:25:26.958Z</time></trkpt><trkpt lat="41.3237693" lon="13.0599953"><ele>39.5</ele><time>2026-03-25T11:25:27.962Z</time></trkpt><trkpt lat="41.3236065" lon="13.0597561"><ele>40.0</ele><time>2026-03-25T11:25:28.96Z</time></trkpt><trkpt lat="41.3234434" lon="13.059515"><ele>40.0</ele><time>2026-03-25T11:25:29.964Z</time></trkpt><trkpt lat="41.3232819" lon="13.0592731"><ele>40.0</ele><time>2026-03-25T11:25:30.96Z</time></trkpt><trkpt lat="41.3231187" lon="13.0590326"><ele>40.0</ele><time>2026-03-25T11:25:31.961Z</time></trkpt><trkpt lat="41.3229548" lon="13.058793"><ele>40.0</ele><time>2026-03-25T11:25:32.961Z</time></trkpt><trkpt lat="41.3227937" lon="13.0585512"><ele>40.0</ele><time>2026-03-25T11:25:33.966Z</time></trkpt><trkpt lat="41.3226331" lon="13.0583119"><ele>40.0</ele><time>2026-03-25T11:25:34.961Z</time></trkpt><trkpt lat="41.3224701" lon="13.0580707"><ele>40.5</ele><time>2026-03-25T11:25:35.962Z</time></trkpt><trkpt lat="41.3223057" lon="13.0578291"><ele>41.0</ele><time>2026-03-25T11:25:36.955Z</time></trkpt><trkpt lat="41.3221411" lon="13.0575838"><ele>40.0</ele><time>2026-03-25T11:25:37.955Z</time></trkpt><trkpt lat="41.321975" lon="13.0573377"><ele>39.0</ele><time>2026-03-25T11:25:38.959Z</time></trkpt><trkpt lat="41.3218076" lon="13.0570918"><ele>39.0</ele><time>2026-03-25T11:25:39.959Z</time></trkpt><trkpt lat="41.3216406" lon="13.0568435"><ele>39.0</ele><time>2026-03-25T11:25:40.958Z</time></trkpt><trkpt lat="41.3214698" lon="13.0565958"><ele>38.5</ele><time>2026-03-25T11:25:41.961Z</time></trkpt><trkpt lat="41.3212984" lon="13.0563477"><ele>38.0</ele><time>2026-03-25T11:25:42.958Z</time></trkpt><trkpt lat="41.3211258" lon="13.0560976"><ele>38.0</ele><time>2026-03-25T11:25:43.963Z</time></trkpt><trkpt lat="41.320953" lon="13.0558457"><ele>38.0</ele><time>2026-03-25T11:25:44.972Z</time></trkpt><trkpt lat="41.3207815" lon="13.0555956"><ele>37.5</ele><time>2026-03-25T11:25:45.958Z</time></trkpt><trkpt lat="41.3206084" lon="13.0553425"><ele>37.0</ele><time>2026-03-25T11:25:46.965Z</time></trkpt><trkpt lat="41.3204382" lon="13.0550913"><ele>37.5</ele><time>2026-03-25T11:25:47.962Z</time></trkpt><trkpt lat="41.3202707" lon="13.0548395"><ele>38.0</ele><time>2026-03-25T11:25:48.964Z</time></trkpt><trkpt lat="41.3201045" lon="13.0545913"><ele>38.0</ele><time>2026-03-25T11:25:49.955Z</time></trkpt><trkpt lat="41.3199355" lon="13.0543421"><ele>38.0</ele><time>2026-03-25T11:25:50.964Z</time></trkpt><trkpt lat="41.3197656" lon="13.0540951"><ele>37.5</ele><time>2026-03-25T11:25:51.965Z</time></trkpt><trkpt lat="41.3195971" lon="13.0538484"><ele>37.0</ele><time>2026-03-25T11:25:52.957Z</time></trkpt><trkpt lat="41.319429" lon="13.0536005"><ele>37.0</ele><time>2026-03-25T11:25:53.957Z</time></trkpt><trkpt lat="41.3192618" lon="13.0533523"><ele>37.0</ele><time>2026-03-25T11:25:54.96Z</time></trkpt><trkpt lat="41.3190912" lon="13.0531067"><ele>37.0</ele><time>2026-03-25T11:25:55.968Z</time></trkpt><trkpt lat="41.3189218" lon="13.0528607"><ele>37.0</ele><time>2026-03-25T11:25:56.965Z</time></trkpt><trkpt lat="41.3187534" lon="13.0526116"><ele>37.0</ele><time>2026-03-25T11:25:57.966Z</time></trkpt><trkpt lat="41.3185861" lon="13.0523594"><ele>37.0</ele><time>2026-03-25T11:25:58.961Z</time></trkpt><trkpt lat="41.3184167" lon="13.0521056"><ele>37.0</ele><time>2026-03-25T11:25:59.969Z</time></trkpt><trkpt lat="41.3182487" lon="13.051856"><ele>37.0</ele><time>2026-03-25T11:26:00.956Z</time></trkpt><trkpt lat="41.3180776" lon="13.0516066"><ele>38.0</ele><time>2026-03-25T11:26:01.963Z</time></trkpt><trkpt lat="41.3179056" lon="13.0513604"><ele>39.0</ele><time>2026-03-25T11:26:02.956Z</time></trkpt><trkpt lat="41.3177334" lon="13.0511114"><ele>39.0</ele><time>2026-03-25T11:26:03.958Z</time></trkpt><trkpt lat="41.3175621" lon="13.0508608"><ele>39.0</ele><time>2026-03-25T11:26:04.97Z</time></trkpt><trkpt lat="41.3173917" lon="13.0506093"><ele>38.5</ele><time>2026-03-25T11:26:05.955Z</time></trkpt><trkpt lat="41.3172228" lon="13.0503577"><ele>38.0</ele><time>2026-03-25T11:26:06.954Z</time></trkpt><trkpt lat="41.3170543" lon="13.0501088"><ele>37.0</ele><time>2026-03-25T11:26:07.957Z</time></trkpt><trkpt lat="41.3168861" lon="13.049863"><ele>36.0</ele><time>2026-03-25T11:26:08.958Z</time></trkpt><trkpt lat="41.3167171" lon="13.0496186"><ele>36.0</ele><time>2026-03-25T11:26:09.955Z</time></trkpt><trkpt lat="41.3165486" lon="13.0493739"><ele>36.0</ele><time>2026-03-25T11:26:10.952Z</time></trkpt><trkpt lat="41.3163813" lon="13.0491273"><ele>38.0</ele><time>2026-03-25T11:26:11.956Z</time></trkpt><trkpt lat="41.3162143" lon="13.0488783"><ele>40.0</ele><time>2026-03-25T11:26:12.955Z</time></trkpt><trkpt lat="41.3160468" lon="13.0486289"><ele>40.0</ele><time>2026-03-25T11:26:13.961Z</time></trkpt><trkpt lat="41.3158787" lon="13.0483808"><ele>40.0</ele><time>2026-03-25T11:26:14.96Z</time></trkpt><trkpt lat="41.3157097" lon="13.0481327"><ele>41.5</ele><time>2026-03-25T11:26:15.958Z</time></trkpt><trkpt lat="41.3155401" lon="13.0478852"><ele>43.0</ele><time>2026-03-25T11:26:16.954Z</time></trkpt><trkpt lat="41.3153709" lon="13.0476373"><ele>42.5</ele><time>2026-03-25T11:26:17.956Z</time></trkpt><trkpt lat="41.3152038" lon="13.0473901"><ele>42.0</ele><time>2026-03-25T11:26:18.954Z</time></trkpt><trkpt lat="41.315038" lon="13.0471436"><ele>42.0</ele><time>2026-03-25T11:26:19.958Z</time></trkpt><trkpt lat="41.3148705" lon="13.0468983"><ele>42.0</ele><time>2026-03-25T11:26:20.962Z</time></trkpt><trkpt lat="41.3147032" lon="13.0466525"><ele>40.5</ele><time>2026-03-25T11:26:21.958Z</time></trkpt><trkpt lat="41.3145362" lon="13.0464054"><ele>39.0</ele><time>2026-03-25T11:26:22.957Z</time></trkpt><trkpt lat="41.3143706" lon="13.0461585"><ele>39.0</ele><time>2026-03-25T11:26:23.952Z</time></trkpt><trkpt lat="41.3142044" lon="13.0459154"><ele>39.0</ele><time>2026-03-25T11:26:24.958Z</time></trkpt><trkpt lat="41.3140367" lon="13.0456739"><ele>38.5</ele><time>2026-03-25T11:26:25.952Z</time></trkpt><trkpt lat="41.3138698" lon="13.0454318"><ele>38.0</ele><time>2026-03-25T11:26:26.965Z</time></trkpt><trkpt lat="41.3137031" lon="13.0451893"><ele>38.0</ele><time>2026-03-25T11:26:27.957Z</time></trkpt><trkpt lat="41.3135372" lon="13.0449455"><ele>38.0</ele><time>2026-03-25T11:26:28.959Z</time></trkpt><trkpt lat="41.3133704" lon="13.0447004"><ele>38.0</ele><time>2026-03-25T11:26:29.959Z</time></trkpt><trkpt lat="41.3132038" lon="13.0444548"><ele>38.0</ele><time>2026-03-25T11:26:30.957Z</time></trkpt><trkpt lat="41.3130343" lon="13.04421"><ele>37.0</ele><time>2026-03-25T11:26:31.969Z</time></trkpt><trkpt lat="41.3128663" lon="13.0439631"><ele>36.0</ele><time>2026-03-25T11:26:32.955Z</time></trkpt><trkpt lat="41.3126989" lon="13.0437152"><ele>36.0</ele><time>2026-03-25T11:26:33.958Z</time></trkpt><trkpt lat="41.3125292" lon="13.0434686"><ele>36.0</ele><time>2026-03-25T11:26:34.961Z</time></trkpt><trkpt lat="41.3123564" lon="13.0432221"><ele>36.0</ele><time>2026-03-25T11:26:35.957Z</time></trkpt><trkpt lat="41.3121835" lon="13.0429704"><ele>36.0</ele><time>2026-03-25T11:26:36.968Z</time></trkpt><trkpt lat="41.3120107" lon="13.0427249"><ele>36.0</ele><time>2026-03-25T11:26:37.955Z</time></trkpt><trkpt lat="41.3118501" lon="13.0424914"><ele>36.0</ele><time>2026-03-25T11:26:38.956Z</time></trkpt><trkpt lat="41.3117005" lon="13.0422714"><ele>36.0</ele><time>2026-03-25T11:26:39.958Z</time></trkpt><trkpt lat="41.3115621" lon="13.0420678"><ele>36.0</ele><time>2026-03-25T11:26:40.954Z</time></trkpt><trkpt lat="41.3114334" lon="13.0418797"><ele>36.0</ele><time>2026-03-25T11:26:41.96Z</time></trkpt><trkpt lat="41.3113167" lon="13.0417109"><ele>34.5</ele><time>2026-03-25T11:26:42.973Z</time></trkpt><trkpt lat="41.3112162" lon="13.0415592"><ele>33.0</ele><time>2026-03-25T11:26:43.958Z</time></trkpt><trkpt lat="41.3111283" lon="13.0414224"><ele>31.5</ele><time>2026-03-25T11:26:44.955Z</time></trkpt><trkpt lat="41.3110494" lon="13.0412933"><ele>30.0</ele><time>2026-03-25T11:26:45.956Z</time></trkpt><trkpt lat="41.3109821" lon="13.0411681"><ele>30.0</ele><time>2026-03-25T11:26:46.958Z</time></trkpt><trkpt lat="41.3109298" lon="13.0410456"><ele>30.0</ele><time>2026-03-25T11:26:47.959Z</time></trkpt><trkpt lat="41.310893" lon="13.0409321"><ele>30.0</ele><time>2026-03-25T11:26:48.964Z</time></trkpt><trkpt lat="41.3108627" lon="13.0408343"><ele>30.0</ele><time>2026-03-25T11:26:49.961Z</time></trkpt><trkpt lat="41.3108213" lon="13.0407619"><ele>30.0</ele><time>2026-03-25T11:26:50.963Z</time></trkpt><trkpt lat="41.3107091" lon="13.0407254"><ele>30.0</ele><time>2026-03-25T11:26:52.963Z</time></trkpt><trkpt lat="41.3106484" lon="13.040761"><ele>30.0</ele><time>2026-03-25T11:26:53.963Z</time></trkpt><trkpt lat="41.3105975" lon="13.0408557"><ele>30.0</ele><time>2026-03-25T11:26:54.975Z</time></trkpt><trkpt lat="41.3105535" lon="13.0409638"><ele>30.0</ele><time>2026-03-25T11:26:55.963Z</time></trkpt><trkpt lat="41.3105022" lon="13.0410818"><ele>30.0</ele><time>2026-03-25T11:26:56.962Z</time></trkpt><trkpt lat="41.310407" lon="13.0411828"><ele>30.0</ele><time>2026-03-25T11:26:57.962Z</time></trkpt><trkpt lat="41.3102974" lon="13.0412677"><ele>30.0</ele><time>2026-03-25T11:26:58.964Z</time></trkpt><trkpt lat="41.3101801" lon="13.0413586"><ele>30.0</ele><time>2026-03-25T11:26:59.959Z</time></trkpt><trkpt lat="41.3100599" lon="13.0414518"><ele>30.0</ele><time>2026-03-25T11:27:00.965Z</time></trkpt><trkpt lat="41.3099299" lon="13.0415531"><ele>29.666666666666664</ele><time>2026-03-25T11:27:01.969Z</time></trkpt><trkpt lat="41.3097905" lon="13.0416635"><ele>29.333333333333332</ele><time>2026-03-25T11:27:02.964Z</time></trkpt><trkpt lat="41.3096409" lon="13.0417791"><ele>29.0</ele><time>2026-03-25T11:27:03.964Z</time></trkpt><trkpt lat="41.3094889" lon="13.0418991"><ele>29.0</ele><time>2026-03-25T11:27:04.971Z</time></trkpt><trkpt lat="41.3093354" lon="13.0420236"><ele>29.0</ele><time>2026-03-25T11:27:05.962Z</time></trkpt><trkpt lat="41.3091724" lon="13.0421511"><ele>29.0</ele><time>2026-03-25T11:27:06.962Z</time></trkpt><trkpt lat="41.309005" lon="13.0422829"><ele>29.0</ele><time>2026-03-25T11:27:07.971Z</time></trkpt><trkpt lat="41.308833" lon="13.0424178"><ele>29.0</ele><time>2026-03-25T11:27:08.968Z</time></trkpt><trkpt lat="41.308655" lon="13.0425565"><ele>29.0</ele><time>2026-03-25T11:27:09.965Z</time></trkpt><trkpt lat="41.3084741" lon="13.0427013"><ele>29.0</ele><time>2026-03-25T11:27:10.965Z</time></trkpt><trkpt lat="41.3082909" lon="13.0428482"><ele>29.0</ele><time>2026-03-25T11:27:11.965Z</time></trkpt><trkpt lat="41.3081009" lon="13.0430009"><ele>29.0</ele><time>2026-03-25T11:27:12.976Z</time></trkpt><trkpt lat="41.3079063" lon="13.043157"><ele>30.666666666666664</ele><time>2026-03-25T11:27:13.963Z</time></trkpt><trkpt lat="41.3077119" lon="13.0433102"><ele>32.333333333333336</ele><time>2026-03-25T11:27:14.964Z</time></trkpt><trkpt lat="41.3075246" lon="13.0434566"><ele>34.0</ele><time>2026-03-25T11:27:15.962Z</time></trkpt><trkpt lat="41.3073382" lon="13.0436014"><ele>32.0</ele><time>2026-03-25T11:27:16.964Z</time></trkpt><trkpt lat="41.3071512" lon="13.0437481"><ele>30.0</ele><time>2026-03-25T11:27:17.961Z</time></trkpt><trkpt lat="41.3069621" lon="13.0438958"><ele>28.0</ele><time>2026-03-25T11:27:18.964Z</time></trkpt><trkpt lat="41.3067722" lon="13.0440451"><ele>27.666666666666668</ele><time>2026-03-25T11:27:19.963Z</time></trkpt><trkpt lat="41.3065818" lon="13.044196"><ele>27.333333333333336</ele><time>2026-03-25T11:27:20.966Z</time></trkpt><trkpt lat="41.3063909" lon="13.0443448"><ele>27.0</ele><time>2026-03-25T11:27:21.966Z</time></trkpt><trkpt lat="41.3061988" lon="13.0444924"><ele>27.0</ele><time>2026-03-25T11:27:22.96Z</time></trkpt><trkpt lat="41.306007" lon="13.0446423"><ele>27.0</ele><time>2026-03-25T11:27:23.965Z</time></trkpt><trkpt lat="41.3058152" lon="13.0447947"><ele>27.0</ele><time>2026-03-25T11:27:24.963Z</time></trkpt><trkpt lat="41.3056238" lon="13.0449462"><ele>26.666666666666664</ele><time>2026-03-25T11:27:25.96Z</time></trkpt><trkpt lat="41.3054326" lon="13.0450979"><ele>26.333333333333332</ele><time>2026-03-25T11:27:26.968Z</time></trkpt><trkpt lat="41.3052409" lon="13.0452482"><ele>26.0</ele><time>2026-03-25T11:27:27.966Z</time></trkpt><trkpt lat="41.3050494" lon="13.0454006"><ele>26.0</ele><time>2026-03-25T11:27:28.966Z</time></trkpt><trkpt lat="41.3048569" lon="13.0455528"><ele>26.0</ele><time>2026-03-25T11:27:29.965Z</time></trkpt><trkpt lat="41.3046619" lon="13.0457052"><ele>27.5</ele><time>2026-03-25T11:27:30.96Z</time></trkpt><trkpt lat="41.3044673" lon="13.0458595"><ele>29.0</ele><time>2026-03-25T11:27:31.966Z</time></trkpt><trkpt lat="41.3042733" lon="13.0460154"><ele>29.0</ele><time>2026-03-25T11:27:32.962Z</time></trkpt><trkpt lat="41.3040793" lon="13.0461692"><ele>29.0</ele><time>2026-03-25T11:27:33.978Z</time></trkpt><trkpt lat="41.3038851" lon="13.0463215"><ele>29.5</ele><time>2026-03-25T11:27:34.964Z</time></trkpt><trkpt lat="41.3036856" lon="13.046476"><ele>30.0</ele><time>2026-03-25T11:27:35.983Z</time></trkpt><trkpt lat="41.3034878" lon="13.0466287"><ele>30.0</ele><time>2026-03-25T11:27:36.96Z</time></trkpt><trkpt lat="41.3032853" lon="13.0467858"><ele>30.0</ele><time>2026-03-25T11:27:37.967Z</time></trkpt><trkpt lat="41.3030834" lon="13.0469442"><ele>28.0</ele><time>2026-03-25T11:27:38.959Z</time></trkpt><trkpt lat="41.3028789" lon="13.0471038"><ele>26.0</ele><time>2026-03-25T11:27:39.964Z</time></trkpt><trkpt lat="41.3026743" lon="13.0472616"><ele>26.0</ele><time>2026-03-25T11:27:40.961Z</time></trkpt><trkpt lat="41.3024663" lon="13.0474182"><ele>26.0</ele><time>2026-03-25T11:27:41.962Z</time></trkpt><trkpt lat="41.3022593" lon="13.0475757"><ele>26.5</ele><time>2026-03-25T11:27:42.964Z</time></trkpt><trkpt lat="41.3020533" lon="13.0477371"><ele>27.0</ele><time>2026-03-25T11:27:43.965Z</time></trkpt><trkpt lat="41.3018517" lon="13.0479039"><ele>27.0</ele><time>2026-03-25T11:27:44.977Z</time></trkpt><trkpt lat="41.3016491" lon="13.0480704"><ele>27.0</ele><time>2026-03-25T11:27:45.961Z</time></trkpt><trkpt lat="41.301437" lon="13.0482396"><ele>30.0</ele><time>2026-03-25T11:27:47.007Z</time></trkpt><trkpt lat="41.3012356" lon="13.0483951"><ele>33.0</ele><time>2026-03-25T11:27:47.963Z</time></trkpt><trkpt lat="41.3010301" lon="13.0485567"><ele>33.0</ele><time>2026-03-25T11:27:48.959Z</time></trkpt><trkpt lat="41.300825" lon="13.0487164"><ele>33.0</ele><time>2026-03-25T11:27:49.958Z</time></trkpt><trkpt lat="41.3006213" lon="13.0488774"><ele>35.0</ele><time>2026-03-25T11:27:50.964Z</time></trkpt><trkpt lat="41.3004153" lon="13.0490384"><ele>37.0</ele><time>2026-03-25T11:27:51.965Z</time></trkpt><trkpt lat="41.3002093" lon="13.0492003"><ele>37.0</ele><time>2026-03-25T11:27:52.98Z</time></trkpt><trkpt lat="41.3000072" lon="13.0493589"><ele>37.0</ele><time>2026-03-25T11:27:53.966Z</time></trkpt><trkpt lat="41.2998124" lon="13.0495126"><ele>37.0</ele><time>2026-03-25T11:27:54.966Z</time></trkpt><trkpt lat="41.2996322" lon="13.0496529"><ele>37.0</ele><time>2026-03-25T11:27:55.964Z</time></trkpt><trkpt lat="41.2994641" lon="13.0497807"><ele>37.0</ele><time>2026-03-25T11:27:56.968Z</time></trkpt><trkpt lat="41.2993067" lon="13.0499003"><ele>36.25</ele><time>2026-03-25T11:27:57.968Z</time></trkpt><trkpt lat="41.2991641" lon="13.0500118"><ele>35.5</ele><time>2026-03-25T11:27:58.965Z</time></trkpt><trkpt lat="41.2990355" lon="13.0501096"><ele>34.75</ele><time>2026-03-25T11:27:59.968Z</time></trkpt><trkpt lat="41.2989222" lon="13.0501937"><ele>34.0</ele><time>2026-03-25T11:28:00.966Z</time></trkpt><trkpt lat="41.2988262" lon="13.0502648"><ele>33.5</ele><time>2026-03-25T11:28:01.961Z</time></trkpt><trkpt lat="41.2987437" lon="13.050321"><ele>33.0</ele><time>2026-03-25T11:28:02.97Z</time></trkpt><trkpt lat="41.2986685" lon="13.0503522"><ele>32.5</ele><time>2026-03-25T11:28:03.963Z</time></trkpt><trkpt lat="41.2985935" lon="13.0503491"><ele>32.0</ele><time>2026-03-25T11:28:04.968Z</time></trkpt><trkpt lat="41.2985169" lon="13.0503309"><ele>31.500000000000004</ele><time>2026-03-25T11:28:05.97Z</time></trkpt><trkpt lat="41.2984517" lon="13.0502568"><ele>31.0</ele><time>2026-03-25T11:28:06.962Z</time></trkpt><trkpt lat="41.2984073" lon="13.0501289"><ele>31.0</ele><time>2026-03-25T11:28:07.962Z</time></trkpt><trkpt lat="41.2983829" lon="13.0499797"><ele>31.0</ele><time>2026-03-25T11:28:08.963Z</time></trkpt><trkpt lat="41.2983795" lon="13.0498126"><ele>31.0</ele><time>2026-03-25T11:28:09.959Z</time></trkpt><trkpt lat="41.2983869" lon="13.0496343"><ele>31.0</ele><time>2026-03-25T11:28:10.951Z</time></trkpt><trkpt lat="41.2983997" lon="13.0494499"><ele>37.0</ele><time>2026-03-25T11:28:11.952Z</time></trkpt><trkpt lat="41.2984121" lon="13.0492616"><ele>37.0</ele><time>2026-03-25T11:28:12.961Z</time></trkpt><trkpt lat="41.2984234" lon="13.0490658"><ele>38.0</ele><time>2026-03-25T11:28:13.968Z</time></trkpt></trkseg></trk></gpx>